<?xml version='1.0' encoding='UTF-8'?><gpx version="1.1" creator="JPX - https://github.com/jenetics/jpx" xmlns="http://www.topografix.com/GPX/1/1"><trk><trkseg><trkpt lat="45.6674976" lon="11.7197719"><ele>60.0</ele><time>2026-05-01T06:38:37.558Z</time></trkpt><trkpt lat="45.6674225" lon="11.7198839"><ele>60.0</ele><time>2026-05-01T06:39:30.588Z</time></trkpt><trkpt lat="45.6673948" lon="11.7197423"><ele>60.0</ele><time>2026-05-01T06:39:32.584Z</time></trkpt><trkpt lat="45.6673746" lon="11.719641"><ele>60.0</ele><time>2026-05-01T06:39:33.584Z</time></trkpt><trkpt lat="45.6673497" lon="11.7195195"><ele>60.0</ele><time>2026-05-01T06:39:34.593Z</time></trkpt><trkpt lat="45.6673097" lon="11.7192535"><ele>60.333333333333336</ele><time>2026-05-01T06:39:36.583Z</time></trkpt><trkpt lat="45.6672912" lon="11.7191134"><ele>60.66666666666667</ele><time>2026-05-01T06:39:37.586Z</time></trkpt><trkpt lat="45.6672748" lon="11.7189749"><ele>61.0</ele><time>2026-05-01T06:39:38.62Z</time></trkpt><trkpt lat="45.667253" lon="11.718853"><ele>61.333333333333336</ele><time>2026-05-01T06:39:39.583Z</time></trkpt><trkpt lat="45.6672344" lon="11.7187576"><ele>61.66666666666667</ele><time>2026-05-01T06:39:40.584Z</time></trkpt><trkpt lat="45.6672018" lon="11.7186804"><ele>62.0</ele><time>2026-05-01T06:39:41.582Z</time></trkpt><trkpt lat="45.6671438" lon="11.7186307"><ele>62.0</ele><time>2026-05-01T06:39:42.581Z</time></trkpt><trkpt lat="45.6670676" lon="11.7186195"><ele>62.0</ele><time>2026-05-01T06:39:43.588Z</time></trkpt><trkpt lat="45.6669769" lon="11.7186444"><ele>62.0</ele><time>2026-05-01T06:39:44.585Z</time></trkpt><trkpt lat="45.666882" lon="11.7186835"><ele>62.0</ele><time>2026-05-01T06:39:45.587Z</time></trkpt><trkpt lat="45.6667789" lon="11.7187274"><ele>62.0</ele><time>2026-05-01T06:39:46.592Z</time></trkpt><trkpt lat="45.6666811" lon="11.7187679"><ele>61.66666666666667</ele><time>2026-05-01T06:39:47.588Z</time></trkpt><trkpt lat="45.6665976" lon="11.7188028"><ele>61.333333333333336</ele><time>2026-05-01T06:39:48.615Z</time></trkpt><trkpt lat="45.6665219" lon="11.718832"><ele>61.0</ele><time>2026-05-01T06:39:49.587Z</time></trkpt><trkpt lat="45.6664422" lon="11.7188619"><ele>60.66666666666667</ele><time>2026-05-01T06:39:50.58Z</time></trkpt><trkpt lat="45.666351" lon="11.718887"><ele>60.333333333333336</ele><time>2026-05-01T06:39:51.583Z</time></trkpt><trkpt lat="45.6662495" lon="11.7189184"><ele>60.0</ele><time>2026-05-01T06:39:52.581Z</time></trkpt><trkpt lat="45.6661398" lon="11.718957"><ele>59.75</ele><time>2026-05-01T06:39:53.583Z</time></trkpt><trkpt lat="45.6660242" lon="11.7189985"><ele>59.5</ele><time>2026-05-01T06:39:54.586Z</time></trkpt><trkpt lat="45.6659024" lon="11.7190414"><ele>59.25</ele><time>2026-05-01T06:39:55.583Z</time></trkpt><trkpt lat="45.6657813" lon="11.7190847"><ele>59.0</ele><time>2026-05-01T06:39:56.582Z</time></trkpt><trkpt lat="45.6656727" lon="11.7191254"><ele>59.00000000000001</ele><time>2026-05-01T06:39:57.59Z</time></trkpt><trkpt lat="45.6655774" lon="11.7191627"><ele>59.0</ele><time>2026-05-01T06:39:58.584Z</time></trkpt><trkpt lat="45.6654939" lon="11.719186"><ele>59.0</ele><time>2026-05-01T06:39:59.585Z</time></trkpt><trkpt lat="45.6654106" lon="11.7191792"><ele>59.0</ele><time>2026-05-01T06:40:00.576Z</time></trkpt><trkpt lat="45.6653347" lon="11.7191319"><ele>59.00000000000001</ele><time>2026-05-01T06:40:01.579Z</time></trkpt><trkpt lat="45.6652632" lon="11.7190853"><ele>59.0</ele><time>2026-05-01T06:40:02.601Z</time></trkpt><trkpt lat="45.665231" lon="11.7189696"><ele>58.75</ele><time>2026-05-01T06:40:03.583Z</time></trkpt><trkpt lat="45.6652242" lon="11.7188294"><ele>58.5</ele><time>2026-05-01T06:40:04.58Z</time></trkpt><trkpt lat="45.6652243" lon="11.7186714"><ele>58.25</ele><time>2026-05-01T06:40:05.581Z</time></trkpt><trkpt lat="45.6652119" lon="11.7185033"><ele>58.0</ele><time>2026-05-01T06:40:06.585Z</time></trkpt><trkpt lat="45.6651827" lon="11.718328"><ele>58.5</ele><time>2026-05-01T06:40:07.585Z</time></trkpt><trkpt lat="45.6651394" lon="11.7181437"><ele>59.0</ele><time>2026-05-01T06:40:08.585Z</time></trkpt><trkpt lat="45.6650903" lon="11.7179542"><ele>59.5</ele><time>2026-05-01T06:40:09.593Z</time></trkpt><trkpt lat="45.6650386" lon="11.7177572"><ele>60.0</ele><time>2026-05-01T06:40:10.58Z</time></trkpt><trkpt lat="45.6649848" lon="11.7175527"><ele>60.66666666666667</ele><time>2026-05-01T06:40:11.581Z</time></trkpt><trkpt lat="45.6649304" lon="11.7173455"><ele>61.333333333333336</ele><time>2026-05-01T06:40:12.585Z</time></trkpt><trkpt lat="45.6648756" lon="11.7171333"><ele>62.0</ele><time>2026-05-01T06:40:13.584Z</time></trkpt><trkpt lat="45.6648187" lon="11.7169147"><ele>61.66666666666667</ele><time>2026-05-01T06:40:14.606Z</time></trkpt><trkpt lat="45.6647601" lon="11.7166917"><ele>61.33333333333333</ele><time>2026-05-01T06:40:15.586Z</time></trkpt><trkpt lat="45.6646999" lon="11.7164666"><ele>61.0</ele><time>2026-05-01T06:40:16.582Z</time></trkpt><trkpt lat="45.6646388" lon="11.7162354"><ele>60.33333333333333</ele><time>2026-05-01T06:40:17.588Z</time></trkpt><trkpt lat="45.664577" lon="11.7159994"><ele>59.66666666666667</ele><time>2026-05-01T06:40:18.588Z</time></trkpt><trkpt lat="45.6645141" lon="11.7157624"><ele>59.0</ele><time>2026-05-01T06:40:19.589Z</time></trkpt><trkpt lat="45.664453" lon="11.7155289"><ele>59.0</ele><time>2026-05-01T06:40:20.588Z</time></trkpt><trkpt lat="45.6643931" lon="11.7153011"><ele>59.0</ele><time>2026-05-01T06:40:21.587Z</time></trkpt><trkpt lat="45.664339" lon="11.7150876"><ele>59.0</ele><time>2026-05-01T06:40:22.586Z</time></trkpt><trkpt lat="45.6642969" lon="11.7148747"><ele>58.66666666666667</ele><time>2026-05-01T06:40:23.586Z</time></trkpt><trkpt lat="45.6642741" lon="11.714654"><ele>58.33333333333333</ele><time>2026-05-01T06:40:24.586Z</time></trkpt><trkpt lat="45.6642751" lon="11.7144309"><ele>58.0</ele><time>2026-05-01T06:40:25.586Z</time></trkpt><trkpt lat="45.6642985" lon="11.7142051"><ele>58.0</ele><time>2026-05-01T06:40:26.585Z</time></trkpt><trkpt lat="45.6643467" lon="11.7139845"><ele>58.0</ele><time>2026-05-01T06:40:27.585Z</time></trkpt><trkpt lat="45.6644179" lon="11.7137766"><ele>58.0</ele><time>2026-05-01T06:40:28.586Z</time></trkpt><trkpt lat="45.6645097" lon="11.7135855"><ele>58.33333333333333</ele><time>2026-05-01T06:40:29.593Z</time></trkpt><trkpt lat="45.6646162" lon="11.7134187"><ele>58.66666666666667</ele><time>2026-05-01T06:40:30.579Z</time></trkpt><trkpt lat="45.6647296" lon="11.7132868"><ele>59.0</ele><time>2026-05-01T06:40:31.582Z</time></trkpt><trkpt lat="45.6648576" lon="11.7131836"><ele>59.0</ele><time>2026-05-01T06:40:32.577Z</time></trkpt><trkpt lat="45.6650018" lon="11.7131066"><ele>59.0</ele><time>2026-05-01T06:40:33.579Z</time></trkpt><trkpt lat="45.6651532" lon="11.7130365"><ele>59.0</ele><time>2026-05-01T06:40:34.586Z</time></trkpt><trkpt lat="45.66531" lon="11.7129655"><ele>59.66666666666667</ele><time>2026-05-01T06:40:35.578Z</time></trkpt><trkpt lat="45.6654724" lon="11.7128957"><ele>60.33333333333333</ele><time>2026-05-01T06:40:36.603Z</time></trkpt><trkpt lat="45.6656425" lon="11.7128282"><ele>61.0</ele><time>2026-05-01T06:40:37.582Z</time></trkpt><trkpt lat="45.6658142" lon="11.7127627"><ele>61.0</ele><time>2026-05-01T06:40:38.577Z</time></trkpt><trkpt lat="45.665995" lon="11.7127033"><ele>61.0</ele><time>2026-05-01T06:40:39.582Z</time></trkpt><trkpt lat="45.6661811" lon="11.7126442"><ele>61.0</ele><time>2026-05-01T06:40:40.575Z</time></trkpt><trkpt lat="45.6663685" lon="11.7125739"><ele>59.666666666666664</ele><time>2026-05-01T06:40:41.591Z</time></trkpt><trkpt lat="45.6665553" lon="11.7124987"><ele>58.33333333333333</ele><time>2026-05-01T06:40:42.58Z</time></trkpt><trkpt lat="45.6667427" lon="11.7124119"><ele>57.0</ele><time>2026-05-01T06:40:43.582Z</time></trkpt><trkpt lat="45.6669336" lon="11.712328"><ele>58.0</ele><time>2026-05-01T06:40:44.576Z</time></trkpt><trkpt lat="45.6671243" lon="11.7122417"><ele>59.0</ele><time>2026-05-01T06:40:45.579Z</time></trkpt><trkpt lat="45.6673182" lon="11.7121534"><ele>60.0</ele><time>2026-05-01T06:40:46.608Z</time></trkpt><trkpt lat="45.6675139" lon="11.7120641"><ele>60.0</ele><time>2026-05-01T06:40:47.583Z</time></trkpt><trkpt lat="45.6677124" lon="11.7119708"><ele>60.0</ele><time>2026-05-01T06:40:48.583Z</time></trkpt><trkpt lat="45.6679137" lon="11.7118752"><ele>60.0</ele><time>2026-05-01T06:40:49.583Z</time></trkpt><trkpt lat="45.6681163" lon="11.711783"><ele>60.0</ele><time>2026-05-01T06:40:50.577Z</time></trkpt><trkpt lat="45.6683213" lon="11.7116913"><ele>60.0</ele><time>2026-05-01T06:40:51.587Z</time></trkpt><trkpt lat="45.6685251" lon="11.7116051"><ele>60.0</ele><time>2026-05-01T06:40:52.584Z</time></trkpt><trkpt lat="45.6687277" lon="11.7115292"><ele>59.66666666666667</ele><time>2026-05-01T06:40:53.589Z</time></trkpt><trkpt lat="45.6689291" lon="11.7114676"><ele>59.333333333333336</ele><time>2026-05-01T06:40:54.585Z</time></trkpt><trkpt lat="45.669118" lon="11.7114156"><ele>59.0</ele><time>2026-05-01T06:40:55.583Z</time></trkpt><trkpt lat="45.6692835" lon="11.7113706"><ele>59.0</ele><time>2026-05-01T06:40:56.602Z</time></trkpt><trkpt lat="45.6694349" lon="11.7113297"><ele>59.0</ele><time>2026-05-01T06:40:57.582Z</time></trkpt><trkpt lat="45.6695736" lon="11.7112917"><ele>59.0</ele><time>2026-05-01T06:40:58.591Z</time></trkpt><trkpt lat="45.6697003" lon="11.7112563"><ele>59.0</ele><time>2026-05-01T06:40:59.59Z</time></trkpt><trkpt lat="45.6698189" lon="11.7112232"><ele>59.0</ele><time>2026-05-01T06:41:00.588Z</time></trkpt><trkpt lat="45.6699217" lon="11.7111965"><ele>59.00000000000001</ele><time>2026-05-01T06:41:01.586Z</time></trkpt><trkpt lat="45.6700109" lon="11.7111739"><ele>59.00000000000001</ele><time>2026-05-01T06:41:02.585Z</time></trkpt><trkpt lat="45.6701004" lon="11.7111476"><ele>59.0</ele><time>2026-05-01T06:41:03.585Z</time></trkpt><trkpt lat="45.6702008" lon="11.7111065"><ele>59.0</ele><time>2026-05-01T06:41:04.587Z</time></trkpt><trkpt lat="45.6703153" lon="11.7110584"><ele>59.25</ele><time>2026-05-01T06:41:05.586Z</time></trkpt><trkpt lat="45.6704469" lon="11.7110072"><ele>59.5</ele><time>2026-05-01T06:41:06.583Z</time></trkpt><trkpt lat="45.6705909" lon="11.7109474"><ele>59.75</ele><time>2026-05-01T06:41:07.581Z</time></trkpt><trkpt lat="45.670745" lon="11.7108789"><ele>60.0</ele><time>2026-05-01T06:41:08.584Z</time></trkpt><trkpt lat="45.6709054" lon="11.7108071"><ele>60.0</ele><time>2026-05-01T06:41:09.587Z</time></trkpt><trkpt lat="45.6710684" lon="11.7107296"><ele>60.0</ele><time>2026-05-01T06:41:10.584Z</time></trkpt><trkpt lat="45.6712454" lon="11.7106396"><ele>60.0</ele><time>2026-05-01T06:41:11.584Z</time></trkpt><trkpt lat="45.671426" lon="11.7105549"><ele>60.33333333333333</ele><time>2026-05-01T06:41:12.594Z</time></trkpt><trkpt lat="45.6716065" lon="11.710482"><ele>60.666666666666664</ele><time>2026-05-01T06:41:13.584Z</time></trkpt><trkpt lat="45.6717912" lon="11.7104097"><ele>61.0</ele><time>2026-05-01T06:41:14.58Z</time></trkpt><trkpt lat="45.6719834" lon="11.7103406"><ele>61.0</ele><time>2026-05-01T06:41:15.584Z</time></trkpt><trkpt lat="45.6721785" lon="11.7102753"><ele>61.0</ele><time>2026-05-01T06:41:16.58Z</time></trkpt><trkpt lat="45.6723778" lon="11.7102112"><ele>61.0</ele><time>2026-05-01T06:41:17.584Z</time></trkpt><trkpt lat="45.6725784" lon="11.7101486"><ele>62.0</ele><time>2026-05-01T06:41:18.579Z</time></trkpt><trkpt lat="45.6727796" lon="11.7100822"><ele>63.0</ele><time>2026-05-01T06:41:19.584Z</time></trkpt><trkpt lat="45.6729819" lon="11.7100176"><ele>64.0</ele><time>2026-05-01T06:41:20.61Z</time></trkpt><trkpt lat="45.6731851" lon="11.7099534"><ele>64.0</ele><time>2026-05-01T06:41:21.584Z</time></trkpt><trkpt lat="45.673389" lon="11.7098897"><ele>64.0</ele><time>2026-05-01T06:41:22.584Z</time></trkpt><trkpt lat="45.6735935" lon="11.7098236"><ele>64.0</ele><time>2026-05-01T06:41:23.579Z</time></trkpt><trkpt lat="45.6737975" lon="11.7097558"><ele>64.33333333333333</ele><time>2026-05-01T06:41:24.581Z</time></trkpt><trkpt lat="45.6740025" lon="11.709687"><ele>64.66666666666667</ele><time>2026-05-01T06:41:25.587Z</time></trkpt><trkpt lat="45.6742078" lon="11.7096163"><ele>65.0</ele><time>2026-05-01T06:41:26.577Z</time></trkpt><trkpt lat="45.6744138" lon="11.7095463"><ele>64.33333333333334</ele><time>2026-05-01T06:41:27.583Z</time></trkpt><trkpt lat="45.6746219" lon="11.7094763"><ele>63.66666666666667</ele><time>2026-05-01T06:41:28.576Z</time></trkpt><trkpt lat="45.6748315" lon="11.709408"><ele>63.0</ele><time>2026-05-01T06:41:29.585Z</time></trkpt><trkpt lat="45.6750408" lon="11.7093385"><ele>63.0</ele><time>2026-05-01T06:41:30.584Z</time></trkpt><trkpt lat="45.6752522" lon="11.7092679"><ele>63.0</ele><time>2026-05-01T06:41:31.58Z</time></trkpt><trkpt lat="45.6754641" lon="11.7091968"><ele>63.0</ele><time>2026-05-01T06:41:32.605Z</time></trkpt><trkpt lat="45.6756759" lon="11.7091217"><ele>63.0</ele><time>2026-05-01T06:41:33.582Z</time></trkpt><trkpt lat="45.6758876" lon="11.7090418"><ele>63.0</ele><time>2026-05-01T06:41:34.585Z</time></trkpt><trkpt lat="45.6760989" lon="11.708957"><ele>63.0</ele><time>2026-05-01T06:41:35.585Z</time></trkpt><trkpt lat="45.67631" lon="11.7088664"><ele>63.66666666666667</ele><time>2026-05-01T06:41:36.584Z</time></trkpt><trkpt lat="45.6765203" lon="11.7087696"><ele>64.33333333333334</ele><time>2026-05-01T06:41:37.581Z</time></trkpt><trkpt lat="45.676732" lon="11.70867"><ele>65.0</ele><time>2026-05-01T06:41:38.584Z</time></trkpt><trkpt lat="45.676944" lon="11.708571"><ele>65.0</ele><time>2026-05-01T06:41:39.584Z</time></trkpt><trkpt lat="45.6771578" lon="11.7084733"><ele>65.0</ele><time>2026-05-01T06:41:40.604Z</time></trkpt><trkpt lat="45.6773729" lon="11.708374"><ele>65.0</ele><time>2026-05-01T06:41:41.58Z</time></trkpt><trkpt lat="45.6775877" lon="11.7082708"><ele>65.0</ele><time>2026-05-01T06:41:42.58Z</time></trkpt><trkpt lat="45.6778026" lon="11.7081628"><ele>65.0</ele><time>2026-05-01T06:41:43.573Z</time></trkpt><trkpt lat="45.6780177" lon="11.7080498"><ele>65.0</ele><time>2026-05-01T06:41:44.578Z</time></trkpt><trkpt lat="45.6782322" lon="11.7079327"><ele>65.0</ele><time>2026-05-01T06:41:45.584Z</time></trkpt><trkpt lat="45.6784466" lon="11.7078148"><ele>65.0</ele><time>2026-05-01T06:41:46.581Z</time></trkpt><trkpt lat="45.6786619" lon="11.7076968"><ele>65.5</ele><time>2026-05-01T06:41:47.595Z</time></trkpt><trkpt lat="45.6788783" lon="11.7075788"><ele>66.0</ele><time>2026-05-01T06:41:48.576Z</time></trkpt><trkpt lat="45.6790958" lon="11.7074624"><ele>66.0</ele><time>2026-05-01T06:41:49.589Z</time></trkpt><trkpt lat="45.6793119" lon="11.7073465"><ele>66.0</ele><time>2026-05-01T06:41:50.583Z</time></trkpt><trkpt lat="45.6795143" lon="11.707238"><ele>66.0</ele><time>2026-05-01T06:41:51.584Z</time></trkpt><trkpt lat="45.6797039" lon="11.7071369"><ele>66.0</ele><time>2026-05-01T06:41:52.579Z</time></trkpt><trkpt lat="45.6798856" lon="11.7070396"><ele>66.0</ele><time>2026-05-01T06:41:53.582Z</time></trkpt><trkpt lat="45.6800628" lon="11.7069444"><ele>66.0</ele><time>2026-05-01T06:41:54.577Z</time></trkpt><trkpt lat="45.6802378" lon="11.7068499"><ele>65.66666666666667</ele><time>2026-05-01T06:41:55.582Z</time></trkpt><trkpt lat="45.6804122" lon="11.7067581"><ele>65.33333333333334</ele><time>2026-05-01T06:41:56.582Z</time></trkpt><trkpt lat="45.6805865" lon="11.7066716"><ele>65.0</ele><time>2026-05-01T06:41:57.58Z</time></trkpt><trkpt lat="45.6807537" lon="11.7066028"><ele>65.0</ele><time>2026-05-01T06:41:58.58Z</time></trkpt><trkpt lat="45.6809189" lon="11.7065586"><ele>65.0</ele><time>2026-05-01T06:41:59.584Z</time></trkpt><trkpt lat="45.6810862" lon="11.7065374"><ele>65.0</ele><time>2026-05-01T06:42:00.588Z</time></trkpt><trkpt lat="45.6812452" lon="11.706538"><ele>65.5</ele><time>2026-05-01T06:42:01.58Z</time></trkpt><trkpt lat="45.6813923" lon="11.7065521"><ele>66.0</ele><time>2026-05-01T06:42:02.59Z</time></trkpt><trkpt lat="45.6815261" lon="11.7065712"><ele>66.5</ele><time>2026-05-01T06:42:03.583Z</time></trkpt><trkpt lat="45.6816468" lon="11.706591"><ele>67.0</ele><time>2026-05-01T06:42:04.583Z</time></trkpt><trkpt lat="45.6817527" lon="11.7066098"><ele>67.0</ele><time>2026-05-01T06:42:05.588Z</time></trkpt><trkpt lat="45.6818446" lon="11.7066275"><ele>67.0</ele><time>2026-05-01T06:42:06.58Z</time></trkpt><trkpt lat="45.6819191" lon="11.7066432"><ele>67.0</ele><time>2026-05-01T06:42:07.596Z</time></trkpt><trkpt lat="45.6820153" lon="11.7066665"><ele>67.0</ele><time>2026-05-01T06:42:09.581Z</time></trkpt><trkpt lat="45.6821498" lon="11.7066943"><ele>67.0</ele><time>2026-05-01T06:42:14.584Z</time></trkpt><trkpt lat="45.6822397" lon="11.7065624"><ele>67.4</ele><time>2026-05-01T06:42:16.594Z</time></trkpt><trkpt lat="45.6822895" lon="11.7064646"><ele>67.80000000000001</ele><time>2026-05-01T06:42:17.581Z</time></trkpt><trkpt lat="45.6823274" lon="11.7063394"><ele>68.2</ele><time>2026-05-01T06:42:18.609Z</time></trkpt><trkpt lat="45.682372" lon="11.7061987"><ele>68.60000000000001</ele><time>2026-05-01T06:42:19.581Z</time></trkpt><trkpt lat="45.6824225" lon="11.706044"><ele>69.0</ele><time>2026-05-01T06:42:20.581Z</time></trkpt><trkpt lat="45.6824799" lon="11.7058749"><ele>69.0</ele><time>2026-05-01T06:42:21.585Z</time></trkpt><trkpt lat="45.6825367" lon="11.7056971"><ele>69.0</ele><time>2026-05-01T06:42:22.583Z</time></trkpt><trkpt lat="45.6825934" lon="11.7055142"><ele>69.0</ele><time>2026-05-01T06:42:23.579Z</time></trkpt><trkpt lat="45.6826492" lon="11.7053255"><ele>69.0</ele><time>2026-05-01T06:42:24.581Z</time></trkpt><trkpt lat="45.6827003" lon="11.7051327"><ele>69.0</ele><time>2026-05-01T06:42:25.586Z</time></trkpt><trkpt lat="45.6827514" lon="11.7049333"><ele>69.0</ele><time>2026-05-01T06:42:26.58Z</time></trkpt><trkpt lat="45.6828008" lon="11.7047363"><ele>69.0</ele><time>2026-05-01T06:42:27.58Z</time></trkpt><trkpt lat="45.6828406" lon="11.7045554"><ele>69.0</ele><time>2026-05-01T06:42:28.582Z</time></trkpt><trkpt lat="45.6828726" lon="11.7043911"><ele>69.0</ele><time>2026-05-01T06:42:29.581Z</time></trkpt><trkpt lat="45.6829005" lon="11.7042353"><ele>69.0</ele><time>2026-05-01T06:42:30.577Z</time></trkpt><trkpt lat="45.6829254" lon="11.7040771"><ele>69.0</ele><time>2026-05-01T06:42:31.581Z</time></trkpt><trkpt lat="45.6829495" lon="11.7039295"><ele>69.0</ele><time>2026-05-01T06:42:32.58Z</time></trkpt><trkpt lat="45.6829652" lon="11.7037975"><ele>69.0</ele><time>2026-05-01T06:42:33.581Z</time></trkpt><trkpt lat="45.6829814" lon="11.7036861"><ele>69.0</ele><time>2026-05-01T06:42:34.588Z</time></trkpt><trkpt lat="45.6830038" lon="11.7035885"><ele>69.0</ele><time>2026-05-01T06:42:35.583Z</time></trkpt><trkpt lat="45.6830445" lon="11.7035057"><ele>69.0</ele><time>2026-05-01T06:42:36.62Z</time></trkpt><trkpt lat="45.6831019" lon="11.7034541"><ele>69.0</ele><time>2026-05-01T06:42:37.581Z</time></trkpt><trkpt lat="45.6831815" lon="11.7034445"><ele>69.0</ele><time>2026-05-01T06:42:38.579Z</time></trkpt><trkpt lat="45.6832778" lon="11.7034582"><ele>69.0</ele><time>2026-05-01T06:42:39.58Z</time></trkpt><trkpt lat="45.6833878" lon="11.70348"><ele>69.25</ele><time>2026-05-01T06:42:40.589Z</time></trkpt><trkpt lat="45.6835085" lon="11.7035029"><ele>69.5</ele><time>2026-05-01T06:42:41.595Z</time></trkpt><trkpt lat="45.6836402" lon="11.7035253"><ele>69.75</ele><time>2026-05-01T06:42:42.579Z</time></trkpt><trkpt lat="45.6837732" lon="11.7035492"><ele>70.0</ele><time>2026-05-01T06:42:43.583Z</time></trkpt><trkpt lat="45.6838934" lon="11.7035717"><ele>70.0</ele><time>2026-05-01T06:42:44.579Z</time></trkpt><trkpt lat="45.684003" lon="11.7035917"><ele>70.0</ele><time>2026-05-01T06:42:45.586Z</time></trkpt><trkpt lat="45.6840983" lon="11.7036056"><ele>70.0</ele><time>2026-05-01T06:42:46.582Z</time></trkpt><trkpt lat="45.6841836" lon="11.7036182"><ele>70.0</ele><time>2026-05-01T06:42:47.586Z</time></trkpt><trkpt lat="45.6842584" lon="11.703629"><ele>70.0</ele><time>2026-05-01T06:42:48.583Z</time></trkpt><trkpt lat="45.684364" lon="11.703649"><ele>70.2</ele><time>2026-05-01T06:42:50.581Z</time></trkpt><trkpt lat="45.6844571" lon="11.7036121"><ele>70.4</ele><time>2026-05-01T06:42:52.58Z</time></trkpt><trkpt lat="45.6844822" lon="11.7035156"><ele>70.6</ele><time>2026-05-01T06:42:53.587Z</time></trkpt><trkpt lat="45.6844955" lon="11.7033864"><ele>70.8</ele><time>2026-05-01T06:42:54.606Z</time></trkpt><trkpt lat="45.6845018" lon="11.7032495"><ele>71.0</ele><time>2026-05-01T06:42:55.587Z</time></trkpt><trkpt lat="45.6845002" lon="11.7031073"><ele>71.0</ele><time>2026-05-01T06:42:56.583Z</time></trkpt><trkpt lat="45.6845097" lon="11.702976"><ele>71.0</ele><time>2026-05-01T06:42:57.583Z</time></trkpt><trkpt lat="45.6845188" lon="11.7028794"><ele>71.0</ele><time>2026-05-01T06:42:58.582Z</time></trkpt><trkpt lat="45.6845584" lon="11.7027786"><ele>71.0</ele><time>2026-05-01T06:43:00.596Z</time></trkpt><trkpt lat="45.6846808" lon="11.7027951"><ele>71.0</ele><time>2026-05-01T06:43:02.582Z</time></trkpt><trkpt lat="45.6847745" lon="11.702834"><ele>71.0</ele><time>2026-05-01T06:43:03.585Z</time></trkpt><trkpt lat="45.684876" lon="11.7028665"><ele>71.0</ele><time>2026-05-01T06:43:04.58Z</time></trkpt><trkpt lat="45.6849764" lon="11.702871"><ele>71.0</ele><time>2026-05-01T06:43:05.588Z</time></trkpt><trkpt lat="45.6850812" lon="11.7028273"><ele>71.0</ele><time>2026-05-01T06:43:06.588Z</time></trkpt><trkpt lat="45.6851946" lon="11.7027437"><ele>71.0</ele><time>2026-05-01T06:43:07.595Z</time></trkpt><trkpt lat="45.6853087" lon="11.7026316"><ele>70.75</ele><time>2026-05-01T06:43:08.586Z</time></trkpt><trkpt lat="45.6854278" lon="11.7025138"><ele>70.5</ele><time>2026-05-01T06:43:09.584Z</time></trkpt><trkpt lat="45.6855533" lon="11.7023961"><ele>70.25</ele><time>2026-05-01T06:43:10.589Z</time></trkpt><trkpt lat="45.6856872" lon="11.7022856"><ele>70.0</ele><time>2026-05-01T06:43:11.587Z</time></trkpt><trkpt lat="45.6858277" lon="11.7021793"><ele>70.0</ele><time>2026-05-01T06:43:12.588Z</time></trkpt><trkpt lat="45.6859775" lon="11.7020878"><ele>70.0</ele><time>2026-05-01T06:43:13.594Z</time></trkpt><trkpt lat="45.686134" lon="11.7020016"><ele>70.0</ele><time>2026-05-01T06:43:14.587Z</time></trkpt><trkpt lat="45.6862947" lon="11.7019177"><ele>70.0</ele><time>2026-05-01T06:43:15.588Z</time></trkpt><trkpt lat="45.6864639" lon="11.7018292"><ele>70.0</ele><time>2026-05-01T06:43:16.588Z</time></trkpt><trkpt lat="45.6866363" lon="11.7017431"><ele>70.0</ele><time>2026-05-01T06:43:17.593Z</time></trkpt><trkpt lat="45.6868085" lon="11.7016547"><ele>70.0</ele><time>2026-05-01T06:43:18.59Z</time></trkpt><trkpt lat="45.6869836" lon="11.7015619"><ele>70.0</ele><time>2026-05-01T06:43:19.595Z</time></trkpt><trkpt lat="45.6871591" lon="11.701471"><ele>70.0</ele><time>2026-05-01T06:43:20.588Z</time></trkpt><trkpt lat="45.6873398" lon="11.7013811"><ele>70.0</ele><time>2026-05-01T06:43:21.596Z</time></trkpt><trkpt lat="45.6875203" lon="11.7012899"><ele>70.0</ele><time>2026-05-01T06:43:22.588Z</time></trkpt><trkpt lat="45.6877037" lon="11.7011975"><ele>70.0</ele><time>2026-05-01T06:43:23.588Z</time></trkpt><trkpt lat="45.6878878" lon="11.7011037"><ele>70.0</ele><time>2026-05-01T06:43:24.586Z</time></trkpt><trkpt lat="45.6880707" lon="11.7010022"><ele>70.0</ele><time>2026-05-01T06:43:25.584Z</time></trkpt><trkpt lat="45.6882518" lon="11.7008869"><ele>70.0</ele><time>2026-05-01T06:43:26.597Z</time></trkpt><trkpt lat="45.6884293" lon="11.7007584"><ele>70.33333333333333</ele><time>2026-05-01T06:43:27.589Z</time></trkpt><trkpt lat="45.6886084" lon="11.7006241"><ele>70.66666666666667</ele><time>2026-05-01T06:43:28.603Z</time></trkpt><trkpt lat="45.6887876" lon="11.7004865"><ele>71.0</ele><time>2026-05-01T06:43:29.587Z</time></trkpt><trkpt lat="45.6889682" lon="11.7003485"><ele>71.0</ele><time>2026-05-01T06:43:30.586Z</time></trkpt><trkpt lat="45.6891503" lon="11.7002104"><ele>71.0</ele><time>2026-05-01T06:43:31.594Z</time></trkpt><trkpt lat="45.6893343" lon="11.7000743"><ele>71.0</ele><time>2026-05-01T06:43:32.601Z</time></trkpt><trkpt lat="45.689518" lon="11.6999363"><ele>71.0</ele><time>2026-05-01T06:43:33.592Z</time></trkpt><trkpt lat="45.6897014" lon="11.6997986"><ele>71.0</ele><time>2026-05-01T06:43:34.599Z</time></trkpt><trkpt lat="45.689882" lon="11.6996601"><ele>71.0</ele><time>2026-05-01T06:43:35.6Z</time></trkpt><trkpt lat="45.6900619" lon="11.6995232"><ele>71.0</ele><time>2026-05-01T06:43:36.589Z</time></trkpt><trkpt lat="45.6902439" lon="11.6993924"><ele>71.0</ele><time>2026-05-01T06:43:37.605Z</time></trkpt><trkpt lat="45.6904309" lon="11.699277"><ele>71.0</ele><time>2026-05-01T06:43:38.588Z</time></trkpt><trkpt lat="45.6906192" lon="11.6991696"><ele>71.0</ele><time>2026-05-01T06:43:39.591Z</time></trkpt><trkpt lat="45.6908212" lon="11.6990957"><ele>71.0</ele><time>2026-05-01T06:43:40.589Z</time></trkpt><trkpt lat="45.6910299" lon="11.699024"><ele>71.0</ele><time>2026-05-01T06:43:41.586Z</time></trkpt><trkpt lat="45.6912345" lon="11.6989438"><ele>71.33333333333334</ele><time>2026-05-01T06:43:42.588Z</time></trkpt><trkpt lat="45.6914425" lon="11.6988691"><ele>71.66666666666667</ele><time>2026-05-01T06:43:43.588Z</time></trkpt><trkpt lat="45.6916565" lon="11.6987829"><ele>72.0</ele><time>2026-05-01T06:43:44.587Z</time></trkpt><trkpt lat="45.6918751" lon="11.6986951"><ele>72.0</ele><time>2026-05-01T06:43:45.596Z</time></trkpt><trkpt lat="45.6920976" lon="11.6986115"><ele>72.0</ele><time>2026-05-01T06:43:46.595Z</time></trkpt><trkpt lat="45.6923231" lon="11.6985275"><ele>72.0</ele><time>2026-05-01T06:43:47.588Z</time></trkpt><trkpt lat="45.6925492" lon="11.6984424"><ele>72.0</ele><time>2026-05-01T06:43:48.588Z</time></trkpt><trkpt lat="45.692778" lon="11.6983515"><ele>73.0</ele><time>2026-05-01T06:43:49.593Z</time></trkpt><trkpt lat="45.6930073" lon="11.6982586"><ele>74.0</ele><time>2026-05-01T06:43:50.585Z</time></trkpt><trkpt lat="45.6932355" lon="11.6981707"><ele>74.0</ele><time>2026-05-01T06:43:51.588Z</time></trkpt><trkpt lat="45.693466" lon="11.6980812"><ele>74.0</ele><time>2026-05-01T06:43:52.588Z</time></trkpt><trkpt lat="45.6936928" lon="11.6979962"><ele>73.5</ele><time>2026-05-01T06:43:53.593Z</time></trkpt><trkpt lat="45.6939214" lon="11.6979086"><ele>73.0</ele><time>2026-05-01T06:43:54.597Z</time></trkpt><trkpt lat="45.6941457" lon="11.6978192"><ele>72.5</ele><time>2026-05-01T06:43:55.59Z</time></trkpt><trkpt lat="45.6943698" lon="11.6977319"><ele>72.0</ele><time>2026-05-01T06:43:56.603Z</time></trkpt><trkpt lat="45.6945898" lon="11.6976437"><ele>73.5</ele><time>2026-05-01T06:43:57.591Z</time></trkpt><trkpt lat="45.6948091" lon="11.6975545"><ele>75.0</ele><time>2026-05-01T06:43:58.59Z</time></trkpt><trkpt lat="45.6950281" lon="11.6974675"><ele>75.0</ele><time>2026-05-01T06:43:59.594Z</time></trkpt><trkpt lat="45.6952422" lon="11.6973802"><ele>75.0</ele><time>2026-05-01T06:44:00.591Z</time></trkpt><trkpt lat="45.6954569" lon="11.6972947"><ele>75.0</ele><time>2026-05-01T06:44:01.594Z</time></trkpt><trkpt lat="45.6956703" lon="11.6972086"><ele>75.33333333333333</ele><time>2026-05-01T06:44:02.588Z</time></trkpt><trkpt lat="45.6958776" lon="11.6971254"><ele>75.66666666666666</ele><time>2026-05-01T06:44:03.59Z</time></trkpt><trkpt lat="45.6960709" lon="11.6970472"><ele>76.0</ele><time>2026-05-01T06:44:04.582Z</time></trkpt><trkpt lat="45.6962582" lon="11.6969725"><ele>76.0</ele><time>2026-05-01T06:44:05.585Z</time></trkpt><trkpt lat="45.6964409" lon="11.6969002"><ele>76.0</ele><time>2026-05-01T06:44:06.594Z</time></trkpt><trkpt lat="45.696613" lon="11.6968331"><ele>76.0</ele><time>2026-05-01T06:44:07.589Z</time></trkpt><trkpt lat="45.6967703" lon="11.6967706"><ele>76.0</ele><time>2026-05-01T06:44:08.587Z</time></trkpt><trkpt lat="45.6969121" lon="11.6967137"><ele>76.0</ele><time>2026-05-01T06:44:09.587Z</time></trkpt><trkpt lat="45.6970437" lon="11.6966611"><ele>76.0</ele><time>2026-05-01T06:44:10.587Z</time></trkpt><trkpt lat="45.6971739" lon="11.6966098"><ele>76.0</ele><time>2026-05-01T06:44:11.59Z</time></trkpt><trkpt lat="45.6973061" lon="11.696563"><ele>76.25</ele><time>2026-05-01T06:44:12.606Z</time></trkpt><trkpt lat="45.6974406" lon="11.6965198"><ele>76.5</ele><time>2026-05-01T06:44:13.594Z</time></trkpt><trkpt lat="45.6975791" lon="11.6964814"><ele>76.75</ele><time>2026-05-01T06:44:14.606Z</time></trkpt><trkpt lat="45.6977208" lon="11.6964458"><ele>77.0</ele><time>2026-05-01T06:44:15.597Z</time></trkpt><trkpt lat="45.6978647" lon="11.6964134"><ele>76.5</ele><time>2026-05-01T06:44:16.59Z</time></trkpt><trkpt lat="45.6980079" lon="11.6963839"><ele>76.0</ele><time>2026-05-01T06:44:17.589Z</time></trkpt><trkpt lat="45.6981458" lon="11.6963565"><ele>75.5</ele><time>2026-05-01T06:44:18.589Z</time></trkpt><trkpt lat="45.698284" lon="11.6963302"><ele>75.0</ele><time>2026-05-01T06:44:19.588Z</time></trkpt><trkpt lat="45.6984192" lon="11.6963044"><ele>75.0</ele><time>2026-05-01T06:44:20.595Z</time></trkpt><trkpt lat="45.6985532" lon="11.6962791"><ele>75.0</ele><time>2026-05-01T06:44:21.59Z</time></trkpt><trkpt lat="45.6986867" lon="11.6962548"><ele>75.0</ele><time>2026-05-01T06:44:22.59Z</time></trkpt><trkpt lat="45.69882" lon="11.6962305"><ele>75.0</ele><time>2026-05-01T06:44:23.589Z</time></trkpt><trkpt lat="45.6989471" lon="11.6962058"><ele>75.5</ele><time>2026-05-01T06:44:24.6Z</time></trkpt><trkpt lat="45.6990728" lon="11.6961805"><ele>76.0</ele><time>2026-05-01T06:44:25.588Z</time></trkpt><trkpt lat="45.6991993" lon="11.6961539"><ele>76.5</ele><time>2026-05-01T06:44:26.59Z</time></trkpt><trkpt lat="45.6993278" lon="11.696125"><ele>77.0</ele><time>2026-05-01T06:44:27.588Z</time></trkpt><trkpt lat="45.699453" lon="11.696094"><ele>77.16666666666667</ele><time>2026-05-01T06:44:28.588Z</time></trkpt><trkpt lat="45.6995575" lon="11.6960676"><ele>77.33333333333334</ele><time>2026-05-01T06:44:29.59Z</time></trkpt><trkpt lat="45.6996483" lon="11.6960447"><ele>77.5</ele><time>2026-05-01T06:44:30.6Z</time></trkpt><trkpt lat="45.6997271" lon="11.6960252"><ele>77.66666666666667</ele><time>2026-05-01T06:44:31.594Z</time></trkpt><trkpt lat="45.6997969" lon="11.6960063"><ele>77.83333333333333</ele><time>2026-05-01T06:44:32.588Z</time></trkpt><trkpt lat="45.6998703" lon="11.6959859"><ele>78.0</ele><time>2026-05-01T06:44:33.597Z</time></trkpt><trkpt lat="45.6999546" lon="11.6959587"><ele>78.0</ele><time>2026-05-01T06:44:34.594Z</time></trkpt><trkpt lat="45.7000515" lon="11.6959184"><ele>78.0</ele><time>2026-05-01T06:44:35.597Z</time></trkpt><trkpt lat="45.700155" lon="11.695875"><ele>78.0</ele><time>2026-05-01T06:44:36.591Z</time></trkpt><trkpt lat="45.7002719" lon="11.6958311"><ele>78.0</ele><time>2026-05-01T06:44:37.588Z</time></trkpt><trkpt lat="45.7004034" lon="11.6957837"><ele>78.33333333333333</ele><time>2026-05-01T06:44:38.589Z</time></trkpt><trkpt lat="45.7005452" lon="11.695734"><ele>78.66666666666666</ele><time>2026-05-01T06:44:39.592Z</time></trkpt><trkpt lat="45.7006944" lon="11.6956749"><ele>79.0</ele><time>2026-05-01T06:44:40.593Z</time></trkpt><trkpt lat="45.7008492" lon="11.6956192"><ele>79.0</ele><time>2026-05-01T06:44:41.594Z</time></trkpt><trkpt lat="45.7010047" lon="11.6955584"><ele>79.0</ele><time>2026-05-01T06:44:42.592Z</time></trkpt><trkpt lat="45.7011636" lon="11.6954958"><ele>79.0</ele><time>2026-05-01T06:44:43.589Z</time></trkpt><trkpt lat="45.7013272" lon="11.6954362"><ele>78.66666666666666</ele><time>2026-05-01T06:44:44.591Z</time></trkpt><trkpt lat="45.7014906" lon="11.6953736"><ele>78.33333333333333</ele><time>2026-05-01T06:44:45.599Z</time></trkpt><trkpt lat="45.7016574" lon="11.6953116"><ele>78.0</ele><time>2026-05-01T06:44:46.61Z</time></trkpt><trkpt lat="45.701827" lon="11.695248"><ele>78.0</ele><time>2026-05-01T06:44:47.592Z</time></trkpt><trkpt lat="45.7019966" lon="11.6951876"><ele>78.0</ele><time>2026-05-01T06:44:48.603Z</time></trkpt><trkpt lat="45.7021622" lon="11.6951201"><ele>78.0</ele><time>2026-05-01T06:44:49.591Z</time></trkpt><trkpt lat="45.7023328" lon="11.6950554"><ele>78.0</ele><time>2026-05-01T06:44:50.589Z</time></trkpt><trkpt lat="45.7024998" lon="11.694991"><ele>78.0</ele><time>2026-05-01T06:44:51.584Z</time></trkpt><trkpt lat="45.7026675" lon="11.6949263"><ele>78.0</ele><time>2026-05-01T06:44:52.589Z</time></trkpt><trkpt lat="45.702828" lon="11.6948674"><ele>78.66666666666667</ele><time>2026-05-01T06:44:53.59Z</time></trkpt><trkpt lat="45.7029798" lon="11.694807"><ele>79.33333333333334</ele><time>2026-05-01T06:44:54.586Z</time></trkpt><trkpt lat="45.7031291" lon="11.6947545"><ele>80.0</ele><time>2026-05-01T06:44:55.589Z</time></trkpt><trkpt lat="45.7032803" lon="11.6947115"><ele>80.0</ele><time>2026-05-01T06:44:56.591Z</time></trkpt><trkpt lat="45.7034224" lon="11.694674"><ele>80.0</ele><time>2026-05-01T06:44:57.59Z</time></trkpt><trkpt lat="45.7035576" lon="11.6946401"><ele>80.0</ele><time>2026-05-01T06:44:58.589Z</time></trkpt><trkpt lat="45.7036836" lon="11.6946057"><ele>80.0</ele><time>2026-05-01T06:44:59.592Z</time></trkpt><trkpt lat="45.7037985" lon="11.6945702"><ele>79.5</ele><time>2026-05-01T06:45:00.598Z</time></trkpt><trkpt lat="45.7039115" lon="11.6945362"><ele>79.0</ele><time>2026-05-01T06:45:01.592Z</time></trkpt><trkpt lat="45.704022" lon="11.6944957"><ele>78.5</ele><time>2026-05-01T06:45:02.61Z</time></trkpt><trkpt lat="45.7041322" lon="11.6944455"><ele>78.0</ele><time>2026-05-01T06:45:03.587Z</time></trkpt><trkpt lat="45.7042436" lon="11.6943833"><ele>77.6</ele><time>2026-05-01T06:45:04.59Z</time></trkpt><trkpt lat="45.7043524" lon="11.6943182"><ele>77.19999999999999</ele><time>2026-05-01T06:45:05.591Z</time></trkpt><trkpt lat="45.704455" lon="11.6942557"><ele>76.8</ele><time>2026-05-01T06:45:06.591Z</time></trkpt><trkpt lat="45.7045514" lon="11.6941969"><ele>76.39999999999999</ele><time>2026-05-01T06:45:07.592Z</time></trkpt><trkpt lat="45.7046366" lon="11.6941476"><ele>76.0</ele><time>2026-05-01T06:45:08.601Z</time></trkpt><trkpt lat="45.7047118" lon="11.6941091"><ele>76.33333333333333</ele><time>2026-05-01T06:45:09.591Z</time></trkpt><trkpt lat="45.704773" lon="11.6940646"><ele>76.66666666666666</ele><time>2026-05-01T06:45:10.61Z</time></trkpt><trkpt lat="45.7048111" lon="11.6939905"><ele>77.0</ele><time>2026-05-01T06:45:11.587Z</time></trkpt><trkpt lat="45.7048199" lon="11.6938805"><ele>77.33333333333333</ele><time>2026-05-01T06:45:12.59Z</time></trkpt><trkpt lat="45.7048027" lon="11.6937439"><ele>77.66666666666667</ele><time>2026-05-01T06:45:13.593Z</time></trkpt><trkpt lat="45.7047764" lon="11.6935803"><ele>78.0</ele><time>2026-05-01T06:45:14.584Z</time></trkpt><trkpt lat="45.704752" lon="11.693394"><ele>78.0</ele><time>2026-05-01T06:45:15.581Z</time></trkpt><trkpt lat="45.7047279" lon="11.6931856"><ele>78.0</ele><time>2026-05-01T06:45:16.593Z</time></trkpt><trkpt lat="45.7047082" lon="11.6929567"><ele>78.0</ele><time>2026-05-01T06:45:17.593Z</time></trkpt><trkpt lat="45.7046961" lon="11.6927419"><ele>77.5</ele><time>2026-05-01T06:45:18.589Z</time></trkpt><trkpt lat="45.7046865" lon="11.6925446"><ele>77.0</ele><time>2026-05-01T06:45:19.589Z</time></trkpt><trkpt lat="45.7046793" lon="11.6923642"><ele>76.5</ele><time>2026-05-01T06:45:20.593Z</time></trkpt><trkpt lat="45.7046739" lon="11.6921988"><ele>76.0</ele><time>2026-05-01T06:45:21.596Z</time></trkpt><trkpt lat="45.704671" lon="11.6920519"><ele>76.0</ele><time>2026-05-01T06:45:22.598Z</time></trkpt><trkpt lat="45.7046742" lon="11.6919259"><ele>76.0</ele><time>2026-05-01T06:45:23.596Z</time></trkpt><trkpt lat="45.7046917" lon="11.691825"><ele>76.0</ele><time>2026-05-01T06:45:24.586Z</time></trkpt><trkpt lat="45.7047544" lon="11.6917081"><ele>76.0</ele><time>2026-05-01T06:45:26.594Z</time></trkpt><trkpt lat="45.7048682" lon="11.6916441"><ele>76.0</ele><time>2026-05-01T06:45:28.617Z</time></trkpt><trkpt lat="45.7049711" lon="11.6916476"><ele>76.25</ele><time>2026-05-01T06:45:29.595Z</time></trkpt><trkpt lat="45.7050913" lon="11.6916534"><ele>76.5</ele><time>2026-05-01T06:45:30.594Z</time></trkpt><trkpt lat="45.7052347" lon="11.6916575"><ele>76.75</ele><time>2026-05-01T06:45:31.593Z</time></trkpt><trkpt lat="45.7053941" lon="11.691665"><ele>77.0</ele><time>2026-05-01T06:45:32.595Z</time></trkpt><trkpt lat="45.70557" lon="11.6916658"><ele>77.0</ele><time>2026-05-01T06:45:33.595Z</time></trkpt><trkpt lat="45.7057537" lon="11.6916707"><ele>77.0</ele><time>2026-05-01T06:45:34.602Z</time></trkpt><trkpt lat="45.7059423" lon="11.6916722"><ele>77.0</ele><time>2026-05-01T06:45:35.598Z</time></trkpt><trkpt lat="45.7061361" lon="11.6916836"><ele>77.0</ele><time>2026-05-01T06:45:36.59Z</time></trkpt><trkpt lat="45.7063333" lon="11.6916917"><ele>77.0</ele><time>2026-05-01T06:45:37.602Z</time></trkpt><trkpt lat="45.7065321" lon="11.6917007"><ele>77.0</ele><time>2026-05-01T06:45:38.595Z</time></trkpt><trkpt lat="45.706731" lon="11.6917019"><ele>76.66666666666667</ele><time>2026-05-01T06:45:39.592Z</time></trkpt><trkpt lat="45.7069276" lon="11.6917114"><ele>76.33333333333333</ele><time>2026-05-01T06:45:40.612Z</time></trkpt><trkpt lat="45.7071255" lon="11.691723"><ele>76.0</ele><time>2026-05-01T06:45:41.595Z</time></trkpt><trkpt lat="45.7073237" lon="11.6917272"><ele>76.0</ele><time>2026-05-01T06:45:42.587Z</time></trkpt><trkpt lat="45.7075219" lon="11.6917369"><ele>76.0</ele><time>2026-05-01T06:45:43.589Z</time></trkpt><trkpt lat="45.707716" lon="11.6917457"><ele>76.0</ele><time>2026-05-01T06:45:44.593Z</time></trkpt><trkpt lat="45.707895" lon="11.6917526"><ele>75.75</ele><time>2026-05-01T06:45:45.592Z</time></trkpt><trkpt lat="45.708057" lon="11.6917574"><ele>75.5</ele><time>2026-05-01T06:45:46.589Z</time></trkpt><trkpt lat="45.7082044" lon="11.6917617"><ele>75.25</ele><time>2026-05-01T06:45:47.592Z</time></trkpt><trkpt lat="45.7083266" lon="11.6917705"><ele>75.0</ele><time>2026-05-01T06:45:48.659Z</time></trkpt><trkpt lat="45.7084321" lon="11.6917742"><ele>75.0</ele><time>2026-05-01T06:45:49.596Z</time></trkpt><trkpt lat="45.7085149" lon="11.6917467"><ele>75.0</ele><time>2026-05-01T06:45:50.637Z</time></trkpt><trkpt lat="45.7085826" lon="11.6916792"><ele>75.0</ele><time>2026-05-01T06:45:51.596Z</time></trkpt><trkpt lat="45.7086262" lon="11.6915592"><ele>75.0</ele><time>2026-05-01T06:45:52.589Z</time></trkpt><trkpt lat="45.7086495" lon="11.6914036"><ele>75.0</ele><time>2026-05-01T06:45:53.593Z</time></trkpt><trkpt lat="45.7086553" lon="11.6912176"><ele>75.25</ele><time>2026-05-01T06:45:54.592Z</time></trkpt><trkpt lat="45.7086577" lon="11.6910179"><ele>75.5</ele><time>2026-05-01T06:45:55.588Z</time></trkpt><trkpt lat="45.7086609" lon="11.6908113"><ele>75.75</ele><time>2026-05-01T06:45:56.593Z</time></trkpt><trkpt lat="45.7086635" lon="11.6906291"><ele>76.0</ele><time>2026-05-01T06:45:57.596Z</time></trkpt><trkpt lat="45.708667" lon="11.6904685"><ele>76.0</ele><time>2026-05-01T06:45:58.591Z</time></trkpt><trkpt lat="45.7086888" lon="11.6903311"><ele>76.0</ele><time>2026-05-01T06:45:59.586Z</time></trkpt><trkpt lat="45.7087138" lon="11.6902053"><ele>76.0</ele><time>2026-05-01T06:46:00.594Z</time></trkpt><trkpt lat="45.7087901" lon="11.6901299"><ele>76.0</ele><time>2026-05-01T06:46:01.606Z</time></trkpt><trkpt lat="45.7088832" lon="11.6900578"><ele>76.0</ele><time>2026-05-01T06:46:02.585Z</time></trkpt><trkpt lat="45.7090201" lon="11.6900693"><ele>75.66666666666666</ele><time>2026-05-01T06:46:03.588Z</time></trkpt><trkpt lat="45.7091641" lon="11.6900796"><ele>75.33333333333333</ele><time>2026-05-01T06:46:04.586Z</time></trkpt><trkpt lat="45.70932" lon="11.6900852"><ele>75.0</ele><time>2026-05-01T06:46:05.599Z</time></trkpt><trkpt lat="45.7094915" lon="11.6900907"><ele>75.0</ele><time>2026-05-01T06:46:06.589Z</time></trkpt><trkpt lat="45.7096721" lon="11.6900981"><ele>75.0</ele><time>2026-05-01T06:46:07.599Z</time></trkpt><trkpt lat="45.7098641" lon="11.6901036"><ele>75.0</ele><time>2026-05-01T06:46:08.585Z</time></trkpt><trkpt lat="45.7100643" lon="11.6901082"><ele>75.33333333333333</ele><time>2026-05-01T06:46:09.595Z</time></trkpt><trkpt lat="45.7102694" lon="11.6901168"><ele>75.66666666666666</ele><time>2026-05-01T06:46:10.588Z</time></trkpt><trkpt lat="45.710477" lon="11.6901225"><ele>76.0</ele><time>2026-05-01T06:46:11.596Z</time></trkpt><trkpt lat="45.7106861" lon="11.6901239"><ele>76.0</ele><time>2026-05-01T06:46:12.585Z</time></trkpt><trkpt lat="45.7108987" lon="11.6901262"><ele>76.0</ele><time>2026-05-01T06:46:13.584Z</time></trkpt><trkpt lat="45.7111094" lon="11.690127"><ele>76.0</ele><time>2026-05-01T06:46:14.591Z</time></trkpt><trkpt lat="45.7113198" lon="11.6901296"><ele>77.0</ele><time>2026-05-01T06:46:15.597Z</time></trkpt><trkpt lat="45.7115315" lon="11.6901427"><ele>78.0</ele><time>2026-05-01T06:46:16.596Z</time></trkpt><trkpt lat="45.7117443" lon="11.6901777"><ele>79.0</ele><time>2026-05-01T06:46:17.6Z</time></trkpt><trkpt lat="45.711954" lon="11.6902449"><ele>79.0</ele><time>2026-05-01T06:46:18.587Z</time></trkpt><trkpt lat="45.71216" lon="11.6903417"><ele>79.0</ele><time>2026-05-01T06:46:19.591Z</time></trkpt><trkpt lat="45.7123657" lon="11.690444"><ele>79.0</ele><time>2026-05-01T06:46:20.589Z</time></trkpt><trkpt lat="45.7125763" lon="11.6905662"><ele>78.33333333333333</ele><time>2026-05-01T06:46:21.592Z</time></trkpt><trkpt lat="45.7127767" lon="11.6906851"><ele>77.66666666666667</ele><time>2026-05-01T06:46:22.586Z</time></trkpt><trkpt lat="45.7129901" lon="11.6907987"><ele>77.0</ele><time>2026-05-01T06:46:23.59Z</time></trkpt><trkpt lat="45.7131969" lon="11.6909232"><ele>77.0</ele><time>2026-05-01T06:46:24.587Z</time></trkpt><trkpt lat="45.7134033" lon="11.6910351"><ele>77.0</ele><time>2026-05-01T06:46:25.591Z</time></trkpt><trkpt lat="45.7136085" lon="11.6911535"><ele>77.0</ele><time>2026-05-01T06:46:26.591Z</time></trkpt><trkpt lat="45.7138124" lon="11.6912701"><ele>77.33333333333334</ele><time>2026-05-01T06:46:27.592Z</time></trkpt><trkpt lat="45.714022" lon="11.6913911"><ele>77.66666666666667</ele><time>2026-05-01T06:46:28.585Z</time></trkpt><trkpt lat="45.7142236" lon="11.691507"><ele>78.0</ele><time>2026-05-01T06:46:29.582Z</time></trkpt><trkpt lat="45.7144355" lon="11.6916135"><ele>78.33333333333333</ele><time>2026-05-01T06:46:30.593Z</time></trkpt><trkpt lat="45.7146479" lon="11.6916879"><ele>78.66666666666666</ele><time>2026-05-01T06:46:31.593Z</time></trkpt><trkpt lat="45.7148664" lon="11.6917311"><ele>79.0</ele><time>2026-05-01T06:46:32.587Z</time></trkpt><trkpt lat="45.7150874" lon="11.6917598"><ele>79.0</ele><time>2026-05-01T06:46:33.589Z</time></trkpt><trkpt lat="45.7153085" lon="11.6917906"><ele>79.0</ele><time>2026-05-01T06:46:34.587Z</time></trkpt><trkpt lat="45.715527" lon="11.6918382"><ele>79.0</ele><time>2026-05-01T06:46:35.594Z</time></trkpt><trkpt lat="45.7157395" lon="11.6919198"><ele>79.0</ele><time>2026-05-01T06:46:36.597Z</time></trkpt><trkpt lat="45.7159479" lon="11.6920192"><ele>79.0</ele><time>2026-05-01T06:46:37.593Z</time></trkpt><trkpt lat="45.7161534" lon="11.6921262"><ele>79.0</ele><time>2026-05-01T06:46:38.597Z</time></trkpt><trkpt lat="45.7163476" lon="11.6922205"><ele>79.0</ele><time>2026-05-01T06:46:39.594Z</time></trkpt><trkpt lat="45.7165178" lon="11.6922983"><ele>79.0</ele><time>2026-05-01T06:46:40.587Z</time></trkpt><trkpt lat="45.7166943" lon="11.6923812"><ele>79.0</ele><time>2026-05-01T06:46:41.591Z</time></trkpt><trkpt lat="45.7168765" lon="11.6924762"><ele>78.33333333333333</ele><time>2026-05-01T06:46:42.596Z</time></trkpt><trkpt lat="45.7170574" lon="11.6925807"><ele>77.66666666666667</ele><time>2026-05-01T06:46:43.595Z</time></trkpt><trkpt lat="45.7172487" lon="11.6926833"><ele>77.0</ele><time>2026-05-01T06:46:44.592Z</time></trkpt><trkpt lat="45.7174441" lon="11.6927844"><ele>77.0</ele><time>2026-05-01T06:46:45.584Z</time></trkpt><trkpt lat="45.7176423" lon="11.6928859"><ele>77.0</ele><time>2026-05-01T06:46:46.587Z</time></trkpt><trkpt lat="45.7178429" lon="11.6929894"><ele>77.0</ele><time>2026-05-01T06:46:47.593Z</time></trkpt><trkpt lat="45.7180393" lon="11.6930879"><ele>77.33333333333334</ele><time>2026-05-01T06:46:48.586Z</time></trkpt><trkpt lat="45.7182445" lon="11.6931932"><ele>77.66666666666667</ele><time>2026-05-01T06:46:49.593Z</time></trkpt><trkpt lat="45.7184487" lon="11.6933015"><ele>78.0</ele><time>2026-05-01T06:46:50.589Z</time></trkpt><trkpt lat="45.7186537" lon="11.6934101"><ele>78.0</ele><time>2026-05-01T06:46:51.587Z</time></trkpt><trkpt lat="45.7188565" lon="11.6935307"><ele>78.0</ele><time>2026-05-01T06:46:52.594Z</time></trkpt><trkpt lat="45.7190573" lon="11.6936601"><ele>78.0</ele><time>2026-05-01T06:46:53.589Z</time></trkpt><trkpt lat="45.7192612" lon="11.6937974"><ele>78.33333333333333</ele><time>2026-05-01T06:46:54.607Z</time></trkpt><trkpt lat="45.7194578" lon="11.6939423"><ele>78.66666666666666</ele><time>2026-05-01T06:46:55.589Z</time></trkpt><trkpt lat="45.7196569" lon="11.6940944"><ele>79.0</ele><time>2026-05-01T06:46:56.586Z</time></trkpt><trkpt lat="45.7198573" lon="11.6942425"><ele>79.0</ele><time>2026-05-01T06:46:57.589Z</time></trkpt><trkpt lat="45.7200581" lon="11.6943918"><ele>79.0</ele><time>2026-05-01T06:46:58.596Z</time></trkpt><trkpt lat="45.7202594" lon="11.6945379"><ele>79.33333333333333</ele><time>2026-05-01T06:46:59.595Z</time></trkpt><trkpt lat="45.7204638" lon="11.6946699"><ele>79.66666666666667</ele><time>2026-05-01T06:47:00.588Z</time></trkpt><trkpt lat="45.7206707" lon="11.6947891"><ele>80.0</ele><time>2026-05-01T06:47:01.591Z</time></trkpt><trkpt lat="45.7208806" lon="11.6949008"><ele>80.5</ele><time>2026-05-01T06:47:02.589Z</time></trkpt><trkpt lat="45.7210932" lon="11.6950126"><ele>81.0</ele><time>2026-05-01T06:47:03.596Z</time></trkpt><trkpt lat="45.7213077" lon="11.6951241"><ele>81.0</ele><time>2026-05-01T06:47:04.59Z</time></trkpt><trkpt lat="45.7215149" lon="11.6952358"><ele>81.0</ele><time>2026-05-01T06:47:05.592Z</time></trkpt><trkpt lat="45.7217052" lon="11.6953371"><ele>81.0</ele><time>2026-05-01T06:47:06.593Z</time></trkpt><trkpt lat="45.7218735" lon="11.6954272"><ele>82.0</ele><time>2026-05-01T06:47:07.597Z</time></trkpt><trkpt lat="45.7220269" lon="11.6955068"><ele>83.0</ele><time>2026-05-01T06:47:08.589Z</time></trkpt><trkpt lat="45.7221552" lon="11.6955719"><ele>84.0</ele><time>2026-05-01T06:47:09.599Z</time></trkpt><trkpt lat="45.7222656" lon="11.6956247"><ele>85.0</ele><time>2026-05-01T06:47:10.593Z</time></trkpt><trkpt lat="45.7223529" lon="11.6956841"><ele>85.0</ele><time>2026-05-01T06:47:11.598Z</time></trkpt><trkpt lat="45.7224104" lon="11.6957499"><ele>85.0</ele><time>2026-05-01T06:47:12.608Z</time></trkpt><trkpt lat="45.7224614" lon="11.695872"><ele>85.0</ele><time>2026-05-01T06:47:14.59Z</time></trkpt><trkpt lat="45.7224766" lon="11.6959627"><ele>85.0</ele><time>2026-05-01T06:47:15.6Z</time></trkpt><trkpt lat="45.7224678" lon="11.6960741"><ele>85.0</ele><time>2026-05-01T06:47:16.594Z</time></trkpt><trkpt lat="45.7224437" lon="11.6962402"><ele>85.0</ele><time>2026-05-01T06:47:17.599Z</time></trkpt><trkpt lat="45.7224172" lon="11.6964303"><ele>85.0</ele><time>2026-05-01T06:47:18.587Z</time></trkpt><trkpt lat="45.7223869" lon="11.6966274"><ele>85.0</ele><time>2026-05-01T06:47:19.589Z</time></trkpt><trkpt lat="45.7223529" lon="11.6968304"><ele>85.0</ele><time>2026-05-01T06:47:20.589Z</time></trkpt><trkpt lat="45.7223244" lon="11.697011"><ele>85.0</ele><time>2026-05-01T06:47:21.596Z</time></trkpt><trkpt lat="45.7222988" lon="11.6971623"><ele>85.66666666666666</ele><time>2026-05-01T06:47:22.59Z</time></trkpt><trkpt lat="45.7222717" lon="11.6972985"><ele>86.33333333333333</ele><time>2026-05-01T06:47:23.591Z</time></trkpt><trkpt lat="45.7222198" lon="11.6973936"><ele>87.0</ele><time>2026-05-01T06:47:24.588Z</time></trkpt><trkpt lat="45.7221482" lon="11.6974697"><ele>87.66666666666667</ele><time>2026-05-01T06:47:25.592Z</time></trkpt><trkpt lat="45.7220859" lon="11.697548"><ele>88.33333333333334</ele><time>2026-05-01T06:47:26.59Z</time></trkpt><trkpt lat="45.722051" lon="11.6976464"><ele>89.0</ele><time>2026-05-01T06:47:27.592Z</time></trkpt><trkpt lat="45.7220501" lon="11.6977618"><ele>89.0</ele><time>2026-05-01T06:47:28.589Z</time></trkpt><trkpt lat="45.7220836" lon="11.6978602"><ele>89.0</ele><time>2026-05-01T06:47:29.586Z</time></trkpt><trkpt lat="45.7221501" lon="11.6979209"><ele>89.0</ele><time>2026-05-01T06:47:30.592Z</time></trkpt><trkpt lat="45.7222332" lon="11.6979259"><ele>89.0</ele><time>2026-05-01T06:47:31.593Z</time></trkpt><trkpt lat="45.7223046" lon="11.6978691"><ele>89.0</ele><time>2026-05-01T06:47:32.596Z</time></trkpt><trkpt lat="45.7223505" lon="11.6977662"><ele>89.0</ele><time>2026-05-01T06:47:33.59Z</time></trkpt><trkpt lat="45.7223606" lon="11.6976373"><ele>89.0</ele><time>2026-05-01T06:47:34.598Z</time></trkpt><trkpt lat="45.7223649" lon="11.6974995"><ele>89.0</ele><time>2026-05-01T06:47:35.583Z</time></trkpt><trkpt lat="45.7223369" lon="11.6973485"><ele>89.0</ele><time>2026-05-01T06:47:36.591Z</time></trkpt><trkpt lat="45.7223403" lon="11.6971803"><ele>89.0</ele><time>2026-05-01T06:47:37.596Z</time></trkpt><trkpt lat="45.7223665" lon="11.6969908"><ele>87.66666666666667</ele><time>2026-05-01T06:47:38.591Z</time></trkpt><trkpt lat="45.7223991" lon="11.6967876"><ele>86.33333333333333</ele><time>2026-05-01T06:47:39.589Z</time></trkpt><trkpt lat="45.7224354" lon="11.696573"><ele>85.0</ele><time>2026-05-01T06:47:40.59Z</time></trkpt><trkpt lat="45.7224715" lon="11.6963552"><ele>85.0</ele><time>2026-05-01T06:47:41.599Z</time></trkpt><trkpt lat="45.7225111" lon="11.6961365"><ele>85.0</ele><time>2026-05-01T06:47:42.586Z</time></trkpt><trkpt lat="45.722544" lon="11.695913"><ele>85.0</ele><time>2026-05-01T06:47:43.594Z</time></trkpt><trkpt lat="45.7225775" lon="11.6956909"><ele>85.0</ele><time>2026-05-01T06:47:44.617Z</time></trkpt><trkpt lat="45.7226118" lon="11.6954762"><ele>85.0</ele><time>2026-05-01T06:47:45.605Z</time></trkpt><trkpt lat="45.7226433" lon="11.6952787"><ele>85.0</ele><time>2026-05-01T06:47:46.592Z</time></trkpt><trkpt lat="45.7226731" lon="11.6950871"><ele>85.0</ele><time>2026-05-01T06:47:47.592Z</time></trkpt><trkpt lat="45.7227049" lon="11.6948916"><ele>83.75</ele><time>2026-05-01T06:47:48.623Z</time></trkpt><trkpt lat="45.7227347" lon="11.6946976"><ele>82.5</ele><time>2026-05-01T06:47:49.594Z</time></trkpt><trkpt lat="45.7227674" lon="11.6944987"><ele>81.25</ele><time>2026-05-01T06:47:50.588Z</time></trkpt><trkpt lat="45.7227987" lon="11.6943"><ele>80.0</ele><time>2026-05-01T06:47:51.594Z</time></trkpt><trkpt lat="45.7228307" lon="11.6940987"><ele>80.0</ele><time>2026-05-01T06:47:52.593Z</time></trkpt><trkpt lat="45.7228646" lon="11.6938981"><ele>80.0</ele><time>2026-05-01T06:47:53.592Z</time></trkpt><trkpt lat="45.7228986" lon="11.6936955"><ele>80.0</ele><time>2026-05-01T06:47:54.586Z</time></trkpt><trkpt lat="45.7229334" lon="11.693491"><ele>80.0</ele><time>2026-05-01T06:47:55.593Z</time></trkpt><trkpt lat="45.7229657" lon="11.6932837"><ele>80.0</ele><time>2026-05-01T06:47:56.589Z</time></trkpt><trkpt lat="45.7229976" lon="11.6930767"><ele>80.0</ele><time>2026-05-01T06:47:57.591Z</time></trkpt><trkpt lat="45.7230314" lon="11.6928694"><ele>80.0</ele><time>2026-05-01T06:47:58.588Z</time></trkpt><trkpt lat="45.7230657" lon="11.6926642"><ele>80.0</ele><time>2026-05-01T06:47:59.585Z</time></trkpt><trkpt lat="45.7231014" lon="11.6924572"><ele>80.0</ele><time>2026-05-01T06:48:00.589Z</time></trkpt><trkpt lat="45.723137" lon="11.6922496"><ele>80.0</ele><time>2026-05-01T06:48:01.591Z</time></trkpt><trkpt lat="45.7231709" lon="11.6920419"><ele>80.0</ele><time>2026-05-01T06:48:02.59Z</time></trkpt><trkpt lat="45.723204" lon="11.691835"><ele>80.0</ele><time>2026-05-01T06:48:03.586Z</time></trkpt><trkpt lat="45.7232373" lon="11.6916278"><ele>80.33333333333334</ele><time>2026-05-01T06:48:04.591Z</time></trkpt><trkpt lat="45.7232713" lon="11.6914185"><ele>80.66666666666667</ele><time>2026-05-01T06:48:05.596Z</time></trkpt><trkpt lat="45.7233069" lon="11.6912092"><ele>81.0</ele><time>2026-05-01T06:48:06.588Z</time></trkpt><trkpt lat="45.7233416" lon="11.6909982"><ele>81.66666666666667</ele><time>2026-05-01T06:48:07.593Z</time></trkpt><trkpt lat="45.7233763" lon="11.6907873"><ele>82.33333333333334</ele><time>2026-05-01T06:48:08.59Z</time></trkpt><trkpt lat="45.7234112" lon="11.6905767"><ele>83.0</ele><time>2026-05-01T06:48:09.592Z</time></trkpt><trkpt lat="45.7234464" lon="11.6903679"><ele>83.0</ele><time>2026-05-01T06:48:10.587Z</time></trkpt><trkpt lat="45.7234797" lon="11.6901601"><ele>83.0</ele><time>2026-05-01T06:48:11.596Z</time></trkpt><trkpt lat="45.7235129" lon="11.6899535"><ele>83.0</ele><time>2026-05-01T06:48:12.587Z</time></trkpt><trkpt lat="45.723546" lon="11.6897508"><ele>83.0</ele><time>2026-05-01T06:48:13.59Z</time></trkpt><trkpt lat="45.7235792" lon="11.6895505"><ele>83.0</ele><time>2026-05-01T06:48:14.59Z</time></trkpt><trkpt lat="45.7236131" lon="11.689352"><ele>83.0</ele><time>2026-05-01T06:48:15.594Z</time></trkpt><trkpt lat="45.723648" lon="11.6891573"><ele>83.0</ele><time>2026-05-01T06:48:16.591Z</time></trkpt><trkpt lat="45.7236863" lon="11.6889621"><ele>83.0</ele><time>2026-05-01T06:48:17.587Z</time></trkpt><trkpt lat="45.7237292" lon="11.6887671"><ele>82.75</ele><time>2026-05-01T06:48:18.595Z</time></trkpt><trkpt lat="45.7237779" lon="11.6885729"><ele>82.5</ele><time>2026-05-01T06:48:19.593Z</time></trkpt><trkpt lat="45.7238305" lon="11.6883795"><ele>82.25</ele><time>2026-05-01T06:48:20.593Z</time></trkpt><trkpt lat="45.7238833" lon="11.6881897"><ele>82.0</ele><time>2026-05-01T06:48:21.594Z</time></trkpt><trkpt lat="45.7239363" lon="11.6879988"><ele>82.0</ele><time>2026-05-01T06:48:22.589Z</time></trkpt><trkpt lat="45.7239897" lon="11.6878076"><ele>82.0</ele><time>2026-05-01T06:48:23.599Z</time></trkpt><trkpt lat="45.7240427" lon="11.6876163"><ele>82.0</ele><time>2026-05-01T06:48:24.618Z</time></trkpt><trkpt lat="45.7240963" lon="11.6874234"><ele>82.0</ele><time>2026-05-01T06:48:25.593Z</time></trkpt><trkpt lat="45.7241498" lon="11.6872296"><ele>82.0</ele><time>2026-05-01T06:48:26.588Z</time></trkpt><trkpt lat="45.7242026" lon="11.6870374"><ele>82.0</ele><time>2026-05-01T06:48:27.593Z</time></trkpt><trkpt lat="45.7242552" lon="11.6868462"><ele>82.0</ele><time>2026-05-01T06:48:28.591Z</time></trkpt><trkpt lat="45.7243068" lon="11.6866544"><ele>82.0</ele><time>2026-05-01T06:48:29.596Z</time></trkpt><trkpt lat="45.7243567" lon="11.6864615"><ele>82.0</ele><time>2026-05-01T06:48:30.596Z</time></trkpt><trkpt lat="45.7244045" lon="11.6862695"><ele>82.0</ele><time>2026-05-01T06:48:31.59Z</time></trkpt><trkpt lat="45.7244504" lon="11.6860783"><ele>82.0</ele><time>2026-05-01T06:48:32.593Z</time></trkpt><trkpt lat="45.7244945" lon="11.6858856"><ele>82.0</ele><time>2026-05-01T06:48:33.595Z</time></trkpt><trkpt lat="45.724536" lon="11.6856898"><ele>82.0</ele><time>2026-05-01T06:48:34.59Z</time></trkpt><trkpt lat="45.7245726" lon="11.6854905"><ele>82.0</ele><time>2026-05-01T06:48:35.597Z</time></trkpt><trkpt lat="45.7246033" lon="11.6852883"><ele>82.0</ele><time>2026-05-01T06:48:36.597Z</time></trkpt><trkpt lat="45.7246332" lon="11.6850854"><ele>82.0</ele><time>2026-05-01T06:48:37.605Z</time></trkpt><trkpt lat="45.7246635" lon="11.6848845"><ele>82.0</ele><time>2026-05-01T06:48:38.594Z</time></trkpt><trkpt lat="45.7246948" lon="11.6846875"><ele>82.0</ele><time>2026-05-01T06:48:39.591Z</time></trkpt><trkpt lat="45.7247262" lon="11.6844912"><ele>82.0</ele><time>2026-05-01T06:48:40.59Z</time></trkpt><trkpt lat="45.7247556" lon="11.6842959"><ele>82.0</ele><time>2026-05-01T06:48:41.595Z</time></trkpt><trkpt lat="45.7247864" lon="11.6841015"><ele>82.25</ele><time>2026-05-01T06:48:42.588Z</time></trkpt><trkpt lat="45.7248176" lon="11.6839092"><ele>82.5</ele><time>2026-05-01T06:48:43.59Z</time></trkpt><trkpt lat="45.7248482" lon="11.6837178"><ele>82.75</ele><time>2026-05-01T06:48:44.598Z</time></trkpt><trkpt lat="45.724879" lon="11.6835249"><ele>83.0</ele><time>2026-05-01T06:48:45.588Z</time></trkpt><trkpt lat="45.7249098" lon="11.6833337"><ele>83.0</ele><time>2026-05-01T06:48:46.593Z</time></trkpt><trkpt lat="45.7249402" lon="11.6831468"><ele>83.0</ele><time>2026-05-01T06:48:47.587Z</time></trkpt><trkpt lat="45.72497" lon="11.6829636"><ele>83.0</ele><time>2026-05-01T06:48:48.592Z</time></trkpt><trkpt lat="45.7249984" lon="11.6827827"><ele>83.0</ele><time>2026-05-01T06:48:49.599Z</time></trkpt><trkpt lat="45.7250259" lon="11.6826043"><ele>83.0</ele><time>2026-05-01T06:48:50.597Z</time></trkpt><trkpt lat="45.7250538" lon="11.6824265"><ele>83.0</ele><time>2026-05-01T06:48:51.602Z</time></trkpt><trkpt lat="45.7250815" lon="11.6822515"><ele>83.0</ele><time>2026-05-01T06:48:52.595Z</time></trkpt><trkpt lat="45.7251096" lon="11.682077"><ele>83.0</ele><time>2026-05-01T06:48:53.591Z</time></trkpt><trkpt lat="45.7251375" lon="11.6819057"><ele>83.0</ele><time>2026-05-01T06:48:54.59Z</time></trkpt><trkpt lat="45.7251649" lon="11.6817363"><ele>83.0</ele><time>2026-05-01T06:48:55.598Z</time></trkpt><trkpt lat="45.7251894" lon="11.6815711"><ele>83.0</ele><time>2026-05-01T06:48:56.591Z</time></trkpt><trkpt lat="45.7252147" lon="11.6814089"><ele>83.0</ele><time>2026-05-01T06:48:57.594Z</time></trkpt><trkpt lat="45.7252383" lon="11.6812495"><ele>82.83333333333334</ele><time>2026-05-01T06:48:58.59Z</time></trkpt><trkpt lat="45.725261" lon="11.6810941"><ele>82.66666666666667</ele><time>2026-05-01T06:48:59.594Z</time></trkpt><trkpt lat="45.7252836" lon="11.6809561"><ele>82.5</ele><time>2026-05-01T06:49:00.59Z</time></trkpt><trkpt lat="45.7253039" lon="11.6808355"><ele>82.33333333333333</ele><time>2026-05-01T06:49:01.592Z</time></trkpt><trkpt lat="45.7253229" lon="11.6807317"><ele>82.16666666666666</ele><time>2026-05-01T06:49:02.594Z</time></trkpt><trkpt lat="45.7253412" lon="11.6806414"><ele>82.0</ele><time>2026-05-01T06:49:03.592Z</time></trkpt><trkpt lat="45.7253701" lon="11.6805066"><ele>82.0</ele><time>2026-05-01T06:49:05.601Z</time></trkpt><trkpt lat="45.7253832" lon="11.6804132"><ele>82.0</ele><time>2026-05-01T06:49:07.604Z</time></trkpt><trkpt lat="45.7254532" lon="11.6801912"><ele>82.0</ele><time>2026-05-01T06:50:05.592Z</time></trkpt><trkpt lat="45.7254951" lon="11.6800519"><ele>82.0</ele><time>2026-05-01T06:50:07.604Z</time></trkpt><trkpt lat="45.7255482" lon="11.6799003"><ele>82.16666666666666</ele><time>2026-05-01T06:50:09.592Z</time></trkpt><trkpt lat="45.7255815" lon="11.6798163"><ele>82.33333333333333</ele><time>2026-05-01T06:50:10.594Z</time></trkpt><trkpt lat="45.7256217" lon="11.679722"><ele>82.5</ele><time>2026-05-01T06:50:11.59Z</time></trkpt><trkpt lat="45.7256701" lon="11.6796184"><ele>82.66666666666667</ele><time>2026-05-01T06:50:12.582Z</time></trkpt><trkpt lat="45.7257246" lon="11.6795085"><ele>82.83333333333334</ele><time>2026-05-01T06:50:13.589Z</time></trkpt><trkpt lat="45.7257807" lon="11.6793981"><ele>83.0</ele><time>2026-05-01T06:50:14.586Z</time></trkpt><trkpt lat="45.7258348" lon="11.6792829"><ele>83.0</ele><time>2026-05-01T06:50:15.592Z</time></trkpt><trkpt lat="45.7258795" lon="11.679157"><ele>83.0</ele><time>2026-05-01T06:50:16.588Z</time></trkpt><trkpt lat="45.725911" lon="11.6790198"><ele>83.0</ele><time>2026-05-01T06:50:17.589Z</time></trkpt><trkpt lat="45.7259302" lon="11.6788742"><ele>83.0</ele><time>2026-05-01T06:50:18.587Z</time></trkpt><trkpt lat="45.7259366" lon="11.6787187"><ele>83.0</ele><time>2026-05-01T06:50:19.595Z</time></trkpt><trkpt lat="45.7259347" lon="11.6785539"><ele>83.75</ele><time>2026-05-01T06:50:20.592Z</time></trkpt><trkpt lat="45.7259297" lon="11.6783812"><ele>84.5</ele><time>2026-05-01T06:50:21.599Z</time></trkpt><trkpt lat="45.7259249" lon="11.6782044"><ele>85.25</ele><time>2026-05-01T06:50:22.591Z</time></trkpt><trkpt lat="45.7259204" lon="11.6780257"><ele>86.0</ele><time>2026-05-01T06:50:23.586Z</time></trkpt><trkpt lat="45.7259154" lon="11.6778461"><ele>86.0</ele><time>2026-05-01T06:50:24.587Z</time></trkpt><trkpt lat="45.7259088" lon="11.6776635"><ele>86.0</ele><time>2026-05-01T06:50:25.584Z</time></trkpt><trkpt lat="45.7259015" lon="11.6774808"><ele>86.0</ele><time>2026-05-01T06:50:26.586Z</time></trkpt><trkpt lat="45.7258941" lon="11.6772998"><ele>86.0</ele><time>2026-05-01T06:50:27.593Z</time></trkpt><trkpt lat="45.7258872" lon="11.6771181"><ele>86.0</ele><time>2026-05-01T06:50:28.586Z</time></trkpt><trkpt lat="45.7258813" lon="11.6769369"><ele>86.0</ele><time>2026-05-01T06:50:29.584Z</time></trkpt><trkpt lat="45.7258761" lon="11.6767568"><ele>86.0</ele><time>2026-05-01T06:50:30.587Z</time></trkpt><trkpt lat="45.7258732" lon="11.6765753"><ele>86.0</ele><time>2026-05-01T06:50:31.591Z</time></trkpt><trkpt lat="45.7258746" lon="11.6763935"><ele>85.75</ele><time>2026-05-01T06:50:32.587Z</time></trkpt><trkpt lat="45.7258842" lon="11.6762131"><ele>85.5</ele><time>2026-05-01T06:50:33.589Z</time></trkpt><trkpt lat="45.7259033" lon="11.6760342"><ele>85.25</ele><time>2026-05-01T06:50:34.591Z</time></trkpt><trkpt lat="45.7259332" lon="11.675856"><ele>85.0</ele><time>2026-05-01T06:50:35.585Z</time></trkpt><trkpt lat="45.7259733" lon="11.6756806"><ele>84.75</ele><time>2026-05-01T06:50:36.592Z</time></trkpt><trkpt lat="45.7260207" lon="11.6755076"><ele>84.5</ele><time>2026-05-01T06:50:37.588Z</time></trkpt><trkpt lat="45.7260728" lon="11.6753347"><ele>84.25</ele><time>2026-05-01T06:50:38.588Z</time></trkpt><trkpt lat="45.7261283" lon="11.6751621"><ele>84.0</ele><time>2026-05-01T06:50:39.592Z</time></trkpt><trkpt lat="45.7261854" lon="11.6749882"><ele>84.75</ele><time>2026-05-01T06:50:40.588Z</time></trkpt><trkpt lat="45.726248" lon="11.67481"><ele>85.5</ele><time>2026-05-01T06:50:41.585Z</time></trkpt><trkpt lat="45.7263181" lon="11.674631"><ele>86.25</ele><time>2026-05-01T06:50:42.584Z</time></trkpt><trkpt lat="45.7263957" lon="11.6744545"><ele>87.0</ele><time>2026-05-01T06:50:43.584Z</time></trkpt><trkpt lat="45.7264775" lon="11.6742851"><ele>87.0</ele><time>2026-05-01T06:50:44.601Z</time></trkpt><trkpt lat="45.7265627" lon="11.6741204"><ele>87.0</ele><time>2026-05-01T06:50:45.587Z</time></trkpt><trkpt lat="45.7266521" lon="11.6739581"><ele>87.0</ele><time>2026-05-01T06:50:46.581Z</time></trkpt><trkpt lat="45.7267454" lon="11.6737982"><ele>87.0</ele><time>2026-05-01T06:50:47.59Z</time></trkpt><trkpt lat="45.7268406" lon="11.6736384"><ele>87.0</ele><time>2026-05-01T06:50:48.589Z</time></trkpt><trkpt lat="45.7269379" lon="11.6734772"><ele>87.0</ele><time>2026-05-01T06:50:49.689Z</time></trkpt><trkpt lat="45.727036" lon="11.6733158"><ele>87.0</ele><time>2026-05-01T06:50:50.593Z</time></trkpt><trkpt lat="45.7271348" lon="11.6731548"><ele>87.0</ele><time>2026-05-01T06:50:51.586Z</time></trkpt><trkpt lat="45.7272338" lon="11.6729955"><ele>87.0</ele><time>2026-05-01T06:50:52.589Z</time></trkpt><trkpt lat="45.7273324" lon="11.6728398"><ele>87.0</ele><time>2026-05-01T06:50:53.59Z</time></trkpt><trkpt lat="45.7274289" lon="11.6726882"><ele>87.0</ele><time>2026-05-01T06:50:54.589Z</time></trkpt><trkpt lat="45.7275243" lon="11.6725358"><ele>87.0</ele><time>2026-05-01T06:50:55.586Z</time></trkpt><trkpt lat="45.7276173" lon="11.6723841"><ele>86.75</ele><time>2026-05-01T06:50:56.589Z</time></trkpt><trkpt lat="45.7277037" lon="11.6722369"><ele>86.5</ele><time>2026-05-01T06:50:57.589Z</time></trkpt><trkpt lat="45.7277805" lon="11.6720792"><ele>86.25</ele><time>2026-05-01T06:50:58.589Z</time></trkpt><trkpt lat="45.7278431" lon="11.6719052"><ele>86.0</ele><time>2026-05-01T06:50:59.623Z</time></trkpt><trkpt lat="45.7278949" lon="11.6717178"><ele>86.0</ele><time>2026-05-01T06:51:00.599Z</time></trkpt><trkpt lat="45.7279378" lon="11.6715229"><ele>86.0</ele><time>2026-05-01T06:51:01.586Z</time></trkpt><trkpt lat="45.7279711" lon="11.6713225"><ele>86.0</ele><time>2026-05-01T06:51:02.592Z</time></trkpt><trkpt lat="45.7279973" lon="11.6711184"><ele>86.0</ele><time>2026-05-01T06:51:03.598Z</time></trkpt><trkpt lat="45.7280214" lon="11.6709111"><ele>85.75</ele><time>2026-05-01T06:51:04.591Z</time></trkpt><trkpt lat="45.7280449" lon="11.6707009"><ele>85.5</ele><time>2026-05-01T06:51:05.589Z</time></trkpt><trkpt lat="45.7280686" lon="11.6704887"><ele>85.25</ele><time>2026-05-01T06:51:06.598Z</time></trkpt><trkpt lat="45.7280933" lon="11.6702756"><ele>85.0</ele><time>2026-05-01T06:51:07.615Z</time></trkpt><trkpt lat="45.7281178" lon="11.6700628"><ele>85.0</ele><time>2026-05-01T06:51:08.594Z</time></trkpt><trkpt lat="45.7281432" lon="11.6698504"><ele>85.0</ele><time>2026-05-01T06:51:09.59Z</time></trkpt><trkpt lat="45.7281686" lon="11.6696372"><ele>85.0</ele><time>2026-05-01T06:51:10.598Z</time></trkpt><trkpt lat="45.7281941" lon="11.6694228"><ele>85.0</ele><time>2026-05-01T06:51:11.591Z</time></trkpt><trkpt lat="45.7282194" lon="11.6692071"><ele>85.0</ele><time>2026-05-01T06:51:12.596Z</time></trkpt><trkpt lat="45.7282454" lon="11.668991"><ele>85.0</ele><time>2026-05-01T06:51:13.588Z</time></trkpt><trkpt lat="45.7282742" lon="11.6687767"><ele>85.33333333333333</ele><time>2026-05-01T06:51:14.591Z</time></trkpt><trkpt lat="45.7283062" lon="11.6685682"><ele>85.66666666666667</ele><time>2026-05-01T06:51:15.586Z</time></trkpt><trkpt lat="45.7283454" lon="11.6683602"><ele>86.0</ele><time>2026-05-01T06:51:16.596Z</time></trkpt><trkpt lat="45.7283919" lon="11.6681512"><ele>86.0</ele><time>2026-05-01T06:51:17.595Z</time></trkpt><trkpt lat="45.7284443" lon="11.6679425"><ele>86.0</ele><time>2026-05-01T06:51:18.587Z</time></trkpt><trkpt lat="45.7285001" lon="11.6677364"><ele>86.0</ele><time>2026-05-01T06:51:19.598Z</time></trkpt><trkpt lat="45.7285569" lon="11.667533"><ele>86.0</ele><time>2026-05-01T06:51:20.592Z</time></trkpt><trkpt lat="45.728614" lon="11.6673337"><ele>86.0</ele><time>2026-05-01T06:51:21.594Z</time></trkpt><trkpt lat="45.7286674" lon="11.6671491"><ele>86.0</ele><time>2026-05-01T06:51:22.591Z</time></trkpt><trkpt lat="45.7287174" lon="11.6669769"><ele>86.0</ele><time>2026-05-01T06:51:23.598Z</time></trkpt><trkpt lat="45.7287658" lon="11.6668092"><ele>86.19999999999999</ele><time>2026-05-01T06:51:24.588Z</time></trkpt><trkpt lat="45.7288144" lon="11.6666504"><ele>86.39999999999999</ele><time>2026-05-01T06:51:25.599Z</time></trkpt><trkpt lat="45.728867" lon="11.6665039"><ele>86.6</ele><time>2026-05-01T06:51:26.59Z</time></trkpt><trkpt lat="45.7289242" lon="11.6663692"><ele>86.8</ele><time>2026-05-01T06:51:27.594Z</time></trkpt><trkpt lat="45.7289842" lon="11.6662549"><ele>87.0</ele><time>2026-05-01T06:51:28.592Z</time></trkpt><trkpt lat="45.7290438" lon="11.6661666"><ele>86.83333333333333</ele><time>2026-05-01T06:51:29.593Z</time></trkpt><trkpt lat="45.7291121" lon="11.6660981"><ele>86.66666666666667</ele><time>2026-05-01T06:51:30.594Z</time></trkpt><trkpt lat="45.7291956" lon="11.6660617"><ele>86.5</ele><time>2026-05-01T06:51:31.588Z</time></trkpt><trkpt lat="45.7292822" lon="11.6660402"><ele>86.33333333333334</ele><time>2026-05-01T06:51:32.592Z</time></trkpt><trkpt lat="45.729363" lon="11.6659965"><ele>86.16666666666667</ele><time>2026-05-01T06:51:33.588Z</time></trkpt><trkpt lat="45.7294314" lon="11.6659134"><ele>86.0</ele><time>2026-05-01T06:51:34.59Z</time></trkpt><trkpt lat="45.7294776" lon="11.6658097"><ele>86.16666666666667</ele><time>2026-05-01T06:51:35.593Z</time></trkpt><trkpt lat="45.7294999" lon="11.6656881"><ele>86.33333333333334</ele><time>2026-05-01T06:51:36.595Z</time></trkpt><trkpt lat="45.7295005" lon="11.6655627"><ele>86.5</ele><time>2026-05-01T06:51:37.593Z</time></trkpt><trkpt lat="45.7295002" lon="11.6654385"><ele>86.66666666666667</ele><time>2026-05-01T06:51:38.59Z</time></trkpt><trkpt lat="45.7295185" lon="11.6653175"><ele>86.83333333333333</ele><time>2026-05-01T06:51:39.592Z</time></trkpt><trkpt lat="45.7295537" lon="11.6652009"><ele>87.0</ele><time>2026-05-01T06:51:40.585Z</time></trkpt><trkpt lat="45.7296018" lon="11.6650816"><ele>87.0</ele><time>2026-05-01T06:51:41.589Z</time></trkpt><trkpt lat="45.7296576" lon="11.6649538"><ele>87.0</ele><time>2026-05-01T06:51:42.59Z</time></trkpt><trkpt lat="45.729718" lon="11.6648208"><ele>87.0</ele><time>2026-05-01T06:51:43.59Z</time></trkpt><trkpt lat="45.7297814" lon="11.6646909"><ele>87.0</ele><time>2026-05-01T06:51:44.587Z</time></trkpt><trkpt lat="45.7298529" lon="11.6645673"><ele>87.0</ele><time>2026-05-01T06:51:45.591Z</time></trkpt><trkpt lat="45.7299351" lon="11.664459"><ele>87.19999999999999</ele><time>2026-05-01T06:51:46.592Z</time></trkpt><trkpt lat="45.7300274" lon="11.6643752"><ele>87.4</ele><time>2026-05-01T06:51:47.596Z</time></trkpt><trkpt lat="45.7301247" lon="11.6643106"><ele>87.6</ele><time>2026-05-01T06:51:48.588Z</time></trkpt><trkpt lat="45.7302265" lon="11.6642547"><ele>87.80000000000001</ele><time>2026-05-01T06:51:49.589Z</time></trkpt><trkpt lat="45.7303323" lon="11.6641967"><ele>88.0</ele><time>2026-05-01T06:51:50.586Z</time></trkpt><trkpt lat="45.7304429" lon="11.6641343"><ele>88.0</ele><time>2026-05-01T06:51:51.59Z</time></trkpt><trkpt lat="45.7305571" lon="11.6640704"><ele>88.0</ele><time>2026-05-01T06:51:52.59Z</time></trkpt><trkpt lat="45.7306758" lon="11.6640041"><ele>88.0</ele><time>2026-05-01T06:51:53.589Z</time></trkpt><trkpt lat="45.7307978" lon="11.6639359"><ele>88.0</ele><time>2026-05-01T06:51:54.589Z</time></trkpt><trkpt lat="45.7309205" lon="11.6638659"><ele>88.0</ele><time>2026-05-01T06:51:55.588Z</time></trkpt><trkpt lat="45.7310441" lon="11.6637958"><ele>88.0</ele><time>2026-05-01T06:51:56.589Z</time></trkpt><trkpt lat="45.7311682" lon="11.6637267"><ele>88.0</ele><time>2026-05-01T06:51:57.596Z</time></trkpt><trkpt lat="45.7312959" lon="11.6636569"><ele>88.0</ele><time>2026-05-01T06:51:58.587Z</time></trkpt><trkpt lat="45.7314268" lon="11.663585"><ele>88.0</ele><time>2026-05-01T06:51:59.593Z</time></trkpt><trkpt lat="45.7315588" lon="11.6635099"><ele>88.0</ele><time>2026-05-01T06:52:00.586Z</time></trkpt><trkpt lat="45.7316922" lon="11.6634338"><ele>88.0</ele><time>2026-05-01T06:52:01.595Z</time></trkpt><trkpt lat="45.7318275" lon="11.6633569"><ele>88.0</ele><time>2026-05-01T06:52:02.594Z</time></trkpt><trkpt lat="45.7319657" lon="11.6632784"><ele>88.0</ele><time>2026-05-01T06:52:03.595Z</time></trkpt><trkpt lat="45.7321034" lon="11.6632007"><ele>88.0</ele><time>2026-05-01T06:52:04.593Z</time></trkpt><trkpt lat="45.7322397" lon="11.6631235"><ele>88.0</ele><time>2026-05-01T06:52:05.592Z</time></trkpt><trkpt lat="45.7323753" lon="11.6630437"><ele>88.0</ele><time>2026-05-01T06:52:06.599Z</time></trkpt><trkpt lat="45.7325116" lon="11.6629633"><ele>88.0</ele><time>2026-05-01T06:52:07.594Z</time></trkpt><trkpt lat="45.7326487" lon="11.662886"><ele>88.0</ele><time>2026-05-01T06:52:08.589Z</time></trkpt><trkpt lat="45.7327884" lon="11.6628051"><ele>88.0</ele><time>2026-05-01T06:52:09.59Z</time></trkpt><trkpt lat="45.7329369" lon="11.6627162"><ele>89.0</ele><time>2026-05-01T06:52:10.586Z</time></trkpt><trkpt lat="45.7330966" lon="11.6626153"><ele>90.0</ele><time>2026-05-01T06:52:11.593Z</time></trkpt><trkpt lat="45.7332708" lon="11.662504"><ele>91.0</ele><time>2026-05-01T06:52:12.586Z</time></trkpt><trkpt lat="45.7334561" lon="11.6623912"><ele>91.33333333333333</ele><time>2026-05-01T06:52:13.591Z</time></trkpt><trkpt lat="45.7336453" lon="11.6622799"><ele>91.66666666666667</ele><time>2026-05-01T06:52:14.587Z</time></trkpt><trkpt lat="45.7338347" lon="11.6621701"><ele>92.0</ele><time>2026-05-01T06:52:15.59Z</time></trkpt><trkpt lat="45.7340231" lon="11.6620614"><ele>92.0</ele><time>2026-05-01T06:52:16.59Z</time></trkpt><trkpt lat="45.7342079" lon="11.661952"><ele>92.0</ele><time>2026-05-01T06:52:17.59Z</time></trkpt><trkpt lat="45.7343934" lon="11.661841"><ele>92.0</ele><time>2026-05-01T06:52:18.589Z</time></trkpt><trkpt lat="45.7345792" lon="11.6617291"><ele>92.0</ele><time>2026-05-01T06:52:19.59Z</time></trkpt><trkpt lat="45.7347635" lon="11.661616"><ele>92.0</ele><time>2026-05-01T06:52:20.586Z</time></trkpt><trkpt lat="45.7349477" lon="11.6615028"><ele>92.0</ele><time>2026-05-01T06:52:21.597Z</time></trkpt><trkpt lat="45.735132" lon="11.6613899"><ele>92.0</ele><time>2026-05-01T06:52:22.59Z</time></trkpt><trkpt lat="45.7353162" lon="11.6612781"><ele>92.0</ele><time>2026-05-01T06:52:23.582Z</time></trkpt><trkpt lat="45.7355013" lon="11.6611656"><ele>92.0</ele><time>2026-05-01T06:52:24.585Z</time></trkpt><trkpt lat="45.735687" lon="11.6610526"><ele>92.0</ele><time>2026-05-01T06:52:25.594Z</time></trkpt><trkpt lat="45.7358731" lon="11.6609391"><ele>92.0</ele><time>2026-05-01T06:52:26.584Z</time></trkpt><trkpt lat="45.7360591" lon="11.6608259"><ele>92.0</ele><time>2026-05-01T06:52:27.591Z</time></trkpt><trkpt lat="45.7362448" lon="11.6607141"><ele>92.33333333333334</ele><time>2026-05-01T06:52:28.59Z</time></trkpt><trkpt lat="45.7364302" lon="11.6606036"><ele>92.66666666666667</ele><time>2026-05-01T06:52:29.59Z</time></trkpt><trkpt lat="45.7366152" lon="11.660494"><ele>93.0</ele><time>2026-05-01T06:52:30.594Z</time></trkpt><trkpt lat="45.7368035" lon="11.6603928"><ele>93.33333333333333</ele><time>2026-05-01T06:52:31.592Z</time></trkpt><trkpt lat="45.7369957" lon="11.6603027"><ele>93.66666666666666</ele><time>2026-05-01T06:52:32.594Z</time></trkpt><trkpt lat="45.7371918" lon="11.6602253"><ele>94.0</ele><time>2026-05-01T06:52:33.592Z</time></trkpt><trkpt lat="45.737392" lon="11.6601596"><ele>94.0</ele><time>2026-05-01T06:52:34.592Z</time></trkpt><trkpt lat="45.7375944" lon="11.6601041"><ele>94.0</ele><time>2026-05-01T06:52:35.648Z</time></trkpt><trkpt lat="45.7377972" lon="11.6600518"><ele>94.0</ele><time>2026-05-01T06:52:36.589Z</time></trkpt><trkpt lat="45.7380006" lon="11.6600006"><ele>94.0</ele><time>2026-05-01T06:52:37.59Z</time></trkpt><trkpt lat="45.7382039" lon="11.6599485"><ele>94.0</ele><time>2026-05-01T06:52:38.585Z</time></trkpt><trkpt lat="45.7384074" lon="11.6598956"><ele>94.0</ele><time>2026-05-01T06:52:39.595Z</time></trkpt><trkpt lat="45.7386107" lon="11.659842"><ele>94.0</ele><time>2026-05-01T06:52:40.602Z</time></trkpt><trkpt lat="45.7388098" lon="11.6597877"><ele>94.0</ele><time>2026-05-01T06:52:41.627Z</time></trkpt><trkpt lat="45.7389962" lon="11.6597362"><ele>94.0</ele><time>2026-05-01T06:52:42.615Z</time></trkpt><trkpt lat="45.7391761" lon="11.6596873"><ele>94.0</ele><time>2026-05-01T06:52:43.599Z</time></trkpt><trkpt lat="45.7393519" lon="11.6596392"><ele>94.0</ele><time>2026-05-01T06:52:44.591Z</time></trkpt><trkpt lat="45.739521" lon="11.6595911"><ele>94.0</ele><time>2026-05-01T06:52:45.599Z</time></trkpt><trkpt lat="45.7396907" lon="11.6595414"><ele>95.0</ele><time>2026-05-01T06:52:46.594Z</time></trkpt><trkpt lat="45.7398626" lon="11.6594903"><ele>96.0</ele><time>2026-05-01T06:52:47.604Z</time></trkpt><trkpt lat="45.7400366" lon="11.6594401"><ele>97.0</ele><time>2026-05-01T06:52:48.604Z</time></trkpt><trkpt lat="45.7402084" lon="11.6593947"><ele>97.33333333333334</ele><time>2026-05-01T06:52:49.602Z</time></trkpt><trkpt lat="45.7403698" lon="11.6593544"><ele>97.66666666666666</ele><time>2026-05-01T06:52:50.599Z</time></trkpt><trkpt lat="45.7405219" lon="11.6593186"><ele>98.0</ele><time>2026-05-01T06:52:51.6Z</time></trkpt><trkpt lat="45.7406539" lon="11.6592895"><ele>98.0</ele><time>2026-05-01T06:52:52.589Z</time></trkpt><trkpt lat="45.7407699" lon="11.6592854"><ele>98.0</ele><time>2026-05-01T06:52:53.589Z</time></trkpt><trkpt lat="45.7408667" lon="11.6592515"><ele>98.0</ele><time>2026-05-01T06:52:54.601Z</time></trkpt><trkpt lat="45.7409529" lon="11.6592074"><ele>98.0</ele><time>2026-05-01T06:52:55.6Z</time></trkpt><trkpt lat="45.7410499" lon="11.6591715"><ele>98.0</ele><time>2026-05-01T06:52:56.597Z</time></trkpt><trkpt lat="45.7411337" lon="11.6591521"><ele>97.99999999999999</ele><time>2026-05-01T06:52:57.597Z</time></trkpt><trkpt lat="45.7412072" lon="11.659152"><ele>98.0</ele><time>2026-05-01T06:52:58.592Z</time></trkpt><trkpt lat="45.7412772" lon="11.6591432"><ele>98.0</ele><time>2026-05-01T06:52:59.588Z</time></trkpt><trkpt lat="45.7413532" lon="11.6591158"><ele>98.0</ele><time>2026-05-01T06:53:00.596Z</time></trkpt><trkpt lat="45.7414144" lon="11.659042"><ele>97.99999999999999</ele><time>2026-05-01T06:53:01.599Z</time></trkpt><trkpt lat="45.7414574" lon="11.6589357"><ele>98.0</ele><time>2026-05-01T06:53:02.596Z</time></trkpt><trkpt lat="45.7415127" lon="11.6588507"><ele>98.0</ele><time>2026-05-01T06:53:03.601Z</time></trkpt><trkpt lat="45.741583" lon="11.6587641"><ele>98.0</ele><time>2026-05-01T06:53:04.601Z</time></trkpt><trkpt lat="45.741665" lon="11.6587067"><ele>98.0</ele><time>2026-05-01T06:53:05.593Z</time></trkpt><trkpt lat="45.741753" lon="11.6586593"><ele>98.0</ele><time>2026-05-01T06:53:06.593Z</time></trkpt><trkpt lat="45.7418526" lon="11.6586252"><ele>98.0</ele><time>2026-05-01T06:53:07.59Z</time></trkpt><trkpt lat="45.7419605" lon="11.6585895"><ele>98.0</ele><time>2026-05-01T06:53:08.589Z</time></trkpt><trkpt lat="45.7420665" lon="11.6585696"><ele>98.0</ele><time>2026-05-01T06:53:09.591Z</time></trkpt><trkpt lat="45.7421782" lon="11.6585566"><ele>98.0</ele><time>2026-05-01T06:53:10.59Z</time></trkpt><trkpt lat="45.7422874" lon="11.6585459"><ele>98.0</ele><time>2026-05-01T06:53:11.593Z</time></trkpt><trkpt lat="45.7423993" lon="11.6585329"><ele>98.0</ele><time>2026-05-01T06:53:12.591Z</time></trkpt><trkpt lat="45.7425169" lon="11.6585218"><ele>98.0</ele><time>2026-05-01T06:53:13.586Z</time></trkpt><trkpt lat="45.7426331" lon="11.6585113"><ele>98.0</ele><time>2026-05-01T06:53:14.589Z</time></trkpt><trkpt lat="45.7427545" lon="11.6585024"><ele>98.0</ele><time>2026-05-01T06:53:15.592Z</time></trkpt><trkpt lat="45.7428801" lon="11.6584926"><ele>98.0</ele><time>2026-05-01T06:53:16.589Z</time></trkpt><trkpt lat="45.7430068" lon="11.6584801"><ele>98.75</ele><time>2026-05-01T06:53:17.592Z</time></trkpt><trkpt lat="45.7431404" lon="11.6584701"><ele>99.5</ele><time>2026-05-01T06:53:18.593Z</time></trkpt><trkpt lat="45.7432722" lon="11.6584608"><ele>100.25</ele><time>2026-05-01T06:53:19.593Z</time></trkpt><trkpt lat="45.7434015" lon="11.6584481"><ele>101.0</ele><time>2026-05-01T06:53:20.597Z</time></trkpt><trkpt lat="45.743531" lon="11.6584362"><ele>100.75</ele><time>2026-05-01T06:53:21.587Z</time></trkpt><trkpt lat="45.7436609" lon="11.6584258"><ele>100.5</ele><time>2026-05-01T06:53:22.581Z</time></trkpt><trkpt lat="45.7437917" lon="11.6584161"><ele>100.25</ele><time>2026-05-01T06:53:23.587Z</time></trkpt><trkpt lat="45.7439177" lon="11.6584093"><ele>100.0</ele><time>2026-05-01T06:53:24.581Z</time></trkpt><trkpt lat="45.7440453" lon="11.6584005"><ele>100.0</ele><time>2026-05-01T06:53:25.59Z</time></trkpt><trkpt lat="45.7441705" lon="11.6583963"><ele>100.0</ele><time>2026-05-01T06:53:26.587Z</time></trkpt><trkpt lat="45.7442984" lon="11.6583877"><ele>100.0</ele><time>2026-05-01T06:53:27.592Z</time></trkpt><trkpt lat="45.7444247" lon="11.6583883"><ele>100.0</ele><time>2026-05-01T06:53:28.591Z</time></trkpt><trkpt lat="45.7445527" lon="11.6583971"><ele>100.0</ele><time>2026-05-01T06:53:29.587Z</time></trkpt><trkpt lat="45.7446792" lon="11.6584177"><ele>100.0</ele><time>2026-05-01T06:53:30.581Z</time></trkpt><trkpt lat="45.7448065" lon="11.6584441"><ele>100.0</ele><time>2026-05-01T06:53:31.583Z</time></trkpt><trkpt lat="45.7449325" lon="11.6584744"><ele>100.0</ele><time>2026-05-01T06:53:32.601Z</time></trkpt><trkpt lat="45.7450603" lon="11.6585089"><ele>100.0</ele><time>2026-05-01T06:53:33.588Z</time></trkpt><trkpt lat="45.7451835" lon="11.658547"><ele>100.0</ele><time>2026-05-01T06:53:34.606Z</time></trkpt><trkpt lat="45.7452983" lon="11.6585903"><ele>100.0</ele><time>2026-05-01T06:53:35.584Z</time></trkpt><trkpt lat="45.7454049" lon="11.6586316"><ele>100.0</ele><time>2026-05-01T06:53:36.585Z</time></trkpt><trkpt lat="45.7455033" lon="11.6586763"><ele>100.00000000000001</ele><time>2026-05-01T06:53:37.59Z</time></trkpt><trkpt lat="45.7455891" lon="11.6587198"><ele>100.0</ele><time>2026-05-01T06:53:38.588Z</time></trkpt><trkpt lat="45.7456658" lon="11.6587597"><ele>100.0</ele><time>2026-05-01T06:53:39.584Z</time></trkpt><trkpt lat="45.7457338" lon="11.6587921"><ele>100.0</ele><time>2026-05-01T06:53:40.586Z</time></trkpt><trkpt lat="45.7458015" lon="11.6588291"><ele>100.00000000000001</ele><time>2026-05-01T06:53:41.587Z</time></trkpt><trkpt lat="45.7458703" lon="11.6588741"><ele>100.0</ele><time>2026-05-01T06:53:42.585Z</time></trkpt><trkpt lat="45.7459338" lon="11.6589103"><ele>100.2</ele><time>2026-05-01T06:53:43.592Z</time></trkpt><trkpt lat="45.7460485" lon="11.6588765"><ele>100.4</ele><time>2026-05-01T06:53:45.59Z</time></trkpt><trkpt lat="45.7460793" lon="11.6587094"><ele>100.6</ele><time>2026-05-01T06:53:47.599Z</time></trkpt><trkpt lat="45.7460647" lon="11.6586039"><ele>100.8</ele><time>2026-05-01T06:53:48.587Z</time></trkpt><trkpt lat="45.7460411" lon="11.6584886"><ele>101.0</ele><time>2026-05-01T06:53:49.592Z</time></trkpt><trkpt lat="45.7460145" lon="11.658365"><ele>101.0</ele><time>2026-05-01T06:53:50.585Z</time></trkpt><trkpt lat="45.7459829" lon="11.6582404"><ele>101.0</ele><time>2026-05-01T06:53:51.596Z</time></trkpt><trkpt lat="45.7459391" lon="11.6581194"><ele>101.0</ele><time>2026-05-01T06:53:52.6Z</time></trkpt><trkpt lat="45.7458852" lon="11.6579995"><ele>101.0</ele><time>2026-05-01T06:53:53.587Z</time></trkpt><trkpt lat="45.7458261" lon="11.6578818"><ele>101.0</ele><time>2026-05-01T06:53:54.595Z</time></trkpt><trkpt lat="45.7457673" lon="11.6577639"><ele>100.8</ele><time>2026-05-01T06:53:55.59Z</time></trkpt><trkpt lat="45.7457065" lon="11.6576445"><ele>100.6</ele><time>2026-05-01T06:53:56.582Z</time></trkpt><trkpt lat="45.7456482" lon="11.6575263"><ele>100.4</ele><time>2026-05-01T06:53:57.585Z</time></trkpt><trkpt lat="45.745593" lon="11.657412"><ele>100.2</ele><time>2026-05-01T06:53:58.583Z</time></trkpt><trkpt lat="45.745541" lon="11.6572998"><ele>100.0</ele><time>2026-05-01T06:53:59.582Z</time></trkpt><trkpt lat="45.7454925" lon="11.6571965"><ele>100.00000000000001</ele><time>2026-05-01T06:54:00.583Z</time></trkpt><trkpt lat="45.7454473" lon="11.6571034"><ele>100.0</ele><time>2026-05-01T06:54:01.595Z</time></trkpt><trkpt lat="45.745404" lon="11.6570144"><ele>100.0</ele><time>2026-05-01T06:54:02.591Z</time></trkpt><trkpt lat="45.7453598" lon="11.6569201"><ele>100.0</ele><time>2026-05-01T06:54:03.589Z</time></trkpt><trkpt lat="45.7453199" lon="11.6568213"><ele>100.00000000000001</ele><time>2026-05-01T06:54:04.582Z</time></trkpt><trkpt lat="45.7452849" lon="11.6567242"><ele>100.0</ele><time>2026-05-01T06:54:05.584Z</time></trkpt><trkpt lat="45.7452517" lon="11.6566417"><ele>103.0</ele><time>2026-05-01T06:54:06.588Z</time></trkpt><trkpt lat="45.7452098" lon="11.6565573"><ele>101.0</ele><time>2026-05-01T06:54:08.589Z</time></trkpt><trkpt lat="45.7451999" lon="11.6566627"><ele>101.0</ele><time>2026-05-01T06:54:12.584Z</time></trkpt><trkpt lat="45.7452622" lon="11.6567797"><ele>103.0</ele><time>2026-05-01T06:54:14.582Z</time></trkpt><trkpt lat="45.7452927" lon="11.6569063"><ele>103.0</ele><time>2026-05-01T06:54:16.582Z</time></trkpt></trkseg><trkseg><trkpt lat="45.7453997" lon="11.6571628"><ele>100.00000000000001</ele><time>2026-05-01T07:08:29.735Z</time></trkpt><trkpt lat="45.7454418" lon="11.6572523"><ele>100.0</ele><time>2026-05-01T07:08:30.732Z</time></trkpt><trkpt lat="45.7454851" lon="11.6573361"><ele>100.0</ele><time>2026-05-01T07:08:31.779Z</time></trkpt><trkpt lat="45.7455254" lon="11.6574239"><ele>100.0</ele><time>2026-05-01T07:08:32.73Z</time></trkpt><trkpt lat="45.7455669" lon="11.6575133"><ele>100.00000000000001</ele><time>2026-05-01T07:08:33.763Z</time></trkpt><trkpt lat="45.745615" lon="11.6576059"><ele>100.0</ele><time>2026-05-01T07:08:34.734Z</time></trkpt><trkpt lat="45.7456692" lon="11.6577033"><ele>100.16666666666667</ele><time>2026-05-01T07:08:35.73Z</time></trkpt><trkpt lat="45.7457237" lon="11.6578014"><ele>100.33333333333334</ele><time>2026-05-01T07:08:36.731Z</time></trkpt><trkpt lat="45.7457743" lon="11.6578958"><ele>100.5</ele><time>2026-05-01T07:08:37.728Z</time></trkpt><trkpt lat="45.7458141" lon="11.6579662"><ele>100.66666666666666</ele><time>2026-05-01T07:08:38.731Z</time></trkpt><trkpt lat="45.7458569" lon="11.6580672"><ele>100.83333333333333</ele><time>2026-05-01T07:08:40.733Z</time></trkpt><trkpt lat="45.7458755" lon="11.6581572"><ele>101.0</ele><time>2026-05-01T07:08:44.729Z</time></trkpt><trkpt lat="45.7458826" lon="11.6582793"><ele>100.99999999999999</ele><time>2026-05-01T07:08:46.736Z</time></trkpt><trkpt lat="45.74589" lon="11.6583768"><ele>101.0</ele><time>2026-05-01T07:08:47.73Z</time></trkpt><trkpt lat="45.7458926" lon="11.6584897"><ele>101.0</ele><time>2026-05-01T07:08:48.734Z</time></trkpt><trkpt lat="45.7458768" lon="11.6586071"><ele>101.0</ele><time>2026-05-01T07:08:49.731Z</time></trkpt><trkpt lat="45.7458628" lon="11.6587116"><ele>100.99999999999999</ele><time>2026-05-01T07:08:50.727Z</time></trkpt><trkpt lat="45.7458748" lon="11.6588121"><ele>101.0</ele><time>2026-05-01T07:08:51.731Z</time></trkpt><trkpt lat="45.745921" lon="11.658907"><ele>101.0</ele><time>2026-05-01T07:08:52.736Z</time></trkpt><trkpt lat="45.7459938" lon="11.6589965"><ele>101.0</ele><time>2026-05-01T07:08:53.728Z</time></trkpt><trkpt lat="45.7460719" lon="11.6590898"><ele>101.0</ele><time>2026-05-01T07:08:54.727Z</time></trkpt><trkpt lat="45.7461596" lon="11.6591879"><ele>101.0</ele><time>2026-05-01T07:08:55.732Z</time></trkpt><trkpt lat="45.7462489" lon="11.6592953"><ele>101.0</ele><time>2026-05-01T07:08:56.728Z</time></trkpt><trkpt lat="45.7463388" lon="11.6594109"><ele>101.25</ele><time>2026-05-01T07:08:57.731Z</time></trkpt><trkpt lat="45.746434" lon="11.659536"><ele>101.5</ele><time>2026-05-01T07:08:58.734Z</time></trkpt><trkpt lat="45.7465284" lon="11.6596642"><ele>101.75</ele><time>2026-05-01T07:08:59.731Z</time></trkpt><trkpt lat="45.7466212" lon="11.659806"><ele>102.0</ele><time>2026-05-01T07:09:00.731Z</time></trkpt><trkpt lat="45.7467119" lon="11.6599593"><ele>102.0</ele><time>2026-05-01T07:09:01.728Z</time></trkpt><trkpt lat="45.7467981" lon="11.6601221"><ele>102.0</ele><time>2026-05-01T07:09:02.728Z</time></trkpt><trkpt lat="45.7468779" lon="11.6602951"><ele>102.0</ele><time>2026-05-01T07:09:03.728Z</time></trkpt><trkpt lat="45.7469481" lon="11.6604688"><ele>102.0</ele><time>2026-05-01T07:09:04.73Z</time></trkpt><trkpt lat="45.7470082" lon="11.6606282"><ele>102.0</ele><time>2026-05-01T07:09:05.732Z</time></trkpt><trkpt lat="45.7470602" lon="11.6607753"><ele>102.0</ele><time>2026-05-01T07:09:06.73Z</time></trkpt><trkpt lat="45.7471055" lon="11.6609139"><ele>102.0</ele><time>2026-05-01T07:09:07.729Z</time></trkpt><trkpt lat="45.74715" lon="11.6610527"><ele>102.0</ele><time>2026-05-01T07:09:08.733Z</time></trkpt><trkpt lat="45.7471893" lon="11.6611911"><ele>102.0</ele><time>2026-05-01T07:09:09.74Z</time></trkpt><trkpt lat="45.7472235" lon="11.6613215"><ele>102.16666666666667</ele><time>2026-05-01T07:09:10.732Z</time></trkpt><trkpt lat="45.7472512" lon="11.6614362"><ele>102.33333333333334</ele><time>2026-05-01T07:09:11.74Z</time></trkpt><trkpt lat="45.7472771" lon="11.6615456"><ele>102.5</ele><time>2026-05-01T07:09:12.735Z</time></trkpt><trkpt lat="45.7473027" lon="11.6616558"><ele>102.66666666666667</ele><time>2026-05-01T07:09:13.731Z</time></trkpt><trkpt lat="45.7473344" lon="11.6617752"><ele>102.83333333333334</ele><time>2026-05-01T07:09:14.733Z</time></trkpt><trkpt lat="45.7473665" lon="11.6619046"><ele>103.0</ele><time>2026-05-01T07:09:15.734Z</time></trkpt><trkpt lat="45.7473987" lon="11.6620426"><ele>103.2</ele><time>2026-05-01T07:09:16.73Z</time></trkpt><trkpt lat="45.7474348" lon="11.6621888"><ele>103.4</ele><time>2026-05-01T07:09:17.753Z</time></trkpt><trkpt lat="45.7474713" lon="11.6623369"><ele>103.60000000000001</ele><time>2026-05-01T07:09:18.73Z</time></trkpt><trkpt lat="45.7475011" lon="11.6624818"><ele>103.80000000000001</ele><time>2026-05-01T07:09:19.737Z</time></trkpt><trkpt lat="45.7475247" lon="11.6626311"><ele>104.0</ele><time>2026-05-01T07:09:20.735Z</time></trkpt><trkpt lat="45.747545" lon="11.6627831"><ele>104.0</ele><time>2026-05-01T07:09:21.739Z</time></trkpt><trkpt lat="45.7475652" lon="11.6629274"><ele>104.0</ele><time>2026-05-01T07:09:22.73Z</time></trkpt><trkpt lat="45.747584" lon="11.6630529"><ele>104.0</ele><time>2026-05-01T07:09:23.74Z</time></trkpt><trkpt lat="45.7476065" lon="11.6631905"><ele>104.0</ele><time>2026-05-01T07:09:25.738Z</time></trkpt><trkpt lat="45.747627" lon="11.6632888"><ele>104.0</ele><time>2026-05-01T07:09:31.727Z</time></trkpt><trkpt lat="45.7476674" lon="11.6634814"><ele>104.25</ele><time>2026-05-01T07:09:33.735Z</time></trkpt><trkpt lat="45.7476976" lon="11.6636171"><ele>104.5</ele><time>2026-05-01T07:09:34.729Z</time></trkpt><trkpt lat="45.7477331" lon="11.6637749"><ele>104.75</ele><time>2026-05-01T07:09:35.735Z</time></trkpt><trkpt lat="45.7477731" lon="11.663947"><ele>105.0</ele><time>2026-05-01T07:09:36.733Z</time></trkpt><trkpt lat="45.747815" lon="11.6641336"><ele>105.0</ele><time>2026-05-01T07:09:37.735Z</time></trkpt><trkpt lat="45.74786" lon="11.6643332"><ele>105.0</ele><time>2026-05-01T07:09:38.732Z</time></trkpt><trkpt lat="45.747909" lon="11.6645432"><ele>105.0</ele><time>2026-05-01T07:09:39.732Z</time></trkpt><trkpt lat="45.7479601" lon="11.6647589"><ele>105.0</ele><time>2026-05-01T07:09:40.742Z</time></trkpt><trkpt lat="45.7480098" lon="11.6649714"><ele>105.0</ele><time>2026-05-01T07:09:41.731Z</time></trkpt><trkpt lat="45.7480551" lon="11.6651678"><ele>105.0</ele><time>2026-05-01T07:09:42.752Z</time></trkpt><trkpt lat="45.7480968" lon="11.665346"><ele>105.0</ele><time>2026-05-01T07:09:43.732Z</time></trkpt><trkpt lat="45.7481348" lon="11.6655063"><ele>105.0</ele><time>2026-05-01T07:09:44.736Z</time></trkpt><trkpt lat="45.7481754" lon="11.6656504"><ele>105.0</ele><time>2026-05-01T07:09:45.726Z</time></trkpt><trkpt lat="45.74821" lon="11.6657781"><ele>105.0</ele><time>2026-05-01T07:09:46.733Z</time></trkpt><trkpt lat="45.7482365" lon="11.6658909"><ele>105.0</ele><time>2026-05-01T07:09:47.732Z</time></trkpt><trkpt lat="45.7482507" lon="11.6659968"><ele>105.0</ele><time>2026-05-01T07:09:48.733Z</time></trkpt><trkpt lat="45.7482509" lon="11.6661123"><ele>105.0</ele><time>2026-05-01T07:09:49.732Z</time></trkpt><trkpt lat="45.7482437" lon="11.6662301"><ele>105.0</ele><time>2026-05-01T07:09:50.726Z</time></trkpt><trkpt lat="45.7482559" lon="11.6663444"><ele>105.0</ele><time>2026-05-01T07:09:51.735Z</time></trkpt><trkpt lat="45.7482936" lon="11.666453"><ele>105.0</ele><time>2026-05-01T07:09:52.728Z</time></trkpt><trkpt lat="45.7483422" lon="11.6665495"><ele>105.0</ele><time>2026-05-01T07:09:53.731Z</time></trkpt><trkpt lat="45.74839" lon="11.6666532"><ele>105.0</ele><time>2026-05-01T07:09:54.729Z</time></trkpt><trkpt lat="45.7484269" lon="11.6667621"><ele>105.0</ele><time>2026-05-01T07:09:55.728Z</time></trkpt><trkpt lat="45.7484561" lon="11.6668793"><ele>105.2</ele><time>2026-05-01T07:09:56.757Z</time></trkpt><trkpt lat="45.7484862" lon="11.6670052"><ele>105.4</ele><time>2026-05-01T07:09:57.732Z</time></trkpt><trkpt lat="45.7485194" lon="11.667137"><ele>105.6</ele><time>2026-05-01T07:09:58.724Z</time></trkpt><trkpt lat="45.7485548" lon="11.6672838"><ele>105.8</ele><time>2026-05-01T07:09:59.737Z</time></trkpt><trkpt lat="45.7485908" lon="11.6674379"><ele>106.0</ele><time>2026-05-01T07:10:00.73Z</time></trkpt><trkpt lat="45.7486297" lon="11.6675973"><ele>105.5</ele><time>2026-05-01T07:10:01.745Z</time></trkpt><trkpt lat="45.7486692" lon="11.667761"><ele>105.0</ele><time>2026-05-01T07:10:02.732Z</time></trkpt><trkpt lat="45.7487062" lon="11.667923"><ele>104.5</ele><time>2026-05-01T07:10:03.731Z</time></trkpt><trkpt lat="45.7487391" lon="11.6680749"><ele>104.0</ele><time>2026-05-01T07:10:04.737Z</time></trkpt><trkpt lat="45.7487745" lon="11.6682233"><ele>104.0</ele><time>2026-05-01T07:10:05.73Z</time></trkpt><trkpt lat="45.7488162" lon="11.6683726"><ele>104.0</ele><time>2026-05-01T07:10:06.727Z</time></trkpt><trkpt lat="45.7488568" lon="11.6685259"><ele>104.0</ele><time>2026-05-01T07:10:07.728Z</time></trkpt><trkpt lat="45.7489049" lon="11.6686829"><ele>104.0</ele><time>2026-05-01T07:10:08.727Z</time></trkpt><trkpt lat="45.7489623" lon="11.6688501"><ele>104.25</ele><time>2026-05-01T07:10:09.731Z</time></trkpt><trkpt lat="45.7490226" lon="11.6690269"><ele>104.5</ele><time>2026-05-01T07:10:10.727Z</time></trkpt><trkpt lat="45.7490886" lon="11.6692083"><ele>104.75</ele><time>2026-05-01T07:10:11.724Z</time></trkpt><trkpt lat="45.7491624" lon="11.6693941"><ele>105.0</ele><time>2026-05-01T07:10:12.734Z</time></trkpt><trkpt lat="45.7492416" lon="11.6695819"><ele>105.0</ele><time>2026-05-01T07:10:13.737Z</time></trkpt><trkpt lat="45.7493282" lon="11.6697699"><ele>105.0</ele><time>2026-05-01T07:10:14.731Z</time></trkpt><trkpt lat="45.7494258" lon="11.6699587"><ele>105.0</ele><time>2026-05-01T07:10:15.743Z</time></trkpt><trkpt lat="45.749534" lon="11.6701474"><ele>104.33333333333334</ele><time>2026-05-01T07:10:16.731Z</time></trkpt><trkpt lat="45.7496547" lon="11.6703477"><ele>103.66666666666667</ele><time>2026-05-01T07:10:17.73Z</time></trkpt><trkpt lat="45.7497773" lon="11.6705518"><ele>103.0</ele><time>2026-05-01T07:10:18.734Z</time></trkpt><trkpt lat="45.7498924" lon="11.6707458"><ele>103.0</ele><time>2026-05-01T07:10:19.759Z</time></trkpt><trkpt lat="45.7500044" lon="11.670933"><ele>103.0</ele><time>2026-05-01T07:10:20.73Z</time></trkpt><trkpt lat="45.7501097" lon="11.6711071"><ele>103.0</ele><time>2026-05-01T07:10:21.732Z</time></trkpt><trkpt lat="45.7502091" lon="11.6712727"><ele>103.5</ele><time>2026-05-01T07:10:22.733Z</time></trkpt><trkpt lat="45.7503044" lon="11.6714285"><ele>104.0</ele><time>2026-05-01T07:10:23.733Z</time></trkpt><trkpt lat="45.7503984" lon="11.6715817"><ele>104.5</ele><time>2026-05-01T07:10:24.733Z</time></trkpt><trkpt lat="45.7504994" lon="11.6717454"><ele>105.0</ele><time>2026-05-01T07:10:25.732Z</time></trkpt><trkpt lat="45.7506054" lon="11.6719179"><ele>105.0</ele><time>2026-05-01T07:10:26.731Z</time></trkpt><trkpt lat="45.75071" lon="11.6720894"><ele>105.0</ele><time>2026-05-01T07:10:27.74Z</time></trkpt><trkpt lat="45.7508112" lon="11.6722582"><ele>105.0</ele><time>2026-05-01T07:10:28.733Z</time></trkpt><trkpt lat="45.7509082" lon="11.6724244"><ele>105.0</ele><time>2026-05-01T07:10:29.737Z</time></trkpt><trkpt lat="45.7509993" lon="11.6725821"><ele>105.0</ele><time>2026-05-01T07:10:30.731Z</time></trkpt><trkpt lat="45.7510888" lon="11.6727412"><ele>105.0</ele><time>2026-05-01T07:10:31.731Z</time></trkpt><trkpt lat="45.7511755" lon="11.672909"><ele>105.0</ele><time>2026-05-01T07:10:32.73Z</time></trkpt><trkpt lat="45.7512599" lon="11.6730851"><ele>105.0</ele><time>2026-05-01T07:10:33.738Z</time></trkpt><trkpt lat="45.7513437" lon="11.6732656"><ele>105.0</ele><time>2026-05-01T07:10:34.727Z</time></trkpt><trkpt lat="45.7514262" lon="11.6734453"><ele>105.0</ele><time>2026-05-01T07:10:35.727Z</time></trkpt><trkpt lat="45.7515098" lon="11.6736244"><ele>104.5</ele><time>2026-05-01T07:10:36.729Z</time></trkpt><trkpt lat="45.7515924" lon="11.6738025"><ele>104.0</ele><time>2026-05-01T07:10:37.728Z</time></trkpt><trkpt lat="45.751671" lon="11.67397"><ele>103.5</ele><time>2026-05-01T07:10:38.73Z</time></trkpt><trkpt lat="45.7517482" lon="11.6741322"><ele>103.0</ele><time>2026-05-01T07:10:39.728Z</time></trkpt><trkpt lat="45.7518298" lon="11.6742971"><ele>103.0</ele><time>2026-05-01T07:10:40.74Z</time></trkpt><trkpt lat="45.7519256" lon="11.6744711"><ele>103.0</ele><time>2026-05-01T07:10:41.727Z</time></trkpt><trkpt lat="45.7520366" lon="11.6746595"><ele>103.0</ele><time>2026-05-01T07:10:42.731Z</time></trkpt><trkpt lat="45.7521532" lon="11.6748631"><ele>103.0</ele><time>2026-05-01T07:10:43.73Z</time></trkpt><trkpt lat="45.7522724" lon="11.6750758"><ele>103.0</ele><time>2026-05-01T07:10:44.73Z</time></trkpt><trkpt lat="45.7523878" lon="11.6752763"><ele>103.0</ele><time>2026-05-01T07:10:45.726Z</time></trkpt><trkpt lat="45.7525048" lon="11.6754689"><ele>102.66666666666667</ele><time>2026-05-01T07:10:46.727Z</time></trkpt><trkpt lat="45.7526341" lon="11.6756691"><ele>102.33333333333334</ele><time>2026-05-01T07:10:47.73Z</time></trkpt><trkpt lat="45.7527776" lon="11.6758889"><ele>102.0</ele><time>2026-05-01T07:10:48.73Z</time></trkpt><trkpt lat="45.7529207" lon="11.6761211"><ele>103.0</ele><time>2026-05-01T07:10:49.728Z</time></trkpt><trkpt lat="45.7530568" lon="11.6763566"><ele>104.0</ele><time>2026-05-01T07:10:50.725Z</time></trkpt><trkpt lat="45.7531816" lon="11.6765841"><ele>105.0</ele><time>2026-05-01T07:10:51.729Z</time></trkpt><trkpt lat="45.7532929" lon="11.6768028"><ele>105.33333333333334</ele><time>2026-05-01T07:10:52.727Z</time></trkpt><trkpt lat="45.7533931" lon="11.6770262"><ele>105.66666666666667</ele><time>2026-05-01T07:10:53.733Z</time></trkpt><trkpt lat="45.7534798" lon="11.6772621"><ele>106.0</ele><time>2026-05-01T07:10:54.728Z</time></trkpt><trkpt lat="45.7535508" lon="11.6775101"><ele>107.0</ele><time>2026-05-01T07:10:55.729Z</time></trkpt><trkpt lat="45.7536083" lon="11.6777678"><ele>108.0</ele><time>2026-05-01T07:10:56.731Z</time></trkpt><trkpt lat="45.7536571" lon="11.6780312"><ele>109.0</ele><time>2026-05-01T07:10:57.74Z</time></trkpt><trkpt lat="45.7537027" lon="11.6782972"><ele>109.0</ele><time>2026-05-01T07:10:58.732Z</time></trkpt><trkpt lat="45.7537467" lon="11.6785604"><ele>109.0</ele><time>2026-05-01T07:10:59.727Z</time></trkpt><trkpt lat="45.7537899" lon="11.6788071"><ele>109.0</ele><time>2026-05-01T07:11:00.732Z</time></trkpt><trkpt lat="45.7538391" lon="11.6790343"><ele>109.0</ele><time>2026-05-01T07:11:01.735Z</time></trkpt><trkpt lat="45.7539096" lon="11.6792524"><ele>109.0</ele><time>2026-05-01T07:11:02.728Z</time></trkpt><trkpt lat="45.7540074" lon="11.6794617"><ele>109.0</ele><time>2026-05-01T07:11:03.727Z</time></trkpt><trkpt lat="45.754125" lon="11.6796664"><ele>108.33333333333334</ele><time>2026-05-01T07:11:04.734Z</time></trkpt><trkpt lat="45.7542571" lon="11.679868"><ele>107.66666666666666</ele><time>2026-05-01T07:11:05.728Z</time></trkpt><trkpt lat="45.7543991" lon="11.6800638"><ele>107.0</ele><time>2026-05-01T07:11:06.729Z</time></trkpt><trkpt lat="45.7545451" lon="11.6802574"><ele>106.33333333333333</ele><time>2026-05-01T07:11:07.724Z</time></trkpt><trkpt lat="45.7546889" lon="11.6804444"><ele>105.66666666666666</ele><time>2026-05-01T07:11:08.724Z</time></trkpt><trkpt lat="45.7548251" lon="11.6806258"><ele>105.0</ele><time>2026-05-01T07:11:09.733Z</time></trkpt><trkpt lat="45.7549594" lon="11.6808088"><ele>105.0</ele><time>2026-05-01T07:11:10.727Z</time></trkpt><trkpt lat="45.7550925" lon="11.6809953"><ele>105.0</ele><time>2026-05-01T07:11:11.728Z</time></trkpt><trkpt lat="45.7552232" lon="11.681186"><ele>105.0</ele><time>2026-05-01T07:11:12.733Z</time></trkpt><trkpt lat="45.7553476" lon="11.6813853"><ele>106.0</ele><time>2026-05-01T07:11:13.733Z</time></trkpt><trkpt lat="45.7554626" lon="11.6815974"><ele>107.0</ele><time>2026-05-01T07:11:14.765Z</time></trkpt><trkpt lat="45.7555684" lon="11.6818216"><ele>108.0</ele><time>2026-05-01T07:11:15.736Z</time></trkpt><trkpt lat="45.7556678" lon="11.6820554"><ele>108.33333333333334</ele><time>2026-05-01T07:11:16.727Z</time></trkpt><trkpt lat="45.7557661" lon="11.682276"><ele>108.66666666666667</ele><time>2026-05-01T07:11:17.732Z</time></trkpt><trkpt lat="45.7558547" lon="11.6825153"><ele>109.0</ele><time>2026-05-01T07:11:18.731Z</time></trkpt><trkpt lat="45.7559483" lon="11.682751"><ele>109.66666666666667</ele><time>2026-05-01T07:11:19.728Z</time></trkpt><trkpt lat="45.7560378" lon="11.6829929"><ele>110.33333333333334</ele><time>2026-05-01T07:11:20.737Z</time></trkpt><trkpt lat="45.7561345" lon="11.6832321"><ele>111.0</ele><time>2026-05-01T07:11:21.731Z</time></trkpt><trkpt lat="45.7562339" lon="11.6834716"><ele>110.0</ele><time>2026-05-01T07:11:22.729Z</time></trkpt><trkpt lat="45.7563359" lon="11.6837041"><ele>109.0</ele><time>2026-05-01T07:11:23.734Z</time></trkpt><trkpt lat="45.7564402" lon="11.6839298"><ele>108.0</ele><time>2026-05-01T07:11:24.731Z</time></trkpt><trkpt lat="45.7565405" lon="11.6841511"><ele>108.0</ele><time>2026-05-01T07:11:25.73Z</time></trkpt><trkpt lat="45.7566418" lon="11.6843719"><ele>108.0</ele><time>2026-05-01T07:11:26.729Z</time></trkpt><trkpt lat="45.7567441" lon="11.6845916"><ele>108.0</ele><time>2026-05-01T07:11:27.731Z</time></trkpt><trkpt lat="45.7568456" lon="11.6848059"><ele>108.33333333333334</ele><time>2026-05-01T07:11:28.73Z</time></trkpt><trkpt lat="45.7569509" lon="11.6850139"><ele>108.66666666666667</ele><time>2026-05-01T07:11:29.736Z</time></trkpt><trkpt lat="45.757065" lon="11.6852127"><ele>109.0</ele><time>2026-05-01T07:11:30.732Z</time></trkpt><trkpt lat="45.7571923" lon="11.685397"><ele>109.0</ele><time>2026-05-01T07:11:31.737Z</time></trkpt><trkpt lat="45.7573336" lon="11.6855639"><ele>109.0</ele><time>2026-05-01T07:11:32.73Z</time></trkpt><trkpt lat="45.7574847" lon="11.6857167"><ele>109.0</ele><time>2026-05-01T07:11:33.737Z</time></trkpt><trkpt lat="45.75763" lon="11.6858526"><ele>108.75</ele><time>2026-05-01T07:11:34.736Z</time></trkpt><trkpt lat="45.7577716" lon="11.6859671"><ele>108.5</ele><time>2026-05-01T07:11:35.736Z</time></trkpt><trkpt lat="45.7579005" lon="11.6860724"><ele>108.25</ele><time>2026-05-01T07:11:36.727Z</time></trkpt><trkpt lat="45.7580148" lon="11.6861677"><ele>108.0</ele><time>2026-05-01T07:11:37.729Z</time></trkpt><trkpt lat="45.758114" lon="11.6862524"><ele>108.0</ele><time>2026-05-01T07:11:38.727Z</time></trkpt><trkpt lat="45.7581923" lon="11.6863229"><ele>108.00000000000001</ele><time>2026-05-01T07:11:39.729Z</time></trkpt><trkpt lat="45.7582629" lon="11.6863567"><ele>108.00000000000001</ele><time>2026-05-01T07:11:40.728Z</time></trkpt><trkpt lat="45.7583264" lon="11.6863446"><ele>108.0</ele><time>2026-05-01T07:11:41.73Z</time></trkpt><trkpt lat="45.7583947" lon="11.6862037"><ele>108.0</ele><time>2026-05-01T07:11:43.732Z</time></trkpt><trkpt lat="45.7584253" lon="11.6860431"><ele>108.83333333333333</ele><time>2026-05-01T07:11:45.729Z</time></trkpt><trkpt lat="45.7585384" lon="11.6859929"><ele>109.66666666666666</ele><time>2026-05-01T07:11:47.727Z</time></trkpt><trkpt lat="45.7586024" lon="11.6860029"><ele>110.5</ele><time>2026-05-01T07:11:48.724Z</time></trkpt><trkpt lat="45.7586711" lon="11.6860263"><ele>111.33333333333333</ele><time>2026-05-01T07:11:49.729Z</time></trkpt><trkpt lat="45.7587461" lon="11.6860485"><ele>112.16666666666666</ele><time>2026-05-01T07:11:50.728Z</time></trkpt><trkpt lat="45.758834" lon="11.6860718"><ele>113.0</ele><time>2026-05-01T07:11:51.727Z</time></trkpt><trkpt lat="45.7589214" lon="11.6860857"><ele>113.0</ele><time>2026-05-01T07:11:52.73Z</time></trkpt><trkpt lat="45.7590153" lon="11.6860866"><ele>113.00000000000001</ele><time>2026-05-01T07:11:53.728Z</time></trkpt><trkpt lat="45.7591082" lon="11.6860796"><ele>113.00000000000001</ele><time>2026-05-01T07:11:54.725Z</time></trkpt><trkpt lat="45.7592097" lon="11.6860567"><ele>113.0</ele><time>2026-05-01T07:11:55.724Z</time></trkpt><trkpt lat="45.7593151" lon="11.6860272"><ele>113.0</ele><time>2026-05-01T07:11:56.725Z</time></trkpt><trkpt lat="45.7594185" lon="11.6859991"><ele>113.60000000000001</ele><time>2026-05-01T07:11:57.731Z</time></trkpt><trkpt lat="45.7595123" lon="11.6859732"><ele>114.20000000000002</ele><time>2026-05-01T07:11:58.729Z</time></trkpt><trkpt lat="45.7596035" lon="11.6859463"><ele>114.8</ele><time>2026-05-01T07:11:59.729Z</time></trkpt><trkpt lat="45.7596964" lon="11.6859496"><ele>115.4</ele><time>2026-05-01T07:12:00.727Z</time></trkpt><trkpt lat="45.7597869" lon="11.6859718"><ele>116.0</ele><time>2026-05-01T07:12:01.726Z</time></trkpt><trkpt lat="45.7598767" lon="11.6859913"><ele>116.0</ele><time>2026-05-01T07:12:02.727Z</time></trkpt><trkpt lat="45.7599639" lon="11.6859984"><ele>116.0</ele><time>2026-05-01T07:12:03.728Z</time></trkpt><trkpt lat="45.7600545" lon="11.6859818"><ele>116.0</ele><time>2026-05-01T07:12:04.729Z</time></trkpt><trkpt lat="45.7601479" lon="11.6859405"><ele>116.0</ele><time>2026-05-01T07:12:05.727Z</time></trkpt><trkpt lat="45.7602439" lon="11.6858896"><ele>116.0</ele><time>2026-05-01T07:12:06.725Z</time></trkpt><trkpt lat="45.7603423" lon="11.6858427"><ele>117.0</ele><time>2026-05-01T07:12:07.727Z</time></trkpt><trkpt lat="45.7604397" lon="11.6857972"><ele>118.0</ele><time>2026-05-01T07:12:08.727Z</time></trkpt><trkpt lat="45.7605374" lon="11.6857455"><ele>119.0</ele><time>2026-05-01T07:12:09.731Z</time></trkpt><trkpt lat="45.7606376" lon="11.6856866"><ele>120.0</ele><time>2026-05-01T07:12:10.728Z</time></trkpt><trkpt lat="45.7607536" lon="11.6856357"><ele>121.0</ele><time>2026-05-01T07:12:11.726Z</time></trkpt><trkpt lat="45.7608759" lon="11.6855832"><ele>121.0</ele><time>2026-05-01T07:12:12.726Z</time></trkpt><trkpt lat="45.7609879" lon="11.6855358"><ele>121.0</ele><time>2026-05-01T07:12:13.726Z</time></trkpt><trkpt lat="45.7610929" lon="11.6854919"><ele>121.0</ele><time>2026-05-01T07:12:14.725Z</time></trkpt><trkpt lat="45.7611819" lon="11.6854449"><ele>121.0</ele><time>2026-05-01T07:12:15.728Z</time></trkpt><trkpt lat="45.7612479" lon="11.6854125"><ele>121.0</ele><time>2026-05-01T07:12:16.727Z</time></trkpt><trkpt lat="45.761315" lon="11.6853888"><ele>122.33333333333334</ele><time>2026-05-01T07:12:17.726Z</time></trkpt><trkpt lat="45.7613786" lon="11.6853888"><ele>123.66666666666667</ele><time>2026-05-01T07:12:18.727Z</time></trkpt><trkpt lat="45.7614985" lon="11.6854563"><ele>125.0</ele><time>2026-05-01T07:12:20.728Z</time></trkpt><trkpt lat="45.7615567" lon="11.6855411"><ele>126.33333333333334</ele><time>2026-05-01T07:12:21.726Z</time></trkpt><trkpt lat="45.7616097" lon="11.685623"><ele>127.66666666666667</ele><time>2026-05-01T07:12:22.737Z</time></trkpt><trkpt lat="45.7616588" lon="11.6856961"><ele>129.0</ele><time>2026-05-01T07:12:23.73Z</time></trkpt><trkpt lat="45.761726" lon="11.6857904"><ele>129.0</ele><time>2026-05-01T07:12:25.732Z</time></trkpt><trkpt lat="45.7618178" lon="11.6858856"><ele>129.0</ele><time>2026-05-01T07:12:27.734Z</time></trkpt><trkpt lat="45.7618688" lon="11.685979"><ele>129.0</ele><time>2026-05-01T07:12:28.73Z</time></trkpt><trkpt lat="45.7619239" lon="11.6860925"><ele>129.0</ele><time>2026-05-01T07:12:29.727Z</time></trkpt><trkpt lat="45.7619691" lon="11.6861985"><ele>129.0</ele><time>2026-05-01T07:12:30.728Z</time></trkpt><trkpt lat="45.7620058" lon="11.6862907"><ele>129.8</ele><time>2026-05-01T07:12:31.725Z</time></trkpt><trkpt lat="45.762058" lon="11.6864165"><ele>130.60000000000002</ele><time>2026-05-01T07:12:33.727Z</time></trkpt><trkpt lat="45.7621005" lon="11.6864868"><ele>131.4</ele><time>2026-05-01T07:12:34.728Z</time></trkpt><trkpt lat="45.7621529" lon="11.686585"><ele>132.20000000000002</ele><time>2026-05-01T07:12:35.725Z</time></trkpt><trkpt lat="45.7622041" lon="11.6867078"><ele>133.0</ele><time>2026-05-01T07:12:36.728Z</time></trkpt><trkpt lat="45.7622511" lon="11.6868587"><ele>131.25</ele><time>2026-05-01T07:12:37.734Z</time></trkpt><trkpt lat="45.7622969" lon="11.6870371"><ele>129.5</ele><time>2026-05-01T07:12:38.726Z</time></trkpt><trkpt lat="45.7623462" lon="11.6872321"><ele>127.75</ele><time>2026-05-01T07:12:39.726Z</time></trkpt><trkpt lat="45.7624104" lon="11.6874288"><ele>126.0</ele><time>2026-05-01T07:12:40.728Z</time></trkpt><trkpt lat="45.7624926" lon="11.6876163"><ele>127.33333333333334</ele><time>2026-05-01T07:12:41.727Z</time></trkpt><trkpt lat="45.7625894" lon="11.6877943"><ele>128.66666666666669</ele><time>2026-05-01T07:12:42.752Z</time></trkpt><trkpt lat="45.7626875" lon="11.6879625"><ele>130.0</ele><time>2026-05-01T07:12:43.73Z</time></trkpt><trkpt lat="45.7627792" lon="11.6881188"><ele>130.0</ele><time>2026-05-01T07:12:44.727Z</time></trkpt><trkpt lat="45.7628601" lon="11.6882661"><ele>130.0</ele><time>2026-05-01T07:12:45.73Z</time></trkpt><trkpt lat="45.7629313" lon="11.688404"><ele>130.0</ele><time>2026-05-01T07:12:46.727Z</time></trkpt><trkpt lat="45.7629926" lon="11.6885295"><ele>130.0</ele><time>2026-05-01T07:12:47.725Z</time></trkpt><trkpt lat="45.7630451" lon="11.6886549"><ele>129.0</ele><time>2026-05-01T07:12:48.727Z</time></trkpt><trkpt lat="45.7630901" lon="11.6887926"><ele>128.0</ele><time>2026-05-01T07:12:49.728Z</time></trkpt><trkpt lat="45.763132" lon="11.6889382"><ele>127.0</ele><time>2026-05-01T07:12:50.727Z</time></trkpt><trkpt lat="45.7631659" lon="11.6890809"><ele>126.0</ele><time>2026-05-01T07:12:51.729Z</time></trkpt><trkpt lat="45.7631882" lon="11.6892163"><ele>125.0</ele><time>2026-05-01T07:12:52.731Z</time></trkpt><trkpt lat="45.7631975" lon="11.6893497"><ele>124.6</ele><time>2026-05-01T07:12:53.731Z</time></trkpt><trkpt lat="45.7631862" lon="11.6894896"><ele>124.2</ele><time>2026-05-01T07:12:54.753Z</time></trkpt><trkpt lat="45.7631504" lon="11.6896256"><ele>123.80000000000001</ele><time>2026-05-01T07:12:55.727Z</time></trkpt><trkpt lat="45.763101" lon="11.6897585"><ele>123.4</ele><time>2026-05-01T07:12:56.729Z</time></trkpt><trkpt lat="45.7630718" lon="11.689909"><ele>123.0</ele><time>2026-05-01T07:12:57.726Z</time></trkpt><trkpt lat="45.7630676" lon="11.690081"><ele>123.0</ele><time>2026-05-01T07:12:58.728Z</time></trkpt><trkpt lat="45.7630821" lon="11.6902634"><ele>123.0</ele><time>2026-05-01T07:12:59.728Z</time></trkpt><trkpt lat="45.7631133" lon="11.6904455"><ele>123.0</ele><time>2026-05-01T07:13:00.726Z</time></trkpt><trkpt lat="45.7631584" lon="11.690611"><ele>123.0</ele><time>2026-05-01T07:13:01.728Z</time></trkpt><trkpt lat="45.7631989" lon="11.6907644"><ele>123.0</ele><time>2026-05-01T07:13:02.74Z</time></trkpt><trkpt lat="45.7632502" lon="11.6909206"><ele>123.0</ele><time>2026-05-01T07:13:03.728Z</time></trkpt><trkpt lat="45.763292" lon="11.6910849"><ele>123.0</ele><time>2026-05-01T07:13:04.73Z</time></trkpt><trkpt lat="45.7633331" lon="11.691251"><ele>123.0</ele><time>2026-05-01T07:13:05.725Z</time></trkpt><trkpt lat="45.763396" lon="11.6914131"><ele>123.25</ele><time>2026-05-01T07:13:06.727Z</time></trkpt><trkpt lat="45.7634793" lon="11.6915527"><ele>123.5</ele><time>2026-05-01T07:13:07.727Z</time></trkpt><trkpt lat="45.7635753" lon="11.6916847"><ele>123.75</ele><time>2026-05-01T07:13:08.726Z</time></trkpt><trkpt lat="45.7636693" lon="11.6918142"><ele>124.0</ele><time>2026-05-01T07:13:09.726Z</time></trkpt><trkpt lat="45.7637504" lon="11.6919573"><ele>122.5</ele><time>2026-05-01T07:13:10.727Z</time></trkpt><trkpt lat="45.7638124" lon="11.6921164"><ele>121.0</ele><time>2026-05-01T07:13:11.729Z</time></trkpt><trkpt lat="45.7638579" lon="11.6922802"><ele>119.5</ele><time>2026-05-01T07:13:12.723Z</time></trkpt><trkpt lat="45.7639059" lon="11.6924438"><ele>118.0</ele><time>2026-05-01T07:13:13.728Z</time></trkpt><trkpt lat="45.7639744" lon="11.6925979"><ele>118.0</ele><time>2026-05-01T07:13:14.726Z</time></trkpt><trkpt lat="45.7640508" lon="11.6927474"><ele>118.0</ele><time>2026-05-01T07:13:15.727Z</time></trkpt><trkpt lat="45.764146" lon="11.6928826"><ele>118.0</ele><time>2026-05-01T07:13:16.728Z</time></trkpt><trkpt lat="45.7642378" lon="11.6930176"><ele>118.0</ele><time>2026-05-01T07:13:17.728Z</time></trkpt><trkpt lat="45.7643258" lon="11.6931678"><ele>118.0</ele><time>2026-05-01T07:13:18.726Z</time></trkpt><trkpt lat="45.7644037" lon="11.6933256"><ele>118.0</ele><time>2026-05-01T07:13:19.729Z</time></trkpt><trkpt lat="45.7644703" lon="11.6934902"><ele>118.0</ele><time>2026-05-01T07:13:20.727Z</time></trkpt><trkpt lat="45.7645267" lon="11.6936587"><ele>118.0</ele><time>2026-05-01T07:13:21.726Z</time></trkpt><trkpt lat="45.7645685" lon="11.693822"><ele>118.0</ele><time>2026-05-01T07:13:22.724Z</time></trkpt><trkpt lat="45.7645943" lon="11.6939727"><ele>118.00000000000001</ele><time>2026-05-01T07:13:23.727Z</time></trkpt><trkpt lat="45.7646037" lon="11.6941098"><ele>118.00000000000001</ele><time>2026-05-01T07:13:24.726Z</time></trkpt><trkpt lat="45.7646077" lon="11.6942435"><ele>118.0</ele><time>2026-05-01T07:13:25.733Z</time></trkpt><trkpt lat="45.7645989" lon="11.6943911"><ele>118.0</ele><time>2026-05-01T07:13:26.727Z</time></trkpt><trkpt lat="45.7645973" lon="11.6945407"><ele>117.60000000000001</ele><time>2026-05-01T07:13:27.729Z</time></trkpt><trkpt lat="45.7645988" lon="11.6946896"><ele>117.20000000000002</ele><time>2026-05-01T07:13:28.73Z</time></trkpt><trkpt lat="45.7646114" lon="11.6948398"><ele>116.8</ele><time>2026-05-01T07:13:29.728Z</time></trkpt><trkpt lat="45.764628" lon="11.6949881"><ele>116.4</ele><time>2026-05-01T07:13:30.727Z</time></trkpt><trkpt lat="45.7646469" lon="11.6951257"><ele>116.0</ele><time>2026-05-01T07:13:31.727Z</time></trkpt><trkpt lat="45.7646713" lon="11.6952676"><ele>116.0</ele><time>2026-05-01T07:13:32.729Z</time></trkpt><trkpt lat="45.764691" lon="11.6954162"><ele>116.0</ele><time>2026-05-01T07:13:33.738Z</time></trkpt><trkpt lat="45.7647084" lon="11.6955659"><ele>116.0</ele><time>2026-05-01T07:13:34.737Z</time></trkpt><trkpt lat="45.7647158" lon="11.695709"><ele>116.0</ele><time>2026-05-01T07:13:35.728Z</time></trkpt><trkpt lat="45.7647085" lon="11.6958318"><ele>116.0</ele><time>2026-05-01T07:13:36.728Z</time></trkpt><trkpt lat="45.7647015" lon="11.6959295"><ele>115.99999999999999</ele><time>2026-05-01T07:13:37.729Z</time></trkpt><trkpt lat="45.764682" lon="11.6960158"><ele>116.0</ele><time>2026-05-01T07:13:38.729Z</time></trkpt><trkpt lat="45.7646399" lon="11.6961312"><ele>116.0</ele><time>2026-05-01T07:13:40.735Z</time></trkpt><trkpt lat="45.7646372" lon="11.6962643"><ele>116.0</ele><time>2026-05-01T07:13:42.729Z</time></trkpt><trkpt lat="45.7646612" lon="11.6963788"><ele>115.99999999999999</ele><time>2026-05-01T07:13:43.73Z</time></trkpt><trkpt lat="45.7646869" lon="11.6965093"><ele>116.0</ele><time>2026-05-01T07:13:44.73Z</time></trkpt><trkpt lat="45.7647203" lon="11.6966611"><ele>116.0</ele><time>2026-05-01T07:13:45.735Z</time></trkpt><trkpt lat="45.7647565" lon="11.6968166"><ele>116.0</ele><time>2026-05-01T07:13:46.751Z</time></trkpt><trkpt lat="45.7648001" lon="11.6969759"><ele>116.0</ele><time>2026-05-01T07:13:47.729Z</time></trkpt><trkpt lat="45.7648544" lon="11.6971185"><ele>116.0</ele><time>2026-05-01T07:13:48.728Z</time></trkpt><trkpt lat="45.7649277" lon="11.6972375"><ele>116.0</ele><time>2026-05-01T07:13:49.731Z</time></trkpt><trkpt lat="45.7650229" lon="11.6973159"><ele>116.0</ele><time>2026-05-01T07:13:50.727Z</time></trkpt><trkpt lat="45.7651362" lon="11.6973527"><ele>116.0</ele><time>2026-05-01T07:13:51.738Z</time></trkpt><trkpt lat="45.7652597" lon="11.6973562"><ele>116.0</ele><time>2026-05-01T07:13:52.725Z</time></trkpt><trkpt lat="45.7653879" lon="11.697359"><ele>116.75</ele><time>2026-05-01T07:13:53.726Z</time></trkpt><trkpt lat="45.7655236" lon="11.6973522"><ele>117.5</ele><time>2026-05-01T07:13:54.73Z</time></trkpt><trkpt lat="45.7656751" lon="11.6973419"><ele>118.25</ele><time>2026-05-01T07:13:55.756Z</time></trkpt><trkpt lat="45.7658216" lon="11.6973336"><ele>119.0</ele><time>2026-05-01T07:13:56.73Z</time></trkpt><trkpt lat="45.7659753" lon="11.6973224"><ele>119.33333333333333</ele><time>2026-05-01T07:13:57.744Z</time></trkpt><trkpt lat="45.7661348" lon="11.6973122"><ele>119.66666666666666</ele><time>2026-05-01T07:13:58.752Z</time></trkpt><trkpt lat="45.766297" lon="11.6973008"><ele>120.0</ele><time>2026-05-01T07:13:59.756Z</time></trkpt><trkpt lat="45.7664619" lon="11.6972765"><ele>120.0</ele><time>2026-05-01T07:14:00.747Z</time></trkpt><trkpt lat="45.7666334" lon="11.6972555"><ele>120.0</ele><time>2026-05-01T07:14:01.751Z</time></trkpt><trkpt lat="45.7668027" lon="11.697234"><ele>120.0</ele><time>2026-05-01T07:14:02.75Z</time></trkpt><trkpt lat="45.7669749" lon="11.6972152"><ele>118.66666666666666</ele><time>2026-05-01T07:14:03.761Z</time></trkpt><trkpt lat="45.7671458" lon="11.6971973"><ele>117.33333333333333</ele><time>2026-05-01T07:14:04.747Z</time></trkpt><trkpt lat="45.7673181" lon="11.6971778"><ele>116.0</ele><time>2026-05-01T07:14:05.756Z</time></trkpt><trkpt lat="45.7674853" lon="11.6971454"><ele>116.0</ele><time>2026-05-01T07:14:06.783Z</time></trkpt><trkpt lat="45.7676568" lon="11.6971071"><ele>116.0</ele><time>2026-05-01T07:14:07.755Z</time></trkpt><trkpt lat="45.7678209" lon="11.6970551"><ele>116.0</ele><time>2026-05-01T07:14:08.751Z</time></trkpt><trkpt lat="45.7679873" lon="11.6970025"><ele>116.66666666666666</ele><time>2026-05-01T07:14:09.752Z</time></trkpt><trkpt lat="45.7681525" lon="11.6969461"><ele>117.33333333333334</ele><time>2026-05-01T07:14:10.754Z</time></trkpt><trkpt lat="45.7683171" lon="11.6968873"><ele>118.0</ele><time>2026-05-01T07:14:11.772Z</time></trkpt><trkpt lat="45.7684869" lon="11.6968262"><ele>119.0</ele><time>2026-05-01T07:14:12.764Z</time></trkpt><trkpt lat="45.7686565" lon="11.6967622"><ele>120.0</ele><time>2026-05-01T07:14:13.748Z</time></trkpt><trkpt lat="45.768824" lon="11.6966967"><ele>121.0</ele><time>2026-05-01T07:14:14.755Z</time></trkpt><trkpt lat="45.7689903" lon="11.6966356"><ele>121.0</ele><time>2026-05-01T07:14:15.753Z</time></trkpt><trkpt lat="45.7691535" lon="11.6965745"><ele>121.0</ele><time>2026-05-01T07:14:16.747Z</time></trkpt><trkpt lat="45.7693153" lon="11.6965132"><ele>121.0</ele><time>2026-05-01T07:14:17.748Z</time></trkpt><trkpt lat="45.7694729" lon="11.6964528"><ele>121.33333333333334</ele><time>2026-05-01T07:14:18.748Z</time></trkpt><trkpt lat="45.7696292" lon="11.6963912"><ele>121.66666666666666</ele><time>2026-05-01T07:14:19.748Z</time></trkpt><trkpt lat="45.7697761" lon="11.6963326"><ele>122.0</ele><time>2026-05-01T07:14:20.752Z</time></trkpt><trkpt lat="45.7699114" lon="11.6962792"><ele>122.0</ele><time>2026-05-01T07:14:21.754Z</time></trkpt><trkpt lat="45.7700346" lon="11.6962315"><ele>121.99999999999999</ele><time>2026-05-01T07:14:22.745Z</time></trkpt><trkpt lat="45.770144" lon="11.6961907"><ele>121.99999999999999</ele><time>2026-05-01T07:14:23.754Z</time></trkpt><trkpt lat="45.7702413" lon="11.6961556"><ele>122.0</ele><time>2026-05-01T07:14:24.766Z</time></trkpt><trkpt lat="45.7703254" lon="11.6961244"><ele>122.0</ele><time>2026-05-01T07:14:25.752Z</time></trkpt><trkpt lat="45.7704212" lon="11.6961011"><ele>122.49999999999999</ele><time>2026-05-01T07:14:27.76Z</time></trkpt><trkpt lat="45.7704979" lon="11.6961064"><ele>123.0</ele><time>2026-05-01T07:14:35.748Z</time></trkpt><trkpt lat="45.770569" lon="11.6960803"><ele>123.5</ele><time>2026-05-01T07:14:37.749Z</time></trkpt><trkpt lat="45.770634" lon="11.6960233"><ele>124.0</ele><time>2026-05-01T07:14:38.749Z</time></trkpt><trkpt lat="45.7707072" lon="11.6959453"><ele>124.49999999999999</ele><time>2026-05-01T07:14:39.748Z</time></trkpt><trkpt lat="45.7707849" lon="11.6958527"><ele>125.0</ele><time>2026-05-01T07:14:40.757Z</time></trkpt><trkpt lat="45.7708668" lon="11.6957538"><ele>125.0</ele><time>2026-05-01T07:14:41.766Z</time></trkpt><trkpt lat="45.7709533" lon="11.6956513"><ele>125.0</ele><time>2026-05-01T07:14:42.753Z</time></trkpt><trkpt lat="45.7710428" lon="11.6955455"><ele>125.0</ele><time>2026-05-01T07:14:43.747Z</time></trkpt><trkpt lat="45.7711352" lon="11.695436"><ele>125.0</ele><time>2026-05-01T07:14:44.75Z</time></trkpt><trkpt lat="45.7712295" lon="11.6953206"><ele>124.5</ele><time>2026-05-01T07:14:45.751Z</time></trkpt><trkpt lat="45.7713258" lon="11.6952007"><ele>124.0</ele><time>2026-05-01T07:14:46.754Z</time></trkpt><trkpt lat="45.7714262" lon="11.6950771"><ele>123.5</ele><time>2026-05-01T07:14:47.744Z</time></trkpt><trkpt lat="45.7715308" lon="11.694949"><ele>123.0</ele><time>2026-05-01T07:14:48.744Z</time></trkpt><trkpt lat="45.7716398" lon="11.694818"><ele>123.0</ele><time>2026-05-01T07:14:49.752Z</time></trkpt><trkpt lat="45.771751" lon="11.6946843"><ele>123.0</ele><time>2026-05-01T07:14:50.744Z</time></trkpt><trkpt lat="45.7718614" lon="11.6945512"><ele>123.0</ele><time>2026-05-01T07:14:51.744Z</time></trkpt><trkpt lat="45.7719699" lon="11.6944177"><ele>123.0</ele><time>2026-05-01T07:14:52.753Z</time></trkpt><trkpt lat="45.7720782" lon="11.694283"><ele>124.25</ele><time>2026-05-01T07:14:53.756Z</time></trkpt><trkpt lat="45.7721883" lon="11.6941491"><ele>125.5</ele><time>2026-05-01T07:14:54.752Z</time></trkpt><trkpt lat="45.7722985" lon="11.6940139"><ele>126.75</ele><time>2026-05-01T07:14:55.74Z</time></trkpt><trkpt lat="45.7724106" lon="11.6938763"><ele>128.0</ele><time>2026-05-01T07:14:56.756Z</time></trkpt><trkpt lat="45.7725253" lon="11.6937376"><ele>128.0</ele><time>2026-05-01T07:14:57.749Z</time></trkpt><trkpt lat="45.7726429" lon="11.6935956"><ele>128.0</ele><time>2026-05-01T07:14:58.745Z</time></trkpt><trkpt lat="45.7727611" lon="11.6934524"><ele>128.0</ele><time>2026-05-01T07:14:59.749Z</time></trkpt><trkpt lat="45.7728797" lon="11.6933087"><ele>129.33333333333331</ele><time>2026-05-01T07:15:00.755Z</time></trkpt><trkpt lat="45.7730013" lon="11.6931631"><ele>130.66666666666666</ele><time>2026-05-01T07:15:01.75Z</time></trkpt><trkpt lat="45.7731264" lon="11.6930216"><ele>132.0</ele><time>2026-05-01T07:15:02.749Z</time></trkpt><trkpt lat="45.7732571" lon="11.6928927"><ele>132.0</ele><time>2026-05-01T07:15:03.756Z</time></trkpt><trkpt lat="45.7733951" lon="11.6927809"><ele>132.0</ele><time>2026-05-01T07:15:04.761Z</time></trkpt><trkpt lat="45.7735389" lon="11.6926869"><ele>132.0</ele><time>2026-05-01T07:15:05.751Z</time></trkpt><trkpt lat="45.7736856" lon="11.6926049"><ele>132.5</ele><time>2026-05-01T07:15:06.748Z</time></trkpt><trkpt lat="45.7738322" lon="11.6925289"><ele>133.0</ele><time>2026-05-01T07:15:07.749Z</time></trkpt><trkpt lat="45.7739725" lon="11.6924563"><ele>133.5</ele><time>2026-05-01T07:15:08.751Z</time></trkpt><trkpt lat="45.7741012" lon="11.6923886"><ele>134.0</ele><time>2026-05-01T07:15:09.75Z</time></trkpt><trkpt lat="45.774211" lon="11.6923303"><ele>134.0</ele><time>2026-05-01T07:15:10.751Z</time></trkpt><trkpt lat="45.7743041" lon="11.6922811"><ele>134.0</ele><time>2026-05-01T07:15:11.749Z</time></trkpt><trkpt lat="45.7743773" lon="11.692259"><ele>134.0</ele><time>2026-05-01T07:15:12.758Z</time></trkpt><trkpt lat="45.774441" lon="11.6922808"><ele>134.0</ele><time>2026-05-01T07:15:13.746Z</time></trkpt><trkpt lat="45.7744953" lon="11.6923521"><ele>134.0</ele><time>2026-05-01T07:15:14.751Z</time></trkpt><trkpt lat="45.7745409" lon="11.6924645"><ele>134.0</ele><time>2026-05-01T07:15:15.753Z</time></trkpt><trkpt lat="45.774576" lon="11.692605"><ele>138.75</ele><time>2026-05-01T07:15:16.749Z</time></trkpt><trkpt lat="45.7745986" lon="11.6927671"><ele>143.5</ele><time>2026-05-01T07:15:17.77Z</time></trkpt><trkpt lat="45.7746097" lon="11.6929449"><ele>148.25</ele><time>2026-05-01T07:15:18.746Z</time></trkpt><trkpt lat="45.7746163" lon="11.6931328"><ele>153.0</ele><time>2026-05-01T07:15:19.732Z</time></trkpt><trkpt lat="45.7746223" lon="11.6933298"><ele>153.0</ele><time>2026-05-01T07:15:20.748Z</time></trkpt><trkpt lat="45.7746462" lon="11.6935282"><ele>153.0</ele><time>2026-05-01T07:15:21.761Z</time></trkpt><trkpt lat="45.7746952" lon="11.6937257"><ele>153.0</ele><time>2026-05-01T07:15:22.756Z</time></trkpt><trkpt lat="45.7747641" lon="11.6939197"><ele>153.0</ele><time>2026-05-01T07:15:23.761Z</time></trkpt><trkpt lat="45.7748464" lon="11.6941135"><ele>153.0</ele><time>2026-05-01T07:15:24.752Z</time></trkpt><trkpt lat="45.7749369" lon="11.6943071"><ele>153.0</ele><time>2026-05-01T07:15:25.751Z</time></trkpt><trkpt lat="45.775027" lon="11.6944977"><ele>153.0</ele><time>2026-05-01T07:15:26.747Z</time></trkpt><trkpt lat="45.7751096" lon="11.694691"><ele>152.33333333333334</ele><time>2026-05-01T07:15:27.758Z</time></trkpt><trkpt lat="45.7751768" lon="11.6948948"><ele>151.66666666666669</ele><time>2026-05-01T07:15:28.747Z</time></trkpt><trkpt lat="45.7752191" lon="11.6951141"><ele>151.0</ele><time>2026-05-01T07:15:29.751Z</time></trkpt><trkpt lat="45.7752325" lon="11.6953431"><ele>156.25</ele><time>2026-05-01T07:15:30.754Z</time></trkpt><trkpt lat="45.775228" lon="11.6955697"><ele>161.5</ele><time>2026-05-01T07:15:31.762Z</time></trkpt><trkpt lat="45.7752216" lon="11.6957742"><ele>166.75</ele><time>2026-05-01T07:15:32.757Z</time></trkpt><trkpt lat="45.77521" lon="11.6959529"><ele>172.0</ele><time>2026-05-01T07:15:33.748Z</time></trkpt><trkpt lat="45.7751766" lon="11.6960943"><ele>172.0</ele><time>2026-05-01T07:15:34.742Z</time></trkpt><trkpt lat="45.7751012" lon="11.6962025"><ele>172.0</ele><time>2026-05-01T07:15:35.741Z</time></trkpt><trkpt lat="45.7749998" lon="11.6962818"><ele>172.0</ele><time>2026-05-01T07:15:36.749Z</time></trkpt><trkpt lat="45.774887" lon="11.6963745"><ele>172.0</ele><time>2026-05-01T07:15:37.751Z</time></trkpt><trkpt lat="45.7747771" lon="11.6964872"><ele>172.0</ele><time>2026-05-01T07:15:38.749Z</time></trkpt><trkpt lat="45.7746706" lon="11.6966071"><ele>172.0</ele><time>2026-05-01T07:15:39.752Z</time></trkpt><trkpt lat="45.7745713" lon="11.6967355"><ele>172.0</ele><time>2026-05-01T07:15:40.747Z</time></trkpt><trkpt lat="45.7744834" lon="11.6968752"><ele>172.0</ele><time>2026-05-01T07:15:41.756Z</time></trkpt><trkpt lat="45.7744135" lon="11.6970114"><ele>170.25</ele><time>2026-05-01T07:15:42.769Z</time></trkpt><trkpt lat="45.7743607" lon="11.6971566"><ele>168.5</ele><time>2026-05-01T07:15:43.752Z</time></trkpt><trkpt lat="45.7743339" lon="11.6973177"><ele>166.75</ele><time>2026-05-01T07:15:44.751Z</time></trkpt><trkpt lat="45.7743358" lon="11.6974886"><ele>165.0</ele><time>2026-05-01T07:15:45.751Z</time></trkpt><trkpt lat="45.7743528" lon="11.6976671"><ele>170.75</ele><time>2026-05-01T07:15:46.752Z</time></trkpt><trkpt lat="45.774374" lon="11.6978526"><ele>176.5</ele><time>2026-05-01T07:15:47.752Z</time></trkpt><trkpt lat="45.7743984" lon="11.6980418"><ele>182.25</ele><time>2026-05-01T07:15:48.748Z</time></trkpt><trkpt lat="45.7744288" lon="11.6982332"><ele>188.0</ele><time>2026-05-01T07:15:49.748Z</time></trkpt><trkpt lat="45.7744721" lon="11.6984247"><ele>188.0</ele><time>2026-05-01T07:15:50.749Z</time></trkpt><trkpt lat="45.7745222" lon="11.6986171"><ele>188.0</ele><time>2026-05-01T07:15:51.749Z</time></trkpt><trkpt lat="45.7745735" lon="11.69881"><ele>188.0</ele><time>2026-05-01T07:15:52.75Z</time></trkpt><trkpt lat="45.7746252" lon="11.6990023"><ele>188.0</ele><time>2026-05-01T07:15:53.745Z</time></trkpt><trkpt lat="45.7746741" lon="11.6991838"><ele>188.0</ele><time>2026-05-01T07:15:54.747Z</time></trkpt><trkpt lat="45.7747157" lon="11.6993406"><ele>188.0</ele><time>2026-05-01T07:15:55.751Z</time></trkpt><trkpt lat="45.7747576" lon="11.6994783"><ele>188.0</ele><time>2026-05-01T07:15:56.748Z</time></trkpt><trkpt lat="45.7748167" lon="11.6996005"><ele>188.0</ele><time>2026-05-01T07:15:57.766Z</time></trkpt><trkpt lat="45.7748893" lon="11.6997011"><ele>188.0</ele><time>2026-05-01T07:15:58.758Z</time></trkpt><trkpt lat="45.774976" lon="11.6997797"><ele>188.25</ele><time>2026-05-01T07:15:59.755Z</time></trkpt><trkpt lat="45.7750851" lon="11.6998306"><ele>188.5</ele><time>2026-05-01T07:16:00.751Z</time></trkpt><trkpt lat="45.7752075" lon="11.6998654"><ele>188.75</ele><time>2026-05-01T07:16:01.753Z</time></trkpt><trkpt lat="45.775336" lon="11.6998857"><ele>189.0</ele><time>2026-05-01T07:16:02.725Z</time></trkpt><trkpt lat="45.7754605" lon="11.6998902"><ele>188.2</ele><time>2026-05-01T07:16:03.735Z</time></trkpt><trkpt lat="45.7755762" lon="11.6998872"><ele>187.39999999999998</ele><time>2026-05-01T07:16:04.734Z</time></trkpt><trkpt lat="45.7756836" lon="11.6998739"><ele>186.6</ele><time>2026-05-01T07:16:05.762Z</time></trkpt><trkpt lat="45.7757779" lon="11.6998614"><ele>185.8</ele><time>2026-05-01T07:16:06.732Z</time></trkpt><trkpt lat="45.7758685" lon="11.6998341"><ele>185.0</ele><time>2026-05-01T07:16:07.734Z</time></trkpt><trkpt lat="45.7759528" lon="11.6998145"><ele>183.6</ele><time>2026-05-01T07:16:08.754Z</time></trkpt><trkpt lat="45.7760412" lon="11.6997935"><ele>182.2</ele><time>2026-05-01T07:16:09.77Z</time></trkpt><trkpt lat="45.7761297" lon="11.6997898"><ele>180.8</ele><time>2026-05-01T07:16:10.755Z</time></trkpt><trkpt lat="45.776219" lon="11.6998228"><ele>179.4</ele><time>2026-05-01T07:16:11.759Z</time></trkpt><trkpt lat="45.776312" lon="11.699895"><ele>178.0</ele><time>2026-05-01T07:16:12.746Z</time></trkpt><trkpt lat="45.7763958" lon="11.7000036"><ele>178.0</ele><time>2026-05-01T07:16:13.751Z</time></trkpt><trkpt lat="45.7764688" lon="11.700137"><ele>178.0</ele><time>2026-05-01T07:16:14.748Z</time></trkpt><trkpt lat="45.7765326" lon="11.7002887"><ele>178.0</ele><time>2026-05-01T07:16:15.753Z</time></trkpt><trkpt lat="45.7765933" lon="11.7004439"><ele>178.0</ele><time>2026-05-01T07:16:16.754Z</time></trkpt><trkpt lat="45.7766567" lon="11.7006075"><ele>178.25</ele><time>2026-05-01T07:16:17.752Z</time></trkpt><trkpt lat="45.7767221" lon="11.7007848"><ele>178.5</ele><time>2026-05-01T07:16:18.753Z</time></trkpt><trkpt lat="45.7767855" lon="11.7009698"><ele>178.75</ele><time>2026-05-01T07:16:19.751Z</time></trkpt><trkpt lat="45.7768474" lon="11.7011692"><ele>179.0</ele><time>2026-05-01T07:16:20.76Z</time></trkpt><trkpt lat="45.7769061" lon="11.7013755"><ele>177.33333333333331</ele><time>2026-05-01T07:16:21.745Z</time></trkpt><trkpt lat="45.7769644" lon="11.7015877"><ele>175.66666666666666</ele><time>2026-05-01T07:16:22.75Z</time></trkpt><trkpt lat="45.7770259" lon="11.7017937"><ele>174.0</ele><time>2026-05-01T07:16:23.758Z</time></trkpt><trkpt lat="45.7770924" lon="11.7020092"><ele>173.33333333333334</ele><time>2026-05-01T07:16:24.753Z</time></trkpt><trkpt lat="45.7771538" lon="11.7022247"><ele>172.66666666666669</ele><time>2026-05-01T07:16:25.76Z</time></trkpt><trkpt lat="45.7772127" lon="11.7024409"><ele>172.0</ele><time>2026-05-01T07:16:26.752Z</time></trkpt><trkpt lat="45.7772708" lon="11.7026566"><ele>170.75</ele><time>2026-05-01T07:16:27.761Z</time></trkpt><trkpt lat="45.7773263" lon="11.7028551"><ele>169.5</ele><time>2026-05-01T07:16:28.751Z</time></trkpt><trkpt lat="45.7773802" lon="11.7030381"><ele>168.25</ele><time>2026-05-01T07:16:29.761Z</time></trkpt><trkpt lat="45.777431" lon="11.7032077"><ele>167.0</ele><time>2026-05-01T07:16:30.753Z</time></trkpt><trkpt lat="45.7774721" lon="11.7033573"><ele>167.0</ele><time>2026-05-01T07:16:31.759Z</time></trkpt><trkpt lat="45.7775077" lon="11.70349"><ele>167.0</ele><time>2026-05-01T07:16:32.756Z</time></trkpt><trkpt lat="45.7775343" lon="11.7036042"><ele>167.0</ele><time>2026-05-01T07:16:33.767Z</time></trkpt><trkpt lat="45.7775563" lon="11.7036988"><ele>167.0</ele><time>2026-05-01T07:16:34.754Z</time></trkpt><trkpt lat="45.7776019" lon="11.7038281"><ele>167.0</ele><time>2026-05-01T07:16:36.745Z</time></trkpt><trkpt lat="45.7776945" lon="11.7038353"><ele>167.0</ele><time>2026-05-01T07:16:38.764Z</time></trkpt><trkpt lat="45.7777612" lon="11.7038024"><ele>166.66666666666666</ele><time>2026-05-01T07:16:39.751Z</time></trkpt><trkpt lat="45.7778353" lon="11.7037619"><ele>166.33333333333331</ele><time>2026-05-01T07:16:40.748Z</time></trkpt><trkpt lat="45.7778951" lon="11.7037055"><ele>166.0</ele><time>2026-05-01T07:16:41.754Z</time></trkpt><trkpt lat="45.7779464" lon="11.7035511"><ele>165.66666666666666</ele><time>2026-05-01T07:16:43.742Z</time></trkpt><trkpt lat="45.7779377" lon="11.7034526"><ele>165.33333333333334</ele><time>2026-05-01T07:16:44.759Z</time></trkpt><trkpt lat="45.7779088" lon="11.7033368"><ele>165.0</ele><time>2026-05-01T07:16:45.762Z</time></trkpt><trkpt lat="45.7778646" lon="11.703202"><ele>166.25</ele><time>2026-05-01T07:16:46.752Z</time></trkpt><trkpt lat="45.7778142" lon="11.7030577"><ele>167.5</ele><time>2026-05-01T07:16:47.767Z</time></trkpt><trkpt lat="45.7777589" lon="11.7028983"><ele>168.75</ele><time>2026-05-01T07:16:48.753Z</time></trkpt><trkpt lat="45.7777056" lon="11.7027403"><ele>170.0</ele><time>2026-05-01T07:16:49.761Z</time></trkpt><trkpt lat="45.7776727" lon="11.7025852"><ele>170.4</ele><time>2026-05-01T07:16:50.757Z</time></trkpt><trkpt lat="45.7776555" lon="11.7024395"><ele>170.8</ele><time>2026-05-01T07:16:51.753Z</time></trkpt><trkpt lat="45.7776582" lon="11.702301"><ele>171.2</ele><time>2026-05-01T07:16:52.755Z</time></trkpt><trkpt lat="45.7776818" lon="11.702161"><ele>171.6</ele><time>2026-05-01T07:16:53.753Z</time></trkpt><trkpt lat="45.7777154" lon="11.7020179"><ele>172.0</ele><time>2026-05-01T07:16:54.756Z</time></trkpt><trkpt lat="45.777795" lon="11.7018808"><ele>177.0</ele><time>2026-05-01T07:16:55.766Z</time></trkpt><trkpt lat="45.7778866" lon="11.7017585"><ele>182.0</ele><time>2026-05-01T07:16:56.754Z</time></trkpt><trkpt lat="45.7779868" lon="11.7016554"><ele>187.0</ele><time>2026-05-01T07:16:57.757Z</time></trkpt><trkpt lat="45.7780812" lon="11.7015747"><ele>192.0</ele><time>2026-05-01T07:16:58.74Z</time></trkpt><trkpt lat="45.7781737" lon="11.7015247"><ele>192.0</ele><time>2026-05-01T07:16:59.753Z</time></trkpt><trkpt lat="45.778253" lon="11.7014961"><ele>192.0</ele><time>2026-05-01T07:17:00.753Z</time></trkpt><trkpt lat="45.7783324" lon="11.7014647"><ele>192.0</ele><time>2026-05-01T07:17:01.757Z</time></trkpt><trkpt lat="45.7784101" lon="11.7014286"><ele>192.0</ele><time>2026-05-01T07:17:02.762Z</time></trkpt><trkpt lat="45.7784917" lon="11.7013989"><ele>192.0</ele><time>2026-05-01T07:17:03.758Z</time></trkpt><trkpt lat="45.7785683" lon="11.7013801"><ele>192.0</ele><time>2026-05-01T07:17:04.758Z</time></trkpt><trkpt lat="45.7786347" lon="11.7013752"><ele>193.66666666666666</ele><time>2026-05-01T07:17:05.754Z</time></trkpt><trkpt lat="45.778726" lon="11.7013581"><ele>195.33333333333331</ele><time>2026-05-01T07:17:07.754Z</time></trkpt><trkpt lat="45.7787354" lon="11.7012154"><ele>197.0</ele><time>2026-05-01T07:17:10.751Z</time></trkpt><trkpt lat="45.7786993" lon="11.7011373"><ele>198.66666666666666</ele><time>2026-05-01T07:17:11.754Z</time></trkpt><trkpt lat="45.7786582" lon="11.70105"><ele>200.33333333333331</ele><time>2026-05-01T07:17:12.758Z</time></trkpt><trkpt lat="45.7786338" lon="11.700959"><ele>202.0</ele><time>2026-05-01T07:17:13.755Z</time></trkpt><trkpt lat="45.7786215" lon="11.7007802"><ele>204.99999999999997</ele><time>2026-05-01T07:17:15.754Z</time></trkpt><trkpt lat="45.7786261" lon="11.7006722"><ele>208.0</ele><time>2026-05-01T07:17:16.753Z</time></trkpt><trkpt lat="45.7786348" lon="11.7005572"><ele>211.0</ele><time>2026-05-01T07:17:17.76Z</time></trkpt><trkpt lat="45.7786414" lon="11.7004344"><ele>214.0</ele><time>2026-05-01T07:17:18.755Z</time></trkpt><trkpt lat="45.7786524" lon="11.700309"><ele>216.99999999999997</ele><time>2026-05-01T07:17:19.755Z</time></trkpt><trkpt lat="45.7786683" lon="11.700187"><ele>220.0</ele><time>2026-05-01T07:17:20.755Z</time></trkpt><trkpt lat="45.7786853" lon="11.7000732"><ele>220.42857142857142</ele><time>2026-05-01T07:17:21.751Z</time></trkpt><trkpt lat="45.7787028" lon="11.6999666"><ele>220.85714285714286</ele><time>2026-05-01T07:17:22.756Z</time></trkpt><trkpt lat="45.7787278" lon="11.6998765"><ele>221.28571428571428</ele><time>2026-05-01T07:17:23.755Z</time></trkpt><trkpt lat="45.7787745" lon="11.6997902"><ele>221.71428571428572</ele><time>2026-05-01T07:17:24.759Z</time></trkpt><trkpt lat="45.7788275" lon="11.6997084"><ele>222.14285714285714</ele><time>2026-05-01T07:17:25.751Z</time></trkpt><trkpt lat="45.778881" lon="11.6996448"><ele>222.57142857142856</ele><time>2026-05-01T07:17:26.75Z</time></trkpt><trkpt lat="45.7789409" lon="11.6995929"><ele>223.0</ele><time>2026-05-01T07:17:28.775Z</time></trkpt><trkpt lat="45.7790193" lon="11.6996536"><ele>223.0</ele><time>2026-05-01T07:17:30.728Z</time></trkpt><trkpt lat="45.7790913" lon="11.6997236"><ele>223.0</ele><time>2026-05-01T07:17:31.733Z</time></trkpt><trkpt lat="45.7791792" lon="11.6998112"><ele>223.0</ele><time>2026-05-01T07:17:32.737Z</time></trkpt><trkpt lat="45.7792768" lon="11.6998832"><ele>223.0</ele><time>2026-05-01T07:17:33.748Z</time></trkpt><trkpt lat="45.7793656" lon="11.6999385"><ele>223.0</ele><time>2026-05-01T07:17:34.75Z</time></trkpt><trkpt lat="45.7794662" lon="11.6999671"><ele>224.8</ele><time>2026-05-01T07:17:35.761Z</time></trkpt><trkpt lat="45.7795778" lon="11.6999817"><ele>226.60000000000002</ele><time>2026-05-01T07:17:36.749Z</time></trkpt><trkpt lat="45.7796992" lon="11.6999787"><ele>228.39999999999998</ele><time>2026-05-01T07:17:37.752Z</time></trkpt><trkpt lat="45.779799" lon="11.6999838"><ele>230.2</ele><time>2026-05-01T07:17:38.755Z</time></trkpt><trkpt lat="45.779899" lon="11.7000014"><ele>232.0</ele><time>2026-05-01T07:17:39.748Z</time></trkpt><trkpt lat="45.7799806" lon="11.7000081"><ele>232.0</ele><time>2026-05-01T07:17:40.749Z</time></trkpt><trkpt lat="45.7800858" lon="11.6999892"><ele>232.0</ele><time>2026-05-01T07:17:42.759Z</time></trkpt><trkpt lat="45.7801613" lon="11.6998853"><ele>232.0</ele><time>2026-05-01T07:17:44.748Z</time></trkpt><trkpt lat="45.7802037" lon="11.6997962"><ele>232.0</ele><time>2026-05-01T07:17:45.752Z</time></trkpt><trkpt lat="45.7803198" lon="11.6997154"><ele>232.0</ele><time>2026-05-01T07:17:47.765Z</time></trkpt><trkpt lat="45.7803978" lon="11.6997353"><ele>234.6</ele><time>2026-05-01T07:17:48.756Z</time></trkpt><trkpt lat="45.7804846" lon="11.6997529"><ele>237.2</ele><time>2026-05-01T07:17:49.758Z</time></trkpt><trkpt lat="45.7805876" lon="11.6997612"><ele>239.8</ele><time>2026-05-01T07:17:50.751Z</time></trkpt><trkpt lat="45.7806889" lon="11.6997931"><ele>242.4</ele><time>2026-05-01T07:17:51.76Z</time></trkpt><trkpt lat="45.7807814" lon="11.6998324"><ele>245.0</ele><time>2026-05-01T07:17:52.759Z</time></trkpt><trkpt lat="45.7808768" lon="11.6998573"><ele>245.00000000000003</ele><time>2026-05-01T07:17:53.746Z</time></trkpt><trkpt lat="45.78096" lon="11.6999074"><ele>245.0</ele><time>2026-05-01T07:17:54.755Z</time></trkpt><trkpt lat="45.7810337" lon="11.6999498"><ele>245.0</ele><time>2026-05-01T07:17:55.748Z</time></trkpt><trkpt lat="45.7811112" lon="11.6999823"><ele>245.0</ele><time>2026-05-01T07:17:56.752Z</time></trkpt><trkpt lat="45.7811905" lon="11.6999953"><ele>245.00000000000003</ele><time>2026-05-01T07:17:57.75Z</time></trkpt><trkpt lat="45.7812623" lon="11.700032"><ele>245.0</ele><time>2026-05-01T07:17:58.751Z</time></trkpt><trkpt lat="45.781317" lon="11.7000769"><ele>245.4</ele><time>2026-05-01T07:17:59.753Z</time></trkpt><trkpt lat="45.7813893" lon="11.7001601"><ele>245.8</ele><time>2026-05-01T07:18:01.762Z</time></trkpt><trkpt lat="45.7814522" lon="11.7001329"><ele>246.2</ele><time>2026-05-01T07:18:03.75Z</time></trkpt><trkpt lat="45.7814915" lon="11.6999616"><ele>246.6</ele><time>2026-05-01T07:18:05.755Z</time></trkpt><trkpt lat="45.7815016" lon="11.6998574"><ele>247.0</ele><time>2026-05-01T07:18:06.741Z</time></trkpt><trkpt lat="45.7815019" lon="11.6996956"><ele>247.0</ele><time>2026-05-01T07:18:08.747Z</time></trkpt><trkpt lat="45.781508" lon="11.6995367"><ele>247.0</ele><time>2026-05-01T07:18:10.757Z</time></trkpt><trkpt lat="45.7815251" lon="11.6993903"><ele>247.0</ele><time>2026-05-01T07:18:12.749Z</time></trkpt><trkpt lat="45.7815699" lon="11.6993015"><ele>247.0</ele><time>2026-05-01T07:18:13.746Z</time></trkpt><trkpt lat="45.7816308" lon="11.6992043"><ele>247.0</ele><time>2026-05-01T07:18:14.748Z</time></trkpt><trkpt lat="45.781696" lon="11.6991367"><ele>248.16666666666666</ele><time>2026-05-01T07:18:15.748Z</time></trkpt><trkpt lat="45.7817715" lon="11.6990933"><ele>249.33333333333331</ele><time>2026-05-01T07:18:16.749Z</time></trkpt><trkpt lat="45.7818566" lon="11.6990608"><ele>250.5</ele><time>2026-05-01T07:18:17.738Z</time></trkpt><trkpt lat="45.7819333" lon="11.6990489"><ele>251.66666666666669</ele><time>2026-05-01T07:18:18.751Z</time></trkpt><trkpt lat="45.782028" lon="11.6990091"><ele>252.83333333333334</ele><time>2026-05-01T07:18:20.761Z</time></trkpt><trkpt lat="45.7820843" lon="11.6989568"><ele>254.0</ele><time>2026-05-01T07:18:21.766Z</time></trkpt><trkpt lat="45.7821536" lon="11.6988874"><ele>254.2</ele><time>2026-05-01T07:18:22.763Z</time></trkpt><trkpt lat="45.78224" lon="11.6988083"><ele>254.39999999999998</ele><time>2026-05-01T07:18:23.758Z</time></trkpt><trkpt lat="45.7823379" lon="11.6987295"><ele>254.6</ele><time>2026-05-01T07:18:24.752Z</time></trkpt><trkpt lat="45.7824391" lon="11.6986656"><ele>254.8</ele><time>2026-05-01T07:18:25.766Z</time></trkpt><trkpt lat="45.7825384" lon="11.6986014"><ele>255.0</ele><time>2026-05-01T07:18:26.757Z</time></trkpt><trkpt lat="45.782622" lon="11.6985655"><ele>261.0</ele><time>2026-05-01T07:18:27.759Z</time></trkpt><trkpt lat="45.7826812" lon="11.6985315"><ele>267.0</ele><time>2026-05-01T07:18:28.752Z</time></trkpt><trkpt lat="45.7827766" lon="11.6984284"><ele>273.0</ele><time>2026-05-01T07:18:30.756Z</time></trkpt><trkpt lat="45.7828307" lon="11.6982904"><ele>279.0</ele><time>2026-05-01T07:18:32.763Z</time></trkpt><trkpt lat="45.7828742" lon="11.6981563"><ele>285.0</ele><time>2026-05-01T07:18:34.752Z</time></trkpt><trkpt lat="45.7829048" lon="11.6979951"><ele>285.0</ele><time>2026-05-01T07:18:36.751Z</time></trkpt><trkpt lat="45.7829024" lon="11.6978992"><ele>285.0</ele><time>2026-05-01T07:18:37.755Z</time></trkpt><trkpt lat="45.7828933" lon="11.6977881"><ele>285.0</ele><time>2026-05-01T07:18:38.755Z</time></trkpt><trkpt lat="45.7828866" lon="11.6976844"><ele>285.0</ele><time>2026-05-01T07:18:39.762Z</time></trkpt><trkpt lat="45.7828797" lon="11.6975827"><ele>285.0</ele><time>2026-05-01T07:18:40.758Z</time></trkpt><trkpt lat="45.7828787" lon="11.6974898"><ele>285.0</ele><time>2026-05-01T07:18:41.768Z</time></trkpt><trkpt lat="45.7828921" lon="11.6973316"><ele>284.0</ele><time>2026-05-01T07:18:43.759Z</time></trkpt><trkpt lat="45.7829216" lon="11.6971851"><ele>283.0</ele><time>2026-05-01T07:18:45.75Z</time></trkpt><trkpt lat="45.7829532" lon="11.6970359"><ele>282.0</ele><time>2026-05-01T07:18:47.757Z</time></trkpt><trkpt lat="45.7829825" lon="11.6968897"><ele>281.0</ele><time>2026-05-01T07:18:49.754Z</time></trkpt><trkpt lat="45.7830138" lon="11.6967344"><ele>280.0</ele><time>2026-05-01T07:18:51.751Z</time></trkpt><trkpt lat="45.7830493" lon="11.6965591"><ele>277.66666666666663</ele><time>2026-05-01T07:18:53.739Z</time></trkpt><trkpt lat="45.7830657" lon="11.6964701"><ele>275.3333333333333</ele><time>2026-05-01T07:18:54.75Z</time></trkpt><trkpt lat="45.7830835" lon="11.6963775"><ele>273.0</ele><time>2026-05-01T07:18:55.75Z</time></trkpt><trkpt lat="45.7830998" lon="11.6962894"><ele>270.6666666666667</ele><time>2026-05-01T07:18:56.747Z</time></trkpt><trkpt lat="45.7831167" lon="11.6961098"><ele>268.33333333333337</ele><time>2026-05-01T07:18:58.746Z</time></trkpt><trkpt lat="45.7831322" lon="11.6959418"><ele>266.0</ele><time>2026-05-01T07:19:00.759Z</time></trkpt><trkpt lat="45.7831533" lon="11.6957901"><ele>262.8</ele><time>2026-05-01T07:19:02.751Z</time></trkpt><trkpt lat="45.7831769" lon="11.6956318"><ele>259.6</ele><time>2026-05-01T07:19:04.738Z</time></trkpt><trkpt lat="45.7832091" lon="11.6954753"><ele>256.4</ele><time>2026-05-01T07:19:06.738Z</time></trkpt><trkpt lat="45.7832373" lon="11.6953529"><ele>253.2</ele><time>2026-05-01T07:19:08.741Z</time></trkpt><trkpt lat="45.7832656" lon="11.695271"><ele>250.0</ele><time>2026-05-01T07:19:10.746Z</time></trkpt><trkpt lat="45.7832917" lon="11.6951566"><ele>247.0</ele><time>2026-05-01T07:19:12.748Z</time></trkpt><trkpt lat="45.7833335" lon="11.6950428"><ele>244.0</ele><time>2026-05-01T07:19:14.756Z</time></trkpt><trkpt lat="45.7833835" lon="11.6949393"><ele>241.0</ele><time>2026-05-01T07:19:16.752Z</time></trkpt><trkpt lat="45.7834318" lon="11.6948177"><ele>238.0</ele><time>2026-05-01T07:19:18.747Z</time></trkpt><trkpt lat="45.7834855" lon="11.6946753"><ele>235.0</ele><time>2026-05-01T07:19:20.747Z</time></trkpt><trkpt lat="45.783517" lon="11.6945957"><ele>237.16666666666666</ele><time>2026-05-01T07:19:21.753Z</time></trkpt><trkpt lat="45.7835925" lon="11.6944415"><ele>239.33333333333331</ele><time>2026-05-01T07:19:23.746Z</time></trkpt><trkpt lat="45.7836465" lon="11.6943628"><ele>241.5</ele><time>2026-05-01T07:19:24.75Z</time></trkpt><trkpt lat="45.7837041" lon="11.6942987"><ele>243.66666666666669</ele><time>2026-05-01T07:19:25.743Z</time></trkpt><trkpt lat="45.7837686" lon="11.6942372"><ele>245.83333333333334</ele><time>2026-05-01T07:19:26.748Z</time></trkpt><trkpt lat="45.7838327" lon="11.6941705"><ele>248.0</ele><time>2026-05-01T07:19:27.75Z</time></trkpt><trkpt lat="45.7838957" lon="11.6941011"><ele>248.00000000000003</ele><time>2026-05-01T07:19:28.753Z</time></trkpt><trkpt lat="45.7839541" lon="11.6940394"><ele>248.0</ele><time>2026-05-01T07:19:29.761Z</time></trkpt><trkpt lat="45.7840059" lon="11.6939816"><ele>248.0</ele><time>2026-05-01T07:19:30.748Z</time></trkpt><trkpt lat="45.7840726" lon="11.6938916"><ele>248.0</ele><time>2026-05-01T07:19:32.747Z</time></trkpt><trkpt lat="45.7841563" lon="11.6937425"><ele>248.00000000000003</ele><time>2026-05-01T07:19:34.753Z</time></trkpt><trkpt lat="45.784203" lon="11.6936619"><ele>248.0</ele><time>2026-05-01T07:19:35.742Z</time></trkpt><trkpt lat="45.7842481" lon="11.69358"><ele>248.4</ele><time>2026-05-01T07:19:36.744Z</time></trkpt><trkpt lat="45.7842968" lon="11.6934813"><ele>248.8</ele><time>2026-05-01T07:19:37.742Z</time></trkpt><trkpt lat="45.7843418" lon="11.6933745"><ele>249.2</ele><time>2026-05-01T07:19:38.747Z</time></trkpt><trkpt lat="45.784383" lon="11.6932879"><ele>249.6</ele><time>2026-05-01T07:19:39.744Z</time></trkpt><trkpt lat="45.7844682" lon="11.6931909"><ele>250.0</ele><time>2026-05-01T07:19:41.754Z</time></trkpt><trkpt lat="45.7845639" lon="11.6931579"><ele>250.0</ele><time>2026-05-01T07:19:43.742Z</time></trkpt><trkpt lat="45.7846305" lon="11.6931761"><ele>250.0</ele><time>2026-05-01T07:19:44.753Z</time></trkpt><trkpt lat="45.7847015" lon="11.6931848"><ele>250.0</ele><time>2026-05-01T07:19:45.746Z</time></trkpt><trkpt lat="45.7848103" lon="11.6931379"><ele>250.0</ele><time>2026-05-01T07:19:47.742Z</time></trkpt><trkpt lat="45.7848834" lon="11.6930171"><ele>250.0</ele><time>2026-05-01T07:19:49.752Z</time></trkpt><trkpt lat="45.7850114" lon="11.6929237"><ele>249.99999999999997</ele><time>2026-05-01T07:19:51.741Z</time></trkpt><trkpt lat="45.7850862" lon="11.6928795"><ele>250.0</ele><time>2026-05-01T07:19:52.743Z</time></trkpt><trkpt lat="45.7851442" lon="11.6928285"><ele>250.0</ele><time>2026-05-01T07:19:53.745Z</time></trkpt><trkpt lat="45.7851855" lon="11.6927503"><ele>250.0</ele><time>2026-05-01T07:19:54.738Z</time></trkpt><trkpt lat="45.7852732" lon="11.6926433"><ele>249.99999999999997</ele><time>2026-05-01T07:19:56.75Z</time></trkpt><trkpt lat="45.7853352" lon="11.6926073"><ele>250.0</ele><time>2026-05-01T07:19:57.745Z</time></trkpt><trkpt lat="45.7854069" lon="11.692591"><ele>247.4</ele><time>2026-05-01T07:19:58.751Z</time></trkpt><trkpt lat="45.7854949" lon="11.6925574"><ele>244.8</ele><time>2026-05-01T07:19:59.744Z</time></trkpt><trkpt lat="45.7855839" lon="11.6925231"><ele>242.2</ele><time>2026-05-01T07:20:00.749Z</time></trkpt><trkpt lat="45.785669" lon="11.6924775"><ele>239.6</ele><time>2026-05-01T07:20:01.741Z</time></trkpt><trkpt lat="45.7857467" lon="11.6924318"><ele>237.0</ele><time>2026-05-01T07:20:02.745Z</time></trkpt><trkpt lat="45.7858565" lon="11.6923846"><ele>237.0</ele><time>2026-05-01T07:20:04.747Z</time></trkpt><trkpt lat="45.7859774" lon="11.6923929"><ele>237.0</ele><time>2026-05-01T07:20:06.74Z</time></trkpt><trkpt lat="45.7860555" lon="11.6924305"><ele>237.0</ele><time>2026-05-01T07:20:07.75Z</time></trkpt><trkpt lat="45.7861336" lon="11.6924677"><ele>237.0</ele><time>2026-05-01T07:20:08.744Z</time></trkpt><trkpt lat="45.7862132" lon="11.6925098"><ele>237.0</ele><time>2026-05-01T07:20:09.747Z</time></trkpt><trkpt lat="45.7862778" lon="11.6925384"><ele>237.0</ele><time>2026-05-01T07:20:10.735Z</time></trkpt><trkpt lat="45.7863916" lon="11.6925725"><ele>238.5</ele><time>2026-05-01T07:20:12.742Z</time></trkpt><trkpt lat="45.7864695" lon="11.6926081"><ele>240.0</ele><time>2026-05-01T07:20:13.746Z</time></trkpt><trkpt lat="45.7865758" lon="11.6926808"><ele>241.5</ele><time>2026-05-01T07:20:14.758Z</time></trkpt><trkpt lat="45.7867014" lon="11.6927301"><ele>243.0</ele><time>2026-05-01T07:20:15.747Z</time></trkpt><trkpt lat="45.7868205" lon="11.692771"><ele>246.0</ele><time>2026-05-01T07:20:16.745Z</time></trkpt><trkpt lat="45.7869531" lon="11.6927964"><ele>249.0</ele><time>2026-05-01T07:20:17.744Z</time></trkpt><trkpt lat="45.7870873" lon="11.6928031"><ele>252.0</ele><time>2026-05-01T07:20:18.75Z</time></trkpt><trkpt lat="45.7872128" lon="11.6928095"><ele>255.0</ele><time>2026-05-01T07:20:19.747Z</time></trkpt><trkpt lat="45.7873348" lon="11.6928126"><ele>255.0</ele><time>2026-05-01T07:20:20.745Z</time></trkpt><trkpt lat="45.7874627" lon="11.692818"><ele>255.0</ele><time>2026-05-01T07:20:21.744Z</time></trkpt><trkpt lat="45.7875872" lon="11.6928178"><ele>255.0</ele><time>2026-05-01T07:20:22.747Z</time></trkpt><trkpt lat="45.7877193" lon="11.6928197"><ele>255.0</ele><time>2026-05-01T07:20:23.745Z</time></trkpt><trkpt lat="45.7878548" lon="11.6928273"><ele>257.5</ele><time>2026-05-01T07:20:24.743Z</time></trkpt><trkpt lat="45.7879879" lon="11.6928317"><ele>260.0</ele><time>2026-05-01T07:20:25.75Z</time></trkpt><trkpt lat="45.7881071" lon="11.692839"><ele>262.5</ele><time>2026-05-01T07:20:26.754Z</time></trkpt><trkpt lat="45.7882148" lon="11.6928446"><ele>265.0</ele><time>2026-05-01T07:20:27.75Z</time></trkpt><trkpt lat="45.7883119" lon="11.6928492"><ele>265.0</ele><time>2026-05-01T07:20:28.746Z</time></trkpt><trkpt lat="45.7883895" lon="11.6928512"><ele>265.0</ele><time>2026-05-01T07:20:29.75Z</time></trkpt><trkpt lat="45.7884531" lon="11.6928543"><ele>265.0</ele><time>2026-05-01T07:20:30.747Z</time></trkpt><trkpt lat="45.788536" lon="11.6929171"><ele>265.0</ele><time>2026-05-01T07:20:32.749Z</time></trkpt><trkpt lat="45.7885267" lon="11.6930461"><ele>265.0</ele><time>2026-05-01T07:20:34.762Z</time></trkpt><trkpt lat="45.7886259" lon="11.6929479"><ele>265.0</ele><time>2026-05-01T07:20:39.76Z</time></trkpt><trkpt lat="45.7886761" lon="11.6928267"><ele>266.4</ele><time>2026-05-01T07:20:40.744Z</time></trkpt><trkpt lat="45.7887172" lon="11.6927052"><ele>267.8</ele><time>2026-05-01T07:20:41.764Z</time></trkpt><trkpt lat="45.7887547" lon="11.6925847"><ele>269.2</ele><time>2026-05-01T07:20:42.735Z</time></trkpt><trkpt lat="45.7887456" lon="11.6924444"><ele>270.6</ele><time>2026-05-01T07:20:43.743Z</time></trkpt><trkpt lat="45.7887042" lon="11.6923017"><ele>272.0</ele><time>2026-05-01T07:20:44.74Z</time></trkpt><trkpt lat="45.7886364" lon="11.692161"><ele>272.0</ele><time>2026-05-01T07:20:45.754Z</time></trkpt><trkpt lat="45.788556" lon="11.6920254"><ele>272.0</ele><time>2026-05-01T07:20:46.751Z</time></trkpt><trkpt lat="45.7884797" lon="11.6918883"><ele>272.0</ele><time>2026-05-01T07:20:47.748Z</time></trkpt><trkpt lat="45.7884094" lon="11.6917518"><ele>272.0</ele><time>2026-05-01T07:20:48.751Z</time></trkpt><trkpt lat="45.7883556" lon="11.6916273"><ele>272.2</ele><time>2026-05-01T07:20:49.755Z</time></trkpt><trkpt lat="45.7883223" lon="11.691512"><ele>272.4</ele><time>2026-05-01T07:20:50.74Z</time></trkpt><trkpt lat="45.7883125" lon="11.6913929"><ele>272.6</ele><time>2026-05-01T07:20:51.748Z</time></trkpt><trkpt lat="45.7883197" lon="11.6912598"><ele>272.8</ele><time>2026-05-01T07:20:52.745Z</time></trkpt><trkpt lat="45.7883489" lon="11.6911272"><ele>273.0</ele><time>2026-05-01T07:20:53.747Z</time></trkpt><trkpt lat="45.7883775" lon="11.690993"><ele>273.0</ele><time>2026-05-01T07:20:54.744Z</time></trkpt><trkpt lat="45.7883659" lon="11.6908549"><ele>273.0</ele><time>2026-05-01T07:20:55.753Z</time></trkpt><trkpt lat="45.7883087" lon="11.6907313"><ele>273.0</ele><time>2026-05-01T07:20:56.754Z</time></trkpt><trkpt lat="45.7882132" lon="11.6906313"><ele>273.0</ele><time>2026-05-01T07:20:57.751Z</time></trkpt><trkpt lat="45.7881037" lon="11.690548"><ele>273.0</ele><time>2026-05-01T07:20:58.749Z</time></trkpt><trkpt lat="45.7880002" lon="11.6904473"><ele>273.0</ele><time>2026-05-01T07:20:59.75Z</time></trkpt><trkpt lat="45.7879187" lon="11.6903186"><ele>273.0</ele><time>2026-05-01T07:21:00.747Z</time></trkpt><trkpt lat="45.7878392" lon="11.6901905"><ele>273.0</ele><time>2026-05-01T07:21:01.751Z</time></trkpt><trkpt lat="45.7877475" lon="11.690094"><ele>273.0</ele><time>2026-05-01T07:21:02.744Z</time></trkpt><trkpt lat="45.7876614" lon="11.6900087"><ele>274.25</ele><time>2026-05-01T07:21:03.75Z</time></trkpt><trkpt lat="45.7875483" lon="11.6900201"><ele>275.5</ele><time>2026-05-01T07:21:04.746Z</time></trkpt><trkpt lat="45.7874323" lon="11.6900205"><ele>276.75</ele><time>2026-05-01T07:21:05.749Z</time></trkpt><trkpt lat="45.787317" lon="11.6900039"><ele>278.0</ele><time>2026-05-01T07:21:06.757Z</time></trkpt><trkpt lat="45.7872056" lon="11.6899878"><ele>278.0</ele><time>2026-05-01T07:21:07.755Z</time></trkpt><trkpt lat="45.7871011" lon="11.6899688"><ele>278.0</ele><time>2026-05-01T07:21:08.758Z</time></trkpt><trkpt lat="45.7869968" lon="11.6899411"><ele>278.0</ele><time>2026-05-01T07:21:09.753Z</time></trkpt><trkpt lat="45.7868943" lon="11.6898871"><ele>278.0</ele><time>2026-05-01T07:21:10.746Z</time></trkpt><trkpt lat="45.7867965" lon="11.6898087"><ele>278.0</ele><time>2026-05-01T07:21:11.75Z</time></trkpt><trkpt lat="45.7867006" lon="11.6897189"><ele>276.5</ele><time>2026-05-01T07:21:12.752Z</time></trkpt><trkpt lat="45.7866021" lon="11.6896257"><ele>275.0</ele><time>2026-05-01T07:21:13.746Z</time></trkpt><trkpt lat="45.7865007" lon="11.6895291"><ele>273.5</ele><time>2026-05-01T07:21:14.754Z</time></trkpt><trkpt lat="45.7863975" lon="11.6894307"><ele>272.0</ele><time>2026-05-01T07:21:15.753Z</time></trkpt><trkpt lat="45.7862955" lon="11.6893347"><ele>274.25</ele><time>2026-05-01T07:21:16.752Z</time></trkpt><trkpt lat="45.7862009" lon="11.6892272"><ele>276.5</ele><time>2026-05-01T07:21:17.76Z</time></trkpt><trkpt lat="45.786116" lon="11.6890992"><ele>278.75</ele><time>2026-05-01T07:21:18.767Z</time></trkpt><trkpt lat="45.7860346" lon="11.6889609"><ele>281.0</ele><time>2026-05-01T07:21:19.764Z</time></trkpt><trkpt lat="45.7859536" lon="11.6888189"><ele>281.0</ele><time>2026-05-01T07:21:20.77Z</time></trkpt><trkpt lat="45.7858747" lon="11.6886754"><ele>281.0</ele><time>2026-05-01T07:21:21.753Z</time></trkpt><trkpt lat="45.785799" lon="11.6885322"><ele>281.0</ele><time>2026-05-01T07:21:22.756Z</time></trkpt><trkpt lat="45.7857289" lon="11.6883898"><ele>281.0</ele><time>2026-05-01T07:21:23.757Z</time></trkpt><trkpt lat="45.7856631" lon="11.6882467"><ele>283.6</ele><time>2026-05-01T07:21:24.751Z</time></trkpt><trkpt lat="45.7856037" lon="11.6881029"><ele>286.20000000000005</ele><time>2026-05-01T07:21:25.746Z</time></trkpt><trkpt lat="45.7855419" lon="11.6879675"><ele>288.79999999999995</ele><time>2026-05-01T07:21:26.746Z</time></trkpt><trkpt lat="45.7854792" lon="11.6878491"><ele>291.4</ele><time>2026-05-01T07:21:27.75Z</time></trkpt><trkpt lat="45.7854206" lon="11.6877501"><ele>294.0</ele><time>2026-05-01T07:21:28.749Z</time></trkpt><trkpt lat="45.7853668" lon="11.687667"><ele>295.3333333333333</ele><time>2026-05-01T07:21:29.755Z</time></trkpt><trkpt lat="45.7853194" lon="11.6875779"><ele>296.6666666666667</ele><time>2026-05-01T07:21:30.749Z</time></trkpt><trkpt lat="45.7852996" lon="11.6874746"><ele>298.0</ele><time>2026-05-01T07:21:31.75Z</time></trkpt><trkpt lat="45.785302" lon="11.6873562"><ele>299.33333333333337</ele><time>2026-05-01T07:21:32.74Z</time></trkpt><trkpt lat="45.7853318" lon="11.6872215"><ele>300.6666666666667</ele><time>2026-05-01T07:21:33.759Z</time></trkpt><trkpt lat="45.7853808" lon="11.687079"><ele>302.0</ele><time>2026-05-01T07:21:34.745Z</time></trkpt><trkpt lat="45.7854395" lon="11.6869282"><ele>301.25</ele><time>2026-05-01T07:21:35.75Z</time></trkpt><trkpt lat="45.785502" lon="11.6867698"><ele>300.5</ele><time>2026-05-01T07:21:36.758Z</time></trkpt><trkpt lat="45.7855651" lon="11.6866054"><ele>299.75</ele><time>2026-05-01T07:21:37.748Z</time></trkpt><trkpt lat="45.7856297" lon="11.6864388"><ele>299.0</ele><time>2026-05-01T07:21:38.747Z</time></trkpt><trkpt lat="45.785698" lon="11.6862755"><ele>299.0</ele><time>2026-05-01T07:21:39.753Z</time></trkpt><trkpt lat="45.7857729" lon="11.6861204"><ele>299.0</ele><time>2026-05-01T07:21:40.754Z</time></trkpt><trkpt lat="45.7858496" lon="11.6859721"><ele>299.0</ele><time>2026-05-01T07:21:41.757Z</time></trkpt><trkpt lat="45.7859249" lon="11.6858267"><ele>299.0</ele><time>2026-05-01T07:21:42.758Z</time></trkpt><trkpt lat="45.7859973" lon="11.6856882"><ele>301.5</ele><time>2026-05-01T07:21:43.754Z</time></trkpt><trkpt lat="45.7860679" lon="11.6855544"><ele>304.0</ele><time>2026-05-01T07:21:44.752Z</time></trkpt><trkpt lat="45.7861367" lon="11.685424"><ele>306.5</ele><time>2026-05-01T07:21:45.751Z</time></trkpt><trkpt lat="45.7862054" lon="11.6852962"><ele>309.0</ele><time>2026-05-01T07:21:46.75Z</time></trkpt><trkpt lat="45.7862758" lon="11.6851731"><ele>304.8333333333333</ele><time>2026-05-01T07:21:47.745Z</time></trkpt><trkpt lat="45.7863453" lon="11.6850651"><ele>300.6666666666667</ele><time>2026-05-01T07:21:48.743Z</time></trkpt><trkpt lat="45.7864148" lon="11.6849777"><ele>296.5</ele><time>2026-05-01T07:21:49.747Z</time></trkpt><trkpt lat="45.7864894" lon="11.6849177"><ele>292.33333333333337</ele><time>2026-05-01T07:21:50.745Z</time></trkpt><trkpt lat="45.7865673" lon="11.6848884"><ele>288.1666666666667</ele><time>2026-05-01T07:21:51.769Z</time></trkpt><trkpt lat="45.7866318" lon="11.6848828"><ele>284.0</ele><time>2026-05-01T07:21:52.741Z</time></trkpt><trkpt lat="45.7867494" lon="11.6848138"><ele>284.0</ele><time>2026-05-01T07:21:54.749Z</time></trkpt><trkpt lat="45.7867929" lon="11.6847213"><ele>284.0</ele><time>2026-05-01T07:21:55.743Z</time></trkpt><trkpt lat="45.7868137" lon="11.6845995"><ele>284.0</ele><time>2026-05-01T07:21:56.741Z</time></trkpt><trkpt lat="45.7868256" lon="11.684458"><ele>284.0</ele><time>2026-05-01T07:21:57.753Z</time></trkpt><trkpt lat="45.7868512" lon="11.6843026"><ele>284.0</ele><time>2026-05-01T07:21:58.746Z</time></trkpt><trkpt lat="45.7868898" lon="11.6841372"><ele>284.4</ele><time>2026-05-01T07:21:59.749Z</time></trkpt><trkpt lat="45.7869324" lon="11.68397"><ele>284.79999999999995</ele><time>2026-05-01T07:22:00.749Z</time></trkpt><trkpt lat="45.7869696" lon="11.6838174"><ele>285.20000000000005</ele><time>2026-05-01T07:22:01.749Z</time></trkpt><trkpt lat="45.7870048" lon="11.6836769"><ele>285.6</ele><time>2026-05-01T07:22:02.743Z</time></trkpt><trkpt lat="45.7870067" lon="11.6835462"><ele>286.0</ele><time>2026-05-01T07:22:03.755Z</time></trkpt><trkpt lat="45.7869802" lon="11.6834136"><ele>286.0</ele><time>2026-05-01T07:22:04.754Z</time></trkpt><trkpt lat="45.7869227" lon="11.6832887"><ele>286.0</ele><time>2026-05-01T07:22:05.744Z</time></trkpt><trkpt lat="45.7868377" lon="11.6831732"><ele>286.0</ele><time>2026-05-01T07:22:06.745Z</time></trkpt><trkpt lat="45.786743" lon="11.683052"><ele>286.0</ele><time>2026-05-01T07:22:07.744Z</time></trkpt><trkpt lat="45.7866508" lon="11.6829094"><ele>283.25</ele><time>2026-05-01T07:22:08.753Z</time></trkpt><trkpt lat="45.7865601" lon="11.6827526"><ele>280.5</ele><time>2026-05-01T07:22:09.752Z</time></trkpt><trkpt lat="45.7864689" lon="11.6825928"><ele>277.75</ele><time>2026-05-01T07:22:10.748Z</time></trkpt><trkpt lat="45.7863885" lon="11.6824278"><ele>275.0</ele><time>2026-05-01T07:22:11.748Z</time></trkpt><trkpt lat="45.7863242" lon="11.6822459"><ele>275.0</ele><time>2026-05-01T07:22:12.746Z</time></trkpt><trkpt lat="45.7862711" lon="11.6820569"><ele>275.0</ele><time>2026-05-01T07:22:13.757Z</time></trkpt><trkpt lat="45.7862192" lon="11.6818665"><ele>275.0</ele><time>2026-05-01T07:22:14.759Z</time></trkpt><trkpt lat="45.7861696" lon="11.6816881"><ele>275.0</ele><time>2026-05-01T07:22:15.746Z</time></trkpt><trkpt lat="45.7861268" lon="11.6815225"><ele>276.0</ele><time>2026-05-01T07:22:16.759Z</time></trkpt><trkpt lat="45.7860918" lon="11.6813626"><ele>277.0</ele><time>2026-05-01T07:22:17.75Z</time></trkpt><trkpt lat="45.7860628" lon="11.6812054"><ele>278.0</ele><time>2026-05-01T07:22:18.748Z</time></trkpt><trkpt lat="45.7860354" lon="11.6810557"><ele>279.0</ele><time>2026-05-01T07:22:19.751Z</time></trkpt><trkpt lat="45.7860036" lon="11.6809226"><ele>280.0</ele><time>2026-05-01T07:22:20.746Z</time></trkpt><trkpt lat="45.7859552" lon="11.6808145"><ele>280.0</ele><time>2026-05-01T07:22:21.75Z</time></trkpt><trkpt lat="45.7858858" lon="11.6807352"><ele>280.0</ele><time>2026-05-01T07:22:22.747Z</time></trkpt><trkpt lat="45.7858166" lon="11.6806619"><ele>280.0</ele><time>2026-05-01T07:22:23.75Z</time></trkpt><trkpt lat="45.7857279" lon="11.6806595"><ele>280.0</ele><time>2026-05-01T07:22:24.753Z</time></trkpt><trkpt lat="45.7856422" lon="11.6806809"><ele>280.0</ele><time>2026-05-01T07:22:25.748Z</time></trkpt><trkpt lat="45.7855642" lon="11.6807273"><ele>280.0</ele><time>2026-05-01T07:22:26.748Z</time></trkpt><trkpt lat="45.7855048" lon="11.6807898"><ele>280.0</ele><time>2026-05-01T07:22:27.749Z</time></trkpt><trkpt lat="45.78544" lon="11.6808826"><ele>280.0</ele><time>2026-05-01T07:22:29.748Z</time></trkpt><trkpt lat="45.7853923" lon="11.6808169"><ele>280.0</ele><time>2026-05-01T07:22:49.752Z</time></trkpt><trkpt lat="45.7854138" lon="11.6807317"><ele>280.0</ele><time>2026-05-01T07:22:51.748Z</time></trkpt><trkpt lat="45.7854378" lon="11.6805983"><ele>280.0</ele><time>2026-05-01T07:22:53.748Z</time></trkpt><trkpt lat="45.7854539" lon="11.6804322"><ele>280.0</ele><time>2026-05-01T07:22:55.743Z</time></trkpt><trkpt lat="45.785458" lon="11.6803416"><ele>281.57142857142856</ele><time>2026-05-01T07:22:56.746Z</time></trkpt><trkpt lat="45.7854589" lon="11.6802459"><ele>283.1428571428571</ele><time>2026-05-01T07:22:57.752Z</time></trkpt><trkpt lat="45.785459" lon="11.6801493"><ele>284.7142857142857</ele><time>2026-05-01T07:22:58.748Z</time></trkpt><trkpt lat="45.7854597" lon="11.6800481"><ele>286.2857142857143</ele><time>2026-05-01T07:22:59.744Z</time></trkpt><trkpt lat="45.7854682" lon="11.6799449"><ele>287.85714285714283</ele><time>2026-05-01T07:23:00.742Z</time></trkpt><trkpt lat="45.7854801" lon="11.6798396"><ele>289.42857142857144</ele><time>2026-05-01T07:23:01.748Z</time></trkpt><trkpt lat="45.7854959" lon="11.6797347"><ele>291.0</ele><time>2026-05-01T07:23:02.753Z</time></trkpt><trkpt lat="45.7855151" lon="11.6796317"><ele>291.0</ele><time>2026-05-01T07:23:03.755Z</time></trkpt><trkpt lat="45.7855335" lon="11.6795297"><ele>291.0</ele><time>2026-05-01T07:23:04.743Z</time></trkpt><trkpt lat="45.7855515" lon="11.6794319"><ele>291.0</ele><time>2026-05-01T07:23:05.748Z</time></trkpt><trkpt lat="45.7855664" lon="11.679337"><ele>291.0</ele><time>2026-05-01T07:23:06.746Z</time></trkpt><trkpt lat="45.7855813" lon="11.6792398"><ele>291.0</ele><time>2026-05-01T07:23:07.749Z</time></trkpt><trkpt lat="45.7855976" lon="11.6791319"><ele>291.0</ele><time>2026-05-01T07:23:08.748Z</time></trkpt><trkpt lat="45.7856154" lon="11.679023"><ele>291.0</ele><time>2026-05-01T07:23:09.747Z</time></trkpt><trkpt lat="45.7856338" lon="11.6789019"><ele>292.8333333333333</ele><time>2026-05-01T07:23:10.75Z</time></trkpt><trkpt lat="45.7856519" lon="11.678781"><ele>294.6666666666667</ele><time>2026-05-01T07:23:11.746Z</time></trkpt><trkpt lat="45.7856682" lon="11.6786601"><ele>296.5</ele><time>2026-05-01T07:23:12.752Z</time></trkpt><trkpt lat="45.7856826" lon="11.6785387"><ele>298.33333333333337</ele><time>2026-05-01T07:23:13.75Z</time></trkpt><trkpt lat="45.7857015" lon="11.6784194"><ele>300.1666666666667</ele><time>2026-05-01T07:23:14.757Z</time></trkpt><trkpt lat="45.785724" lon="11.6783003"><ele>302.0</ele><time>2026-05-01T07:23:15.753Z</time></trkpt><trkpt lat="45.7857439" lon="11.6781837"><ele>304.0</ele><time>2026-05-01T07:23:16.746Z</time></trkpt><trkpt lat="45.7857641" lon="11.6780684"><ele>306.0</ele><time>2026-05-01T07:23:17.747Z</time></trkpt><trkpt lat="45.7857828" lon="11.6779613"><ele>308.0</ele><time>2026-05-01T07:23:18.741Z</time></trkpt><trkpt lat="45.7858351" lon="11.6778886"><ele>310.0</ele><time>2026-05-01T07:23:19.748Z</time></trkpt><trkpt lat="45.7859084" lon="11.6778537"><ele>312.0</ele><time>2026-05-01T07:23:20.748Z</time></trkpt><trkpt lat="45.7859832" lon="11.6778297"><ele>314.0</ele><time>2026-05-01T07:23:21.746Z</time></trkpt><trkpt lat="45.7860539" lon="11.677794"><ele>316.33333333333337</ele><time>2026-05-01T07:23:22.745Z</time></trkpt><trkpt lat="45.7861193" lon="11.6777453"><ele>318.6666666666667</ele><time>2026-05-01T07:23:23.749Z</time></trkpt><trkpt lat="45.7861727" lon="11.6776958"><ele>321.0</ele><time>2026-05-01T07:23:24.754Z</time></trkpt><trkpt lat="45.786209" lon="11.6776141"><ele>323.3333333333333</ele><time>2026-05-01T07:23:26.746Z</time></trkpt><trkpt lat="45.7861548" lon="11.6775176"><ele>325.66666666666663</ele><time>2026-05-01T07:23:29.746Z</time></trkpt><trkpt lat="45.786059" lon="11.6774386"><ele>328.0</ele><time>2026-05-01T07:23:31.753Z</time></trkpt><trkpt lat="45.7859704" lon="11.6773136"><ele>328.5</ele><time>2026-05-01T07:23:33.748Z</time></trkpt><trkpt lat="45.7859254" lon="11.6772438"><ele>329.0</ele><time>2026-05-01T07:23:34.76Z</time></trkpt><trkpt lat="45.78588" lon="11.6771711"><ele>329.5</ele><time>2026-05-01T07:23:35.748Z</time></trkpt><trkpt lat="45.7858375" lon="11.6771033"><ele>330.0</ele><time>2026-05-01T07:23:36.747Z</time></trkpt><trkpt lat="45.7857833" lon="11.6770136"><ele>330.5</ele><time>2026-05-01T07:23:38.75Z</time></trkpt><trkpt lat="45.7858244" lon="11.6769311"><ele>331.0</ele><time>2026-05-01T07:23:41.749Z</time></trkpt><trkpt lat="45.7859247" lon="11.6770052"><ele>330.4</ele><time>2026-05-01T07:23:44.749Z</time></trkpt><trkpt lat="45.7860358" lon="11.6770224"><ele>329.8</ele><time>2026-05-01T07:23:46.75Z</time></trkpt><trkpt lat="45.7860998" lon="11.6770014"><ele>329.2</ele><time>2026-05-01T07:23:47.755Z</time></trkpt><trkpt lat="45.7861943" lon="11.6769629"><ele>328.59999999999997</ele><time>2026-05-01T07:23:49.749Z</time></trkpt><trkpt lat="45.7862992" lon="11.6769155"><ele>328.0</ele><time>2026-05-01T07:23:51.744Z</time></trkpt><trkpt lat="45.7863677" lon="11.6768797"><ele>331.66666666666663</ele><time>2026-05-01T07:23:52.76Z</time></trkpt><trkpt lat="45.786434" lon="11.6768359"><ele>335.3333333333333</ele><time>2026-05-01T07:23:53.751Z</time></trkpt><trkpt lat="45.786491" lon="11.6767885"><ele>339.0</ele><time>2026-05-01T07:23:54.758Z</time></trkpt><trkpt lat="45.7865554" lon="11.6767063"><ele>342.6666666666667</ele><time>2026-05-01T07:23:56.746Z</time></trkpt><trkpt lat="45.7865332" lon="11.6766147"><ele>346.33333333333337</ele><time>2026-05-01T07:23:58.746Z</time></trkpt><trkpt lat="45.7864107" lon="11.676652"><ele>350.0</ele><time>2026-05-01T07:24:00.744Z</time></trkpt><trkpt lat="45.7863433" lon="11.6766867"><ele>350.0</ele><time>2026-05-01T07:24:01.748Z</time></trkpt><trkpt lat="45.7862768" lon="11.6766986"><ele>350.0</ele><time>2026-05-01T07:24:02.75Z</time></trkpt><trkpt lat="45.7862085" lon="11.6766625"><ele>350.0</ele><time>2026-05-01T07:24:03.767Z</time></trkpt><trkpt lat="45.7861431" lon="11.676598"><ele>350.0</ele><time>2026-05-01T07:24:04.745Z</time></trkpt><trkpt lat="45.7860939" lon="11.6765057"><ele>350.0</ele><time>2026-05-01T07:24:05.746Z</time></trkpt><trkpt lat="45.7860455" lon="11.6764262"><ele>350.0</ele><time>2026-05-01T07:24:06.743Z</time></trkpt><trkpt lat="45.786013" lon="11.6763025"><ele>350.0</ele><time>2026-05-01T07:24:08.761Z</time></trkpt><trkpt lat="45.7860918" lon="11.6762569"><ele>350.0</ele><time>2026-05-01T07:24:11.746Z</time></trkpt><trkpt lat="45.7861761" lon="11.6763522"><ele>350.0</ele><time>2026-05-01T07:24:13.747Z</time></trkpt><trkpt lat="45.7862807" lon="11.676373"><ele>350.0</ele><time>2026-05-01T07:24:15.754Z</time></trkpt><trkpt lat="45.786344" lon="11.6763549"><ele>350.0</ele><time>2026-05-01T07:24:16.752Z</time></trkpt><trkpt lat="45.7864037" lon="11.6762972"><ele>350.0</ele><time>2026-05-01T07:24:17.728Z</time></trkpt><trkpt lat="45.7864501" lon="11.6762223"><ele>350.0</ele><time>2026-05-01T07:24:18.732Z</time></trkpt><trkpt lat="45.7864805" lon="11.6761421"><ele>350.0</ele><time>2026-05-01T07:24:19.729Z</time></trkpt><trkpt lat="45.7865139" lon="11.6760644"><ele>350.0</ele><time>2026-05-01T07:24:20.745Z</time></trkpt><trkpt lat="45.7865494" lon="11.675988"><ele>350.0</ele><time>2026-05-01T07:24:21.751Z</time></trkpt><trkpt lat="45.7866305" lon="11.6758553"><ele>350.0</ele><time>2026-05-01T07:24:23.748Z</time></trkpt><trkpt lat="45.7867024" lon="11.6757397"><ele>350.0</ele><time>2026-05-01T07:24:25.742Z</time></trkpt><trkpt lat="45.7867418" lon="11.675668"><ele>356.2</ele><time>2026-05-01T07:24:27.754Z</time></trkpt><trkpt lat="45.786646" lon="11.6756424"><ele>362.4</ele><time>2026-05-01T07:24:30.748Z</time></trkpt><trkpt lat="45.7865396" lon="11.6757048"><ele>368.6</ele><time>2026-05-01T07:24:32.756Z</time></trkpt><trkpt lat="45.7864781" lon="11.6757252"><ele>374.8</ele><time>2026-05-01T07:24:33.756Z</time></trkpt><trkpt lat="45.7863834" lon="11.6757169"><ele>381.0</ele><time>2026-05-01T07:24:35.743Z</time></trkpt><trkpt lat="45.7862941" lon="11.6756941"><ele>381.0</ele><time>2026-05-01T07:24:37.742Z</time></trkpt><trkpt lat="45.786182" lon="11.6756418"><ele>381.0</ele><time>2026-05-01T07:24:39.748Z</time></trkpt><trkpt lat="45.7861184" lon="11.6756076"><ele>381.0</ele><time>2026-05-01T07:24:40.744Z</time></trkpt><trkpt lat="45.7860576" lon="11.6755705"><ele>381.0</ele><time>2026-05-01T07:24:41.749Z</time></trkpt><trkpt lat="45.785996" lon="11.6755329"><ele>381.0</ele><time>2026-05-01T07:24:42.75Z</time></trkpt><trkpt lat="45.7859188" lon="11.6754875"><ele>381.0</ele><time>2026-05-01T07:24:44.751Z</time></trkpt><trkpt lat="45.7860162" lon="11.6754557"><ele>381.0</ele><time>2026-05-01T07:24:50.751Z</time></trkpt><trkpt lat="45.7860872" lon="11.675454"><ele>381.0</ele><time>2026-05-01T07:24:51.725Z</time></trkpt><trkpt lat="45.7861557" lon="11.6754514"><ele>381.0</ele><time>2026-05-01T07:24:52.743Z</time></trkpt><trkpt lat="45.7862173" lon="11.6754018"><ele>381.0</ele><time>2026-05-01T07:24:53.751Z</time></trkpt><trkpt lat="45.7862814" lon="11.675349"><ele>381.0</ele><time>2026-05-01T07:24:54.743Z</time></trkpt><trkpt lat="45.7863433" lon="11.6752968"><ele>381.0</ele><time>2026-05-01T07:24:55.746Z</time></trkpt><trkpt lat="45.7864023" lon="11.6752574"><ele>381.0</ele><time>2026-05-01T07:24:56.744Z</time></trkpt><trkpt lat="45.7864911" lon="11.6751799"><ele>387.0</ele><time>2026-05-01T07:24:58.749Z</time></trkpt><trkpt lat="45.7864395" lon="11.6750813"><ele>393.0</ele><time>2026-05-01T07:25:01.743Z</time></trkpt><trkpt lat="45.7863152" lon="11.6751375"><ele>399.0</ele><time>2026-05-01T07:25:03.752Z</time></trkpt><trkpt lat="45.7862389" lon="11.6751457"><ele>405.0</ele><time>2026-05-01T07:25:04.752Z</time></trkpt><trkpt lat="45.7861638" lon="11.6751282"><ele>411.0</ele><time>2026-05-01T07:25:05.766Z</time></trkpt><trkpt lat="45.7860896" lon="11.6750749"><ele>411.0</ele><time>2026-05-01T07:25:06.753Z</time></trkpt><trkpt lat="45.7860174" lon="11.6749925"><ele>411.0</ele><time>2026-05-01T07:25:07.744Z</time></trkpt><trkpt lat="45.7859444" lon="11.6749183"><ele>411.0</ele><time>2026-05-01T07:25:08.744Z</time></trkpt><trkpt lat="45.7858719" lon="11.674873"><ele>411.0</ele><time>2026-05-01T07:25:09.748Z</time></trkpt><trkpt lat="45.7858004" lon="11.6748679"><ele>411.0</ele><time>2026-05-01T07:25:10.752Z</time></trkpt><trkpt lat="45.7857297" lon="11.6748687"><ele>411.0</ele><time>2026-05-01T07:25:11.747Z</time></trkpt><trkpt lat="45.7856302" lon="11.6748469"><ele>411.3333333333333</ele><time>2026-05-01T07:25:13.746Z</time></trkpt><trkpt lat="45.7855637" lon="11.6747653"><ele>411.66666666666663</ele><time>2026-05-01T07:25:15.746Z</time></trkpt><trkpt lat="45.7855881" lon="11.6746787"><ele>412.0</ele><time>2026-05-01T07:25:19.769Z</time></trkpt><trkpt lat="45.785669" lon="11.6746413"><ele>412.3333333333333</ele><time>2026-05-01T07:25:21.74Z</time></trkpt><trkpt lat="45.7857225" lon="11.6745887"><ele>412.66666666666663</ele><time>2026-05-01T07:25:22.745Z</time></trkpt><trkpt lat="45.7857798" lon="11.6745145"><ele>413.0</ele><time>2026-05-01T07:25:23.75Z</time></trkpt><trkpt lat="45.7858366" lon="11.6744187"><ele>418.4</ele><time>2026-05-01T07:25:24.752Z</time></trkpt><trkpt lat="45.7859001" lon="11.6743173"><ele>423.79999999999995</ele><time>2026-05-01T07:25:25.747Z</time></trkpt><trkpt lat="45.7859701" lon="11.6742158"><ele>429.2</ele><time>2026-05-01T07:25:26.77Z</time></trkpt><trkpt lat="45.7860376" lon="11.6741174"><ele>434.6</ele><time>2026-05-01T07:25:27.75Z</time></trkpt><trkpt lat="45.7861027" lon="11.6740287"><ele>440.0</ele><time>2026-05-01T07:25:28.748Z</time></trkpt><trkpt lat="45.7861591" lon="11.6739573"><ele>439.99999999999994</ele><time>2026-05-01T07:25:29.756Z</time></trkpt><trkpt lat="45.7862159" lon="11.6739097"><ele>440.0</ele><time>2026-05-01T07:25:30.745Z</time></trkpt><trkpt lat="45.7862977" lon="11.6738657"><ele>440.0</ele><time>2026-05-01T07:25:31.752Z</time></trkpt><trkpt lat="45.7863997" lon="11.6738331"><ele>440.0</ele><time>2026-05-01T07:25:32.752Z</time></trkpt><trkpt lat="45.7864978" lon="11.6738139"><ele>439.99999999999994</ele><time>2026-05-01T07:25:33.749Z</time></trkpt><trkpt lat="45.7865824" lon="11.6738001"><ele>440.0</ele><time>2026-05-01T07:25:34.749Z</time></trkpt><trkpt lat="45.786675" lon="11.6737993"><ele>439.99999999999994</ele><time>2026-05-01T07:25:36.75Z</time></trkpt><trkpt lat="45.7866431" lon="11.6737089"><ele>440.0</ele><time>2026-05-01T07:25:38.743Z</time></trkpt><trkpt lat="45.7865793" lon="11.6736667"><ele>440.0</ele><time>2026-05-01T07:25:39.745Z</time></trkpt><trkpt lat="45.7865027" lon="11.6736158"><ele>440.0</ele><time>2026-05-01T07:25:40.743Z</time></trkpt><trkpt lat="45.786399" lon="11.6735731"><ele>439.99999999999994</ele><time>2026-05-01T07:25:41.759Z</time></trkpt><trkpt lat="45.7862909" lon="11.673544"><ele>440.0</ele><time>2026-05-01T07:25:42.763Z</time></trkpt><trkpt lat="45.7861718" lon="11.673524"><ele>445.6</ele><time>2026-05-01T07:25:43.741Z</time></trkpt><trkpt lat="45.7860502" lon="11.6735138"><ele>451.2</ele><time>2026-05-01T07:25:44.744Z</time></trkpt><trkpt lat="45.7859338" lon="11.673518"><ele>456.79999999999995</ele><time>2026-05-01T07:25:45.753Z</time></trkpt><trkpt lat="45.7858285" lon="11.6735213"><ele>462.4</ele><time>2026-05-01T07:25:46.746Z</time></trkpt><trkpt lat="45.7857508" lon="11.6735346"><ele>468.0</ele><time>2026-05-01T07:25:47.743Z</time></trkpt><trkpt lat="45.7856852" lon="11.6735546"><ele>468.0</ele><time>2026-05-01T07:25:48.739Z</time></trkpt><trkpt lat="45.7855619" lon="11.6735524"><ele>467.99999999999994</ele><time>2026-05-01T07:25:50.754Z</time></trkpt><trkpt lat="45.785465" lon="11.6735294"><ele>467.99999999999994</ele><time>2026-05-01T07:25:52.748Z</time></trkpt><trkpt lat="45.7853921" lon="11.6734097"><ele>468.0</ele><time>2026-05-01T07:25:54.742Z</time></trkpt><trkpt lat="45.7853505" lon="11.6733026"><ele>468.0</ele><time>2026-05-01T07:25:55.749Z</time></trkpt><trkpt lat="45.7853097" lon="11.6731878"><ele>468.0</ele><time>2026-05-01T07:25:56.754Z</time></trkpt><trkpt lat="45.7852717" lon="11.6730859"><ele>468.0</ele><time>2026-05-01T07:25:57.749Z</time></trkpt><trkpt lat="45.7852364" lon="11.6729799"><ele>468.0</ele><time>2026-05-01T07:25:58.746Z</time></trkpt><trkpt lat="45.7852151" lon="11.6728572"><ele>468.0</ele><time>2026-05-01T07:25:59.746Z</time></trkpt><trkpt lat="45.7852058" lon="11.672739"><ele>468.0</ele><time>2026-05-01T07:26:00.754Z</time></trkpt><trkpt lat="45.7852021" lon="11.6726208"><ele>468.0</ele><time>2026-05-01T07:26:01.743Z</time></trkpt><trkpt lat="45.7851986" lon="11.6724812"><ele>471.79999999999995</ele><time>2026-05-01T07:26:02.742Z</time></trkpt><trkpt lat="45.7852013" lon="11.6723424"><ele>475.59999999999997</ele><time>2026-05-01T07:26:03.744Z</time></trkpt><trkpt lat="45.785204" lon="11.6722012"><ele>479.40000000000003</ele><time>2026-05-01T07:26:04.742Z</time></trkpt><trkpt lat="45.7852134" lon="11.6720623"><ele>483.20000000000005</ele><time>2026-05-01T07:26:05.752Z</time></trkpt><trkpt lat="45.7852256" lon="11.6719201"><ele>487.0</ele><time>2026-05-01T07:26:06.738Z</time></trkpt><trkpt lat="45.7852445" lon="11.6717843"><ele>487.20000000000005</ele><time>2026-05-01T07:26:07.743Z</time></trkpt><trkpt lat="45.7852667" lon="11.6716663"><ele>487.40000000000003</ele><time>2026-05-01T07:26:08.75Z</time></trkpt><trkpt lat="45.7852996" lon="11.6715492"><ele>487.59999999999997</ele><time>2026-05-01T07:26:09.755Z</time></trkpt><trkpt lat="45.7853398" lon="11.671473"><ele>487.79999999999995</ele><time>2026-05-01T07:26:10.747Z</time></trkpt><trkpt lat="45.7854134" lon="11.6713258"><ele>488.0</ele><time>2026-05-01T07:26:12.747Z</time></trkpt><trkpt lat="45.7854815" lon="11.6711649"><ele>485.79999999999995</ele><time>2026-05-01T07:26:14.747Z</time></trkpt><trkpt lat="45.785517" lon="11.6710291"><ele>483.59999999999997</ele><time>2026-05-01T07:26:16.745Z</time></trkpt><trkpt lat="45.7854459" lon="11.6709208"><ele>481.40000000000003</ele><time>2026-05-01T07:26:18.74Z</time></trkpt><trkpt lat="45.7853673" lon="11.670942"><ele>479.20000000000005</ele><time>2026-05-01T07:26:19.728Z</time></trkpt><trkpt lat="45.7852881" lon="11.6709648"><ele>477.0</ele><time>2026-05-01T07:26:20.742Z</time></trkpt><trkpt lat="45.7852082" lon="11.6710178"><ele>477.8</ele><time>2026-05-01T07:26:21.741Z</time></trkpt><trkpt lat="45.7851164" lon="11.6710592"><ele>478.6</ele><time>2026-05-01T07:26:22.741Z</time></trkpt><trkpt lat="45.7850224" lon="11.6711151"><ele>479.40000000000003</ele><time>2026-05-01T07:26:23.741Z</time></trkpt><trkpt lat="45.7849292" lon="11.6711696"><ele>480.20000000000005</ele><time>2026-05-01T07:26:24.744Z</time></trkpt><trkpt lat="45.7848282" lon="11.6712399"><ele>481.0</ele><time>2026-05-01T07:26:25.761Z</time></trkpt><trkpt lat="45.7847308" lon="11.671308"><ele>478.8</ele><time>2026-05-01T07:26:26.745Z</time></trkpt><trkpt lat="45.7846353" lon="11.6713734"><ele>476.6</ele><time>2026-05-01T07:26:27.755Z</time></trkpt><trkpt lat="45.7845501" lon="11.6714405"><ele>474.4</ele><time>2026-05-01T07:26:28.754Z</time></trkpt><trkpt lat="45.7844626" lon="11.6714986"><ele>472.2</ele><time>2026-05-01T07:26:29.748Z</time></trkpt><trkpt lat="45.7843855" lon="11.6715325"><ele>470.0</ele><time>2026-05-01T07:26:30.739Z</time></trkpt><trkpt lat="45.7842977" lon="11.67154"><ele>469.99999999999994</ele><time>2026-05-01T07:26:31.748Z</time></trkpt><trkpt lat="45.7842029" lon="11.6715185"><ele>470.0</ele><time>2026-05-01T07:26:32.745Z</time></trkpt><trkpt lat="45.7841086" lon="11.6714722"><ele>470.0</ele><time>2026-05-01T07:26:33.746Z</time></trkpt><trkpt lat="45.7840281" lon="11.6714064"><ele>470.0</ele><time>2026-05-01T07:26:34.746Z</time></trkpt><trkpt lat="45.7839593" lon="11.67136"><ele>469.99999999999994</ele><time>2026-05-01T07:26:35.747Z</time></trkpt><trkpt lat="45.7838916" lon="11.6713582"><ele>470.0</ele><time>2026-05-01T07:26:36.749Z</time></trkpt><trkpt lat="45.7837896" lon="11.6713416"><ele>469.99999999999994</ele><time>2026-05-01T07:26:38.746Z</time></trkpt><trkpt lat="45.7837237" lon="11.6712608"><ele>470.0</ele><time>2026-05-01T07:26:40.771Z</time></trkpt><trkpt lat="45.7837378" lon="11.6711664"><ele>470.0</ele><time>2026-05-01T07:26:41.755Z</time></trkpt><trkpt lat="45.7837715" lon="11.6710652"><ele>470.0</ele><time>2026-05-01T07:26:42.756Z</time></trkpt><trkpt lat="45.7837881" lon="11.6709594"><ele>469.99999999999994</ele><time>2026-05-01T07:26:43.754Z</time></trkpt><trkpt lat="45.7837559" lon="11.6708092"><ele>470.0</ele><time>2026-05-01T07:26:45.761Z</time></trkpt><trkpt lat="45.7836961" lon="11.6707525"><ele>472.16666666666663</ele><time>2026-05-01T07:26:46.77Z</time></trkpt><trkpt lat="45.7836139" lon="11.6707089"><ele>474.3333333333333</ele><time>2026-05-01T07:26:47.759Z</time></trkpt><trkpt lat="45.783535" lon="11.6706631"><ele>476.5</ele><time>2026-05-01T07:26:48.75Z</time></trkpt><trkpt lat="45.7834857" lon="11.6706007"><ele>478.66666666666663</ele><time>2026-05-01T07:26:49.749Z</time></trkpt><trkpt lat="45.7834798" lon="11.6704335"><ele>480.8333333333333</ele><time>2026-05-01T07:26:51.758Z</time></trkpt><trkpt lat="45.783521" lon="11.6703326"><ele>483.0</ele><time>2026-05-01T07:26:52.752Z</time></trkpt><trkpt lat="45.7835778" lon="11.6702263"><ele>484.59999999999997</ele><time>2026-05-01T07:26:53.75Z</time></trkpt><trkpt lat="45.7836298" lon="11.6701068"><ele>486.19999999999993</ele><time>2026-05-01T07:26:54.743Z</time></trkpt><trkpt lat="45.7836676" lon="11.669978"><ele>487.8</ele><time>2026-05-01T07:26:55.766Z</time></trkpt><trkpt lat="45.7836932" lon="11.6698401"><ele>489.4</ele><time>2026-05-01T07:26:56.752Z</time></trkpt><trkpt lat="45.7837157" lon="11.6696963"><ele>491.0</ele><time>2026-05-01T07:26:57.747Z</time></trkpt><trkpt lat="45.783736" lon="11.6695485"><ele>488.6</ele><time>2026-05-01T07:26:58.747Z</time></trkpt><trkpt lat="45.7837556" lon="11.6694002"><ele>486.20000000000005</ele><time>2026-05-01T07:26:59.739Z</time></trkpt><trkpt lat="45.7837774" lon="11.6692543"><ele>483.79999999999995</ele><time>2026-05-01T07:27:00.754Z</time></trkpt><trkpt lat="45.7837988" lon="11.6691109"><ele>481.4</ele><time>2026-05-01T07:27:01.742Z</time></trkpt><trkpt lat="45.7838224" lon="11.6689747"><ele>479.0</ele><time>2026-05-01T07:27:02.749Z</time></trkpt><trkpt lat="45.7838422" lon="11.668847"><ele>478.99999999999994</ele><time>2026-05-01T07:27:03.755Z</time></trkpt><trkpt lat="45.7838573" lon="11.668727"><ele>479.0</ele><time>2026-05-01T07:27:04.746Z</time></trkpt><trkpt lat="45.7838739" lon="11.668615"><ele>479.0</ele><time>2026-05-01T07:27:05.745Z</time></trkpt><trkpt lat="45.7838996" lon="11.6685126"><ele>479.0</ele><time>2026-05-01T07:27:06.743Z</time></trkpt><trkpt lat="45.7839431" lon="11.6684253"><ele>478.99999999999994</ele><time>2026-05-01T07:27:07.751Z</time></trkpt><trkpt lat="45.7839886" lon="11.6683333"><ele>479.0</ele><time>2026-05-01T07:27:08.748Z</time></trkpt><trkpt lat="45.784047" lon="11.6682487"><ele>475.99999999999994</ele><time>2026-05-01T07:27:09.753Z</time></trkpt><trkpt lat="45.784107" lon="11.6681827"><ele>473.0</ele><time>2026-05-01T07:27:10.747Z</time></trkpt><trkpt lat="45.7841589" lon="11.6680978"><ele>470.0</ele><time>2026-05-01T07:27:11.75Z</time></trkpt><trkpt lat="45.7841945" lon="11.6679978"><ele>467.0</ele><time>2026-05-01T07:27:12.753Z</time></trkpt><trkpt lat="45.7842336" lon="11.667882"><ele>463.99999999999994</ele><time>2026-05-01T07:27:13.75Z</time></trkpt><trkpt lat="45.7842795" lon="11.6677695"><ele>461.0</ele><time>2026-05-01T07:27:14.756Z</time></trkpt><trkpt lat="45.784339" lon="11.6676717"><ele>464.3333333333333</ele><time>2026-05-01T07:27:15.746Z</time></trkpt><trkpt lat="45.7844012" lon="11.6675716"><ele>467.66666666666663</ele><time>2026-05-01T07:27:16.752Z</time></trkpt><trkpt lat="45.7844537" lon="11.6674993"><ele>471.0</ele><time>2026-05-01T07:27:17.748Z</time></trkpt><trkpt lat="45.7845216" lon="11.6673807"><ele>474.33333333333337</ele><time>2026-05-01T07:27:19.751Z</time></trkpt><trkpt lat="45.7845254" lon="11.6672875"><ele>477.6666666666667</ele><time>2026-05-01T07:27:21.74Z</time></trkpt><trkpt lat="45.784474" lon="11.6672238"><ele>481.0</ele><time>2026-05-01T07:27:23.76Z</time></trkpt><trkpt lat="45.7844107" lon="11.6672255"><ele>476.20000000000005</ele><time>2026-05-01T07:27:24.74Z</time></trkpt><trkpt lat="45.7843272" lon="11.667204"><ele>471.40000000000003</ele><time>2026-05-01T07:27:25.747Z</time></trkpt><trkpt lat="45.784236" lon="11.6671815"><ele>466.6</ele><time>2026-05-01T07:27:26.744Z</time></trkpt><trkpt lat="45.7841317" lon="11.6671584"><ele>461.8</ele><time>2026-05-01T07:27:27.741Z</time></trkpt><trkpt lat="45.7840238" lon="11.6671459"><ele>457.0</ele><time>2026-05-01T07:27:28.733Z</time></trkpt><trkpt lat="45.7839145" lon="11.667138"><ele>457.0</ele><time>2026-05-01T07:27:29.746Z</time></trkpt><trkpt lat="45.7838095" lon="11.6671281"><ele>457.00000000000006</ele><time>2026-05-01T07:27:30.738Z</time></trkpt><trkpt lat="45.7837092" lon="11.6671152"><ele>457.00000000000006</ele><time>2026-05-01T07:27:31.743Z</time></trkpt><trkpt lat="45.7836208" lon="11.6670984"><ele>457.0</ele><time>2026-05-01T07:27:32.743Z</time></trkpt><trkpt lat="45.7835436" lon="11.6670596"><ele>457.0</ele><time>2026-05-01T07:27:33.748Z</time></trkpt><trkpt lat="45.7834755" lon="11.666989"><ele>461.0</ele><time>2026-05-01T07:27:34.746Z</time></trkpt><trkpt lat="45.783409" lon="11.6668961"><ele>465.00000000000006</ele><time>2026-05-01T07:27:35.747Z</time></trkpt><trkpt lat="45.7833352" lon="11.6667977"><ele>469.00000000000006</ele><time>2026-05-01T07:27:36.75Z</time></trkpt><trkpt lat="45.7832495" lon="11.6667008"><ele>473.0</ele><time>2026-05-01T07:27:37.746Z</time></trkpt><trkpt lat="45.7831602" lon="11.6666062"><ele>477.0</ele><time>2026-05-01T07:27:38.748Z</time></trkpt><trkpt lat="45.7830668" lon="11.6665149"><ele>477.0</ele><time>2026-05-01T07:27:39.756Z</time></trkpt><trkpt lat="45.7829695" lon="11.6664284"><ele>477.0</ele><time>2026-05-01T07:27:40.744Z</time></trkpt><trkpt lat="45.7828726" lon="11.6663421"><ele>477.0</ele><time>2026-05-01T07:27:41.743Z</time></trkpt><trkpt lat="45.782779" lon="11.6662588"><ele>477.0</ele><time>2026-05-01T07:27:42.739Z</time></trkpt><trkpt lat="45.7826809" lon="11.6661765"><ele>481.5</ele><time>2026-05-01T07:27:43.737Z</time></trkpt><trkpt lat="45.7825874" lon="11.6660819"><ele>486.0</ele><time>2026-05-01T07:27:44.747Z</time></trkpt><trkpt lat="45.7824772" lon="11.6660242"><ele>490.5</ele><time>2026-05-01T07:27:45.751Z</time></trkpt><trkpt lat="45.7823673" lon="11.6659742"><ele>495.0</ele><time>2026-05-01T07:27:46.744Z</time></trkpt><trkpt lat="45.7822517" lon="11.6659214"><ele>495.0</ele><time>2026-05-01T07:27:47.751Z</time></trkpt><trkpt lat="45.7821416" lon="11.66587"><ele>495.0</ele><time>2026-05-01T07:27:48.761Z</time></trkpt><trkpt lat="45.7820269" lon="11.6657987"><ele>495.0</ele><time>2026-05-01T07:27:49.746Z</time></trkpt><trkpt lat="45.7819139" lon="11.6657318"><ele>495.0</ele><time>2026-05-01T07:27:50.753Z</time></trkpt><trkpt lat="45.7818012" lon="11.6656704"><ele>495.2</ele><time>2026-05-01T07:27:51.752Z</time></trkpt><trkpt lat="45.781708" lon="11.6656117"><ele>495.4</ele><time>2026-05-01T07:27:52.764Z</time></trkpt><trkpt lat="45.7816335" lon="11.6655356"><ele>495.6</ele><time>2026-05-01T07:27:53.756Z</time></trkpt><trkpt lat="45.7815733" lon="11.665433"><ele>495.8</ele><time>2026-05-01T07:27:54.749Z</time></trkpt><trkpt lat="45.7815233" lon="11.6653066"><ele>496.0</ele><time>2026-05-01T07:27:55.752Z</time></trkpt><trkpt lat="45.7814729" lon="11.6651689"><ele>496.0</ele><time>2026-05-01T07:27:56.747Z</time></trkpt><trkpt lat="45.7814205" lon="11.6650363"><ele>496.0</ele><time>2026-05-01T07:27:57.759Z</time></trkpt><trkpt lat="45.7813641" lon="11.6649053"><ele>496.0</ele><time>2026-05-01T07:27:58.745Z</time></trkpt><trkpt lat="45.7813109" lon="11.6647734"><ele>496.0</ele><time>2026-05-01T07:27:59.746Z</time></trkpt><trkpt lat="45.7812647" lon="11.6646407"><ele>496.0</ele><time>2026-05-01T07:28:00.742Z</time></trkpt><trkpt lat="45.7812272" lon="11.6645063"><ele>498.83333333333337</ele><time>2026-05-01T07:28:01.745Z</time></trkpt><trkpt lat="45.7811908" lon="11.664377"><ele>501.6666666666667</ele><time>2026-05-01T07:28:02.75Z</time></trkpt><trkpt lat="45.7811554" lon="11.6642501"><ele>504.5</ele><time>2026-05-01T07:28:03.746Z</time></trkpt><trkpt lat="45.7811267" lon="11.6641263"><ele>507.33333333333337</ele><time>2026-05-01T07:28:04.739Z</time></trkpt><trkpt lat="45.7811114" lon="11.6640109"><ele>510.1666666666667</ele><time>2026-05-01T07:28:05.751Z</time></trkpt><trkpt lat="45.7811099" lon="11.6638955"><ele>513.0</ele><time>2026-05-01T07:28:06.727Z</time></trkpt><trkpt lat="45.7811125" lon="11.663775"><ele>513.0</ele><time>2026-05-01T07:28:07.762Z</time></trkpt><trkpt lat="45.7811148" lon="11.6636577"><ele>513.0</ele><time>2026-05-01T07:28:08.748Z</time></trkpt><trkpt lat="45.7811158" lon="11.6635462"><ele>513.0</ele><time>2026-05-01T07:28:09.75Z</time></trkpt><trkpt lat="45.7811146" lon="11.6634467"><ele>513.0</ele><time>2026-05-01T07:28:10.75Z</time></trkpt><trkpt lat="45.781116" lon="11.6632891"><ele>513.0</ele><time>2026-05-01T07:28:12.744Z</time></trkpt><trkpt lat="45.7811373" lon="11.6631903"><ele>513.0</ele><time>2026-05-01T07:28:14.744Z</time></trkpt><trkpt lat="45.7811664" lon="11.6631091"><ele>513.8333333333334</ele><time>2026-05-01T07:28:16.743Z</time></trkpt><trkpt lat="45.7812191" lon="11.6629805"><ele>514.6666666666666</ele><time>2026-05-01T07:28:18.746Z</time></trkpt><trkpt lat="45.7812474" lon="11.6628781"><ele>515.5</ele><time>2026-05-01T07:28:19.747Z</time></trkpt><trkpt lat="45.7812658" lon="11.6627615"><ele>516.3333333333333</ele><time>2026-05-01T07:28:20.742Z</time></trkpt><trkpt lat="45.7812818" lon="11.6626447"><ele>517.1666666666666</ele><time>2026-05-01T07:28:21.744Z</time></trkpt><trkpt lat="45.7813007" lon="11.6625305"><ele>518.0</ele><time>2026-05-01T07:28:22.745Z</time></trkpt><trkpt lat="45.7813285" lon="11.6624167"><ele>518.0</ele><time>2026-05-01T07:28:23.754Z</time></trkpt><trkpt lat="45.7813646" lon="11.6623062"><ele>518.0</ele><time>2026-05-01T07:28:24.748Z</time></trkpt><trkpt lat="45.7814048" lon="11.662201"><ele>518.0</ele><time>2026-05-01T07:28:25.751Z</time></trkpt><trkpt lat="45.7814519" lon="11.6621036"><ele>518.0</ele><time>2026-05-01T07:28:26.743Z</time></trkpt><trkpt lat="45.7815049" lon="11.6620115"><ele>518.0</ele><time>2026-05-01T07:28:27.762Z</time></trkpt><trkpt lat="45.7815662" lon="11.6619252"><ele>518.0</ele><time>2026-05-01T07:28:28.755Z</time></trkpt><trkpt lat="45.7816343" lon="11.6618463"><ele>515.4</ele><time>2026-05-01T07:28:29.758Z</time></trkpt><trkpt lat="45.7817079" lon="11.6617706"><ele>512.8</ele><time>2026-05-01T07:28:30.751Z</time></trkpt><trkpt lat="45.7817882" lon="11.6616939"><ele>510.2</ele><time>2026-05-01T07:28:31.746Z</time></trkpt><trkpt lat="45.7818685" lon="11.6616157"><ele>507.6</ele><time>2026-05-01T07:28:32.745Z</time></trkpt><trkpt lat="45.7819436" lon="11.6615407"><ele>505.0</ele><time>2026-05-01T07:28:33.742Z</time></trkpt><trkpt lat="45.7820008" lon="11.6614468"><ele>507.1666666666667</ele><time>2026-05-01T07:28:34.743Z</time></trkpt><trkpt lat="45.7820543" lon="11.6613536"><ele>509.33333333333337</ele><time>2026-05-01T07:28:35.744Z</time></trkpt><trkpt lat="45.7821085" lon="11.6612568"><ele>511.5</ele><time>2026-05-01T07:28:36.748Z</time></trkpt><trkpt lat="45.7821669" lon="11.6611655"><ele>513.6666666666666</ele><time>2026-05-01T07:28:37.749Z</time></trkpt><trkpt lat="45.7822354" lon="11.6610793"><ele>515.8333333333333</ele><time>2026-05-01T07:28:38.737Z</time></trkpt><trkpt lat="45.7823155" lon="11.6609928"><ele>518.0</ele><time>2026-05-01T07:28:39.756Z</time></trkpt><trkpt lat="45.7824033" lon="11.6609061"><ele>518.0</ele><time>2026-05-01T07:28:40.749Z</time></trkpt><trkpt lat="45.7824945" lon="11.6608126"><ele>518.0</ele><time>2026-05-01T07:28:41.739Z</time></trkpt><trkpt lat="45.7825878" lon="11.6607111"><ele>518.0</ele><time>2026-05-01T07:28:42.752Z</time></trkpt><trkpt lat="45.7826833" lon="11.6605997"><ele>518.0</ele><time>2026-05-01T07:28:43.757Z</time></trkpt><trkpt lat="45.7827801" lon="11.6604904"><ele>518.75</ele><time>2026-05-01T07:28:44.748Z</time></trkpt><trkpt lat="45.7828779" lon="11.6603931"><ele>519.5</ele><time>2026-05-01T07:28:45.736Z</time></trkpt><trkpt lat="45.7829776" lon="11.6603078"><ele>520.25</ele><time>2026-05-01T07:28:46.765Z</time></trkpt><trkpt lat="45.7830749" lon="11.6602243"><ele>521.0</ele><time>2026-05-01T07:28:47.763Z</time></trkpt><trkpt lat="45.7831685" lon="11.6601335"><ele>521.0</ele><time>2026-05-01T07:28:48.748Z</time></trkpt><trkpt lat="45.7832554" lon="11.6600341"><ele>521.0</ele><time>2026-05-01T07:28:49.751Z</time></trkpt><trkpt lat="45.7833424" lon="11.6599338"><ele>521.0</ele><time>2026-05-01T07:28:50.753Z</time></trkpt><trkpt lat="45.7834207" lon="11.6598204"><ele>521.0</ele><time>2026-05-01T07:28:51.76Z</time></trkpt><trkpt lat="45.783491" lon="11.6597227"><ele>521.0</ele><time>2026-05-01T07:28:52.733Z</time></trkpt><trkpt lat="45.7835647" lon="11.6596455"><ele>523.3333333333333</ele><time>2026-05-01T07:28:53.753Z</time></trkpt><trkpt lat="45.7836362" lon="11.6595708"><ele>525.6666666666666</ele><time>2026-05-01T07:28:54.758Z</time></trkpt><trkpt lat="45.7837096" lon="11.6595223"><ele>528.0</ele><time>2026-05-01T07:28:55.749Z</time></trkpt><trkpt lat="45.783785" lon="11.6594948"><ele>530.3333333333334</ele><time>2026-05-01T07:28:56.746Z</time></trkpt><trkpt lat="45.7838614" lon="11.6595034"><ele>532.6666666666667</ele><time>2026-05-01T07:28:57.754Z</time></trkpt><trkpt lat="45.7839327" lon="11.6595495"><ele>535.0</ele><time>2026-05-01T07:28:58.747Z</time></trkpt><trkpt lat="45.7839952" lon="11.6596124"><ele>535.0</ele><time>2026-05-01T07:28:59.736Z</time></trkpt><trkpt lat="45.7840536" lon="11.6596764"><ele>535.0</ele><time>2026-05-01T07:29:00.734Z</time></trkpt><trkpt lat="45.7841121" lon="11.6597335"><ele>535.0</ele><time>2026-05-01T07:29:01.762Z</time></trkpt><trkpt lat="45.7842149" lon="11.6598205"><ele>535.0</ele><time>2026-05-01T07:29:03.758Z</time></trkpt><trkpt lat="45.7842999" lon="11.659891"><ele>535.0</ele><time>2026-05-01T07:29:05.745Z</time></trkpt><trkpt lat="45.7844289" lon="11.6599977"><ele>535.5</ele><time>2026-05-01T07:29:07.754Z</time></trkpt><trkpt lat="45.7845158" lon="11.6600924"><ele>536.0</ele><time>2026-05-01T07:29:08.755Z</time></trkpt><trkpt lat="45.784608" lon="11.660209"><ele>536.5</ele><time>2026-05-01T07:29:09.741Z</time></trkpt><trkpt lat="45.7846956" lon="11.6603704"><ele>537.0</ele><time>2026-05-01T07:29:10.756Z</time></trkpt><trkpt lat="45.7847812" lon="11.6605838"><ele>537.0</ele><time>2026-05-01T07:29:11.742Z</time></trkpt><trkpt lat="45.7848711" lon="11.6608093"><ele>537.0</ele><time>2026-05-01T07:29:12.741Z</time></trkpt><trkpt lat="45.7849719" lon="11.6610201"><ele>537.0</ele><time>2026-05-01T07:29:13.75Z</time></trkpt><trkpt lat="45.7850572" lon="11.6611895"><ele>543.25</ele><time>2026-05-01T07:29:14.748Z</time></trkpt><trkpt lat="45.7851345" lon="11.6613196"><ele>549.5</ele><time>2026-05-01T07:29:15.732Z</time></trkpt><trkpt lat="45.7852402" lon="11.6613971"><ele>555.75</ele><time>2026-05-01T07:29:16.74Z</time></trkpt><trkpt lat="45.7853905" lon="11.6614256"><ele>562.0</ele><time>2026-05-01T07:29:17.742Z</time></trkpt><trkpt lat="45.7855481" lon="11.6614506"><ele>562.3333333333334</ele><time>2026-05-01T07:29:18.741Z</time></trkpt><trkpt lat="45.7857396" lon="11.661375"><ele>562.6666666666666</ele><time>2026-05-01T07:29:19.739Z</time></trkpt><trkpt lat="45.7859014" lon="11.6612818"><ele>563.0</ele><time>2026-05-01T07:29:20.743Z</time></trkpt><trkpt lat="45.7860606" lon="11.6611532"><ele>566.3333333333333</ele><time>2026-05-01T07:29:21.744Z</time></trkpt><trkpt lat="45.7862138" lon="11.6610075"><ele>569.6666666666666</ele><time>2026-05-01T07:29:22.75Z</time></trkpt><trkpt lat="45.7863703" lon="11.660857"><ele>573.0</ele><time>2026-05-01T07:29:23.74Z</time></trkpt><trkpt lat="45.786523" lon="11.6607089"><ele>573.0</ele><time>2026-05-01T07:29:24.742Z</time></trkpt><trkpt lat="45.786666" lon="11.660559"><ele>573.0</ele><time>2026-05-01T07:29:25.74Z</time></trkpt><trkpt lat="45.7867928" lon="11.6604131"><ele>573.0</ele><time>2026-05-01T07:29:26.752Z</time></trkpt><trkpt lat="45.7869009" lon="11.6602692"><ele>574.75</ele><time>2026-05-01T07:29:27.751Z</time></trkpt><trkpt lat="45.7870084" lon="11.660138"><ele>576.5</ele><time>2026-05-01T07:29:28.744Z</time></trkpt><trkpt lat="45.7871099" lon="11.6600192"><ele>578.25</ele><time>2026-05-01T07:29:29.75Z</time></trkpt><trkpt lat="45.7872166" lon="11.6599741"><ele>580.0</ele><time>2026-05-01T07:29:30.747Z</time></trkpt><trkpt lat="45.7873072" lon="11.6599082"><ele>580.0</ele><time>2026-05-01T07:29:31.744Z</time></trkpt><trkpt lat="45.7873859" lon="11.6598141"><ele>580.0</ele><time>2026-05-01T07:29:32.746Z</time></trkpt><trkpt lat="45.7874274" lon="11.6596563"><ele>580.0</ele><time>2026-05-01T07:29:33.735Z</time></trkpt><trkpt lat="45.7874578" lon="11.6594955"><ele>580.0</ele><time>2026-05-01T07:29:34.751Z</time></trkpt><trkpt lat="45.7875206" lon="11.6593423"><ele>583.75</ele><time>2026-05-01T07:29:35.75Z</time></trkpt><trkpt lat="45.7876086" lon="11.6592167"><ele>587.5</ele><time>2026-05-01T07:29:36.756Z</time></trkpt><trkpt lat="45.7877179" lon="11.6591346"><ele>591.25</ele><time>2026-05-01T07:29:37.753Z</time></trkpt><trkpt lat="45.7878221" lon="11.6590615"><ele>595.0</ele><time>2026-05-01T07:29:38.744Z</time></trkpt><trkpt lat="45.7879247" lon="11.658995"><ele>595.0</ele><time>2026-05-01T07:29:39.756Z</time></trkpt><trkpt lat="45.7880052" lon="11.6589104"><ele>595.0</ele><time>2026-05-01T07:29:40.76Z</time></trkpt><trkpt lat="45.7880839" lon="11.6588117"><ele>595.0</ele><time>2026-05-01T07:29:41.746Z</time></trkpt><trkpt lat="45.7880949" lon="11.6586501"><ele>595.0</ele><time>2026-05-01T07:29:42.753Z</time></trkpt><trkpt lat="45.7881131" lon="11.6584754"><ele>595.0</ele><time>2026-05-01T07:29:43.743Z</time></trkpt><trkpt lat="45.7881454" lon="11.6583012"><ele>589.25</ele><time>2026-05-01T07:29:44.762Z</time></trkpt><trkpt lat="45.788189" lon="11.6581469"><ele>583.5</ele><time>2026-05-01T07:29:45.743Z</time></trkpt><trkpt lat="45.7882685" lon="11.6580394"><ele>577.75</ele><time>2026-05-01T07:29:46.764Z</time></trkpt><trkpt lat="45.7883869" lon="11.6579909"><ele>572.0</ele><time>2026-05-01T07:29:47.747Z</time></trkpt><trkpt lat="45.7885047" lon="11.6579562"><ele>577.4</ele><time>2026-05-01T07:29:48.751Z</time></trkpt><trkpt lat="45.7886061" lon="11.657909"><ele>582.8000000000001</ele><time>2026-05-01T07:29:49.755Z</time></trkpt><trkpt lat="45.7886975" lon="11.6578561"><ele>588.2</ele><time>2026-05-01T07:29:50.747Z</time></trkpt><trkpt lat="45.7887478" lon="11.6577358"><ele>593.6</ele><time>2026-05-01T07:29:51.739Z</time></trkpt><trkpt lat="45.7887581" lon="11.6575622"><ele>599.0</ele><time>2026-05-01T07:29:52.739Z</time></trkpt><trkpt lat="45.7887634" lon="11.6573844"><ele>599.0</ele><time>2026-05-01T07:29:53.766Z</time></trkpt><trkpt lat="45.7887789" lon="11.657201"><ele>599.0</ele><time>2026-05-01T07:29:54.749Z</time></trkpt><trkpt lat="45.7888406" lon="11.6570242"><ele>599.0</ele><time>2026-05-01T07:29:55.748Z</time></trkpt><trkpt lat="45.7889143" lon="11.6568641"><ele>599.0</ele><time>2026-05-01T07:29:56.731Z</time></trkpt><trkpt lat="45.7889554" lon="11.6566771"><ele>597.3333333333333</ele><time>2026-05-01T07:29:57.733Z</time></trkpt><trkpt lat="45.7889658" lon="11.6564541"><ele>595.6666666666666</ele><time>2026-05-01T07:29:58.747Z</time></trkpt><trkpt lat="45.7889585" lon="11.656237"><ele>594.0</ele><time>2026-05-01T07:29:59.747Z</time></trkpt><trkpt lat="45.7889624" lon="11.6560244"><ele>591.5</ele><time>2026-05-01T07:30:00.739Z</time></trkpt><trkpt lat="45.7889749" lon="11.6558232"><ele>589.0</ele><time>2026-05-01T07:30:01.746Z</time></trkpt><trkpt lat="45.7889988" lon="11.6556276"><ele>586.5</ele><time>2026-05-01T07:30:02.745Z</time></trkpt><trkpt lat="45.7890358" lon="11.6554414"><ele>584.0</ele><time>2026-05-01T07:30:03.752Z</time></trkpt><trkpt lat="45.789092" lon="11.6552673"><ele>583.25</ele><time>2026-05-01T07:30:04.742Z</time></trkpt><trkpt lat="45.7891723" lon="11.6551094"><ele>582.5</ele><time>2026-05-01T07:30:05.753Z</time></trkpt><trkpt lat="45.7892617" lon="11.6549615"><ele>581.75</ele><time>2026-05-01T07:30:06.743Z</time></trkpt><trkpt lat="45.7893515" lon="11.6548178"><ele>581.0</ele><time>2026-05-01T07:30:07.744Z</time></trkpt><trkpt lat="45.7894388" lon="11.6546812"><ele>583.5</ele><time>2026-05-01T07:30:08.76Z</time></trkpt><trkpt lat="45.789517" lon="11.6545447"><ele>586.0</ele><time>2026-05-01T07:30:09.74Z</time></trkpt><trkpt lat="45.7895971" lon="11.654427"><ele>588.5</ele><time>2026-05-01T07:30:10.746Z</time></trkpt><trkpt lat="45.789692" lon="11.6543502"><ele>591.0</ele><time>2026-05-01T07:30:11.747Z</time></trkpt><trkpt lat="45.7898006" lon="11.6543074"><ele>591.0</ele><time>2026-05-01T07:30:12.745Z</time></trkpt><trkpt lat="45.7899092" lon="11.6542967"><ele>591.0</ele><time>2026-05-01T07:30:13.758Z</time></trkpt><trkpt lat="45.7900143" lon="11.6543334"><ele>591.0</ele><time>2026-05-01T07:30:14.739Z</time></trkpt><trkpt lat="45.7901133" lon="11.6544065"><ele>591.0</ele><time>2026-05-01T07:30:15.745Z</time></trkpt><trkpt lat="45.7902203" lon="11.6544868"><ele>591.0</ele><time>2026-05-01T07:30:16.743Z</time></trkpt><trkpt lat="45.7903242" lon="11.654556"><ele>594.8</ele><time>2026-05-01T07:30:17.744Z</time></trkpt><trkpt lat="45.7904258" lon="11.6546018"><ele>598.6</ele><time>2026-05-01T07:30:18.746Z</time></trkpt><trkpt lat="45.7905201" lon="11.6546413"><ele>602.4</ele><time>2026-05-01T07:30:19.742Z</time></trkpt><trkpt lat="45.7906078" lon="11.6545753"><ele>606.2</ele><time>2026-05-01T07:30:20.755Z</time></trkpt><trkpt lat="45.7906717" lon="11.6544522"><ele>610.0</ele><time>2026-05-01T07:30:21.744Z</time></trkpt><trkpt lat="45.790696" lon="11.6542979"><ele>610.0</ele><time>2026-05-01T07:30:22.756Z</time></trkpt><trkpt lat="45.7906805" lon="11.6541168"><ele>610.0</ele><time>2026-05-01T07:30:23.76Z</time></trkpt><trkpt lat="45.7906434" lon="11.6539204"><ele>610.0</ele><time>2026-05-01T07:30:24.746Z</time></trkpt><trkpt lat="45.7906009" lon="11.653711"><ele>610.0</ele><time>2026-05-01T07:30:25.748Z</time></trkpt><trkpt lat="45.7905616" lon="11.6534889"><ele>612.3333333333334</ele><time>2026-05-01T07:30:26.751Z</time></trkpt><trkpt lat="45.7905227" lon="11.6532617"><ele>614.6666666666666</ele><time>2026-05-01T07:30:27.749Z</time></trkpt><trkpt lat="45.7904858" lon="11.6530401"><ele>617.0</ele><time>2026-05-01T07:30:28.754Z</time></trkpt><trkpt lat="45.790444" lon="11.6528237"><ele>621.3333333333333</ele><time>2026-05-01T07:30:29.746Z</time></trkpt><trkpt lat="45.7904059" lon="11.6526095"><ele>625.6666666666666</ele><time>2026-05-01T07:30:30.749Z</time></trkpt><trkpt lat="45.7903667" lon="11.6523933"><ele>630.0</ele><time>2026-05-01T07:30:31.748Z</time></trkpt><trkpt lat="45.790324" lon="11.6521764"><ele>630.0</ele><time>2026-05-01T07:30:32.753Z</time></trkpt><trkpt lat="45.7902748" lon="11.6519589"><ele>630.0</ele><time>2026-05-01T07:30:33.752Z</time></trkpt><trkpt lat="45.7902184" lon="11.6517424"><ele>630.0</ele><time>2026-05-01T07:30:34.749Z</time></trkpt><trkpt lat="45.790163" lon="11.6515235"><ele>625.3333333333334</ele><time>2026-05-01T07:30:35.755Z</time></trkpt><trkpt lat="45.790114" lon="11.6513023"><ele>620.6666666666667</ele><time>2026-05-01T07:30:36.751Z</time></trkpt><trkpt lat="45.7900753" lon="11.6510809"><ele>616.0</ele><time>2026-05-01T07:30:37.752Z</time></trkpt><trkpt lat="45.7900418" lon="11.6508766"><ele>616.0</ele><time>2026-05-01T07:30:38.747Z</time></trkpt><trkpt lat="45.7900211" lon="11.65069"><ele>616.0</ele><time>2026-05-01T07:30:39.745Z</time></trkpt><trkpt lat="45.7900018" lon="11.6505317"><ele>616.0</ele><time>2026-05-01T07:30:40.734Z</time></trkpt><trkpt lat="45.7899822" lon="11.650393"><ele>616.0</ele><time>2026-05-01T07:30:41.745Z</time></trkpt><trkpt lat="45.7899653" lon="11.6502772"><ele>616.0</ele><time>2026-05-01T07:30:42.751Z</time></trkpt><trkpt lat="45.7899524" lon="11.6501805"><ele>617.2</ele><time>2026-05-01T07:30:43.732Z</time></trkpt><trkpt lat="45.7899544" lon="11.6500504"><ele>618.4000000000001</ele><time>2026-05-01T07:30:45.723Z</time></trkpt><trkpt lat="45.7899883" lon="11.6499087"><ele>619.6</ele><time>2026-05-01T07:30:47.746Z</time></trkpt><trkpt lat="45.7899804" lon="11.6497873"><ele>620.8000000000001</ele><time>2026-05-01T07:30:49.727Z</time></trkpt><trkpt lat="45.7899494" lon="11.6497076"><ele>622.0</ele><time>2026-05-01T07:31:02.744Z</time></trkpt><trkpt lat="45.7899224" lon="11.649546"><ele>625.2</ele><time>2026-05-01T07:31:04.74Z</time></trkpt><trkpt lat="45.7899096" lon="11.649455"><ele>628.4000000000001</ele><time>2026-05-01T07:31:05.752Z</time></trkpt><trkpt lat="45.7898942" lon="11.6493545"><ele>631.5999999999999</ele><time>2026-05-01T07:31:06.736Z</time></trkpt><trkpt lat="45.7898674" lon="11.6492225"><ele>634.8</ele><time>2026-05-01T07:31:07.75Z</time></trkpt><trkpt lat="45.7898282" lon="11.6490784"><ele>638.0</ele><time>2026-05-01T07:31:08.752Z</time></trkpt><trkpt lat="45.7897699" lon="11.6489278"><ele>638.0</ele><time>2026-05-01T07:31:09.742Z</time></trkpt><trkpt lat="45.789697" lon="11.6487776"><ele>638.0</ele><time>2026-05-01T07:31:10.751Z</time></trkpt><trkpt lat="45.7896118" lon="11.6486298"><ele>638.0</ele><time>2026-05-01T07:31:11.754Z</time></trkpt><trkpt lat="45.7895272" lon="11.6484957"><ele>638.0</ele><time>2026-05-01T07:31:12.751Z</time></trkpt><trkpt lat="45.7894404" lon="11.6483585"><ele>634.0</ele><time>2026-05-01T07:31:13.759Z</time></trkpt><trkpt lat="45.7893509" lon="11.6482389"><ele>630.0</ele><time>2026-05-01T07:31:14.748Z</time></trkpt><trkpt lat="45.7892581" lon="11.6481144"><ele>626.0</ele><time>2026-05-01T07:31:15.75Z</time></trkpt><trkpt lat="45.7891605" lon="11.6479996"><ele>622.0</ele><time>2026-05-01T07:31:16.75Z</time></trkpt><trkpt lat="45.7890717" lon="11.6478703"><ele>629.0</ele><time>2026-05-01T07:31:17.745Z</time></trkpt><trkpt lat="45.7889809" lon="11.6477372"><ele>636.0</ele><time>2026-05-01T07:31:18.749Z</time></trkpt><trkpt lat="45.7888863" lon="11.6476047"><ele>643.0</ele><time>2026-05-01T07:31:19.745Z</time></trkpt><trkpt lat="45.7887825" lon="11.6474698"><ele>650.0</ele><time>2026-05-01T07:31:20.722Z</time></trkpt><trkpt lat="45.7886717" lon="11.6473468"><ele>650.0</ele><time>2026-05-01T07:31:21.744Z</time></trkpt><trkpt lat="45.7885569" lon="11.6472299"><ele>650.0</ele><time>2026-05-01T07:31:22.726Z</time></trkpt><trkpt lat="45.7884355" lon="11.6471213"><ele>650.0</ele><time>2026-05-01T07:31:23.736Z</time></trkpt><trkpt lat="45.7883151" lon="11.6470186"><ele>650.0</ele><time>2026-05-01T07:31:24.75Z</time></trkpt><trkpt lat="45.7881952" lon="11.646914"><ele>649.25</ele><time>2026-05-01T07:31:25.736Z</time></trkpt><trkpt lat="45.7880734" lon="11.6468062"><ele>648.5</ele><time>2026-05-01T07:31:26.749Z</time></trkpt><trkpt lat="45.7879422" lon="11.6467065"><ele>647.75</ele><time>2026-05-01T07:31:27.759Z</time></trkpt><trkpt lat="45.7878176" lon="11.6466239"><ele>647.0</ele><time>2026-05-01T07:31:28.748Z</time></trkpt><trkpt lat="45.7876878" lon="11.6465371"><ele>639.25</ele><time>2026-05-01T07:31:29.753Z</time></trkpt><trkpt lat="45.787558" lon="11.6464557"><ele>631.5</ele><time>2026-05-01T07:31:30.743Z</time></trkpt><trkpt lat="45.7874248" lon="11.6463659"><ele>623.75</ele><time>2026-05-01T07:31:31.747Z</time></trkpt><trkpt lat="45.7872983" lon="11.6462694"><ele>616.0</ele><time>2026-05-01T07:31:32.742Z</time></trkpt><trkpt lat="45.787184" lon="11.6461774"><ele>616.0</ele><time>2026-05-01T07:31:33.743Z</time></trkpt><trkpt lat="45.7870767" lon="11.6460917"><ele>616.0</ele><time>2026-05-01T07:31:34.741Z</time></trkpt><trkpt lat="45.786972" lon="11.646017"><ele>616.0</ele><time>2026-05-01T07:31:35.747Z</time></trkpt><trkpt lat="45.7868711" lon="11.6459607"><ele>616.0</ele><time>2026-05-01T07:31:36.747Z</time></trkpt><trkpt lat="45.7867697" lon="11.6459045"><ele>616.0</ele><time>2026-05-01T07:31:37.743Z</time></trkpt><trkpt lat="45.7866643" lon="11.6458312"><ele>616.0</ele><time>2026-05-01T07:31:38.746Z</time></trkpt><trkpt lat="45.786565" lon="11.645737"><ele>616.0</ele><time>2026-05-01T07:31:39.753Z</time></trkpt><trkpt lat="45.7864692" lon="11.6456297"><ele>616.0</ele><time>2026-05-01T07:31:40.754Z</time></trkpt><trkpt lat="45.786377" lon="11.6455167"><ele>616.0</ele><time>2026-05-01T07:31:41.729Z</time></trkpt><trkpt lat="45.7862914" lon="11.645398"><ele>616.0</ele><time>2026-05-01T07:31:42.725Z</time></trkpt><trkpt lat="45.7862105" lon="11.6452833"><ele>616.0</ele><time>2026-05-01T07:31:43.733Z</time></trkpt><trkpt lat="45.7861412" lon="11.6451717"><ele>616.0</ele><time>2026-05-01T07:31:44.724Z</time></trkpt><trkpt lat="45.7860881" lon="11.6450491"><ele>616.0</ele><time>2026-05-01T07:31:45.736Z</time></trkpt><trkpt lat="45.7860508" lon="11.6449033"><ele>612.0</ele><time>2026-05-01T07:31:46.723Z</time></trkpt><trkpt lat="45.7860187" lon="11.6447432"><ele>608.0</ele><time>2026-05-01T07:31:47.723Z</time></trkpt><trkpt lat="45.7859839" lon="11.6445827"><ele>604.0</ele><time>2026-05-01T07:31:48.744Z</time></trkpt><trkpt lat="45.7859525" lon="11.6444204"><ele>600.0</ele><time>2026-05-01T07:31:49.764Z</time></trkpt><trkpt lat="45.7859232" lon="11.6442523"><ele>600.0</ele><time>2026-05-01T07:31:50.726Z</time></trkpt><trkpt lat="45.7859166" lon="11.6440689"><ele>600.0</ele><time>2026-05-01T07:31:51.742Z</time></trkpt><trkpt lat="45.7859065" lon="11.6438819"><ele>600.0</ele><time>2026-05-01T07:31:52.742Z</time></trkpt><trkpt lat="45.7858919" lon="11.6436845"><ele>600.0</ele><time>2026-05-01T07:31:53.723Z</time></trkpt><trkpt lat="45.785879" lon="11.6434889"><ele>600.6666666666666</ele><time>2026-05-01T07:31:54.738Z</time></trkpt><trkpt lat="45.7858411" lon="11.6431076"><ele>601.3333333333333</ele><time>2026-05-01T07:31:56.732Z</time></trkpt><trkpt lat="45.7858197" lon="11.6429242"><ele>602.0</ele><time>2026-05-01T07:31:57.731Z</time></trkpt><trkpt lat="45.7857951" lon="11.6427442"><ele>606.75</ele><time>2026-05-01T07:31:58.738Z</time></trkpt><trkpt lat="45.7857656" lon="11.642571"><ele>611.5</ele><time>2026-05-01T07:31:59.726Z</time></trkpt><trkpt lat="45.7857325" lon="11.6424038"><ele>616.25</ele><time>2026-05-01T07:32:00.729Z</time></trkpt><trkpt lat="45.7856896" lon="11.6422543"><ele>621.0</ele><time>2026-05-01T07:32:01.726Z</time></trkpt><trkpt lat="45.7856161" lon="11.6421182"><ele>621.0</ele><time>2026-05-01T07:32:02.724Z</time></trkpt><trkpt lat="45.7855223" lon="11.6419905"><ele>621.0</ele><time>2026-05-01T07:32:03.741Z</time></trkpt><trkpt lat="45.7854184" lon="11.6418678"><ele>621.0</ele><time>2026-05-01T07:32:04.74Z</time></trkpt><trkpt lat="45.7853109" lon="11.6417518"><ele>621.0</ele><time>2026-05-01T07:32:05.727Z</time></trkpt><trkpt lat="45.7852007" lon="11.6416334"><ele>615.5</ele><time>2026-05-01T07:32:06.728Z</time></trkpt><trkpt lat="45.7850935" lon="11.6415253"><ele>610.0</ele><time>2026-05-01T07:32:07.742Z</time></trkpt><trkpt lat="45.784998" lon="11.6414267"><ele>604.5</ele><time>2026-05-01T07:32:08.728Z</time></trkpt><trkpt lat="45.7849079" lon="11.6413342"><ele>599.0</ele><time>2026-05-01T07:32:09.734Z</time></trkpt><trkpt lat="45.7848326" lon="11.6412472"><ele>599.0</ele><time>2026-05-01T07:32:10.733Z</time></trkpt><trkpt lat="45.7847677" lon="11.6411498"><ele>599.0</ele><time>2026-05-01T07:32:11.725Z</time></trkpt><trkpt lat="45.7847287" lon="11.6410347"><ele>599.0</ele><time>2026-05-01T07:32:12.725Z</time></trkpt><trkpt lat="45.7847186" lon="11.6408907"><ele>599.0</ele><time>2026-05-01T07:32:13.721Z</time></trkpt><trkpt lat="45.7847157" lon="11.6407308"><ele>599.0</ele><time>2026-05-01T07:32:14.755Z</time></trkpt><trkpt lat="45.7847106" lon="11.6405777"><ele>602.3333333333333</ele><time>2026-05-01T07:32:15.728Z</time></trkpt><trkpt lat="45.7847094" lon="11.6404239"><ele>605.6666666666666</ele><time>2026-05-01T07:32:16.762Z</time></trkpt><trkpt lat="45.7847109" lon="11.6402928"><ele>609.0</ele><time>2026-05-01T07:32:17.762Z</time></trkpt><trkpt lat="45.7846975" lon="11.6401837"><ele>612.3333333333334</ele><time>2026-05-01T07:32:18.764Z</time></trkpt><trkpt lat="45.7846551" lon="11.640103"><ele>615.6666666666667</ele><time>2026-05-01T07:32:19.748Z</time></trkpt><trkpt lat="45.7845994" lon="11.6400187"><ele>619.0</ele><time>2026-05-01T07:32:20.756Z</time></trkpt><trkpt lat="45.78451" lon="11.6399657"><ele>614.0</ele><time>2026-05-01T07:32:21.741Z</time></trkpt><trkpt lat="45.7844178" lon="11.6399285"><ele>609.0</ele><time>2026-05-01T07:32:22.752Z</time></trkpt><trkpt lat="45.7842805" lon="11.6399081"><ele>604.0</ele><time>2026-05-01T07:32:23.74Z</time></trkpt><trkpt lat="45.7841425" lon="11.6398754"><ele>599.0</ele><time>2026-05-01T07:32:24.749Z</time></trkpt><trkpt lat="45.7840054" lon="11.6398282"><ele>599.0</ele><time>2026-05-01T07:32:25.748Z</time></trkpt><trkpt lat="45.7838637" lon="11.6397723"><ele>599.0</ele><time>2026-05-01T07:32:26.746Z</time></trkpt><trkpt lat="45.7837176" lon="11.6397039"><ele>599.0</ele><time>2026-05-01T07:32:27.759Z</time></trkpt><trkpt lat="45.7835802" lon="11.6396423"><ele>599.0</ele><time>2026-05-01T07:32:28.746Z</time></trkpt><trkpt lat="45.7834498" lon="11.6395758"><ele>599.0</ele><time>2026-05-01T07:32:29.769Z</time></trkpt><trkpt lat="45.783332" lon="11.6395067"><ele>599.0</ele><time>2026-05-01T07:32:30.755Z</time></trkpt><trkpt lat="45.7832182" lon="11.6394344"><ele>599.0</ele><time>2026-05-01T07:32:31.75Z</time></trkpt><trkpt lat="45.7831141" lon="11.6393601"><ele>599.0</ele><time>2026-05-01T07:32:32.757Z</time></trkpt><trkpt lat="45.7830218" lon="11.6393037"><ele>599.0</ele><time>2026-05-01T07:32:33.774Z</time></trkpt><trkpt lat="45.7829329" lon="11.6392717"><ele>599.0</ele><time>2026-05-01T07:32:34.777Z</time></trkpt><trkpt lat="45.7828384" lon="11.6392387"><ele>599.0</ele><time>2026-05-01T07:32:35.764Z</time></trkpt><trkpt lat="45.7827488" lon="11.6392068"><ele>599.0</ele><time>2026-05-01T07:32:36.749Z</time></trkpt><trkpt lat="45.7826564" lon="11.6391628"><ele>599.0</ele><time>2026-05-01T07:32:37.76Z</time></trkpt><trkpt lat="45.782552" lon="11.6391246"><ele>593.5</ele><time>2026-05-01T07:32:38.755Z</time></trkpt><trkpt lat="45.7824352" lon="11.6391119"><ele>588.0</ele><time>2026-05-01T07:32:39.755Z</time></trkpt><trkpt lat="45.7823151" lon="11.6391024"><ele>582.5</ele><time>2026-05-01T07:32:40.757Z</time></trkpt><trkpt lat="45.7821873" lon="11.6390943"><ele>577.0</ele><time>2026-05-01T07:32:41.758Z</time></trkpt><trkpt lat="45.7820531" lon="11.6390757"><ele>577.0</ele><time>2026-05-01T07:32:42.75Z</time></trkpt><trkpt lat="45.7819164" lon="11.6390493"><ele>577.0</ele><time>2026-05-01T07:32:43.76Z</time></trkpt><trkpt lat="45.781781" lon="11.639007"><ele>577.0</ele><time>2026-05-01T07:32:44.748Z</time></trkpt><trkpt lat="45.7816466" lon="11.6389416"><ele>577.0</ele><time>2026-05-01T07:32:45.727Z</time></trkpt><trkpt lat="45.7815103" lon="11.6388682"><ele>571.0</ele><time>2026-05-01T07:32:46.729Z</time></trkpt><trkpt lat="45.7813763" lon="11.6388006"><ele>565.0</ele><time>2026-05-01T07:32:47.73Z</time></trkpt><trkpt lat="45.781249" lon="11.6387266"><ele>559.0</ele><time>2026-05-01T07:32:48.732Z</time></trkpt><trkpt lat="45.781125" lon="11.63865"><ele>553.0</ele><time>2026-05-01T07:32:49.725Z</time></trkpt><trkpt lat="45.7810038" lon="11.6385685"><ele>551.5</ele><time>2026-05-01T07:32:50.73Z</time></trkpt><trkpt lat="45.7808858" lon="11.6384856"><ele>550.0</ele><time>2026-05-01T07:32:51.731Z</time></trkpt><trkpt lat="45.7807734" lon="11.638401"><ele>548.5</ele><time>2026-05-01T07:32:52.729Z</time></trkpt><trkpt lat="45.7806687" lon="11.6383182"><ele>547.0</ele><time>2026-05-01T07:32:53.724Z</time></trkpt><trkpt lat="45.7805774" lon="11.6382432"><ele>547.0</ele><time>2026-05-01T07:32:54.743Z</time></trkpt><trkpt lat="45.7805003" lon="11.6381727"><ele>547.0</ele><time>2026-05-01T07:32:55.736Z</time></trkpt><trkpt lat="45.7804285" lon="11.6381072"><ele>547.0</ele><time>2026-05-01T07:32:56.752Z</time></trkpt><trkpt lat="45.7803713" lon="11.6380568"><ele>547.0</ele><time>2026-05-01T07:32:57.737Z</time></trkpt><trkpt lat="45.7802809" lon="11.6380233"><ele>547.0</ele><time>2026-05-01T07:32:59.753Z</time></trkpt><trkpt lat="45.7802429" lon="11.6381404"><ele>547.0</ele><time>2026-05-01T07:33:01.754Z</time></trkpt><trkpt lat="45.7802606" lon="11.6382409"><ele>547.0</ele><time>2026-05-01T07:33:02.736Z</time></trkpt><trkpt lat="45.7802883" lon="11.6383605"><ele>547.0</ele><time>2026-05-01T07:33:03.743Z</time></trkpt><trkpt lat="45.7803207" lon="11.6384987"><ele>547.0</ele><time>2026-05-01T07:33:04.754Z</time></trkpt><trkpt lat="45.7803539" lon="11.6386437"><ele>547.0</ele><time>2026-05-01T07:33:05.741Z</time></trkpt><trkpt lat="45.7803852" lon="11.6387991"><ele>547.0</ele><time>2026-05-01T07:33:06.727Z</time></trkpt><trkpt lat="45.7804088" lon="11.638971"><ele>543.0</ele><time>2026-05-01T07:33:07.745Z</time></trkpt><trkpt lat="45.7804298" lon="11.6391377"><ele>539.0</ele><time>2026-05-01T07:33:08.742Z</time></trkpt><trkpt lat="45.7804501" lon="11.6392978"><ele>535.0</ele><time>2026-05-01T07:33:09.752Z</time></trkpt><trkpt lat="45.7804686" lon="11.6394474"><ele>531.0</ele><time>2026-05-01T07:33:10.749Z</time></trkpt><trkpt lat="45.7804861" lon="11.6395816"><ele>527.0</ele><time>2026-05-01T07:33:11.745Z</time></trkpt><trkpt lat="45.780503" lon="11.6397052"><ele>523.6</ele><time>2026-05-01T07:33:12.749Z</time></trkpt><trkpt lat="45.7805302" lon="11.6398213"><ele>520.2</ele><time>2026-05-01T07:33:13.753Z</time></trkpt><trkpt lat="45.78058" lon="11.6399299"><ele>516.8</ele><time>2026-05-01T07:33:14.726Z</time></trkpt><trkpt lat="45.780656" lon="11.6400294"><ele>513.4</ele><time>2026-05-01T07:33:15.73Z</time></trkpt><trkpt lat="45.7807397" lon="11.6401293"><ele>510.0</ele><time>2026-05-01T07:33:16.744Z</time></trkpt><trkpt lat="45.7808214" lon="11.6402396"><ele>507.6</ele><time>2026-05-01T07:33:17.744Z</time></trkpt><trkpt lat="45.7809015" lon="11.6403545"><ele>505.2</ele><time>2026-05-01T07:33:18.747Z</time></trkpt><trkpt lat="45.7809778" lon="11.6404655"><ele>502.79999999999995</ele><time>2026-05-01T07:33:19.739Z</time></trkpt><trkpt lat="45.7810504" lon="11.6405683"><ele>500.4</ele><time>2026-05-01T07:33:20.764Z</time></trkpt><trkpt lat="45.7811181" lon="11.6406646"><ele>498.0</ele><time>2026-05-01T07:33:21.758Z</time></trkpt><trkpt lat="45.7811742" lon="11.6407592"><ele>498.0</ele><time>2026-05-01T07:33:22.741Z</time></trkpt><trkpt lat="45.781212" lon="11.6408622"><ele>497.99999999999994</ele><time>2026-05-01T07:33:23.759Z</time></trkpt><trkpt lat="45.7812238" lon="11.6409837"><ele>497.99999999999994</ele><time>2026-05-01T07:33:24.75Z</time></trkpt><trkpt lat="45.7812108" lon="11.6411277"><ele>498.0</ele><time>2026-05-01T07:33:25.739Z</time></trkpt><trkpt lat="45.7811703" lon="11.6412902"><ele>498.0</ele><time>2026-05-01T07:33:26.747Z</time></trkpt><trkpt lat="45.7811174" lon="11.6414658"><ele>495.0</ele><time>2026-05-01T07:33:27.752Z</time></trkpt><trkpt lat="45.7810611" lon="11.6416338"><ele>491.99999999999994</ele><time>2026-05-01T07:33:28.757Z</time></trkpt><trkpt lat="45.7810076" lon="11.6417684"><ele>488.99999999999994</ele><time>2026-05-01T07:33:29.736Z</time></trkpt><trkpt lat="45.780947" lon="11.6418683"><ele>486.0</ele><time>2026-05-01T07:33:30.746Z</time></trkpt><trkpt lat="45.7808713" lon="11.6419398"><ele>483.0</ele><time>2026-05-01T07:33:31.743Z</time></trkpt><trkpt lat="45.7807888" lon="11.6420009"><ele>483.0</ele><time>2026-05-01T07:33:32.749Z</time></trkpt><trkpt lat="45.7806939" lon="11.6420148"><ele>482.99999999999994</ele><time>2026-05-01T07:33:33.747Z</time></trkpt><trkpt lat="45.7806009" lon="11.6420098"><ele>482.99999999999994</ele><time>2026-05-01T07:33:34.756Z</time></trkpt><trkpt lat="45.7805106" lon="11.6419541"><ele>483.0</ele><time>2026-05-01T07:33:35.747Z</time></trkpt><trkpt lat="45.7804209" lon="11.6418886"><ele>483.0</ele><time>2026-05-01T07:33:36.741Z</time></trkpt><trkpt lat="45.7803347" lon="11.6418253"><ele>483.0</ele><time>2026-05-01T07:33:37.753Z</time></trkpt><trkpt lat="45.7802506" lon="11.6417343"><ele>482.99999999999994</ele><time>2026-05-01T07:33:38.743Z</time></trkpt><trkpt lat="45.7801669" lon="11.6416442"><ele>482.99999999999994</ele><time>2026-05-01T07:33:39.746Z</time></trkpt><trkpt lat="45.7800857" lon="11.6415458"><ele>483.0</ele><time>2026-05-01T07:33:40.744Z</time></trkpt><trkpt lat="45.7800258" lon="11.6414408"><ele>483.0</ele><time>2026-05-01T07:33:41.744Z</time></trkpt><trkpt lat="45.7799693" lon="11.6413659"><ele>481.79999999999995</ele><time>2026-05-01T07:33:42.746Z</time></trkpt><trkpt lat="45.7798865" lon="11.6413547"><ele>480.59999999999997</ele><time>2026-05-01T07:33:43.741Z</time></trkpt><trkpt lat="45.7797667" lon="11.6412733"><ele>479.40000000000003</ele><time>2026-05-01T07:33:45.721Z</time></trkpt><trkpt lat="45.7797051" lon="11.6411748"><ele>478.20000000000005</ele><time>2026-05-01T07:33:46.755Z</time></trkpt><trkpt lat="45.7796433" lon="11.6410473"><ele>477.0</ele><time>2026-05-01T07:33:47.747Z</time></trkpt><trkpt lat="45.779586" lon="11.6409052"><ele>477.0</ele><time>2026-05-01T07:33:48.758Z</time></trkpt><trkpt lat="45.7795335" lon="11.6407596"><ele>477.00000000000006</ele><time>2026-05-01T07:33:49.744Z</time></trkpt><trkpt lat="45.7794812" lon="11.6406171"><ele>477.00000000000006</ele><time>2026-05-01T07:33:50.762Z</time></trkpt><trkpt lat="45.7794401" lon="11.6404736"><ele>477.0</ele><time>2026-05-01T07:33:51.748Z</time></trkpt><trkpt lat="45.7794195" lon="11.6403327"><ele>477.0</ele><time>2026-05-01T07:33:52.746Z</time></trkpt><trkpt lat="45.7794182" lon="11.6401989"><ele>479.40000000000003</ele><time>2026-05-01T07:33:53.759Z</time></trkpt><trkpt lat="45.7794159" lon="11.6400728"><ele>481.80000000000007</ele><time>2026-05-01T07:33:54.748Z</time></trkpt><trkpt lat="45.7793957" lon="11.6399464"><ele>484.2</ele><time>2026-05-01T07:33:55.747Z</time></trkpt><trkpt lat="45.7793503" lon="11.6398279"><ele>486.6</ele><time>2026-05-01T07:33:56.74Z</time></trkpt><trkpt lat="45.7793083" lon="11.6397009"><ele>489.0</ele><time>2026-05-01T07:33:57.75Z</time></trkpt><trkpt lat="45.7792796" lon="11.6395643"><ele>480.75</ele><time>2026-05-01T07:33:58.747Z</time></trkpt><trkpt lat="45.7792509" lon="11.6394087"><ele>472.5</ele><time>2026-05-01T07:33:59.747Z</time></trkpt><trkpt lat="45.7792162" lon="11.639249"><ele>464.25</ele><time>2026-05-01T07:34:00.759Z</time></trkpt><trkpt lat="45.7791849" lon="11.6390748"><ele>456.0</ele><time>2026-05-01T07:34:01.757Z</time></trkpt><trkpt lat="45.7791601" lon="11.6388933"><ele>456.0</ele><time>2026-05-01T07:34:02.759Z</time></trkpt><trkpt lat="45.7791338" lon="11.6387089"><ele>456.0</ele><time>2026-05-01T07:34:03.749Z</time></trkpt><trkpt lat="45.7790925" lon="11.6385345"><ele>456.0</ele><time>2026-05-01T07:34:04.75Z</time></trkpt><trkpt lat="45.7790475" lon="11.6383809"><ele>456.0</ele><time>2026-05-01T07:34:05.747Z</time></trkpt><trkpt lat="45.7790125" lon="11.6382301"><ele>459.25</ele><time>2026-05-01T07:34:06.751Z</time></trkpt><trkpt lat="45.7789728" lon="11.6380892"><ele>462.5</ele><time>2026-05-01T07:34:07.753Z</time></trkpt><trkpt lat="45.7789599" lon="11.6379322"><ele>465.75</ele><time>2026-05-01T07:34:08.732Z</time></trkpt><trkpt lat="45.7789509" lon="11.637752"><ele>469.0</ele><time>2026-05-01T07:34:09.755Z</time></trkpt><trkpt lat="45.778942" lon="11.6375749"><ele>470.6</ele><time>2026-05-01T07:34:10.749Z</time></trkpt><trkpt lat="45.7789354" lon="11.6374032"><ele>472.2</ele><time>2026-05-01T07:34:11.744Z</time></trkpt><trkpt lat="45.7789283" lon="11.6372549"><ele>473.80000000000007</ele><time>2026-05-01T07:34:12.743Z</time></trkpt><trkpt lat="45.7789465" lon="11.6371088"><ele>475.40000000000003</ele><time>2026-05-01T07:34:13.743Z</time></trkpt><trkpt lat="45.7789699" lon="11.6369726"><ele>477.0</ele><time>2026-05-01T07:34:14.74Z</time></trkpt><trkpt lat="45.7790009" lon="11.6368571"><ele>477.0</ele><time>2026-05-01T07:34:15.744Z</time></trkpt><trkpt lat="45.779028" lon="11.6367521"><ele>477.0</ele><time>2026-05-01T07:34:16.742Z</time></trkpt><trkpt lat="45.7790301" lon="11.6366494"><ele>477.0</ele><time>2026-05-01T07:34:17.746Z</time></trkpt><trkpt lat="45.7789618" lon="11.6365626"><ele>477.0</ele><time>2026-05-01T07:34:18.746Z</time></trkpt><trkpt lat="45.7788879" lon="11.636478"><ele>477.0</ele><time>2026-05-01T07:34:19.74Z</time></trkpt><trkpt lat="45.778811" lon="11.6363827"><ele>477.0</ele><time>2026-05-01T07:34:20.743Z</time></trkpt><trkpt lat="45.778739" lon="11.6362815"><ele>479.0</ele><time>2026-05-01T07:34:21.752Z</time></trkpt><trkpt lat="45.7787017" lon="11.6361346"><ele>481.00000000000006</ele><time>2026-05-01T07:34:22.757Z</time></trkpt><trkpt lat="45.7786651" lon="11.6359933"><ele>483.00000000000006</ele><time>2026-05-01T07:34:23.72Z</time></trkpt><trkpt lat="45.7786543" lon="11.6358575"><ele>485.0</ele><time>2026-05-01T07:34:24.729Z</time></trkpt><trkpt lat="45.7786703" lon="11.635718"><ele>487.0</ele><time>2026-05-01T07:34:25.737Z</time></trkpt><trkpt lat="45.7786992" lon="11.6355689"><ele>487.0</ele><time>2026-05-01T07:34:26.747Z</time></trkpt><trkpt lat="45.778746" lon="11.6354178"><ele>487.0</ele><time>2026-05-01T07:34:27.746Z</time></trkpt><trkpt lat="45.7788114" lon="11.6352635"><ele>487.0</ele><time>2026-05-01T07:34:28.741Z</time></trkpt><trkpt lat="45.7788823" lon="11.6351171"><ele>487.0</ele><time>2026-05-01T07:34:29.762Z</time></trkpt><trkpt lat="45.778955" lon="11.6350065"><ele>486.1666666666667</ele><time>2026-05-01T07:34:30.753Z</time></trkpt><trkpt lat="45.7789956" lon="11.6348939"><ele>485.33333333333337</ele><time>2026-05-01T07:34:31.754Z</time></trkpt><trkpt lat="45.7790282" lon="11.6347895"><ele>484.5</ele><time>2026-05-01T07:34:32.75Z</time></trkpt><trkpt lat="45.7790289" lon="11.6346937"><ele>483.66666666666663</ele><time>2026-05-01T07:34:33.757Z</time></trkpt><trkpt lat="45.7789828" lon="11.6346186"><ele>482.8333333333333</ele><time>2026-05-01T07:34:34.752Z</time></trkpt><trkpt lat="45.7789118" lon="11.6345696"><ele>482.0</ele><time>2026-05-01T07:34:35.741Z</time></trkpt><trkpt lat="45.7788224" lon="11.6345055"><ele>484.0</ele><time>2026-05-01T07:34:36.726Z</time></trkpt><trkpt lat="45.7787289" lon="11.6344369"><ele>486.00000000000006</ele><time>2026-05-01T07:34:37.74Z</time></trkpt><trkpt lat="45.7786425" lon="11.6343747"><ele>488.00000000000006</ele><time>2026-05-01T07:34:38.76Z</time></trkpt><trkpt lat="45.7785552" lon="11.634333"><ele>490.0</ele><time>2026-05-01T07:34:39.75Z</time></trkpt><trkpt lat="45.7784839" lon="11.634276"><ele>492.0</ele><time>2026-05-01T07:34:40.742Z</time></trkpt><trkpt lat="45.7784147" lon="11.6341897"><ele>487.75</ele><time>2026-05-01T07:34:41.746Z</time></trkpt><trkpt lat="45.7783496" lon="11.6340648"><ele>483.5</ele><time>2026-05-01T07:34:42.73Z</time></trkpt><trkpt lat="45.7782946" lon="11.6339082"><ele>479.25</ele><time>2026-05-01T07:34:43.744Z</time></trkpt><trkpt lat="45.7782438" lon="11.6337435"><ele>475.0</ele><time>2026-05-01T07:34:44.752Z</time></trkpt><trkpt lat="45.7782017" lon="11.6335734"><ele>475.0</ele><time>2026-05-01T07:34:45.742Z</time></trkpt><trkpt lat="45.7781585" lon="11.6334022"><ele>475.0</ele><time>2026-05-01T07:34:46.753Z</time></trkpt><trkpt lat="45.7781321" lon="11.6332308"><ele>475.0</ele><time>2026-05-01T07:34:47.744Z</time></trkpt><trkpt lat="45.7781026" lon="11.633036"><ele>475.0</ele><time>2026-05-01T07:34:48.751Z</time></trkpt><trkpt lat="45.7780738" lon="11.6328452"><ele>477.0</ele><time>2026-05-01T07:34:49.745Z</time></trkpt><trkpt lat="45.7780403" lon="11.6326499"><ele>479.0</ele><time>2026-05-01T07:34:50.746Z</time></trkpt><trkpt lat="45.7779877" lon="11.6324579"><ele>481.0</ele><time>2026-05-01T07:34:51.747Z</time></trkpt><trkpt lat="45.7779329" lon="11.632265"><ele>483.0</ele><time>2026-05-01T07:34:52.744Z</time></trkpt><trkpt lat="45.7778695" lon="11.6320778"><ele>485.75</ele><time>2026-05-01T07:34:53.754Z</time></trkpt><trkpt lat="45.7778083" lon="11.6318888"><ele>488.5</ele><time>2026-05-01T07:34:54.762Z</time></trkpt><trkpt lat="45.7777505" lon="11.6316967"><ele>491.25</ele><time>2026-05-01T07:34:55.746Z</time></trkpt><trkpt lat="45.7776966" lon="11.6315149"><ele>494.0</ele><time>2026-05-01T07:34:56.75Z</time></trkpt><trkpt lat="45.7776435" lon="11.6313459"><ele>484.0</ele><time>2026-05-01T07:34:57.748Z</time></trkpt><trkpt lat="45.7775959" lon="11.6311848"><ele>474.0</ele><time>2026-05-01T07:34:58.748Z</time></trkpt><trkpt lat="45.7775417" lon="11.6310319"><ele>464.0</ele><time>2026-05-01T07:34:59.753Z</time></trkpt><trkpt lat="45.7774812" lon="11.6308907"><ele>454.0</ele><time>2026-05-01T07:35:00.753Z</time></trkpt><trkpt lat="45.7774068" lon="11.6307699"><ele>454.0</ele><time>2026-05-01T07:35:01.739Z</time></trkpt><trkpt lat="45.7773117" lon="11.630666"><ele>454.0</ele><time>2026-05-01T07:35:02.755Z</time></trkpt><trkpt lat="45.7772026" lon="11.6305785"><ele>454.0</ele><time>2026-05-01T07:35:03.755Z</time></trkpt><trkpt lat="45.7770939" lon="11.6305015"><ele>454.0</ele><time>2026-05-01T07:35:04.746Z</time></trkpt><trkpt lat="45.7769987" lon="11.6304234"><ele>454.0</ele><time>2026-05-01T07:35:05.753Z</time></trkpt><trkpt lat="45.7769076" lon="11.6303433"><ele>454.0</ele><time>2026-05-01T07:35:06.757Z</time></trkpt><trkpt lat="45.7768474" lon="11.630222"><ele>454.0</ele><time>2026-05-01T07:35:07.753Z</time></trkpt><trkpt lat="45.7767923" lon="11.6301101"><ele>454.0</ele><time>2026-05-01T07:35:08.75Z</time></trkpt><trkpt lat="45.776777" lon="11.6299963"><ele>454.0</ele><time>2026-05-01T07:35:09.755Z</time></trkpt><trkpt lat="45.7768246" lon="11.6298428"><ele>454.6666666666667</ele><time>2026-05-01T07:35:11.749Z</time></trkpt><trkpt lat="45.7768886" lon="11.6297781"><ele>455.33333333333337</ele><time>2026-05-01T07:35:12.753Z</time></trkpt><trkpt lat="45.7769577" lon="11.6297103"><ele>456.0</ele><time>2026-05-01T07:35:13.759Z</time></trkpt><trkpt lat="45.7770188" lon="11.6296523"><ele>456.66666666666663</ele><time>2026-05-01T07:35:14.743Z</time></trkpt><trkpt lat="45.7770935" lon="11.6295484"><ele>457.3333333333333</ele><time>2026-05-01T07:35:16.741Z</time></trkpt><trkpt lat="45.7770574" lon="11.6294402"><ele>458.0</ele><time>2026-05-01T07:35:18.743Z</time></trkpt><trkpt lat="45.7769374" lon="11.629415"><ele>458.8333333333333</ele><time>2026-05-01T07:35:20.749Z</time></trkpt><trkpt lat="45.7768577" lon="11.6294104"><ele>459.66666666666663</ele><time>2026-05-01T07:35:21.746Z</time></trkpt><trkpt lat="45.7767876" lon="11.629379"><ele>460.5</ele><time>2026-05-01T07:35:22.76Z</time></trkpt><trkpt lat="45.7767283" lon="11.6293253"><ele>461.33333333333337</ele><time>2026-05-01T07:35:23.758Z</time></trkpt><trkpt lat="45.7766676" lon="11.6292614"><ele>462.1666666666667</ele><time>2026-05-01T07:35:24.749Z</time></trkpt><trkpt lat="45.7765553" lon="11.6292437"><ele>463.0</ele><time>2026-05-01T07:35:26.74Z</time></trkpt><trkpt lat="45.776487" lon="11.6292821"><ele>458.59999999999997</ele><time>2026-05-01T07:35:27.746Z</time></trkpt><trkpt lat="45.7763738" lon="11.6292935"><ele>454.19999999999993</ele><time>2026-05-01T07:35:29.752Z</time></trkpt><trkpt lat="45.7762584" lon="11.6292222"><ele>449.8</ele><time>2026-05-01T07:35:31.746Z</time></trkpt><trkpt lat="45.7761983" lon="11.6291353"><ele>445.4</ele><time>2026-05-01T07:35:32.742Z</time></trkpt><trkpt lat="45.7761386" lon="11.6290244"><ele>441.0</ele><time>2026-05-01T07:35:33.743Z</time></trkpt><trkpt lat="45.776079" lon="11.628896"><ele>441.0</ele><time>2026-05-01T07:35:34.744Z</time></trkpt><trkpt lat="45.7760283" lon="11.6287609"><ele>441.0</ele><time>2026-05-01T07:35:35.748Z</time></trkpt><trkpt lat="45.7759869" lon="11.6286192"><ele>441.0</ele><time>2026-05-01T07:35:36.762Z</time></trkpt><trkpt lat="45.7759553" lon="11.628478"><ele>441.0</ele><time>2026-05-01T07:35:37.749Z</time></trkpt><trkpt lat="45.7759333" lon="11.628351"><ele>441.0</ele><time>2026-05-01T07:35:38.751Z</time></trkpt><trkpt lat="45.775927" lon="11.6282435"><ele>440.5</ele><time>2026-05-01T07:35:39.752Z</time></trkpt><trkpt lat="45.775945" lon="11.6281332"><ele>440.0</ele><time>2026-05-01T07:35:40.755Z</time></trkpt><trkpt lat="45.775988" lon="11.628031"><ele>439.5</ele><time>2026-05-01T07:35:41.749Z</time></trkpt><trkpt lat="45.7760431" lon="11.6279496"><ele>439.0</ele><time>2026-05-01T07:35:42.751Z</time></trkpt><trkpt lat="45.7760802" lon="11.6278658"><ele>438.5</ele><time>2026-05-01T07:35:43.755Z</time></trkpt><trkpt lat="45.7760828" lon="11.6277694"><ele>438.0</ele><time>2026-05-01T07:35:44.747Z</time></trkpt><trkpt lat="45.7760862" lon="11.6276595"><ele>437.25</ele><time>2026-05-01T07:35:45.743Z</time></trkpt><trkpt lat="45.7760382" lon="11.6275448"><ele>436.5</ele><time>2026-05-01T07:35:46.742Z</time></trkpt><trkpt lat="45.7759974" lon="11.6273765"><ele>435.75</ele><time>2026-05-01T07:35:47.741Z</time></trkpt><trkpt lat="45.775944" lon="11.6272077"><ele>435.0</ele><time>2026-05-01T07:35:48.741Z</time></trkpt><trkpt lat="45.7758943" lon="11.6270412"><ele>436.25</ele><time>2026-05-01T07:35:49.744Z</time></trkpt><trkpt lat="45.7758445" lon="11.6268636"><ele>437.5</ele><time>2026-05-01T07:35:50.747Z</time></trkpt><trkpt lat="45.7757937" lon="11.6266803"><ele>438.75</ele><time>2026-05-01T07:35:51.751Z</time></trkpt><trkpt lat="45.7757424" lon="11.6264928"><ele>440.0</ele><time>2026-05-01T07:35:52.749Z</time></trkpt><trkpt lat="45.7756977" lon="11.6263003"><ele>443.0</ele><time>2026-05-01T07:35:53.762Z</time></trkpt><trkpt lat="45.7756468" lon="11.6261096"><ele>446.0</ele><time>2026-05-01T07:35:54.744Z</time></trkpt><trkpt lat="45.7755765" lon="11.625935"><ele>449.0</ele><time>2026-05-01T07:35:55.745Z</time></trkpt><trkpt lat="45.7754963" lon="11.6257756"><ele>452.0</ele><time>2026-05-01T07:35:56.748Z</time></trkpt><trkpt lat="45.7754226" lon="11.6256342"><ele>452.0</ele><time>2026-05-01T07:35:57.743Z</time></trkpt><trkpt lat="45.775369" lon="11.6254938"><ele>452.00000000000006</ele><time>2026-05-01T07:35:58.751Z</time></trkpt><trkpt lat="45.7753442" lon="11.6253576"><ele>452.00000000000006</ele><time>2026-05-01T07:35:59.744Z</time></trkpt><trkpt lat="45.7753373" lon="11.6252344"><ele>452.0</ele><time>2026-05-01T07:36:00.746Z</time></trkpt><trkpt lat="45.7753334" lon="11.6251143"><ele>452.0</ele><time>2026-05-01T07:36:01.752Z</time></trkpt><trkpt lat="45.7753482" lon="11.6249872"><ele>452.99999999999994</ele><time>2026-05-01T07:36:02.76Z</time></trkpt><trkpt lat="45.7753769" lon="11.6248575"><ele>454.0</ele><time>2026-05-01T07:36:03.748Z</time></trkpt><trkpt lat="45.7754048" lon="11.6247331"><ele>455.0</ele><time>2026-05-01T07:36:04.744Z</time></trkpt><trkpt lat="45.7754335" lon="11.6246213"><ele>456.0</ele><time>2026-05-01T07:36:05.744Z</time></trkpt><trkpt lat="45.7754383" lon="11.6245113"><ele>456.99999999999994</ele><time>2026-05-01T07:36:06.746Z</time></trkpt><trkpt lat="45.7753942" lon="11.6244063"><ele>458.0</ele><time>2026-05-01T07:36:07.755Z</time></trkpt><trkpt lat="45.7753201" lon="11.6243218"><ele>458.2</ele><time>2026-05-01T07:36:08.75Z</time></trkpt><trkpt lat="45.7752688" lon="11.6242176"><ele>458.4</ele><time>2026-05-01T07:36:09.813Z</time></trkpt><trkpt lat="45.775234" lon="11.6240995"><ele>458.59999999999997</ele><time>2026-05-01T07:36:10.752Z</time></trkpt><trkpt lat="45.7752232" lon="11.6239666"><ele>458.79999999999995</ele><time>2026-05-01T07:36:11.737Z</time></trkpt><trkpt lat="45.775237" lon="11.6238316"><ele>459.0</ele><time>2026-05-01T07:36:12.717Z</time></trkpt><trkpt lat="45.7752697" lon="11.6236978"><ele>460.0</ele><time>2026-05-01T07:36:13.718Z</time></trkpt><trkpt lat="45.7753022" lon="11.6235707"><ele>461.0</ele><time>2026-05-01T07:36:14.72Z</time></trkpt><trkpt lat="45.7753413" lon="11.6234191"><ele>462.0</ele><time>2026-05-01T07:36:15.723Z</time></trkpt><trkpt lat="45.7753774" lon="11.6232629"><ele>463.0</ele><time>2026-05-01T07:36:16.746Z</time></trkpt><trkpt lat="45.7753895" lon="11.6230965"><ele>464.0</ele><time>2026-05-01T07:36:17.75Z</time></trkpt><trkpt lat="45.7754019" lon="11.6229351"><ele>464.79999999999995</ele><time>2026-05-01T07:36:18.734Z</time></trkpt><trkpt lat="45.7753991" lon="11.6227765"><ele>465.59999999999997</ele><time>2026-05-01T07:36:19.74Z</time></trkpt><trkpt lat="45.7753782" lon="11.6226196"><ele>466.4</ele><time>2026-05-01T07:36:20.759Z</time></trkpt><trkpt lat="45.7753596" lon="11.6224583"><ele>467.2</ele><time>2026-05-01T07:36:21.752Z</time></trkpt><trkpt lat="45.7753598" lon="11.6223131"><ele>468.0</ele><time>2026-05-01T07:36:22.731Z</time></trkpt><trkpt lat="45.7753849" lon="11.6221739"><ele>468.0</ele><time>2026-05-01T07:36:23.756Z</time></trkpt><trkpt lat="45.7754062" lon="11.6220236"><ele>468.0</ele><time>2026-05-01T07:36:24.748Z</time></trkpt><trkpt lat="45.7754255" lon="11.6218623"><ele>468.0</ele><time>2026-05-01T07:36:25.745Z</time></trkpt><trkpt lat="45.7754242" lon="11.6216877"><ele>468.0</ele><time>2026-05-01T07:36:26.748Z</time></trkpt><trkpt lat="45.7754249" lon="11.6215222"><ele>467.79999999999995</ele><time>2026-05-01T07:36:27.753Z</time></trkpt><trkpt lat="45.7754228" lon="11.6213697"><ele>467.59999999999997</ele><time>2026-05-01T07:36:28.754Z</time></trkpt><trkpt lat="45.7753951" lon="11.6212268"><ele>467.40000000000003</ele><time>2026-05-01T07:36:29.728Z</time></trkpt><trkpt lat="45.775365" lon="11.6210801"><ele>467.20000000000005</ele><time>2026-05-01T07:36:30.729Z</time></trkpt><trkpt lat="45.7753205" lon="11.6209551"><ele>467.0</ele><time>2026-05-01T07:36:31.746Z</time></trkpt><trkpt lat="45.7752998" lon="11.6208225"><ele>468.0</ele><time>2026-05-01T07:36:32.751Z</time></trkpt><trkpt lat="45.7752925" lon="11.6206669"><ele>469.0</ele><time>2026-05-01T07:36:33.753Z</time></trkpt><trkpt lat="45.7752871" lon="11.620484"><ele>470.0</ele><time>2026-05-01T07:36:34.744Z</time></trkpt><trkpt lat="45.7752735" lon="11.620296"><ele>471.0</ele><time>2026-05-01T07:36:35.744Z</time></trkpt><trkpt lat="45.7752458" lon="11.6201139"><ele>474.25</ele><time>2026-05-01T07:36:36.742Z</time></trkpt><trkpt lat="45.7752001" lon="11.6199386"><ele>477.5</ele><time>2026-05-01T07:36:37.75Z</time></trkpt><trkpt lat="45.7751433" lon="11.6197696"><ele>480.75</ele><time>2026-05-01T07:36:38.748Z</time></trkpt><trkpt lat="45.775096" lon="11.6196126"><ele>484.0</ele><time>2026-05-01T07:36:39.76Z</time></trkpt><trkpt lat="45.7750669" lon="11.6194447"><ele>474.5</ele><time>2026-05-01T07:36:40.741Z</time></trkpt><trkpt lat="45.7750552" lon="11.6192666"><ele>465.0</ele><time>2026-05-01T07:36:41.742Z</time></trkpt><trkpt lat="45.7750366" lon="11.6190847"><ele>455.5</ele><time>2026-05-01T07:36:42.74Z</time></trkpt><trkpt lat="45.775001" lon="11.6189022"><ele>446.0</ele><time>2026-05-01T07:36:43.747Z</time></trkpt><trkpt lat="45.7749505" lon="11.618723"><ele>447.5</ele><time>2026-05-01T07:36:44.75Z</time></trkpt><trkpt lat="45.7749007" lon="11.6185534"><ele>449.0</ele><time>2026-05-01T07:36:45.748Z</time></trkpt><trkpt lat="45.7748556" lon="11.6183892"><ele>450.5</ele><time>2026-05-01T07:36:46.748Z</time></trkpt><trkpt lat="45.7748149" lon="11.6182245"><ele>452.0</ele><time>2026-05-01T07:36:47.74Z</time></trkpt><trkpt lat="45.7747737" lon="11.6180644"><ele>452.0</ele><time>2026-05-01T07:36:48.742Z</time></trkpt><trkpt lat="45.7747286" lon="11.6179156"><ele>452.00000000000006</ele><time>2026-05-01T07:36:49.741Z</time></trkpt><trkpt lat="45.7746776" lon="11.6177805"><ele>452.00000000000006</ele><time>2026-05-01T07:36:50.74Z</time></trkpt><trkpt lat="45.7746275" lon="11.617652"><ele>452.0</ele><time>2026-05-01T07:36:51.74Z</time></trkpt><trkpt lat="45.7745766" lon="11.6175305"><ele>452.0</ele><time>2026-05-01T07:36:52.745Z</time></trkpt><trkpt lat="45.774539" lon="11.6173973"><ele>452.8</ele><time>2026-05-01T07:36:53.745Z</time></trkpt><trkpt lat="45.7745119" lon="11.6172491"><ele>453.6</ele><time>2026-05-01T07:36:54.746Z</time></trkpt><trkpt lat="45.7744931" lon="11.617105"><ele>454.40000000000003</ele><time>2026-05-01T07:36:55.746Z</time></trkpt><trkpt lat="45.7744717" lon="11.6169756"><ele>455.20000000000005</ele><time>2026-05-01T07:36:56.758Z</time></trkpt><trkpt lat="45.7744408" lon="11.6168585"><ele>456.0</ele><time>2026-05-01T07:36:57.743Z</time></trkpt><trkpt lat="45.7743925" lon="11.616749"><ele>451.0</ele><time>2026-05-01T07:36:58.759Z</time></trkpt><trkpt lat="45.7743412" lon="11.6166342"><ele>446.0</ele><time>2026-05-01T07:36:59.741Z</time></trkpt><trkpt lat="45.7742987" lon="11.6165088"><ele>441.0</ele><time>2026-05-01T07:37:00.747Z</time></trkpt><trkpt lat="45.7742669" lon="11.616376"><ele>436.0</ele><time>2026-05-01T07:37:01.747Z</time></trkpt><trkpt lat="45.7742444" lon="11.616233"><ele>431.0</ele><time>2026-05-01T07:37:02.75Z</time></trkpt><trkpt lat="45.7742235" lon="11.6160846"><ele>431.0</ele><time>2026-05-01T07:37:03.754Z</time></trkpt><trkpt lat="45.7741913" lon="11.6159339"><ele>431.0</ele><time>2026-05-01T07:37:04.728Z</time></trkpt><trkpt lat="45.774142" lon="11.6157857"><ele>431.0</ele><time>2026-05-01T07:37:05.755Z</time></trkpt><trkpt lat="45.7740801" lon="11.61565"><ele>431.0</ele><time>2026-05-01T07:37:06.741Z</time></trkpt><trkpt lat="45.7740239" lon="11.6155253"><ele>431.0</ele><time>2026-05-01T07:37:07.744Z</time></trkpt><trkpt lat="45.7739787" lon="11.6154044"><ele>431.6</ele><time>2026-05-01T07:37:08.741Z</time></trkpt><trkpt lat="45.7739409" lon="11.6152836"><ele>432.20000000000005</ele><time>2026-05-01T07:37:09.741Z</time></trkpt><trkpt lat="45.7739017" lon="11.6151588"><ele>432.79999999999995</ele><time>2026-05-01T07:37:10.748Z</time></trkpt><trkpt lat="45.7738778" lon="11.6150239"><ele>433.4</ele><time>2026-05-01T07:37:11.742Z</time></trkpt><trkpt lat="45.7738631" lon="11.614895"><ele>434.0</ele><time>2026-05-01T07:37:12.749Z</time></trkpt><trkpt lat="45.7738459" lon="11.6147914"><ele>434.0</ele><time>2026-05-01T07:37:13.745Z</time></trkpt><trkpt lat="45.7737953" lon="11.614683"><ele>434.0</ele><time>2026-05-01T07:37:15.738Z</time></trkpt><trkpt lat="45.7737529" lon="11.6145568"><ele>434.0</ele><time>2026-05-01T07:37:24.738Z</time></trkpt><trkpt lat="45.773748" lon="11.6143884"><ele>434.0</ele><time>2026-05-01T07:37:26.75Z</time></trkpt><trkpt lat="45.7737415" lon="11.614286"><ele>434.0</ele><time>2026-05-01T07:37:27.744Z</time></trkpt><trkpt lat="45.773733" lon="11.6141713"><ele>433.7142857142857</ele><time>2026-05-01T07:37:28.745Z</time></trkpt><trkpt lat="45.7737285" lon="11.6140669"><ele>433.42857142857144</ele><time>2026-05-01T07:37:29.745Z</time></trkpt><trkpt lat="45.773733" lon="11.6139651"><ele>433.1428571428571</ele><time>2026-05-01T07:37:30.748Z</time></trkpt><trkpt lat="45.7737361" lon="11.6138679"><ele>432.8571428571429</ele><time>2026-05-01T07:37:31.74Z</time></trkpt><trkpt lat="45.773771" lon="11.6137794"><ele>432.57142857142856</ele><time>2026-05-01T07:37:32.753Z</time></trkpt><trkpt lat="45.7738111" lon="11.6136952"><ele>432.2857142857143</ele><time>2026-05-01T07:37:33.746Z</time></trkpt><trkpt lat="45.7738617" lon="11.6136209"><ele>432.0</ele><time>2026-05-01T07:37:34.744Z</time></trkpt><trkpt lat="45.7739208" lon="11.6135547"><ele>431.3333333333333</ele><time>2026-05-01T07:37:35.745Z</time></trkpt><trkpt lat="45.773976" lon="11.6134801"><ele>430.66666666666663</ele><time>2026-05-01T07:37:36.736Z</time></trkpt><trkpt lat="45.7740303" lon="11.6134101"><ele>430.0</ele><time>2026-05-01T07:37:37.746Z</time></trkpt><trkpt lat="45.7740794" lon="11.6133479"><ele>429.3333333333333</ele><time>2026-05-01T07:37:38.736Z</time></trkpt><trkpt lat="45.774128" lon="11.6132855"><ele>428.66666666666663</ele><time>2026-05-01T07:37:39.747Z</time></trkpt><trkpt lat="45.774219" lon="11.6131812"><ele>428.0</ele><time>2026-05-01T07:37:41.751Z</time></trkpt><trkpt lat="45.7743093" lon="11.6130938"><ele>433.2</ele><time>2026-05-01T07:37:43.747Z</time></trkpt><trkpt lat="45.7743592" lon="11.6129909"><ele>438.4</ele><time>2026-05-01T07:37:45.741Z</time></trkpt><trkpt lat="45.7743757" lon="11.6127858"><ele>443.59999999999997</ele><time>2026-05-01T07:37:47.743Z</time></trkpt><trkpt lat="45.7743782" lon="11.6126325"><ele>448.79999999999995</ele><time>2026-05-01T07:37:48.751Z</time></trkpt><trkpt lat="45.7743702" lon="11.6125048"><ele>454.0</ele><time>2026-05-01T07:37:49.748Z</time></trkpt><trkpt lat="45.7743664" lon="11.6123809"><ele>454.6</ele><time>2026-05-01T07:37:50.751Z</time></trkpt><trkpt lat="45.7743727" lon="11.6122574"><ele>455.2</ele><time>2026-05-01T07:37:51.746Z</time></trkpt><trkpt lat="45.7743892" lon="11.6121179"><ele>455.80000000000007</ele><time>2026-05-01T07:37:52.748Z</time></trkpt><trkpt lat="45.7744197" lon="11.6119869"><ele>456.40000000000003</ele><time>2026-05-01T07:37:53.742Z</time></trkpt><trkpt lat="45.7744542" lon="11.6118688"><ele>457.0</ele><time>2026-05-01T07:37:54.73Z</time></trkpt><trkpt lat="45.7744914" lon="11.6117524"><ele>457.00000000000006</ele><time>2026-05-01T07:37:55.746Z</time></trkpt><trkpt lat="45.7745342" lon="11.6116354"><ele>457.0</ele><time>2026-05-01T07:37:56.745Z</time></trkpt><trkpt lat="45.7745783" lon="11.6115285"><ele>457.0</ele><time>2026-05-01T07:37:57.747Z</time></trkpt><trkpt lat="45.774643" lon="11.6114638"><ele>457.0</ele><time>2026-05-01T07:37:58.743Z</time></trkpt><trkpt lat="45.7747184" lon="11.6114181"><ele>457.00000000000006</ele><time>2026-05-01T07:37:59.747Z</time></trkpt><trkpt lat="45.7747994" lon="11.6113918"><ele>457.0</ele><time>2026-05-01T07:38:00.75Z</time></trkpt><trkpt lat="45.7748864" lon="11.6113785"><ele>457.0</ele><time>2026-05-01T07:38:01.739Z</time></trkpt><trkpt lat="45.7749708" lon="11.6113412"><ele>457.00000000000006</ele><time>2026-05-01T07:38:02.744Z</time></trkpt><trkpt lat="45.7750551" lon="11.6112869"><ele>457.00000000000006</ele><time>2026-05-01T07:38:03.755Z</time></trkpt><trkpt lat="45.7751399" lon="11.6112228"><ele>457.0</ele><time>2026-05-01T07:38:04.741Z</time></trkpt><trkpt lat="45.7752252" lon="11.6111666"><ele>457.0</ele><time>2026-05-01T07:38:05.744Z</time></trkpt><trkpt lat="45.7753086" lon="11.6111219"><ele>464.0</ele><time>2026-05-01T07:38:06.748Z</time></trkpt><trkpt lat="45.7753882" lon="11.6110903"><ele>471.00000000000006</ele><time>2026-05-01T07:38:07.734Z</time></trkpt><trkpt lat="45.7754504" lon="11.6110537"><ele>478.00000000000006</ele><time>2026-05-01T07:38:08.741Z</time></trkpt><trkpt lat="45.7755328" lon="11.6109688"><ele>485.0</ele><time>2026-05-01T07:38:10.749Z</time></trkpt><trkpt lat="45.7755547" lon="11.6108368"><ele>492.0</ele><time>2026-05-01T07:38:12.754Z</time></trkpt><trkpt lat="45.7755803" lon="11.6106833"><ele>492.0</ele><time>2026-05-01T07:38:14.742Z</time></trkpt><trkpt lat="45.7755887" lon="11.6105928"><ele>492.0</ele><time>2026-05-01T07:38:15.742Z</time></trkpt><trkpt lat="45.7756005" lon="11.6104837"><ele>492.0</ele><time>2026-05-01T07:38:16.737Z</time></trkpt><trkpt lat="45.7756191" lon="11.6103705"><ele>492.0</ele><time>2026-05-01T07:38:17.745Z</time></trkpt><trkpt lat="45.7756343" lon="11.6102722"><ele>492.0</ele><time>2026-05-01T07:38:18.751Z</time></trkpt><trkpt lat="45.7756494" lon="11.6100924"><ele>492.0</ele><time>2026-05-01T07:38:20.744Z</time></trkpt><trkpt lat="45.7756764" lon="11.6099995"><ele>491.0</ele><time>2026-05-01T07:38:21.75Z</time></trkpt><trkpt lat="45.7757104" lon="11.6099075"><ele>490.0</ele><time>2026-05-01T07:38:22.745Z</time></trkpt><trkpt lat="45.775756" lon="11.609824"><ele>489.0</ele><time>2026-05-01T07:38:23.748Z</time></trkpt><trkpt lat="45.775806" lon="11.6097432"><ele>488.0</ele><time>2026-05-01T07:38:24.726Z</time></trkpt><trkpt lat="45.7758464" lon="11.6096725"><ele>487.0</ele><time>2026-05-01T07:38:25.74Z</time></trkpt><trkpt lat="45.7759083" lon="11.609544"><ele>486.0</ele><time>2026-05-01T07:38:27.755Z</time></trkpt><trkpt lat="45.7759175" lon="11.6094522"><ele>485.1666666666667</ele><time>2026-05-01T07:38:28.743Z</time></trkpt><trkpt lat="45.7759357" lon="11.6093545"><ele>484.33333333333337</ele><time>2026-05-01T07:38:29.744Z</time></trkpt><trkpt lat="45.7760044" lon="11.6092163"><ele>483.5</ele><time>2026-05-01T07:38:31.749Z</time></trkpt><trkpt lat="45.7760302" lon="11.6091336"><ele>482.6666666666667</ele><time>2026-05-01T07:38:32.74Z</time></trkpt><trkpt lat="45.7760494" lon="11.6090362"><ele>481.83333333333337</ele><time>2026-05-01T07:38:33.742Z</time></trkpt><trkpt lat="45.77607" lon="11.6089288"><ele>481.0</ele><time>2026-05-01T07:38:34.739Z</time></trkpt><trkpt lat="45.7760849" lon="11.6088144"><ele>489.20000000000005</ele><time>2026-05-01T07:38:35.739Z</time></trkpt><trkpt lat="45.7761062" lon="11.608688"><ele>497.40000000000003</ele><time>2026-05-01T07:38:36.738Z</time></trkpt><trkpt lat="45.7761328" lon="11.6085499"><ele>505.6</ele><time>2026-05-01T07:38:37.75Z</time></trkpt><trkpt lat="45.7761477" lon="11.6084157"><ele>513.8000000000001</ele><time>2026-05-01T07:38:38.745Z</time></trkpt><trkpt lat="45.7761574" lon="11.6082965"><ele>522.0</ele><time>2026-05-01T07:38:39.742Z</time></trkpt><trkpt lat="45.776175" lon="11.6081725"><ele>522.0</ele><time>2026-05-01T07:38:40.743Z</time></trkpt><trkpt lat="45.7761964" lon="11.6080628"><ele>522.0</ele><time>2026-05-01T07:38:41.743Z</time></trkpt><trkpt lat="45.7762222" lon="11.6079574"><ele>522.0</ele><time>2026-05-01T07:38:42.749Z</time></trkpt><trkpt lat="45.7762534" lon="11.6078669"><ele>522.0</ele><time>2026-05-01T07:38:43.736Z</time></trkpt><trkpt lat="45.7762881" lon="11.6077784"><ele>522.0</ele><time>2026-05-01T07:38:44.742Z</time></trkpt><trkpt lat="45.7763184" lon="11.6076924"><ele>522.0</ele><time>2026-05-01T07:38:45.75Z</time></trkpt><trkpt lat="45.77637" lon="11.6075605"><ele>521.0</ele><time>2026-05-01T07:38:47.743Z</time></trkpt><trkpt lat="45.7764022" lon="11.6074794"><ele>520.0</ele><time>2026-05-01T07:38:49.779Z</time></trkpt><trkpt lat="45.776468" lon="11.6074142"><ele>519.0</ele><time>2026-05-01T07:38:51.751Z</time></trkpt><trkpt lat="45.7765309" lon="11.607387"><ele>518.0</ele><time>2026-05-01T07:38:53.759Z</time></trkpt><trkpt lat="45.7765917" lon="11.6073381"><ele>517.0</ele><time>2026-05-01T07:38:55.744Z</time></trkpt><trkpt lat="45.7766457" lon="11.6072456"><ele>516.0</ele><time>2026-05-01T07:38:57.743Z</time></trkpt><trkpt lat="45.776734" lon="11.6071187"><ele>516.0</ele><time>2026-05-01T07:38:59.749Z</time></trkpt><trkpt lat="45.7768179" lon="11.6070137"><ele>516.0</ele><time>2026-05-01T07:39:01.749Z</time></trkpt><trkpt lat="45.7768725" lon="11.6069508"><ele>516.0</ele><time>2026-05-01T07:39:03.742Z</time></trkpt><trkpt lat="45.7769587" lon="11.6070097"><ele>516.0</ele><time>2026-05-01T07:39:07.737Z</time></trkpt><trkpt lat="45.7769762" lon="11.6071102"><ele>516.0</ele><time>2026-05-01T07:39:08.741Z</time></trkpt><trkpt lat="45.7769854" lon="11.6072265"><ele>516.0</ele><time>2026-05-01T07:39:09.743Z</time></trkpt><trkpt lat="45.7769771" lon="11.6073563"><ele>518.4</ele><time>2026-05-01T07:39:10.745Z</time></trkpt><trkpt lat="45.7769668" lon="11.607492"><ele>520.8</ele><time>2026-05-01T07:39:11.742Z</time></trkpt><trkpt lat="45.7769406" lon="11.6076373"><ele>523.1999999999999</ele><time>2026-05-01T07:39:12.74Z</time></trkpt><trkpt lat="45.7769144" lon="11.6077813"><ele>525.6</ele><time>2026-05-01T07:39:13.75Z</time></trkpt><trkpt lat="45.7768914" lon="11.607904"><ele>528.0</ele><time>2026-05-01T07:39:14.74Z</time></trkpt><trkpt lat="45.7768714" lon="11.6080031"><ele>526.8</ele><time>2026-05-01T07:39:15.736Z</time></trkpt><trkpt lat="45.7768501" lon="11.6081521"><ele>525.5999999999999</ele><time>2026-05-01T07:39:17.75Z</time></trkpt><trkpt lat="45.776901" lon="11.6082714"><ele>524.4000000000001</ele><time>2026-05-01T07:39:19.748Z</time></trkpt><trkpt lat="45.7770143" lon="11.6083233"><ele>523.2</ele><time>2026-05-01T07:39:21.74Z</time></trkpt><trkpt lat="45.7770819" lon="11.6083424"><ele>522.0</ele><time>2026-05-01T07:39:22.758Z</time></trkpt><trkpt lat="45.7771506" lon="11.6083646"><ele>525.3333333333334</ele><time>2026-05-01T07:39:23.743Z</time></trkpt><trkpt lat="45.7772592" lon="11.6083795"><ele>528.6666666666666</ele><time>2026-05-01T07:39:25.74Z</time></trkpt><trkpt lat="45.7773352" lon="11.6083748"><ele>532.0</ele><time>2026-05-01T07:39:27.748Z</time></trkpt><trkpt lat="45.7774104" lon="11.6083581"><ele>535.3333333333333</ele><time>2026-05-01T07:40:09.749Z</time></trkpt><trkpt lat="45.7774833" lon="11.6083417"><ele>538.6666666666666</ele><time>2026-05-01T07:40:11.747Z</time></trkpt><trkpt lat="45.7775808" lon="11.6083288"><ele>542.0</ele><time>2026-05-01T07:40:13.745Z</time></trkpt><trkpt lat="45.7776644" lon="11.6083793"><ele>545.0</ele><time>2026-05-01T07:40:15.742Z</time></trkpt><trkpt lat="45.7777391" lon="11.6085106"><ele>548.0</ele><time>2026-05-01T07:40:17.749Z</time></trkpt><trkpt lat="45.7778" lon="11.6086279"><ele>551.0</ele><time>2026-05-01T07:40:19.742Z</time></trkpt><trkpt lat="45.7778903" lon="11.6086414"><ele>554.0</ele><time>2026-05-01T07:40:21.751Z</time></trkpt><trkpt lat="45.7779778" lon="11.6085771"><ele>557.0</ele><time>2026-05-01T07:40:23.753Z</time></trkpt><trkpt lat="45.7780624" lon="11.6084541"><ele>557.0</ele><time>2026-05-01T07:40:25.75Z</time></trkpt><trkpt lat="45.7781456" lon="11.6084124"><ele>557.0</ele><time>2026-05-01T07:40:27.743Z</time></trkpt><trkpt lat="45.7782392" lon="11.6083063"><ele>557.0</ele><time>2026-05-01T07:40:29.751Z</time></trkpt><trkpt lat="45.7782642" lon="11.6081441"><ele>557.0</ele><time>2026-05-01T07:40:31.748Z</time></trkpt><trkpt lat="45.7783037" lon="11.6080136"><ele>557.0</ele><time>2026-05-01T07:40:33.74Z</time></trkpt><trkpt lat="45.7783615" lon="11.6079019"><ele>554.8000000000001</ele><time>2026-05-01T07:40:35.738Z</time></trkpt><trkpt lat="45.7784183" lon="11.6078018"><ele>552.6</ele><time>2026-05-01T07:40:37.743Z</time></trkpt><trkpt lat="45.7784929" lon="11.6076679"><ele>550.4000000000001</ele><time>2026-05-01T07:40:39.749Z</time></trkpt><trkpt lat="45.7785608" lon="11.6075332"><ele>548.2</ele><time>2026-05-01T07:40:41.738Z</time></trkpt><trkpt lat="45.778619" lon="11.6073902"><ele>546.0</ele><time>2026-05-01T07:40:43.743Z</time></trkpt><trkpt lat="45.7786518" lon="11.6073016"><ele>552.1666666666666</ele><time>2026-05-01T07:40:44.741Z</time></trkpt><trkpt lat="45.7786991" lon="11.6071467"><ele>558.3333333333334</ele><time>2026-05-01T07:40:46.741Z</time></trkpt><trkpt lat="45.7787262" lon="11.607039"><ele>564.5</ele><time>2026-05-01T07:40:47.745Z</time></trkpt><trkpt lat="45.7787551" lon="11.6069161"><ele>570.6666666666667</ele><time>2026-05-01T07:40:48.737Z</time></trkpt><trkpt lat="45.7787956" lon="11.6068129"><ele>576.8333333333334</ele><time>2026-05-01T07:40:49.743Z</time></trkpt><trkpt lat="45.7788456" lon="11.6067265"><ele>583.0</ele><time>2026-05-01T07:40:50.742Z</time></trkpt><trkpt lat="45.7788991" lon="11.6066452"><ele>583.0</ele><time>2026-05-01T07:40:51.74Z</time></trkpt><trkpt lat="45.7789441" lon="11.6065711"><ele>583.0</ele><time>2026-05-01T07:40:52.742Z</time></trkpt><trkpt lat="45.7790001" lon="11.606402"><ele>583.0</ele><time>2026-05-01T07:40:54.748Z</time></trkpt><trkpt lat="45.7790264" lon="11.6063162"><ele>583.0</ele><time>2026-05-01T07:40:55.742Z</time></trkpt><trkpt lat="45.7790628" lon="11.6062336"><ele>583.0</ele><time>2026-05-01T07:40:56.741Z</time></trkpt><trkpt lat="45.7791161" lon="11.6061523"><ele>583.0</ele><time>2026-05-01T07:40:57.744Z</time></trkpt><trkpt lat="45.7791785" lon="11.6060854"><ele>579.1999999999999</ele><time>2026-05-01T07:40:58.749Z</time></trkpt><trkpt lat="45.779233" lon="11.6060056"><ele>575.4</ele><time>2026-05-01T07:40:59.74Z</time></trkpt><trkpt lat="45.7792701" lon="11.6059238"><ele>571.5999999999999</ele><time>2026-05-01T07:41:00.757Z</time></trkpt><trkpt lat="45.7793491" lon="11.6057877"><ele>567.8</ele><time>2026-05-01T07:41:02.74Z</time></trkpt><trkpt lat="45.779412" lon="11.6056814"><ele>564.0</ele><time>2026-05-01T07:41:04.753Z</time></trkpt><trkpt lat="45.7794845" lon="11.6055571"><ele>570.6</ele><time>2026-05-01T07:41:06.745Z</time></trkpt><trkpt lat="45.7795369" lon="11.6054413"><ele>577.2</ele><time>2026-05-01T07:41:08.74Z</time></trkpt><trkpt lat="45.7795721" lon="11.6053208"><ele>583.8000000000001</ele><time>2026-05-01T07:41:10.749Z</time></trkpt><trkpt lat="45.7796143" lon="11.6052118"><ele>590.4</ele><time>2026-05-01T07:41:12.742Z</time></trkpt><trkpt lat="45.7796631" lon="11.6050872"><ele>597.0</ele><time>2026-05-01T07:41:14.74Z</time></trkpt><trkpt lat="45.7796987" lon="11.6049792"><ele>597.0</ele><time>2026-05-01T07:41:16.744Z</time></trkpt><trkpt lat="45.779731" lon="11.6048706"><ele>597.0</ele><time>2026-05-01T07:41:18.743Z</time></trkpt><trkpt lat="45.7797651" lon="11.6047597"><ele>597.0</ele><time>2026-05-01T07:41:20.744Z</time></trkpt><trkpt lat="45.7797984" lon="11.6046496"><ele>597.0</ele><time>2026-05-01T07:41:22.742Z</time></trkpt><trkpt lat="45.7798338" lon="11.6045363"><ele>597.0</ele><time>2026-05-01T07:41:24.752Z</time></trkpt><trkpt lat="45.7798684" lon="11.6044267"><ele>597.0</ele><time>2026-05-01T07:41:26.743Z</time></trkpt><trkpt lat="45.7799182" lon="11.6043276"><ele>596.5</ele><time>2026-05-01T07:41:29.726Z</time></trkpt><trkpt lat="45.7799658" lon="11.6042451"><ele>596.0</ele><time>2026-05-01T07:41:31.73Z</time></trkpt><trkpt lat="45.7800196" lon="11.6041692"><ele>595.5</ele><time>2026-05-01T07:41:33.762Z</time></trkpt><trkpt lat="45.7800843" lon="11.6040911"><ele>595.0</ele><time>2026-05-01T07:41:36.739Z</time></trkpt><trkpt lat="45.7801782" lon="11.6040182"><ele>594.5</ele><time>2026-05-01T07:41:39.743Z</time></trkpt><trkpt lat="45.7802424" lon="11.6039549"><ele>594.0</ele><time>2026-05-01T07:41:49.766Z</time></trkpt><trkpt lat="45.7803162" lon="11.6039313"><ele>594.0</ele><time>2026-05-01T07:41:54.76Z</time></trkpt><trkpt lat="45.7803859" lon="11.6039425"><ele>594.0</ele><time>2026-05-01T07:41:58.753Z</time></trkpt><trkpt lat="45.7804655" lon="11.6039793"><ele>594.0</ele><time>2026-05-01T07:42:02.748Z</time></trkpt><trkpt lat="45.7805369" lon="11.6040073"><ele>594.0</ele><time>2026-05-01T07:42:05.747Z</time></trkpt><trkpt lat="45.7806211" lon="11.604006"><ele>594.0</ele><time>2026-05-01T07:42:08.749Z</time></trkpt><trkpt lat="45.7807091" lon="11.6040343"><ele>594.0</ele><time>2026-05-01T07:42:11.746Z</time></trkpt><trkpt lat="45.7807847" lon="11.604068"><ele>594.0</ele><time>2026-05-01T07:42:13.747Z</time></trkpt><trkpt lat="45.7808645" lon="11.6041181"><ele>594.0</ele><time>2026-05-01T07:42:15.741Z</time></trkpt><trkpt lat="45.7809323" lon="11.6041421"><ele>594.0</ele><time>2026-05-01T07:42:17.739Z</time></trkpt><trkpt lat="45.781038" lon="11.6041716"><ele>594.0</ele><time>2026-05-01T07:42:19.74Z</time></trkpt><trkpt lat="45.7811" lon="11.604195"><ele>594.0</ele><time>2026-05-01T07:42:20.74Z</time></trkpt><trkpt lat="45.7811676" lon="11.604222"><ele>594.0</ele><time>2026-05-01T07:42:21.743Z</time></trkpt><trkpt lat="45.7812794" lon="11.6042696"><ele>593.8571428571429</ele><time>2026-05-01T07:42:23.749Z</time></trkpt><trkpt lat="45.7813442" lon="11.604307"><ele>593.7142857142858</ele><time>2026-05-01T07:42:24.748Z</time></trkpt><trkpt lat="45.7814056" lon="11.6043332"><ele>593.5714285714286</ele><time>2026-05-01T07:42:25.737Z</time></trkpt><trkpt lat="45.7814758" lon="11.6043672"><ele>593.4285714285714</ele><time>2026-05-01T07:42:26.743Z</time></trkpt><trkpt lat="45.7815366" lon="11.6043941"><ele>593.2857142857142</ele><time>2026-05-01T07:42:27.751Z</time></trkpt><trkpt lat="45.7815994" lon="11.6044204"><ele>593.1428571428571</ele><time>2026-05-01T07:42:28.741Z</time></trkpt><trkpt lat="45.7816624" lon="11.60445"><ele>593.0</ele><time>2026-05-01T07:42:29.749Z</time></trkpt><trkpt lat="45.7817246" lon="11.6044942"><ele>597.1999999999999</ele><time>2026-05-01T07:42:30.738Z</time></trkpt><trkpt lat="45.7818438" lon="11.6045637"><ele>601.4</ele><time>2026-05-01T07:42:32.74Z</time></trkpt><trkpt lat="45.7819648" lon="11.6046286"><ele>605.5999999999999</ele><time>2026-05-01T07:42:34.771Z</time></trkpt><trkpt lat="45.7820262" lon="11.6046656"><ele>609.8</ele><time>2026-05-01T07:42:35.747Z</time></trkpt><trkpt lat="45.7820913" lon="11.6047088"><ele>614.0</ele><time>2026-05-01T07:42:36.735Z</time></trkpt><trkpt lat="45.7821464" lon="11.6047679"><ele>614.0</ele><time>2026-05-01T07:42:37.744Z</time></trkpt><trkpt lat="45.7822114" lon="11.6048306"><ele>614.0</ele><time>2026-05-01T07:42:38.747Z</time></trkpt><trkpt lat="45.7822736" lon="11.604891"><ele>614.0</ele><time>2026-05-01T07:42:39.758Z</time></trkpt><trkpt lat="45.7823266" lon="11.6049586"><ele>614.0</ele><time>2026-05-01T07:42:40.757Z</time></trkpt><trkpt lat="45.7824067" lon="11.6050676"><ele>614.0</ele><time>2026-05-01T07:42:42.75Z</time></trkpt><trkpt lat="45.7824879" lon="11.6051576"><ele>614.0</ele><time>2026-05-01T07:42:44.741Z</time></trkpt><trkpt lat="45.7825715" lon="11.6052627"><ele>613.8</ele><time>2026-05-01T07:42:46.732Z</time></trkpt><trkpt lat="45.78266" lon="11.6053654"><ele>613.5999999999999</ele><time>2026-05-01T07:42:48.737Z</time></trkpt><trkpt lat="45.7827319" lon="11.6054407"><ele>613.4</ele><time>2026-05-01T07:42:50.748Z</time></trkpt><trkpt lat="45.782793" lon="11.6055017"><ele>613.1999999999999</ele><time>2026-05-01T07:42:52.75Z</time></trkpt><trkpt lat="45.7828856" lon="11.6055768"><ele>613.0</ele><time>2026-05-01T07:42:55.738Z</time></trkpt><trkpt lat="45.7829709" lon="11.6056431"><ele>613.0</ele><time>2026-05-01T07:42:57.739Z</time></trkpt><trkpt lat="45.7830801" lon="11.6057185"><ele>613.0</ele><time>2026-05-01T07:42:59.749Z</time></trkpt><trkpt lat="45.7831507" lon="11.6057576"><ele>613.0</ele><time>2026-05-01T07:43:00.749Z</time></trkpt><trkpt lat="45.7832173" lon="11.6057953"><ele>613.0</ele><time>2026-05-01T07:43:01.747Z</time></trkpt><trkpt lat="45.7832828" lon="11.6058226"><ele>613.0</ele><time>2026-05-01T07:43:02.745Z</time></trkpt><trkpt lat="45.783345" lon="11.6058411"><ele>613.0</ele><time>2026-05-01T07:43:03.744Z</time></trkpt><trkpt lat="45.7834112" lon="11.6058562"><ele>613.0</ele><time>2026-05-01T07:43:04.741Z</time></trkpt><trkpt lat="45.783478" lon="11.6058688"><ele>613.0</ele><time>2026-05-01T07:43:05.74Z</time></trkpt><trkpt lat="45.7835728" lon="11.6058818"><ele>613.0</ele><time>2026-05-01T07:43:07.743Z</time></trkpt><trkpt lat="45.7836367" lon="11.6058942"><ele>613.0</ele><time>2026-05-01T07:43:09.735Z</time></trkpt><trkpt lat="45.7837164" lon="11.6058921"><ele>613.0</ele><time>2026-05-01T07:43:12.745Z</time></trkpt><trkpt lat="45.7838182" lon="11.6058752"><ele>613.0</ele><time>2026-05-01T07:43:14.739Z</time></trkpt><trkpt lat="45.7840167" lon="11.6058826"><ele>612.6</ele><time>2026-05-01T07:43:19.74Z</time></trkpt><trkpt lat="45.7840818" lon="11.6058713"><ele>612.1999999999999</ele><time>2026-05-01T07:43:20.74Z</time></trkpt><trkpt lat="45.7842445" lon="11.6058557"><ele>611.8</ele><time>2026-05-01T07:43:23.753Z</time></trkpt><trkpt lat="45.7843076" lon="11.6058445"><ele>611.4</ele><time>2026-05-01T07:43:24.743Z</time></trkpt><trkpt lat="45.7844074" lon="11.6058255"><ele>611.0</ele><time>2026-05-01T07:43:26.746Z</time></trkpt><trkpt lat="45.784505" lon="11.6058028"><ele>612.6666666666666</ele><time>2026-05-01T07:43:28.759Z</time></trkpt><trkpt lat="45.7845695" lon="11.6057799"><ele>614.3333333333333</ele><time>2026-05-01T07:43:29.741Z</time></trkpt><trkpt lat="45.784642" lon="11.6057396"><ele>616.0</ele><time>2026-05-01T07:43:30.741Z</time></trkpt><trkpt lat="45.7847118" lon="11.6057118"><ele>617.6666666666666</ele><time>2026-05-01T07:43:31.741Z</time></trkpt><trkpt lat="45.7847919" lon="11.6057014"><ele>619.3333333333334</ele><time>2026-05-01T07:43:32.749Z</time></trkpt><trkpt lat="45.7848717" lon="11.6056888"><ele>621.0</ele><time>2026-05-01T07:43:33.749Z</time></trkpt><trkpt lat="45.7849455" lon="11.6056807"><ele>621.0</ele><time>2026-05-01T07:43:34.748Z</time></trkpt><trkpt lat="45.7850255" lon="11.6056849"><ele>621.0</ele><time>2026-05-01T07:43:35.741Z</time></trkpt><trkpt lat="45.78521" lon="11.6056863"><ele>621.0</ele><time>2026-05-01T07:43:37.74Z</time></trkpt><trkpt lat="45.7853138" lon="11.6056924"><ele>621.0</ele><time>2026-05-01T07:43:38.749Z</time></trkpt><trkpt lat="45.7853962" lon="11.605697"><ele>620.8333333333334</ele><time>2026-05-01T07:43:39.749Z</time></trkpt><trkpt lat="45.7854679" lon="11.6056982"><ele>620.6666666666666</ele><time>2026-05-01T07:43:40.748Z</time></trkpt><trkpt lat="45.7855517" lon="11.6056977"><ele>620.5</ele><time>2026-05-01T07:43:41.761Z</time></trkpt><trkpt lat="45.7856316" lon="11.6056821"><ele>620.3333333333333</ele><time>2026-05-01T07:43:42.746Z</time></trkpt><trkpt lat="45.7857175" lon="11.6056571"><ele>620.1666666666666</ele><time>2026-05-01T07:43:43.733Z</time></trkpt><trkpt lat="45.7857966" lon="11.6056389"><ele>620.0</ele><time>2026-05-01T07:43:44.744Z</time></trkpt><trkpt lat="45.7859064" lon="11.6056179"><ele>620.0</ele><time>2026-05-01T07:43:45.741Z</time></trkpt><trkpt lat="45.7859976" lon="11.6056036"><ele>620.0</ele><time>2026-05-01T07:43:46.738Z</time></trkpt><trkpt lat="45.7860964" lon="11.6056069"><ele>620.0</ele><time>2026-05-01T07:43:47.736Z</time></trkpt><trkpt lat="45.7861927" lon="11.6056101"><ele>620.0</ele><time>2026-05-01T07:43:48.744Z</time></trkpt><trkpt lat="45.7864669" lon="11.6055988"><ele>620.6</ele><time>2026-05-01T07:43:51.742Z</time></trkpt><trkpt lat="45.7865699" lon="11.6056273"><ele>621.2</ele><time>2026-05-01T07:43:52.738Z</time></trkpt><trkpt lat="45.7866654" lon="11.60567"><ele>621.8</ele><time>2026-05-01T07:43:53.749Z</time></trkpt><trkpt lat="45.7867748" lon="11.6057174"><ele>622.4</ele><time>2026-05-01T07:43:54.742Z</time></trkpt><trkpt lat="45.7868682" lon="11.6057624"><ele>623.0</ele><time>2026-05-01T07:43:55.743Z</time></trkpt><trkpt lat="45.7869444" lon="11.6058244"><ele>622.5</ele><time>2026-05-01T07:43:56.749Z</time></trkpt><trkpt lat="45.787011" lon="11.6058917"><ele>622.0</ele><time>2026-05-01T07:43:57.742Z</time></trkpt><trkpt lat="45.7870919" lon="11.6060067"><ele>621.5</ele><time>2026-05-01T07:43:59.746Z</time></trkpt><trkpt lat="45.7871443" lon="11.6060656"><ele>621.0</ele><time>2026-05-01T07:44:00.751Z</time></trkpt><trkpt lat="45.7871967" lon="11.6061229"><ele>620.5</ele><time>2026-05-01T07:44:01.748Z</time></trkpt><trkpt lat="45.7872469" lon="11.6061888"><ele>620.0</ele><time>2026-05-01T07:44:02.743Z</time></trkpt><trkpt lat="45.787335" lon="11.6063136"><ele>620.0</ele><time>2026-05-01T07:44:04.745Z</time></trkpt><trkpt lat="45.7873832" lon="11.6063819"><ele>620.0</ele><time>2026-05-01T07:44:05.744Z</time></trkpt><trkpt lat="45.7874723" lon="11.6064954"><ele>620.0</ele><time>2026-05-01T07:44:07.743Z</time></trkpt><trkpt lat="45.7875699" lon="11.6066091"><ele>620.0</ele><time>2026-05-01T07:44:09.746Z</time></trkpt><trkpt lat="45.7876272" lon="11.6066816"><ele>620.0</ele><time>2026-05-01T07:44:10.739Z</time></trkpt><trkpt lat="45.7876862" lon="11.6067582"><ele>619.6666666666666</ele><time>2026-05-01T07:44:11.737Z</time></trkpt><trkpt lat="45.7877469" lon="11.606826"><ele>619.3333333333333</ele><time>2026-05-01T07:44:12.743Z</time></trkpt><trkpt lat="45.7878097" lon="11.6068963"><ele>619.0</ele><time>2026-05-01T07:44:13.741Z</time></trkpt><trkpt lat="45.787874" lon="11.6069813"><ele>618.6666666666666</ele><time>2026-05-01T07:44:14.752Z</time></trkpt><trkpt lat="45.787936" lon="11.6070733"><ele>618.3333333333334</ele><time>2026-05-01T07:44:15.745Z</time></trkpt><trkpt lat="45.7879972" lon="11.6071808"><ele>618.0</ele><time>2026-05-01T07:44:16.746Z</time></trkpt><trkpt lat="45.788057" lon="11.6072773"><ele>618.0</ele><time>2026-05-01T07:44:17.74Z</time></trkpt><trkpt lat="45.7881221" lon="11.6073787"><ele>618.0</ele><time>2026-05-01T07:44:18.746Z</time></trkpt><trkpt lat="45.7881845" lon="11.6074782"><ele>618.0</ele><time>2026-05-01T07:44:19.741Z</time></trkpt><trkpt lat="45.7882366" lon="11.6075776"><ele>618.0</ele><time>2026-05-01T07:44:20.753Z</time></trkpt><trkpt lat="45.7882812" lon="11.60767"><ele>618.0</ele><time>2026-05-01T07:44:21.743Z</time></trkpt><trkpt lat="45.7883207" lon="11.6077452"><ele>618.0</ele><time>2026-05-01T07:44:22.739Z</time></trkpt><trkpt lat="45.7883783" lon="11.6078553"><ele>617.3333333333334</ele><time>2026-05-01T07:44:24.743Z</time></trkpt><trkpt lat="45.7884097" lon="11.6079535"><ele>616.6666666666666</ele><time>2026-05-01T07:44:26.748Z</time></trkpt><trkpt lat="45.7884362" lon="11.6080424"><ele>616.0</ele><time>2026-05-01T07:44:28.741Z</time></trkpt><trkpt lat="45.7884803" lon="11.6081121"><ele>615.3333333333333</ele><time>2026-05-01T07:44:30.75Z</time></trkpt><trkpt lat="45.7885406" lon="11.6082176"><ele>614.6666666666666</ele><time>2026-05-01T07:44:32.741Z</time></trkpt><trkpt lat="45.7886101" lon="11.6083251"><ele>614.0</ele><time>2026-05-01T07:44:34.757Z</time></trkpt><trkpt lat="45.7886642" lon="11.6083875"><ele>614.4</ele><time>2026-05-01T07:44:36.749Z</time></trkpt><trkpt lat="45.7887296" lon="11.6084297"><ele>614.8</ele><time>2026-05-01T07:44:39.743Z</time></trkpt><trkpt lat="45.7888142" lon="11.6085289"><ele>615.2</ele><time>2026-05-01T07:44:41.751Z</time></trkpt><trkpt lat="45.7889071" lon="11.6085988"><ele>615.6</ele><time>2026-05-01T07:44:43.747Z</time></trkpt><trkpt lat="45.7890138" lon="11.6086676"><ele>616.0</ele><time>2026-05-01T07:44:45.747Z</time></trkpt><trkpt lat="45.7891166" lon="11.6087325"><ele>616.0</ele><time>2026-05-01T07:44:47.743Z</time></trkpt><trkpt lat="45.7891799" lon="11.6087685"><ele>616.0</ele><time>2026-05-01T07:44:49.75Z</time></trkpt><trkpt lat="45.7892595" lon="11.6088046"><ele>616.0</ele><time>2026-05-01T07:45:20.749Z</time></trkpt><trkpt lat="45.7893333" lon="11.6088432"><ele>616.0</ele><time>2026-05-01T07:45:21.729Z</time></trkpt><trkpt lat="45.7894076" lon="11.6089006"><ele>616.0</ele><time>2026-05-01T07:45:22.743Z</time></trkpt><trkpt lat="45.7894725" lon="11.6089776"><ele>616.0</ele><time>2026-05-01T07:45:23.761Z</time></trkpt><trkpt lat="45.7895279" lon="11.6090746"><ele>616.3333333333334</ele><time>2026-05-01T07:45:24.743Z</time></trkpt><trkpt lat="45.7895701" lon="11.6091946"><ele>616.6666666666667</ele><time>2026-05-01T07:45:25.742Z</time></trkpt><trkpt lat="45.789608" lon="11.6093262"><ele>617.0</ele><time>2026-05-01T07:45:26.742Z</time></trkpt><trkpt lat="45.7896409" lon="11.6094545"><ele>617.3333333333334</ele><time>2026-05-01T07:45:27.758Z</time></trkpt><trkpt lat="45.7896675" lon="11.6095619"><ele>617.6666666666666</ele><time>2026-05-01T07:45:28.746Z</time></trkpt><trkpt lat="45.7896901" lon="11.6096631"><ele>618.0</ele><time>2026-05-01T07:45:29.747Z</time></trkpt><trkpt lat="45.7897066" lon="11.6097681"><ele>618.3333333333334</ele><time>2026-05-01T07:45:30.758Z</time></trkpt><trkpt lat="45.78972" lon="11.6098664"><ele>618.6666666666666</ele><time>2026-05-01T07:45:31.743Z</time></trkpt><trkpt lat="45.7897218" lon="11.6099618"><ele>619.0</ele><time>2026-05-01T07:45:32.747Z</time></trkpt><trkpt lat="45.789718" lon="11.6100566"><ele>619.3333333333333</ele><time>2026-05-01T07:45:33.749Z</time></trkpt><trkpt lat="45.7897013" lon="11.6102059"><ele>619.6666666666666</ele><time>2026-05-01T07:45:35.749Z</time></trkpt><trkpt lat="45.7896778" lon="11.6103579"><ele>620.0</ele><time>2026-05-01T07:45:37.748Z</time></trkpt><trkpt lat="45.7896544" lon="11.6105289"><ele>621.2857142857143</ele><time>2026-05-01T07:45:39.739Z</time></trkpt><trkpt lat="45.7896428" lon="11.6106212"><ele>622.5714285714286</ele><time>2026-05-01T07:45:40.74Z</time></trkpt><trkpt lat="45.7896296" lon="11.6107148"><ele>623.8571428571429</ele><time>2026-05-01T07:45:41.746Z</time></trkpt><trkpt lat="45.7896161" lon="11.6108095"><ele>625.1428571428571</ele><time>2026-05-01T07:45:42.745Z</time></trkpt><trkpt lat="45.7896088" lon="11.6109063"><ele>626.4285714285714</ele><time>2026-05-01T07:45:43.747Z</time></trkpt><trkpt lat="45.7896065" lon="11.611017"><ele>627.7142857142857</ele><time>2026-05-01T07:45:44.751Z</time></trkpt><trkpt lat="45.7896018" lon="11.6111213"><ele>629.0</ele><time>2026-05-01T07:45:45.747Z</time></trkpt><trkpt lat="45.7895957" lon="11.6112159"><ele>630.0</ele><time>2026-05-01T07:45:46.747Z</time></trkpt><trkpt lat="45.7895915" lon="11.6113136"><ele>631.0</ele><time>2026-05-01T07:45:47.74Z</time></trkpt><trkpt lat="45.7895901" lon="11.6114181"><ele>632.0</ele><time>2026-05-01T07:45:48.739Z</time></trkpt><trkpt lat="45.7895906" lon="11.6115172"><ele>633.0</ele><time>2026-05-01T07:45:49.748Z</time></trkpt><trkpt lat="45.7896061" lon="11.6116173"><ele>634.0</ele><time>2026-05-01T07:45:50.742Z</time></trkpt><trkpt lat="45.7896221" lon="11.6117225"><ele>635.0</ele><time>2026-05-01T07:45:51.739Z</time></trkpt><trkpt lat="45.7896428" lon="11.6118329"><ele>636.0</ele><time>2026-05-01T07:45:52.748Z</time></trkpt><trkpt lat="45.7896617" lon="11.6119432"><ele>636.4</ele><time>2026-05-01T07:45:53.748Z</time></trkpt><trkpt lat="45.7896781" lon="11.6120398"><ele>636.8</ele><time>2026-05-01T07:45:54.745Z</time></trkpt><trkpt lat="45.7897048" lon="11.6122123"><ele>637.1999999999999</ele><time>2026-05-01T07:45:56.764Z</time></trkpt><trkpt lat="45.7897415" lon="11.6123403"><ele>637.6</ele><time>2026-05-01T07:45:58.743Z</time></trkpt><trkpt lat="45.7898082" lon="11.6124651"><ele>638.0</ele><time>2026-05-01T07:46:00.743Z</time></trkpt><trkpt lat="45.7898495" lon="11.6125948"><ele>638.0</ele><time>2026-05-01T07:46:02.745Z</time></trkpt><trkpt lat="45.7898515" lon="11.6127587"><ele>638.0</ele><time>2026-05-01T07:46:04.751Z</time></trkpt><trkpt lat="45.7898135" lon="11.6128913"><ele>638.0</ele><time>2026-05-01T07:46:06.738Z</time></trkpt><trkpt lat="45.7897827" lon="11.6130109"><ele>638.0</ele><time>2026-05-01T07:46:08.744Z</time></trkpt><trkpt lat="45.7897419" lon="11.613118"><ele>638.0</ele><time>2026-05-01T07:46:10.738Z</time></trkpt><trkpt lat="45.7897052" lon="11.613239"><ele>639.0</ele><time>2026-05-01T07:46:12.753Z</time></trkpt><trkpt lat="45.7896771" lon="11.6133806"><ele>640.0</ele><time>2026-05-01T07:46:14.746Z</time></trkpt><trkpt lat="45.7896663" lon="11.613499"><ele>641.0</ele><time>2026-05-01T07:46:16.743Z</time></trkpt><trkpt lat="45.7896597" lon="11.6136365"><ele>642.0</ele><time>2026-05-01T07:46:18.743Z</time></trkpt><trkpt lat="45.7896451" lon="11.6137666"><ele>643.0</ele><time>2026-05-01T07:46:20.741Z</time></trkpt><trkpt lat="45.7896122" lon="11.6139126"><ele>644.0</ele><time>2026-05-01T07:46:22.739Z</time></trkpt><trkpt lat="45.7895684" lon="11.6140748"><ele>645.0</ele><time>2026-05-01T07:46:24.734Z</time></trkpt><trkpt lat="45.7895537" lon="11.6141663"><ele>646.0</ele><time>2026-05-01T07:46:25.742Z</time></trkpt><trkpt lat="45.7895418" lon="11.6142587"><ele>647.0</ele><time>2026-05-01T07:46:26.744Z</time></trkpt><trkpt lat="45.7895395" lon="11.6143591"><ele>648.0</ele><time>2026-05-01T07:46:27.742Z</time></trkpt><trkpt lat="45.7895421" lon="11.6145307"><ele>649.0</ele><time>2026-05-01T07:46:29.743Z</time></trkpt><trkpt lat="45.7895387" lon="11.6147336"><ele>650.4000000000001</ele><time>2026-05-01T07:46:31.742Z</time></trkpt><trkpt lat="45.7895356" lon="11.6148306"><ele>651.8</ele><time>2026-05-01T07:46:32.759Z</time></trkpt><trkpt lat="45.789524" lon="11.614985"><ele>653.2</ele><time>2026-05-01T07:46:34.748Z</time></trkpt><trkpt lat="45.7895139" lon="11.6151374"><ele>654.5999999999999</ele><time>2026-05-01T07:46:36.748Z</time></trkpt><trkpt lat="45.7894859" lon="11.6153048"><ele>656.0</ele><time>2026-05-01T07:46:38.751Z</time></trkpt><trkpt lat="45.7894466" lon="11.6154136"><ele>656.4</ele><time>2026-05-01T07:46:40.747Z</time></trkpt><trkpt lat="45.7893682" lon="11.6154862"><ele>656.8</ele><time>2026-05-01T07:46:42.742Z</time></trkpt><trkpt lat="45.7893018" lon="11.6155728"><ele>657.1999999999999</ele><time>2026-05-01T07:46:46.825Z</time></trkpt><trkpt lat="45.7893617" lon="11.6157703"><ele>657.5999999999999</ele><time>2026-05-01T07:46:50.748Z</time></trkpt><trkpt lat="45.7893902" lon="11.615895"><ele>658.0</ele><time>2026-05-01T07:46:53.748Z</time></trkpt><trkpt lat="45.7893955" lon="11.6160792"><ele>660.0</ele><time>2026-05-01T07:46:55.746Z</time></trkpt><trkpt lat="45.7894054" lon="11.6161891"><ele>662.0</ele><time>2026-05-01T07:46:56.744Z</time></trkpt><trkpt lat="45.7894259" lon="11.6162835"><ele>664.0</ele><time>2026-05-01T07:46:57.745Z</time></trkpt><trkpt lat="45.7894533" lon="11.6163871"><ele>666.0</ele><time>2026-05-01T07:46:58.742Z</time></trkpt><trkpt lat="45.7894741" lon="11.6164837"><ele>668.0</ele><time>2026-05-01T07:46:59.755Z</time></trkpt><trkpt lat="45.7894948" lon="11.6165801"><ele>670.0</ele><time>2026-05-01T07:47:00.755Z</time></trkpt><trkpt lat="45.7895123" lon="11.6166743"><ele>672.0</ele><time>2026-05-01T07:47:01.752Z</time></trkpt><trkpt lat="45.7895442" lon="11.6168212"><ele>672.8</ele><time>2026-05-01T07:47:03.752Z</time></trkpt><trkpt lat="45.7895814" lon="11.6169887"><ele>673.6</ele><time>2026-05-01T07:47:05.757Z</time></trkpt><trkpt lat="45.7896156" lon="11.6171399"><ele>674.4</ele><time>2026-05-01T07:47:07.749Z</time></trkpt><trkpt lat="45.7896318" lon="11.6173391"><ele>675.1999999999999</ele><time>2026-05-01T07:47:09.75Z</time></trkpt><trkpt lat="45.7896351" lon="11.6174476"><ele>676.0</ele><time>2026-05-01T07:47:10.748Z</time></trkpt><trkpt lat="45.7896488" lon="11.6175415"><ele>676.0</ele><time>2026-05-01T07:47:11.759Z</time></trkpt><trkpt lat="45.7896623" lon="11.6176583"><ele>676.0</ele><time>2026-05-01T07:47:12.742Z</time></trkpt><trkpt lat="45.7896748" lon="11.617761"><ele>676.0</ele><time>2026-05-01T07:47:13.753Z</time></trkpt><trkpt lat="45.7896947" lon="11.6179285"><ele>676.0</ele><time>2026-05-01T07:47:15.74Z</time></trkpt><trkpt lat="45.7897176" lon="11.6181165"><ele>676.0</ele><time>2026-05-01T07:47:17.748Z</time></trkpt><trkpt lat="45.7897408" lon="11.6182073"><ele>676.1666666666667</ele><time>2026-05-01T07:47:18.744Z</time></trkpt><trkpt lat="45.7897604" lon="11.6183149"><ele>676.3333333333334</ele><time>2026-05-01T07:47:19.756Z</time></trkpt><trkpt lat="45.7897799" lon="11.6184117"><ele>676.5</ele><time>2026-05-01T07:47:20.757Z</time></trkpt><trkpt lat="45.7897963" lon="11.6185805"><ele>676.6666666666666</ele><time>2026-05-01T07:47:22.734Z</time></trkpt><trkpt lat="45.7898062" lon="11.6186716"><ele>676.8333333333333</ele><time>2026-05-01T07:47:23.759Z</time></trkpt><trkpt lat="45.7898187" lon="11.6187775"><ele>677.0</ele><time>2026-05-01T07:47:24.751Z</time></trkpt><trkpt lat="45.7898198" lon="11.618891"><ele>678.0</ele><time>2026-05-01T07:47:25.756Z</time></trkpt><trkpt lat="45.7898271" lon="11.6190115"><ele>679.0</ele><time>2026-05-01T07:47:26.748Z</time></trkpt><trkpt lat="45.7898361" lon="11.6191331"><ele>680.0</ele><time>2026-05-01T07:47:27.74Z</time></trkpt><trkpt lat="45.7898318" lon="11.6192588"><ele>681.0</ele><time>2026-05-01T07:47:28.757Z</time></trkpt><trkpt lat="45.7898331" lon="11.6193576"><ele>682.0</ele><time>2026-05-01T07:47:29.74Z</time></trkpt><trkpt lat="45.7898348" lon="11.619464"><ele>683.0</ele><time>2026-05-01T07:47:30.738Z</time></trkpt><trkpt lat="45.7898374" lon="11.6195665"><ele>683.4285714285714</ele><time>2026-05-01T07:47:31.747Z</time></trkpt><trkpt lat="45.7898404" lon="11.6196784"><ele>683.8571428571429</ele><time>2026-05-01T07:47:32.752Z</time></trkpt><trkpt lat="45.789842" lon="11.6197825"><ele>684.2857142857142</ele><time>2026-05-01T07:47:33.752Z</time></trkpt><trkpt lat="45.7898432" lon="11.6198921"><ele>684.7142857142858</ele><time>2026-05-01T07:47:34.749Z</time></trkpt><trkpt lat="45.7898441" lon="11.6199874"><ele>685.1428571428571</ele><time>2026-05-01T07:47:35.757Z</time></trkpt><trkpt lat="45.7898452" lon="11.6200871"><ele>685.5714285714286</ele><time>2026-05-01T07:47:36.749Z</time></trkpt><trkpt lat="45.7898487" lon="11.6201919"><ele>686.0</ele><time>2026-05-01T07:47:37.749Z</time></trkpt><trkpt lat="45.7898456" lon="11.6203024"><ele>685.8333333333333</ele><time>2026-05-01T07:47:38.752Z</time></trkpt><trkpt lat="45.7898378" lon="11.6204084"><ele>685.6666666666666</ele><time>2026-05-01T07:47:39.756Z</time></trkpt><trkpt lat="45.7898312" lon="11.6205151"><ele>685.5</ele><time>2026-05-01T07:47:40.744Z</time></trkpt><trkpt lat="45.7898263" lon="11.6206333"><ele>685.3333333333334</ele><time>2026-05-01T07:47:41.747Z</time></trkpt><trkpt lat="45.7898175" lon="11.6207448"><ele>685.1666666666667</ele><time>2026-05-01T07:47:42.75Z</time></trkpt><trkpt lat="45.7897994" lon="11.6209331"><ele>685.0</ele><time>2026-05-01T07:47:44.76Z</time></trkpt><trkpt lat="45.7897847" lon="11.6210425"><ele>686.3333333333334</ele><time>2026-05-01T07:47:45.745Z</time></trkpt><trkpt lat="45.7897783" lon="11.6211668"><ele>687.6666666666667</ele><time>2026-05-01T07:47:46.761Z</time></trkpt><trkpt lat="45.7897795" lon="11.6212877"><ele>689.0</ele><time>2026-05-01T07:47:47.756Z</time></trkpt><trkpt lat="45.7897768" lon="11.621404"><ele>690.3333333333334</ele><time>2026-05-01T07:47:48.755Z</time></trkpt><trkpt lat="45.7897759" lon="11.6215046"><ele>691.6666666666666</ele><time>2026-05-01T07:47:49.749Z</time></trkpt><trkpt lat="45.7897724" lon="11.6215951"><ele>693.0</ele><time>2026-05-01T07:47:50.742Z</time></trkpt><trkpt lat="45.7897708" lon="11.6216893"><ele>693.0</ele><time>2026-05-01T07:47:51.741Z</time></trkpt><trkpt lat="45.7897753" lon="11.6217936"><ele>693.0</ele><time>2026-05-01T07:47:52.75Z</time></trkpt><trkpt lat="45.7897764" lon="11.6219062"><ele>693.0</ele><time>2026-05-01T07:47:53.736Z</time></trkpt><trkpt lat="45.7897702" lon="11.6220181"><ele>693.0</ele><time>2026-05-01T07:47:54.751Z</time></trkpt><trkpt lat="45.7897719" lon="11.6221208"><ele>693.0</ele><time>2026-05-01T07:47:55.742Z</time></trkpt><trkpt lat="45.7897764" lon="11.6222196"><ele>693.0</ele><time>2026-05-01T07:47:56.745Z</time></trkpt><trkpt lat="45.7897834" lon="11.6223168"><ele>693.0</ele><time>2026-05-01T07:47:57.76Z</time></trkpt><trkpt lat="45.7897891" lon="11.622492"><ele>694.1666666666666</ele><time>2026-05-01T07:47:59.751Z</time></trkpt><trkpt lat="45.7897872" lon="11.6225892"><ele>695.3333333333334</ele><time>2026-05-01T07:48:00.751Z</time></trkpt><trkpt lat="45.7897673" lon="11.6227864"><ele>696.5</ele><time>2026-05-01T07:48:02.741Z</time></trkpt><trkpt lat="45.7897536" lon="11.6229058"><ele>697.6666666666667</ele><time>2026-05-01T07:48:03.756Z</time></trkpt><trkpt lat="45.7897548" lon="11.6230128"><ele>698.8333333333334</ele><time>2026-05-01T07:48:04.757Z</time></trkpt><trkpt lat="45.7897526" lon="11.6231129"><ele>700.0</ele><time>2026-05-01T07:48:05.752Z</time></trkpt><trkpt lat="45.7897611" lon="11.6232201"><ele>700.3333333333334</ele><time>2026-05-01T07:48:06.755Z</time></trkpt><trkpt lat="45.7897716" lon="11.6233286"><ele>700.6666666666667</ele><time>2026-05-01T07:48:07.747Z</time></trkpt><trkpt lat="45.7897866" lon="11.6234416"><ele>701.0</ele><time>2026-05-01T07:48:08.751Z</time></trkpt><trkpt lat="45.7898078" lon="11.6235574"><ele>701.3333333333334</ele><time>2026-05-01T07:48:09.757Z</time></trkpt><trkpt lat="45.7898316" lon="11.6236793"><ele>701.6666666666666</ele><time>2026-05-01T07:48:10.76Z</time></trkpt><trkpt lat="45.7898466" lon="11.6238059"><ele>702.0</ele><time>2026-05-01T07:48:11.751Z</time></trkpt><trkpt lat="45.7898605" lon="11.6239131"><ele>702.0</ele><time>2026-05-01T07:48:12.74Z</time></trkpt><trkpt lat="45.7898824" lon="11.6240527"><ele>702.0</ele><time>2026-05-01T07:48:14.75Z</time></trkpt><trkpt lat="45.7898987" lon="11.6242059"><ele>702.0</ele><time>2026-05-01T07:48:16.756Z</time></trkpt><trkpt lat="45.7898985" lon="11.6242973"><ele>702.0</ele><time>2026-05-01T07:48:17.745Z</time></trkpt><trkpt lat="45.7899069" lon="11.6243995"><ele>702.0</ele><time>2026-05-01T07:48:18.747Z</time></trkpt><trkpt lat="45.789911" lon="11.6244901"><ele>702.0</ele><time>2026-05-01T07:48:19.744Z</time></trkpt><trkpt lat="45.7899143" lon="11.6245899"><ele>702.1428571428572</ele><time>2026-05-01T07:48:20.756Z</time></trkpt><trkpt lat="45.7899165" lon="11.6246971"><ele>702.2857142857143</ele><time>2026-05-01T07:48:21.755Z</time></trkpt><trkpt lat="45.7899228" lon="11.6248017"><ele>702.4285714285714</ele><time>2026-05-01T07:48:22.759Z</time></trkpt><trkpt lat="45.7899269" lon="11.6248997"><ele>702.5714285714287</ele><time>2026-05-01T07:48:23.742Z</time></trkpt><trkpt lat="45.7899314" lon="11.6249918"><ele>702.7142857142858</ele><time>2026-05-01T07:48:24.747Z</time></trkpt><trkpt lat="45.7899317" lon="11.6250844"><ele>702.8571428571429</ele><time>2026-05-01T07:48:25.749Z</time></trkpt><trkpt lat="45.7899326" lon="11.6251817"><ele>703.0</ele><time>2026-05-01T07:48:26.748Z</time></trkpt><trkpt lat="45.7899357" lon="11.6252928"><ele>703.5999999999999</ele><time>2026-05-01T07:48:27.755Z</time></trkpt><trkpt lat="45.7899368" lon="11.6253949"><ele>704.1999999999999</ele><time>2026-05-01T07:48:28.75Z</time></trkpt><trkpt lat="45.7899522" lon="11.6255635"><ele>704.8</ele><time>2026-05-01T07:48:30.746Z</time></trkpt><trkpt lat="45.7899717" lon="11.6256633"><ele>705.4</ele><time>2026-05-01T07:48:31.743Z</time></trkpt><trkpt lat="45.7900073" lon="11.6258264"><ele>706.0</ele><time>2026-05-01T07:48:33.75Z</time></trkpt><trkpt lat="45.7900319" lon="11.6259248"><ele>706.0</ele><time>2026-05-01T07:48:34.746Z</time></trkpt><trkpt lat="45.7900587" lon="11.6260252"><ele>706.0</ele><time>2026-05-01T07:48:35.756Z</time></trkpt><trkpt lat="45.7900807" lon="11.6261279"><ele>706.0</ele><time>2026-05-01T07:48:36.745Z</time></trkpt><trkpt lat="45.7901057" lon="11.6262997"><ele>706.0</ele><time>2026-05-01T07:48:38.766Z</time></trkpt><trkpt lat="45.7901129" lon="11.6264449"><ele>706.0</ele><time>2026-05-01T07:48:40.751Z</time></trkpt><trkpt lat="45.7900729" lon="11.6266052"><ele>705.5999999999999</ele><time>2026-05-01T07:48:42.753Z</time></trkpt><trkpt lat="45.790031" lon="11.6267533"><ele>705.2</ele><time>2026-05-01T07:48:44.75Z</time></trkpt><trkpt lat="45.7900577" lon="11.6268472"><ele>704.8</ele><time>2026-05-01T07:48:46.739Z</time></trkpt><trkpt lat="45.7901284" lon="11.6269177"><ele>704.4000000000001</ele><time>2026-05-01T07:48:48.73Z</time></trkpt><trkpt lat="45.7902069" lon="11.6269827"><ele>704.0</ele><time>2026-05-01T07:48:50.732Z</time></trkpt><trkpt lat="45.7902791" lon="11.6271446"><ele>706.0</ele><time>2026-05-01T07:48:52.751Z</time></trkpt><trkpt lat="45.7903177" lon="11.6272443"><ele>708.0</ele><time>2026-05-01T07:48:53.756Z</time></trkpt><trkpt lat="45.7903564" lon="11.6273236"><ele>710.0</ele><time>2026-05-01T07:48:54.726Z</time></trkpt><trkpt lat="45.7903874" lon="11.6274091"><ele>712.0</ele><time>2026-05-01T07:48:55.761Z</time></trkpt><trkpt lat="45.7904098" lon="11.6275058"><ele>714.0</ele><time>2026-05-01T07:48:56.738Z</time></trkpt><trkpt lat="45.7904394" lon="11.6276178"><ele>716.0</ele><time>2026-05-01T07:48:57.754Z</time></trkpt><trkpt lat="45.790464" lon="11.6277302"><ele>715.5999999999999</ele><time>2026-05-01T07:48:58.734Z</time></trkpt><trkpt lat="45.7904952" lon="11.6278395"><ele>715.2</ele><time>2026-05-01T07:48:59.76Z</time></trkpt><trkpt lat="45.79053" lon="11.6279402"><ele>714.8</ele><time>2026-05-01T07:49:00.752Z</time></trkpt><trkpt lat="45.7905874" lon="11.6280772"><ele>714.4000000000001</ele><time>2026-05-01T07:49:02.753Z</time></trkpt><trkpt lat="45.7906554" lon="11.628208"><ele>714.0</ele><time>2026-05-01T07:49:04.755Z</time></trkpt><trkpt lat="45.7907334" lon="11.6283407"><ele>714.0</ele><time>2026-05-01T07:49:06.752Z</time></trkpt><trkpt lat="45.790808" lon="11.6284324"><ele>714.0</ele><time>2026-05-01T07:49:08.759Z</time></trkpt><trkpt lat="45.7908718" lon="11.6285692"><ele>714.0</ele><time>2026-05-01T07:49:10.73Z</time></trkpt><trkpt lat="45.7908954" lon="11.6286534"><ele>714.0</ele><time>2026-05-01T07:49:11.747Z</time></trkpt><trkpt lat="45.7909364" lon="11.6288214"><ele>714.0</ele><time>2026-05-01T07:49:13.768Z</time></trkpt><trkpt lat="45.7909601" lon="11.6289121"><ele>715.6</ele><time>2026-05-01T07:49:14.763Z</time></trkpt><trkpt lat="45.7909833" lon="11.6290035"><ele>717.2</ele><time>2026-05-01T07:49:15.761Z</time></trkpt><trkpt lat="45.7909972" lon="11.6290945"><ele>718.8000000000001</ele><time>2026-05-01T07:49:16.748Z</time></trkpt><trkpt lat="45.7909936" lon="11.6292563"><ele>720.4000000000001</ele><time>2026-05-01T07:49:18.753Z</time></trkpt><trkpt lat="45.7909401" lon="11.6293848"><ele>722.0</ele><time>2026-05-01T07:49:20.755Z</time></trkpt><trkpt lat="45.7908577" lon="11.6294698"><ele>722.0</ele><time>2026-05-01T07:49:22.76Z</time></trkpt><trkpt lat="45.7908049" lon="11.6295244"><ele>722.0</ele><time>2026-05-01T07:49:24.769Z</time></trkpt><trkpt lat="45.790755" lon="11.6294308"><ele>722.0</ele><time>2026-05-01T07:51:19.745Z</time></trkpt><trkpt lat="45.7906855" lon="11.6293488"><ele>722.0</ele><time>2026-05-01T07:51:21.747Z</time></trkpt><trkpt lat="45.7906303" lon="11.6293021"><ele>722.0</ele><time>2026-05-01T07:51:22.75Z</time></trkpt><trkpt lat="45.7905737" lon="11.6292543"><ele>722.0</ele><time>2026-05-01T07:51:23.751Z</time></trkpt><trkpt lat="45.7904995" lon="11.6291912"><ele>722.0</ele><time>2026-05-01T07:51:24.747Z</time></trkpt><trkpt lat="45.7904169" lon="11.6291266"><ele>722.0</ele><time>2026-05-01T07:51:25.764Z</time></trkpt><trkpt lat="45.7903269" lon="11.6290521"><ele>722.0</ele><time>2026-05-01T07:51:26.749Z</time></trkpt><trkpt lat="45.790238" lon="11.6289773"><ele>722.0</ele><time>2026-05-01T07:51:27.749Z</time></trkpt><trkpt lat="45.7901565" lon="11.6289016"><ele>722.0</ele><time>2026-05-01T07:51:28.748Z</time></trkpt><trkpt lat="45.7900768" lon="11.628828"><ele>722.0</ele><time>2026-05-01T07:51:29.753Z</time></trkpt><trkpt lat="45.7899969" lon="11.6287405"><ele>722.0</ele><time>2026-05-01T07:51:30.745Z</time></trkpt><trkpt lat="45.7899128" lon="11.62865"><ele>722.0</ele><time>2026-05-01T07:51:31.753Z</time></trkpt><trkpt lat="45.789832" lon="11.6285636"><ele>722.0</ele><time>2026-05-01T07:51:32.751Z</time></trkpt><trkpt lat="45.7897492" lon="11.6284797"><ele>722.0</ele><time>2026-05-01T07:51:33.759Z</time></trkpt><trkpt lat="45.7896678" lon="11.6284084"><ele>722.0</ele><time>2026-05-01T07:51:34.745Z</time></trkpt><trkpt lat="45.7895878" lon="11.6283383"><ele>722.0</ele><time>2026-05-01T07:51:35.744Z</time></trkpt><trkpt lat="45.78951" lon="11.6282698"><ele>722.0</ele><time>2026-05-01T07:51:36.745Z</time></trkpt><trkpt lat="45.7894327" lon="11.6282087"><ele>722.0</ele><time>2026-05-01T07:51:37.75Z</time></trkpt><trkpt lat="45.7893548" lon="11.6281587"><ele>722.0</ele><time>2026-05-01T07:51:38.745Z</time></trkpt><trkpt lat="45.7892748" lon="11.6281156"><ele>722.0</ele><time>2026-05-01T07:51:39.74Z</time></trkpt><trkpt lat="45.789201" lon="11.6280767"><ele>725.8</ele><time>2026-05-01T07:51:40.755Z</time></trkpt><trkpt lat="45.7891137" lon="11.6280467"><ele>729.6</ele><time>2026-05-01T07:51:41.743Z</time></trkpt><trkpt lat="45.7890255" lon="11.6280167"><ele>733.4</ele><time>2026-05-01T07:51:42.749Z</time></trkpt><trkpt lat="45.7889521" lon="11.6280037"><ele>737.1999999999999</ele><time>2026-05-01T07:51:43.76Z</time></trkpt><trkpt lat="45.7888216" lon="11.6280255"><ele>741.0</ele><time>2026-05-01T07:51:45.777Z</time></trkpt><trkpt lat="45.7887518" lon="11.6280505"><ele>741.0</ele><time>2026-05-01T07:51:46.76Z</time></trkpt><trkpt lat="45.7886704" lon="11.6280913"><ele>741.0</ele><time>2026-05-01T07:51:47.766Z</time></trkpt><trkpt lat="45.7885913" lon="11.6281435"><ele>741.0</ele><time>2026-05-01T07:51:48.756Z</time></trkpt><trkpt lat="45.7885135" lon="11.6282029"><ele>741.0</ele><time>2026-05-01T07:51:49.754Z</time></trkpt><trkpt lat="45.788435" lon="11.6282642"><ele>741.0</ele><time>2026-05-01T07:51:50.763Z</time></trkpt><trkpt lat="45.7883559" lon="11.6283235"><ele>741.0</ele><time>2026-05-01T07:51:51.755Z</time></trkpt><trkpt lat="45.788275" lon="11.6283838"><ele>740.8333333333334</ele><time>2026-05-01T07:51:52.756Z</time></trkpt><trkpt lat="45.7881975" lon="11.6284422"><ele>740.6666666666666</ele><time>2026-05-01T07:51:53.759Z</time></trkpt><trkpt lat="45.7881147" lon="11.6285012"><ele>740.5</ele><time>2026-05-01T07:51:54.744Z</time></trkpt><trkpt lat="45.7880423" lon="11.6285588"><ele>740.3333333333333</ele><time>2026-05-01T07:51:55.76Z</time></trkpt><trkpt lat="45.7879736" lon="11.6286118"><ele>740.1666666666666</ele><time>2026-05-01T07:51:56.756Z</time></trkpt><trkpt lat="45.7879077" lon="11.6286629"><ele>740.0</ele><time>2026-05-01T07:51:57.743Z</time></trkpt><trkpt lat="45.7878487" lon="11.6287084"><ele>741.8</ele><time>2026-05-01T07:51:58.758Z</time></trkpt><trkpt lat="45.7877885" lon="11.6287491"><ele>743.6</ele><time>2026-05-01T07:51:59.759Z</time></trkpt><trkpt lat="45.7876758" lon="11.6288179"><ele>745.4000000000001</ele><time>2026-05-01T07:52:01.742Z</time></trkpt><trkpt lat="45.7875576" lon="11.6288705"><ele>747.2</ele><time>2026-05-01T07:52:03.757Z</time></trkpt><trkpt lat="45.7874895" lon="11.6288933"><ele>749.0</ele><time>2026-05-01T07:52:04.756Z</time></trkpt><trkpt lat="45.7874144" lon="11.6289076"><ele>749.0</ele><time>2026-05-01T07:52:05.751Z</time></trkpt><trkpt lat="45.7873357" lon="11.6289279"><ele>749.0</ele><time>2026-05-01T07:52:06.753Z</time></trkpt><trkpt lat="45.787257" lon="11.6289479"><ele>749.0</ele><time>2026-05-01T07:52:07.743Z</time></trkpt><trkpt lat="45.787176" lon="11.6289686"><ele>749.0</ele><time>2026-05-01T07:52:08.748Z</time></trkpt><trkpt lat="45.7870942" lon="11.6289915"><ele>749.0</ele><time>2026-05-01T07:52:09.753Z</time></trkpt><trkpt lat="45.7870243" lon="11.6290164"><ele>749.0</ele><time>2026-05-01T07:52:10.749Z</time></trkpt><trkpt lat="45.7869107" lon="11.6290576"><ele>748.8000000000001</ele><time>2026-05-01T07:52:12.752Z</time></trkpt><trkpt lat="45.7868074" lon="11.6291026"><ele>748.6</ele><time>2026-05-01T07:52:14.751Z</time></trkpt><trkpt lat="45.7867135" lon="11.6291575"><ele>748.4</ele><time>2026-05-01T07:52:21.763Z</time></trkpt><trkpt lat="45.7866326" lon="11.6291757"><ele>748.2</ele><time>2026-05-01T07:52:22.76Z</time></trkpt><trkpt lat="45.7865295" lon="11.6291979"><ele>748.0</ele><time>2026-05-01T07:52:23.753Z</time></trkpt><trkpt lat="45.7864108" lon="11.6292249"><ele>748.0</ele><time>2026-05-01T07:52:24.742Z</time></trkpt><trkpt lat="45.7862825" lon="11.6292566"><ele>748.0</ele><time>2026-05-01T07:52:25.748Z</time></trkpt><trkpt lat="45.7861555" lon="11.6292885"><ele>748.0</ele><time>2026-05-01T07:52:26.736Z</time></trkpt><trkpt lat="45.7860235" lon="11.6293215"><ele>748.0</ele><time>2026-05-01T07:52:27.748Z</time></trkpt><trkpt lat="45.7858955" lon="11.6293569"><ele>748.5</ele><time>2026-05-01T07:52:28.744Z</time></trkpt><trkpt lat="45.7857653" lon="11.6293938"><ele>749.0</ele><time>2026-05-01T07:52:29.748Z</time></trkpt><trkpt lat="45.7856312" lon="11.6294307"><ele>749.5</ele><time>2026-05-01T07:52:30.744Z</time></trkpt><trkpt lat="45.7854976" lon="11.6294699"><ele>750.0</ele><time>2026-05-01T07:52:31.756Z</time></trkpt><trkpt lat="45.7853591" lon="11.6295112"><ele>751.25</ele><time>2026-05-01T07:52:32.757Z</time></trkpt><trkpt lat="45.7852208" lon="11.6295523"><ele>752.5</ele><time>2026-05-01T07:52:33.747Z</time></trkpt><trkpt lat="45.7850851" lon="11.6295956"><ele>753.75</ele><time>2026-05-01T07:52:34.744Z</time></trkpt><trkpt lat="45.7849526" lon="11.6296359"><ele>755.0</ele><time>2026-05-01T07:52:35.741Z</time></trkpt><trkpt lat="45.7848206" lon="11.6296732"><ele>755.0</ele><time>2026-05-01T07:52:36.745Z</time></trkpt><trkpt lat="45.7846987" lon="11.6297093"><ele>755.0</ele><time>2026-05-01T07:52:37.749Z</time></trkpt><trkpt lat="45.7845977" lon="11.629743"><ele>755.0</ele><time>2026-05-01T07:52:38.747Z</time></trkpt><trkpt lat="45.7845157" lon="11.6297703"><ele>755.0</ele><time>2026-05-01T07:52:39.746Z</time></trkpt><trkpt lat="45.784453" lon="11.6297962"><ele>755.0</ele><time>2026-05-01T07:52:40.743Z</time></trkpt><trkpt lat="45.7844051" lon="11.6298996"><ele>755.0</ele><time>2026-05-01T07:52:42.746Z</time></trkpt><trkpt lat="45.7844685" lon="11.6300517"><ele>755.0</ele><time>2026-05-01T07:52:44.744Z</time></trkpt><trkpt lat="45.7845232" lon="11.6301421"><ele>755.0</ele><time>2026-05-01T07:52:45.751Z</time></trkpt><trkpt lat="45.7845794" lon="11.6302388"><ele>755.0</ele><time>2026-05-01T07:52:46.748Z</time></trkpt><trkpt lat="45.7846325" lon="11.6303319"><ele>755.0</ele><time>2026-05-01T07:52:47.741Z</time></trkpt><trkpt lat="45.784668" lon="11.6304381"><ele>756.3333333333333</ele><time>2026-05-01T07:52:48.749Z</time></trkpt><trkpt lat="45.7846643" lon="11.6305546"><ele>757.6666666666666</ele><time>2026-05-01T07:52:49.749Z</time></trkpt><trkpt lat="45.7846607" lon="11.6306615"><ele>759.0</ele><time>2026-05-01T07:52:50.747Z</time></trkpt><trkpt lat="45.7846424" lon="11.6307563"><ele>760.3333333333334</ele><time>2026-05-01T07:52:51.748Z</time></trkpt><trkpt lat="45.7846181" lon="11.6308556"><ele>761.6666666666667</ele><time>2026-05-01T07:52:52.751Z</time></trkpt><trkpt lat="45.7845978" lon="11.6309481"><ele>763.0</ele><time>2026-05-01T07:52:53.746Z</time></trkpt><trkpt lat="45.784574" lon="11.6310854"><ele>764.5</ele><time>2026-05-01T07:52:55.754Z</time></trkpt><trkpt lat="45.7846164" lon="11.6312384"><ele>766.0</ele><time>2026-05-01T07:52:57.752Z</time></trkpt><trkpt lat="45.7846474" lon="11.6313212"><ele>767.5</ele><time>2026-05-01T07:52:58.747Z</time></trkpt><trkpt lat="45.7846847" lon="11.6314146"><ele>769.0</ele><time>2026-05-01T07:52:59.746Z</time></trkpt><trkpt lat="45.7847225" lon="11.6315026"><ele>770.4999999999999</ele><time>2026-05-01T07:53:00.752Z</time></trkpt><trkpt lat="45.7847636" lon="11.6315924"><ele>772.0</ele><time>2026-05-01T07:53:01.748Z</time></trkpt><trkpt lat="45.7848112" lon="11.6316816"><ele>771.9999999999999</ele><time>2026-05-01T07:53:02.761Z</time></trkpt><trkpt lat="45.7848625" lon="11.6317685"><ele>772.0</ele><time>2026-05-01T07:53:03.748Z</time></trkpt><trkpt lat="45.7849063" lon="11.6318488"><ele>772.0</ele><time>2026-05-01T07:53:04.791Z</time></trkpt><trkpt lat="45.7849489" lon="11.6319251"><ele>772.0</ele><time>2026-05-01T07:53:05.751Z</time></trkpt><trkpt lat="45.7849971" lon="11.6320116"><ele>771.9999999999999</ele><time>2026-05-01T07:53:06.751Z</time></trkpt><trkpt lat="45.7850463" lon="11.6321082"><ele>772.0</ele><time>2026-05-01T07:53:07.748Z</time></trkpt><trkpt lat="45.7850915" lon="11.6321996"><ele>772.9999999999999</ele><time>2026-05-01T07:53:08.744Z</time></trkpt><trkpt lat="45.7851331" lon="11.6322902"><ele>774.0</ele><time>2026-05-01T07:53:09.745Z</time></trkpt><trkpt lat="45.7851677" lon="11.6323756"><ele>775.0</ele><time>2026-05-01T07:53:10.759Z</time></trkpt><trkpt lat="45.7852147" lon="11.632542"><ele>776.0</ele><time>2026-05-01T07:53:12.746Z</time></trkpt><trkpt lat="45.7852464" lon="11.6326301"><ele>776.9999999999999</ele><time>2026-05-01T07:53:13.753Z</time></trkpt><trkpt lat="45.7852818" lon="11.6327269"><ele>778.0</ele><time>2026-05-01T07:53:14.749Z</time></trkpt><trkpt lat="45.7853084" lon="11.6328331"><ele>755.0</ele><time>2026-05-01T07:53:15.748Z</time></trkpt><trkpt lat="45.7845232" lon="11.6301421"><ele>755.0</ele><time>2026-05-01T07:52:45.751Z</time></trkpt><trkpt lat="45.7845794" lon="11.6302388"><ele>755.0</ele><time>2026-05-01T07:52:46.748Z</time></trkpt><trkpt lat="45.7846325" lon="11.6303319"><ele>755.0</ele><time>2026-05-01T07:52:47.741Z</time></trkpt><trkpt lat="45.784668" lon="11.6304381"><ele>755.0</ele><time>2026-05-01T07:52:48.749Z</time></trkpt><trkpt lat="45.7846643" lon="11.6305546"><ele>755.0</ele><time>2026-05-01T07:52:49.749Z</time></trkpt><trkpt lat="45.7846607" lon="11.6306615"><ele>755.0</ele><time>2026-05-01T07:52:50.747Z</time></trkpt><trkpt lat="45.7846424" lon="11.6307563"><ele>756.3333333333333</ele><time>2026-05-01T07:52:51.748Z</time></trkpt><trkpt lat="45.7846181" lon="11.6308556"><ele>757.6666666666666</ele><time>2026-05-01T07:52:52.751Z</time></trkpt><trkpt lat="45.7845978" lon="11.6309481"><ele>759.0</ele><time>2026-05-01T07:52:53.746Z</time></trkpt><trkpt lat="45.784574" lon="11.6310854"><ele>760.3333333333334</ele><time>2026-05-01T07:52:55.754Z</time></trkpt><trkpt lat="45.7846164" lon="11.6312384"><ele>761.6666666666667</ele><time>2026-05-01T07:52:57.752Z</time></trkpt><trkpt lat="45.7846474" lon="11.6313212"><ele>763.0</ele><time>2026-05-01T07:52:58.747Z</time></trkpt><trkpt lat="45.7846847" lon="11.6314146"><ele>764.2857142857143</ele><time>2026-05-01T07:52:59.746Z</time></trkpt><trkpt lat="45.7847225" lon="11.6315026"><ele>765.5714285714286</ele><time>2026-05-01T07:53:00.752Z</time></trkpt><trkpt lat="45.7847636" lon="11.6315924"><ele>766.8571428571429</ele><time>2026-05-01T07:53:01.748Z</time></trkpt><trkpt lat="45.7848112" lon="11.6316816"><ele>768.1428571428571</ele><time>2026-05-01T07:53:02.761Z</time></trkpt><trkpt lat="45.7848625" lon="11.6317685"><ele>769.4285714285714</ele><time>2026-05-01T07:53:03.748Z</time></trkpt><trkpt lat="45.7849063" lon="11.6318488"><ele>770.7142857142858</ele><time>2026-05-01T07:53:04.791Z</time></trkpt><trkpt lat="45.7849489" lon="11.6319251"><ele>772.0</ele><time>2026-05-01T07:53:05.751Z</time></trkpt><trkpt lat="45.7849971" lon="11.6320116"><ele>772.9999999999999</ele><time>2026-05-01T07:53:06.751Z</time></trkpt><trkpt lat="45.7850463" lon="11.6321082"><ele>774.0</ele><time>2026-05-01T07:53:07.748Z</time></trkpt><trkpt lat="45.7850915" lon="11.6321996"><ele>775.0</ele><time>2026-05-01T07:53:08.744Z</time></trkpt><trkpt lat="45.7851331" lon="11.6322902"><ele>776.0</ele><time>2026-05-01T07:53:09.745Z</time></trkpt><trkpt lat="45.7851677" lon="11.6323756"><ele>776.9999999999999</ele><time>2026-05-01T07:53:10.759Z</time></trkpt><trkpt lat="45.7852147" lon="11.632542"><ele>778.0</ele><time>2026-05-01T07:53:12.746Z</time></trkpt><trkpt lat="45.7852464" lon="11.6326301"><ele>781.4999999999999</ele><time>2026-05-01T07:53:13.753Z</time></trkpt><trkpt lat="45.7852818" lon="11.6327269"><ele>785.0</ele><time>2026-05-01T07:53:14.749Z</time></trkpt><trkpt lat="45.7853084" lon="11.6328331"><ele>788.5</ele><time>2026-05-01T07:53:15.748Z</time></trkpt><trkpt lat="45.7853375" lon="11.6329355"><ele>792.0</ele><time>2026-05-01T07:53:16.751Z</time></trkpt><trkpt lat="45.7853594" lon="11.6330343"><ele>795.4999999999999</ele><time>2026-05-01T07:53:17.749Z</time></trkpt><trkpt lat="45.7853837" lon="11.6331229"><ele>799.0</ele><time>2026-05-01T07:53:18.748Z</time></trkpt><trkpt lat="45.7854543" lon="11.6332857"><ele>800.3333333333333</ele><time>2026-05-01T07:53:20.755Z</time></trkpt><trkpt lat="45.7855021" lon="11.633366"><ele>801.6666666666666</ele><time>2026-05-01T07:53:21.752Z</time></trkpt><trkpt lat="45.7855587" lon="11.6334466"><ele>803.0</ele><time>2026-05-01T07:53:22.75Z</time></trkpt><trkpt lat="45.7856207" lon="11.6335235"><ele>804.3333333333333</ele><time>2026-05-01T07:53:23.752Z</time></trkpt><trkpt lat="45.7856839" lon="11.6336003"><ele>805.6666666666666</ele><time>2026-05-01T07:53:24.756Z</time></trkpt><trkpt lat="45.7857461" lon="11.6336796"><ele>807.0</ele><time>2026-05-01T07:53:25.754Z</time></trkpt><trkpt lat="45.7858097" lon="11.6337585"><ele>807.3333333333334</ele><time>2026-05-01T07:53:26.751Z</time></trkpt><trkpt lat="45.7858742" lon="11.6338344"><ele>807.6666666666667</ele><time>2026-05-01T07:53:27.752Z</time></trkpt><trkpt lat="45.7859362" lon="11.633899"><ele>808.0</ele><time>2026-05-01T07:53:28.75Z</time></trkpt><trkpt lat="45.7859993" lon="11.6339503"><ele>808.3333333333334</ele><time>2026-05-01T07:53:29.75Z</time></trkpt><trkpt lat="45.786064" lon="11.6339868"><ele>808.6666666666667</ele><time>2026-05-01T07:53:30.749Z</time></trkpt><trkpt lat="45.7861342" lon="11.6340115"><ele>809.0</ele><time>2026-05-01T07:53:31.74Z</time></trkpt><trkpt lat="45.7862106" lon="11.6340362"><ele>812.4000000000001</ele><time>2026-05-01T07:53:32.748Z</time></trkpt><trkpt lat="45.7862801" lon="11.6340611"><ele>815.8</ele><time>2026-05-01T07:53:33.748Z</time></trkpt><trkpt lat="45.7863821" lon="11.6341438"><ele>819.2</ele><time>2026-05-01T07:53:35.752Z</time></trkpt><trkpt lat="45.7864491" lon="11.6342282"><ele>822.5999999999999</ele><time>2026-05-01T07:53:37.749Z</time></trkpt><trkpt lat="45.7864988" lon="11.6340986"><ele>826.0</ele><time>2026-05-01T07:53:41.754Z</time></trkpt><trkpt lat="45.7865078" lon="11.6339867"><ele>826.0</ele><time>2026-05-01T07:53:42.763Z</time></trkpt><trkpt lat="45.7865108" lon="11.6338623"><ele>826.0</ele><time>2026-05-01T07:53:43.749Z</time></trkpt><trkpt lat="45.7865185" lon="11.6337317"><ele>826.0</ele><time>2026-05-01T07:53:44.753Z</time></trkpt><trkpt lat="45.7865297" lon="11.6335968"><ele>826.0</ele><time>2026-05-01T07:53:45.751Z</time></trkpt><trkpt lat="45.7865543" lon="11.6334704"><ele>826.0</ele><time>2026-05-01T07:53:46.733Z</time></trkpt><trkpt lat="45.7865948" lon="11.6333473"><ele>825.9999999999999</ele><time>2026-05-01T07:53:47.75Z</time></trkpt><trkpt lat="45.7866446" lon="11.6332299"><ele>826.0</ele><time>2026-05-01T07:53:48.756Z</time></trkpt><trkpt lat="45.7866961" lon="11.6331175"><ele>826.0</ele><time>2026-05-01T07:53:49.753Z</time></trkpt><trkpt lat="45.7867395" lon="11.6330193"><ele>826.0</ele><time>2026-05-01T07:53:50.76Z</time></trkpt><trkpt lat="45.7867814" lon="11.6329272"><ele>825.9999999999999</ele><time>2026-05-01T07:53:51.753Z</time></trkpt><trkpt lat="45.7868309" lon="11.6328272"><ele>826.0</ele><time>2026-05-01T07:53:52.753Z</time></trkpt><trkpt lat="45.78689" lon="11.6327238"><ele>824.5999999999999</ele><time>2026-05-01T07:53:53.757Z</time></trkpt><trkpt lat="45.7869552" lon="11.6326253"><ele>823.2</ele><time>2026-05-01T07:53:54.756Z</time></trkpt><trkpt lat="45.7870233" lon="11.6325333"><ele>821.8</ele><time>2026-05-01T07:53:55.742Z</time></trkpt><trkpt lat="45.7870939" lon="11.6324492"><ele>820.4000000000001</ele><time>2026-05-01T07:53:56.742Z</time></trkpt><trkpt lat="45.7871655" lon="11.632372"><ele>819.0</ele><time>2026-05-01T07:53:57.755Z</time></trkpt><trkpt lat="45.7872395" lon="11.6323049"><ele>819.0</ele><time>2026-05-01T07:53:58.745Z</time></trkpt><trkpt lat="45.7873144" lon="11.6322431"><ele>819.0</ele><time>2026-05-01T07:53:59.75Z</time></trkpt><trkpt lat="45.7873892" lon="11.6321829"><ele>819.0</ele><time>2026-05-01T07:54:00.755Z</time></trkpt><trkpt lat="45.7874649" lon="11.6321278"><ele>819.0</ele><time>2026-05-01T07:54:01.762Z</time></trkpt><trkpt lat="45.7875421" lon="11.6320767"><ele>819.0</ele><time>2026-05-01T07:54:02.754Z</time></trkpt><trkpt lat="45.787618" lon="11.6320286"><ele>819.0</ele><time>2026-05-01T07:54:03.751Z</time></trkpt><trkpt lat="45.7876923" lon="11.6319877"><ele>818.1428571428571</ele><time>2026-05-01T07:54:04.754Z</time></trkpt><trkpt lat="45.7877651" lon="11.6319522"><ele>817.2857142857142</ele><time>2026-05-01T07:54:05.749Z</time></trkpt><trkpt lat="45.7878343" lon="11.6319213"><ele>816.4285714285714</ele><time>2026-05-01T07:54:06.75Z</time></trkpt><trkpt lat="45.7878992" lon="11.6319112"><ele>815.5714285714286</ele><time>2026-05-01T07:54:07.756Z</time></trkpt><trkpt lat="45.7879659" lon="11.6319327"><ele>814.7142857142857</ele><time>2026-05-01T07:54:08.753Z</time></trkpt><trkpt lat="45.7880293" lon="11.6319845"><ele>813.8571428571429</ele><time>2026-05-01T07:54:09.746Z</time></trkpt><trkpt lat="45.7880893" lon="11.6320603"><ele>813.0</ele><time>2026-05-01T07:54:10.747Z</time></trkpt><trkpt lat="45.7881534" lon="11.6321422"><ele>813.0</ele><time>2026-05-01T07:54:11.774Z</time></trkpt><trkpt lat="45.7882248" lon="11.6322212"><ele>813.0</ele><time>2026-05-01T07:54:12.758Z</time></trkpt><trkpt lat="45.7882991" lon="11.6322957"><ele>813.0</ele><time>2026-05-01T07:54:13.75Z</time></trkpt><trkpt lat="45.7883714" lon="11.6323682"><ele>813.0</ele><time>2026-05-01T07:54:14.765Z</time></trkpt><trkpt lat="45.7884389" lon="11.6324316"><ele>813.0</ele><time>2026-05-01T07:54:15.759Z</time></trkpt><trkpt lat="45.7884963" lon="11.6324858"><ele>813.0</ele><time>2026-05-01T07:54:16.748Z</time></trkpt><trkpt lat="45.7885509" lon="11.6325385"><ele>813.5</ele><time>2026-05-01T07:54:17.748Z</time></trkpt><trkpt lat="45.7886161" lon="11.6325446"><ele>814.0</ele><time>2026-05-01T07:54:18.754Z</time></trkpt><trkpt lat="45.7886908" lon="11.632517"><ele>814.5</ele><time>2026-05-01T07:54:19.751Z</time></trkpt><trkpt lat="45.7887674" lon="11.6324728"><ele>815.0</ele><time>2026-05-01T07:54:20.762Z</time></trkpt><trkpt lat="45.7888514" lon="11.6324346"><ele>815.5</ele><time>2026-05-01T07:54:21.745Z</time></trkpt><trkpt lat="45.7889369" lon="11.6323956"><ele>816.0</ele><time>2026-05-01T07:54:22.747Z</time></trkpt><trkpt lat="45.7890369" lon="11.6323719"><ele>816.0</ele><time>2026-05-01T07:54:23.748Z</time></trkpt><trkpt lat="45.7891468" lon="11.6323602"><ele>816.0</ele><time>2026-05-01T07:54:24.748Z</time></trkpt><trkpt lat="45.7892436" lon="11.6323513"><ele>816.0</ele><time>2026-05-01T07:54:25.749Z</time></trkpt><trkpt lat="45.7893383" lon="11.6323582"><ele>816.0</ele><time>2026-05-01T07:54:26.747Z</time></trkpt><trkpt lat="45.7894409" lon="11.6323917"><ele>816.0</ele><time>2026-05-01T07:54:27.743Z</time></trkpt><trkpt lat="45.7895508" lon="11.6324294"><ele>815.1999999999999</ele><time>2026-05-01T07:54:28.756Z</time></trkpt><trkpt lat="45.789657" lon="11.6324703"><ele>814.4</ele><time>2026-05-01T07:54:29.747Z</time></trkpt><trkpt lat="45.7897615" lon="11.6325096"><ele>813.6</ele><time>2026-05-01T07:54:30.741Z</time></trkpt><trkpt lat="45.789858" lon="11.6325538"><ele>812.8</ele><time>2026-05-01T07:54:31.747Z</time></trkpt><trkpt lat="45.7899423" lon="11.6325938"><ele>812.0</ele><time>2026-05-01T07:54:32.746Z</time></trkpt><trkpt lat="45.790015" lon="11.6326234"><ele>812.0000000000001</ele><time>2026-05-01T07:54:33.749Z</time></trkpt><trkpt lat="45.7900769" lon="11.6326437"><ele>812.0</ele><time>2026-05-01T07:54:34.754Z</time></trkpt><trkpt lat="45.7901371" lon="11.6326708"><ele>812.0</ele><time>2026-05-01T07:54:35.744Z</time></trkpt><trkpt lat="45.7902362" lon="11.632687"><ele>812.0</ele><time>2026-05-01T07:54:37.749Z</time></trkpt><trkpt lat="45.7903169" lon="11.6327186"><ele>812.0000000000001</ele><time>2026-05-01T07:54:39.745Z</time></trkpt><trkpt lat="45.790403" lon="11.6327847"><ele>812.0</ele><time>2026-05-01T07:54:41.75Z</time></trkpt><trkpt lat="45.7904524" lon="11.6328592"><ele>810.4000000000001</ele><time>2026-05-01T07:54:42.746Z</time></trkpt><trkpt lat="45.7905004" lon="11.6329682"><ele>808.8000000000001</ele><time>2026-05-01T07:54:43.745Z</time></trkpt><trkpt lat="45.7905445" lon="11.6330845"><ele>807.2</ele><time>2026-05-01T07:54:44.746Z</time></trkpt><trkpt lat="45.7905817" lon="11.6332112"><ele>805.6</ele><time>2026-05-01T07:54:45.741Z</time></trkpt><trkpt lat="45.7906211" lon="11.6333303"><ele>804.0</ele><time>2026-05-01T07:54:46.752Z</time></trkpt><trkpt lat="45.7906645" lon="11.6334374"><ele>804.0</ele><time>2026-05-01T07:54:47.746Z</time></trkpt><trkpt lat="45.7907113" lon="11.6335394"><ele>804.0</ele><time>2026-05-01T07:54:48.738Z</time></trkpt><trkpt lat="45.7907545" lon="11.6336494"><ele>804.0</ele><time>2026-05-01T07:54:49.742Z</time></trkpt><trkpt lat="45.7907969" lon="11.6337448"><ele>804.0</ele><time>2026-05-01T07:54:50.76Z</time></trkpt><trkpt lat="45.7908488" lon="11.6338037"><ele>804.0</ele><time>2026-05-01T07:54:51.759Z</time></trkpt><trkpt lat="45.7909163" lon="11.633845"><ele>804.0</ele><time>2026-05-01T07:54:52.742Z</time></trkpt><trkpt lat="45.7909941" lon="11.6338859"><ele>804.0</ele><time>2026-05-01T07:54:53.746Z</time></trkpt><trkpt lat="45.7910863" lon="11.6339046"><ele>804.0</ele><time>2026-05-01T07:54:54.747Z</time></trkpt><trkpt lat="45.7911677" lon="11.6339253"><ele>804.0</ele><time>2026-05-01T07:54:55.749Z</time></trkpt><trkpt lat="45.7912509" lon="11.6339569"><ele>804.0</ele><time>2026-05-01T07:54:56.736Z</time></trkpt><trkpt lat="45.7913407" lon="11.6339895"><ele>804.0</ele><time>2026-05-01T07:54:57.744Z</time></trkpt><trkpt lat="45.7914413" lon="11.63402"><ele>804.0</ele><time>2026-05-01T07:54:58.751Z</time></trkpt><trkpt lat="45.7915456" lon="11.6340406"><ele>804.0</ele><time>2026-05-01T07:54:59.741Z</time></trkpt><trkpt lat="45.7916389" lon="11.6340521"><ele>804.0</ele><time>2026-05-01T07:55:00.743Z</time></trkpt><trkpt lat="45.7917048" lon="11.6340494"><ele>804.0</ele><time>2026-05-01T07:55:01.745Z</time></trkpt><trkpt lat="45.791786" lon="11.6340509"><ele>804.0</ele><time>2026-05-01T07:55:02.744Z</time></trkpt><trkpt lat="45.7918616" lon="11.6340563"><ele>804.0</ele><time>2026-05-01T07:55:03.75Z</time></trkpt><trkpt lat="45.7919461" lon="11.6340387"><ele>803.1666666666666</ele><time>2026-05-01T07:55:04.742Z</time></trkpt><trkpt lat="45.7920204" lon="11.6340187"><ele>802.3333333333333</ele><time>2026-05-01T07:55:05.74Z</time></trkpt><trkpt lat="45.7920781" lon="11.6339719"><ele>801.5</ele><time>2026-05-01T07:55:06.752Z</time></trkpt><trkpt lat="45.7921181" lon="11.6338928"><ele>800.6666666666666</ele><time>2026-05-01T07:55:07.745Z</time></trkpt><trkpt lat="45.7921639" lon="11.6337808"><ele>799.8333333333333</ele><time>2026-05-01T07:55:08.743Z</time></trkpt><trkpt lat="45.7922278" lon="11.6336651"><ele>799.0</ele><time>2026-05-01T07:55:09.749Z</time></trkpt><trkpt lat="45.7922996" lon="11.6335693"><ele>798.9999999999999</ele><time>2026-05-01T07:55:10.746Z</time></trkpt><trkpt lat="45.7923651" lon="11.6334813"><ele>799.0</ele><time>2026-05-01T07:55:11.747Z</time></trkpt><trkpt lat="45.7924209" lon="11.6333922"><ele>799.0</ele><time>2026-05-01T07:55:12.748Z</time></trkpt><trkpt lat="45.7924751" lon="11.6333177"><ele>799.0</ele><time>2026-05-01T07:55:13.744Z</time></trkpt><trkpt lat="45.792524" lon="11.6332465"><ele>798.9999999999999</ele><time>2026-05-01T07:55:14.742Z</time></trkpt><trkpt lat="45.7925663" lon="11.6331768"><ele>799.0</ele><time>2026-05-01T07:55:15.748Z</time></trkpt><trkpt lat="45.7926544" lon="11.6330705"><ele>798.4000000000001</ele><time>2026-05-01T07:55:17.751Z</time></trkpt><trkpt lat="45.7927485" lon="11.6329867"><ele>797.8</ele><time>2026-05-01T07:55:19.733Z</time></trkpt><trkpt lat="45.7928198" lon="11.6329609"><ele>797.2</ele><time>2026-05-01T07:55:20.745Z</time></trkpt><trkpt lat="45.7929379" lon="11.6329461"><ele>796.5999999999999</ele><time>2026-05-01T07:55:22.745Z</time></trkpt><trkpt lat="45.793004" lon="11.6329457"><ele>796.0</ele><time>2026-05-01T07:55:23.748Z</time></trkpt><trkpt lat="45.7931225" lon="11.632954"><ele>795.9999999999999</ele><time>2026-05-01T07:55:25.755Z</time></trkpt><trkpt lat="45.7932347" lon="11.6329725"><ele>796.0</ele><time>2026-05-01T07:55:27.749Z</time></trkpt><trkpt lat="45.7933373" lon="11.6330111"><ele>796.0</ele><time>2026-05-01T07:55:29.747Z</time></trkpt><trkpt lat="45.793399" lon="11.6330362"><ele>796.0</ele><time>2026-05-01T07:55:30.752Z</time></trkpt><trkpt lat="45.7934682" lon="11.6330559"><ele>795.9999999999999</ele><time>2026-05-01T07:55:31.739Z</time></trkpt><trkpt lat="45.7935453" lon="11.633082"><ele>796.0</ele><time>2026-05-01T07:55:32.742Z</time></trkpt><trkpt lat="45.7936188" lon="11.6331091"><ele>792.3333333333333</ele><time>2026-05-01T07:55:33.741Z</time></trkpt><trkpt lat="45.7936918" lon="11.6331396"><ele>788.6666666666666</ele><time>2026-05-01T07:55:34.749Z</time></trkpt><trkpt lat="45.7937691" lon="11.633198"><ele>785.0</ele><time>2026-05-01T07:55:35.756Z</time></trkpt><trkpt lat="45.7938341" lon="11.6332693"><ele>781.3333333333333</ele><time>2026-05-01T07:55:36.752Z</time></trkpt><trkpt lat="45.7938972" lon="11.6333446"><ele>777.6666666666666</ele><time>2026-05-01T07:55:37.749Z</time></trkpt><trkpt lat="45.7939491" lon="11.6334131"><ele>774.0</ele><time>2026-05-01T07:55:38.752Z</time></trkpt><trkpt lat="45.7940006" lon="11.6334782"><ele>774.0</ele><time>2026-05-01T07:55:39.751Z</time></trkpt><trkpt lat="45.7940903" lon="11.633555"><ele>774.0</ele><time>2026-05-01T07:55:41.758Z</time></trkpt><trkpt lat="45.7942095" lon="11.6334799"><ele>774.0</ele><time>2026-05-01T07:55:43.748Z</time></trkpt><trkpt lat="45.7942576" lon="11.633404"><ele>774.0</ele><time>2026-05-01T07:55:44.745Z</time></trkpt><trkpt lat="45.7943003" lon="11.6333145"><ele>774.0</ele><time>2026-05-01T07:55:45.75Z</time></trkpt><trkpt lat="45.7943369" lon="11.6332359"><ele>774.0</ele><time>2026-05-01T07:55:46.744Z</time></trkpt><trkpt lat="45.7944158" lon="11.6331215"><ele>773.5</ele><time>2026-05-01T07:55:48.741Z</time></trkpt><trkpt lat="45.7944713" lon="11.6330782"><ele>773.0</ele><time>2026-05-01T07:55:49.741Z</time></trkpt><trkpt lat="45.7945808" lon="11.6330083"><ele>772.5</ele><time>2026-05-01T07:55:51.743Z</time></trkpt><trkpt lat="45.7946454" lon="11.6330143"><ele>772.0</ele><time>2026-05-01T07:55:52.745Z</time></trkpt><trkpt lat="45.7947143" lon="11.6330302"><ele>771.5</ele><time>2026-05-01T07:55:53.751Z</time></trkpt><trkpt lat="45.7947794" lon="11.6330518"><ele>771.0</ele><time>2026-05-01T07:55:54.748Z</time></trkpt><trkpt lat="45.7948664" lon="11.6330872"><ele>771.0</ele><time>2026-05-01T07:55:56.753Z</time></trkpt><trkpt lat="45.7949687" lon="11.6331403"><ele>771.0</ele><time>2026-05-01T07:55:58.743Z</time></trkpt><trkpt lat="45.7950517" lon="11.6331888"><ele>771.0</ele><time>2026-05-01T07:56:00.745Z</time></trkpt><trkpt lat="45.7951106" lon="11.6332503"><ele>771.0</ele><time>2026-05-01T07:56:02.74Z</time></trkpt><trkpt lat="45.7951691" lon="11.6333255"><ele>771.0</ele><time>2026-05-01T07:56:04.749Z</time></trkpt><trkpt lat="45.7952182" lon="11.6333889"><ele>771.0</ele><time>2026-05-01T07:56:06.745Z</time></trkpt><trkpt lat="45.7952916" lon="11.6334639"><ele>768.6666666666666</ele><time>2026-05-01T07:56:08.746Z</time></trkpt><trkpt lat="45.7953692" lon="11.6335408"><ele>766.3333333333334</ele><time>2026-05-01T07:56:10.739Z</time></trkpt><trkpt lat="45.7954374" lon="11.6335847"><ele>764.0</ele><time>2026-05-01T07:56:12.756Z</time></trkpt><trkpt lat="45.795488" lon="11.633497"><ele>761.6666666666667</ele><time>2026-05-01T07:56:14.74Z</time></trkpt><trkpt lat="45.7954887" lon="11.6334044"><ele>759.3333333333334</ele><time>2026-05-01T07:56:15.743Z</time></trkpt><trkpt lat="45.7954859" lon="11.6332843"><ele>757.0</ele><time>2026-05-01T07:56:16.748Z</time></trkpt><trkpt lat="45.7954851" lon="11.6331435"><ele>757.0</ele><time>2026-05-01T07:56:17.754Z</time></trkpt><trkpt lat="45.7954867" lon="11.6330038"><ele>757.0</ele><time>2026-05-01T07:56:18.745Z</time></trkpt><trkpt lat="45.7954934" lon="11.6328607"><ele>757.0</ele><time>2026-05-01T07:56:19.745Z</time></trkpt><trkpt lat="45.7955052" lon="11.6327102"><ele>757.0</ele><time>2026-05-01T07:56:20.748Z</time></trkpt><trkpt lat="45.795514" lon="11.6325535"><ele>757.0</ele><time>2026-05-01T07:56:21.75Z</time></trkpt><trkpt lat="45.7955227" lon="11.6324011"><ele>756.5</ele><time>2026-05-01T07:56:22.743Z</time></trkpt><trkpt lat="45.7955335" lon="11.6322718"><ele>756.0</ele><time>2026-05-01T07:56:23.744Z</time></trkpt><trkpt lat="45.7955381" lon="11.6321547"><ele>755.5</ele><time>2026-05-01T07:56:24.743Z</time></trkpt><trkpt lat="45.7955468" lon="11.6320434"><ele>755.0</ele><time>2026-05-01T07:56:25.74Z</time></trkpt><trkpt lat="45.7955564" lon="11.631938"><ele>754.5</ele><time>2026-05-01T07:56:26.745Z</time></trkpt><trkpt lat="45.7955636" lon="11.6318392"><ele>754.0</ele><time>2026-05-01T07:56:27.75Z</time></trkpt><trkpt lat="45.795578" lon="11.6316673"><ele>753.8333333333334</ele><time>2026-05-01T07:56:29.759Z</time></trkpt><trkpt lat="45.7955922" lon="11.6315175"><ele>753.6666666666667</ele><time>2026-05-01T07:56:31.744Z</time></trkpt><trkpt lat="45.7956046" lon="11.6314137"><ele>753.5</ele><time>2026-05-01T07:56:33.753Z</time></trkpt><trkpt lat="45.7956049" lon="11.6312728"><ele>753.3333333333334</ele><time>2026-05-01T07:56:44.763Z</time></trkpt><trkpt lat="45.7956078" lon="11.631158"><ele>753.1666666666666</ele><time>2026-05-01T07:56:46.749Z</time></trkpt><trkpt lat="45.7955925" lon="11.6310588"><ele>753.0</ele><time>2026-05-01T07:56:48.747Z</time></trkpt><trkpt lat="45.7955328" lon="11.6310037"><ele>752.0</ele><time>2026-05-01T07:56:57.739Z</time></trkpt></trkseg><trkseg><trkpt lat="45.7955484" lon="11.6310386"><ele>752.0</ele><time>2026-05-01T08:11:30.587Z</time></trkpt><trkpt lat="45.7956182" lon="11.6310511"><ele>752.0</ele><time>2026-05-01T08:11:34.577Z</time></trkpt><trkpt lat="45.7956983" lon="11.6309687"><ele>752.0</ele><time>2026-05-01T08:11:36.581Z</time></trkpt><trkpt lat="45.7957319" lon="11.6308837"><ele>752.0</ele><time>2026-05-01T08:11:37.576Z</time></trkpt><trkpt lat="45.795821" lon="11.6307796"><ele>752.0</ele><time>2026-05-01T08:11:39.598Z</time></trkpt><trkpt lat="45.7959438" lon="11.6308183"><ele>753.3333333333333</ele><time>2026-05-01T08:11:41.583Z</time></trkpt><trkpt lat="45.7960075" lon="11.6308754"><ele>754.6666666666666</ele><time>2026-05-01T08:11:42.588Z</time></trkpt><trkpt lat="45.7960686" lon="11.6309475"><ele>756.0</ele><time>2026-05-01T08:11:43.591Z</time></trkpt><trkpt lat="45.7961205" lon="11.631035"><ele>757.3333333333334</ele><time>2026-05-01T08:11:44.596Z</time></trkpt><trkpt lat="45.7961735" lon="11.6311312"><ele>758.6666666666667</ele><time>2026-05-01T08:11:45.591Z</time></trkpt><trkpt lat="45.796247" lon="11.6312056"><ele>760.0</ele><time>2026-05-01T08:11:46.579Z</time></trkpt><trkpt lat="45.7963415" lon="11.6312457"><ele>760.0</ele><time>2026-05-01T08:11:47.575Z</time></trkpt><trkpt lat="45.7964447" lon="11.6312633"><ele>760.0</ele><time>2026-05-01T08:11:48.578Z</time></trkpt><trkpt lat="45.7965518" lon="11.631285"><ele>760.0</ele><time>2026-05-01T08:11:49.573Z</time></trkpt><trkpt lat="45.7966567" lon="11.6313286"><ele>760.0</ele><time>2026-05-01T08:11:50.578Z</time></trkpt><trkpt lat="45.7967511" lon="11.6313739"><ele>760.0</ele><time>2026-05-01T08:11:51.581Z</time></trkpt><trkpt lat="45.7968391" lon="11.6314208"><ele>761.8</ele><time>2026-05-01T08:11:52.586Z</time></trkpt><trkpt lat="45.7969285" lon="11.6314681"><ele>763.6</ele><time>2026-05-01T08:11:53.585Z</time></trkpt><trkpt lat="45.7970212" lon="11.6315161"><ele>765.4000000000001</ele><time>2026-05-01T08:11:54.591Z</time></trkpt><trkpt lat="45.7971218" lon="11.6315695"><ele>767.2</ele><time>2026-05-01T08:11:55.582Z</time></trkpt><trkpt lat="45.7972316" lon="11.6316244"><ele>769.0</ele><time>2026-05-01T08:11:56.584Z</time></trkpt><trkpt lat="45.7973419" lon="11.6316853"><ele>769.0</ele><time>2026-05-01T08:11:57.583Z</time></trkpt><trkpt lat="45.7974524" lon="11.6317456"><ele>769.0</ele><time>2026-05-01T08:11:58.578Z</time></trkpt><trkpt lat="45.7975647" lon="11.6318043"><ele>769.0</ele><time>2026-05-01T08:11:59.587Z</time></trkpt><trkpt lat="45.7976736" lon="11.6318572"><ele>769.0</ele><time>2026-05-01T08:12:00.591Z</time></trkpt><trkpt lat="45.7977703" lon="11.6318993"><ele>770.2</ele><time>2026-05-01T08:12:01.587Z</time></trkpt><trkpt lat="45.7978655" lon="11.6319364"><ele>771.4000000000001</ele><time>2026-05-01T08:12:02.577Z</time></trkpt><trkpt lat="45.7979646" lon="11.6319696"><ele>772.6</ele><time>2026-05-01T08:12:03.574Z</time></trkpt><trkpt lat="45.7980683" lon="11.6320008"><ele>773.8</ele><time>2026-05-01T08:12:04.585Z</time></trkpt><trkpt lat="45.798175" lon="11.6320328"><ele>775.0</ele><time>2026-05-01T08:12:05.582Z</time></trkpt><trkpt lat="45.7982803" lon="11.6320762"><ele>775.6</ele><time>2026-05-01T08:12:06.583Z</time></trkpt><trkpt lat="45.7983802" lon="11.6321326"><ele>776.2</ele><time>2026-05-01T08:12:07.583Z</time></trkpt><trkpt lat="45.7984822" lon="11.6321891"><ele>776.8</ele><time>2026-05-01T08:12:08.581Z</time></trkpt><trkpt lat="45.7985854" lon="11.6322421"><ele>777.4</ele><time>2026-05-01T08:12:09.585Z</time></trkpt><trkpt lat="45.7986889" lon="11.632293"><ele>778.0</ele><time>2026-05-01T08:12:10.591Z</time></trkpt><trkpt lat="45.7987948" lon="11.6323338"><ele>779.2</ele><time>2026-05-01T08:12:11.579Z</time></trkpt><trkpt lat="45.7989048" lon="11.6323543"><ele>780.4</ele><time>2026-05-01T08:12:12.593Z</time></trkpt><trkpt lat="45.799019" lon="11.6323544"><ele>781.6</ele><time>2026-05-01T08:12:13.583Z</time></trkpt><trkpt lat="45.7991311" lon="11.6323406"><ele>782.8000000000001</ele><time>2026-05-01T08:12:14.591Z</time></trkpt><trkpt lat="45.7992281" lon="11.6323165"><ele>784.0</ele><time>2026-05-01T08:12:15.582Z</time></trkpt><trkpt lat="45.7993229" lon="11.6322927"><ele>785.8000000000001</ele><time>2026-05-01T08:12:16.584Z</time></trkpt><trkpt lat="45.7994009" lon="11.6321968"><ele>787.6</ele><time>2026-05-01T08:12:17.581Z</time></trkpt><trkpt lat="45.7994533" lon="11.6320624"><ele>789.4</ele><time>2026-05-01T08:12:18.582Z</time></trkpt><trkpt lat="45.7994878" lon="11.6319159"><ele>791.2</ele><time>2026-05-01T08:12:19.582Z</time></trkpt><trkpt lat="45.7995195" lon="11.6317804"><ele>793.0</ele><time>2026-05-01T08:12:20.579Z</time></trkpt><trkpt lat="45.799552" lon="11.6316728"><ele>792.9999999999999</ele><time>2026-05-01T08:12:21.587Z</time></trkpt><trkpt lat="45.7995904" lon="11.6316007"><ele>793.0</ele><time>2026-05-01T08:12:22.58Z</time></trkpt><trkpt lat="45.7996852" lon="11.6316161"><ele>793.0</ele><time>2026-05-01T08:12:24.587Z</time></trkpt><trkpt lat="45.7997114" lon="11.631699"><ele>793.0</ele><time>2026-05-01T08:12:25.581Z</time></trkpt><trkpt lat="45.7997324" lon="11.6318122"><ele>792.9999999999999</ele><time>2026-05-01T08:12:26.588Z</time></trkpt><trkpt lat="45.7997608" lon="11.6319373"><ele>793.0</ele><time>2026-05-01T08:12:27.566Z</time></trkpt><trkpt lat="45.7997933" lon="11.6320725"><ele>793.4</ele><time>2026-05-01T08:12:28.571Z</time></trkpt><trkpt lat="45.7998295" lon="11.6322132"><ele>793.8</ele><time>2026-05-01T08:12:29.586Z</time></trkpt><trkpt lat="45.7998673" lon="11.6323613"><ele>794.2</ele><time>2026-05-01T08:12:30.586Z</time></trkpt><trkpt lat="45.799906" lon="11.6325147"><ele>794.6</ele><time>2026-05-01T08:12:31.589Z</time></trkpt><trkpt lat="45.7999463" lon="11.6326744"><ele>795.0</ele><time>2026-05-01T08:12:32.577Z</time></trkpt><trkpt lat="45.7999889" lon="11.6328384"><ele>796.5</ele><time>2026-05-01T08:12:33.579Z</time></trkpt><trkpt lat="45.8000277" lon="11.6330025"><ele>798.0</ele><time>2026-05-01T08:12:34.595Z</time></trkpt><trkpt lat="45.8000583" lon="11.6331647"><ele>799.5</ele><time>2026-05-01T08:12:35.586Z</time></trkpt><trkpt lat="45.8000782" lon="11.6333295"><ele>801.0</ele><time>2026-05-01T08:12:36.59Z</time></trkpt><trkpt lat="45.8000874" lon="11.6335036"><ele>802.5</ele><time>2026-05-01T08:12:37.584Z</time></trkpt><trkpt lat="45.8000861" lon="11.6336821"><ele>804.0</ele><time>2026-05-01T08:12:38.578Z</time></trkpt><trkpt lat="45.8000799" lon="11.6338636"><ele>805.5</ele><time>2026-05-01T08:12:39.602Z</time></trkpt><trkpt lat="45.800073" lon="11.6340508"><ele>807.0</ele><time>2026-05-01T08:12:40.58Z</time></trkpt><trkpt lat="45.8000589" lon="11.634251"><ele>807.0</ele><time>2026-05-01T08:12:41.58Z</time></trkpt><trkpt lat="45.8000435" lon="11.6344599"><ele>807.0</ele><time>2026-05-01T08:12:42.578Z</time></trkpt><trkpt lat="45.7999894" lon="11.6346571"><ele>807.0</ele><time>2026-05-01T08:12:43.588Z</time></trkpt><trkpt lat="45.7999403" lon="11.6348346"><ele>807.0</ele><time>2026-05-01T08:12:44.582Z</time></trkpt><trkpt lat="45.7998937" lon="11.6349994"><ele>808.3333333333334</ele><time>2026-05-01T08:12:45.581Z</time></trkpt><trkpt lat="45.799851" lon="11.6351431"><ele>809.6666666666667</ele><time>2026-05-01T08:12:46.582Z</time></trkpt><trkpt lat="45.7998144" lon="11.6352713"><ele>811.0</ele><time>2026-05-01T08:12:47.576Z</time></trkpt><trkpt lat="45.7997851" lon="11.6353895"><ele>812.3333333333334</ele><time>2026-05-01T08:12:48.582Z</time></trkpt><trkpt lat="45.7997751" lon="11.6354995"><ele>813.6666666666667</ele><time>2026-05-01T08:12:49.585Z</time></trkpt><trkpt lat="45.7997989" lon="11.6355922"><ele>815.0</ele><time>2026-05-01T08:12:50.584Z</time></trkpt><trkpt lat="45.7998555" lon="11.635652"><ele>817.3333333333334</ele><time>2026-05-01T08:12:51.598Z</time></trkpt><trkpt lat="45.7999296" lon="11.6356649"><ele>819.6666666666667</ele><time>2026-05-01T08:12:52.594Z</time></trkpt><trkpt lat="45.8000082" lon="11.6356366"><ele>822.0</ele><time>2026-05-01T08:12:53.583Z</time></trkpt><trkpt lat="45.8000858" lon="11.6356065"><ele>824.3333333333333</ele><time>2026-05-01T08:12:54.59Z</time></trkpt><trkpt lat="45.8001618" lon="11.6355413"><ele>826.6666666666666</ele><time>2026-05-01T08:12:55.578Z</time></trkpt><trkpt lat="45.8002359" lon="11.6354774"><ele>829.0</ele><time>2026-05-01T08:12:56.592Z</time></trkpt><trkpt lat="45.800316" lon="11.6354486"><ele>829.4000000000001</ele><time>2026-05-01T08:12:57.581Z</time></trkpt><trkpt lat="45.8003967" lon="11.6354216"><ele>829.8</ele><time>2026-05-01T08:12:58.59Z</time></trkpt><trkpt lat="45.8004865" lon="11.6354474"><ele>830.2</ele><time>2026-05-01T08:12:59.584Z</time></trkpt><trkpt lat="45.8005826" lon="11.6355143"><ele>830.5999999999999</ele><time>2026-05-01T08:13:00.589Z</time></trkpt><trkpt lat="45.8006722" lon="11.6355997"><ele>831.0</ele><time>2026-05-01T08:13:01.584Z</time></trkpt><trkpt lat="45.8007596" lon="11.635684"><ele>831.0</ele><time>2026-05-01T08:13:02.584Z</time></trkpt><trkpt lat="45.8008431" lon="11.6357936"><ele>831.0</ele><time>2026-05-01T08:13:03.58Z</time></trkpt><trkpt lat="45.8009223" lon="11.6359008"><ele>831.0</ele><time>2026-05-01T08:13:04.589Z</time></trkpt><trkpt lat="45.8010065" lon="11.6359803"><ele>831.0</ele><time>2026-05-01T08:13:05.58Z</time></trkpt><trkpt lat="45.8011022" lon="11.6360153"><ele>831.0</ele><time>2026-05-01T08:13:06.57Z</time></trkpt><trkpt lat="45.8011981" lon="11.6360042"><ele>832.0</ele><time>2026-05-01T08:13:07.58Z</time></trkpt><trkpt lat="45.8012871" lon="11.6359618"><ele>833.0</ele><time>2026-05-01T08:13:08.571Z</time></trkpt><trkpt lat="45.8013756" lon="11.6359072"><ele>834.0</ele><time>2026-05-01T08:13:09.578Z</time></trkpt><trkpt lat="45.8014586" lon="11.6358544"><ele>835.0</ele><time>2026-05-01T08:13:10.581Z</time></trkpt><trkpt lat="45.8015203" lon="11.6357761"><ele>836.0</ele><time>2026-05-01T08:13:11.589Z</time></trkpt><trkpt lat="45.8015392" lon="11.6356603"><ele>837.0</ele><time>2026-05-01T08:13:12.585Z</time></trkpt><trkpt lat="45.8015751" lon="11.6355426"><ele>837.0</ele><time>2026-05-01T08:13:13.581Z</time></trkpt><trkpt lat="45.8015828" lon="11.635418"><ele>837.0</ele><time>2026-05-01T08:13:14.582Z</time></trkpt><trkpt lat="45.8016089" lon="11.6352967"><ele>837.0</ele><time>2026-05-01T08:13:15.58Z</time></trkpt><trkpt lat="45.8016312" lon="11.6351875"><ele>837.0</ele><time>2026-05-01T08:13:16.582Z</time></trkpt><trkpt lat="45.8016589" lon="11.6350878"><ele>837.0</ele><time>2026-05-01T08:13:17.586Z</time></trkpt><trkpt lat="45.8016955" lon="11.6349943"><ele>837.0</ele><time>2026-05-01T08:13:18.579Z</time></trkpt><trkpt lat="45.8017445" lon="11.6349033"><ele>836.1666666666666</ele><time>2026-05-01T08:13:19.591Z</time></trkpt><trkpt lat="45.8017921" lon="11.6348057"><ele>835.3333333333333</ele><time>2026-05-01T08:13:20.586Z</time></trkpt><trkpt lat="45.8018301" lon="11.6346921"><ele>834.5</ele><time>2026-05-01T08:13:21.588Z</time></trkpt><trkpt lat="45.8018563" lon="11.634569"><ele>833.6666666666666</ele><time>2026-05-01T08:13:22.577Z</time></trkpt><trkpt lat="45.801863" lon="11.6344486"><ele>832.8333333333333</ele><time>2026-05-01T08:13:23.581Z</time></trkpt><trkpt lat="45.8018588" lon="11.6343309"><ele>832.0</ele><time>2026-05-01T08:13:24.59Z</time></trkpt><trkpt lat="45.8018514" lon="11.6342058"><ele>834.3333333333333</ele><time>2026-05-01T08:13:25.592Z</time></trkpt><trkpt lat="45.8018467" lon="11.6340809"><ele>836.6666666666666</ele><time>2026-05-01T08:13:26.578Z</time></trkpt><trkpt lat="45.8018476" lon="11.633954"><ele>839.0</ele><time>2026-05-01T08:13:27.579Z</time></trkpt><trkpt lat="45.8018488" lon="11.6338327"><ele>841.3333333333333</ele><time>2026-05-01T08:13:28.58Z</time></trkpt><trkpt lat="45.8018709" lon="11.6337136"><ele>843.6666666666666</ele><time>2026-05-01T08:13:29.578Z</time></trkpt><trkpt lat="45.8018927" lon="11.6336039"><ele>846.0</ele><time>2026-05-01T08:13:30.593Z</time></trkpt><trkpt lat="45.8019416" lon="11.6335074"><ele>846.5</ele><time>2026-05-01T08:13:31.582Z</time></trkpt><trkpt lat="45.8019895" lon="11.633412"><ele>847.0</ele><time>2026-05-01T08:13:32.578Z</time></trkpt><trkpt lat="45.8020207" lon="11.6333014"><ele>847.5</ele><time>2026-05-01T08:13:33.586Z</time></trkpt><trkpt lat="45.8020271" lon="11.6331841"><ele>848.0</ele><time>2026-05-01T08:13:34.584Z</time></trkpt><trkpt lat="45.8020056" lon="11.63307"><ele>848.5</ele><time>2026-05-01T08:13:35.558Z</time></trkpt><trkpt lat="45.8019588" lon="11.6329708"><ele>849.0</ele><time>2026-05-01T08:13:36.568Z</time></trkpt><trkpt lat="45.8018953" lon="11.6328944"><ele>849.3333333333334</ele><time>2026-05-01T08:13:37.566Z</time></trkpt><trkpt lat="45.8018303" lon="11.6328186"><ele>849.6666666666667</ele><time>2026-05-01T08:13:38.559Z</time></trkpt><trkpt lat="45.8017784" lon="11.6327239"><ele>850.0</ele><time>2026-05-01T08:13:39.564Z</time></trkpt><trkpt lat="45.8017559" lon="11.6326124"><ele>850.3333333333334</ele><time>2026-05-01T08:13:40.562Z</time></trkpt><trkpt lat="45.8017607" lon="11.6324915"><ele>850.6666666666667</ele><time>2026-05-01T08:13:41.564Z</time></trkpt><trkpt lat="45.801789" lon="11.6323675"><ele>851.0</ele><time>2026-05-01T08:13:42.582Z</time></trkpt><trkpt lat="45.8018325" lon="11.632246"><ele>851.0</ele><time>2026-05-01T08:13:43.578Z</time></trkpt><trkpt lat="45.8018918" lon="11.632131"><ele>851.0</ele><time>2026-05-01T08:13:44.567Z</time></trkpt><trkpt lat="45.8019569" lon="11.6320242"><ele>851.0</ele><time>2026-05-01T08:13:45.582Z</time></trkpt><trkpt lat="45.8020294" lon="11.631926"><ele>851.0</ele><time>2026-05-01T08:13:46.582Z</time></trkpt><trkpt lat="45.8021152" lon="11.6318501"><ele>851.0</ele><time>2026-05-01T08:13:47.595Z</time></trkpt><trkpt lat="45.8022115" lon="11.631808"><ele>850.8</ele><time>2026-05-01T08:13:48.578Z</time></trkpt><trkpt lat="45.8023128" lon="11.6317927"><ele>850.5999999999999</ele><time>2026-05-01T08:13:49.576Z</time></trkpt><trkpt lat="45.8024184" lon="11.631798"><ele>850.4</ele><time>2026-05-01T08:13:50.589Z</time></trkpt><trkpt lat="45.8025279" lon="11.6318223"><ele>850.2</ele><time>2026-05-01T08:13:51.579Z</time></trkpt><trkpt lat="45.8026396" lon="11.6318536"><ele>850.0</ele><time>2026-05-01T08:13:52.582Z</time></trkpt><trkpt lat="45.8027548" lon="11.6318899"><ele>850.0</ele><time>2026-05-01T08:13:53.6Z</time></trkpt><trkpt lat="45.8028713" lon="11.6319259"><ele>850.0</ele><time>2026-05-01T08:13:54.582Z</time></trkpt><trkpt lat="45.8029794" lon="11.6319495"><ele>850.0</ele><time>2026-05-01T08:13:55.577Z</time></trkpt><trkpt lat="45.8030851" lon="11.6319418"><ele>850.0</ele><time>2026-05-01T08:13:56.575Z</time></trkpt><trkpt lat="45.803188" lon="11.6318863"><ele>850.0</ele><time>2026-05-01T08:13:57.579Z</time></trkpt><trkpt lat="45.8032867" lon="11.6317952"><ele>850.0</ele><time>2026-05-01T08:13:58.573Z</time></trkpt><trkpt lat="45.8033823" lon="11.6316938"><ele>850.0</ele><time>2026-05-01T08:13:59.578Z</time></trkpt><trkpt lat="45.8034801" lon="11.631594"><ele>850.0</ele><time>2026-05-01T08:14:00.586Z</time></trkpt><trkpt lat="45.8035816" lon="11.6314988"><ele>850.0</ele><time>2026-05-01T08:14:01.581Z</time></trkpt><trkpt lat="45.8036838" lon="11.6314087"><ele>851.8</ele><time>2026-05-01T08:14:02.59Z</time></trkpt><trkpt lat="45.8037845" lon="11.6313204"><ele>853.6</ele><time>2026-05-01T08:14:03.587Z</time></trkpt><trkpt lat="45.8038878" lon="11.6312363"><ele>855.4000000000001</ele><time>2026-05-01T08:14:04.58Z</time></trkpt><trkpt lat="45.8039854" lon="11.6311687"><ele>857.2</ele><time>2026-05-01T08:14:05.578Z</time></trkpt><trkpt lat="45.8040778" lon="11.6311052"><ele>859.0</ele><time>2026-05-01T08:14:06.551Z</time></trkpt><trkpt lat="45.8041603" lon="11.6310368"><ele>859.0</ele><time>2026-05-01T08:14:07.578Z</time></trkpt><trkpt lat="45.8042323" lon="11.6309544"><ele>859.0000000000001</ele><time>2026-05-01T08:14:08.579Z</time></trkpt><trkpt lat="45.8042933" lon="11.6308621"><ele>859.0000000000001</ele><time>2026-05-01T08:14:09.578Z</time></trkpt><trkpt lat="45.8043266" lon="11.6307483"><ele>859.0</ele><time>2026-05-01T08:14:10.585Z</time></trkpt><trkpt lat="45.8043295" lon="11.6306181"><ele>859.0</ele><time>2026-05-01T08:14:11.577Z</time></trkpt><trkpt lat="45.8043126" lon="11.6304764"><ele>859.0</ele><time>2026-05-01T08:14:12.571Z</time></trkpt><trkpt lat="45.804288" lon="11.6303261"><ele>859.0000000000001</ele><time>2026-05-01T08:14:13.584Z</time></trkpt><trkpt lat="45.8042636" lon="11.6301727"><ele>859.0000000000001</ele><time>2026-05-01T08:14:14.577Z</time></trkpt><trkpt lat="45.8042405" lon="11.6300159"><ele>859.0</ele><time>2026-05-01T08:14:15.578Z</time></trkpt><trkpt lat="45.8042099" lon="11.6298611"><ele>859.0</ele><time>2026-05-01T08:14:16.581Z</time></trkpt><trkpt lat="45.8041641" lon="11.6297156"><ele>859.8000000000001</ele><time>2026-05-01T08:14:17.582Z</time></trkpt><trkpt lat="45.8041065" lon="11.62958"><ele>860.6000000000001</ele><time>2026-05-01T08:14:18.58Z</time></trkpt><trkpt lat="45.8040473" lon="11.6294474"><ele>861.4</ele><time>2026-05-01T08:14:19.578Z</time></trkpt><trkpt lat="45.8040006" lon="11.6293036"><ele>862.2</ele><time>2026-05-01T08:14:20.577Z</time></trkpt><trkpt lat="45.803977" lon="11.6291482"><ele>863.0</ele><time>2026-05-01T08:14:21.58Z</time></trkpt><trkpt lat="45.8039702" lon="11.6289859"><ele>864.4</ele><time>2026-05-01T08:14:22.574Z</time></trkpt><trkpt lat="45.8039685" lon="11.6288215"><ele>865.8</ele><time>2026-05-01T08:14:23.583Z</time></trkpt><trkpt lat="45.8039757" lon="11.6286597"><ele>867.2</ele><time>2026-05-01T08:14:24.591Z</time></trkpt><trkpt lat="45.8040024" lon="11.6285034"><ele>868.6</ele><time>2026-05-01T08:14:25.587Z</time></trkpt><trkpt lat="45.8040545" lon="11.6283685"><ele>870.0</ele><time>2026-05-01T08:14:26.578Z</time></trkpt><trkpt lat="45.8041179" lon="11.6282559"><ele>871.4</ele><time>2026-05-01T08:14:27.592Z</time></trkpt><trkpt lat="45.8041776" lon="11.6281434"><ele>872.8</ele><time>2026-05-01T08:14:28.583Z</time></trkpt><trkpt lat="45.8042239" lon="11.628018"><ele>874.2</ele><time>2026-05-01T08:14:29.577Z</time></trkpt><trkpt lat="45.8042569" lon="11.6278906"><ele>875.6</ele><time>2026-05-01T08:14:30.593Z</time></trkpt><trkpt lat="45.8042642" lon="11.6277587"><ele>877.0</ele><time>2026-05-01T08:14:31.579Z</time></trkpt><trkpt lat="45.8042355" lon="11.6276274"><ele>877.6</ele><time>2026-05-01T08:14:32.586Z</time></trkpt><trkpt lat="45.8041796" lon="11.6275144"><ele>878.2</ele><time>2026-05-01T08:14:33.571Z</time></trkpt><trkpt lat="45.8041133" lon="11.6274134"><ele>878.8</ele><time>2026-05-01T08:14:34.582Z</time></trkpt><trkpt lat="45.804055" lon="11.6273116"><ele>879.4</ele><time>2026-05-01T08:14:35.581Z</time></trkpt><trkpt lat="45.8040232" lon="11.6271991"><ele>880.0</ele><time>2026-05-01T08:14:36.579Z</time></trkpt><trkpt lat="45.8040132" lon="11.6270742"><ele>882.4</ele><time>2026-05-01T08:14:37.581Z</time></trkpt><trkpt lat="45.804012" lon="11.6269413"><ele>884.8</ele><time>2026-05-01T08:14:38.583Z</time></trkpt><trkpt lat="45.8039992" lon="11.626805"><ele>887.2</ele><time>2026-05-01T08:14:39.581Z</time></trkpt><trkpt lat="45.803962" lon="11.6266718"><ele>889.6</ele><time>2026-05-01T08:14:40.577Z</time></trkpt><trkpt lat="45.8039103" lon="11.62654"><ele>892.0</ele><time>2026-05-01T08:14:41.592Z</time></trkpt><trkpt lat="45.8038624" lon="11.6264007"><ele>892.0</ele><time>2026-05-01T08:14:42.582Z</time></trkpt><trkpt lat="45.8038092" lon="11.626262"><ele>892.0</ele><time>2026-05-01T08:14:43.583Z</time></trkpt><trkpt lat="45.8037399" lon="11.6261355"><ele>892.0</ele><time>2026-05-01T08:14:44.582Z</time></trkpt><trkpt lat="45.8036598" lon="11.6260187"><ele>892.0</ele><time>2026-05-01T08:14:45.576Z</time></trkpt><trkpt lat="45.8035702" lon="11.6259146"><ele>890.5</ele><time>2026-05-01T08:14:46.582Z</time></trkpt><trkpt lat="45.8034674" lon="11.6258356"><ele>889.0</ele><time>2026-05-01T08:14:47.582Z</time></trkpt><trkpt lat="45.8033569" lon="11.6257759"><ele>887.5</ele><time>2026-05-01T08:14:48.583Z</time></trkpt><trkpt lat="45.8032423" lon="11.6257217"><ele>886.0</ele><time>2026-05-01T08:14:49.586Z</time></trkpt><trkpt lat="45.8031278" lon="11.6256594"><ele>886.0</ele><time>2026-05-01T08:14:50.578Z</time></trkpt><trkpt lat="45.8030169" lon="11.625585"><ele>886.0</ele><time>2026-05-01T08:14:51.579Z</time></trkpt><trkpt lat="45.8029101" lon="11.6255005"><ele>886.0</ele><time>2026-05-01T08:14:52.586Z</time></trkpt><trkpt lat="45.8028059" lon="11.6254108"><ele>886.0</ele><time>2026-05-01T08:14:53.582Z</time></trkpt><trkpt lat="45.802705" lon="11.6253131"><ele>888.0</ele><time>2026-05-01T08:14:54.589Z</time></trkpt><trkpt lat="45.8026104" lon="11.625203"><ele>890.0</ele><time>2026-05-01T08:14:55.576Z</time></trkpt><trkpt lat="45.8025195" lon="11.6250987"><ele>892.0</ele><time>2026-05-01T08:14:56.573Z</time></trkpt><trkpt lat="45.8024348" lon="11.624999"><ele>894.0</ele><time>2026-05-01T08:14:57.589Z</time></trkpt><trkpt lat="45.8023313" lon="11.6249377"><ele>894.0</ele><time>2026-05-01T08:14:58.576Z</time></trkpt><trkpt lat="45.8022297" lon="11.6248833"><ele>894.0</ele><time>2026-05-01T08:14:59.571Z</time></trkpt><trkpt lat="45.8021224" lon="11.6249231"><ele>894.0</ele><time>2026-05-01T08:15:00.579Z</time></trkpt><trkpt lat="45.8020209" lon="11.6250173"><ele>894.0</ele><time>2026-05-01T08:15:01.565Z</time></trkpt><trkpt lat="45.8019159" lon="11.6251074"><ele>896.0</ele><time>2026-05-01T08:15:02.577Z</time></trkpt><trkpt lat="45.8018061" lon="11.625184"><ele>898.0</ele><time>2026-05-01T08:15:03.592Z</time></trkpt><trkpt lat="45.8016901" lon="11.6252466"><ele>900.0</ele><time>2026-05-01T08:15:04.581Z</time></trkpt><trkpt lat="45.8015698" lon="11.6253137"><ele>902.0</ele><time>2026-05-01T08:15:05.575Z</time></trkpt><trkpt lat="45.8014406" lon="11.6253653"><ele>900.25</ele><time>2026-05-01T08:15:06.579Z</time></trkpt><trkpt lat="45.8013127" lon="11.6254151"><ele>898.5</ele><time>2026-05-01T08:15:07.578Z</time></trkpt><trkpt lat="45.8011906" lon="11.6254742"><ele>896.75</ele><time>2026-05-01T08:15:08.577Z</time></trkpt><trkpt lat="45.8010689" lon="11.6255289"><ele>895.0</ele><time>2026-05-01T08:15:09.564Z</time></trkpt><trkpt lat="45.8009509" lon="11.6255763"><ele>895.0</ele><time>2026-05-01T08:15:10.567Z</time></trkpt><trkpt lat="45.8008278" lon="11.6256104"><ele>895.0</ele><time>2026-05-01T08:15:11.585Z</time></trkpt><trkpt lat="45.8007045" lon="11.6256456"><ele>895.0</ele><time>2026-05-01T08:15:12.58Z</time></trkpt><trkpt lat="45.8005809" lon="11.6256528"><ele>895.0</ele><time>2026-05-01T08:15:13.587Z</time></trkpt><trkpt lat="45.800456" lon="11.6256551"><ele>895.0</ele><time>2026-05-01T08:15:14.587Z</time></trkpt><trkpt lat="45.8003334" lon="11.6256481"><ele>895.0</ele><time>2026-05-01T08:15:15.582Z</time></trkpt><trkpt lat="45.8002144" lon="11.6256288"><ele>895.0</ele><time>2026-05-01T08:15:16.579Z</time></trkpt><trkpt lat="45.8000999" lon="11.6255895"><ele>895.0</ele><time>2026-05-01T08:15:17.583Z</time></trkpt><trkpt lat="45.7999957" lon="11.6255342"><ele>895.9999999999999</ele><time>2026-05-01T08:15:18.576Z</time></trkpt><trkpt lat="45.7999073" lon="11.6254672"><ele>897.0</ele><time>2026-05-01T08:15:19.583Z</time></trkpt><trkpt lat="45.7998277" lon="11.6253898"><ele>898.0</ele><time>2026-05-01T08:15:20.582Z</time></trkpt><trkpt lat="45.7997676" lon="11.6253004"><ele>899.0</ele><time>2026-05-01T08:15:21.576Z</time></trkpt><trkpt lat="45.7997368" lon="11.6251935"><ele>899.9999999999999</ele><time>2026-05-01T08:15:22.587Z</time></trkpt><trkpt lat="45.7997074" lon="11.6250872"><ele>901.0</ele><time>2026-05-01T08:15:23.58Z</time></trkpt><trkpt lat="45.7997595" lon="11.6249993"><ele>902.1999999999999</ele><time>2026-05-01T08:15:24.577Z</time></trkpt><trkpt lat="45.7998308" lon="11.6249378"><ele>903.3999999999999</ele><time>2026-05-01T08:15:25.575Z</time></trkpt><trkpt lat="45.7999145" lon="11.6248874"><ele>904.6</ele><time>2026-05-01T08:15:26.578Z</time></trkpt><trkpt lat="45.8000054" lon="11.6248369"><ele>905.8</ele><time>2026-05-01T08:15:27.583Z</time></trkpt><trkpt lat="45.8001032" lon="11.6247872"><ele>907.0</ele><time>2026-05-01T08:15:28.583Z</time></trkpt><trkpt lat="45.8002029" lon="11.6247342"><ele>907.8</ele><time>2026-05-01T08:15:29.581Z</time></trkpt><trkpt lat="45.8003035" lon="11.6246836"><ele>908.6</ele><time>2026-05-01T08:15:30.591Z</time></trkpt><trkpt lat="45.8004058" lon="11.6246404"><ele>909.3999999999999</ele><time>2026-05-01T08:15:31.588Z</time></trkpt><trkpt lat="45.800508" lon="11.6246088"><ele>910.1999999999999</ele><time>2026-05-01T08:15:32.571Z</time></trkpt><trkpt lat="45.8006089" lon="11.6245891"><ele>911.0</ele><time>2026-05-01T08:15:33.578Z</time></trkpt><trkpt lat="45.800708" lon="11.6245623"><ele>911.0</ele><time>2026-05-01T08:15:34.585Z</time></trkpt><trkpt lat="45.8008033" lon="11.6245137"><ele>910.9999999999999</ele><time>2026-05-01T08:15:35.579Z</time></trkpt><trkpt lat="45.8008989" lon="11.624448"><ele>910.9999999999999</ele><time>2026-05-01T08:15:36.582Z</time></trkpt><trkpt lat="45.8009982" lon="11.6243781"><ele>911.0</ele><time>2026-05-01T08:15:37.584Z</time></trkpt><trkpt lat="45.8011014" lon="11.6243086"><ele>911.0</ele><time>2026-05-01T08:15:38.59Z</time></trkpt><trkpt lat="45.8011968" lon="11.6242465"><ele>912.0</ele><time>2026-05-01T08:15:39.577Z</time></trkpt><trkpt lat="45.801289" lon="11.6241833"><ele>912.9999999999999</ele><time>2026-05-01T08:15:40.582Z</time></trkpt><trkpt lat="45.8013835" lon="11.6241151"><ele>913.9999999999999</ele><time>2026-05-01T08:15:41.589Z</time></trkpt><trkpt lat="45.8014766" lon="11.6240304"><ele>915.0</ele><time>2026-05-01T08:15:42.585Z</time></trkpt><trkpt lat="45.8015628" lon="11.6239292"><ele>916.0</ele><time>2026-05-01T08:15:43.597Z</time></trkpt><trkpt lat="45.8016454" lon="11.6238138"><ele>916.0</ele><time>2026-05-01T08:15:44.585Z</time></trkpt><trkpt lat="45.8017272" lon="11.6237014"><ele>915.9999999999999</ele><time>2026-05-01T08:15:45.583Z</time></trkpt><trkpt lat="45.8018089" lon="11.6236069"><ele>915.9999999999999</ele><time>2026-05-01T08:15:46.588Z</time></trkpt><trkpt lat="45.8018957" lon="11.623532"><ele>916.0</ele><time>2026-05-01T08:15:47.582Z</time></trkpt><trkpt lat="45.8019943" lon="11.6234718"><ele>916.0</ele><time>2026-05-01T08:15:48.589Z</time></trkpt><trkpt lat="45.8020978" lon="11.6234253"><ele>917.4</ele><time>2026-05-01T08:15:49.591Z</time></trkpt><trkpt lat="45.8022012" lon="11.6233851"><ele>918.8</ele><time>2026-05-01T08:15:50.583Z</time></trkpt><trkpt lat="45.8022998" lon="11.6233494"><ele>920.1999999999999</ele><time>2026-05-01T08:15:51.584Z</time></trkpt><trkpt lat="45.8023837" lon="11.6233207"><ele>921.5999999999999</ele><time>2026-05-01T08:15:52.579Z</time></trkpt><trkpt lat="45.8024532" lon="11.6232959"><ele>923.0</ele><time>2026-05-01T08:15:53.592Z</time></trkpt><trkpt lat="45.8025651" lon="11.6232577"><ele>924.4</ele><time>2026-05-01T08:15:55.575Z</time></trkpt><trkpt lat="45.8026671" lon="11.6232591"><ele>925.8</ele><time>2026-05-01T08:15:57.586Z</time></trkpt><trkpt lat="45.8027593" lon="11.6233541"><ele>927.2</ele><time>2026-05-01T08:15:59.578Z</time></trkpt><trkpt lat="45.8028216" lon="11.6234152"><ele>928.6</ele><time>2026-05-01T08:16:00.578Z</time></trkpt><trkpt lat="45.8029023" lon="11.6234279"><ele>930.0</ele><time>2026-05-01T08:16:01.587Z</time></trkpt><trkpt lat="45.8029895" lon="11.6233869"><ele>930.0</ele><time>2026-05-01T08:16:02.58Z</time></trkpt><trkpt lat="45.8030661" lon="11.6233213"><ele>930.0</ele><time>2026-05-01T08:16:03.586Z</time></trkpt><trkpt lat="45.8031225" lon="11.6232746"><ele>930.0</ele><time>2026-05-01T08:16:04.582Z</time></trkpt><trkpt lat="45.8032298" lon="11.6232157"><ele>930.0</ele><time>2026-05-01T08:16:06.585Z</time></trkpt><trkpt lat="45.803339" lon="11.6231456"><ele>930.0</ele><time>2026-05-01T08:16:08.588Z</time></trkpt><trkpt lat="45.8033968" lon="11.6231084"><ele>930.0</ele><time>2026-05-01T08:16:09.581Z</time></trkpt><trkpt lat="45.8034524" lon="11.6230644"><ele>930.0</ele><time>2026-05-01T08:16:10.58Z</time></trkpt><trkpt lat="45.8035078" lon="11.6230203"><ele>930.0</ele><time>2026-05-01T08:16:11.591Z</time></trkpt><trkpt lat="45.8035673" lon="11.6229727"><ele>930.0</ele><time>2026-05-01T08:16:12.588Z</time></trkpt><trkpt lat="45.8036317" lon="11.6229296"><ele>930.0</ele><time>2026-05-01T08:16:13.581Z</time></trkpt><trkpt lat="45.8036974" lon="11.6228968"><ele>930.0</ele><time>2026-05-01T08:16:14.592Z</time></trkpt><trkpt lat="45.8037665" lon="11.6228774"><ele>930.0</ele><time>2026-05-01T08:16:15.582Z</time></trkpt><trkpt lat="45.8038368" lon="11.6228693"><ele>931.5714285714286</ele><time>2026-05-01T08:16:16.586Z</time></trkpt><trkpt lat="45.8039113" lon="11.6228674"><ele>933.1428571428571</ele><time>2026-05-01T08:16:17.58Z</time></trkpt><trkpt lat="45.8039862" lon="11.6228686"><ele>934.7142857142857</ele><time>2026-05-01T08:16:18.594Z</time></trkpt><trkpt lat="45.804055" lon="11.6228677"><ele>936.2857142857142</ele><time>2026-05-01T08:16:19.582Z</time></trkpt><trkpt lat="45.8041252" lon="11.6228782"><ele>937.8571428571429</ele><time>2026-05-01T08:16:20.589Z</time></trkpt><trkpt lat="45.8041954" lon="11.622879"><ele>939.4285714285713</ele><time>2026-05-01T08:16:21.58Z</time></trkpt><trkpt lat="45.8042677" lon="11.6228726"><ele>940.9999999999999</ele><time>2026-05-01T08:16:22.569Z</time></trkpt><trkpt lat="45.8043418" lon="11.6228527"><ele>945.4</ele><time>2026-05-01T08:16:23.589Z</time></trkpt><trkpt lat="45.8044131" lon="11.6228323"><ele>949.8</ele><time>2026-05-01T08:16:24.584Z</time></trkpt><trkpt lat="45.8044759" lon="11.6228104"><ele>954.1999999999999</ele><time>2026-05-01T08:16:25.582Z</time></trkpt><trkpt lat="45.8045945" lon="11.6227637"><ele>958.5999999999999</ele><time>2026-05-01T08:16:27.589Z</time></trkpt><trkpt lat="45.8047174" lon="11.6227206"><ele>963.0</ele><time>2026-05-01T08:16:29.591Z</time></trkpt><trkpt lat="45.8047887" lon="11.6227092"><ele>963.2</ele><time>2026-05-01T08:16:30.595Z</time></trkpt><trkpt lat="45.80486" lon="11.6227027"><ele>963.4</ele><time>2026-05-01T08:16:31.583Z</time></trkpt><trkpt lat="45.8049281" lon="11.6226988"><ele>963.6000000000001</ele><time>2026-05-01T08:16:32.594Z</time></trkpt><trkpt lat="45.8049922" lon="11.6226876"><ele>963.8000000000001</ele><time>2026-05-01T08:16:33.576Z</time></trkpt><trkpt lat="45.8051114" lon="11.6226434"><ele>964.0</ele><time>2026-05-01T08:16:35.585Z</time></trkpt><trkpt lat="45.8052382" lon="11.6226257"><ele>967.0</ele><time>2026-05-01T08:16:37.589Z</time></trkpt><trkpt lat="45.805306" lon="11.6226451"><ele>970.0000000000001</ele><time>2026-05-01T08:16:38.583Z</time></trkpt><trkpt lat="45.8053701" lon="11.6226667"><ele>973.0</ele><time>2026-05-01T08:16:39.591Z</time></trkpt><trkpt lat="45.8054405" lon="11.6226699"><ele>976.0</ele><time>2026-05-01T08:16:40.583Z</time></trkpt><trkpt lat="45.80551" lon="11.6226775"><ele>979.0000000000001</ele><time>2026-05-01T08:16:41.586Z</time></trkpt><trkpt lat="45.8055847" lon="11.6226937"><ele>982.0</ele><time>2026-05-01T08:16:42.58Z</time></trkpt><trkpt lat="45.8056502" lon="11.6227067"><ele>985.0</ele><time>2026-05-01T08:16:43.581Z</time></trkpt><trkpt lat="45.805713" lon="11.6227135"><ele>984.9999999999999</ele><time>2026-05-01T08:16:44.59Z</time></trkpt><trkpt lat="45.8057775" lon="11.6227108"><ele>985.0</ele><time>2026-05-01T08:16:45.577Z</time></trkpt><trkpt lat="45.8058485" lon="11.6226964"><ele>985.0</ele><time>2026-05-01T08:16:46.585Z</time></trkpt><trkpt lat="45.8059278" lon="11.6226832"><ele>985.0</ele><time>2026-05-01T08:16:47.581Z</time></trkpt><trkpt lat="45.8060008" lon="11.6226746"><ele>984.9999999999999</ele><time>2026-05-01T08:16:48.578Z</time></trkpt><trkpt lat="45.8061118" lon="11.6226947"><ele>985.0</ele><time>2026-05-01T08:16:50.592Z</time></trkpt><trkpt lat="45.8061992" lon="11.6227459"><ele>988.6</ele><time>2026-05-01T08:16:52.587Z</time></trkpt><trkpt lat="45.8062824" lon="11.6228907"><ele>992.2</ele><time>2026-05-01T08:16:54.585Z</time></trkpt><trkpt lat="45.8063293" lon="11.6229626"><ele>995.8</ele><time>2026-05-01T08:16:55.587Z</time></trkpt><trkpt lat="45.8064306" lon="11.6230249"><ele>999.4</ele><time>2026-05-01T08:16:57.578Z</time></trkpt><trkpt lat="45.8064991" lon="11.6230479"><ele>1003.0</ele><time>2026-05-01T08:16:58.581Z</time></trkpt><trkpt lat="45.8065759" lon="11.6230791"><ele>1002.9999999999999</ele><time>2026-05-01T08:16:59.59Z</time></trkpt><trkpt lat="45.8066441" lon="11.6231183"><ele>1003.0</ele><time>2026-05-01T08:17:00.594Z</time></trkpt><trkpt lat="45.806721" lon="11.6231632"><ele>1003.0</ele><time>2026-05-01T08:17:01.588Z</time></trkpt><trkpt lat="45.8067885" lon="11.6232271"><ele>1003.0</ele><time>2026-05-01T08:17:02.584Z</time></trkpt><trkpt lat="45.8068442" lon="11.6232937"><ele>1002.9999999999999</ele><time>2026-05-01T08:17:03.587Z</time></trkpt><trkpt lat="45.8069245" lon="11.6233328"><ele>1003.0</ele><time>2026-05-01T08:17:04.585Z</time></trkpt><trkpt lat="45.8069854" lon="11.6233633"><ele>1004.9999999999999</ele><time>2026-05-01T08:17:05.569Z</time></trkpt><trkpt lat="45.8071147" lon="11.6233644"><ele>1007.0</ele><time>2026-05-01T08:17:07.577Z</time></trkpt><trkpt lat="45.807189" lon="11.6233559"><ele>1009.0</ele><time>2026-05-01T08:17:08.583Z</time></trkpt><trkpt lat="45.8072588" lon="11.6233636"><ele>1011.0</ele><time>2026-05-01T08:17:09.585Z</time></trkpt><trkpt lat="45.8073313" lon="11.6233753"><ele>1012.9999999999999</ele><time>2026-05-01T08:17:10.589Z</time></trkpt><trkpt lat="45.807408" lon="11.623366"><ele>1015.0</ele><time>2026-05-01T08:17:11.602Z</time></trkpt><trkpt lat="45.8074825" lon="11.6233571"><ele>1015.0</ele><time>2026-05-01T08:17:12.589Z</time></trkpt><trkpt lat="45.8075957" lon="11.6233202"><ele>1015.0</ele><time>2026-05-01T08:17:14.585Z</time></trkpt><trkpt lat="45.8077158" lon="11.6233003"><ele>1015.0</ele><time>2026-05-01T08:17:16.589Z</time></trkpt><trkpt lat="45.8078454" lon="11.6233207"><ele>1015.0</ele><time>2026-05-01T08:17:18.582Z</time></trkpt><trkpt lat="45.8079205" lon="11.623328"><ele>1015.0</ele><time>2026-05-01T08:17:19.582Z</time></trkpt><trkpt lat="45.807997" lon="11.6233273"><ele>1018.6</ele><time>2026-05-01T08:17:20.59Z</time></trkpt><trkpt lat="45.8080715" lon="11.6233275"><ele>1022.2</ele><time>2026-05-01T08:17:21.593Z</time></trkpt><trkpt lat="45.8081425" lon="11.6233193"><ele>1025.8</ele><time>2026-05-01T08:17:22.591Z</time></trkpt><trkpt lat="45.8082607" lon="11.6232989"><ele>1029.4</ele><time>2026-05-01T08:17:24.583Z</time></trkpt><trkpt lat="45.8083443" lon="11.6232764"><ele>1033.0</ele><time>2026-05-01T08:17:26.592Z</time></trkpt><trkpt lat="45.8084657" lon="11.6232442"><ele>1035.5</ele><time>2026-05-01T08:17:28.564Z</time></trkpt><trkpt lat="45.8085331" lon="11.6232357"><ele>1038.0</ele><time>2026-05-01T08:17:29.574Z</time></trkpt><trkpt lat="45.8086025" lon="11.6232365"><ele>1040.5</ele><time>2026-05-01T08:17:30.569Z</time></trkpt><trkpt lat="45.8086673" lon="11.6232401"><ele>1043.0</ele><time>2026-05-01T08:17:31.575Z</time></trkpt><trkpt lat="45.8087339" lon="11.6232361"><ele>1045.5</ele><time>2026-05-01T08:17:32.579Z</time></trkpt><trkpt lat="45.8088018" lon="11.6232331"><ele>1048.0</ele><time>2026-05-01T08:17:33.576Z</time></trkpt><trkpt lat="45.8089154" lon="11.6232321"><ele>1048.0</ele><time>2026-05-01T08:17:35.583Z</time></trkpt><trkpt lat="45.8090302" lon="11.6232364"><ele>1048.0</ele><time>2026-05-01T08:17:37.583Z</time></trkpt><trkpt lat="45.8091216" lon="11.6232288"><ele>1048.0</ele><time>2026-05-01T08:17:39.591Z</time></trkpt><trkpt lat="45.809231" lon="11.6232404"><ele>1048.0</ele><time>2026-05-01T08:17:41.579Z</time></trkpt><trkpt lat="45.8093487" lon="11.6232651"><ele>1048.0</ele><time>2026-05-01T08:17:43.583Z</time></trkpt><trkpt lat="45.8094575" lon="11.6232833"><ele>1050.4</ele><time>2026-05-01T08:17:45.586Z</time></trkpt><trkpt lat="45.8095885" lon="11.6232498"><ele>1052.8</ele><time>2026-05-01T08:17:47.586Z</time></trkpt><trkpt lat="45.8096596" lon="11.6232045"><ele>1055.2</ele><time>2026-05-01T08:17:48.587Z</time></trkpt><trkpt lat="45.8097785" lon="11.6231141"><ele>1057.6</ele><time>2026-05-01T08:17:50.579Z</time></trkpt><trkpt lat="45.809846" lon="11.6230822"><ele>1060.0</ele><time>2026-05-01T08:17:51.585Z</time></trkpt><trkpt lat="45.8099123" lon="11.6230546"><ele>1059.9999999999998</ele><time>2026-05-01T08:17:52.582Z</time></trkpt><trkpt lat="45.8099849" lon="11.6230475"><ele>1060.0</ele><time>2026-05-01T08:17:53.58Z</time></trkpt><trkpt lat="45.8100572" lon="11.6230423"><ele>1060.0</ele><time>2026-05-01T08:17:54.6Z</time></trkpt><trkpt lat="45.8101307" lon="11.6230357"><ele>1060.0</ele><time>2026-05-01T08:17:55.583Z</time></trkpt><trkpt lat="45.8101973" lon="11.6230273"><ele>1060.0</ele><time>2026-05-01T08:17:56.59Z</time></trkpt><trkpt lat="45.8102647" lon="11.6230197"><ele>1059.9999999999998</ele><time>2026-05-01T08:17:57.588Z</time></trkpt><trkpt lat="45.8103344" lon="11.6230026"><ele>1060.0</ele><time>2026-05-01T08:17:58.583Z</time></trkpt><trkpt lat="45.8104065" lon="11.6229857"><ele>1063.1666666666665</ele><time>2026-05-01T08:17:59.584Z</time></trkpt><trkpt lat="45.8104823" lon="11.6229823"><ele>1066.3333333333333</ele><time>2026-05-01T08:18:00.584Z</time></trkpt><trkpt lat="45.8105564" lon="11.6229895"><ele>1069.5</ele><time>2026-05-01T08:18:01.58Z</time></trkpt><trkpt lat="45.8106353" lon="11.6230083"><ele>1072.6666666666667</ele><time>2026-05-01T08:18:02.579Z</time></trkpt><trkpt lat="45.8107157" lon="11.6230291"><ele>1075.8333333333335</ele><time>2026-05-01T08:18:03.584Z</time></trkpt><trkpt lat="45.8107926" lon="11.6230588"><ele>1079.0</ele><time>2026-05-01T08:18:04.59Z</time></trkpt><trkpt lat="45.8108708" lon="11.6230944"><ele>1079.0</ele><time>2026-05-01T08:18:05.587Z</time></trkpt><trkpt lat="45.8109459" lon="11.6231206"><ele>1079.0</ele><time>2026-05-01T08:18:06.592Z</time></trkpt><trkpt lat="45.8110097" lon="11.6231631"><ele>1079.0</ele><time>2026-05-01T08:18:07.581Z</time></trkpt><trkpt lat="45.8110914" lon="11.6232814"><ele>1079.0</ele><time>2026-05-01T08:18:09.579Z</time></trkpt><trkpt lat="45.8111268" lon="11.6233618"><ele>1079.0</ele><time>2026-05-01T08:18:10.583Z</time></trkpt><trkpt lat="45.8111606" lon="11.6234526"><ele>1079.0</ele><time>2026-05-01T08:18:11.582Z</time></trkpt><trkpt lat="45.8111954" lon="11.6235477"><ele>1082.5</ele><time>2026-05-01T08:18:12.587Z</time></trkpt><trkpt lat="45.8112251" lon="11.6236456"><ele>1086.0</ele><time>2026-05-01T08:18:13.58Z</time></trkpt><trkpt lat="45.8112551" lon="11.6237542"><ele>1089.5</ele><time>2026-05-01T08:18:14.581Z</time></trkpt><trkpt lat="45.8112838" lon="11.623865"><ele>1093.0</ele><time>2026-05-01T08:18:15.593Z</time></trkpt><trkpt lat="45.8113089" lon="11.6239714"><ele>1096.5</ele><time>2026-05-01T08:18:16.582Z</time></trkpt><trkpt lat="45.8113317" lon="11.6240718"><ele>1100.0</ele><time>2026-05-01T08:18:17.582Z</time></trkpt><trkpt lat="45.8113628" lon="11.6241682"><ele>1100.1666666666667</ele><time>2026-05-01T08:18:18.59Z</time></trkpt><trkpt lat="45.8114044" lon="11.6242551"><ele>1100.3333333333335</ele><time>2026-05-01T08:18:19.587Z</time></trkpt><trkpt lat="45.8114466" lon="11.6243426"><ele>1100.5</ele><time>2026-05-01T08:18:20.587Z</time></trkpt><trkpt lat="45.8115054" lon="11.6244186"><ele>1100.6666666666667</ele><time>2026-05-01T08:18:21.588Z</time></trkpt><trkpt lat="45.8115628" lon="11.6244967"><ele>1100.8333333333333</ele><time>2026-05-01T08:18:22.592Z</time></trkpt><trkpt lat="45.8116185" lon="11.624575"><ele>1101.0</ele><time>2026-05-01T08:18:23.591Z</time></trkpt><trkpt lat="45.8116706" lon="11.6246521"><ele>1100.6666666666667</ele><time>2026-05-01T08:18:24.606Z</time></trkpt><trkpt lat="45.8117174" lon="11.624721"><ele>1100.3333333333333</ele><time>2026-05-01T08:18:25.591Z</time></trkpt><trkpt lat="45.8117971" lon="11.6248264"><ele>1100.0</ele><time>2026-05-01T08:18:27.593Z</time></trkpt><trkpt lat="45.8118795" lon="11.6249184"><ele>1099.6666666666665</ele><time>2026-05-01T08:18:29.587Z</time></trkpt><trkpt lat="45.8119578" lon="11.6249823"><ele>1099.3333333333333</ele><time>2026-05-01T08:18:31.594Z</time></trkpt><trkpt lat="45.8120291" lon="11.6250286"><ele>1099.0</ele><time>2026-05-01T08:18:33.603Z</time></trkpt><trkpt lat="45.8120901" lon="11.6250575"><ele>1099.6666666666665</ele><time>2026-05-01T08:18:36.596Z</time></trkpt><trkpt lat="45.8120957" lon="11.6249248"><ele>1100.3333333333333</ele><time>2026-05-01T08:19:52.589Z</time></trkpt><trkpt lat="45.8120877" lon="11.6247554"><ele>1101.0</ele><time>2026-05-01T08:19:54.59Z</time></trkpt><trkpt lat="45.8120831" lon="11.6246556"><ele>1101.6666666666667</ele><time>2026-05-01T08:19:55.593Z</time></trkpt><trkpt lat="45.8120778" lon="11.6245515"><ele>1102.3333333333335</ele><time>2026-05-01T08:19:56.602Z</time></trkpt><trkpt lat="45.8120745" lon="11.6244398"><ele>1103.0</ele><time>2026-05-01T08:19:57.587Z</time></trkpt><trkpt lat="45.8120722" lon="11.6243161"><ele>1104.1666666666667</ele><time>2026-05-01T08:19:58.585Z</time></trkpt><trkpt lat="45.8120731" lon="11.624193"><ele>1105.3333333333335</ele><time>2026-05-01T08:19:59.589Z</time></trkpt><trkpt lat="45.8120787" lon="11.6240724"><ele>1106.5</ele><time>2026-05-01T08:20:00.594Z</time></trkpt><trkpt lat="45.8120889" lon="11.6239567"><ele>1107.6666666666667</ele><time>2026-05-01T08:20:01.586Z</time></trkpt><trkpt lat="45.8121026" lon="11.6238478"><ele>1108.8333333333333</ele><time>2026-05-01T08:20:02.587Z</time></trkpt><trkpt lat="45.8121198" lon="11.6237451"><ele>1110.0</ele><time>2026-05-01T08:20:03.594Z</time></trkpt><trkpt lat="45.812143" lon="11.6236593"><ele>1110.8</ele><time>2026-05-01T08:20:04.582Z</time></trkpt><trkpt lat="45.8122251" lon="11.6235235"><ele>1111.6</ele><time>2026-05-01T08:20:06.587Z</time></trkpt><trkpt lat="45.812286" lon="11.6234535"><ele>1112.4</ele><time>2026-05-01T08:20:07.584Z</time></trkpt><trkpt lat="45.8123519" lon="11.6233827"><ele>1113.2</ele><time>2026-05-01T08:20:08.586Z</time></trkpt><trkpt lat="45.8124205" lon="11.6233107"><ele>1114.0</ele><time>2026-05-01T08:20:09.59Z</time></trkpt><trkpt lat="45.8124912" lon="11.6232417"><ele>1114.0</ele><time>2026-05-01T08:20:10.594Z</time></trkpt><trkpt lat="45.812559" lon="11.6231783"><ele>1114.0</ele><time>2026-05-01T08:20:11.59Z</time></trkpt><trkpt lat="45.8126237" lon="11.6231176"><ele>1114.0</ele><time>2026-05-01T08:20:12.589Z</time></trkpt><trkpt lat="45.8126823" lon="11.6230685"><ele>1114.0</ele><time>2026-05-01T08:20:13.59Z</time></trkpt><trkpt lat="45.8127418" lon="11.623019"><ele>1114.0</ele><time>2026-05-01T08:20:14.599Z</time></trkpt><trkpt lat="45.812815" lon="11.6229926"><ele>1114.0</ele><time>2026-05-01T08:20:15.587Z</time></trkpt><trkpt lat="45.8128912" lon="11.6229649"><ele>1114.0</ele><time>2026-05-01T08:20:16.59Z</time></trkpt><trkpt lat="45.8129707" lon="11.6229353"><ele>1114.0</ele><time>2026-05-01T08:20:17.586Z</time></trkpt><trkpt lat="45.8130502" lon="11.6229045"><ele>1114.0</ele><time>2026-05-01T08:20:18.595Z</time></trkpt><trkpt lat="45.8131289" lon="11.622871"><ele>1114.0</ele><time>2026-05-01T08:20:19.592Z</time></trkpt><trkpt lat="45.8132079" lon="11.6228303"><ele>1114.0</ele><time>2026-05-01T08:20:20.583Z</time></trkpt><trkpt lat="45.8132911" lon="11.6227805"><ele>1114.0</ele><time>2026-05-01T08:20:21.587Z</time></trkpt><trkpt lat="45.8133777" lon="11.6227185"><ele>1114.0</ele><time>2026-05-01T08:20:22.583Z</time></trkpt><trkpt lat="45.8134589" lon="11.6226579"><ele>1113.2</ele><time>2026-05-01T08:20:23.582Z</time></trkpt><trkpt lat="45.8135354" lon="11.6225935"><ele>1112.4</ele><time>2026-05-01T08:20:24.592Z</time></trkpt><trkpt lat="45.8136172" lon="11.6225203"><ele>1111.6</ele><time>2026-05-01T08:20:25.593Z</time></trkpt><trkpt lat="45.8136973" lon="11.6224483"><ele>1110.8</ele><time>2026-05-01T08:20:26.595Z</time></trkpt><trkpt lat="45.8137765" lon="11.6223721"><ele>1110.0</ele><time>2026-05-01T08:20:27.595Z</time></trkpt><trkpt lat="45.8138536" lon="11.6222952"><ele>1110.0</ele><time>2026-05-01T08:20:28.595Z</time></trkpt><trkpt lat="45.8139338" lon="11.6222209"><ele>1110.0</ele><time>2026-05-01T08:20:29.589Z</time></trkpt><trkpt lat="45.8140159" lon="11.6221469"><ele>1110.0</ele><time>2026-05-01T08:20:30.591Z</time></trkpt><trkpt lat="45.8140981" lon="11.6220715"><ele>1110.0</ele><time>2026-05-01T08:20:31.567Z</time></trkpt><trkpt lat="45.8141815" lon="11.6219984"><ele>1110.0</ele><time>2026-05-01T08:20:32.588Z</time></trkpt><trkpt lat="45.8142621" lon="11.6219296"><ele>1110.6666666666667</ele><time>2026-05-01T08:20:33.579Z</time></trkpt><trkpt lat="45.8143377" lon="11.6218623"><ele>1111.3333333333333</ele><time>2026-05-01T08:20:34.584Z</time></trkpt><trkpt lat="45.814412" lon="11.6217938"><ele>1112.0</ele><time>2026-05-01T08:20:35.59Z</time></trkpt><trkpt lat="45.8144849" lon="11.6217251"><ele>1112.6666666666665</ele><time>2026-05-01T08:20:36.588Z</time></trkpt><trkpt lat="45.8145535" lon="11.621658"><ele>1113.3333333333333</ele><time>2026-05-01T08:20:37.594Z</time></trkpt><trkpt lat="45.8146195" lon="11.6215935"><ele>1114.0</ele><time>2026-05-01T08:20:38.595Z</time></trkpt><trkpt lat="45.8146818" lon="11.6215172"><ele>1114.0</ele><time>2026-05-01T08:20:39.608Z</time></trkpt><trkpt lat="45.8147379" lon="11.6214303"><ele>1114.0</ele><time>2026-05-01T08:20:40.595Z</time></trkpt><trkpt lat="45.8147902" lon="11.6213437"><ele>1114.0</ele><time>2026-05-01T08:20:41.573Z</time></trkpt><trkpt lat="45.8148378" lon="11.6212643"><ele>1114.0</ele><time>2026-05-01T08:20:42.591Z</time></trkpt><trkpt lat="45.8148856" lon="11.6211864"><ele>1114.0</ele><time>2026-05-01T08:20:43.574Z</time></trkpt><trkpt lat="45.8149343" lon="11.621115"><ele>1114.0</ele><time>2026-05-01T08:20:44.59Z</time></trkpt><trkpt lat="45.8150189" lon="11.6209977"><ele>1114.0</ele><time>2026-05-01T08:20:46.571Z</time></trkpt><trkpt lat="45.8150912" lon="11.6209019"><ele>1114.0</ele><time>2026-05-01T08:20:48.582Z</time></trkpt><trkpt lat="45.8151407" lon="11.6208335"><ele>1114.0</ele><time>2026-05-01T08:20:50.6Z</time></trkpt><trkpt lat="45.8152003" lon="11.6207868"><ele>1114.0</ele><time>2026-05-01T08:21:18.583Z</time></trkpt><trkpt lat="45.8151614" lon="11.6208682"><ele>1114.0</ele><time>2026-05-01T08:21:22.589Z</time></trkpt><trkpt lat="45.8150617" lon="11.6209552"><ele>1114.0</ele><time>2026-05-01T08:21:24.592Z</time></trkpt><trkpt lat="45.8150008" lon="11.6210287"><ele>1114.0</ele><time>2026-05-01T08:21:25.592Z</time></trkpt><trkpt lat="45.8149332" lon="11.6211216"><ele>1114.0</ele><time>2026-05-01T08:21:26.593Z</time></trkpt><trkpt lat="45.814869" lon="11.6212171"><ele>1114.0</ele><time>2026-05-01T08:21:27.591Z</time></trkpt><trkpt lat="45.8148116" lon="11.6213107"><ele>1114.0</ele><time>2026-05-01T08:21:28.584Z</time></trkpt><trkpt lat="45.814756" lon="11.6214054"><ele>1114.0</ele><time>2026-05-01T08:21:29.589Z</time></trkpt><trkpt lat="45.8146986" lon="11.6214978"><ele>1114.0</ele><time>2026-05-01T08:21:30.604Z</time></trkpt><trkpt lat="45.8146353" lon="11.6215826"><ele>1114.0</ele><time>2026-05-01T08:21:31.589Z</time></trkpt><trkpt lat="45.8145644" lon="11.6216565"><ele>1114.0</ele><time>2026-05-01T08:21:32.598Z</time></trkpt><trkpt lat="45.8144911" lon="11.6217265"><ele>1114.0</ele><time>2026-05-01T08:21:33.579Z</time></trkpt><trkpt lat="45.8144155" lon="11.6218012"><ele>1114.0</ele><time>2026-05-01T08:21:34.592Z</time></trkpt><trkpt lat="45.814338" lon="11.621871"><ele>1114.0</ele><time>2026-05-01T08:21:35.594Z</time></trkpt><trkpt lat="45.8142666" lon="11.6219351"><ele>1114.0</ele><time>2026-05-01T08:21:36.589Z</time></trkpt><trkpt lat="45.8141943" lon="11.6219982"><ele>1113.2</ele><time>2026-05-01T08:21:37.593Z</time></trkpt><trkpt lat="45.8141075" lon="11.6220732"><ele>1112.4</ele><time>2026-05-01T08:21:38.592Z</time></trkpt><trkpt lat="45.8140203" lon="11.6221535"><ele>1111.6</ele><time>2026-05-01T08:21:39.589Z</time></trkpt><trkpt lat="45.8139344" lon="11.6222347"><ele>1110.8</ele><time>2026-05-01T08:21:40.587Z</time></trkpt><trkpt lat="45.8138513" lon="11.6223154"><ele>1110.0</ele><time>2026-05-01T08:21:41.592Z</time></trkpt><trkpt lat="45.8137712" lon="11.6223928"><ele>1110.0</ele><time>2026-05-01T08:21:42.589Z</time></trkpt><trkpt lat="45.8136952" lon="11.622465"><ele>1110.0</ele><time>2026-05-01T08:21:43.586Z</time></trkpt><trkpt lat="45.8136187" lon="11.6225331"><ele>1110.0</ele><time>2026-05-01T08:21:44.59Z</time></trkpt><trkpt lat="45.8135402" lon="11.6226023"><ele>1110.0</ele><time>2026-05-01T08:21:45.576Z</time></trkpt><trkpt lat="45.813459" lon="11.6226718"><ele>1110.0</ele><time>2026-05-01T08:21:46.585Z</time></trkpt><trkpt lat="45.8133758" lon="11.6227423"><ele>1110.1666666666667</ele><time>2026-05-01T08:21:47.585Z</time></trkpt><trkpt lat="45.8132909" lon="11.6228032"><ele>1110.3333333333333</ele><time>2026-05-01T08:21:48.582Z</time></trkpt><trkpt lat="45.8132116" lon="11.6228547"><ele>1110.5</ele><time>2026-05-01T08:21:49.591Z</time></trkpt><trkpt lat="45.8131378" lon="11.6229024"><ele>1110.6666666666665</ele><time>2026-05-01T08:21:50.598Z</time></trkpt><trkpt lat="45.8130661" lon="11.6229297"><ele>1110.8333333333333</ele><time>2026-05-01T08:21:51.597Z</time></trkpt><trkpt lat="45.8129899" lon="11.6229598"><ele>1111.0</ele><time>2026-05-01T08:21:52.593Z</time></trkpt><trkpt lat="45.8129247" lon="11.6229868"><ele>1111.5</ele><time>2026-05-01T08:21:53.589Z</time></trkpt><trkpt lat="45.8128594" lon="11.6230082"><ele>1112.0</ele><time>2026-05-01T08:21:54.587Z</time></trkpt><trkpt lat="45.812791" lon="11.6230281"><ele>1112.5</ele><time>2026-05-01T08:21:55.588Z</time></trkpt><trkpt lat="45.8127243" lon="11.6230475"><ele>1113.0</ele><time>2026-05-01T08:21:56.582Z</time></trkpt><trkpt lat="45.8126157" lon="11.6231295"><ele>1113.5</ele><time>2026-05-01T08:21:58.593Z</time></trkpt><trkpt lat="45.8125207" lon="11.6232212"><ele>1114.0</ele><time>2026-05-01T08:22:00.587Z</time></trkpt><trkpt lat="45.8124263" lon="11.6233122"><ele>1114.0</ele><time>2026-05-01T08:22:02.591Z</time></trkpt><trkpt lat="45.81233" lon="11.6234097"><ele>1114.0</ele><time>2026-05-01T08:22:04.599Z</time></trkpt><trkpt lat="45.8122371" lon="11.6235161"><ele>1114.0</ele><time>2026-05-01T08:22:06.586Z</time></trkpt><trkpt lat="45.8121642" lon="11.6236255"><ele>1114.0</ele><time>2026-05-01T08:22:08.585Z</time></trkpt><trkpt lat="45.8121241" lon="11.6237729"><ele>1113.2</ele><time>2026-05-01T08:22:10.609Z</time></trkpt><trkpt lat="45.812106" lon="11.6239537"><ele>1112.4</ele><time>2026-05-01T08:22:12.596Z</time></trkpt><trkpt lat="45.8120978" lon="11.6240441"><ele>1111.6</ele><time>2026-05-01T08:22:13.583Z</time></trkpt><trkpt lat="45.8120892" lon="11.6242186"><ele>1110.8</ele><time>2026-05-01T08:22:15.593Z</time></trkpt><trkpt lat="45.8120906" lon="11.6243862"><ele>1110.0</ele><time>2026-05-01T08:22:17.593Z</time></trkpt><trkpt lat="45.8120941" lon="11.6244764"><ele>1108.25</ele><time>2026-05-01T08:22:18.606Z</time></trkpt><trkpt lat="45.8121024" lon="11.6246516"><ele>1106.5</ele><time>2026-05-01T08:22:20.604Z</time></trkpt><trkpt lat="45.8121075" lon="11.6248153"><ele>1104.75</ele><time>2026-05-01T08:22:22.591Z</time></trkpt><trkpt lat="45.812108" lon="11.6249739"><ele>1103.0</ele><time>2026-05-01T08:22:24.576Z</time></trkpt><trkpt lat="45.8121139" lon="11.6251452"><ele>1103.0</ele><time>2026-05-01T08:22:26.594Z</time></trkpt><trkpt lat="45.8121229" lon="11.6252535"><ele>1103.0</ele><time>2026-05-01T08:22:27.583Z</time></trkpt><trkpt lat="45.8121315" lon="11.6253725"><ele>1103.0</ele><time>2026-05-01T08:22:28.583Z</time></trkpt><trkpt lat="45.8121446" lon="11.6254945"><ele>1103.0</ele><time>2026-05-01T08:22:29.596Z</time></trkpt><trkpt lat="45.8121614" lon="11.6256154"><ele>1103.0</ele><time>2026-05-01T08:22:30.585Z</time></trkpt><trkpt lat="45.8121751" lon="11.6257303"><ele>1103.0</ele><time>2026-05-01T08:22:31.588Z</time></trkpt><trkpt lat="45.8121828" lon="11.6258433"><ele>1103.5714285714287</ele><time>2026-05-01T08:22:32.586Z</time></trkpt><trkpt lat="45.8121891" lon="11.6259524"><ele>1104.142857142857</ele><time>2026-05-01T08:22:33.594Z</time></trkpt><trkpt lat="45.8121953" lon="11.626061"><ele>1104.7142857142858</ele><time>2026-05-01T08:22:34.588Z</time></trkpt><trkpt lat="45.8122009" lon="11.6261685"><ele>1105.2857142857142</ele><time>2026-05-01T08:22:35.591Z</time></trkpt><trkpt lat="45.8122057" lon="11.6262718"><ele>1105.857142857143</ele><time>2026-05-01T08:22:36.614Z</time></trkpt><trkpt lat="45.8121977" lon="11.6263718"><ele>1106.4285714285716</ele><time>2026-05-01T08:22:37.596Z</time></trkpt><trkpt lat="45.8121814" lon="11.6264804"><ele>1107.0</ele><time>2026-05-01T08:22:38.588Z</time></trkpt><trkpt lat="45.8121582" lon="11.6265809"><ele>1107.0</ele><time>2026-05-01T08:22:39.591Z</time></trkpt><trkpt lat="45.8121323" lon="11.6266699"><ele>1107.0</ele><time>2026-05-01T08:22:40.595Z</time></trkpt><trkpt lat="45.8121065" lon="11.6267574"><ele>1107.0</ele><time>2026-05-01T08:22:41.593Z</time></trkpt><trkpt lat="45.8120798" lon="11.6268476"><ele>1107.0</ele><time>2026-05-01T08:22:42.591Z</time></trkpt><trkpt lat="45.8120556" lon="11.6269418"><ele>1107.0</ele><time>2026-05-01T08:22:43.592Z</time></trkpt><trkpt lat="45.8120318" lon="11.627036"><ele>1107.0</ele><time>2026-05-01T08:22:44.585Z</time></trkpt><trkpt lat="45.8120023" lon="11.6271366"><ele>1107.0</ele><time>2026-05-01T08:22:45.589Z</time></trkpt><trkpt lat="45.811973" lon="11.6272408"><ele>1105.6666666666667</ele><time>2026-05-01T08:22:46.594Z</time></trkpt><trkpt lat="45.8119439" lon="11.6273526"><ele>1104.3333333333333</ele><time>2026-05-01T08:22:47.587Z</time></trkpt><trkpt lat="45.8119155" lon="11.6274658"><ele>1103.0</ele><time>2026-05-01T08:22:48.589Z</time></trkpt><trkpt lat="45.8118961" lon="11.6275799"><ele>1101.6666666666665</ele><time>2026-05-01T08:22:49.606Z</time></trkpt><trkpt lat="45.8118772" lon="11.6276966"><ele>1100.3333333333333</ele><time>2026-05-01T08:22:50.586Z</time></trkpt><trkpt lat="45.8118632" lon="11.6278098"><ele>1099.0</ele><time>2026-05-01T08:22:51.586Z</time></trkpt><trkpt lat="45.8118507" lon="11.6279235"><ele>1098.0</ele><time>2026-05-01T08:22:52.595Z</time></trkpt><trkpt lat="45.8118371" lon="11.6280293"><ele>1097.0</ele><time>2026-05-01T08:22:53.585Z</time></trkpt><trkpt lat="45.8118221" lon="11.6281462"><ele>1096.0</ele><time>2026-05-01T08:22:54.59Z</time></trkpt><trkpt lat="45.8118132" lon="11.6282802"><ele>1095.0</ele><time>2026-05-01T08:22:55.588Z</time></trkpt><trkpt lat="45.8118016" lon="11.6284046"><ele>1094.0</ele><time>2026-05-01T08:22:56.586Z</time></trkpt><trkpt lat="45.8118007" lon="11.6285303"><ele>1093.0</ele><time>2026-05-01T08:22:57.593Z</time></trkpt><trkpt lat="45.8117963" lon="11.6286601"><ele>1093.0</ele><time>2026-05-01T08:22:58.588Z</time></trkpt><trkpt lat="45.8117895" lon="11.6287822"><ele>1093.0</ele><time>2026-05-01T08:22:59.587Z</time></trkpt><trkpt lat="45.8117813" lon="11.6289072"><ele>1093.0</ele><time>2026-05-01T08:23:00.595Z</time></trkpt><trkpt lat="45.8117819" lon="11.6290293"><ele>1093.0</ele><time>2026-05-01T08:23:01.589Z</time></trkpt><trkpt lat="45.8117807" lon="11.6291421"><ele>1093.0</ele><time>2026-05-01T08:23:02.59Z</time></trkpt><trkpt lat="45.8117861" lon="11.6292385"><ele>1093.0</ele><time>2026-05-01T08:23:03.605Z</time></trkpt><trkpt lat="45.8117749" lon="11.6293975"><ele>1092.5</ele><time>2026-05-01T08:23:05.586Z</time></trkpt><trkpt lat="45.8117384" lon="11.629542"><ele>1092.0</ele><time>2026-05-01T08:23:07.587Z</time></trkpt><trkpt lat="45.8117106" lon="11.629624"><ele>1091.5</ele><time>2026-05-01T08:23:08.591Z</time></trkpt><trkpt lat="45.8116851" lon="11.6297288"><ele>1091.0</ele><time>2026-05-01T08:23:09.587Z</time></trkpt><trkpt lat="45.8116666" lon="11.6298407"><ele>1090.5</ele><time>2026-05-01T08:23:10.591Z</time></trkpt><trkpt lat="45.8116495" lon="11.6299422"><ele>1090.0</ele><time>2026-05-01T08:23:11.589Z</time></trkpt><trkpt lat="45.8116264" lon="11.6300371"><ele>1090.0</ele><time>2026-05-01T08:23:12.592Z</time></trkpt><trkpt lat="45.8116004" lon="11.6301287"><ele>1090.0</ele><time>2026-05-01T08:23:13.589Z</time></trkpt><trkpt lat="45.8115858" lon="11.6302188"><ele>1090.0</ele><time>2026-05-01T08:23:14.586Z</time></trkpt><trkpt lat="45.8115754" lon="11.6303131"><ele>1090.0</ele><time>2026-05-01T08:23:15.595Z</time></trkpt><trkpt lat="45.8115671" lon="11.6304168"><ele>1090.0</ele><time>2026-05-01T08:23:16.592Z</time></trkpt><trkpt lat="45.8115636" lon="11.6305174"><ele>1090.0</ele><time>2026-05-01T08:23:17.59Z</time></trkpt><trkpt lat="45.8115663" lon="11.6306115"><ele>1090.0</ele><time>2026-05-01T08:23:18.594Z</time></trkpt><trkpt lat="45.8115804" lon="11.6307854"><ele>1090.0</ele><time>2026-05-01T08:23:20.591Z</time></trkpt><trkpt lat="45.8116017" lon="11.6309625"><ele>1090.0</ele><time>2026-05-01T08:23:22.583Z</time></trkpt><trkpt lat="45.8116157" lon="11.6310569"><ele>1090.0</ele><time>2026-05-01T08:23:23.587Z</time></trkpt><trkpt lat="45.8116304" lon="11.6311593"><ele>1090.0</ele><time>2026-05-01T08:23:24.595Z</time></trkpt><trkpt lat="45.8116382" lon="11.6312543"><ele>1090.0</ele><time>2026-05-01T08:23:25.591Z</time></trkpt><trkpt lat="45.8116406" lon="11.6313537"><ele>1090.0</ele><time>2026-05-01T08:23:26.6Z</time></trkpt><trkpt lat="45.8116371" lon="11.6314586"><ele>1090.0</ele><time>2026-05-01T08:23:27.591Z</time></trkpt><trkpt lat="45.8116322" lon="11.6315699"><ele>1090.0</ele><time>2026-05-01T08:23:28.593Z</time></trkpt><trkpt lat="45.8116281" lon="11.6316821"><ele>1090.0</ele><time>2026-05-01T08:23:29.59Z</time></trkpt><trkpt lat="45.811625" lon="11.63179"><ele>1090.0</ele><time>2026-05-01T08:23:30.587Z</time></trkpt><trkpt lat="45.8116211" lon="11.6318938"><ele>1090.0</ele><time>2026-05-01T08:23:31.596Z</time></trkpt><trkpt lat="45.8116168" lon="11.6319932"><ele>1090.0</ele><time>2026-05-01T08:23:32.592Z</time></trkpt><trkpt lat="45.811612" lon="11.6320883"><ele>1090.0</ele><time>2026-05-01T08:23:33.587Z</time></trkpt><trkpt lat="45.8116087" lon="11.6321851"><ele>1091.1666666666665</ele><time>2026-05-01T08:23:34.592Z</time></trkpt><trkpt lat="45.8115959" lon="11.6323553"><ele>1092.3333333333333</ele><time>2026-05-01T08:23:36.592Z</time></trkpt><trkpt lat="45.811586" lon="11.6324473"><ele>1093.5</ele><time>2026-05-01T08:23:37.588Z</time></trkpt><trkpt lat="45.8115755" lon="11.6325455"><ele>1094.6666666666667</ele><time>2026-05-01T08:23:38.589Z</time></trkpt><trkpt lat="45.8115682" lon="11.6326481"><ele>1095.8333333333335</ele><time>2026-05-01T08:23:39.596Z</time></trkpt><trkpt lat="45.8115634" lon="11.6327511"><ele>1097.0</ele><time>2026-05-01T08:23:40.594Z</time></trkpt><trkpt lat="45.8115566" lon="11.632855"><ele>1097.8333333333335</ele><time>2026-05-01T08:23:41.592Z</time></trkpt><trkpt lat="45.8115473" lon="11.6329609"><ele>1098.6666666666667</ele><time>2026-05-01T08:23:42.597Z</time></trkpt><trkpt lat="45.8115363" lon="11.6330692"><ele>1099.5</ele><time>2026-05-01T08:23:43.568Z</time></trkpt><trkpt lat="45.8115252" lon="11.6331763"><ele>1100.3333333333333</ele><time>2026-05-01T08:23:44.6Z</time></trkpt><trkpt lat="45.8115107" lon="11.6332891"><ele>1101.1666666666665</ele><time>2026-05-01T08:23:45.589Z</time></trkpt><trkpt lat="45.8114961" lon="11.633402"><ele>1102.0</ele><time>2026-05-01T08:23:46.583Z</time></trkpt><trkpt lat="45.8114825" lon="11.6335232"><ele>1103.142857142857</ele><time>2026-05-01T08:23:47.585Z</time></trkpt><trkpt lat="45.8114713" lon="11.6336459"><ele>1104.2857142857142</ele><time>2026-05-01T08:23:48.578Z</time></trkpt><trkpt lat="45.8114603" lon="11.6337626"><ele>1105.4285714285716</ele><time>2026-05-01T08:23:49.593Z</time></trkpt><trkpt lat="45.8114467" lon="11.6338648"><ele>1106.5714285714284</ele><time>2026-05-01T08:23:50.594Z</time></trkpt><trkpt lat="45.8114325" lon="11.6339646"><ele>1107.7142857142858</ele><time>2026-05-01T08:23:51.596Z</time></trkpt><trkpt lat="45.811421" lon="11.6340601"><ele>1108.857142857143</ele><time>2026-05-01T08:23:52.599Z</time></trkpt><trkpt lat="45.8114083" lon="11.6341533"><ele>1110.0</ele><time>2026-05-01T08:23:53.594Z</time></trkpt><trkpt lat="45.8113975" lon="11.6342487"><ele>1110.0</ele><time>2026-05-01T08:23:54.578Z</time></trkpt><trkpt lat="45.811392" lon="11.6343501"><ele>1110.0</ele><time>2026-05-01T08:23:55.59Z</time></trkpt><trkpt lat="45.8113905" lon="11.6344548"><ele>1110.0</ele><time>2026-05-01T08:23:56.593Z</time></trkpt><trkpt lat="45.811389" lon="11.6345639"><ele>1110.0</ele><time>2026-05-01T08:23:57.599Z</time></trkpt><trkpt lat="45.8113908" lon="11.6346807"><ele>1110.0</ele><time>2026-05-01T08:23:58.589Z</time></trkpt><trkpt lat="45.8113947" lon="11.6348005"><ele>1110.0</ele><time>2026-05-01T08:23:59.59Z</time></trkpt><trkpt lat="45.8113967" lon="11.6349181"><ele>1111.5</ele><time>2026-05-01T08:24:00.589Z</time></trkpt><trkpt lat="45.8113994" lon="11.6350365"><ele>1113.0</ele><time>2026-05-01T08:24:01.586Z</time></trkpt><trkpt lat="45.8114052" lon="11.6351559"><ele>1114.5</ele><time>2026-05-01T08:24:02.584Z</time></trkpt><trkpt lat="45.8114135" lon="11.6352711"><ele>1116.0</ele><time>2026-05-01T08:24:03.584Z</time></trkpt><trkpt lat="45.8114228" lon="11.6353835"><ele>1117.5</ele><time>2026-05-01T08:24:04.581Z</time></trkpt><trkpt lat="45.8114322" lon="11.6354942"><ele>1119.0</ele><time>2026-05-01T08:24:05.587Z</time></trkpt><trkpt lat="45.8114404" lon="11.6356028"><ele>1121.1666666666667</ele><time>2026-05-01T08:24:06.596Z</time></trkpt><trkpt lat="45.8114481" lon="11.6357069"><ele>1123.3333333333333</ele><time>2026-05-01T08:24:07.587Z</time></trkpt><trkpt lat="45.8114599" lon="11.6358091"><ele>1125.5</ele><time>2026-05-01T08:24:08.586Z</time></trkpt><trkpt lat="45.8115082" lon="11.6359694"><ele>1127.6666666666665</ele><time>2026-05-01T08:24:10.587Z</time></trkpt><trkpt lat="45.8115489" lon="11.636048"><ele>1129.8333333333333</ele><time>2026-05-01T08:24:11.589Z</time></trkpt><trkpt lat="45.8116026" lon="11.636124"><ele>1132.0</ele><time>2026-05-01T08:24:12.587Z</time></trkpt><trkpt lat="45.8116658" lon="11.6361934"><ele>1134.0</ele><time>2026-05-01T08:24:13.586Z</time></trkpt><trkpt lat="45.8117295" lon="11.6362624"><ele>1136.0</ele><time>2026-05-01T08:24:14.589Z</time></trkpt><trkpt lat="45.8117954" lon="11.6363138"><ele>1138.0</ele><time>2026-05-01T08:24:15.604Z</time></trkpt><trkpt lat="45.8118588" lon="11.6363578"><ele>1140.0</ele><time>2026-05-01T08:24:16.589Z</time></trkpt><trkpt lat="45.8119192" lon="11.6363896"><ele>1142.0</ele><time>2026-05-01T08:24:17.594Z</time></trkpt><trkpt lat="45.8120313" lon="11.6364399"><ele>1144.0</ele><time>2026-05-01T08:24:19.587Z</time></trkpt><trkpt lat="45.812144" lon="11.636477"><ele>1144.0</ele><time>2026-05-01T08:24:21.588Z</time></trkpt><trkpt lat="45.8122422" lon="11.6365131"><ele>1144.0</ele><time>2026-05-01T08:24:23.583Z</time></trkpt><trkpt lat="45.8123196" lon="11.6365605"><ele>1144.0</ele><time>2026-05-01T08:24:25.592Z</time></trkpt><trkpt lat="45.8123406" lon="11.6366949"><ele>1144.0</ele><time>2026-05-01T08:24:27.58Z</time></trkpt><trkpt lat="45.8123232" lon="11.6368727"><ele>1144.0</ele><time>2026-05-01T08:24:29.588Z</time></trkpt><trkpt lat="45.8123074" lon="11.6369648"><ele>1144.7142857142856</ele><time>2026-05-01T08:24:30.595Z</time></trkpt><trkpt lat="45.8122851" lon="11.6370555"><ele>1145.4285714285713</ele><time>2026-05-01T08:24:31.588Z</time></trkpt><trkpt lat="45.8122465" lon="11.6371432"><ele>1146.142857142857</ele><time>2026-05-01T08:24:32.592Z</time></trkpt><trkpt lat="45.8122052" lon="11.6372413"><ele>1146.8571428571427</ele><time>2026-05-01T08:24:33.587Z</time></trkpt><trkpt lat="45.8121718" lon="11.6373333"><ele>1147.5714285714284</ele><time>2026-05-01T08:24:34.585Z</time></trkpt><trkpt lat="45.8121428" lon="11.6374278"><ele>1148.2857142857142</ele><time>2026-05-01T08:24:35.593Z</time></trkpt><trkpt lat="45.8121165" lon="11.6375153"><ele>1149.0</ele><time>2026-05-01T08:24:36.586Z</time></trkpt><trkpt lat="45.8120575" lon="11.6376548"><ele>1149.0</ele><time>2026-05-01T08:24:38.589Z</time></trkpt><trkpt lat="45.812006" lon="11.6377372"><ele>1149.0</ele><time>2026-05-01T08:24:39.609Z</time></trkpt><trkpt lat="45.811954" lon="11.6378155"><ele>1149.0</ele><time>2026-05-01T08:24:40.591Z</time></trkpt><trkpt lat="45.8118995" lon="11.6378972"><ele>1149.0</ele><time>2026-05-01T08:24:41.59Z</time></trkpt><trkpt lat="45.8118508" lon="11.6379741"><ele>1149.0</ele><time>2026-05-01T08:24:42.587Z</time></trkpt><trkpt lat="45.8118075" lon="11.6380508"><ele>1149.0</ele><time>2026-05-01T08:24:43.587Z</time></trkpt><trkpt lat="45.8117654" lon="11.6381317"><ele>1149.0</ele><time>2026-05-01T08:24:44.592Z</time></trkpt><trkpt lat="45.8117304" lon="11.6382145"><ele>1150.6000000000001</ele><time>2026-05-01T08:24:45.581Z</time></trkpt><trkpt lat="45.8116773" lon="11.6383703"><ele>1152.2</ele><time>2026-05-01T08:24:47.593Z</time></trkpt><trkpt lat="45.8116782" lon="11.6385252"><ele>1153.8000000000002</ele><time>2026-05-01T08:24:49.592Z</time></trkpt><trkpt lat="45.8117085" lon="11.638642"><ele>1155.4</ele><time>2026-05-01T08:24:51.592Z</time></trkpt><trkpt lat="45.8118082" lon="11.6387333"><ele>1157.0</ele><time>2026-05-01T08:24:53.588Z</time></trkpt><trkpt lat="45.8118815" lon="11.6387589"><ele>1157.0</ele><time>2026-05-01T08:24:54.588Z</time></trkpt><trkpt lat="45.811959" lon="11.6387939"><ele>1157.0</ele><time>2026-05-01T08:24:55.594Z</time></trkpt><trkpt lat="45.8120322" lon="11.6388492"><ele>1157.0</ele><time>2026-05-01T08:24:56.594Z</time></trkpt><trkpt lat="45.812104" lon="11.6389065"><ele>1157.0</ele><time>2026-05-01T08:24:57.66Z</time></trkpt><trkpt lat="45.8122821" lon="11.6391596"><ele>1157.0</ele><time>2026-05-01T08:25:00.597Z</time></trkpt><trkpt lat="45.8123332" lon="11.6392742"><ele>1157.0</ele><time>2026-05-01T08:25:01.574Z</time></trkpt><trkpt lat="45.8123785" lon="11.6393989"><ele>1157.0</ele><time>2026-05-01T08:25:02.572Z</time></trkpt><trkpt lat="45.8124192" lon="11.6395294"><ele>1157.0</ele><time>2026-05-01T08:25:03.56Z</time></trkpt><trkpt lat="45.8124583" lon="11.6396627"><ele>1157.0</ele><time>2026-05-01T08:25:04.565Z</time></trkpt><trkpt lat="45.8124925" lon="11.6397949"><ele>1157.0</ele><time>2026-05-01T08:25:05.562Z</time></trkpt><trkpt lat="45.8125198" lon="11.6399296"><ele>1157.0</ele><time>2026-05-01T08:25:06.56Z</time></trkpt><trkpt lat="45.8125397" lon="11.6400609"><ele>1157.0</ele><time>2026-05-01T08:25:07.561Z</time></trkpt><trkpt lat="45.8125605" lon="11.6401873"><ele>1157.0</ele><time>2026-05-01T08:25:08.581Z</time></trkpt><trkpt lat="45.8125564" lon="11.6403166"><ele>1157.0</ele><time>2026-05-01T08:25:09.561Z</time></trkpt><trkpt lat="45.8125518" lon="11.6404466"><ele>1155.4</ele><time>2026-05-01T08:25:10.578Z</time></trkpt><trkpt lat="45.8125228" lon="11.6405808"><ele>1153.8000000000002</ele><time>2026-05-01T08:25:11.561Z</time></trkpt><trkpt lat="45.8124816" lon="11.6407083"><ele>1152.2</ele><time>2026-05-01T08:25:12.587Z</time></trkpt><trkpt lat="45.8124402" lon="11.6408326"><ele>1150.6000000000001</ele><time>2026-05-01T08:25:13.586Z</time></trkpt><trkpt lat="45.8124082" lon="11.6409625"><ele>1149.0</ele><time>2026-05-01T08:25:14.57Z</time></trkpt><trkpt lat="45.8123778" lon="11.6410866"><ele>1147.0</ele><time>2026-05-01T08:25:15.588Z</time></trkpt><trkpt lat="45.8123667" lon="11.6412151"><ele>1145.0</ele><time>2026-05-01T08:25:16.569Z</time></trkpt><trkpt lat="45.8123683" lon="11.6413459"><ele>1143.0</ele><time>2026-05-01T08:25:17.581Z</time></trkpt><trkpt lat="45.8123787" lon="11.6414758"><ele>1141.0</ele><time>2026-05-01T08:25:18.598Z</time></trkpt><trkpt lat="45.8124084" lon="11.6415978"><ele>1139.0</ele><time>2026-05-01T08:25:19.574Z</time></trkpt><trkpt lat="45.8124536" lon="11.6417104"><ele>1139.0</ele><time>2026-05-01T08:25:20.566Z</time></trkpt><trkpt lat="45.8125088" lon="11.6418152"><ele>1139.0</ele><time>2026-05-01T08:25:21.568Z</time></trkpt><trkpt lat="45.8125758" lon="11.6419197"><ele>1139.0</ele><time>2026-05-01T08:25:22.612Z</time></trkpt><trkpt lat="45.8126501" lon="11.6420217"><ele>1139.0</ele><time>2026-05-01T08:25:23.593Z</time></trkpt><trkpt lat="45.8127266" lon="11.6421228"><ele>1139.0</ele><time>2026-05-01T08:25:24.592Z</time></trkpt><trkpt lat="45.8128067" lon="11.64222"><ele>1136.4</ele><time>2026-05-01T08:25:25.595Z</time></trkpt><trkpt lat="45.8128843" lon="11.6423274"><ele>1133.8000000000002</ele><time>2026-05-01T08:25:26.588Z</time></trkpt><trkpt lat="45.8129612" lon="11.6424366"><ele>1131.1999999999998</ele><time>2026-05-01T08:25:27.59Z</time></trkpt><trkpt lat="45.813039" lon="11.6425396"><ele>1128.6</ele><time>2026-05-01T08:25:28.587Z</time></trkpt><trkpt lat="45.8131146" lon="11.6426314"><ele>1126.0</ele><time>2026-05-01T08:25:29.584Z</time></trkpt><trkpt lat="45.8131806" lon="11.6427202"><ele>1125.0</ele><time>2026-05-01T08:25:30.587Z</time></trkpt><trkpt lat="45.813242" lon="11.6428148"><ele>1124.0</ele><time>2026-05-01T08:25:31.59Z</time></trkpt><trkpt lat="45.8132926" lon="11.6429141"><ele>1123.0</ele><time>2026-05-01T08:25:32.591Z</time></trkpt><trkpt lat="45.8133444" lon="11.6430103"><ele>1122.0</ele><time>2026-05-01T08:25:33.593Z</time></trkpt><trkpt lat="45.8134044" lon="11.6430869"><ele>1121.0</ele><time>2026-05-01T08:25:34.586Z</time></trkpt><trkpt lat="45.8134611" lon="11.6431574"><ele>1120.0</ele><time>2026-05-01T08:25:35.59Z</time></trkpt><trkpt lat="45.8135258" lon="11.6432023"><ele>1120.0</ele><time>2026-05-01T08:25:36.589Z</time></trkpt><trkpt lat="45.8135982" lon="11.6432226"><ele>1120.0</ele><time>2026-05-01T08:25:37.59Z</time></trkpt><trkpt lat="45.8136745" lon="11.6432469"><ele>1120.0</ele><time>2026-05-01T08:25:38.586Z</time></trkpt><trkpt lat="45.8137496" lon="11.6432709"><ele>1120.0</ele><time>2026-05-01T08:25:39.579Z</time></trkpt><trkpt lat="45.8138152" lon="11.6432951"><ele>1120.0</ele><time>2026-05-01T08:25:40.589Z</time></trkpt><trkpt lat="45.813904" lon="11.6433765"><ele>1120.0</ele><time>2026-05-01T08:25:42.589Z</time></trkpt><trkpt lat="45.813987" lon="11.6434314"><ele>1120.0</ele><time>2026-05-01T08:25:44.606Z</time></trkpt><trkpt lat="45.8141194" lon="11.6434774"><ele>1120.0</ele><time>2026-05-01T08:25:46.588Z</time></trkpt><trkpt lat="45.814209" lon="11.643478"><ele>1120.0</ele><time>2026-05-01T08:25:47.587Z</time></trkpt><trkpt lat="45.8143053" lon="11.64345"><ele>1120.0</ele><time>2026-05-01T08:25:48.589Z</time></trkpt><trkpt lat="45.8144047" lon="11.6433894"><ele>1120.0</ele><time>2026-05-01T08:25:49.591Z</time></trkpt><trkpt lat="45.8145042" lon="11.6433007"><ele>1121.5</ele><time>2026-05-01T08:25:50.587Z</time></trkpt><trkpt lat="45.8145955" lon="11.643187"><ele>1123.0</ele><time>2026-05-01T08:25:51.588Z</time></trkpt><trkpt lat="45.8146743" lon="11.6430522"><ele>1124.5</ele><time>2026-05-01T08:25:52.588Z</time></trkpt><trkpt lat="45.8147323" lon="11.6429067"><ele>1126.0</ele><time>2026-05-01T08:25:53.583Z</time></trkpt><trkpt lat="45.8147754" lon="11.6427625"><ele>1123.0</ele><time>2026-05-01T08:25:54.602Z</time></trkpt><trkpt lat="45.8148219" lon="11.642615"><ele>1120.0</ele><time>2026-05-01T08:25:55.594Z</time></trkpt><trkpt lat="45.8148821" lon="11.6424724"><ele>1117.0</ele><time>2026-05-01T08:25:56.587Z</time></trkpt><trkpt lat="45.8149511" lon="11.6423419"><ele>1114.0</ele><time>2026-05-01T08:25:57.582Z</time></trkpt><trkpt lat="45.8150212" lon="11.6422198"><ele>1114.0</ele><time>2026-05-01T08:25:58.586Z</time></trkpt><trkpt lat="45.8150966" lon="11.6421089"><ele>1114.0</ele><time>2026-05-01T08:25:59.587Z</time></trkpt><trkpt lat="45.8151734" lon="11.6420093"><ele>1114.0</ele><time>2026-05-01T08:26:00.581Z</time></trkpt><trkpt lat="45.8152535" lon="11.641906"><ele>1114.0</ele><time>2026-05-01T08:26:01.59Z</time></trkpt><trkpt lat="45.8153393" lon="11.6417928"><ele>1114.0</ele><time>2026-05-01T08:26:02.578Z</time></trkpt><trkpt lat="45.8154232" lon="11.6416639"><ele>1114.25</ele><time>2026-05-01T08:26:03.584Z</time></trkpt><trkpt lat="45.815497" lon="11.6415118"><ele>1114.5</ele><time>2026-05-01T08:26:04.574Z</time></trkpt><trkpt lat="45.8155559" lon="11.6413396"><ele>1114.75</ele><time>2026-05-01T08:26:05.584Z</time></trkpt><trkpt lat="45.8156052" lon="11.6411544"><ele>1115.0</ele><time>2026-05-01T08:26:06.59Z</time></trkpt><trkpt lat="45.8156495" lon="11.6409658"><ele>1113.0</ele><time>2026-05-01T08:26:07.579Z</time></trkpt><trkpt lat="45.8156922" lon="11.6407879"><ele>1111.0</ele><time>2026-05-01T08:26:08.585Z</time></trkpt><trkpt lat="45.8157343" lon="11.6406202"><ele>1109.0</ele><time>2026-05-01T08:26:09.582Z</time></trkpt><trkpt lat="45.8157786" lon="11.6404609"><ele>1107.0</ele><time>2026-05-01T08:26:10.595Z</time></trkpt><trkpt lat="45.8158287" lon="11.6403007"><ele>1105.5</ele><time>2026-05-01T08:26:11.583Z</time></trkpt><trkpt lat="45.815884" lon="11.6401391"><ele>1104.0</ele><time>2026-05-01T08:26:12.576Z</time></trkpt><trkpt lat="45.8159432" lon="11.6399814"><ele>1102.5</ele><time>2026-05-01T08:26:13.568Z</time></trkpt><trkpt lat="45.8160069" lon="11.6398208"><ele>1101.0</ele><time>2026-05-01T08:26:14.579Z</time></trkpt><trkpt lat="45.8160738" lon="11.6396567"><ele>1102.25</ele><time>2026-05-01T08:26:15.578Z</time></trkpt><trkpt lat="45.8161401" lon="11.639489"><ele>1103.5</ele><time>2026-05-01T08:26:16.581Z</time></trkpt><trkpt lat="45.8162057" lon="11.6393187"><ele>1104.75</ele><time>2026-05-01T08:26:17.583Z</time></trkpt><trkpt lat="45.8162706" lon="11.6391455"><ele>1106.0</ele><time>2026-05-01T08:26:18.606Z</time></trkpt><trkpt lat="45.8163391" lon="11.6389704"><ele>1106.0</ele><time>2026-05-01T08:26:19.586Z</time></trkpt><trkpt lat="45.816408" lon="11.6387918"><ele>1106.0</ele><time>2026-05-01T08:26:20.581Z</time></trkpt><trkpt lat="45.8164764" lon="11.6386069"><ele>1106.0</ele><time>2026-05-01T08:26:21.59Z</time></trkpt><trkpt lat="45.8165389" lon="11.6384135"><ele>1106.0</ele><time>2026-05-01T08:26:22.584Z</time></trkpt><trkpt lat="45.8165909" lon="11.638214"><ele>1104.25</ele><time>2026-05-01T08:26:23.586Z</time></trkpt><trkpt lat="45.8166307" lon="11.6380097"><ele>1102.5</ele><time>2026-05-01T08:26:24.595Z</time></trkpt><trkpt lat="45.81666" lon="11.6378036"><ele>1100.75</ele><time>2026-05-01T08:26:25.578Z</time></trkpt><trkpt lat="45.8166827" lon="11.6375952"><ele>1099.0</ele><time>2026-05-01T08:26:26.581Z</time></trkpt><trkpt lat="45.8167018" lon="11.6373799"><ele>1097.3333333333333</ele><time>2026-05-01T08:26:27.582Z</time></trkpt><trkpt lat="45.8167188" lon="11.6371594"><ele>1095.6666666666667</ele><time>2026-05-01T08:26:28.582Z</time></trkpt><trkpt lat="45.8167341" lon="11.6369351"><ele>1094.0</ele><time>2026-05-01T08:26:29.581Z</time></trkpt><trkpt lat="45.8167494" lon="11.6367081"><ele>1093.3333333333335</ele><time>2026-05-01T08:26:30.588Z</time></trkpt><trkpt lat="45.8167639" lon="11.6364805"><ele>1092.6666666666667</ele><time>2026-05-01T08:26:31.584Z</time></trkpt><trkpt lat="45.8167784" lon="11.6362529"><ele>1092.0</ele><time>2026-05-01T08:26:32.583Z</time></trkpt><trkpt lat="45.8167973" lon="11.6360381"><ele>1093.5</ele><time>2026-05-01T08:26:33.587Z</time></trkpt><trkpt lat="45.8168326" lon="11.6358453"><ele>1095.0</ele><time>2026-05-01T08:26:34.584Z</time></trkpt><trkpt lat="45.8168979" lon="11.6356727"><ele>1096.5</ele><time>2026-05-01T08:26:35.584Z</time></trkpt><trkpt lat="45.8169876" lon="11.6355269"><ele>1098.0</ele><time>2026-05-01T08:26:36.581Z</time></trkpt><trkpt lat="45.8170778" lon="11.6354035"><ele>1097.75</ele><time>2026-05-01T08:26:37.589Z</time></trkpt><trkpt lat="45.8171445" lon="11.6352759"><ele>1097.5</ele><time>2026-05-01T08:26:38.594Z</time></trkpt><trkpt lat="45.817178" lon="11.6351228"><ele>1097.25</ele><time>2026-05-01T08:26:39.584Z</time></trkpt><trkpt lat="45.8171713" lon="11.6349478"><ele>1097.0</ele><time>2026-05-01T08:26:40.582Z</time></trkpt><trkpt lat="45.8171248" lon="11.6347628"><ele>1097.0</ele><time>2026-05-01T08:26:41.59Z</time></trkpt><trkpt lat="45.8170475" lon="11.6345769"><ele>1097.0</ele><time>2026-05-01T08:26:42.578Z</time></trkpt><trkpt lat="45.8169643" lon="11.6343961"><ele>1097.0</ele><time>2026-05-01T08:26:43.589Z</time></trkpt><trkpt lat="45.8168877" lon="11.6342244"><ele>1097.0</ele><time>2026-05-01T08:26:44.576Z</time></trkpt><trkpt lat="45.816821" lon="11.6340594"><ele>1094.25</ele><time>2026-05-01T08:26:45.582Z</time></trkpt><trkpt lat="45.8167656" lon="11.6338841"><ele>1091.5</ele><time>2026-05-01T08:26:46.584Z</time></trkpt><trkpt lat="45.816721" lon="11.6336975"><ele>1088.75</ele><time>2026-05-01T08:26:47.585Z</time></trkpt><trkpt lat="45.8166841" lon="11.6335099"><ele>1086.0</ele><time>2026-05-01T08:26:48.59Z</time></trkpt><trkpt lat="45.8166512" lon="11.6333267"><ele>1085.75</ele><time>2026-05-01T08:26:49.582Z</time></trkpt><trkpt lat="45.816625" lon="11.6331511"><ele>1085.5</ele><time>2026-05-01T08:26:50.582Z</time></trkpt><trkpt lat="45.8166159" lon="11.6329829"><ele>1085.25</ele><time>2026-05-01T08:26:51.581Z</time></trkpt><trkpt lat="45.8166352" lon="11.6328164"><ele>1085.0</ele><time>2026-05-01T08:26:52.58Z</time></trkpt><trkpt lat="45.8166824" lon="11.6326518"><ele>1085.5</ele><time>2026-05-01T08:26:53.582Z</time></trkpt><trkpt lat="45.8167473" lon="11.6324925"><ele>1086.0</ele><time>2026-05-01T08:26:54.586Z</time></trkpt><trkpt lat="45.8168215" lon="11.6323365"><ele>1086.5</ele><time>2026-05-01T08:26:55.591Z</time></trkpt><trkpt lat="45.8168995" lon="11.6321802"><ele>1087.0</ele><time>2026-05-01T08:26:56.594Z</time></trkpt><trkpt lat="45.8169783" lon="11.6320244"><ele>1085.5</ele><time>2026-05-01T08:26:57.582Z</time></trkpt><trkpt lat="45.8170577" lon="11.6318665"><ele>1084.0</ele><time>2026-05-01T08:26:58.582Z</time></trkpt><trkpt lat="45.817138" lon="11.6317074"><ele>1082.5</ele><time>2026-05-01T08:26:59.582Z</time></trkpt><trkpt lat="45.8172204" lon="11.6315471"><ele>1081.0</ele><time>2026-05-01T08:27:00.585Z</time></trkpt><trkpt lat="45.8172988" lon="11.6313804"><ele>1081.0</ele><time>2026-05-01T08:27:01.591Z</time></trkpt><trkpt lat="45.8173606" lon="11.6311981"><ele>1081.0</ele><time>2026-05-01T08:27:02.578Z</time></trkpt><trkpt lat="45.8173989" lon="11.6310016"><ele>1081.0</ele><time>2026-05-01T08:27:03.587Z</time></trkpt><trkpt lat="45.8174124" lon="11.6307961"><ele>1081.0</ele><time>2026-05-01T08:27:04.589Z</time></trkpt><trkpt lat="45.8174133" lon="11.6305871"><ele>1080.25</ele><time>2026-05-01T08:27:05.591Z</time></trkpt><trkpt lat="45.8174108" lon="11.6303769"><ele>1079.5</ele><time>2026-05-01T08:27:06.584Z</time></trkpt><trkpt lat="45.8174064" lon="11.6301655"><ele>1078.75</ele><time>2026-05-01T08:27:07.603Z</time></trkpt><trkpt lat="45.8173943" lon="11.6299538"><ele>1078.0</ele><time>2026-05-01T08:27:08.594Z</time></trkpt><trkpt lat="45.8173652" lon="11.6297464"><ele>1078.0</ele><time>2026-05-01T08:27:09.578Z</time></trkpt><trkpt lat="45.8173334" lon="11.6295472"><ele>1078.0</ele><time>2026-05-01T08:27:10.596Z</time></trkpt><trkpt lat="45.8172731" lon="11.6293723"><ele>1078.0</ele><time>2026-05-01T08:27:11.579Z</time></trkpt><trkpt lat="45.8172252" lon="11.6291978"><ele>1078.0</ele><time>2026-05-01T08:27:12.58Z</time></trkpt><trkpt lat="45.817194" lon="11.6290237"><ele>1078.0</ele><time>2026-05-01T08:27:13.58Z</time></trkpt><trkpt lat="45.8171852" lon="11.6288453"><ele>1078.0</ele><time>2026-05-01T08:27:14.589Z</time></trkpt><trkpt lat="45.8172078" lon="11.6286623"><ele>1078.0</ele><time>2026-05-01T08:27:15.579Z</time></trkpt><trkpt lat="45.8172532" lon="11.6284881"><ele>1078.0</ele><time>2026-05-01T08:27:16.582Z</time></trkpt><trkpt lat="45.8173143" lon="11.6283205"><ele>1077.25</ele><time>2026-05-01T08:27:17.601Z</time></trkpt><trkpt lat="45.8173826" lon="11.6281556"><ele>1076.5</ele><time>2026-05-01T08:27:18.59Z</time></trkpt><trkpt lat="45.817452" lon="11.6279862"><ele>1075.75</ele><time>2026-05-01T08:27:19.593Z</time></trkpt><trkpt lat="45.8175255" lon="11.627814"><ele>1075.0</ele><time>2026-05-01T08:27:20.577Z</time></trkpt><trkpt lat="45.8175989" lon="11.6276553"><ele>1075.75</ele><time>2026-05-01T08:27:21.587Z</time></trkpt><trkpt lat="45.8176618" lon="11.6274994"><ele>1076.5</ele><time>2026-05-01T08:27:22.583Z</time></trkpt><trkpt lat="45.8177104" lon="11.627339"><ele>1077.25</ele><time>2026-05-01T08:27:23.583Z</time></trkpt><trkpt lat="45.8177384" lon="11.6271727"><ele>1078.0</ele><time>2026-05-01T08:27:24.602Z</time></trkpt><trkpt lat="45.8177567" lon="11.6270062"><ele>1077.4</ele><time>2026-05-01T08:27:25.578Z</time></trkpt><trkpt lat="45.8177681" lon="11.6268484"><ele>1076.8</ele><time>2026-05-01T08:27:26.583Z</time></trkpt><trkpt lat="45.8177817" lon="11.6266988"><ele>1076.2</ele><time>2026-05-01T08:27:27.583Z</time></trkpt><trkpt lat="45.8177979" lon="11.6265531"><ele>1075.6</ele><time>2026-05-01T08:27:28.577Z</time></trkpt><trkpt lat="45.8178214" lon="11.6264116"><ele>1075.0</ele><time>2026-05-01T08:27:29.578Z</time></trkpt><trkpt lat="45.8178571" lon="11.6262761"><ele>1075.0</ele><time>2026-05-01T08:27:30.578Z</time></trkpt><trkpt lat="45.8179098" lon="11.6261525"><ele>1075.0</ele><time>2026-05-01T08:27:31.582Z</time></trkpt><trkpt lat="45.817983" lon="11.6260401"><ele>1075.0</ele><time>2026-05-01T08:27:32.581Z</time></trkpt><trkpt lat="45.8180731" lon="11.6259418"><ele>1075.0</ele><time>2026-05-01T08:27:33.579Z</time></trkpt><trkpt lat="45.818172" lon="11.6258523"><ele>1075.0</ele><time>2026-05-01T08:27:34.579Z</time></trkpt><trkpt lat="45.8182842" lon="11.6257862"><ele>1076.0</ele><time>2026-05-01T08:27:35.582Z</time></trkpt><trkpt lat="45.8184056" lon="11.6257222"><ele>1077.0</ele><time>2026-05-01T08:27:36.579Z</time></trkpt><trkpt lat="45.8185354" lon="11.6256594"><ele>1078.0</ele><time>2026-05-01T08:27:37.596Z</time></trkpt><trkpt lat="45.8186622" lon="11.6255772"><ele>1079.0</ele><time>2026-05-01T08:27:38.583Z</time></trkpt><trkpt lat="45.8187746" lon="11.6254575"><ele>1078.0</ele><time>2026-05-01T08:27:39.584Z</time></trkpt><trkpt lat="45.8188726" lon="11.6253042"><ele>1077.0</ele><time>2026-05-01T08:27:40.597Z</time></trkpt><trkpt lat="45.8189543" lon="11.6251284"><ele>1076.0</ele><time>2026-05-01T08:27:41.592Z</time></trkpt><trkpt lat="45.8190238" lon="11.6249432"><ele>1075.0</ele><time>2026-05-01T08:27:42.599Z</time></trkpt><trkpt lat="45.8190893" lon="11.6247552"><ele>1075.0</ele><time>2026-05-01T08:27:43.58Z</time></trkpt><trkpt lat="45.8191548" lon="11.6245686"><ele>1075.0</ele><time>2026-05-01T08:27:44.581Z</time></trkpt><trkpt lat="45.8192172" lon="11.6243908"><ele>1075.0</ele><time>2026-05-01T08:27:45.59Z</time></trkpt><trkpt lat="45.8192818" lon="11.6242144"><ele>1075.0</ele><time>2026-05-01T08:27:46.582Z</time></trkpt><trkpt lat="45.8193508" lon="11.6240454"><ele>1075.5</ele><time>2026-05-01T08:27:47.591Z</time></trkpt><trkpt lat="45.8194255" lon="11.6238823"><ele>1076.0</ele><time>2026-05-01T08:27:48.588Z</time></trkpt><trkpt lat="45.8195039" lon="11.6237224"><ele>1076.5</ele><time>2026-05-01T08:27:49.592Z</time></trkpt><trkpt lat="45.8195836" lon="11.6235644"><ele>1077.0</ele><time>2026-05-01T08:27:50.585Z</time></trkpt><trkpt lat="45.8196633" lon="11.6234076"><ele>1075.75</ele><time>2026-05-01T08:27:51.581Z</time></trkpt><trkpt lat="45.8197408" lon="11.6232506"><ele>1074.5</ele><time>2026-05-01T08:27:52.583Z</time></trkpt><trkpt lat="45.8198203" lon="11.6230958"><ele>1073.25</ele><time>2026-05-01T08:27:53.587Z</time></trkpt><trkpt lat="45.8199082" lon="11.6229529"><ele>1072.0</ele><time>2026-05-01T08:27:54.581Z</time></trkpt><trkpt lat="45.8200102" lon="11.6228282"><ele>1071.0</ele><time>2026-05-01T08:27:55.582Z</time></trkpt><trkpt lat="45.8201235" lon="11.6227218"><ele>1070.0</ele><time>2026-05-01T08:27:56.583Z</time></trkpt><trkpt lat="45.8202412" lon="11.6226254"><ele>1069.0</ele><time>2026-05-01T08:27:57.585Z</time></trkpt><trkpt lat="45.820358" lon="11.6225313"><ele>1068.0</ele><time>2026-05-01T08:27:58.591Z</time></trkpt><trkpt lat="45.8204749" lon="11.6224363"><ele>1070.5</ele><time>2026-05-01T08:27:59.582Z</time></trkpt><trkpt lat="45.8205921" lon="11.6223394"><ele>1073.0</ele><time>2026-05-01T08:28:00.579Z</time></trkpt><trkpt lat="45.8207104" lon="11.6222417"><ele>1075.5</ele><time>2026-05-01T08:28:01.586Z</time></trkpt><trkpt lat="45.8208252" lon="11.6221347"><ele>1078.0</ele><time>2026-05-01T08:28:02.592Z</time></trkpt><trkpt lat="45.8209297" lon="11.6220057"><ele>1079.75</ele><time>2026-05-01T08:28:03.58Z</time></trkpt><trkpt lat="45.82102" lon="11.6218538"><ele>1081.5</ele><time>2026-05-01T08:28:04.58Z</time></trkpt><trkpt lat="45.8210976" lon="11.6216849"><ele>1083.25</ele><time>2026-05-01T08:28:05.582Z</time></trkpt><trkpt lat="45.8211704" lon="11.6215066"><ele>1085.0</ele><time>2026-05-01T08:28:06.584Z</time></trkpt><trkpt lat="45.8212415" lon="11.6213246"><ele>1083.75</ele><time>2026-05-01T08:28:07.581Z</time></trkpt><trkpt lat="45.8212983" lon="11.6211313"><ele>1082.5</ele><time>2026-05-01T08:28:08.582Z</time></trkpt><trkpt lat="45.821317" lon="11.6209251"><ele>1081.25</ele><time>2026-05-01T08:28:09.584Z</time></trkpt><trkpt lat="45.8213222" lon="11.6207139"><ele>1080.0</ele><time>2026-05-01T08:28:10.579Z</time></trkpt><trkpt lat="45.8213209" lon="11.6205082"><ele>1075.0</ele><time>2026-05-01T08:28:11.584Z</time></trkpt><trkpt lat="45.8189543" lon="11.6251284"><ele>1075.0</ele><time>2026-05-01T08:27:41.592Z</time></trkpt><trkpt lat="45.8190238" lon="11.6249432"><ele>1075.0</ele><time>2026-05-01T08:27:42.599Z</time></trkpt><trkpt lat="45.8190893" lon="11.6247552"><ele>1075.0</ele><time>2026-05-01T08:27:43.58Z</time></trkpt><trkpt lat="45.8191548" lon="11.6245686"><ele>1075.0</ele><time>2026-05-01T08:27:44.581Z</time></trkpt><trkpt lat="45.8192172" lon="11.6243908"><ele>1075.5</ele><time>2026-05-01T08:27:45.59Z</time></trkpt><trkpt lat="45.8192818" lon="11.6242144"><ele>1076.0</ele><time>2026-05-01T08:27:46.582Z</time></trkpt><trkpt lat="45.8193508" lon="11.6240454"><ele>1076.5</ele><time>2026-05-01T08:27:47.591Z</time></trkpt><trkpt lat="45.8194255" lon="11.6238823"><ele>1077.0</ele><time>2026-05-01T08:27:48.588Z</time></trkpt><trkpt lat="45.8195039" lon="11.6237224"><ele>1075.75</ele><time>2026-05-01T08:27:49.592Z</time></trkpt><trkpt lat="45.8195836" lon="11.6235644"><ele>1074.5</ele><time>2026-05-01T08:27:50.585Z</time></trkpt><trkpt lat="45.8196633" lon="11.6234076"><ele>1073.25</ele><time>2026-05-01T08:27:51.581Z</time></trkpt><trkpt lat="45.8197408" lon="11.6232506"><ele>1072.0</ele><time>2026-05-01T08:27:52.583Z</time></trkpt><trkpt lat="45.8198203" lon="11.6230958"><ele>1072.0</ele><time>2026-05-01T08:27:53.587Z</time></trkpt><trkpt lat="45.8199082" lon="11.6229529"><ele>1072.0</ele><time>2026-05-01T08:27:54.581Z</time></trkpt><trkpt lat="45.8200102" lon="11.6228282"><ele>1072.0</ele><time>2026-05-01T08:27:55.582Z</time></trkpt><trkpt lat="45.8201235" lon="11.6227218"><ele>1072.0</ele><time>2026-05-01T08:27:56.583Z</time></trkpt><trkpt lat="45.8202412" lon="11.6226254"><ele>1073.5</ele><time>2026-05-01T08:27:57.585Z</time></trkpt><trkpt lat="45.820358" lon="11.6225313"><ele>1075.0</ele><time>2026-05-01T08:27:58.591Z</time></trkpt><trkpt lat="45.8204749" lon="11.6224363"><ele>1076.5</ele><time>2026-05-01T08:27:59.582Z</time></trkpt><trkpt lat="45.8205921" lon="11.6223394"><ele>1078.0</ele><time>2026-05-01T08:28:00.579Z</time></trkpt><trkpt lat="45.8207104" lon="11.6222417"><ele>1078.0</ele><time>2026-05-01T08:28:01.586Z</time></trkpt><trkpt lat="45.8208252" lon="11.6221347"><ele>1078.0</ele><time>2026-05-01T08:28:02.592Z</time></trkpt><trkpt lat="45.8209297" lon="11.6220057"><ele>1078.0</ele><time>2026-05-01T08:28:03.58Z</time></trkpt><trkpt lat="45.82102" lon="11.6218538"><ele>1078.0</ele><time>2026-05-01T08:28:04.58Z</time></trkpt><trkpt lat="45.8210976" lon="11.6216849"><ele>1078.5</ele><time>2026-05-01T08:28:05.582Z</time></trkpt><trkpt lat="45.8211704" lon="11.6215066"><ele>1079.0</ele><time>2026-05-01T08:28:06.584Z</time></trkpt><trkpt lat="45.8212415" lon="11.6213246"><ele>1079.5</ele><time>2026-05-01T08:28:07.581Z</time></trkpt><trkpt lat="45.8212983" lon="11.6211313"><ele>1080.0</ele><time>2026-05-01T08:28:08.582Z</time></trkpt><trkpt lat="45.821317" lon="11.6209251"><ele>1080.0</ele><time>2026-05-01T08:28:09.584Z</time></trkpt><trkpt lat="45.8213222" lon="11.6207139"><ele>1080.0</ele><time>2026-05-01T08:28:10.579Z</time></trkpt><trkpt lat="45.8213209" lon="11.6205082"><ele>1080.0</ele><time>2026-05-01T08:28:11.584Z</time></trkpt><trkpt lat="45.8213232" lon="11.6203224"><ele>1080.0</ele><time>2026-05-01T08:28:12.58Z</time></trkpt><trkpt lat="45.8213274" lon="11.6201474"><ele>1079.2</ele><time>2026-05-01T08:28:13.598Z</time></trkpt><trkpt lat="45.821331" lon="11.6199875"><ele>1078.4</ele><time>2026-05-01T08:28:14.587Z</time></trkpt><trkpt lat="45.8213358" lon="11.6198478"><ele>1077.6</ele><time>2026-05-01T08:28:15.586Z</time></trkpt><trkpt lat="45.8213386" lon="11.619716"><ele>1076.8</ele><time>2026-05-01T08:28:16.585Z</time></trkpt><trkpt lat="45.8213394" lon="11.6195751"><ele>1076.0</ele><time>2026-05-01T08:28:17.581Z</time></trkpt><trkpt lat="45.821338" lon="11.6194399"><ele>1075.1666666666667</ele><time>2026-05-01T08:28:18.586Z</time></trkpt><trkpt lat="45.8213406" lon="11.6193185"><ele>1074.3333333333335</ele><time>2026-05-01T08:28:19.6Z</time></trkpt><trkpt lat="45.8213459" lon="11.6192082"><ele>1073.5</ele><time>2026-05-01T08:28:20.58Z</time></trkpt><trkpt lat="45.8213518" lon="11.6190967"><ele>1072.6666666666667</ele><time>2026-05-01T08:28:21.57Z</time></trkpt><trkpt lat="45.8213631" lon="11.6189847"><ele>1071.8333333333333</ele><time>2026-05-01T08:28:22.58Z</time></trkpt><trkpt lat="45.8213785" lon="11.6188826"><ele>1071.0</ele><time>2026-05-01T08:28:23.592Z</time></trkpt><trkpt lat="45.8213966" lon="11.6187913"><ele>1071.0</ele><time>2026-05-01T08:28:24.584Z</time></trkpt><trkpt lat="45.8214169" lon="11.6187053"><ele>1071.0</ele><time>2026-05-01T08:28:25.578Z</time></trkpt><trkpt lat="45.8214513" lon="11.6185499"><ele>1071.0</ele><time>2026-05-01T08:28:27.583Z</time></trkpt><trkpt lat="45.8214905" lon="11.6184003"><ele>1071.0</ele><time>2026-05-01T08:28:29.582Z</time></trkpt><trkpt lat="45.8215143" lon="11.6183115"><ele>1071.0</ele><time>2026-05-01T08:28:30.58Z</time></trkpt><trkpt lat="45.8215394" lon="11.618209"><ele>1071.0</ele><time>2026-05-01T08:28:31.589Z</time></trkpt><trkpt lat="45.8215654" lon="11.6180961"><ele>1070.3999999999999</ele><time>2026-05-01T08:28:32.572Z</time></trkpt><trkpt lat="45.8215936" lon="11.6179767"><ele>1069.8</ele><time>2026-05-01T08:28:33.569Z</time></trkpt><trkpt lat="45.8216243" lon="11.617848"><ele>1069.1999999999998</ele><time>2026-05-01T08:28:34.577Z</time></trkpt><trkpt lat="45.8216573" lon="11.6177153"><ele>1068.6</ele><time>2026-05-01T08:28:35.571Z</time></trkpt><trkpt lat="45.821691" lon="11.6175777"><ele>1068.0</ele><time>2026-05-01T08:28:36.566Z</time></trkpt><trkpt lat="45.821725" lon="11.6174322"><ele>1067.8</ele><time>2026-05-01T08:28:37.571Z</time></trkpt><trkpt lat="45.8217557" lon="11.6172823"><ele>1067.6</ele><time>2026-05-01T08:28:38.569Z</time></trkpt><trkpt lat="45.8217834" lon="11.6171285"><ele>1067.4</ele><time>2026-05-01T08:28:39.583Z</time></trkpt><trkpt lat="45.8218068" lon="11.6169698"><ele>1067.2</ele><time>2026-05-01T08:28:40.597Z</time></trkpt><trkpt lat="45.8218247" lon="11.6168052"><ele>1067.0</ele><time>2026-05-01T08:28:41.581Z</time></trkpt><trkpt lat="45.8218391" lon="11.616648"><ele>1067.0</ele><time>2026-05-01T08:28:42.59Z</time></trkpt><trkpt lat="45.8218502" lon="11.616523"><ele>1067.0</ele><time>2026-05-01T08:28:43.585Z</time></trkpt><trkpt lat="45.8218607" lon="11.6164081"><ele>1067.0</ele><time>2026-05-01T08:28:44.585Z</time></trkpt><trkpt lat="45.8218691" lon="11.6163019"><ele>1067.0</ele><time>2026-05-01T08:28:45.586Z</time></trkpt><trkpt lat="45.8218757" lon="11.6162044"><ele>1067.0</ele><time>2026-05-01T08:28:46.593Z</time></trkpt><trkpt lat="45.8218804" lon="11.6161077"><ele>1067.0</ele><time>2026-05-01T08:28:47.585Z</time></trkpt><trkpt lat="45.8218865" lon="11.6160042"><ele>1067.0</ele><time>2026-05-01T08:28:48.586Z</time></trkpt><trkpt lat="45.8218921" lon="11.6158972"><ele>1067.0</ele><time>2026-05-01T08:28:49.579Z</time></trkpt><trkpt lat="45.8218978" lon="11.6157878"><ele>1067.0</ele><time>2026-05-01T08:28:50.584Z</time></trkpt><trkpt lat="45.8219035" lon="11.6156703"><ele>1067.0</ele><time>2026-05-01T08:28:51.585Z</time></trkpt><trkpt lat="45.8219109" lon="11.6155416"><ele>1067.0</ele><time>2026-05-01T08:28:52.582Z</time></trkpt><trkpt lat="45.8219161" lon="11.6154034"><ele>1067.0</ele><time>2026-05-01T08:28:53.587Z</time></trkpt><trkpt lat="45.8219198" lon="11.6152596"><ele>1066.6</ele><time>2026-05-01T08:28:54.572Z</time></trkpt><trkpt lat="45.8219224" lon="11.6151116"><ele>1066.2</ele><time>2026-05-01T08:28:55.583Z</time></trkpt><trkpt lat="45.821926" lon="11.6149609"><ele>1065.8</ele><time>2026-05-01T08:28:56.595Z</time></trkpt><trkpt lat="45.821929" lon="11.614822"><ele>1065.4</ele><time>2026-05-01T08:28:57.582Z</time></trkpt><trkpt lat="45.8219317" lon="11.6146949"><ele>1065.0</ele><time>2026-05-01T08:28:58.581Z</time></trkpt><trkpt lat="45.8219345" lon="11.6145818"><ele>1065.0</ele><time>2026-05-01T08:28:59.572Z</time></trkpt><trkpt lat="45.8219367" lon="11.6144881"><ele>1065.0</ele><time>2026-05-01T08:29:00.577Z</time></trkpt><trkpt lat="45.8219497" lon="11.6143709"><ele>1065.0</ele><time>2026-05-01T08:29:02.584Z</time></trkpt><trkpt lat="45.8220274" lon="11.614385"><ele>1065.0</ele><time>2026-05-01T08:29:05.578Z</time></trkpt><trkpt lat="45.8221064" lon="11.6144985"><ele>1065.0</ele><time>2026-05-01T08:29:07.582Z</time></trkpt><trkpt lat="45.8221461" lon="11.6145793"><ele>1065.0</ele><time>2026-05-01T08:29:08.581Z</time></trkpt><trkpt lat="45.822188" lon="11.6146659"><ele>1065.0</ele><time>2026-05-01T08:29:09.583Z</time></trkpt><trkpt lat="45.8222199" lon="11.6147646"><ele>1065.0</ele><time>2026-05-01T08:29:10.587Z</time></trkpt><trkpt lat="45.8222471" lon="11.6148568"><ele>1065.0</ele><time>2026-05-01T08:29:11.581Z</time></trkpt><trkpt lat="45.8222772" lon="11.6149516"><ele>1065.0</ele><time>2026-05-01T08:29:12.586Z</time></trkpt><trkpt lat="45.8223132" lon="11.6150436"><ele>1065.0</ele><time>2026-05-01T08:29:13.574Z</time></trkpt><trkpt lat="45.8223511" lon="11.6151212"><ele>1065.0</ele><time>2026-05-01T08:29:14.591Z</time></trkpt><trkpt lat="45.8223916" lon="11.6151956"><ele>1065.0</ele><time>2026-05-01T08:29:15.571Z</time></trkpt><trkpt lat="45.8224357" lon="11.6152748"><ele>1065.2857142857142</ele><time>2026-05-01T08:29:16.582Z</time></trkpt><trkpt lat="45.8224864" lon="11.61535"><ele>1065.5714285714284</ele><time>2026-05-01T08:29:17.583Z</time></trkpt><trkpt lat="45.8225367" lon="11.6154176"><ele>1065.8571428571427</ele><time>2026-05-01T08:29:18.573Z</time></trkpt><trkpt lat="45.8225889" lon="11.6154867"><ele>1066.142857142857</ele><time>2026-05-01T08:29:19.584Z</time></trkpt><trkpt lat="45.8226437" lon="11.6155544"><ele>1066.4285714285713</ele><time>2026-05-01T08:29:20.58Z</time></trkpt><trkpt lat="45.8226962" lon="11.6156128"><ele>1066.7142857142856</ele><time>2026-05-01T08:29:21.584Z</time></trkpt><trkpt lat="45.8227532" lon="11.6156667"><ele>1067.0</ele><time>2026-05-01T08:29:22.588Z</time></trkpt><trkpt lat="45.8228153" lon="11.6157173"><ele>1068.4285714285713</ele><time>2026-05-01T08:29:23.59Z</time></trkpt><trkpt lat="45.822879" lon="11.6157648"><ele>1069.857142857143</ele><time>2026-05-01T08:29:24.599Z</time></trkpt><trkpt lat="45.8229413" lon="11.6158068"><ele>1071.2857142857142</ele><time>2026-05-01T08:29:25.589Z</time></trkpt><trkpt lat="45.8229996" lon="11.6158487"><ele>1072.7142857142858</ele><time>2026-05-01T08:29:26.588Z</time></trkpt><trkpt lat="45.8230598" lon="11.6158962"><ele>1074.142857142857</ele><time>2026-05-01T08:29:27.572Z</time></trkpt><trkpt lat="45.8231183" lon="11.6159465"><ele>1075.5714285714284</ele><time>2026-05-01T08:29:28.564Z</time></trkpt><trkpt lat="45.8231761" lon="11.6159955"><ele>1077.0</ele><time>2026-05-01T08:29:29.581Z</time></trkpt><trkpt lat="45.8232324" lon="11.6160647"><ele>1077.0</ele><time>2026-05-01T08:29:30.569Z</time></trkpt><trkpt lat="45.8232822" lon="11.6161424"><ele>1077.0</ele><time>2026-05-01T08:29:31.568Z</time></trkpt><trkpt lat="45.823333" lon="11.6162308"><ele>1077.0</ele><time>2026-05-01T08:29:32.599Z</time></trkpt><trkpt lat="45.8233817" lon="11.6163203"><ele>1077.0</ele><time>2026-05-01T08:29:33.585Z</time></trkpt><trkpt lat="45.8234343" lon="11.6164134"><ele>1077.0</ele><time>2026-05-01T08:29:34.597Z</time></trkpt><trkpt lat="45.8234892" lon="11.6165052"><ele>1077.0</ele><time>2026-05-01T08:29:35.586Z</time></trkpt><trkpt lat="45.8235487" lon="11.616597"><ele>1079.0</ele><time>2026-05-01T08:29:36.59Z</time></trkpt><trkpt lat="45.823612" lon="11.616689"><ele>1081.0</ele><time>2026-05-01T08:29:37.571Z</time></trkpt><trkpt lat="45.82368" lon="11.6167749"><ele>1083.0</ele><time>2026-05-01T08:29:38.587Z</time></trkpt><trkpt lat="45.8237549" lon="11.6168543"><ele>1085.0</ele><time>2026-05-01T08:29:39.578Z</time></trkpt><trkpt lat="45.8238291" lon="11.6169388"><ele>1087.0</ele><time>2026-05-01T08:29:40.597Z</time></trkpt><trkpt lat="45.8238964" lon="11.6170346"><ele>1087.0</ele><time>2026-05-01T08:29:41.58Z</time></trkpt><trkpt lat="45.8239507" lon="11.6171416"><ele>1087.0</ele><time>2026-05-01T08:29:42.585Z</time></trkpt><trkpt lat="45.823994" lon="11.617258"><ele>1087.0</ele><time>2026-05-01T08:29:43.586Z</time></trkpt><trkpt lat="45.8240252" lon="11.6173822"><ele>1087.0</ele><time>2026-05-01T08:29:44.594Z</time></trkpt><trkpt lat="45.8240497" lon="11.6175103"><ele>1087.0</ele><time>2026-05-01T08:29:45.589Z</time></trkpt><trkpt lat="45.8240702" lon="11.6176341"><ele>1087.0</ele><time>2026-05-01T08:29:46.582Z</time></trkpt><trkpt lat="45.8240898" lon="11.6177499"><ele>1087.0</ele><time>2026-05-01T08:29:47.584Z</time></trkpt><trkpt lat="45.8241122" lon="11.617858"><ele>1087.0</ele><time>2026-05-01T08:29:48.579Z</time></trkpt><trkpt lat="45.8241424" lon="11.617961"><ele>1087.0</ele><time>2026-05-01T08:29:49.594Z</time></trkpt><trkpt lat="45.8241824" lon="11.6180554"><ele>1087.0</ele><time>2026-05-01T08:29:50.581Z</time></trkpt><trkpt lat="45.8242337" lon="11.6181355"><ele>1087.0</ele><time>2026-05-01T08:29:51.58Z</time></trkpt><trkpt lat="45.8242931" lon="11.618197"><ele>1089.0</ele><time>2026-05-01T08:29:52.582Z</time></trkpt><trkpt lat="45.8243598" lon="11.6182421"><ele>1091.0</ele><time>2026-05-01T08:29:53.585Z</time></trkpt><trkpt lat="45.8244289" lon="11.6182816"><ele>1093.0</ele><time>2026-05-01T08:29:54.579Z</time></trkpt><trkpt lat="45.8244956" lon="11.6183209"><ele>1095.0</ele><time>2026-05-01T08:29:55.584Z</time></trkpt><trkpt lat="45.8245662" lon="11.6183671"><ele>1097.0</ele><time>2026-05-01T08:29:56.585Z</time></trkpt><trkpt lat="45.8246317" lon="11.6184338"><ele>1099.0</ele><time>2026-05-01T08:29:57.59Z</time></trkpt><trkpt lat="45.8246869" lon="11.6185232"><ele>1099.0</ele><time>2026-05-01T08:29:58.587Z</time></trkpt><trkpt lat="45.824733" lon="11.6186089"><ele>1099.0</ele><time>2026-05-01T08:29:59.584Z</time></trkpt><trkpt lat="45.8247786" lon="11.6186813"><ele>1099.0</ele><time>2026-05-01T08:30:00.582Z</time></trkpt><trkpt lat="45.8248279" lon="11.6187407"><ele>1099.0</ele><time>2026-05-01T08:30:01.584Z</time></trkpt><trkpt lat="45.8249255" lon="11.618802"><ele>1099.0</ele><time>2026-05-01T08:30:03.58Z</time></trkpt><trkpt lat="45.825033" lon="11.6188276"><ele>1099.0</ele><time>2026-05-01T08:30:05.58Z</time></trkpt><trkpt lat="45.8251408" lon="11.618855"><ele>1102.6000000000001</ele><time>2026-05-01T08:30:07.578Z</time></trkpt><trkpt lat="45.8252238" lon="11.6189117"><ele>1106.2</ele><time>2026-05-01T08:30:09.578Z</time></trkpt><trkpt lat="45.8252999" lon="11.6189485"><ele>1109.8000000000002</ele><time>2026-05-01T08:30:11.571Z</time></trkpt><trkpt lat="45.82537" lon="11.6189032"><ele>1113.4</ele><time>2026-05-01T08:30:13.576Z</time></trkpt><trkpt lat="45.8254348" lon="11.6188179"><ele>1117.0</ele><time>2026-05-01T08:30:15.593Z</time></trkpt><trkpt lat="45.8254932" lon="11.6186677"><ele>1116.8</ele><time>2026-05-01T08:30:17.578Z</time></trkpt><trkpt lat="45.8255812" lon="11.6185805"><ele>1116.6</ele><time>2026-05-01T08:30:19.582Z</time></trkpt><trkpt lat="45.8256702" lon="11.6185371"><ele>1116.3999999999999</ele><time>2026-05-01T08:30:21.587Z</time></trkpt><trkpt lat="45.8257508" lon="11.6184535"><ele>1116.2</ele><time>2026-05-01T08:30:24.577Z</time></trkpt><trkpt lat="45.8257985" lon="11.6182813"><ele>1116.0</ele><time>2026-05-01T08:30:26.578Z</time></trkpt><trkpt lat="45.8258358" lon="11.6181876"><ele>1116.0</ele><time>2026-05-01T08:30:27.582Z</time></trkpt><trkpt lat="45.8258643" lon="11.6180907"><ele>1116.0</ele><time>2026-05-01T08:30:28.58Z</time></trkpt><trkpt lat="45.8258861" lon="11.6179879"><ele>1116.0</ele><time>2026-05-01T08:30:29.579Z</time></trkpt><trkpt lat="45.8259063" lon="11.6178971"><ele>1116.0</ele><time>2026-05-01T08:30:30.58Z</time></trkpt><trkpt lat="45.8259532" lon="11.6177666"><ele>1116.0</ele><time>2026-05-01T08:30:32.589Z</time></trkpt><trkpt lat="45.8260288" lon="11.6177479"><ele>1116.0</ele><time>2026-05-01T08:30:34.585Z</time></trkpt><trkpt lat="45.8260984" lon="11.6177481"><ele>1120.0</ele><time>2026-05-01T08:30:36.58Z</time></trkpt><trkpt lat="45.8261696" lon="11.6177342"><ele>1124.0</ele><time>2026-05-01T08:30:38.591Z</time></trkpt><trkpt lat="45.8261728" lon="11.6176026"><ele>1128.0</ele><time>2026-05-01T08:30:40.585Z</time></trkpt><trkpt lat="45.826178" lon="11.6174915"><ele>1132.0</ele><time>2026-05-01T08:30:41.584Z</time></trkpt><trkpt lat="45.8261964" lon="11.6173959"><ele>1136.0</ele><time>2026-05-01T08:30:42.591Z</time></trkpt><trkpt lat="45.8262399" lon="11.6172592"><ele>1140.0</ele><time>2026-05-01T08:30:44.577Z</time></trkpt><trkpt lat="45.8263473" lon="11.6171711"><ele>1140.0</ele><time>2026-05-01T08:30:46.573Z</time></trkpt><trkpt lat="45.8264068" lon="11.6171149"><ele>1140.0</ele><time>2026-05-01T08:30:47.58Z</time></trkpt><trkpt lat="45.8264593" lon="11.6170453"><ele>1140.0</ele><time>2026-05-01T08:30:48.584Z</time></trkpt><trkpt lat="45.826501" lon="11.616976"><ele>1140.0</ele><time>2026-05-01T08:30:49.579Z</time></trkpt><trkpt lat="45.8265343" lon="11.6168905"><ele>1140.0</ele><time>2026-05-01T08:30:50.575Z</time></trkpt><trkpt lat="45.8265612" lon="11.616792"><ele>1140.0</ele><time>2026-05-01T08:30:51.581Z</time></trkpt><trkpt lat="45.8265865" lon="11.6166926"><ele>1140.0</ele><time>2026-05-01T08:30:52.58Z</time></trkpt><trkpt lat="45.8266062" lon="11.6166014"><ele>1140.6</ele><time>2026-05-01T08:30:53.579Z</time></trkpt><trkpt lat="45.8266221" lon="11.6164638"><ele>1141.2</ele><time>2026-05-01T08:30:55.586Z</time></trkpt><trkpt lat="45.8265906" lon="11.6163776"><ele>1141.8</ele><time>2026-05-01T08:30:56.578Z</time></trkpt><trkpt lat="45.82654" lon="11.6162082"><ele>1142.4</ele><time>2026-05-01T08:30:58.573Z</time></trkpt><trkpt lat="45.8265384" lon="11.6160352"><ele>1143.0</ele><time>2026-05-01T08:31:00.576Z</time></trkpt><trkpt lat="45.8265721" lon="11.6159209"><ele>1144.0</ele><time>2026-05-01T08:31:01.592Z</time></trkpt><trkpt lat="45.8266336" lon="11.6157963"><ele>1145.0</ele><time>2026-05-01T08:31:02.558Z</time></trkpt><trkpt lat="45.8267017" lon="11.6156837"><ele>1146.0</ele><time>2026-05-01T08:31:03.567Z</time></trkpt><trkpt lat="45.8267716" lon="11.6155883"><ele>1147.0</ele><time>2026-05-01T08:31:04.563Z</time></trkpt><trkpt lat="45.826845" lon="11.6155007"><ele>1148.0</ele><time>2026-05-01T08:31:05.578Z</time></trkpt><trkpt lat="45.8269203" lon="11.6154142"><ele>1151.1666666666667</ele><time>2026-05-01T08:31:06.586Z</time></trkpt><trkpt lat="45.8269975" lon="11.6153372"><ele>1154.3333333333335</ele><time>2026-05-01T08:31:07.577Z</time></trkpt><trkpt lat="45.8270723" lon="11.6152842"><ele>1157.5</ele><time>2026-05-01T08:31:08.588Z</time></trkpt><trkpt lat="45.8271422" lon="11.6152478"><ele>1160.6666666666667</ele><time>2026-05-01T08:31:09.587Z</time></trkpt><trkpt lat="45.8272143" lon="11.6152204"><ele>1163.8333333333333</ele><time>2026-05-01T08:31:10.574Z</time></trkpt><trkpt lat="45.8272902" lon="11.6151946"><ele>1167.0</ele><time>2026-05-01T08:31:11.59Z</time></trkpt><trkpt lat="45.8273708" lon="11.6151658"><ele>1168.3333333333333</ele><time>2026-05-01T08:31:12.583Z</time></trkpt><trkpt lat="45.8274536" lon="11.6151427"><ele>1169.6666666666667</ele><time>2026-05-01T08:31:13.584Z</time></trkpt><trkpt lat="45.8275317" lon="11.6151253"><ele>1171.0</ele><time>2026-05-01T08:31:14.595Z</time></trkpt><trkpt lat="45.8276051" lon="11.6151064"><ele>1172.3333333333335</ele><time>2026-05-01T08:31:15.584Z</time></trkpt><trkpt lat="45.8276711" lon="11.6150933"><ele>1173.6666666666667</ele><time>2026-05-01T08:31:16.579Z</time></trkpt><trkpt lat="45.8277397" lon="11.6150873"><ele>1175.0</ele><time>2026-05-01T08:31:17.578Z</time></trkpt><trkpt lat="45.82784" lon="11.6151355"><ele>1178.4</ele><time>2026-05-01T08:31:19.585Z</time></trkpt><trkpt lat="45.8278919" lon="11.6152984"><ele>1181.8</ele><time>2026-05-01T08:31:21.581Z</time></trkpt><trkpt lat="45.8278903" lon="11.615411"><ele>1185.2</ele><time>2026-05-01T08:31:22.574Z</time></trkpt><trkpt lat="45.8278631" lon="11.6155375"><ele>1188.6</ele><time>2026-05-01T08:31:23.577Z</time></trkpt><trkpt lat="45.8278147" lon="11.6156856"><ele>1192.0</ele><time>2026-05-01T08:31:24.587Z</time></trkpt><trkpt lat="45.8277555" lon="11.615823"><ele>1192.0</ele><time>2026-05-01T08:31:25.578Z</time></trkpt><trkpt lat="45.827726" lon="11.6159215"><ele>1192.0</ele><time>2026-05-01T08:31:26.569Z</time></trkpt><trkpt lat="45.8277007" lon="11.6160132"><ele>1192.0</ele><time>2026-05-01T08:31:27.581Z</time></trkpt><trkpt lat="45.8277195" lon="11.6161131"><ele>1192.0</ele><time>2026-05-01T08:31:29.587Z</time></trkpt><trkpt lat="45.8278006" lon="11.6161018"><ele>1192.0</ele><time>2026-05-01T08:31:32.583Z</time></trkpt><trkpt lat="45.8278764" lon="11.6159739"><ele>1192.0</ele><time>2026-05-01T08:31:34.585Z</time></trkpt><trkpt lat="45.8279287" lon="11.6158957"><ele>1192.0</ele><time>2026-05-01T08:31:35.575Z</time></trkpt><trkpt lat="45.8279845" lon="11.6158262"><ele>1192.0</ele><time>2026-05-01T08:31:36.579Z</time></trkpt><trkpt lat="45.8280443" lon="11.6157603"><ele>1192.0</ele><time>2026-05-01T08:31:37.585Z</time></trkpt><trkpt lat="45.8281148" lon="11.6157005"><ele>1192.0</ele><time>2026-05-01T08:31:38.585Z</time></trkpt><trkpt lat="45.8281752" lon="11.6156487"><ele>1192.0</ele><time>2026-05-01T08:31:39.587Z</time></trkpt><trkpt lat="45.828233" lon="11.6156023"><ele>1192.0</ele><time>2026-05-01T08:31:40.583Z</time></trkpt><trkpt lat="45.828332" lon="11.6155253"><ele>1192.0</ele><time>2026-05-01T08:31:42.596Z</time></trkpt><trkpt lat="45.8283869" lon="11.6153899"><ele>1192.0</ele><time>2026-05-01T08:31:44.578Z</time></trkpt><trkpt lat="45.8284072" lon="11.6152951"><ele>1192.0</ele><time>2026-05-01T08:31:45.581Z</time></trkpt><trkpt lat="45.8284186" lon="11.615185"><ele>1192.0</ele><time>2026-05-01T08:31:46.588Z</time></trkpt><trkpt lat="45.828433" lon="11.6150634"><ele>1192.0</ele><time>2026-05-01T08:31:47.59Z</time></trkpt><trkpt lat="45.8284545" lon="11.6149525"><ele>1192.0</ele><time>2026-05-01T08:31:48.578Z</time></trkpt><trkpt lat="45.8284779" lon="11.6148451"><ele>1194.3333333333333</ele><time>2026-05-01T08:31:49.568Z</time></trkpt><trkpt lat="45.8284971" lon="11.6147366"><ele>1196.6666666666665</ele><time>2026-05-01T08:31:50.581Z</time></trkpt><trkpt lat="45.8285151" lon="11.6146434"><ele>1199.0</ele><time>2026-05-01T08:31:51.583Z</time></trkpt><trkpt lat="45.8285523" lon="11.6144995"><ele>1201.3333333333333</ele><time>2026-05-01T08:31:53.585Z</time></trkpt><trkpt lat="45.8284746" lon="11.6143676"><ele>1203.6666666666667</ele><time>2026-05-01T08:31:55.592Z</time></trkpt><trkpt lat="45.8284064" lon="11.614328"><ele>1206.0</ele><time>2026-05-01T08:31:56.581Z</time></trkpt><trkpt lat="45.8283127" lon="11.6143142"><ele>1206.0</ele><time>2026-05-01T08:31:57.58Z</time></trkpt><trkpt lat="45.8282092" lon="11.6142813"><ele>1206.0</ele><time>2026-05-01T08:31:58.574Z</time></trkpt><trkpt lat="45.8281164" lon="11.6142422"><ele>1206.0</ele><time>2026-05-01T08:31:59.579Z</time></trkpt><trkpt lat="45.8280476" lon="11.6142024"><ele>1206.0</ele><time>2026-05-01T08:32:00.58Z</time></trkpt><trkpt lat="45.8279657" lon="11.6141167"><ele>1206.0</ele><time>2026-05-01T08:32:02.579Z</time></trkpt><trkpt lat="45.8279222" lon="11.6140465"><ele>1206.0</ele><time>2026-05-01T08:32:03.56Z</time></trkpt><trkpt lat="45.8278648" lon="11.6139152"><ele>1206.0</ele><time>2026-05-01T08:32:05.564Z</time></trkpt><trkpt lat="45.8278556" lon="11.6137678"><ele>1206.0</ele><time>2026-05-01T08:32:07.565Z</time></trkpt><trkpt lat="45.8278987" lon="11.6136599"><ele>1206.0</ele><time>2026-05-01T08:32:09.562Z</time></trkpt><trkpt lat="45.8279695" lon="11.6136092"><ele>1206.0</ele><time>2026-05-01T08:32:11.578Z</time></trkpt><trkpt lat="45.8280675" lon="11.6136277"><ele>1206.0</ele><time>2026-05-01T08:32:13.579Z</time></trkpt><trkpt lat="45.8281338" lon="11.6136431"><ele>1206.0</ele><time>2026-05-01T08:32:14.59Z</time></trkpt><trkpt lat="45.8282014" lon="11.6136388"><ele>1207.2</ele><time>2026-05-01T08:32:15.593Z</time></trkpt><trkpt lat="45.8283094" lon="11.6136257"><ele>1208.3999999999999</ele><time>2026-05-01T08:32:17.56Z</time></trkpt><trkpt lat="45.8284268" lon="11.6136014"><ele>1209.6</ele><time>2026-05-01T08:32:19.594Z</time></trkpt><trkpt lat="45.8284925" lon="11.6135976"><ele>1210.8</ele><time>2026-05-01T08:32:20.58Z</time></trkpt><trkpt lat="45.8286129" lon="11.613588"><ele>1212.0</ele><time>2026-05-01T08:32:22.566Z</time></trkpt><trkpt lat="45.8286779" lon="11.6135814"><ele>1214.857142857143</ele><time>2026-05-01T08:32:23.592Z</time></trkpt><trkpt lat="45.8287415" lon="11.6135737"><ele>1217.7142857142858</ele><time>2026-05-01T08:32:24.583Z</time></trkpt><trkpt lat="45.8288142" lon="11.6135671"><ele>1220.5714285714284</ele><time>2026-05-01T08:32:25.576Z</time></trkpt><trkpt lat="45.8288925" lon="11.6135602"><ele>1223.4285714285716</ele><time>2026-05-01T08:32:26.56Z</time></trkpt><trkpt lat="45.8289737" lon="11.6135574"><ele>1226.2857142857142</ele><time>2026-05-01T08:32:27.592Z</time></trkpt><trkpt lat="45.8290423" lon="11.613551"><ele>1229.142857142857</ele><time>2026-05-01T08:32:28.588Z</time></trkpt><trkpt lat="45.8291143" lon="11.6135431"><ele>1232.0</ele><time>2026-05-01T08:32:29.579Z</time></trkpt><trkpt lat="45.829184" lon="11.613534"><ele>1232.0</ele><time>2026-05-01T08:32:30.581Z</time></trkpt><trkpt lat="45.8292539" lon="11.6135169"><ele>1232.0</ele><time>2026-05-01T08:32:31.587Z</time></trkpt><trkpt lat="45.8293283" lon="11.6135012"><ele>1232.0</ele><time>2026-05-01T08:32:32.576Z</time></trkpt><trkpt lat="45.8294005" lon="11.6134847"><ele>1232.0</ele><time>2026-05-01T08:32:33.586Z</time></trkpt><trkpt lat="45.8294695" lon="11.6134738"><ele>1232.0</ele><time>2026-05-01T08:32:34.595Z</time></trkpt><trkpt lat="45.8295942" lon="11.613512"><ele>1232.0</ele><time>2026-05-01T08:32:36.588Z</time></trkpt><trkpt lat="45.8296669" lon="11.6135592"><ele>1234.5</ele><time>2026-05-01T08:32:37.584Z</time></trkpt><trkpt lat="45.8297406" lon="11.6136256"><ele>1237.0</ele><time>2026-05-01T08:32:38.598Z</time></trkpt><trkpt lat="45.8298036" lon="11.613701"><ele>1239.5</ele><time>2026-05-01T08:32:39.595Z</time></trkpt><trkpt lat="45.8298591" lon="11.6137845"><ele>1242.0</ele><time>2026-05-01T08:32:40.587Z</time></trkpt><trkpt lat="45.8299067" lon="11.6138791"><ele>1244.5</ele><time>2026-05-01T08:32:41.581Z</time></trkpt><trkpt lat="45.8299348" lon="11.6139834"><ele>1247.0</ele><time>2026-05-01T08:32:42.587Z</time></trkpt><trkpt lat="45.8299458" lon="11.6140967"><ele>1247.0</ele><time>2026-05-01T08:32:43.589Z</time></trkpt><trkpt lat="45.8299509" lon="11.6142065"><ele>1247.0</ele><time>2026-05-01T08:32:44.585Z</time></trkpt><trkpt lat="45.8299508" lon="11.6143083"><ele>1247.0</ele><time>2026-05-01T08:32:45.587Z</time></trkpt><trkpt lat="45.8299479" lon="11.6144722"><ele>1247.0</ele><time>2026-05-01T08:32:47.588Z</time></trkpt><trkpt lat="45.8299486" lon="11.614571"><ele>1247.0</ele><time>2026-05-01T08:32:49.59Z</time></trkpt><trkpt lat="45.8299464" lon="11.6146666"><ele>1247.0</ele><time>2026-05-01T08:32:55.578Z</time></trkpt><trkpt lat="45.8300081" lon="11.6147905"><ele>1246.2</ele><time>2026-05-01T08:32:58.583Z</time></trkpt><trkpt lat="45.8300634" lon="11.6149126"><ele>1245.4</ele><time>2026-05-01T08:33:00.592Z</time></trkpt><trkpt lat="45.8300404" lon="11.6150468"><ele>1244.6</ele><time>2026-05-01T08:33:03.596Z</time></trkpt><trkpt lat="45.8300456" lon="11.6151575"><ele>1243.8</ele><time>2026-05-01T08:33:05.576Z</time></trkpt><trkpt lat="45.8300716" lon="11.6152409"><ele>1243.0</ele><time>2026-05-01T08:33:06.58Z</time></trkpt><trkpt lat="45.8301404" lon="11.6153923"><ele>1246.1666666666665</ele><time>2026-05-01T08:33:08.584Z</time></trkpt><trkpt lat="45.8301862" lon="11.615478"><ele>1249.3333333333333</ele><time>2026-05-01T08:33:09.582Z</time></trkpt><trkpt lat="45.8302409" lon="11.6155661"><ele>1252.5</ele><time>2026-05-01T08:33:10.583Z</time></trkpt><trkpt lat="45.8303008" lon="11.6156527"><ele>1255.6666666666667</ele><time>2026-05-01T08:33:11.584Z</time></trkpt><trkpt lat="45.8303614" lon="11.615737"><ele>1258.8333333333335</ele><time>2026-05-01T08:33:12.585Z</time></trkpt><trkpt lat="45.8304169" lon="11.6158166"><ele>1262.0</ele><time>2026-05-01T08:33:13.585Z</time></trkpt><trkpt lat="45.8304661" lon="11.6158948"><ele>1262.0</ele><time>2026-05-01T08:33:14.589Z</time></trkpt><trkpt lat="45.83051" lon="11.6159764"><ele>1262.0</ele><time>2026-05-01T08:33:15.583Z</time></trkpt><trkpt lat="45.8305474" lon="11.6160705"><ele>1262.0</ele><time>2026-05-01T08:33:16.586Z</time></trkpt><trkpt lat="45.8305819" lon="11.6161725"><ele>1262.0</ele><time>2026-05-01T08:33:17.58Z</time></trkpt><trkpt lat="45.8306134" lon="11.6162799"><ele>1262.0</ele><time>2026-05-01T08:33:18.584Z</time></trkpt><trkpt lat="45.8306477" lon="11.616385"><ele>1262.0</ele><time>2026-05-01T08:33:19.576Z</time></trkpt><trkpt lat="45.830686" lon="11.6164828"><ele>1261.0</ele><time>2026-05-01T08:33:20.587Z</time></trkpt><trkpt lat="45.8307248" lon="11.6165686"><ele>1260.0</ele><time>2026-05-01T08:33:21.586Z</time></trkpt><trkpt lat="45.8307646" lon="11.6166393"><ele>1259.0</ele><time>2026-05-01T08:33:22.59Z</time></trkpt><trkpt lat="45.8308596" lon="11.6167361"><ele>1258.0</ele><time>2026-05-01T08:33:24.591Z</time></trkpt><trkpt lat="45.8309186" lon="11.6167727"><ele>1257.0</ele><time>2026-05-01T08:33:25.592Z</time></trkpt><trkpt lat="45.8309826" lon="11.6168077"><ele>1256.0</ele><time>2026-05-01T08:33:26.584Z</time></trkpt><trkpt lat="45.831049" lon="11.6168416"><ele>1258.4285714285713</ele><time>2026-05-01T08:33:27.585Z</time></trkpt><trkpt lat="45.8311158" lon="11.6168804"><ele>1260.857142857143</ele><time>2026-05-01T08:33:28.586Z</time></trkpt><trkpt lat="45.8311778" lon="11.6169307"><ele>1263.2857142857142</ele><time>2026-05-01T08:33:29.588Z</time></trkpt><trkpt lat="45.8312369" lon="11.616979"><ele>1265.7142857142858</ele><time>2026-05-01T08:33:30.577Z</time></trkpt><trkpt lat="45.8312883" lon="11.617042"><ele>1268.142857142857</ele><time>2026-05-01T08:33:31.58Z</time></trkpt><trkpt lat="45.8313387" lon="11.6171058"><ele>1270.5714285714284</ele><time>2026-05-01T08:33:32.587Z</time></trkpt><trkpt lat="45.8313757" lon="11.6171877"><ele>1273.0</ele><time>2026-05-01T08:33:33.587Z</time></trkpt><trkpt lat="45.8314032" lon="11.617278"><ele>1273.0</ele><time>2026-05-01T08:33:34.587Z</time></trkpt><trkpt lat="45.8314208" lon="11.617373"><ele>1273.0</ele><time>2026-05-01T08:33:35.586Z</time></trkpt><trkpt lat="45.8314294" lon="11.6174735"><ele>1273.0</ele><time>2026-05-01T08:33:36.589Z</time></trkpt><trkpt lat="45.8314274" lon="11.6175747"><ele>1273.0</ele><time>2026-05-01T08:33:37.605Z</time></trkpt><trkpt lat="45.8314127" lon="11.617667"><ele>1273.0</ele><time>2026-05-01T08:33:38.581Z</time></trkpt><trkpt lat="45.8313855" lon="11.6177537"><ele>1273.0</ele><time>2026-05-01T08:33:39.582Z</time></trkpt><trkpt lat="45.8313442" lon="11.6178378"><ele>1273.0</ele><time>2026-05-01T08:33:40.607Z</time></trkpt><trkpt lat="45.8312947" lon="11.6179329"><ele>1274.0</ele><time>2026-05-01T08:33:41.57Z</time></trkpt><trkpt lat="45.83124" lon="11.618034"><ele>1275.0</ele><time>2026-05-01T08:33:42.584Z</time></trkpt><trkpt lat="45.8311828" lon="11.6181354"><ele>1276.0</ele><time>2026-05-01T08:33:43.581Z</time></trkpt><trkpt lat="45.8311286" lon="11.6182312"><ele>1277.0</ele><time>2026-05-01T08:33:44.582Z</time></trkpt><trkpt lat="45.8310837" lon="11.6183259"><ele>1278.0</ele><time>2026-05-01T08:33:45.59Z</time></trkpt><trkpt lat="45.8310409" lon="11.6184237"><ele>1279.0</ele><time>2026-05-01T08:33:46.577Z</time></trkpt><trkpt lat="45.8310362" lon="11.6185427"><ele>1279.5</ele><time>2026-05-01T08:33:47.583Z</time></trkpt><trkpt lat="45.831047" lon="11.6186647"><ele>1280.0</ele><time>2026-05-01T08:33:48.569Z</time></trkpt><trkpt lat="45.831067" lon="11.6187764"><ele>1280.5</ele><time>2026-05-01T08:33:49.584Z</time></trkpt><trkpt lat="45.8310862" lon="11.6188775"><ele>1281.0</ele><time>2026-05-01T08:33:50.586Z</time></trkpt><trkpt lat="45.8310954" lon="11.6189743"><ele>1281.5</ele><time>2026-05-01T08:33:51.587Z</time></trkpt><trkpt lat="45.8310923" lon="11.6190671"><ele>1282.0</ele><time>2026-05-01T08:33:52.581Z</time></trkpt><trkpt lat="45.8310605" lon="11.6192391"><ele>1282.0</ele><time>2026-05-01T08:33:54.583Z</time></trkpt><trkpt lat="45.8310391" lon="11.6193296"><ele>1282.0</ele><time>2026-05-01T08:33:55.591Z</time></trkpt><trkpt lat="45.8310273" lon="11.619485"><ele>1282.0</ele><time>2026-05-01T08:33:57.595Z</time></trkpt><trkpt lat="45.8310745" lon="11.6196506"><ele>1282.0</ele><time>2026-05-01T08:33:59.587Z</time></trkpt><trkpt lat="45.8311138" lon="11.6197422"><ele>1282.0</ele><time>2026-05-01T08:34:00.58Z</time></trkpt><trkpt lat="45.8311717" lon="11.6198249"><ele>1280.0</ele><time>2026-05-01T08:34:01.591Z</time></trkpt><trkpt lat="45.8312379" lon="11.6199157"><ele>1278.0</ele><time>2026-05-01T08:34:02.586Z</time></trkpt><trkpt lat="45.8313002" lon="11.6200135"><ele>1276.0</ele><time>2026-05-01T08:34:03.581Z</time></trkpt><trkpt lat="45.831354" lon="11.6201277"><ele>1274.0</ele><time>2026-05-01T08:34:04.583Z</time></trkpt><trkpt lat="45.8314127" lon="11.620233"><ele>1272.0</ele><time>2026-05-01T08:34:05.588Z</time></trkpt><trkpt lat="45.8314833" lon="11.6203322"><ele>1271.6</ele><time>2026-05-01T08:34:06.581Z</time></trkpt><trkpt lat="45.8315574" lon="11.6204214"><ele>1271.2</ele><time>2026-05-01T08:34:07.584Z</time></trkpt><trkpt lat="45.8316409" lon="11.6205008"><ele>1270.8</ele><time>2026-05-01T08:34:08.588Z</time></trkpt><trkpt lat="45.8317238" lon="11.6205739"><ele>1270.4</ele><time>2026-05-01T08:34:09.578Z</time></trkpt><trkpt lat="45.8318062" lon="11.6206506"><ele>1270.0</ele><time>2026-05-01T08:34:10.589Z</time></trkpt><trkpt lat="45.8318759" lon="11.6207274"><ele>1270.0</ele><time>2026-05-01T08:34:11.577Z</time></trkpt><trkpt lat="45.831935" lon="11.6208103"><ele>1270.0</ele><time>2026-05-01T08:34:12.581Z</time></trkpt><trkpt lat="45.8319894" lon="11.6209033"><ele>1270.0</ele><time>2026-05-01T08:34:13.592Z</time></trkpt><trkpt lat="45.8320294" lon="11.6209964"><ele>1270.0</ele><time>2026-05-01T08:34:14.571Z</time></trkpt><trkpt lat="45.8320595" lon="11.6210907"><ele>1270.0</ele><time>2026-05-01T08:34:15.589Z</time></trkpt><trkpt lat="45.8320761" lon="11.6211953"><ele>1270.0</ele><time>2026-05-01T08:34:16.596Z</time></trkpt><trkpt lat="45.8320782" lon="11.6212924"><ele>1269.5</ele><time>2026-05-01T08:34:17.582Z</time></trkpt><trkpt lat="45.8320707" lon="11.6213882"><ele>1269.0</ele><time>2026-05-01T08:34:18.585Z</time></trkpt><trkpt lat="45.8320524" lon="11.6214893"><ele>1268.5</ele><time>2026-05-01T08:34:19.582Z</time></trkpt><trkpt lat="45.8320264" lon="11.6215894"><ele>1268.0</ele><time>2026-05-01T08:34:20.581Z</time></trkpt><trkpt lat="45.8319927" lon="11.6216866"><ele>1267.5</ele><time>2026-05-01T08:34:21.585Z</time></trkpt><trkpt lat="45.8319624" lon="11.6217894"><ele>1267.0</ele><time>2026-05-01T08:34:22.567Z</time></trkpt><trkpt lat="45.8319314" lon="11.6218984"><ele>1267.3333333333333</ele><time>2026-05-01T08:34:23.579Z</time></trkpt><trkpt lat="45.8319015" lon="11.6220035"><ele>1267.6666666666665</ele><time>2026-05-01T08:34:24.584Z</time></trkpt><trkpt lat="45.8318726" lon="11.6221325"><ele>1268.0</ele><time>2026-05-01T08:34:25.58Z</time></trkpt><trkpt lat="45.8318453" lon="11.6222528"><ele>1268.3333333333333</ele><time>2026-05-01T08:34:26.584Z</time></trkpt><trkpt lat="45.8318175" lon="11.6223693"><ele>1268.6666666666667</ele><time>2026-05-01T08:34:27.599Z</time></trkpt><trkpt lat="45.8317858" lon="11.6224843"><ele>1269.0</ele><time>2026-05-01T08:34:28.58Z</time></trkpt><trkpt lat="45.8317244" lon="11.6225937"><ele>1268.6000000000001</ele><time>2026-05-01T08:34:29.59Z</time></trkpt><trkpt lat="45.831657" lon="11.6226898"><ele>1268.2</ele><time>2026-05-01T08:34:30.588Z</time></trkpt><trkpt lat="45.8315895" lon="11.6227867"><ele>1267.8000000000002</ele><time>2026-05-01T08:34:31.582Z</time></trkpt><trkpt lat="45.8315178" lon="11.6228723"><ele>1267.4</ele><time>2026-05-01T08:34:32.59Z</time></trkpt><trkpt lat="45.8314433" lon="11.6229504"><ele>1267.0</ele><time>2026-05-01T08:34:33.586Z</time></trkpt><trkpt lat="45.8313683" lon="11.6230267"><ele>1267.0</ele><time>2026-05-01T08:34:34.579Z</time></trkpt><trkpt lat="45.8312905" lon="11.623098"><ele>1267.0</ele><time>2026-05-01T08:34:35.584Z</time></trkpt><trkpt lat="45.8312047" lon="11.6231643"><ele>1267.0</ele><time>2026-05-01T08:34:36.581Z</time></trkpt><trkpt lat="45.8311203" lon="11.6232396"><ele>1267.0</ele><time>2026-05-01T08:34:37.587Z</time></trkpt><trkpt lat="45.8310379" lon="11.6233218"><ele>1267.0</ele><time>2026-05-01T08:34:38.575Z</time></trkpt><trkpt lat="45.8309606" lon="11.6234128"><ele>1265.6</ele><time>2026-05-01T08:34:39.581Z</time></trkpt><trkpt lat="45.8308856" lon="11.6234991"><ele>1264.2</ele><time>2026-05-01T08:34:40.583Z</time></trkpt><trkpt lat="45.830818" lon="11.6236154"><ele>1262.8</ele><time>2026-05-01T08:34:41.582Z</time></trkpt><trkpt lat="45.8307534" lon="11.6237317"><ele>1261.4</ele><time>2026-05-01T08:34:42.59Z</time></trkpt><trkpt lat="45.8306894" lon="11.6238463"><ele>1260.0</ele><time>2026-05-01T08:34:43.577Z</time></trkpt><trkpt lat="45.8306232" lon="11.6239584"><ele>1260.0</ele><time>2026-05-01T08:34:44.583Z</time></trkpt><trkpt lat="45.8305585" lon="11.6240699"><ele>1260.0</ele><time>2026-05-01T08:34:45.592Z</time></trkpt><trkpt lat="45.8304953" lon="11.6241705"><ele>1260.0</ele><time>2026-05-01T08:34:46.582Z</time></trkpt><trkpt lat="45.8304237" lon="11.624265"><ele>1260.0</ele><time>2026-05-01T08:34:47.583Z</time></trkpt><trkpt lat="45.8303414" lon="11.6243467"><ele>1260.0</ele><time>2026-05-01T08:34:48.578Z</time></trkpt><trkpt lat="45.8302571" lon="11.624419"><ele>1258.2</ele><time>2026-05-01T08:34:49.582Z</time></trkpt><trkpt lat="45.8301735" lon="11.6244886"><ele>1256.4</ele><time>2026-05-01T08:34:50.582Z</time></trkpt><trkpt lat="45.8300902" lon="11.6245497"><ele>1254.6</ele><time>2026-05-01T08:34:51.582Z</time></trkpt><trkpt lat="45.829998" lon="11.6246078"><ele>1252.8</ele><time>2026-05-01T08:34:52.585Z</time></trkpt><trkpt lat="45.8298984" lon="11.6246702"><ele>1251.0</ele><time>2026-05-01T08:34:53.581Z</time></trkpt><trkpt lat="45.829806" lon="11.6247356"><ele>1251.0</ele><time>2026-05-01T08:34:54.582Z</time></trkpt><trkpt lat="45.8297178" lon="11.6248026"><ele>1251.0</ele><time>2026-05-01T08:34:55.581Z</time></trkpt><trkpt lat="45.8296426" lon="11.6248813"><ele>1251.0</ele><time>2026-05-01T08:34:56.569Z</time></trkpt><trkpt lat="45.8295801" lon="11.6249693"><ele>1251.0</ele><time>2026-05-01T08:34:57.582Z</time></trkpt><trkpt lat="45.8295365" lon="11.6250706"><ele>1251.0</ele><time>2026-05-01T08:34:58.589Z</time></trkpt><trkpt lat="45.8295027" lon="11.6251868"><ele>1250.3999999999999</ele><time>2026-05-01T08:34:59.589Z</time></trkpt><trkpt lat="45.829481" lon="11.6253146"><ele>1249.8</ele><time>2026-05-01T08:35:00.585Z</time></trkpt><trkpt lat="45.8294761" lon="11.6254538"><ele>1249.1999999999998</ele><time>2026-05-01T08:35:01.591Z</time></trkpt><trkpt lat="45.8294768" lon="11.6255928"><ele>1248.6</ele><time>2026-05-01T08:35:02.582Z</time></trkpt><trkpt lat="45.8294911" lon="11.625723"><ele>1248.0</ele><time>2026-05-01T08:35:03.597Z</time></trkpt><trkpt lat="45.8295204" lon="11.6258477"><ele>1248.0</ele><time>2026-05-01T08:35:04.589Z</time></trkpt><trkpt lat="45.8295618" lon="11.6259619"><ele>1248.0</ele><time>2026-05-01T08:35:05.595Z</time></trkpt><trkpt lat="45.829604" lon="11.6260777"><ele>1248.0</ele><time>2026-05-01T08:35:06.582Z</time></trkpt><trkpt lat="45.8296625" lon="11.6261793"><ele>1248.0</ele><time>2026-05-01T08:35:07.587Z</time></trkpt><trkpt lat="45.8297415" lon="11.6262773"><ele>1248.0</ele><time>2026-05-01T08:35:08.586Z</time></trkpt><trkpt lat="45.8298161" lon="11.626366"><ele>1246.8</ele><time>2026-05-01T08:35:09.588Z</time></trkpt><trkpt lat="45.8298951" lon="11.6264408"><ele>1245.6</ele><time>2026-05-01T08:35:10.592Z</time></trkpt><trkpt lat="45.8299788" lon="11.6265146"><ele>1244.4</ele><time>2026-05-01T08:35:11.59Z</time></trkpt><trkpt lat="45.8300658" lon="11.6265813"><ele>1243.2</ele><time>2026-05-01T08:35:12.592Z</time></trkpt><trkpt lat="45.8301599" lon="11.6266453"><ele>1242.0</ele><time>2026-05-01T08:35:13.585Z</time></trkpt><trkpt lat="45.83026" lon="11.626711"><ele>1242.0</ele><time>2026-05-01T08:35:14.587Z</time></trkpt><trkpt lat="45.8303556" lon="11.6267768"><ele>1242.0</ele><time>2026-05-01T08:35:15.586Z</time></trkpt><trkpt lat="45.8304484" lon="11.6268385"><ele>1242.0</ele><time>2026-05-01T08:35:16.586Z</time></trkpt><trkpt lat="45.8305348" lon="11.6268968"><ele>1242.0</ele><time>2026-05-01T08:35:17.585Z</time></trkpt><trkpt lat="45.8306268" lon="11.6269623"><ele>1242.0</ele><time>2026-05-01T08:35:18.584Z</time></trkpt><trkpt lat="45.8307157" lon="11.6270261"><ele>1240.2857142857142</ele><time>2026-05-01T08:35:19.587Z</time></trkpt><trkpt lat="45.8307952" lon="11.6270931"><ele>1238.5714285714284</ele><time>2026-05-01T08:35:20.586Z</time></trkpt><trkpt lat="45.8308505" lon="11.6271606"><ele>1236.8571428571427</ele><time>2026-05-01T08:35:21.594Z</time></trkpt><trkpt lat="45.8308959" lon="11.6272324"><ele>1235.142857142857</ele><time>2026-05-01T08:35:22.588Z</time></trkpt><trkpt lat="45.8309156" lon="11.6273226"><ele>1233.4285714285716</ele><time>2026-05-01T08:35:23.587Z</time></trkpt><trkpt lat="45.8309357" lon="11.6274126"><ele>1231.7142857142856</ele><time>2026-05-01T08:35:24.581Z</time></trkpt><trkpt lat="45.8309204" lon="11.6275262"><ele>1230.0</ele><time>2026-05-01T08:35:25.581Z</time></trkpt><trkpt lat="45.8308807" lon="11.6276507"><ele>1230.0</ele><time>2026-05-01T08:35:26.594Z</time></trkpt><trkpt lat="45.8308502" lon="11.6277933"><ele>1230.0</ele><time>2026-05-01T08:35:27.584Z</time></trkpt><trkpt lat="45.8308211" lon="11.6279261"><ele>1230.0</ele><time>2026-05-01T08:35:28.579Z</time></trkpt><trkpt lat="45.830807" lon="11.6280672"><ele>1230.0</ele><time>2026-05-01T08:35:29.579Z</time></trkpt><trkpt lat="45.830803" lon="11.628208"><ele>1230.0</ele><time>2026-05-01T08:35:30.557Z</time></trkpt><trkpt lat="45.8308057" lon="11.628351"><ele>1229.1666666666667</ele><time>2026-05-01T08:35:31.579Z</time></trkpt><trkpt lat="45.8308217" lon="11.6284917"><ele>1228.3333333333333</ele><time>2026-05-01T08:35:32.578Z</time></trkpt><trkpt lat="45.830833" lon="11.6286203"><ele>1227.5</ele><time>2026-05-01T08:35:33.588Z</time></trkpt><trkpt lat="45.8308334" lon="11.628733"><ele>1226.6666666666665</ele><time>2026-05-01T08:35:34.587Z</time></trkpt><trkpt lat="45.8308047" lon="11.6288548"><ele>1225.8333333333333</ele><time>2026-05-01T08:35:35.581Z</time></trkpt><trkpt lat="45.8307746" lon="11.6289691"><ele>1225.0</ele><time>2026-05-01T08:35:36.58Z</time></trkpt><trkpt lat="45.8307572" lon="11.6290961"><ele>1224.6</ele><time>2026-05-01T08:35:37.584Z</time></trkpt><trkpt lat="45.8307564" lon="11.6292372"><ele>1224.2</ele><time>2026-05-01T08:35:38.59Z</time></trkpt><trkpt lat="45.8307885" lon="11.6293772"><ele>1223.8</ele><time>2026-05-01T08:35:39.579Z</time></trkpt><trkpt lat="45.8308332" lon="11.6295042"><ele>1223.4</ele><time>2026-05-01T08:35:40.587Z</time></trkpt><trkpt lat="45.8308782" lon="11.62961"><ele>1223.0</ele><time>2026-05-01T08:35:41.596Z</time></trkpt><trkpt lat="45.830915" lon="11.629702"><ele>1222.4</ele><time>2026-05-01T08:35:42.587Z</time></trkpt><trkpt lat="45.8309378" lon="11.6297924"><ele>1221.8</ele><time>2026-05-01T08:35:43.578Z</time></trkpt><trkpt lat="45.8309224" lon="11.6299634"><ele>1221.2</ele><time>2026-05-01T08:35:45.582Z</time></trkpt><trkpt lat="45.8308284" lon="11.6300997"><ele>1220.6</ele><time>2026-05-01T08:35:47.587Z</time></trkpt><trkpt lat="45.8307566" lon="11.6301684"><ele>1220.0</ele><time>2026-05-01T08:35:48.582Z</time></trkpt><trkpt lat="45.8306913" lon="11.6302514"><ele>1219.8</ele><time>2026-05-01T08:35:49.585Z</time></trkpt><trkpt lat="45.830644" lon="11.6303443"><ele>1219.6</ele><time>2026-05-01T08:35:50.589Z</time></trkpt><trkpt lat="45.8306225" lon="11.6304433"><ele>1219.4</ele><time>2026-05-01T08:35:51.588Z</time></trkpt><trkpt lat="45.8306019" lon="11.6306135"><ele>1219.2</ele><time>2026-05-01T08:35:53.579Z</time></trkpt><trkpt lat="45.8306769" lon="11.6307689"><ele>1219.0</ele><time>2026-05-01T08:35:55.58Z</time></trkpt><trkpt lat="45.8307273" lon="11.6308552"><ele>1219.0</ele><time>2026-05-01T08:35:56.584Z</time></trkpt><trkpt lat="45.8307832" lon="11.6309407"><ele>1219.0</ele><time>2026-05-01T08:35:57.584Z</time></trkpt><trkpt lat="45.8308329" lon="11.631035"><ele>1219.0</ele><time>2026-05-01T08:35:58.58Z</time></trkpt><trkpt lat="45.8308682" lon="11.6311296"><ele>1219.0</ele><time>2026-05-01T08:35:59.58Z</time></trkpt><trkpt lat="45.8308861" lon="11.6312502"><ele>1219.0</ele><time>2026-05-01T08:36:00.588Z</time></trkpt><trkpt lat="45.8308937" lon="11.6313841"><ele>1219.0</ele><time>2026-05-01T08:36:01.582Z</time></trkpt><trkpt lat="45.830894" lon="11.6315308"><ele>1217.8333333333333</ele><time>2026-05-01T08:36:02.585Z</time></trkpt><trkpt lat="45.8308946" lon="11.6316768"><ele>1216.6666666666665</ele><time>2026-05-01T08:36:03.587Z</time></trkpt><trkpt lat="45.8308941" lon="11.6318016"><ele>1215.5</ele><time>2026-05-01T08:36:04.574Z</time></trkpt><trkpt lat="45.8308937" lon="11.6319132"><ele>1214.3333333333333</ele><time>2026-05-01T08:36:05.587Z</time></trkpt><trkpt lat="45.8309002" lon="11.6320194"><ele>1213.1666666666667</ele><time>2026-05-01T08:36:06.579Z</time></trkpt><trkpt lat="45.8309076" lon="11.6321224"><ele>1212.0</ele><time>2026-05-01T08:36:07.582Z</time></trkpt><trkpt lat="45.8309119" lon="11.6322141"><ele>1211.5</ele><time>2026-05-01T08:36:08.587Z</time></trkpt><trkpt lat="45.8309215" lon="11.6323639"><ele>1211.0</ele><time>2026-05-01T08:36:10.582Z</time></trkpt><trkpt lat="45.8309049" lon="11.6324645"><ele>1210.5</ele><time>2026-05-01T08:36:11.583Z</time></trkpt><trkpt lat="45.8308932" lon="11.632577"><ele>1210.0</ele><time>2026-05-01T08:36:12.579Z</time></trkpt><trkpt lat="45.830888" lon="11.6326822"><ele>1209.5</ele><time>2026-05-01T08:36:13.582Z</time></trkpt><trkpt lat="45.8308882" lon="11.6327811"><ele>1209.0</ele><time>2026-05-01T08:36:14.586Z</time></trkpt><trkpt lat="45.830894" lon="11.6329476"><ele>1209.6666666666667</ele><time>2026-05-01T08:36:16.582Z</time></trkpt><trkpt lat="45.8309178" lon="11.633118"><ele>1210.3333333333333</ele><time>2026-05-01T08:36:18.583Z</time></trkpt><trkpt lat="45.8309399" lon="11.6332331"><ele>1211.0</ele><time>2026-05-01T08:36:19.591Z</time></trkpt><trkpt lat="45.830972" lon="11.6333559"><ele>1211.6666666666665</ele><time>2026-05-01T08:36:20.586Z</time></trkpt><trkpt lat="45.830989" lon="11.6334662"><ele>1212.3333333333333</ele><time>2026-05-01T08:36:21.581Z</time></trkpt><trkpt lat="45.8310009" lon="11.6335656"><ele>1213.0</ele><time>2026-05-01T08:36:22.579Z</time></trkpt><trkpt lat="45.830992" lon="11.6337248"><ele>1211.4</ele><time>2026-05-01T08:36:24.582Z</time></trkpt><trkpt lat="45.8309619" lon="11.6339172"><ele>1209.8</ele><time>2026-05-01T08:36:26.578Z</time></trkpt><trkpt lat="45.8309615" lon="11.6340348"><ele>1208.2</ele><time>2026-05-01T08:36:27.582Z</time></trkpt><trkpt lat="45.8309778" lon="11.6341577"><ele>1206.6</ele><time>2026-05-01T08:36:28.592Z</time></trkpt><trkpt lat="45.8310098" lon="11.634268"><ele>1205.0</ele><time>2026-05-01T08:36:29.594Z</time></trkpt><trkpt lat="45.831052" lon="11.6343705"><ele>1203.8333333333335</ele><time>2026-05-01T08:36:30.586Z</time></trkpt><trkpt lat="45.831097" lon="11.6344726"><ele>1202.6666666666667</ele><time>2026-05-01T08:36:31.589Z</time></trkpt><trkpt lat="45.8311583" lon="11.6345551"><ele>1201.5</ele><time>2026-05-01T08:36:32.593Z</time></trkpt><trkpt lat="45.8312342" lon="11.6346307"><ele>1200.3333333333333</ele><time>2026-05-01T08:36:33.567Z</time></trkpt><trkpt lat="45.8313178" lon="11.6346883"><ele>1199.1666666666665</ele><time>2026-05-01T08:36:34.585Z</time></trkpt><trkpt lat="45.831401" lon="11.6347323"><ele>1198.0</ele><time>2026-05-01T08:36:35.585Z</time></trkpt><trkpt lat="45.8314732" lon="11.6347695"><ele>1198.0</ele><time>2026-05-01T08:36:36.585Z</time></trkpt><trkpt lat="45.8315461" lon="11.6347926"><ele>1198.0</ele><time>2026-05-01T08:36:37.604Z</time></trkpt><trkpt lat="45.8316591" lon="11.6347996"><ele>1198.0</ele><time>2026-05-01T08:36:39.564Z</time></trkpt><trkpt lat="45.8317462" lon="11.6347777"><ele>1198.0</ele><time>2026-05-01T08:36:41.569Z</time></trkpt><trkpt lat="45.8318145" lon="11.634753"><ele>1198.0</ele><time>2026-05-01T08:38:18.571Z</time></trkpt><trkpt lat="45.8318636" lon="11.6346844"><ele>1198.0</ele><time>2026-05-01T08:38:20.575Z</time></trkpt><trkpt lat="45.8318883" lon="11.6346003"><ele>1195.8</ele><time>2026-05-01T08:38:21.578Z</time></trkpt><trkpt lat="45.8319069" lon="11.6344753"><ele>1193.6</ele><time>2026-05-01T08:38:22.579Z</time></trkpt><trkpt lat="45.8319274" lon="11.6343383"><ele>1191.4</ele><time>2026-05-01T08:38:23.584Z</time></trkpt><trkpt lat="45.8319376" lon="11.6341793"><ele>1189.2</ele><time>2026-05-01T08:38:24.59Z</time></trkpt><trkpt lat="45.8319594" lon="11.6340286"><ele>1187.0</ele><time>2026-05-01T08:38:25.568Z</time></trkpt><trkpt lat="45.8319873" lon="11.6339009"><ele>1186.0</ele><time>2026-05-01T08:38:26.579Z</time></trkpt><trkpt lat="45.8320232" lon="11.633785"><ele>1185.0</ele><time>2026-05-01T08:38:27.587Z</time></trkpt><trkpt lat="45.8320663" lon="11.633675"><ele>1184.0</ele><time>2026-05-01T08:38:28.576Z</time></trkpt><trkpt lat="45.8321314" lon="11.6335698"><ele>1183.0</ele><time>2026-05-01T08:38:29.581Z</time></trkpt><trkpt lat="45.8321958" lon="11.633474"><ele>1182.0</ele><time>2026-05-01T08:38:30.581Z</time></trkpt><trkpt lat="45.8322551" lon="11.6333654"><ele>1184.2</ele><time>2026-05-01T08:38:31.583Z</time></trkpt><trkpt lat="45.8323436" lon="11.6332473"><ele>1186.4</ele><time>2026-05-01T08:38:32.58Z</time></trkpt><trkpt lat="45.8324006" lon="11.6331272"><ele>1188.6</ele><time>2026-05-01T08:38:33.594Z</time></trkpt><trkpt lat="45.8324455" lon="11.6330057"><ele>1190.8</ele><time>2026-05-01T08:38:34.582Z</time></trkpt><trkpt lat="45.8324796" lon="11.632886"><ele>1193.0</ele><time>2026-05-01T08:38:35.589Z</time></trkpt><trkpt lat="45.8325052" lon="11.6327715"><ele>1194.5</ele><time>2026-05-01T08:38:36.587Z</time></trkpt><trkpt lat="45.8325311" lon="11.6326625"><ele>1196.0</ele><time>2026-05-01T08:38:37.583Z</time></trkpt><trkpt lat="45.8325603" lon="11.6325404"><ele>1197.5</ele><time>2026-05-01T08:38:38.576Z</time></trkpt><trkpt lat="45.8325952" lon="11.6324223"><ele>1199.0</ele><time>2026-05-01T08:38:39.581Z</time></trkpt><trkpt lat="45.832631" lon="11.6323038"><ele>1200.5</ele><time>2026-05-01T08:38:40.586Z</time></trkpt><trkpt lat="45.8326825" lon="11.6322019"><ele>1202.0</ele><time>2026-05-01T08:38:41.582Z</time></trkpt><trkpt lat="45.8327639" lon="11.6321327"><ele>1199.2</ele><time>2026-05-01T08:38:42.583Z</time></trkpt><trkpt lat="45.832842" lon="11.6320776"><ele>1196.4</ele><time>2026-05-01T08:38:43.583Z</time></trkpt><trkpt lat="45.8329272" lon="11.6320044"><ele>1193.6</ele><time>2026-05-01T08:38:44.59Z</time></trkpt><trkpt lat="45.8329987" lon="11.6319122"><ele>1190.8</ele><time>2026-05-01T08:38:45.583Z</time></trkpt><trkpt lat="45.8330626" lon="11.6317973"><ele>1188.0</ele><time>2026-05-01T08:38:46.592Z</time></trkpt><trkpt lat="45.8331168" lon="11.6316672"><ele>1188.0</ele><time>2026-05-01T08:38:47.586Z</time></trkpt><trkpt lat="45.833168" lon="11.6315477"><ele>1188.0</ele><time>2026-05-01T08:38:48.587Z</time></trkpt><trkpt lat="45.8332201" lon="11.6314367"><ele>1188.0</ele><time>2026-05-01T08:38:49.595Z</time></trkpt><trkpt lat="45.8332907" lon="11.6313354"><ele>1188.0</ele><time>2026-05-01T08:38:50.584Z</time></trkpt><trkpt lat="45.8333649" lon="11.6312401"><ele>1188.0</ele><time>2026-05-01T08:38:51.582Z</time></trkpt><trkpt lat="45.8334269" lon="11.6311476"><ele>1189.3333333333333</ele><time>2026-05-01T08:38:52.583Z</time></trkpt><trkpt lat="45.8334732" lon="11.6310542"><ele>1190.6666666666667</ele><time>2026-05-01T08:38:53.583Z</time></trkpt><trkpt lat="45.8335252" lon="11.6309662"><ele>1192.0</ele><time>2026-05-01T08:38:54.587Z</time></trkpt><trkpt lat="45.8335516" lon="11.630861"><ele>1193.3333333333335</ele><time>2026-05-01T08:38:55.577Z</time></trkpt><trkpt lat="45.8335379" lon="11.630739"><ele>1194.6666666666667</ele><time>2026-05-01T08:38:56.579Z</time></trkpt><trkpt lat="45.8335204" lon="11.6306062"><ele>1196.0</ele><time>2026-05-01T08:38:57.59Z</time></trkpt><trkpt lat="45.8334676" lon="11.6304591"><ele>1196.0</ele><time>2026-05-01T08:38:58.585Z</time></trkpt><trkpt lat="45.8334234" lon="11.6303107"><ele>1196.0</ele><time>2026-05-01T08:38:59.574Z</time></trkpt><trkpt lat="45.8333913" lon="11.6301592"><ele>1196.0</ele><time>2026-05-01T08:39:00.578Z</time></trkpt><trkpt lat="45.8333696" lon="11.6300093"><ele>1196.0</ele><time>2026-05-01T08:39:01.583Z</time></trkpt><trkpt lat="45.8333486" lon="11.6298529"><ele>1196.0</ele><time>2026-05-01T08:39:02.583Z</time></trkpt><trkpt lat="45.8333377" lon="11.6297207"><ele>1195.857142857143</ele><time>2026-05-01T08:39:03.585Z</time></trkpt><trkpt lat="45.8333317" lon="11.6295939"><ele>1195.7142857142858</ele><time>2026-05-01T08:39:04.588Z</time></trkpt><trkpt lat="45.8333398" lon="11.629489"><ele>1195.5714285714284</ele><time>2026-05-01T08:39:05.577Z</time></trkpt><trkpt lat="45.8333503" lon="11.6293931"><ele>1195.4285714285716</ele><time>2026-05-01T08:39:06.589Z</time></trkpt><trkpt lat="45.8333978" lon="11.6293275"><ele>1195.2857142857144</ele><time>2026-05-01T08:39:07.579Z</time></trkpt><trkpt lat="45.8334565" lon="11.629283"><ele>1195.142857142857</ele><time>2026-05-01T08:39:08.579Z</time></trkpt><trkpt lat="45.8335225" lon="11.6292808"><ele>1195.0</ele><time>2026-05-01T08:39:09.58Z</time></trkpt><trkpt lat="45.8335933" lon="11.6293028"><ele>1195.6</ele><time>2026-05-01T08:39:10.586Z</time></trkpt><trkpt lat="45.8336728" lon="11.6293303"><ele>1196.2</ele><time>2026-05-01T08:39:11.589Z</time></trkpt><trkpt lat="45.833758" lon="11.6293895"><ele>1196.8</ele><time>2026-05-01T08:39:12.584Z</time></trkpt><trkpt lat="45.8338484" lon="11.629444"><ele>1197.4</ele><time>2026-05-01T08:39:13.583Z</time></trkpt><trkpt lat="45.8339449" lon="11.629482"><ele>1198.0</ele><time>2026-05-01T08:39:14.582Z</time></trkpt><trkpt lat="45.8340353" lon="11.6295103"><ele>1194.1666666666665</ele><time>2026-05-01T08:39:15.584Z</time></trkpt><trkpt lat="45.8341229" lon="11.6295379"><ele>1190.3333333333333</ele><time>2026-05-01T08:39:16.583Z</time></trkpt><trkpt lat="45.8342085" lon="11.6295759"><ele>1186.5</ele><time>2026-05-01T08:39:17.588Z</time></trkpt><trkpt lat="45.8342846" lon="11.629608"><ele>1182.6666666666667</ele><time>2026-05-01T08:39:18.583Z</time></trkpt><trkpt lat="45.8343526" lon="11.6296318"><ele>1178.8333333333335</ele><time>2026-05-01T08:39:19.58Z</time></trkpt><trkpt lat="45.8344192" lon="11.6296533"><ele>1175.0</ele><time>2026-05-01T08:39:20.58Z</time></trkpt><trkpt lat="45.8344963" lon="11.629632"><ele>1175.0</ele><time>2026-05-01T08:39:21.58Z</time></trkpt><trkpt lat="45.8345743" lon="11.6296064"><ele>1175.0</ele><time>2026-05-01T08:39:22.583Z</time></trkpt><trkpt lat="45.8346535" lon="11.6295782"><ele>1175.0</ele><time>2026-05-01T08:39:23.588Z</time></trkpt><trkpt lat="45.834736" lon="11.6295502"><ele>1175.0</ele><time>2026-05-01T08:39:24.579Z</time></trkpt><trkpt lat="45.8348374" lon="11.6295419"><ele>1175.0</ele><time>2026-05-01T08:39:25.58Z</time></trkpt><trkpt lat="45.8349347" lon="11.6295359"><ele>1175.0</ele><time>2026-05-01T08:39:26.592Z</time></trkpt><trkpt lat="45.8350306" lon="11.6295522"><ele>1175.0</ele><time>2026-05-01T08:39:27.578Z</time></trkpt><trkpt lat="45.8351254" lon="11.6295894"><ele>1175.0</ele><time>2026-05-01T08:39:28.58Z</time></trkpt><trkpt lat="45.8352213" lon="11.6296529"><ele>1175.0</ele><time>2026-05-01T08:39:29.583Z</time></trkpt><trkpt lat="45.8353073" lon="11.6297445"><ele>1175.0</ele><time>2026-05-01T08:39:30.581Z</time></trkpt><trkpt lat="45.8353874" lon="11.6298423"><ele>1175.0</ele><time>2026-05-01T08:39:31.582Z</time></trkpt><trkpt lat="45.8354671" lon="11.6299391"><ele>1176.4</ele><time>2026-05-01T08:39:32.588Z</time></trkpt><trkpt lat="45.8355486" lon="11.6300377"><ele>1177.8</ele><time>2026-05-01T08:39:33.578Z</time></trkpt><trkpt lat="45.8356306" lon="11.6301373"><ele>1179.2</ele><time>2026-05-01T08:39:34.579Z</time></trkpt><trkpt lat="45.8357126" lon="11.6302348"><ele>1180.6</ele><time>2026-05-01T08:39:35.586Z</time></trkpt><trkpt lat="45.8357963" lon="11.6303217"><ele>1182.0</ele><time>2026-05-01T08:39:36.581Z</time></trkpt><trkpt lat="45.8358828" lon="11.6303899"><ele>1180.2</ele><time>2026-05-01T08:39:37.588Z</time></trkpt><trkpt lat="45.8359663" lon="11.6304434"><ele>1178.4</ele><time>2026-05-01T08:39:38.584Z</time></trkpt><trkpt lat="45.8360522" lon="11.6304851"><ele>1176.6</ele><time>2026-05-01T08:39:39.595Z</time></trkpt><trkpt lat="45.8361365" lon="11.6305241"><ele>1174.8</ele><time>2026-05-01T08:39:40.585Z</time></trkpt><trkpt lat="45.8362192" lon="11.6305572"><ele>1173.0</ele><time>2026-05-01T08:39:41.587Z</time></trkpt><trkpt lat="45.8363096" lon="11.6305902"><ele>1173.0</ele><time>2026-05-01T08:39:42.583Z</time></trkpt><trkpt lat="45.8364012" lon="11.630614"><ele>1173.0</ele><time>2026-05-01T08:39:43.586Z</time></trkpt><trkpt lat="45.8364914" lon="11.6306413"><ele>1173.0</ele><time>2026-05-01T08:39:44.587Z</time></trkpt><trkpt lat="45.8365924" lon="11.6306658"><ele>1173.0</ele><time>2026-05-01T08:39:45.588Z</time></trkpt><trkpt lat="45.8366861" lon="11.6306877"><ele>1173.0</ele><time>2026-05-01T08:39:46.589Z</time></trkpt><trkpt lat="45.8367665" lon="11.6307296"><ele>1172.0</ele><time>2026-05-01T08:39:47.585Z</time></trkpt><trkpt lat="45.8368398" lon="11.630772"><ele>1171.0</ele><time>2026-05-01T08:39:48.578Z</time></trkpt><trkpt lat="45.8369076" lon="11.630832"><ele>1170.0</ele><time>2026-05-01T08:39:49.583Z</time></trkpt><trkpt lat="45.8369748" lon="11.6309169"><ele>1169.0</ele><time>2026-05-01T08:39:50.587Z</time></trkpt><trkpt lat="45.8370342" lon="11.6310073"><ele>1168.0</ele><time>2026-05-01T08:39:51.575Z</time></trkpt><trkpt lat="45.8370919" lon="11.6310995"><ele>1167.0</ele><time>2026-05-01T08:39:52.584Z</time></trkpt><trkpt lat="45.837156" lon="11.6312088"><ele>1167.0</ele><time>2026-05-01T08:39:53.59Z</time></trkpt><trkpt lat="45.8372118" lon="11.631305"><ele>1167.0</ele><time>2026-05-01T08:39:54.583Z</time></trkpt><trkpt lat="45.837268" lon="11.6313948"><ele>1167.0</ele><time>2026-05-01T08:39:55.576Z</time></trkpt><trkpt lat="45.8373439" lon="11.6314589"><ele>1167.0</ele><time>2026-05-01T08:39:56.583Z</time></trkpt><trkpt lat="45.8374278" lon="11.6315112"><ele>1167.0</ele><time>2026-05-01T08:39:57.58Z</time></trkpt><trkpt lat="45.8375162" lon="11.6315497"><ele>1167.0</ele><time>2026-05-01T08:39:58.584Z</time></trkpt><trkpt lat="45.8376112" lon="11.6315732"><ele>1168.6666666666667</ele><time>2026-05-01T08:39:59.585Z</time></trkpt><trkpt lat="45.8377011" lon="11.6315947"><ele>1170.3333333333333</ele><time>2026-05-01T08:40:00.585Z</time></trkpt><trkpt lat="45.8377814" lon="11.6316284"><ele>1172.0</ele><time>2026-05-01T08:40:01.58Z</time></trkpt><trkpt lat="45.8378498" lon="11.6316761"><ele>1173.6666666666665</ele><time>2026-05-01T08:40:02.583Z</time></trkpt><trkpt lat="45.8379053" lon="11.6317457"><ele>1175.3333333333333</ele><time>2026-05-01T08:40:03.59Z</time></trkpt><trkpt lat="45.8379495" lon="11.6318454"><ele>1177.0</ele><time>2026-05-01T08:40:04.585Z</time></trkpt><trkpt lat="45.8379913" lon="11.6319554"><ele>1175.1666666666665</ele><time>2026-05-01T08:40:05.582Z</time></trkpt><trkpt lat="45.8380195" lon="11.6320808"><ele>1173.3333333333333</ele><time>2026-05-01T08:40:06.59Z</time></trkpt><trkpt lat="45.8380577" lon="11.6321901"><ele>1171.5</ele><time>2026-05-01T08:40:07.567Z</time></trkpt><trkpt lat="45.8381118" lon="11.6322704"><ele>1169.6666666666667</ele><time>2026-05-01T08:40:08.583Z</time></trkpt><trkpt lat="45.8381742" lon="11.6323173"><ele>1167.8333333333335</ele><time>2026-05-01T08:40:09.582Z</time></trkpt><trkpt lat="45.8382477" lon="11.6323308"><ele>1166.0</ele><time>2026-05-01T08:40:10.579Z</time></trkpt><trkpt lat="45.8383271" lon="11.6323118"><ele>1166.0</ele><time>2026-05-01T08:40:11.578Z</time></trkpt><trkpt lat="45.8384117" lon="11.6322873"><ele>1166.0</ele><time>2026-05-01T08:40:12.578Z</time></trkpt><trkpt lat="45.8384969" lon="11.6322261"><ele>1166.0</ele><time>2026-05-01T08:40:13.576Z</time></trkpt><trkpt lat="45.8385781" lon="11.632163"><ele>1166.0</ele><time>2026-05-01T08:40:14.58Z</time></trkpt><trkpt lat="45.8386524" lon="11.632118"><ele>1166.0</ele><time>2026-05-01T08:40:15.586Z</time></trkpt><trkpt lat="45.8387268" lon="11.6320968"><ele>1166.0</ele><time>2026-05-01T08:40:16.583Z</time></trkpt><trkpt lat="45.8388054" lon="11.6320995"><ele>1167.0</ele><time>2026-05-01T08:40:17.58Z</time></trkpt><trkpt lat="45.8388821" lon="11.632125"><ele>1168.0</ele><time>2026-05-01T08:40:18.584Z</time></trkpt><trkpt lat="45.8389517" lon="11.6321793"><ele>1169.0</ele><time>2026-05-01T08:40:19.58Z</time></trkpt><trkpt lat="45.8390193" lon="11.6322347"><ele>1170.0</ele><time>2026-05-01T08:40:20.585Z</time></trkpt><trkpt lat="45.8390752" lon="11.6323302"><ele>1171.0</ele><time>2026-05-01T08:40:21.589Z</time></trkpt><trkpt lat="45.8391384" lon="11.6324181"><ele>1172.0</ele><time>2026-05-01T08:40:22.59Z</time></trkpt><trkpt lat="45.839215" lon="11.6324945"><ele>1172.0</ele><time>2026-05-01T08:40:23.586Z</time></trkpt><trkpt lat="45.839294" lon="11.6325576"><ele>1172.0</ele><time>2026-05-01T08:40:24.581Z</time></trkpt><trkpt lat="45.839384" lon="11.6326009"><ele>1172.0</ele><time>2026-05-01T08:40:25.596Z</time></trkpt><trkpt lat="45.8394753" lon="11.6326304"><ele>1172.0</ele><time>2026-05-01T08:40:26.591Z</time></trkpt><trkpt lat="45.8395687" lon="11.6326625"><ele>1172.0</ele><time>2026-05-01T08:40:27.588Z</time></trkpt><trkpt lat="45.8396535" lon="11.6327065"><ele>1173.0</ele><time>2026-05-01T08:40:28.58Z</time></trkpt><trkpt lat="45.8397362" lon="11.6327504"><ele>1174.0</ele><time>2026-05-01T08:40:29.586Z</time></trkpt><trkpt lat="45.8398088" lon="11.6328291"><ele>1175.0</ele><time>2026-05-01T08:40:30.593Z</time></trkpt><trkpt lat="45.8398672" lon="11.6329318"><ele>1176.0</ele><time>2026-05-01T08:40:31.586Z</time></trkpt><trkpt lat="45.839922" lon="11.6330442"><ele>1177.0</ele><time>2026-05-01T08:40:32.588Z</time></trkpt><trkpt lat="45.8399714" lon="11.6331617"><ele>1177.0</ele><time>2026-05-01T08:40:33.588Z</time></trkpt><trkpt lat="45.8400132" lon="11.6332659"><ele>1177.0</ele><time>2026-05-01T08:40:34.588Z</time></trkpt><trkpt lat="45.8400496" lon="11.6333508"><ele>1177.0</ele><time>2026-05-01T08:40:35.586Z</time></trkpt><trkpt lat="45.8401169" lon="11.6334679"><ele>1177.0</ele><time>2026-05-01T08:40:37.597Z</time></trkpt><trkpt lat="45.8401865" lon="11.6335872"><ele>1177.0</ele><time>2026-05-01T08:42:15.582Z</time></trkpt><trkpt lat="45.8402584" lon="11.6336765"><ele>1178.2</ele><time>2026-05-01T08:42:17.578Z</time></trkpt><trkpt lat="45.8403586" lon="11.6337228"><ele>1179.4</ele><time>2026-05-01T08:42:19.579Z</time></trkpt><trkpt lat="45.8404694" lon="11.6337149"><ele>1180.6</ele><time>2026-05-01T08:42:21.558Z</time></trkpt><trkpt lat="45.8405693" lon="11.6336918"><ele>1181.8</ele><time>2026-05-01T08:42:23.568Z</time></trkpt><trkpt lat="45.8406852" lon="11.6336456"><ele>1183.0</ele><time>2026-05-01T08:42:25.567Z</time></trkpt><trkpt lat="45.8407469" lon="11.6336252"><ele>1183.7142857142858</ele><time>2026-05-01T08:42:26.56Z</time></trkpt><trkpt lat="45.8408115" lon="11.6336108"><ele>1184.4285714285716</ele><time>2026-05-01T08:42:27.563Z</time></trkpt><trkpt lat="45.8408762" lon="11.6336021"><ele>1185.142857142857</ele><time>2026-05-01T08:42:28.562Z</time></trkpt><trkpt lat="45.840942" lon="11.6336"><ele>1185.857142857143</ele><time>2026-05-01T08:42:29.559Z</time></trkpt><trkpt lat="45.8410101" lon="11.6336032"><ele>1186.5714285714287</ele><time>2026-05-01T08:42:30.564Z</time></trkpt><trkpt lat="45.841078" lon="11.6336152"><ele>1187.2857142857142</ele><time>2026-05-01T08:42:31.56Z</time></trkpt><trkpt lat="45.8411478" lon="11.6336394"><ele>1188.0</ele><time>2026-05-01T08:42:32.572Z</time></trkpt><trkpt lat="45.8412222" lon="11.6336791"><ele>1188.8</ele><time>2026-05-01T08:42:33.594Z</time></trkpt><trkpt lat="45.841299" lon="11.6337272"><ele>1189.6</ele><time>2026-05-01T08:42:34.588Z</time></trkpt><trkpt lat="45.84138" lon="11.6337783"><ele>1190.4</ele><time>2026-05-01T08:42:35.57Z</time></trkpt><trkpt lat="45.8414654" lon="11.6338334"><ele>1191.2</ele><time>2026-05-01T08:42:36.562Z</time></trkpt><trkpt lat="45.8415477" lon="11.6338871"><ele>1192.0</ele><time>2026-05-01T08:42:37.582Z</time></trkpt><trkpt lat="45.841634" lon="11.6339407"><ele>1192.0</ele><time>2026-05-01T08:42:38.571Z</time></trkpt><trkpt lat="45.8417253" lon="11.6339894"><ele>1192.0</ele><time>2026-05-01T08:42:39.568Z</time></trkpt><trkpt lat="45.8418178" lon="11.6340276"><ele>1192.0</ele><time>2026-05-01T08:42:40.575Z</time></trkpt><trkpt lat="45.8419105" lon="11.634053"><ele>1192.0</ele><time>2026-05-01T08:42:41.582Z</time></trkpt><trkpt lat="45.8420069" lon="11.6340641"><ele>1192.0</ele><time>2026-05-01T08:42:42.578Z</time></trkpt><trkpt lat="45.8421032" lon="11.6340756"><ele>1191.1666666666665</ele><time>2026-05-01T08:42:43.586Z</time></trkpt><trkpt lat="45.8421981" lon="11.6340818"><ele>1190.3333333333333</ele><time>2026-05-01T08:42:44.576Z</time></trkpt><trkpt lat="45.8422886" lon="11.6340926"><ele>1189.5</ele><time>2026-05-01T08:42:45.575Z</time></trkpt><trkpt lat="45.8423733" lon="11.6341034"><ele>1188.6666666666667</ele><time>2026-05-01T08:42:46.58Z</time></trkpt><trkpt lat="45.8424509" lon="11.6341303"><ele>1187.8333333333335</ele><time>2026-05-01T08:42:47.58Z</time></trkpt><trkpt lat="45.8425181" lon="11.6341646"><ele>1187.0</ele><time>2026-05-01T08:42:48.572Z</time></trkpt><trkpt lat="45.8425821" lon="11.6342051"><ele>1186.1666666666667</ele><time>2026-05-01T08:42:49.568Z</time></trkpt><trkpt lat="45.8426478" lon="11.6342579"><ele>1185.3333333333335</ele><time>2026-05-01T08:42:50.582Z</time></trkpt><trkpt lat="45.8427166" lon="11.6343177"><ele>1184.5</ele><time>2026-05-01T08:42:51.574Z</time></trkpt><trkpt lat="45.8427896" lon="11.6343804"><ele>1183.6666666666667</ele><time>2026-05-01T08:42:52.587Z</time></trkpt><trkpt lat="45.8428654" lon="11.6344422"><ele>1182.8333333333333</ele><time>2026-05-01T08:42:53.581Z</time></trkpt><trkpt lat="45.8429461" lon="11.6344869"><ele>1182.0</ele><time>2026-05-01T08:42:54.57Z</time></trkpt><trkpt lat="45.8430299" lon="11.6345073"><ele>1182.0</ele><time>2026-05-01T08:42:55.569Z</time></trkpt><trkpt lat="45.8431166" lon="11.6345036"><ele>1182.0</ele><time>2026-05-01T08:42:56.602Z</time></trkpt><trkpt lat="45.8432122" lon="11.6344791"><ele>1182.0</ele><time>2026-05-01T08:42:57.583Z</time></trkpt><trkpt lat="45.8433087" lon="11.6344357"><ele>1182.0</ele><time>2026-05-01T08:42:58.579Z</time></trkpt><trkpt lat="45.8434081" lon="11.6343744"><ele>1182.0</ele><time>2026-05-01T08:42:59.577Z</time></trkpt><trkpt lat="45.8435046" lon="11.6342977"><ele>1184.0</ele><time>2026-05-01T08:43:00.583Z</time></trkpt><trkpt lat="45.8435889" lon="11.6342067"><ele>1186.0</ele><time>2026-05-01T08:43:01.585Z</time></trkpt><trkpt lat="45.8436649" lon="11.6340983"><ele>1188.0</ele><time>2026-05-01T08:43:02.582Z</time></trkpt><trkpt lat="45.8437347" lon="11.6339772"><ele>1190.0</ele><time>2026-05-01T08:43:03.586Z</time></trkpt><trkpt lat="45.8438012" lon="11.6338598"><ele>1192.0</ele><time>2026-05-01T08:43:04.586Z</time></trkpt><trkpt lat="45.8438665" lon="11.6337467"><ele>1192.0</ele><time>2026-05-01T08:43:05.586Z</time></trkpt><trkpt lat="45.8439295" lon="11.6336589"><ele>1192.0</ele><time>2026-05-01T08:43:06.565Z</time></trkpt><trkpt lat="45.8439946" lon="11.63359"><ele>1192.0</ele><time>2026-05-01T08:43:07.583Z</time></trkpt><trkpt lat="45.8440687" lon="11.6335343"><ele>1192.0</ele><time>2026-05-01T08:43:08.582Z</time></trkpt><trkpt lat="45.8441472" lon="11.6334925"><ele>1192.0</ele><time>2026-05-01T08:43:09.589Z</time></trkpt><trkpt lat="45.8442209" lon="11.6334672"><ele>1192.0</ele><time>2026-05-01T08:43:10.588Z</time></trkpt><trkpt lat="45.8442928" lon="11.6334604"><ele>1190.8333333333333</ele><time>2026-05-01T08:43:11.585Z</time></trkpt><trkpt lat="45.8443697" lon="11.6334718"><ele>1189.6666666666665</ele><time>2026-05-01T08:43:12.585Z</time></trkpt><trkpt lat="45.844453" lon="11.6335016"><ele>1188.5</ele><time>2026-05-01T08:43:13.576Z</time></trkpt><trkpt lat="45.84454" lon="11.6335456"><ele>1187.3333333333333</ele><time>2026-05-01T08:43:14.583Z</time></trkpt><trkpt lat="45.844623" lon="11.6336059"><ele>1186.1666666666667</ele><time>2026-05-01T08:43:15.586Z</time></trkpt><trkpt lat="45.8446947" lon="11.6336671"><ele>1185.0</ele><time>2026-05-01T08:43:16.597Z</time></trkpt><trkpt lat="45.8447682" lon="11.6337252"><ele>1185.0</ele><time>2026-05-01T08:43:17.583Z</time></trkpt><trkpt lat="45.8448419" lon="11.6337829"><ele>1185.0</ele><time>2026-05-01T08:43:18.583Z</time></trkpt><trkpt lat="45.8449359" lon="11.6338023"><ele>1185.0</ele><time>2026-05-01T08:43:19.587Z</time></trkpt><trkpt lat="45.8450231" lon="11.6337909"><ele>1185.0</ele><time>2026-05-01T08:43:20.583Z</time></trkpt><trkpt lat="45.8451094" lon="11.6337533"><ele>1185.0</ele><time>2026-05-01T08:43:21.584Z</time></trkpt><trkpt lat="45.8451978" lon="11.6336898"><ele>1182.0</ele><time>2026-05-01T08:43:22.585Z</time></trkpt><trkpt lat="45.8452834" lon="11.6336174"><ele>1179.0</ele><time>2026-05-01T08:43:23.586Z</time></trkpt><trkpt lat="45.8453621" lon="11.6335516"><ele>1176.0</ele><time>2026-05-01T08:43:24.583Z</time></trkpt><trkpt lat="45.8454443" lon="11.633506"><ele>1173.0</ele><time>2026-05-01T08:43:25.585Z</time></trkpt><trkpt lat="45.8455382" lon="11.6334815"><ele>1170.0</ele><time>2026-05-01T08:43:26.575Z</time></trkpt><trkpt lat="45.8456396" lon="11.6334761"><ele>1170.0</ele><time>2026-05-01T08:43:27.585Z</time></trkpt><trkpt lat="45.8457447" lon="11.6334838"><ele>1170.0</ele><time>2026-05-01T08:43:28.576Z</time></trkpt><trkpt lat="45.8458479" lon="11.633491"><ele>1170.0</ele><time>2026-05-01T08:43:29.587Z</time></trkpt><trkpt lat="45.8459478" lon="11.6334883"><ele>1170.0</ele><time>2026-05-01T08:43:30.58Z</time></trkpt><trkpt lat="45.8460452" lon="11.6334591"><ele>1170.0</ele><time>2026-05-01T08:43:31.577Z</time></trkpt><trkpt lat="45.8461387" lon="11.6334105"><ele>1170.4</ele><time>2026-05-01T08:43:32.583Z</time></trkpt><trkpt lat="45.8462281" lon="11.6333461"><ele>1170.8</ele><time>2026-05-01T08:43:33.583Z</time></trkpt><trkpt lat="45.8463138" lon="11.6332726"><ele>1171.2</ele><time>2026-05-01T08:43:34.578Z</time></trkpt><trkpt lat="45.8463963" lon="11.6331937"><ele>1171.6</ele><time>2026-05-01T08:43:35.572Z</time></trkpt><trkpt lat="45.8464694" lon="11.6331129"><ele>1172.0</ele><time>2026-05-01T08:43:36.577Z</time></trkpt><trkpt lat="45.8465312" lon="11.6330436"><ele>1172.0</ele><time>2026-05-01T08:43:37.582Z</time></trkpt><trkpt lat="45.8465872" lon="11.6329901"><ele>1172.0</ele><time>2026-05-01T08:43:38.587Z</time></trkpt><trkpt lat="45.8466757" lon="11.6329102"><ele>1172.0</ele><time>2026-05-01T08:43:40.585Z</time></trkpt><trkpt lat="45.8467691" lon="11.6328783"><ele>1172.0</ele><time>2026-05-01T08:43:42.594Z</time></trkpt><trkpt lat="45.8468594" lon="11.6329096"><ele>1172.0</ele><time>2026-05-01T08:43:44.589Z</time></trkpt><trkpt lat="45.8469342" lon="11.6330456"><ele>1169.5714285714284</ele><time>2026-05-01T08:43:46.596Z</time></trkpt><trkpt lat="45.8469665" lon="11.6331279"><ele>1167.142857142857</ele><time>2026-05-01T08:43:47.587Z</time></trkpt><trkpt lat="45.8469974" lon="11.6332256"><ele>1164.7142857142858</ele><time>2026-05-01T08:43:48.588Z</time></trkpt><trkpt lat="45.8470256" lon="11.6333249"><ele>1162.2857142857142</ele><time>2026-05-01T08:43:49.589Z</time></trkpt><trkpt lat="45.847058" lon="11.6334235"><ele>1159.857142857143</ele><time>2026-05-01T08:43:50.587Z</time></trkpt><trkpt lat="45.84709" lon="11.6335189"><ele>1157.4285714285713</ele><time>2026-05-01T08:43:51.585Z</time></trkpt><trkpt lat="45.847119" lon="11.6336126"><ele>1155.0</ele><time>2026-05-01T08:43:52.589Z</time></trkpt><trkpt lat="45.8471455" lon="11.6337043"><ele>1155.0</ele><time>2026-05-01T08:43:53.592Z</time></trkpt><trkpt lat="45.8471687" lon="11.6337905"><ele>1155.0</ele><time>2026-05-01T08:43:54.585Z</time></trkpt><trkpt lat="45.8472387" lon="11.6339044"><ele>1155.0</ele><time>2026-05-01T08:43:56.584Z</time></trkpt><trkpt lat="45.8473287" lon="11.633912"><ele>1155.0</ele><time>2026-05-01T08:43:58.594Z</time></trkpt><trkpt lat="45.8473978" lon="11.633834"><ele>1155.0</ele><time>2026-05-01T08:44:00.584Z</time></trkpt><trkpt lat="45.8474314" lon="11.6337175"><ele>1155.0</ele><time>2026-05-01T08:44:02.578Z</time></trkpt><trkpt lat="45.8474496" lon="11.6336234"><ele>1155.0</ele><time>2026-05-01T08:44:03.579Z</time></trkpt><trkpt lat="45.8474685" lon="11.6335212"><ele>1155.0</ele><time>2026-05-01T08:44:04.581Z</time></trkpt><trkpt lat="45.8474886" lon="11.633421"><ele>1155.0</ele><time>2026-05-01T08:44:05.578Z</time></trkpt><trkpt lat="45.8475094" lon="11.6333221"><ele>1155.0</ele><time>2026-05-01T08:44:06.586Z</time></trkpt><trkpt lat="45.8475475" lon="11.6332263"><ele>1155.0</ele><time>2026-05-01T08:44:07.6Z</time></trkpt><trkpt lat="45.8475989" lon="11.6331241"><ele>1155.0</ele><time>2026-05-01T08:44:08.58Z</time></trkpt><trkpt lat="45.8476603" lon="11.6330235"><ele>1151.2</ele><time>2026-05-01T08:44:09.599Z</time></trkpt><trkpt lat="45.8477253" lon="11.6329303"><ele>1147.4</ele><time>2026-05-01T08:44:10.579Z</time></trkpt><trkpt lat="45.8477956" lon="11.6328359"><ele>1143.6</ele><time>2026-05-01T08:44:11.583Z</time></trkpt><trkpt lat="45.847867" lon="11.6327417"><ele>1139.8</ele><time>2026-05-01T08:44:12.584Z</time></trkpt><trkpt lat="45.8479355" lon="11.6326526"><ele>1136.0</ele><time>2026-05-01T08:44:13.583Z</time></trkpt><trkpt lat="45.8480011" lon="11.6325623"><ele>1136.0</ele><time>2026-05-01T08:44:14.585Z</time></trkpt><trkpt lat="45.8480678" lon="11.6324737"><ele>1136.0</ele><time>2026-05-01T08:44:15.583Z</time></trkpt><trkpt lat="45.8481365" lon="11.6323818"><ele>1136.0</ele><time>2026-05-01T08:44:16.578Z</time></trkpt><trkpt lat="45.8482046" lon="11.6322895"><ele>1136.0</ele><time>2026-05-01T08:44:17.583Z</time></trkpt><trkpt lat="45.8482693" lon="11.6322039"><ele>1136.0</ele><time>2026-05-01T08:44:18.586Z</time></trkpt><trkpt lat="45.8483332" lon="11.6321161"><ele>1136.0</ele><time>2026-05-01T08:44:19.584Z</time></trkpt><trkpt lat="45.8483951" lon="11.6320279"><ele>1136.0</ele><time>2026-05-01T08:44:20.585Z</time></trkpt><trkpt lat="45.8484585" lon="11.6319396"><ele>1136.0</ele><time>2026-05-01T08:44:21.588Z</time></trkpt><trkpt lat="45.8485234" lon="11.6318532"><ele>1136.0</ele><time>2026-05-01T08:44:22.583Z</time></trkpt><trkpt lat="45.8485873" lon="11.6317709"><ele>1136.0</ele><time>2026-05-01T08:44:23.584Z</time></trkpt><trkpt lat="45.8486491" lon="11.6316847"><ele>1136.0</ele><time>2026-05-01T08:44:24.588Z</time></trkpt><trkpt lat="45.8487079" lon="11.6315999"><ele>1132.8333333333335</ele><time>2026-05-01T08:44:25.579Z</time></trkpt><trkpt lat="45.8487686" lon="11.6315131"><ele>1129.6666666666667</ele><time>2026-05-01T08:44:26.588Z</time></trkpt><trkpt lat="45.8488294" lon="11.631431"><ele>1126.5</ele><time>2026-05-01T08:44:27.582Z</time></trkpt><trkpt lat="45.8488884" lon="11.6313494"><ele>1123.3333333333333</ele><time>2026-05-01T08:44:28.584Z</time></trkpt><trkpt lat="45.8489512" lon="11.6312629"><ele>1120.1666666666665</ele><time>2026-05-01T08:44:29.582Z</time></trkpt><trkpt lat="45.8490135" lon="11.631175"><ele>1117.0</ele><time>2026-05-01T08:44:30.584Z</time></trkpt><trkpt lat="45.8490796" lon="11.6310847"><ele>1116.8333333333333</ele><time>2026-05-01T08:44:31.585Z</time></trkpt><trkpt lat="45.8491457" lon="11.6309962"><ele>1116.6666666666665</ele><time>2026-05-01T08:44:32.575Z</time></trkpt><trkpt lat="45.8492122" lon="11.6309149"><ele>1116.5</ele><time>2026-05-01T08:44:33.59Z</time></trkpt><trkpt lat="45.8492796" lon="11.6308421"><ele>1116.3333333333333</ele><time>2026-05-01T08:44:34.579Z</time></trkpt><trkpt lat="45.8493479" lon="11.6307798"><ele>1116.1666666666667</ele><time>2026-05-01T08:44:35.589Z</time></trkpt><trkpt lat="45.8494178" lon="11.630731"><ele>1116.0</ele><time>2026-05-01T08:44:36.585Z</time></trkpt><trkpt lat="45.8494861" lon="11.6306841"><ele>1115.0</ele><time>2026-05-01T08:44:37.585Z</time></trkpt><trkpt lat="45.8495614" lon="11.6306623"><ele>1114.0</ele><time>2026-05-01T08:44:38.588Z</time></trkpt><trkpt lat="45.8496418" lon="11.6306517"><ele>1113.0</ele><time>2026-05-01T08:44:39.582Z</time></trkpt><trkpt lat="45.8497215" lon="11.6306485"><ele>1112.0</ele><time>2026-05-01T08:44:40.582Z</time></trkpt><trkpt lat="45.8497967" lon="11.6306514"><ele>1111.0</ele><time>2026-05-01T08:44:41.582Z</time></trkpt><trkpt lat="45.8498629" lon="11.6306528"><ele>1110.0</ele><time>2026-05-01T08:44:42.579Z</time></trkpt><trkpt lat="45.849972" lon="11.63064"><ele>1110.0</ele><time>2026-05-01T08:44:44.581Z</time></trkpt><trkpt lat="45.85002" lon="11.6305627"><ele>1110.0</ele><time>2026-05-01T08:44:46.585Z</time></trkpt><trkpt lat="45.849978" lon="11.630452"><ele>1110.0</ele><time>2026-05-01T08:44:48.578Z</time></trkpt><trkpt lat="45.8498797" lon="11.6303649"><ele>1110.0</ele><time>2026-05-01T08:44:50.599Z</time></trkpt><trkpt lat="45.849807" lon="11.6303274"><ele>1110.0</ele><time>2026-05-01T08:44:51.579Z</time></trkpt><trkpt lat="45.8497321" lon="11.6302876"><ele>1110.0</ele><time>2026-05-01T08:44:52.578Z</time></trkpt><trkpt lat="45.8496592" lon="11.630239"><ele>1109.1666666666667</ele><time>2026-05-01T08:44:53.595Z</time></trkpt><trkpt lat="45.8495849" lon="11.6301897"><ele>1108.3333333333333</ele><time>2026-05-01T08:44:54.579Z</time></trkpt><trkpt lat="45.8494998" lon="11.6301604"><ele>1107.5</ele><time>2026-05-01T08:44:55.59Z</time></trkpt><trkpt lat="45.8494189" lon="11.6301478"><ele>1106.6666666666665</ele><time>2026-05-01T08:44:56.58Z</time></trkpt><trkpt lat="45.849342" lon="11.6301502"><ele>1105.8333333333333</ele><time>2026-05-01T08:44:57.581Z</time></trkpt><trkpt lat="45.849274" lon="11.6301637"><ele>1105.0</ele><time>2026-05-01T08:44:58.586Z</time></trkpt><trkpt lat="45.8492096" lon="11.6301776"><ele>1104.4</ele><time>2026-05-01T08:44:59.582Z</time></trkpt><trkpt lat="45.8490993" lon="11.6302123"><ele>1103.8</ele><time>2026-05-01T08:45:01.567Z</time></trkpt><trkpt lat="45.848996" lon="11.630294"><ele>1103.2</ele><time>2026-05-01T08:45:03.584Z</time></trkpt><trkpt lat="45.8489315" lon="11.6303406"><ele>1102.6</ele><time>2026-05-01T08:45:04.582Z</time></trkpt><trkpt lat="45.8488698" lon="11.6303814"><ele>1102.0</ele><time>2026-05-01T08:45:05.579Z</time></trkpt><trkpt lat="45.8487898" lon="11.6303973"><ele>1102.0</ele><time>2026-05-01T08:45:06.6Z</time></trkpt><trkpt lat="45.8487248" lon="11.630398"><ele>1102.0</ele><time>2026-05-01T08:45:07.586Z</time></trkpt><trkpt lat="45.8486608" lon="11.6303836"><ele>1102.0</ele><time>2026-05-01T08:45:08.583Z</time></trkpt><trkpt lat="45.8485915" lon="11.6303473"><ele>1102.0</ele><time>2026-05-01T08:45:09.582Z</time></trkpt><trkpt lat="45.8485164" lon="11.6302959"><ele>1102.0</ele><time>2026-05-01T08:45:10.584Z</time></trkpt><trkpt lat="45.8484349" lon="11.6302355"><ele>1102.0</ele><time>2026-05-01T08:45:11.587Z</time></trkpt><trkpt lat="45.8483477" lon="11.6301738"><ele>1102.4</ele><time>2026-05-01T08:45:12.582Z</time></trkpt><trkpt lat="45.8482524" lon="11.6301022"><ele>1102.8000000000002</ele><time>2026-05-01T08:45:13.583Z</time></trkpt><trkpt lat="45.8481566" lon="11.6300316"><ele>1103.2</ele><time>2026-05-01T08:45:14.58Z</time></trkpt><trkpt lat="45.8480604" lon="11.6299716"><ele>1103.6000000000001</ele><time>2026-05-01T08:45:15.584Z</time></trkpt><trkpt lat="45.8479625" lon="11.6299081"><ele>1104.0</ele><time>2026-05-01T08:45:16.577Z</time></trkpt><trkpt lat="45.8478669" lon="11.6298466"><ele>1104.0</ele><time>2026-05-01T08:45:17.585Z</time></trkpt><trkpt lat="45.8477687" lon="11.6297853"><ele>1104.0</ele><time>2026-05-01T08:45:18.584Z</time></trkpt><trkpt lat="45.847675" lon="11.6297235"><ele>1104.0</ele><time>2026-05-01T08:45:19.593Z</time></trkpt><trkpt lat="45.847583" lon="11.6296619"><ele>1104.0</ele><time>2026-05-01T08:45:20.584Z</time></trkpt><trkpt lat="45.8474888" lon="11.6296056"><ele>1104.0</ele><time>2026-05-01T08:45:21.583Z</time></trkpt><trkpt lat="45.8473995" lon="11.6295574"><ele>1103.8</ele><time>2026-05-01T08:45:22.579Z</time></trkpt><trkpt lat="45.8473116" lon="11.6295269"><ele>1103.6000000000001</ele><time>2026-05-01T08:45:23.587Z</time></trkpt><trkpt lat="45.8472165" lon="11.6295123"><ele>1103.4</ele><time>2026-05-01T08:45:24.581Z</time></trkpt><trkpt lat="45.847113" lon="11.6295126"><ele>1103.2</ele><time>2026-05-01T08:45:25.585Z</time></trkpt><trkpt lat="45.8470071" lon="11.6295258"><ele>1103.0</ele><time>2026-05-01T08:45:26.59Z</time></trkpt><trkpt lat="45.8469019" lon="11.6295484"><ele>1103.0</ele><time>2026-05-01T08:45:27.584Z</time></trkpt><trkpt lat="45.8468077" lon="11.6295801"><ele>1103.0</ele><time>2026-05-01T08:45:28.596Z</time></trkpt><trkpt lat="45.8467204" lon="11.6296244"><ele>1103.0</ele><time>2026-05-01T08:45:29.575Z</time></trkpt><trkpt lat="45.8466335" lon="11.6296825"><ele>1103.0</ele><time>2026-05-01T08:45:30.587Z</time></trkpt><trkpt lat="45.8465481" lon="11.6297474"><ele>1103.0</ele><time>2026-05-01T08:45:31.588Z</time></trkpt><trkpt lat="45.8464681" lon="11.6298159"><ele>1103.2857142857144</ele><time>2026-05-01T08:45:32.585Z</time></trkpt><trkpt lat="45.8463977" lon="11.6298777"><ele>1103.5714285714287</ele><time>2026-05-01T08:45:33.594Z</time></trkpt><trkpt lat="45.8463315" lon="11.6299183"><ele>1103.857142857143</ele><time>2026-05-01T08:45:34.575Z</time></trkpt><trkpt lat="45.8462685" lon="11.6299553"><ele>1104.1428571428573</ele><time>2026-05-01T08:45:35.578Z</time></trkpt><trkpt lat="45.8461985" lon="11.6299664"><ele>1104.4285714285716</ele><time>2026-05-01T08:45:36.579Z</time></trkpt><trkpt lat="45.8461262" lon="11.6299453"><ele>1104.7142857142858</ele><time>2026-05-01T08:45:37.596Z</time></trkpt><trkpt lat="45.8460571" lon="11.6299071"><ele>1105.0</ele><time>2026-05-01T08:45:38.574Z</time></trkpt><trkpt lat="45.8459962" lon="11.6298582"><ele>1103.5</ele><time>2026-05-01T08:45:39.576Z</time></trkpt><trkpt lat="45.8459377" lon="11.6298119"><ele>1102.0</ele><time>2026-05-01T08:45:40.585Z</time></trkpt><trkpt lat="45.8458484" lon="11.6297159"><ele>1100.5</ele><time>2026-05-01T08:45:42.577Z</time></trkpt><trkpt lat="45.8457834" lon="11.6296567"><ele>1099.0</ele><time>2026-05-01T08:45:44.59Z</time></trkpt><trkpt lat="45.8457216" lon="11.629604"><ele>1097.5</ele><time>2026-05-01T08:45:46.577Z</time></trkpt><trkpt lat="45.8456156" lon="11.6296084"><ele>1096.0</ele><time>2026-05-01T08:45:48.575Z</time></trkpt><trkpt lat="45.8455515" lon="11.6296144"><ele>1096.0</ele><time>2026-05-01T08:45:49.578Z</time></trkpt><trkpt lat="45.8454209" lon="11.629602"><ele>1096.0</ele><time>2026-05-01T08:45:51.584Z</time></trkpt><trkpt lat="45.8453512" lon="11.6295899"><ele>1096.0</ele><time>2026-05-01T08:45:52.579Z</time></trkpt><trkpt lat="45.8452801" lon="11.6295637"><ele>1096.0</ele><time>2026-05-01T08:45:53.583Z</time></trkpt><trkpt lat="45.8452024" lon="11.6295281"><ele>1096.0</ele><time>2026-05-01T08:45:54.599Z</time></trkpt><trkpt lat="45.8451279" lon="11.6294752"><ele>1096.0</ele><time>2026-05-01T08:45:55.587Z</time></trkpt><trkpt lat="45.8450488" lon="11.6294194"><ele>1093.8333333333333</ele><time>2026-05-01T08:45:56.594Z</time></trkpt><trkpt lat="45.8449758" lon="11.6293736"><ele>1091.6666666666665</ele><time>2026-05-01T08:45:57.591Z</time></trkpt><trkpt lat="45.8449066" lon="11.6293495"><ele>1089.5</ele><time>2026-05-01T08:45:58.586Z</time></trkpt><trkpt lat="45.8448284" lon="11.6293536"><ele>1087.3333333333333</ele><time>2026-05-01T08:45:59.581Z</time></trkpt><trkpt lat="45.8447445" lon="11.6293656"><ele>1085.1666666666667</ele><time>2026-05-01T08:46:00.585Z</time></trkpt><trkpt lat="45.8446633" lon="11.6293585"><ele>1083.0</ele><time>2026-05-01T08:46:01.574Z</time></trkpt><trkpt lat="45.8445499" lon="11.6293318"><ele>1083.0</ele><time>2026-05-01T08:46:03.576Z</time></trkpt><trkpt lat="45.8444834" lon="11.629367"><ele>1083.0</ele><time>2026-05-01T08:46:04.594Z</time></trkpt><trkpt lat="45.8444211" lon="11.6294211"><ele>1083.0</ele><time>2026-05-01T08:46:05.574Z</time></trkpt><trkpt lat="45.844366" lon="11.6294749"><ele>1083.0</ele><time>2026-05-01T08:46:06.583Z</time></trkpt><trkpt lat="45.8443017" lon="11.6295898"><ele>1083.0</ele><time>2026-05-01T08:46:08.582Z</time></trkpt><trkpt lat="45.8442392" lon="11.6296319"><ele>1083.0</ele><time>2026-05-01T08:46:10.576Z</time></trkpt><trkpt lat="45.8441821" lon="11.6295361"><ele>1082.5</ele><time>2026-05-01T08:46:12.594Z</time></trkpt><trkpt lat="45.8441774" lon="11.6294347"><ele>1082.0</ele><time>2026-05-01T08:46:13.592Z</time></trkpt><trkpt lat="45.8441654" lon="11.6293191"><ele>1081.5</ele><time>2026-05-01T08:46:14.588Z</time></trkpt><trkpt lat="45.844156" lon="11.6292047"><ele>1081.0</ele><time>2026-05-01T08:46:15.581Z</time></trkpt><trkpt lat="45.8441422" lon="11.6291"><ele>1080.5</ele><time>2026-05-01T08:46:16.587Z</time></trkpt><trkpt lat="45.8441288" lon="11.6290079"><ele>1080.0</ele><time>2026-05-01T08:46:17.587Z</time></trkpt><trkpt lat="45.8440785" lon="11.6288974"><ele>1080.0</ele><time>2026-05-01T08:46:19.578Z</time></trkpt><trkpt lat="45.8440257" lon="11.6288252"><ele>1080.0</ele><time>2026-05-01T08:46:21.578Z</time></trkpt><trkpt lat="45.8439355" lon="11.628884"><ele>1080.0</ele><time>2026-05-01T08:46:23.583Z</time></trkpt><trkpt lat="45.8438923" lon="11.6289502"><ele>1080.0</ele><time>2026-05-01T08:46:24.582Z</time></trkpt><trkpt lat="45.8438489" lon="11.6290272"><ele>1080.0</ele><time>2026-05-01T08:46:25.591Z</time></trkpt><trkpt lat="45.8438064" lon="11.6290946"><ele>1080.0</ele><time>2026-05-01T08:46:26.583Z</time></trkpt><trkpt lat="45.8437103" lon="11.6291547"><ele>1080.0</ele><time>2026-05-01T08:46:28.574Z</time></trkpt><trkpt lat="45.8436387" lon="11.6291634"><ele>1080.0</ele><time>2026-05-01T08:46:29.58Z</time></trkpt><trkpt lat="45.8435737" lon="11.6291798"><ele>1080.0</ele><time>2026-05-01T08:46:30.581Z</time></trkpt><trkpt lat="45.8434908" lon="11.6291709"><ele>1080.0</ele><time>2026-05-01T08:46:32.577Z</time></trkpt><trkpt lat="45.8434334" lon="11.6291176"><ele>1080.0</ele><time>2026-05-01T08:46:34.577Z</time></trkpt><trkpt lat="45.8434068" lon="11.629009"><ele>1080.0</ele><time>2026-05-01T08:46:36.573Z</time></trkpt><trkpt lat="45.8434071" lon="11.6288858"><ele>1080.2</ele><time>2026-05-01T08:46:38.579Z</time></trkpt><trkpt lat="45.8434042" lon="11.6287268"><ele>1080.4</ele><time>2026-05-01T08:46:40.58Z</time></trkpt><trkpt lat="45.8434199" lon="11.6285608"><ele>1080.6</ele><time>2026-05-01T08:46:42.579Z</time></trkpt><trkpt lat="45.8434789" lon="11.6284639"><ele>1080.8</ele><time>2026-05-01T08:46:44.577Z</time></trkpt><trkpt lat="45.8435621" lon="11.628392"><ele>1081.0</ele><time>2026-05-01T08:46:46.593Z</time></trkpt><trkpt lat="45.8436562" lon="11.6283037"><ele>1078.2</ele><time>2026-05-01T08:46:48.581Z</time></trkpt><trkpt lat="45.8437262" lon="11.6282156"><ele>1075.3999999999999</ele><time>2026-05-01T08:46:50.582Z</time></trkpt><trkpt lat="45.843753" lon="11.6280826"><ele>1072.6</ele><time>2026-05-01T08:46:52.579Z</time></trkpt><trkpt lat="45.8437094" lon="11.6279547"><ele>1069.8</ele><time>2026-05-01T08:46:54.578Z</time></trkpt><trkpt lat="45.8436687" lon="11.6278817"><ele>1067.0</ele><time>2026-05-01T08:46:55.579Z</time></trkpt><trkpt lat="45.8436401" lon="11.6277207"><ele>1065.0</ele><time>2026-05-01T08:46:57.583Z</time></trkpt><trkpt lat="45.8436741" lon="11.6275827"><ele>1063.0</ele><time>2026-05-01T08:46:59.583Z</time></trkpt><trkpt lat="45.8437326" lon="11.627536"><ele>1061.0</ele><time>2026-05-01T08:47:00.578Z</time></trkpt><trkpt lat="45.8438011" lon="11.6274966"><ele>1059.0</ele><time>2026-05-01T08:47:01.576Z</time></trkpt><trkpt lat="45.8438717" lon="11.6274545"><ele>1057.0</ele><time>2026-05-01T08:47:02.581Z</time></trkpt><trkpt lat="45.8439352" lon="11.6274022"><ele>1055.0</ele><time>2026-05-01T08:47:03.569Z</time></trkpt><trkpt lat="45.8440018" lon="11.6273629"><ele>1055.0</ele><time>2026-05-01T08:47:04.573Z</time></trkpt><trkpt lat="45.844115" lon="11.6273188"><ele>1055.0</ele><time>2026-05-01T08:47:06.578Z</time></trkpt><trkpt lat="45.8441827" lon="11.6272871"><ele>1055.0</ele><time>2026-05-01T08:47:07.577Z</time></trkpt><trkpt lat="45.8442551" lon="11.6272462"><ele>1055.0</ele><time>2026-05-01T08:47:08.571Z</time></trkpt><trkpt lat="45.8443127" lon="11.6272043"><ele>1055.0</ele><time>2026-05-01T08:47:09.578Z</time></trkpt><trkpt lat="45.8443699" lon="11.6271609"><ele>1055.0</ele><time>2026-05-01T08:47:10.573Z</time></trkpt><trkpt lat="45.844424" lon="11.6271063"><ele>1054.1666666666667</ele><time>2026-05-01T08:47:11.576Z</time></trkpt><trkpt lat="45.8444822" lon="11.6270361"><ele>1053.3333333333335</ele><time>2026-05-01T08:47:12.575Z</time></trkpt><trkpt lat="45.8445146" lon="11.6269483"><ele>1052.5</ele><time>2026-05-01T08:47:13.574Z</time></trkpt><trkpt lat="45.8445482" lon="11.6268643"><ele>1051.6666666666667</ele><time>2026-05-01T08:47:14.577Z</time></trkpt><trkpt lat="45.8446459" lon="11.6267662"><ele>1050.8333333333333</ele><time>2026-05-01T08:47:16.58Z</time></trkpt><trkpt lat="45.8447281" lon="11.6267391"><ele>1050.0</ele><time>2026-05-01T08:47:18.583Z</time></trkpt><trkpt lat="45.8448306" lon="11.6267647"><ele>1049.3333333333333</ele><time>2026-05-01T08:47:20.59Z</time></trkpt><trkpt lat="45.8449195" lon="11.6267864"><ele>1048.6666666666667</ele><time>2026-05-01T08:47:21.586Z</time></trkpt><trkpt lat="45.8450049" lon="11.6267982"><ele>1048.0</ele><time>2026-05-01T08:47:22.586Z</time></trkpt><trkpt lat="45.8450921" lon="11.6267892"><ele>1047.3333333333335</ele><time>2026-05-01T08:47:23.578Z</time></trkpt><trkpt lat="45.8451625" lon="11.6267832"><ele>1046.6666666666667</ele><time>2026-05-01T08:47:24.589Z</time></trkpt><trkpt lat="45.8452362" lon="11.6267781"><ele>1046.0</ele><time>2026-05-01T08:47:25.588Z</time></trkpt><trkpt lat="45.8453119" lon="11.6267674"><ele>1044.6666666666667</ele><time>2026-05-01T08:47:26.578Z</time></trkpt><trkpt lat="45.8453957" lon="11.6267541"><ele>1043.3333333333335</ele><time>2026-05-01T08:47:27.564Z</time></trkpt><trkpt lat="45.8454802" lon="11.6267424"><ele>1042.0</ele><time>2026-05-01T08:47:28.56Z</time></trkpt><trkpt lat="45.8455547" lon="11.6267302"><ele>1040.6666666666667</ele><time>2026-05-01T08:47:29.567Z</time></trkpt><trkpt lat="45.8456267" lon="11.6267205"><ele>1039.3333333333333</ele><time>2026-05-01T08:47:30.563Z</time></trkpt><trkpt lat="45.845753" lon="11.6266863"><ele>1038.0</ele><time>2026-05-01T08:47:32.563Z</time></trkpt><trkpt lat="45.8458297" lon="11.6266659"><ele>1038.0</ele><time>2026-05-01T08:47:33.583Z</time></trkpt><trkpt lat="45.8459004" lon="11.6266726"><ele>1038.0</ele><time>2026-05-01T08:47:34.586Z</time></trkpt><trkpt lat="45.8459644" lon="11.6266941"><ele>1038.0</ele><time>2026-05-01T08:47:35.597Z</time></trkpt><trkpt lat="45.8460373" lon="11.6267425"><ele>1038.0</ele><time>2026-05-01T08:47:36.564Z</time></trkpt><trkpt lat="45.8461095" lon="11.6267999"><ele>1038.0</ele><time>2026-05-01T08:47:37.564Z</time></trkpt><trkpt lat="45.8461883" lon="11.6268369"><ele>1038.0</ele><time>2026-05-01T08:47:38.562Z</time></trkpt><trkpt lat="45.8462732" lon="11.6268531"><ele>1036.2</ele><time>2026-05-01T08:47:39.578Z</time></trkpt><trkpt lat="45.846363" lon="11.6268516"><ele>1034.4</ele><time>2026-05-01T08:47:40.579Z</time></trkpt><trkpt lat="45.8464551" lon="11.6268449"><ele>1032.6000000000001</ele><time>2026-05-01T08:47:41.569Z</time></trkpt><trkpt lat="45.8465508" lon="11.6268568"><ele>1030.8</ele><time>2026-05-01T08:47:42.579Z</time></trkpt><trkpt lat="45.8466433" lon="11.6268675"><ele>1029.0</ele><time>2026-05-01T08:47:43.573Z</time></trkpt><trkpt lat="45.8467282" lon="11.626875"><ele>1028.2</ele><time>2026-05-01T08:47:44.576Z</time></trkpt><trkpt lat="45.8468192" lon="11.6268536"><ele>1027.4</ele><time>2026-05-01T08:47:45.58Z</time></trkpt><trkpt lat="45.8469111" lon="11.626829"><ele>1026.6</ele><time>2026-05-01T08:47:46.58Z</time></trkpt><trkpt lat="45.8470073" lon="11.6267986"><ele>1025.8</ele><time>2026-05-01T08:47:47.572Z</time></trkpt><trkpt lat="45.8470967" lon="11.6267774"><ele>1025.0</ele><time>2026-05-01T08:47:48.571Z</time></trkpt><trkpt lat="45.8471731" lon="11.6267654"><ele>1024.9999999999998</ele><time>2026-05-01T08:47:49.574Z</time></trkpt><trkpt lat="45.8472417" lon="11.6267346"><ele>1025.0</ele><time>2026-05-01T08:47:50.587Z</time></trkpt><trkpt lat="45.8472959" lon="11.6266575"><ele>1025.0</ele><time>2026-05-01T08:47:51.581Z</time></trkpt><trkpt lat="45.847327" lon="11.6265627"><ele>1025.0</ele><time>2026-05-01T08:47:52.578Z</time></trkpt><trkpt lat="45.8473484" lon="11.6264684"><ele>1025.0</ele><time>2026-05-01T08:47:53.576Z</time></trkpt><trkpt lat="45.8473786" lon="11.6263721"><ele>1024.9999999999998</ele><time>2026-05-01T08:47:54.584Z</time></trkpt><trkpt lat="45.8474229" lon="11.626281"><ele>1025.0</ele><time>2026-05-01T08:47:55.579Z</time></trkpt><trkpt lat="45.8474786" lon="11.6262008"><ele>1025.5</ele><time>2026-05-01T08:47:56.579Z</time></trkpt><trkpt lat="45.8475344" lon="11.6261412"><ele>1026.0</ele><time>2026-05-01T08:47:57.577Z</time></trkpt><trkpt lat="45.8475858" lon="11.6260885"><ele>1026.5</ele><time>2026-05-01T08:47:58.581Z</time></trkpt><trkpt lat="45.8476984" lon="11.626012"><ele>1027.0</ele><time>2026-05-01T08:48:00.581Z</time></trkpt><trkpt lat="45.8478039" lon="11.6259826"><ele>1027.5</ele><time>2026-05-01T08:48:02.591Z</time></trkpt><trkpt lat="45.8478679" lon="11.6259711"><ele>1028.0</ele><time>2026-05-01T08:48:03.592Z</time></trkpt><trkpt lat="45.847936" lon="11.6259586"><ele>1026.0</ele><time>2026-05-01T08:48:04.583Z</time></trkpt><trkpt lat="45.8480285" lon="11.6259762"><ele>1024.0</ele><time>2026-05-01T08:48:05.603Z</time></trkpt><trkpt lat="45.8481128" lon="11.6260178"><ele>1022.0</ele><time>2026-05-01T08:48:06.581Z</time></trkpt><trkpt lat="45.8481795" lon="11.6260551"><ele>1020.0</ele><time>2026-05-01T08:48:07.576Z</time></trkpt><trkpt lat="45.8483396" lon="11.6260489"><ele>1018.0</ele><time>2026-05-01T08:48:09.579Z</time></trkpt><trkpt lat="45.8484309" lon="11.6260258"><ele>1015.8</ele><time>2026-05-01T08:48:10.577Z</time></trkpt><trkpt lat="45.8485256" lon="11.6259896"><ele>1013.5999999999999</ele><time>2026-05-01T08:48:11.577Z</time></trkpt><trkpt lat="45.848631" lon="11.6259439"><ele>1011.4000000000001</ele><time>2026-05-01T08:48:12.588Z</time></trkpt><trkpt lat="45.8487371" lon="11.6258969"><ele>1009.2</ele><time>2026-05-01T08:48:13.583Z</time></trkpt><trkpt lat="45.8488387" lon="11.6258464"><ele>1007.0</ele><time>2026-05-01T08:48:14.578Z</time></trkpt><trkpt lat="45.8489044" lon="11.6257994"><ele>1007.0</ele><time>2026-05-01T08:48:15.58Z</time></trkpt><trkpt lat="45.8489739" lon="11.6257679"><ele>1007.0</ele><time>2026-05-01T08:48:16.581Z</time></trkpt><trkpt lat="45.8490887" lon="11.625776"><ele>1007.0</ele><time>2026-05-01T08:48:18.575Z</time></trkpt><trkpt lat="45.8491601" lon="11.6258504"><ele>1007.0</ele><time>2026-05-01T08:48:19.581Z</time></trkpt><trkpt lat="45.8492457" lon="11.6259252"><ele>1007.0</ele><time>2026-05-01T08:48:20.578Z</time></trkpt><trkpt lat="45.8493205" lon="11.625962"><ele>1006.6666666666667</ele><time>2026-05-01T08:48:21.584Z</time></trkpt><trkpt lat="45.8493847" lon="11.6259597"><ele>1006.3333333333334</ele><time>2026-05-01T08:48:22.572Z</time></trkpt><trkpt lat="45.8494497" lon="11.6259514"><ele>1006.0</ele><time>2026-05-01T08:48:23.584Z</time></trkpt><trkpt lat="45.8495094" lon="11.6258985"><ele>1005.6666666666667</ele><time>2026-05-01T08:48:24.585Z</time></trkpt><trkpt lat="45.8495637" lon="11.6258056"><ele>1005.3333333333334</ele><time>2026-05-01T08:48:25.574Z</time></trkpt><trkpt lat="45.8496044" lon="11.6256688"><ele>1005.0</ele><time>2026-05-01T08:48:26.604Z</time></trkpt><trkpt lat="45.8496544" lon="11.6255494"><ele>1005.0</ele><time>2026-05-01T08:48:27.57Z</time></trkpt><trkpt lat="45.8496961" lon="11.6254675"><ele>1005.0</ele><time>2026-05-01T08:48:28.577Z</time></trkpt><trkpt lat="45.8497447" lon="11.6253961"><ele>1005.0</ele><time>2026-05-01T08:48:29.579Z</time></trkpt><trkpt lat="45.8498378" lon="11.6253565"><ele>1005.0</ele><time>2026-05-01T08:48:31.586Z</time></trkpt><trkpt lat="45.8498974" lon="11.6253973"><ele>1005.0</ele><time>2026-05-01T08:48:32.578Z</time></trkpt><trkpt lat="45.8499722" lon="11.6254797"><ele>1005.0</ele><time>2026-05-01T08:48:33.583Z</time></trkpt><trkpt lat="45.8500376" lon="11.6255694"><ele>1005.0</ele><time>2026-05-01T08:48:34.578Z</time></trkpt><trkpt lat="45.8500989" lon="11.6256389"><ele>1005.0</ele><time>2026-05-01T08:48:35.576Z</time></trkpt><trkpt lat="45.8501573" lon="11.6256951"><ele>1005.0</ele><time>2026-05-01T08:48:36.579Z</time></trkpt><trkpt lat="45.8502747" lon="11.6257702"><ele>1005.0</ele><time>2026-05-01T08:48:38.575Z</time></trkpt><trkpt lat="45.850379" lon="11.6257714"><ele>1005.0</ele><time>2026-05-01T08:48:40.584Z</time></trkpt><trkpt lat="45.8504487" lon="11.6257237"><ele>1005.4</ele><time>2026-05-01T08:48:41.591Z</time></trkpt><trkpt lat="45.8504901" lon="11.6256457"><ele>1005.8</ele><time>2026-05-01T08:48:42.579Z</time></trkpt><trkpt lat="45.8505417" lon="11.6255556"><ele>1006.2</ele><time>2026-05-01T08:48:43.577Z</time></trkpt><trkpt lat="45.8506172" lon="11.6254854"><ele>1006.6</ele><time>2026-05-01T08:48:44.582Z</time></trkpt><trkpt lat="45.8507171" lon="11.6254247"><ele>1007.0</ele><time>2026-05-01T08:48:45.57Z</time></trkpt><trkpt lat="45.8508188" lon="11.6253488"><ele>1006.2</ele><time>2026-05-01T08:48:46.574Z</time></trkpt><trkpt lat="45.850924" lon="11.6252779"><ele>1005.4000000000001</ele><time>2026-05-01T08:48:47.574Z</time></trkpt><trkpt lat="45.8510321" lon="11.6252237"><ele>1004.5999999999999</ele><time>2026-05-01T08:48:48.579Z</time></trkpt><trkpt lat="45.8511322" lon="11.6251676"><ele>1003.8</ele><time>2026-05-01T08:48:49.577Z</time></trkpt><trkpt lat="45.8512111" lon="11.6251151"><ele>1003.0</ele><time>2026-05-01T08:48:50.583Z</time></trkpt><trkpt lat="45.8512978" lon="11.6250574"><ele>1001.0</ele><time>2026-05-01T08:48:51.578Z</time></trkpt><trkpt lat="45.8513958" lon="11.6249809"><ele>999.0</ele><time>2026-05-01T08:48:52.57Z</time></trkpt><trkpt lat="45.8514923" lon="11.6248958"><ele>997.0</ele><time>2026-05-01T08:48:53.582Z</time></trkpt><trkpt lat="45.8515954" lon="11.6248166"><ele>995.0</ele><time>2026-05-01T08:48:54.583Z</time></trkpt><trkpt lat="45.851696" lon="11.6247444"><ele>994.2</ele><time>2026-05-01T08:48:55.582Z</time></trkpt><trkpt lat="45.8517912" lon="11.6246838"><ele>993.4</ele><time>2026-05-01T08:48:56.573Z</time></trkpt><trkpt lat="45.8518768" lon="11.6246289"><ele>992.5999999999999</ele><time>2026-05-01T08:48:57.575Z</time></trkpt><trkpt lat="45.8519628" lon="11.6245989"><ele>991.8</ele><time>2026-05-01T08:48:58.578Z</time></trkpt><trkpt lat="45.8520579" lon="11.6245744"><ele>991.0</ele><time>2026-05-01T08:48:59.578Z</time></trkpt><trkpt lat="45.8521479" lon="11.6245502"><ele>991.0</ele><time>2026-05-01T08:49:00.582Z</time></trkpt><trkpt lat="45.8522498" lon="11.6245367"><ele>990.9999999999999</ele><time>2026-05-01T08:49:01.567Z</time></trkpt><trkpt lat="45.8523235" lon="11.6244969"><ele>990.9999999999999</ele><time>2026-05-01T08:49:02.585Z</time></trkpt><trkpt lat="45.8523992" lon="11.6244678"><ele>991.0</ele><time>2026-05-01T08:49:03.576Z</time></trkpt><trkpt lat="45.8524738" lon="11.6244508"><ele>991.0</ele><time>2026-05-01T08:49:04.579Z</time></trkpt><trkpt lat="45.8526108" lon="11.6245036"><ele>991.4</ele><time>2026-05-01T08:49:06.578Z</time></trkpt><trkpt lat="45.8526851" lon="11.6245457"><ele>991.8</ele><time>2026-05-01T08:49:07.577Z</time></trkpt><trkpt lat="45.8527661" lon="11.6245727"><ele>992.1999999999999</ele><time>2026-05-01T08:49:08.58Z</time></trkpt><trkpt lat="45.8528506" lon="11.62453"><ele>992.5999999999999</ele><time>2026-05-01T08:49:09.586Z</time></trkpt><trkpt lat="45.8529371" lon="11.6244674"><ele>993.0</ele><time>2026-05-01T08:49:10.58Z</time></trkpt><trkpt lat="45.8530271" lon="11.6244003"><ele>990.4</ele><time>2026-05-01T08:49:11.583Z</time></trkpt><trkpt lat="45.8531099" lon="11.62434"><ele>987.8</ele><time>2026-05-01T08:49:12.578Z</time></trkpt><trkpt lat="45.8532028" lon="11.6242851"><ele>985.2</ele><time>2026-05-01T08:49:13.582Z</time></trkpt><trkpt lat="45.8533049" lon="11.6242545"><ele>982.6</ele><time>2026-05-01T08:49:14.59Z</time></trkpt><trkpt lat="45.8534016" lon="11.6242275"><ele>980.0</ele><time>2026-05-01T08:49:15.576Z</time></trkpt><trkpt lat="45.8534904" lon="11.624217"><ele>980.0</ele><time>2026-05-01T08:49:16.59Z</time></trkpt><trkpt lat="45.8535747" lon="11.6242158"><ele>980.0</ele><time>2026-05-01T08:49:17.576Z</time></trkpt><trkpt lat="45.8536489" lon="11.6242187"><ele>980.0</ele><time>2026-05-01T08:49:18.582Z</time></trkpt><trkpt lat="45.8537161" lon="11.6242028"><ele>980.0</ele><time>2026-05-01T08:49:19.58Z</time></trkpt><trkpt lat="45.8537798" lon="11.624145"><ele>980.0</ele><time>2026-05-01T08:49:20.579Z</time></trkpt><trkpt lat="45.8538259" lon="11.6240648"><ele>980.0</ele><time>2026-05-01T08:49:21.579Z</time></trkpt><trkpt lat="45.8538705" lon="11.6239941"><ele>980.0</ele><time>2026-05-01T08:49:22.582Z</time></trkpt><trkpt lat="45.8539201" lon="11.6239323"><ele>980.0000000000001</ele><time>2026-05-01T08:49:23.579Z</time></trkpt><trkpt lat="45.853998" lon="11.6239213"><ele>980.0</ele><time>2026-05-01T08:49:24.576Z</time></trkpt><trkpt lat="45.8540738" lon="11.6239102"><ele>980.0</ele><time>2026-05-01T08:49:25.574Z</time></trkpt><trkpt lat="45.8541418" lon="11.6238843"><ele>980.0</ele><time>2026-05-01T08:49:26.574Z</time></trkpt><trkpt lat="45.8542206" lon="11.6238375"><ele>980.0000000000001</ele><time>2026-05-01T08:49:27.58Z</time></trkpt><trkpt lat="45.8542924" lon="11.6237791"><ele>980.0</ele><time>2026-05-01T08:49:28.577Z</time></trkpt><trkpt lat="45.8543693" lon="11.6237254"><ele>979.5000000000001</ele><time>2026-05-01T08:49:29.578Z</time></trkpt><trkpt lat="45.8544454" lon="11.6236824"><ele>979.0</ele><time>2026-05-01T08:49:30.579Z</time></trkpt><trkpt lat="45.8545336" lon="11.6236521"><ele>978.5</ele><time>2026-05-01T08:49:31.58Z</time></trkpt><trkpt lat="45.8546226" lon="11.6236141"><ele>978.0</ele><time>2026-05-01T08:49:32.576Z</time></trkpt><trkpt lat="45.8546991" lon="11.6235603"><ele>977.5000000000001</ele><time>2026-05-01T08:49:33.576Z</time></trkpt><trkpt lat="45.8547746" lon="11.6234755"><ele>977.0</ele><time>2026-05-01T08:49:34.579Z</time></trkpt><trkpt lat="45.8548371" lon="11.62341"><ele>975.5000000000001</ele><time>2026-05-01T08:49:35.578Z</time></trkpt><trkpt lat="45.8548932" lon="11.6233621"><ele>974.0</ele><time>2026-05-01T08:49:36.578Z</time></trkpt><trkpt lat="45.8549668" lon="11.6233106"><ele>972.5</ele><time>2026-05-01T08:49:37.58Z</time></trkpt><trkpt lat="45.8550412" lon="11.6232698"><ele>971.0</ele><time>2026-05-01T08:49:38.567Z</time></trkpt><trkpt lat="45.8551262" lon="11.6232242"><ele>969.5000000000001</ele><time>2026-05-01T08:49:39.58Z</time></trkpt><trkpt lat="45.8552309" lon="11.6231449"><ele>968.0</ele><time>2026-05-01T08:49:40.578Z</time></trkpt><trkpt lat="45.855318" lon="11.6230353"><ele>967.0000000000001</ele><time>2026-05-01T08:49:41.573Z</time></trkpt><trkpt lat="45.8553966" lon="11.6229188"><ele>966.0</ele><time>2026-05-01T08:49:42.575Z</time></trkpt><trkpt lat="45.8554712" lon="11.6228224"><ele>965.0</ele><time>2026-05-01T08:49:43.581Z</time></trkpt><trkpt lat="45.8555436" lon="11.6227566"><ele>964.0</ele><time>2026-05-01T08:49:44.575Z</time></trkpt><trkpt lat="45.8556138" lon="11.6227222"><ele>963.0000000000001</ele><time>2026-05-01T08:49:45.582Z</time></trkpt><trkpt lat="45.8556828" lon="11.6226901"><ele>962.0</ele><time>2026-05-01T08:49:46.576Z</time></trkpt><trkpt lat="45.8557581" lon="11.6226929"><ele>962.0000000000001</ele><time>2026-05-01T08:49:47.584Z</time></trkpt><trkpt lat="45.8558237" lon="11.6226794"><ele>962.0</ele><time>2026-05-01T08:49:48.586Z</time></trkpt><trkpt lat="45.855898" lon="11.622659"><ele>962.0</ele><time>2026-05-01T08:49:49.587Z</time></trkpt><trkpt lat="45.8559613" lon="11.622584"><ele>962.0</ele><time>2026-05-01T08:49:50.573Z</time></trkpt><trkpt lat="45.8560315" lon="11.6224805"><ele>962.0000000000001</ele><time>2026-05-01T08:49:51.579Z</time></trkpt><trkpt lat="45.8561087" lon="11.6223837"><ele>962.0</ele><time>2026-05-01T08:49:52.574Z</time></trkpt><trkpt lat="45.8561909" lon="11.6222985"><ele>961.6</ele><time>2026-05-01T08:49:53.578Z</time></trkpt><trkpt lat="45.8562661" lon="11.6222188"><ele>961.2</ele><time>2026-05-01T08:49:54.577Z</time></trkpt><trkpt lat="45.8563348" lon="11.6221507"><ele>960.8</ele><time>2026-05-01T08:49:55.574Z</time></trkpt><trkpt lat="45.8564241" lon="11.6220824"><ele>960.4</ele><time>2026-05-01T08:49:56.579Z</time></trkpt><trkpt lat="45.8565044" lon="11.6220419"><ele>960.0</ele><time>2026-05-01T08:49:57.585Z</time></trkpt><trkpt lat="45.8566072" lon="11.6220042"><ele>960.0</ele><time>2026-05-01T08:49:58.58Z</time></trkpt><trkpt lat="45.8567672" lon="11.6219442"><ele>960.0</ele><time>2026-05-01T08:49:59.58Z</time></trkpt><trkpt lat="45.8568784" lon="11.6218824"><ele>960.0</ele><time>2026-05-01T08:50:00.576Z</time></trkpt><trkpt lat="45.8569696" lon="11.6217867"><ele>960.0</ele><time>2026-05-01T08:50:01.579Z</time></trkpt><trkpt lat="45.857051" lon="11.6216611"><ele>959.4</ele><time>2026-05-01T08:50:02.576Z</time></trkpt><trkpt lat="45.8571327" lon="11.6215369"><ele>958.8</ele><time>2026-05-01T08:50:03.573Z</time></trkpt><trkpt lat="45.8572096" lon="11.621412"><ele>958.2</ele><time>2026-05-01T08:50:04.576Z</time></trkpt><trkpt lat="45.8572793" lon="11.6212969"><ele>957.6</ele><time>2026-05-01T08:50:05.591Z</time></trkpt><trkpt lat="45.8573509" lon="11.6211979"><ele>957.0</ele><time>2026-05-01T08:50:06.578Z</time></trkpt><trkpt lat="45.8574209" lon="11.6211268"><ele>957.0</ele><time>2026-05-01T08:50:07.575Z</time></trkpt><trkpt lat="45.8575003" lon="11.6210693"><ele>957.0</ele><time>2026-05-01T08:50:08.575Z</time></trkpt><trkpt lat="45.8575923" lon="11.6210305"><ele>957.0</ele><time>2026-05-01T08:50:09.556Z</time></trkpt><trkpt lat="45.8576903" lon="11.6210079"><ele>957.0</ele><time>2026-05-01T08:50:10.568Z</time></trkpt><trkpt lat="45.8577895" lon="11.6209509"><ele>957.0</ele><time>2026-05-01T08:50:11.582Z</time></trkpt><trkpt lat="45.8578872" lon="11.6209061"><ele>956.0</ele><time>2026-05-01T08:50:12.579Z</time></trkpt><trkpt lat="45.8579805" lon="11.6208833"><ele>955.0</ele><time>2026-05-01T08:50:13.57Z</time></trkpt><trkpt lat="45.8580778" lon="11.6208945"><ele>954.0</ele><time>2026-05-01T08:50:14.584Z</time></trkpt><trkpt lat="45.8581731" lon="11.620921"><ele>953.0</ele><time>2026-05-01T08:50:15.555Z</time></trkpt><trkpt lat="45.8582712" lon="11.6209767"><ele>952.0</ele><time>2026-05-01T08:50:16.586Z</time></trkpt><trkpt lat="45.858394" lon="11.6210442"><ele>951.5</ele><time>2026-05-01T08:50:17.573Z</time></trkpt><trkpt lat="45.8585133" lon="11.6211078"><ele>951.0</ele><time>2026-05-01T08:50:18.587Z</time></trkpt><trkpt lat="45.8586167" lon="11.6211567"><ele>950.5</ele><time>2026-05-01T08:50:19.588Z</time></trkpt><trkpt lat="45.8587274" lon="11.6212067"><ele>950.0</ele><time>2026-05-01T08:50:20.597Z</time></trkpt><trkpt lat="45.8588347" lon="11.6212409"><ele>949.6</ele><time>2026-05-01T08:50:21.583Z</time></trkpt><trkpt lat="45.8589281" lon="11.6212668"><ele>949.2</ele><time>2026-05-01T08:50:22.574Z</time></trkpt><trkpt lat="45.859012" lon="11.6212902"><ele>948.8</ele><time>2026-05-01T08:50:23.583Z</time></trkpt><trkpt lat="45.8590997" lon="11.6213118"><ele>948.4</ele><time>2026-05-01T08:50:24.585Z</time></trkpt><trkpt lat="45.8591883" lon="11.6213131"><ele>948.0</ele><time>2026-05-01T08:50:25.604Z</time></trkpt><trkpt lat="45.8592901" lon="11.6212892"><ele>947.3333333333334</ele><time>2026-05-01T08:50:26.581Z</time></trkpt><trkpt lat="45.8593871" lon="11.6212077"><ele>946.6666666666667</ele><time>2026-05-01T08:50:27.592Z</time></trkpt><trkpt lat="45.8594575" lon="11.621134"><ele>946.0</ele><time>2026-05-01T08:50:28.593Z</time></trkpt><trkpt lat="45.8594925" lon="11.6210349"><ele>945.3333333333334</ele><time>2026-05-01T08:50:29.597Z</time></trkpt><trkpt lat="45.859526" lon="11.620932"><ele>944.6666666666667</ele><time>2026-05-01T08:50:30.588Z</time></trkpt><trkpt lat="45.8595258" lon="11.6208166"><ele>944.0</ele><time>2026-05-01T08:50:31.585Z</time></trkpt><trkpt lat="45.8595259" lon="11.6206896"><ele>944.0</ele><time>2026-05-01T08:50:32.588Z</time></trkpt><trkpt lat="45.859526" lon="11.6205466"><ele>944.0000000000001</ele><time>2026-05-01T08:50:33.584Z</time></trkpt><trkpt lat="45.8595221" lon="11.6203735"><ele>944.0000000000001</ele><time>2026-05-01T08:50:34.576Z</time></trkpt><trkpt lat="45.8595061" lon="11.620203"><ele>944.0</ele><time>2026-05-01T08:50:35.576Z</time></trkpt><trkpt lat="45.8594919" lon="11.6200475"><ele>944.0</ele><time>2026-05-01T08:50:36.578Z</time></trkpt><trkpt lat="45.8594709" lon="11.6199104"><ele>945.2</ele><time>2026-05-01T08:50:37.579Z</time></trkpt><trkpt lat="45.8594441" lon="11.6197997"><ele>946.4000000000001</ele><time>2026-05-01T08:50:38.583Z</time></trkpt><trkpt lat="45.8594124" lon="11.619612"><ele>947.6</ele><time>2026-05-01T08:50:40.569Z</time></trkpt><trkpt lat="45.8594243" lon="11.619503"><ele>948.8</ele><time>2026-05-01T08:50:41.579Z</time></trkpt><trkpt lat="45.8594528" lon="11.6193827"><ele>950.0</ele><time>2026-05-01T08:50:42.579Z</time></trkpt><trkpt lat="45.8595087" lon="11.6192622"><ele>950.5</ele><time>2026-05-01T08:50:43.559Z</time></trkpt><trkpt lat="45.8595702" lon="11.6191408"><ele>951.0</ele><time>2026-05-01T08:50:44.576Z</time></trkpt><trkpt lat="45.8596519" lon="11.6190061"><ele>951.5</ele><time>2026-05-01T08:50:45.583Z</time></trkpt><trkpt lat="45.8597268" lon="11.618876"><ele>952.0</ele><time>2026-05-01T08:50:46.576Z</time></trkpt><trkpt lat="45.8597975" lon="11.6187639"><ele>951.9999999999999</ele><time>2026-05-01T08:50:47.574Z</time></trkpt><trkpt lat="45.859869" lon="11.6186657"><ele>952.0</ele><time>2026-05-01T08:50:48.583Z</time></trkpt><trkpt lat="45.8599405" lon="11.6185684"><ele>952.0</ele><time>2026-05-01T08:50:49.58Z</time></trkpt><trkpt lat="45.8599966" lon="11.6184715"><ele>952.0</ele><time>2026-05-01T08:50:50.584Z</time></trkpt><trkpt lat="45.8600572" lon="11.6183857"><ele>951.9999999999999</ele><time>2026-05-01T08:50:51.596Z</time></trkpt><trkpt lat="45.8601096" lon="11.6183159"><ele>952.0</ele><time>2026-05-01T08:50:52.599Z</time></trkpt><trkpt lat="45.8601597" lon="11.6182577"><ele>945.6</ele><time>2026-05-01T08:50:53.588Z</time></trkpt><trkpt lat="45.8602212" lon="11.6182104"><ele>939.2</ele><time>2026-05-01T08:50:54.595Z</time></trkpt><trkpt lat="45.8602789" lon="11.6181647"><ele>932.8</ele><time>2026-05-01T08:50:55.575Z</time></trkpt><trkpt lat="45.8603205" lon="11.6180383"><ele>926.4</ele><time>2026-05-01T08:50:57.567Z</time></trkpt><trkpt lat="45.8602732" lon="11.6178518"><ele>920.0</ele><time>2026-05-01T08:50:59.576Z</time></trkpt><trkpt lat="45.8602292" lon="11.6177187"><ele>920.0</ele><time>2026-05-01T08:51:00.581Z</time></trkpt><trkpt lat="45.8601942" lon="11.6175785"><ele>920.0</ele><time>2026-05-01T08:51:01.573Z</time></trkpt><trkpt lat="45.8601626" lon="11.6174356"><ele>920.0</ele><time>2026-05-01T08:51:02.58Z</time></trkpt><trkpt lat="45.8601416" lon="11.6172906"><ele>920.0</ele><time>2026-05-01T08:51:03.584Z</time></trkpt><trkpt lat="45.8601224" lon="11.6171424"><ele>920.0</ele><time>2026-05-01T08:51:04.577Z</time></trkpt><trkpt lat="45.8600934" lon="11.6169974"><ele>924.8</ele><time>2026-05-01T08:51:05.59Z</time></trkpt><trkpt lat="45.8600695" lon="11.61688"><ele>929.6</ele><time>2026-05-01T08:51:06.576Z</time></trkpt><trkpt lat="45.860029" lon="11.6167692"><ele>934.4000000000001</ele><time>2026-05-01T08:51:07.591Z</time></trkpt><trkpt lat="45.859985" lon="11.6166488"><ele>939.2</ele><time>2026-05-01T08:51:08.578Z</time></trkpt><trkpt lat="45.8599438" lon="11.6165222"><ele>944.0</ele><time>2026-05-01T08:51:09.579Z</time></trkpt><trkpt lat="45.8599044" lon="11.6164008"><ele>944.0000000000001</ele><time>2026-05-01T08:51:10.572Z</time></trkpt><trkpt lat="45.8598834" lon="11.6162976"><ele>944.0</ele><time>2026-05-01T08:51:11.572Z</time></trkpt><trkpt lat="45.859878" lon="11.6162019"><ele>944.0</ele><time>2026-05-01T08:51:12.58Z</time></trkpt><trkpt lat="45.8598942" lon="11.6161063"><ele>944.0</ele><time>2026-05-01T08:51:13.581Z</time></trkpt><trkpt lat="45.8599842" lon="11.6159656"><ele>944.0000000000001</ele><time>2026-05-01T08:51:15.573Z</time></trkpt><trkpt lat="45.8600476" lon="11.6159227"><ele>944.0</ele><time>2026-05-01T08:51:16.594Z</time></trkpt><trkpt lat="45.8601075" lon="11.6158646"><ele>943.0</ele><time>2026-05-01T08:51:17.561Z</time></trkpt><trkpt lat="45.8601535" lon="11.6157944"><ele>942.0</ele><time>2026-05-01T08:51:18.584Z</time></trkpt><trkpt lat="45.8601846" lon="11.6157093"><ele>941.0</ele><time>2026-05-01T08:51:19.581Z</time></trkpt><trkpt lat="45.8602139" lon="11.6156202"><ele>940.0</ele><time>2026-05-01T08:51:20.586Z</time></trkpt><trkpt lat="45.8602096" lon="11.6155094"><ele>939.0</ele><time>2026-05-01T08:51:21.58Z</time></trkpt><trkpt lat="45.8601972" lon="11.6153885"><ele>938.0</ele><time>2026-05-01T08:51:22.579Z</time></trkpt><trkpt lat="45.8601829" lon="11.6152718"><ele>937.0</ele><time>2026-05-01T08:51:23.576Z</time></trkpt><trkpt lat="45.8601673" lon="11.6151564"><ele>936.9999999999999</ele><time>2026-05-01T08:51:24.578Z</time></trkpt><trkpt lat="45.86016" lon="11.6150424"><ele>937.0</ele><time>2026-05-01T08:51:25.582Z</time></trkpt><trkpt lat="45.8601654" lon="11.6149273"><ele>937.0</ele><time>2026-05-01T08:51:26.574Z</time></trkpt><trkpt lat="45.8601785" lon="11.6148175"><ele>937.0</ele><time>2026-05-01T08:51:27.573Z</time></trkpt><trkpt lat="45.8601914" lon="11.6147086"><ele>936.9999999999999</ele><time>2026-05-01T08:51:28.579Z</time></trkpt><trkpt lat="45.8602144" lon="11.6146165"><ele>937.0</ele><time>2026-05-01T08:51:29.581Z</time></trkpt><trkpt lat="45.860269" lon="11.6144797"><ele>936.4000000000001</ele><time>2026-05-01T08:51:31.596Z</time></trkpt><trkpt lat="45.8603398" lon="11.6143455"><ele>935.8000000000001</ele><time>2026-05-01T08:51:33.576Z</time></trkpt><trkpt lat="45.8604301" lon="11.6142106"><ele>935.2</ele><time>2026-05-01T08:51:35.578Z</time></trkpt><trkpt lat="45.8604816" lon="11.6141392"><ele>934.6</ele><time>2026-05-01T08:51:36.583Z</time></trkpt><trkpt lat="45.8605313" lon="11.6140651"><ele>934.0</ele><time>2026-05-01T08:51:37.581Z</time></trkpt><trkpt lat="45.860581" lon="11.6139904"><ele>933.9999999999999</ele><time>2026-05-01T08:51:38.58Z</time></trkpt><trkpt lat="45.8606278" lon="11.6139115"><ele>934.0</ele><time>2026-05-01T08:51:39.591Z</time></trkpt><trkpt lat="45.860672" lon="11.6138343"><ele>933.9999999999999</ele><time>2026-05-01T08:51:40.587Z</time></trkpt><trkpt lat="45.860715" lon="11.6137617"><ele>933.9999999999999</ele><time>2026-05-01T08:51:41.585Z</time></trkpt><trkpt lat="45.8607597" lon="11.613685"><ele>934.0</ele><time>2026-05-01T08:51:42.591Z</time></trkpt><trkpt lat="45.8608052" lon="11.6136043"><ele>933.9999999999999</ele><time>2026-05-01T08:51:43.581Z</time></trkpt><trkpt lat="45.8608484" lon="11.6135297"><ele>933.9999999999999</ele><time>2026-05-01T08:51:44.578Z</time></trkpt><trkpt lat="45.8608931" lon="11.6134516"><ele>934.3333333333333</ele><time>2026-05-01T08:51:45.576Z</time></trkpt><trkpt lat="45.8609415" lon="11.6133716"><ele>934.6666666666666</ele><time>2026-05-01T08:51:46.583Z</time></trkpt><trkpt lat="45.8609899" lon="11.6132915"><ele>935.0</ele><time>2026-05-01T08:51:47.585Z</time></trkpt><trkpt lat="45.861038" lon="11.613211"><ele>935.3333333333333</ele><time>2026-05-01T08:51:48.578Z</time></trkpt><trkpt lat="45.8610857" lon="11.6131315"><ele>935.6666666666666</ele><time>2026-05-01T08:51:49.58Z</time></trkpt><trkpt lat="45.8611284" lon="11.6130567"><ele>936.0</ele><time>2026-05-01T08:51:50.581Z</time></trkpt><trkpt lat="45.8611914" lon="11.6129249"><ele>936.6666666666666</ele><time>2026-05-01T08:51:52.581Z</time></trkpt><trkpt lat="45.8612151" lon="11.61284"><ele>937.3333333333333</ele><time>2026-05-01T08:51:53.582Z</time></trkpt><trkpt lat="45.861225" lon="11.6127265"><ele>938.0</ele><time>2026-05-01T08:51:54.586Z</time></trkpt><trkpt lat="45.861221" lon="11.6125987"><ele>938.6666666666666</ele><time>2026-05-01T08:51:55.583Z</time></trkpt><trkpt lat="45.8612165" lon="11.6124635"><ele>939.3333333333333</ele><time>2026-05-01T08:51:56.579Z</time></trkpt><trkpt lat="45.8612077" lon="11.6123258"><ele>940.0</ele><time>2026-05-01T08:51:57.58Z</time></trkpt><trkpt lat="45.8611982" lon="11.612181"><ele>940.0</ele><time>2026-05-01T08:51:58.58Z</time></trkpt><trkpt lat="45.8611811" lon="11.6120367"><ele>940.0</ele><time>2026-05-01T08:51:59.579Z</time></trkpt><trkpt lat="45.8611631" lon="11.6118952"><ele>940.0</ele><time>2026-05-01T08:52:00.578Z</time></trkpt><trkpt lat="45.8611236" lon="11.6117787"><ele>940.0</ele><time>2026-05-01T08:52:01.577Z</time></trkpt><trkpt lat="45.8610762" lon="11.611685"><ele>940.0</ele><time>2026-05-01T08:52:02.581Z</time></trkpt><trkpt lat="45.8610193" lon="11.6116031"><ele>939.9999999999999</ele><time>2026-05-01T08:52:03.58Z</time></trkpt><trkpt lat="45.8609637" lon="11.6115397"><ele>940.0</ele><time>2026-05-01T08:52:04.579Z</time></trkpt><trkpt lat="45.8608699" lon="11.6114315"><ele>940.0</ele><time>2026-05-01T08:52:06.582Z</time></trkpt><trkpt lat="45.860838" lon="11.6113047"><ele>940.0</ele><time>2026-05-01T08:52:08.582Z</time></trkpt><trkpt lat="45.8608738" lon="11.6112009"><ele>939.9999999999999</ele><time>2026-05-01T08:53:59.61Z</time></trkpt><trkpt lat="45.860885" lon="11.6110937"><ele>940.0</ele><time>2026-05-01T08:54:02.58Z</time></trkpt><trkpt lat="45.8608195" lon="11.6110165"><ele>940.0</ele><time>2026-05-01T08:54:12.575Z</time></trkpt><trkpt lat="45.8607211" lon="11.6108738"><ele>940.0</ele><time>2026-05-01T08:54:14.585Z</time></trkpt><trkpt lat="45.8606579" lon="11.6107795"><ele>940.0</ele><time>2026-05-01T08:54:15.578Z</time></trkpt><trkpt lat="45.8605835" lon="11.6106684"><ele>940.0</ele><time>2026-05-01T08:54:16.578Z</time></trkpt><trkpt lat="45.8605031" lon="11.6105443"><ele>940.0</ele><time>2026-05-01T08:54:17.578Z</time></trkpt><trkpt lat="45.860416" lon="11.6104018"><ele>940.0</ele><time>2026-05-01T08:54:18.579Z</time></trkpt><trkpt lat="45.8603261" lon="11.6102555"><ele>940.0</ele><time>2026-05-01T08:54:19.575Z</time></trkpt><trkpt lat="45.8602326" lon="11.6101035"><ele>940.0</ele><time>2026-05-01T08:54:20.578Z</time></trkpt><trkpt lat="45.8601414" lon="11.60996"><ele>942.75</ele><time>2026-05-01T08:54:21.576Z</time></trkpt><trkpt lat="45.8600468" lon="11.6098281"><ele>945.5</ele><time>2026-05-01T08:54:22.585Z</time></trkpt><trkpt lat="45.8599419" lon="11.6097077"><ele>948.25</ele><time>2026-05-01T08:54:23.578Z</time></trkpt><trkpt lat="45.8598287" lon="11.6096014"><ele>951.0</ele><time>2026-05-01T08:54:24.581Z</time></trkpt><trkpt lat="45.8597086" lon="11.6095086"><ele>952.75</ele><time>2026-05-01T08:54:25.58Z</time></trkpt><trkpt lat="45.8595827" lon="11.6094302"><ele>954.5</ele><time>2026-05-01T08:54:26.576Z</time></trkpt><trkpt lat="45.8594504" lon="11.6093721"><ele>956.25</ele><time>2026-05-01T08:54:27.575Z</time></trkpt><trkpt lat="45.8593128" lon="11.6093283"><ele>958.0</ele><time>2026-05-01T08:54:28.575Z</time></trkpt><trkpt lat="45.8591708" lon="11.6093"><ele>958.0</ele><time>2026-05-01T08:54:29.572Z</time></trkpt><trkpt lat="45.8590252" lon="11.6092967"><ele>958.0</ele><time>2026-05-01T08:54:30.578Z</time></trkpt><trkpt lat="45.8588765" lon="11.6093123"><ele>958.0</ele><time>2026-05-01T08:54:31.578Z</time></trkpt><trkpt lat="45.8587265" lon="11.6093416"><ele>958.0</ele><time>2026-05-01T08:54:32.577Z</time></trkpt><trkpt lat="45.8585805" lon="11.6093756"><ele>958.0</ele><time>2026-05-01T08:54:33.577Z</time></trkpt><trkpt lat="45.8584412" lon="11.6094036"><ele>958.0</ele><time>2026-05-01T08:54:34.581Z</time></trkpt><trkpt lat="45.8582998" lon="11.6094108"><ele>958.0</ele><time>2026-05-01T08:54:35.583Z</time></trkpt><trkpt lat="45.8581575" lon="11.6093827"><ele>958.0</ele><time>2026-05-01T08:54:36.588Z</time></trkpt><trkpt lat="45.8580209" lon="11.6093195"><ele>958.0</ele><time>2026-05-01T08:54:37.589Z</time></trkpt><trkpt lat="45.8578908" lon="11.6092365"><ele>958.0</ele><time>2026-05-01T08:54:38.593Z</time></trkpt><trkpt lat="45.8577606" lon="11.6091484"><ele>958.0</ele><time>2026-05-01T08:54:39.575Z</time></trkpt><trkpt lat="45.8576273" lon="11.6090615"><ele>958.0</ele><time>2026-05-01T08:54:40.593Z</time></trkpt><trkpt lat="45.8574927" lon="11.6089687"><ele>956.0</ele><time>2026-05-01T08:54:41.579Z</time></trkpt><trkpt lat="45.8573551" lon="11.6088846"><ele>954.0</ele><time>2026-05-01T08:54:42.58Z</time></trkpt><trkpt lat="45.857221" lon="11.608797"><ele>952.0</ele><time>2026-05-01T08:54:43.577Z</time></trkpt><trkpt lat="45.857099" lon="11.6087068"><ele>950.0</ele><time>2026-05-01T08:54:44.573Z</time></trkpt><trkpt lat="45.8569951" lon="11.6086143"><ele>952.25</ele><time>2026-05-01T08:54:45.597Z</time></trkpt><trkpt lat="45.8569057" lon="11.6085004"><ele>954.5</ele><time>2026-05-01T08:54:46.585Z</time></trkpt><trkpt lat="45.8568353" lon="11.6083597"><ele>956.75</ele><time>2026-05-01T08:54:47.584Z</time></trkpt><trkpt lat="45.8567791" lon="11.6081977"><ele>959.0</ele><time>2026-05-01T08:54:48.59Z</time></trkpt><trkpt lat="45.8567244" lon="11.6080259"><ele>959.0</ele><time>2026-05-01T08:54:49.581Z</time></trkpt><trkpt lat="45.8566699" lon="11.607843"><ele>959.0</ele><time>2026-05-01T08:54:50.589Z</time></trkpt><trkpt lat="45.8566149" lon="11.6076523"><ele>959.0</ele><time>2026-05-01T08:54:51.58Z</time></trkpt><trkpt lat="45.8565542" lon="11.6074575"><ele>959.0</ele><time>2026-05-01T08:54:52.581Z</time></trkpt><trkpt lat="45.8564807" lon="11.6072625"><ele>962.0</ele><time>2026-05-01T08:54:53.579Z</time></trkpt><trkpt lat="45.8563918" lon="11.607073"><ele>965.0</ele><time>2026-05-01T08:54:54.58Z</time></trkpt><trkpt lat="45.8562971" lon="11.6068865"><ele>968.0</ele><time>2026-05-01T08:54:55.578Z</time></trkpt><trkpt lat="45.8562056" lon="11.6067063"><ele>968.25</ele><time>2026-05-01T08:54:56.574Z</time></trkpt><trkpt lat="45.8561186" lon="11.6065329"><ele>968.5</ele><time>2026-05-01T08:54:57.587Z</time></trkpt><trkpt lat="45.8560349" lon="11.6063677"><ele>968.75</ele><time>2026-05-01T08:54:58.575Z</time></trkpt><trkpt lat="45.8559473" lon="11.6062134"><ele>969.0</ele><time>2026-05-01T08:54:59.582Z</time></trkpt><trkpt lat="45.8558474" lon="11.6060793"><ele>970.25</ele><time>2026-05-01T08:55:00.585Z</time></trkpt><trkpt lat="45.8557326" lon="11.6059713"><ele>971.5</ele><time>2026-05-01T08:55:01.575Z</time></trkpt><trkpt lat="45.8556077" lon="11.6058815"><ele>972.75</ele><time>2026-05-01T08:55:02.577Z</time></trkpt><trkpt lat="45.8554782" lon="11.6057982"><ele>974.0</ele><time>2026-05-01T08:55:03.574Z</time></trkpt><trkpt lat="45.8553543" lon="11.6057239"><ele>974.0</ele><time>2026-05-01T08:55:04.586Z</time></trkpt><trkpt lat="45.8552689" lon="11.6055925"><ele>974.0</ele><time>2026-05-01T08:55:05.579Z</time></trkpt><trkpt lat="45.8551976" lon="11.6054369"><ele>974.0</ele><time>2026-05-01T08:55:06.583Z</time></trkpt><trkpt lat="45.8551295" lon="11.6052685"><ele>974.0</ele><time>2026-05-01T08:55:07.574Z</time></trkpt><trkpt lat="45.8550571" lon="11.6050938"><ele>975.6666666666667</ele><time>2026-05-01T08:55:08.582Z</time></trkpt><trkpt lat="45.8549708" lon="11.6049229"><ele>977.3333333333333</ele><time>2026-05-01T08:55:09.57Z</time></trkpt><trkpt lat="45.8548718" lon="11.6047567"><ele>979.0</ele><time>2026-05-01T08:55:10.583Z</time></trkpt><trkpt lat="45.8547682" lon="11.604594"><ele>982.3333333333333</ele><time>2026-05-01T08:55:11.577Z</time></trkpt><trkpt lat="45.8546615" lon="11.6044328"><ele>985.6666666666667</ele><time>2026-05-01T08:55:12.574Z</time></trkpt><trkpt lat="45.8545473" lon="11.6042832"><ele>989.0</ele><time>2026-05-01T08:55:13.596Z</time></trkpt><trkpt lat="45.8544239" lon="11.6041469"><ele>989.0</ele><time>2026-05-01T08:55:14.591Z</time></trkpt><trkpt lat="45.8542952" lon="11.6040433"><ele>989.0</ele><time>2026-05-01T08:55:15.592Z</time></trkpt><trkpt lat="45.8541713" lon="11.6039466"><ele>989.0</ele><time>2026-05-01T08:55:16.575Z</time></trkpt><trkpt lat="45.854047" lon="11.6038439"><ele>989.0</ele><time>2026-05-01T08:55:17.588Z</time></trkpt><trkpt lat="45.8539227" lon="11.6037417"><ele>987.75</ele><time>2026-05-01T08:55:18.583Z</time></trkpt><trkpt lat="45.8538026" lon="11.6036429"><ele>986.5</ele><time>2026-05-01T08:55:19.591Z</time></trkpt><trkpt lat="45.8536762" lon="11.6035534"><ele>985.25</ele><time>2026-05-01T08:55:20.588Z</time></trkpt><trkpt lat="45.8535438" lon="11.6034712"><ele>984.0</ele><time>2026-05-01T08:55:21.581Z</time></trkpt><trkpt lat="45.8534097" lon="11.6033919"><ele>980.3333333333333</ele><time>2026-05-01T08:55:22.581Z</time></trkpt><trkpt lat="45.853265" lon="11.6033387"><ele>976.6666666666666</ele><time>2026-05-01T08:55:23.581Z</time></trkpt><trkpt lat="45.8531123" lon="11.6033162"><ele>973.0</ele><time>2026-05-01T08:55:24.578Z</time></trkpt><trkpt lat="45.8529537" lon="11.6033182"><ele>973.0</ele><time>2026-05-01T08:55:25.582Z</time></trkpt><trkpt lat="45.8527931" lon="11.6033306"><ele>973.0</ele><time>2026-05-01T08:55:26.585Z</time></trkpt><trkpt lat="45.8526335" lon="11.6033465"><ele>973.0</ele><time>2026-05-01T08:55:27.577Z</time></trkpt><trkpt lat="45.8524714" lon="11.6033647"><ele>972.0</ele><time>2026-05-01T08:55:28.578Z</time></trkpt><trkpt lat="45.852309" lon="11.6033832"><ele>971.0</ele><time>2026-05-01T08:55:29.582Z</time></trkpt><trkpt lat="45.8521439" lon="11.6034074"><ele>970.0</ele><time>2026-05-01T08:55:30.579Z</time></trkpt><trkpt lat="45.851978" lon="11.60343"><ele>970.0</ele><time>2026-05-01T08:55:31.578Z</time></trkpt><trkpt lat="45.8518085" lon="11.6034484"><ele>970.0</ele><time>2026-05-01T08:55:32.577Z</time></trkpt><trkpt lat="45.8516341" lon="11.6034677"><ele>970.0</ele><time>2026-05-01T08:55:33.585Z</time></trkpt><trkpt lat="45.8514594" lon="11.6034866"><ele>972.6666666666666</ele><time>2026-05-01T08:55:34.587Z</time></trkpt><trkpt lat="45.8512882" lon="11.6035019"><ele>975.3333333333333</ele><time>2026-05-01T08:55:35.582Z</time></trkpt><trkpt lat="45.8511201" lon="11.6035083"><ele>978.0</ele><time>2026-05-01T08:55:36.596Z</time></trkpt><trkpt lat="45.8509607" lon="11.603499"><ele>978.6666666666667</ele><time>2026-05-01T08:55:37.587Z</time></trkpt><trkpt lat="45.8508077" lon="11.6034654"><ele>979.3333333333334</ele><time>2026-05-01T08:55:38.578Z</time></trkpt><trkpt lat="45.8506601" lon="11.6034047"><ele>980.0</ele><time>2026-05-01T08:55:39.572Z</time></trkpt><trkpt lat="45.8505163" lon="11.6033208"><ele>980.0</ele><time>2026-05-01T08:55:40.592Z</time></trkpt><trkpt lat="45.8503729" lon="11.6032247"><ele>980.0</ele><time>2026-05-01T08:55:41.583Z</time></trkpt><trkpt lat="45.850228" lon="11.6031255"><ele>980.0</ele><time>2026-05-01T08:55:42.582Z</time></trkpt><trkpt lat="45.8500822" lon="11.6030252"><ele>980.0</ele><time>2026-05-01T08:55:43.59Z</time></trkpt><trkpt lat="45.8499354" lon="11.6029211"><ele>980.0</ele><time>2026-05-01T08:55:44.581Z</time></trkpt><trkpt lat="45.84979" lon="11.6028122"><ele>980.0</ele><time>2026-05-01T08:55:45.595Z</time></trkpt><trkpt lat="45.8496457" lon="11.6026982"><ele>979.3333333333334</ele><time>2026-05-01T08:55:46.583Z</time></trkpt><trkpt lat="45.8495027" lon="11.6025781"><ele>978.6666666666667</ele><time>2026-05-01T08:55:47.58Z</time></trkpt><trkpt lat="45.8493606" lon="11.6024526"><ele>978.0</ele><time>2026-05-01T08:55:48.576Z</time></trkpt><trkpt lat="45.8492186" lon="11.6023227"><ele>978.0</ele><time>2026-05-01T08:55:49.582Z</time></trkpt><trkpt lat="45.8490794" lon="11.6021852"><ele>978.0</ele><time>2026-05-01T08:55:50.582Z</time></trkpt><trkpt lat="45.8489439" lon="11.6020409"><ele>978.0</ele><time>2026-05-01T08:55:51.583Z</time></trkpt><trkpt lat="45.8488158" lon="11.6018983"><ele>977.75</ele><time>2026-05-01T08:55:52.593Z</time></trkpt><trkpt lat="45.8486991" lon="11.6017644"><ele>977.5</ele><time>2026-05-01T08:55:53.578Z</time></trkpt><trkpt lat="45.8485824" lon="11.6016444"><ele>977.25</ele><time>2026-05-01T08:55:54.577Z</time></trkpt><trkpt lat="45.8484534" lon="11.6015528"><ele>977.0</ele><time>2026-05-01T08:55:55.585Z</time></trkpt><trkpt lat="45.8483105" lon="11.6015123"><ele>977.0</ele><time>2026-05-01T08:55:56.58Z</time></trkpt><trkpt lat="45.8481607" lon="11.6015251"><ele>977.0</ele><time>2026-05-01T08:55:57.583Z</time></trkpt><trkpt lat="45.8480158" lon="11.6015728"><ele>977.0</ele><time>2026-05-01T08:55:58.587Z</time></trkpt><trkpt lat="45.8478821" lon="11.6016285"><ele>977.0</ele><time>2026-05-01T08:55:59.577Z</time></trkpt><trkpt lat="45.8477471" lon="11.6016837"><ele>976.75</ele><time>2026-05-01T08:56:00.578Z</time></trkpt><trkpt lat="45.8476073" lon="11.6017401"><ele>976.5</ele><time>2026-05-01T08:56:01.588Z</time></trkpt><trkpt lat="45.8474639" lon="11.6018006"><ele>976.25</ele><time>2026-05-01T08:56:02.586Z</time></trkpt><trkpt lat="45.8473236" lon="11.6018625"><ele>976.0</ele><time>2026-05-01T08:56:03.575Z</time></trkpt><trkpt lat="45.8471784" lon="11.601916"><ele>976.0</ele><time>2026-05-01T08:56:04.579Z</time></trkpt><trkpt lat="45.8470315" lon="11.601958"><ele>976.0</ele><time>2026-05-01T08:56:05.567Z</time></trkpt><trkpt lat="45.8468849" lon="11.6019894"><ele>976.0</ele><time>2026-05-01T08:56:06.594Z</time></trkpt><trkpt lat="45.8467338" lon="11.6019941"><ele>976.0</ele><time>2026-05-01T08:56:07.565Z</time></trkpt><trkpt lat="45.8465851" lon="11.6019672"><ele>977.5</ele><time>2026-05-01T08:56:08.591Z</time></trkpt><trkpt lat="45.8464405" lon="11.6019124"><ele>979.0</ele><time>2026-05-01T08:56:09.583Z</time></trkpt><trkpt lat="45.8462975" lon="11.6018477"><ele>980.5</ele><time>2026-05-01T08:56:10.584Z</time></trkpt><trkpt lat="45.8461566" lon="11.6017757"><ele>982.0</ele><time>2026-05-01T08:56:11.586Z</time></trkpt><trkpt lat="45.8460242" lon="11.6017012"><ele>982.0</ele><time>2026-05-01T08:56:12.579Z</time></trkpt><trkpt lat="45.8459048" lon="11.6015878"><ele>982.0</ele><time>2026-05-01T08:56:13.576Z</time></trkpt><trkpt lat="45.845787" lon="11.601464"><ele>982.0</ele><time>2026-05-01T08:56:14.588Z</time></trkpt><trkpt lat="45.8456733" lon="11.6013248"><ele>982.0</ele><time>2026-05-01T08:56:15.579Z</time></trkpt><trkpt lat="45.8455698" lon="11.6011917"><ele>981.75</ele><time>2026-05-01T08:56:16.579Z</time></trkpt><trkpt lat="45.8454673" lon="11.6010543"><ele>981.5</ele><time>2026-05-01T08:56:17.582Z</time></trkpt><trkpt lat="45.8453569" lon="11.6009211"><ele>981.25</ele><time>2026-05-01T08:56:18.581Z</time></trkpt><trkpt lat="45.8452484" lon="11.600784"><ele>981.0</ele><time>2026-05-01T08:56:19.577Z</time></trkpt><trkpt lat="45.845146" lon="11.6006359"><ele>980.5</ele><time>2026-05-01T08:56:20.581Z</time></trkpt><trkpt lat="45.8450509" lon="11.6004783"><ele>980.0</ele><time>2026-05-01T08:56:21.582Z</time></trkpt><trkpt lat="45.844961" lon="11.6003155"><ele>979.5</ele><time>2026-05-01T08:56:22.581Z</time></trkpt><trkpt lat="45.8448709" lon="11.6001398"><ele>979.0</ele><time>2026-05-01T08:56:23.585Z</time></trkpt><trkpt lat="45.844782" lon="11.5999653"><ele>978.5</ele><time>2026-05-01T08:56:24.589Z</time></trkpt><trkpt lat="45.8446911" lon="11.599798"><ele>978.0</ele><time>2026-05-01T08:56:25.584Z</time></trkpt><trkpt lat="45.8446039" lon="11.5996335"><ele>977.5</ele><time>2026-05-01T08:56:26.574Z</time></trkpt><trkpt lat="45.8445307" lon="11.5994577"><ele>977.0</ele><time>2026-05-01T08:56:27.574Z</time></trkpt><trkpt lat="45.8444703" lon="11.599268"><ele>980.5</ele><time>2026-05-01T08:56:28.579Z</time></trkpt><trkpt lat="45.8444245" lon="11.5990661"><ele>984.0</ele><time>2026-05-01T08:56:29.599Z</time></trkpt><trkpt lat="45.844385" lon="11.5988604"><ele>987.5</ele><time>2026-05-01T08:56:30.582Z</time></trkpt><trkpt lat="45.8443434" lon="11.5986511"><ele>991.0</ele><time>2026-05-01T08:56:31.575Z</time></trkpt><trkpt lat="45.8443036" lon="11.5984376"><ele>990.6666666666666</ele><time>2026-05-01T08:56:32.577Z</time></trkpt><trkpt lat="45.8442625" lon="11.5982215"><ele>990.3333333333333</ele><time>2026-05-01T08:56:33.577Z</time></trkpt><trkpt lat="45.8442226" lon="11.5979998"><ele>990.0</ele><time>2026-05-01T08:56:34.586Z</time></trkpt><trkpt lat="45.8441823" lon="11.5977726"><ele>990.0</ele><time>2026-05-01T08:56:35.581Z</time></trkpt><trkpt lat="45.8441401" lon="11.5975392"><ele>990.0</ele><time>2026-05-01T08:56:36.575Z</time></trkpt><trkpt lat="45.8440948" lon="11.5972981"><ele>990.0</ele><time>2026-05-01T08:56:37.58Z</time></trkpt><trkpt lat="45.8440435" lon="11.5970522"><ele>989.0</ele><time>2026-05-01T08:56:38.576Z</time></trkpt><trkpt lat="45.843981" lon="11.5968137"><ele>988.0</ele><time>2026-05-01T08:56:39.579Z</time></trkpt><trkpt lat="45.8439054" lon="11.5965845"><ele>987.0</ele><time>2026-05-01T08:56:40.578Z</time></trkpt><trkpt lat="45.8438247" lon="11.5963603"><ele>993.3333333333333</ele><time>2026-05-01T08:56:41.577Z</time></trkpt><trkpt lat="45.8437428" lon="11.5961398"><ele>999.6666666666666</ele><time>2026-05-01T08:56:42.579Z</time></trkpt><trkpt lat="45.8436645" lon="11.595918"><ele>1006.0</ele><time>2026-05-01T08:56:43.575Z</time></trkpt><trkpt lat="45.8435961" lon="11.5956893"><ele>1006.0</ele><time>2026-05-01T08:56:44.585Z</time></trkpt><trkpt lat="45.8435369" lon="11.5954542"><ele>1006.0</ele><time>2026-05-01T08:56:45.577Z</time></trkpt><trkpt lat="45.8434694" lon="11.5952252"><ele>1006.0</ele><time>2026-05-01T08:56:46.576Z</time></trkpt><trkpt lat="45.8433854" lon="11.5950197"><ele>1006.25</ele><time>2026-05-01T08:56:47.579Z</time></trkpt><trkpt lat="45.8432929" lon="11.594847"><ele>1006.5</ele><time>2026-05-01T08:56:48.574Z</time></trkpt><trkpt lat="45.8431978" lon="11.5947047"><ele>1006.75</ele><time>2026-05-01T08:56:49.577Z</time></trkpt><trkpt lat="45.8431113" lon="11.5945891"><ele>1007.0</ele><time>2026-05-01T08:56:50.574Z</time></trkpt><trkpt lat="45.8430327" lon="11.5944964"><ele>1009.5000000000001</ele><time>2026-05-01T08:56:51.58Z</time></trkpt><trkpt lat="45.8429637" lon="11.5944192"><ele>1012.0</ele><time>2026-05-01T08:56:52.58Z</time></trkpt><trkpt lat="45.8429049" lon="11.5943578"><ele>1014.5</ele><time>2026-05-01T08:56:53.578Z</time></trkpt><trkpt lat="45.842828" lon="11.5942624"><ele>1017.0</ele><time>2026-05-01T08:56:55.576Z</time></trkpt><trkpt lat="45.8429109" lon="11.5942483"><ele>1019.5000000000001</ele><time>2026-05-01T08:56:59.575Z</time></trkpt><trkpt lat="45.8429623" lon="11.5943086"><ele>1022.0</ele><time>2026-05-01T08:57:00.576Z</time></trkpt><trkpt lat="45.8430275" lon="11.5943876"><ele>1022.0</ele><time>2026-05-01T08:57:01.575Z</time></trkpt><trkpt lat="45.8431031" lon="11.5944693"><ele>1022.0</ele><time>2026-05-01T08:57:02.578Z</time></trkpt><trkpt lat="45.8431885" lon="11.5945503"><ele>1022.0</ele><time>2026-05-01T08:57:03.576Z</time></trkpt><trkpt lat="45.8432798" lon="11.5946437"><ele>1022.0</ele><time>2026-05-01T08:57:04.576Z</time></trkpt><trkpt lat="45.8433738" lon="11.5947399"><ele>1022.0</ele><time>2026-05-01T08:57:05.579Z</time></trkpt><trkpt lat="45.8434647" lon="11.5948408"><ele>1022.6</ele><time>2026-05-01T08:57:06.604Z</time></trkpt><trkpt lat="45.8435553" lon="11.5949444"><ele>1023.2</ele><time>2026-05-01T08:57:07.581Z</time></trkpt><trkpt lat="45.8436389" lon="11.5950479"><ele>1023.8</ele><time>2026-05-01T08:57:08.574Z</time></trkpt><trkpt lat="45.8437163" lon="11.5951447"><ele>1024.4</ele><time>2026-05-01T08:57:09.591Z</time></trkpt><trkpt lat="45.8437972" lon="11.5952426"><ele>1025.0</ele><time>2026-05-01T08:57:10.575Z</time></trkpt><trkpt lat="45.8438728" lon="11.5953331"><ele>1022.4</ele><time>2026-05-01T08:57:11.584Z</time></trkpt><trkpt lat="45.8439763" lon="11.5953916"><ele>1019.8</ele><time>2026-05-01T08:57:12.576Z</time></trkpt><trkpt lat="45.8440826" lon="11.5954177"><ele>1017.2</ele><time>2026-05-01T08:57:13.581Z</time></trkpt><trkpt lat="45.8441864" lon="11.5954286"><ele>1014.6</ele><time>2026-05-01T08:57:14.573Z</time></trkpt><trkpt lat="45.8442834" lon="11.5954047"><ele>1012.0</ele><time>2026-05-01T08:57:15.571Z</time></trkpt><trkpt lat="45.8443805" lon="11.5953719"><ele>1019.5</ele><time>2026-05-01T08:57:16.573Z</time></trkpt><trkpt lat="45.8444845" lon="11.5953353"><ele>1027.0</ele><time>2026-05-01T08:57:17.575Z</time></trkpt><trkpt lat="45.8445946" lon="11.5953066"><ele>1034.5</ele><time>2026-05-01T08:57:18.577Z</time></trkpt><trkpt lat="45.8447186" lon="11.5953191"><ele>1042.0</ele><time>2026-05-01T08:57:19.586Z</time></trkpt><trkpt lat="45.8448346" lon="11.5953283"><ele>1036.5</ele><time>2026-05-01T08:57:20.578Z</time></trkpt><trkpt lat="45.8449553" lon="11.5953532"><ele>1031.0</ele><time>2026-05-01T08:57:21.584Z</time></trkpt><trkpt lat="45.8450668" lon="11.5953873"><ele>1025.5</ele><time>2026-05-01T08:57:22.576Z</time></trkpt><trkpt lat="45.8451848" lon="11.5954263"><ele>1020.0</ele><time>2026-05-01T08:57:23.579Z</time></trkpt><trkpt lat="45.8453058" lon="11.5954462"><ele>1020.0</ele><time>2026-05-01T08:57:24.581Z</time></trkpt><trkpt lat="45.8454228" lon="11.5954798"><ele>1020.0</ele><time>2026-05-01T08:57:25.573Z</time></trkpt><trkpt lat="45.8455356" lon="11.5954958"><ele>1020.0</ele><time>2026-05-01T08:57:26.579Z</time></trkpt><trkpt lat="45.8456507" lon="11.5955005"><ele>1020.0</ele><time>2026-05-01T08:57:27.582Z</time></trkpt><trkpt lat="45.8457615" lon="11.5954958"><ele>1020.0</ele><time>2026-05-01T08:57:28.574Z</time></trkpt><trkpt lat="45.8458756" lon="11.5954731"><ele>1020.0</ele><time>2026-05-01T08:57:29.58Z</time></trkpt><trkpt lat="45.8459895" lon="11.5954163"><ele>1020.0</ele><time>2026-05-01T08:57:30.574Z</time></trkpt><trkpt lat="45.8461084" lon="11.5953645"><ele>1020.0</ele><time>2026-05-01T08:57:31.563Z</time></trkpt><trkpt lat="45.8462178" lon="11.5953035"><ele>1026.25</ele><time>2026-05-01T08:57:32.58Z</time></trkpt><trkpt lat="45.8463329" lon="11.5952499"><ele>1032.5</ele><time>2026-05-01T08:57:33.582Z</time></trkpt><trkpt lat="45.8464459" lon="11.5951946"><ele>1038.75</ele><time>2026-05-01T08:57:34.575Z</time></trkpt><trkpt lat="45.8465855" lon="11.5951321"><ele>1045.0</ele><time>2026-05-01T08:57:35.572Z</time></trkpt><trkpt lat="45.8467148" lon="11.5950853"><ele>1045.0</ele><time>2026-05-01T08:57:36.589Z</time></trkpt><trkpt lat="45.8468197" lon="11.5950248"><ele>1045.0</ele><time>2026-05-01T08:57:37.572Z</time></trkpt><trkpt lat="45.8469327" lon="11.5949751"><ele>1045.0</ele><time>2026-05-01T08:57:38.581Z</time></trkpt><trkpt lat="45.8470292" lon="11.5949265"><ele>1045.0</ele><time>2026-05-01T08:57:39.583Z</time></trkpt><trkpt lat="45.84711" lon="11.5949048"><ele>1045.0</ele><time>2026-05-01T08:57:40.576Z</time></trkpt><trkpt lat="45.8472077" lon="11.5949051"><ele>1045.0</ele><time>2026-05-01T08:57:41.579Z</time></trkpt><trkpt lat="45.8473013" lon="11.5949458"><ele>1045.0</ele><time>2026-05-01T08:57:42.577Z</time></trkpt><trkpt lat="45.8473699" lon="11.5949735"><ele>1045.0</ele><time>2026-05-01T08:57:43.582Z</time></trkpt><trkpt lat="45.8474393" lon="11.5949454"><ele>1045.0</ele><time>2026-05-01T08:57:44.575Z</time></trkpt><trkpt lat="45.8475157" lon="11.5948911"><ele>1045.0</ele><time>2026-05-01T08:57:45.581Z</time></trkpt><trkpt lat="45.8476187" lon="11.5948463"><ele>1045.0</ele><time>2026-05-01T08:57:46.583Z</time></trkpt><trkpt lat="45.8477163" lon="11.594816"><ele>1043.8333333333333</ele><time>2026-05-01T08:57:47.594Z</time></trkpt><trkpt lat="45.8477994" lon="11.594794"><ele>1042.6666666666665</ele><time>2026-05-01T08:57:48.588Z</time></trkpt><trkpt lat="45.8478807" lon="11.5947867"><ele>1041.5</ele><time>2026-05-01T08:57:49.583Z</time></trkpt><trkpt lat="45.8479409" lon="11.5947142"><ele>1040.3333333333333</ele><time>2026-05-01T08:57:50.585Z</time></trkpt><trkpt lat="45.8479966" lon="11.5945888"><ele>1039.1666666666667</ele><time>2026-05-01T08:57:51.586Z</time></trkpt><trkpt lat="45.8480664" lon="11.5944837"><ele>1038.0</ele><time>2026-05-01T08:57:52.578Z</time></trkpt><trkpt lat="45.8481533" lon="11.5944311"><ele>1040.0</ele><time>2026-05-01T08:57:53.59Z</time></trkpt><trkpt lat="45.8482325" lon="11.5943809"><ele>1042.0</ele><time>2026-05-01T08:57:54.577Z</time></trkpt><trkpt lat="45.8483243" lon="11.5943214"><ele>1044.0</ele><time>2026-05-01T08:57:55.579Z</time></trkpt><trkpt lat="45.8484294" lon="11.594253"><ele>1046.0</ele><time>2026-05-01T08:57:56.587Z</time></trkpt><trkpt lat="45.8485187" lon="11.5941765"><ele>1048.0</ele><time>2026-05-01T08:57:57.582Z</time></trkpt><trkpt lat="45.848591" lon="11.5940768"><ele>1048.0</ele><time>2026-05-01T08:57:58.585Z</time></trkpt><trkpt lat="45.8486677" lon="11.5939939"><ele>1048.0</ele><time>2026-05-01T08:57:59.589Z</time></trkpt><trkpt lat="45.8487559" lon="11.5938965"><ele>1048.0</ele><time>2026-05-01T08:58:00.576Z</time></trkpt><trkpt lat="45.8488419" lon="11.5937936"><ele>1048.0</ele><time>2026-05-01T08:58:01.576Z</time></trkpt><trkpt lat="45.8489224" lon="11.5936878"><ele>1048.0</ele><time>2026-05-01T08:58:02.59Z</time></trkpt><trkpt lat="45.8489972" lon="11.5935869"><ele>1051.8</ele><time>2026-05-01T08:58:03.577Z</time></trkpt><trkpt lat="45.8490702" lon="11.5934729"><ele>1055.6</ele><time>2026-05-01T08:58:04.581Z</time></trkpt><trkpt lat="45.8491472" lon="11.5933666"><ele>1059.4</ele><time>2026-05-01T08:58:05.577Z</time></trkpt><trkpt lat="45.8492254" lon="11.5932694"><ele>1063.2</ele><time>2026-05-01T08:58:06.579Z</time></trkpt><trkpt lat="45.8493039" lon="11.5931668"><ele>1067.0</ele><time>2026-05-01T08:58:07.577Z</time></trkpt><trkpt lat="45.8493709" lon="11.5930605"><ele>1067.0</ele><time>2026-05-01T08:58:08.605Z</time></trkpt><trkpt lat="45.8494393" lon="11.5929721"><ele>1067.0</ele><time>2026-05-01T08:58:09.579Z</time></trkpt><trkpt lat="45.8495181" lon="11.5929051"><ele>1067.0</ele><time>2026-05-01T08:58:10.577Z</time></trkpt><trkpt lat="45.8496068" lon="11.5928655"><ele>1067.0</ele><time>2026-05-01T08:58:11.584Z</time></trkpt><trkpt lat="45.8496919" lon="11.5928202"><ele>1067.0</ele><time>2026-05-01T08:58:12.574Z</time></trkpt><trkpt lat="45.8497724" lon="11.5927553"><ele>1067.4</ele><time>2026-05-01T08:58:13.593Z</time></trkpt><trkpt lat="45.8498441" lon="11.5926558"><ele>1067.8000000000002</ele><time>2026-05-01T08:58:14.593Z</time></trkpt><trkpt lat="45.8499135" lon="11.5925321"><ele>1068.2</ele><time>2026-05-01T08:58:15.588Z</time></trkpt><trkpt lat="45.8499878" lon="11.5924121"><ele>1068.6000000000001</ele><time>2026-05-01T08:58:16.582Z</time></trkpt><trkpt lat="45.8500762" lon="11.59231"><ele>1069.0</ele><time>2026-05-01T08:58:17.586Z</time></trkpt><trkpt lat="45.8501608" lon="11.592217"><ele>1069.0</ele><time>2026-05-01T08:58:18.566Z</time></trkpt><trkpt lat="45.8502423" lon="11.5921361"><ele>1069.0</ele><time>2026-05-01T08:58:19.589Z</time></trkpt><trkpt lat="45.8503161" lon="11.5920281"><ele>1069.0</ele><time>2026-05-01T08:58:20.574Z</time></trkpt><trkpt lat="45.8503626" lon="11.5918942"><ele>1069.0</ele><time>2026-05-01T08:58:21.586Z</time></trkpt><trkpt lat="45.8504204" lon="11.5917739"><ele>1069.0</ele><time>2026-05-01T08:58:22.574Z</time></trkpt><trkpt lat="45.8504678" lon="11.5916502"><ele>1071.4</ele><time>2026-05-01T08:58:23.582Z</time></trkpt><trkpt lat="45.8505169" lon="11.5915168"><ele>1073.8000000000002</ele><time>2026-05-01T08:58:24.586Z</time></trkpt><trkpt lat="45.8505773" lon="11.5913872"><ele>1076.1999999999998</ele><time>2026-05-01T08:58:25.578Z</time></trkpt><trkpt lat="45.8506286" lon="11.5912766"><ele>1078.6</ele><time>2026-05-01T08:58:26.572Z</time></trkpt><trkpt lat="45.8506765" lon="11.5911825"><ele>1081.0</ele><time>2026-05-01T08:58:27.575Z</time></trkpt><trkpt lat="45.8507454" lon="11.5910771"><ele>1082.6</ele><time>2026-05-01T08:58:28.575Z</time></trkpt><trkpt lat="45.8508331" lon="11.5909971"><ele>1084.1999999999998</ele><time>2026-05-01T08:58:29.58Z</time></trkpt><trkpt lat="45.8509305" lon="11.5909287"><ele>1085.8000000000002</ele><time>2026-05-01T08:58:30.577Z</time></trkpt><trkpt lat="45.8510375" lon="11.5908759"><ele>1087.4</ele><time>2026-05-01T08:58:31.583Z</time></trkpt><trkpt lat="45.8511483" lon="11.5908014"><ele>1089.0</ele><time>2026-05-01T08:58:32.576Z</time></trkpt><trkpt lat="45.8512555" lon="11.5907144"><ele>1089.0</ele><time>2026-05-01T08:58:33.578Z</time></trkpt><trkpt lat="45.8513635" lon="11.5906207"><ele>1089.0</ele><time>2026-05-01T08:58:34.581Z</time></trkpt><trkpt lat="45.8514794" lon="11.5905404"><ele>1089.0</ele><time>2026-05-01T08:58:35.58Z</time></trkpt><trkpt lat="45.8515898" lon="11.5904906"><ele>1089.0</ele><time>2026-05-01T08:58:36.573Z</time></trkpt><trkpt lat="45.8516982" lon="11.5904254"><ele>1090.25</ele><time>2026-05-01T08:58:37.578Z</time></trkpt><trkpt lat="45.8518099" lon="11.5903532"><ele>1091.5</ele><time>2026-05-01T08:58:38.577Z</time></trkpt><trkpt lat="45.8519295" lon="11.5902849"><ele>1092.75</ele><time>2026-05-01T08:58:39.574Z</time></trkpt><trkpt lat="45.852061" lon="11.5902084"><ele>1094.0</ele><time>2026-05-01T08:58:40.577Z</time></trkpt><trkpt lat="45.8521639" lon="11.5901191"><ele>1094.0</ele><time>2026-05-01T08:58:41.573Z</time></trkpt><trkpt lat="45.8522728" lon="11.5900342"><ele>1094.0</ele><time>2026-05-01T08:58:42.578Z</time></trkpt><trkpt lat="45.8523694" lon="11.5899582"><ele>1094.0</ele><time>2026-05-01T08:58:43.579Z</time></trkpt><trkpt lat="45.8524705" lon="11.5899077"><ele>1094.0</ele><time>2026-05-01T08:58:44.577Z</time></trkpt><trkpt lat="45.8525756" lon="11.5898694"><ele>1095.8</ele><time>2026-05-01T08:58:45.569Z</time></trkpt><trkpt lat="45.852676" lon="11.5898472"><ele>1097.6000000000001</ele><time>2026-05-01T08:58:46.576Z</time></trkpt><trkpt lat="45.8527806" lon="11.5898467"><ele>1099.4</ele><time>2026-05-01T08:58:47.587Z</time></trkpt><trkpt lat="45.8528844" lon="11.5898239"><ele>1101.2</ele><time>2026-05-01T08:58:48.577Z</time></trkpt><trkpt lat="45.852987" lon="11.5897801"><ele>1103.0</ele><time>2026-05-01T08:58:49.585Z</time></trkpt><trkpt lat="45.853093" lon="11.5896861"><ele>1103.0</ele><time>2026-05-01T08:58:50.583Z</time></trkpt><trkpt lat="45.8532004" lon="11.5895814"><ele>1103.0</ele><time>2026-05-01T08:58:51.561Z</time></trkpt><trkpt lat="45.8533029" lon="11.5894625"><ele>1103.0</ele><time>2026-05-01T08:58:52.575Z</time></trkpt><trkpt lat="45.853405" lon="11.5893647"><ele>1103.0</ele><time>2026-05-01T08:58:53.575Z</time></trkpt><trkpt lat="45.8534986" lon="11.5892741"><ele>1103.0</ele><time>2026-05-01T08:58:54.585Z</time></trkpt><trkpt lat="45.8536027" lon="11.5892355"><ele>1103.0</ele><time>2026-05-01T08:58:55.573Z</time></trkpt><trkpt lat="45.8537008" lon="11.589209"><ele>1103.0</ele><time>2026-05-01T08:58:56.577Z</time></trkpt><trkpt lat="45.8537985" lon="11.5891719"><ele>1103.0</ele><time>2026-05-01T08:58:57.576Z</time></trkpt><trkpt lat="45.8538882" lon="11.5891144"><ele>1103.0</ele><time>2026-05-01T08:58:58.573Z</time></trkpt><trkpt lat="45.8539605" lon="11.5890099"><ele>1103.0</ele><time>2026-05-01T08:58:59.581Z</time></trkpt><trkpt lat="45.8540258" lon="11.5888848"><ele>1103.0</ele><time>2026-05-01T08:59:00.575Z</time></trkpt><trkpt lat="45.8540801" lon="11.5887362"><ele>1103.0</ele><time>2026-05-01T08:59:01.573Z</time></trkpt><trkpt lat="45.854126" lon="11.5885885"><ele>1103.0</ele><time>2026-05-01T08:59:02.573Z</time></trkpt><trkpt lat="45.8541456" lon="11.5884347"><ele>1103.0</ele><time>2026-05-01T08:59:03.574Z</time></trkpt><trkpt lat="45.8541463" lon="11.5882708"><ele>1103.2</ele><time>2026-05-01T08:59:04.57Z</time></trkpt><trkpt lat="45.8541481" lon="11.5881144"><ele>1103.4</ele><time>2026-05-01T08:59:05.575Z</time></trkpt><trkpt lat="45.8541448" lon="11.5879723"><ele>1103.6000000000001</ele><time>2026-05-01T08:59:06.577Z</time></trkpt><trkpt lat="45.8541497" lon="11.5878531"><ele>1103.8</ele><time>2026-05-01T08:59:07.578Z</time></trkpt><trkpt lat="45.8541718" lon="11.5877334"><ele>1104.0</ele><time>2026-05-01T08:59:08.586Z</time></trkpt><trkpt lat="45.8542138" lon="11.5876181"><ele>1104.0</ele><time>2026-05-01T08:59:09.581Z</time></trkpt><trkpt lat="45.8542738" lon="11.5875262"><ele>1104.0</ele><time>2026-05-01T08:59:10.577Z</time></trkpt><trkpt lat="45.8543453" lon="11.5874578"><ele>1104.0</ele><time>2026-05-01T08:59:11.572Z</time></trkpt><trkpt lat="45.8544231" lon="11.5873909"><ele>1104.0</ele><time>2026-05-01T08:59:12.577Z</time></trkpt><trkpt lat="45.8545198" lon="11.5873541"><ele>1104.0</ele><time>2026-05-01T08:59:13.576Z</time></trkpt><trkpt lat="45.8546155" lon="11.587318"><ele>1105.0</ele><time>2026-05-01T08:59:14.574Z</time></trkpt><trkpt lat="45.8547066" lon="11.5872842"><ele>1106.0</ele><time>2026-05-01T08:59:15.577Z</time></trkpt><trkpt lat="45.8547821" lon="11.5872142"><ele>1107.0</ele><time>2026-05-01T08:59:16.579Z</time></trkpt><trkpt lat="45.8548442" lon="11.5870959"><ele>1108.0</ele><time>2026-05-01T08:59:17.575Z</time></trkpt><trkpt lat="45.8549034" lon="11.5869742"><ele>1109.0</ele><time>2026-05-01T08:59:18.577Z</time></trkpt><trkpt lat="45.8549781" lon="11.5868776"><ele>1109.0</ele><time>2026-05-01T08:59:19.576Z</time></trkpt><trkpt lat="45.8550478" lon="11.5867887"><ele>1109.0</ele><time>2026-05-01T08:59:20.572Z</time></trkpt><trkpt lat="45.8551323" lon="11.5867613"><ele>1109.0</ele><time>2026-05-01T08:59:21.573Z</time></trkpt><trkpt lat="45.855226" lon="11.5867386"><ele>1109.0</ele><time>2026-05-01T08:59:22.575Z</time></trkpt><trkpt lat="45.8553052" lon="11.5867025"><ele>1109.0</ele><time>2026-05-01T08:59:23.575Z</time></trkpt><trkpt lat="45.8553692" lon="11.5866063"><ele>1109.5</ele><time>2026-05-01T08:59:24.577Z</time></trkpt><trkpt lat="45.855428" lon="11.5864865"><ele>1110.0</ele><time>2026-05-01T08:59:25.58Z</time></trkpt><trkpt lat="45.8554944" lon="11.5863545"><ele>1110.5</ele><time>2026-05-01T08:59:26.589Z</time></trkpt><trkpt lat="45.855572" lon="11.5862297"><ele>1111.0</ele><time>2026-05-01T08:59:27.584Z</time></trkpt><trkpt lat="45.8556597" lon="11.5861102"><ele>1111.0</ele><time>2026-05-01T08:59:28.577Z</time></trkpt><trkpt lat="45.8557477" lon="11.585996"><ele>1111.0</ele><time>2026-05-01T08:59:29.58Z</time></trkpt><trkpt lat="45.8558309" lon="11.5858844"><ele>1111.0</ele><time>2026-05-01T08:59:30.582Z</time></trkpt><trkpt lat="45.855916" lon="11.5857772"><ele>1111.0</ele><time>2026-05-01T08:59:31.577Z</time></trkpt><trkpt lat="45.8559889" lon="11.5856856"><ele>1111.0</ele><time>2026-05-01T08:59:32.579Z</time></trkpt><trkpt lat="45.856059" lon="11.5856312"><ele>1111.8333333333333</ele><time>2026-05-01T08:59:33.58Z</time></trkpt><trkpt lat="45.8561286" lon="11.585608"><ele>1112.6666666666665</ele><time>2026-05-01T08:59:34.583Z</time></trkpt><trkpt lat="45.8561996" lon="11.5855864"><ele>1113.5</ele><time>2026-05-01T08:59:35.58Z</time></trkpt><trkpt lat="45.8562766" lon="11.5856376"><ele>1114.3333333333333</ele><time>2026-05-01T08:59:36.583Z</time></trkpt><trkpt lat="45.85635" lon="11.5857147"><ele>1115.1666666666667</ele><time>2026-05-01T08:59:37.575Z</time></trkpt><trkpt lat="45.856429" lon="11.5858049"><ele>1116.0</ele><time>2026-05-01T08:59:38.576Z</time></trkpt><trkpt lat="45.8565059" lon="11.5859163"><ele>1116.0</ele><time>2026-05-01T08:59:39.573Z</time></trkpt><trkpt lat="45.8565835" lon="11.5860303"><ele>1116.0</ele><time>2026-05-01T08:59:40.583Z</time></trkpt><trkpt lat="45.8566618" lon="11.5861444"><ele>1116.0</ele><time>2026-05-01T08:59:41.58Z</time></trkpt><trkpt lat="45.8567386" lon="11.5862516"><ele>1116.0</ele><time>2026-05-01T08:59:42.58Z</time></trkpt><trkpt lat="45.8568143" lon="11.5863457"><ele>1116.0</ele><time>2026-05-01T08:59:43.577Z</time></trkpt><trkpt lat="45.8569102" lon="11.586415"><ele>1116.0</ele><time>2026-05-01T08:59:44.577Z</time></trkpt><trkpt lat="45.857013" lon="11.5864661"><ele>1116.0</ele><time>2026-05-01T08:59:45.577Z</time></trkpt><trkpt lat="45.8571136" lon="11.5865238"><ele>1116.0</ele><time>2026-05-01T08:59:46.577Z</time></trkpt><trkpt lat="45.8572197" lon="11.5865518"><ele>1116.0</ele><time>2026-05-01T08:59:47.578Z</time></trkpt><trkpt lat="45.8573354" lon="11.5865675"><ele>1116.0</ele><time>2026-05-01T08:59:48.579Z</time></trkpt><trkpt lat="45.8574603" lon="11.5865759"><ele>1116.0</ele><time>2026-05-01T08:59:49.586Z</time></trkpt><trkpt lat="45.8575983" lon="11.5865733"><ele>1116.0</ele><time>2026-05-01T08:59:50.58Z</time></trkpt><trkpt lat="45.8577255" lon="11.5865749"><ele>1116.0</ele><time>2026-05-01T08:59:51.583Z</time></trkpt><trkpt lat="45.85785" lon="11.5865828"><ele>1116.0</ele><time>2026-05-01T08:59:52.599Z</time></trkpt><trkpt lat="45.8579747" lon="11.5865932"><ele>1117.0</ele><time>2026-05-01T08:59:53.581Z</time></trkpt><trkpt lat="45.8580947" lon="11.586615"><ele>1118.0</ele><time>2026-05-01T08:59:54.576Z</time></trkpt><trkpt lat="45.8582105" lon="11.586636"><ele>1119.0</ele><time>2026-05-01T08:59:55.576Z</time></trkpt><trkpt lat="45.8583251" lon="11.5866418"><ele>1120.0</ele><time>2026-05-01T08:59:56.579Z</time></trkpt><trkpt lat="45.8584409" lon="11.5866332"><ele>1121.25</ele><time>2026-05-01T08:59:57.569Z</time></trkpt><trkpt lat="45.8585586" lon="11.5866121"><ele>1122.5</ele><time>2026-05-01T08:59:58.562Z</time></trkpt><trkpt lat="45.8586779" lon="11.5865881"><ele>1123.75</ele><time>2026-05-01T08:59:59.565Z</time></trkpt><trkpt lat="45.8587992" lon="11.5865598"><ele>1125.0</ele><time>2026-05-01T09:00:00.561Z</time></trkpt><trkpt lat="45.8589165" lon="11.586524"><ele>1125.0</ele><time>2026-05-01T09:00:01.569Z</time></trkpt><trkpt lat="45.8590275" lon="11.5864811"><ele>1125.0</ele><time>2026-05-01T09:00:02.56Z</time></trkpt><trkpt lat="45.8591357" lon="11.5864241"><ele>1125.0</ele><time>2026-05-01T09:00:03.559Z</time></trkpt><trkpt lat="45.8592404" lon="11.5863566"><ele>1125.0</ele><time>2026-05-01T09:00:04.566Z</time></trkpt><trkpt lat="45.8593403" lon="11.586275"><ele>1125.0</ele><time>2026-05-01T09:00:05.559Z</time></trkpt><trkpt lat="45.8594431" lon="11.5861906"><ele>1125.0</ele><time>2026-05-01T09:00:06.569Z</time></trkpt><trkpt lat="45.8595434" lon="11.5860848"><ele>1125.0</ele><time>2026-05-01T09:00:07.565Z</time></trkpt><trkpt lat="45.8596351" lon="11.5859702"><ele>1125.0</ele><time>2026-05-01T09:00:08.568Z</time></trkpt><trkpt lat="45.859725" lon="11.5858637"><ele>1125.0</ele><time>2026-05-01T09:00:09.56Z</time></trkpt><trkpt lat="45.8598132" lon="11.5857749"><ele>1125.0</ele><time>2026-05-01T09:00:10.562Z</time></trkpt><trkpt lat="45.8598968" lon="11.5857138"><ele>1125.0</ele><time>2026-05-01T09:00:11.559Z</time></trkpt><trkpt lat="45.8599842" lon="11.585686"><ele>1125.0</ele><time>2026-05-01T09:00:12.562Z</time></trkpt><trkpt lat="45.8600664" lon="11.5856916"><ele>1125.0</ele><time>2026-05-01T09:00:13.556Z</time></trkpt><trkpt lat="45.8601535" lon="11.5857298"><ele>1125.1666666666667</ele><time>2026-05-01T09:00:14.566Z</time></trkpt><trkpt lat="45.8602353" lon="11.5857896"><ele>1125.3333333333333</ele><time>2026-05-01T09:00:15.574Z</time></trkpt><trkpt lat="45.8603176" lon="11.5858529"><ele>1125.5</ele><time>2026-05-01T09:00:16.574Z</time></trkpt><trkpt lat="45.8603951" lon="11.5859017"><ele>1125.6666666666665</ele><time>2026-05-01T09:00:17.576Z</time></trkpt><trkpt lat="45.8604774" lon="11.5859367"><ele>1125.8333333333333</ele><time>2026-05-01T09:00:18.581Z</time></trkpt><trkpt lat="45.8605571" lon="11.5859703"><ele>1126.0</ele><time>2026-05-01T09:00:19.569Z</time></trkpt><trkpt lat="45.8606456" lon="11.5859612"><ele>1126.0</ele><time>2026-05-01T09:00:20.581Z</time></trkpt><trkpt lat="45.860734" lon="11.5859217"><ele>1126.0</ele><time>2026-05-01T09:00:21.586Z</time></trkpt><trkpt lat="45.8608252" lon="11.5858746"><ele>1126.0</ele><time>2026-05-01T09:00:22.58Z</time></trkpt><trkpt lat="45.8609103" lon="11.5858296"><ele>1126.0</ele><time>2026-05-01T09:00:23.579Z</time></trkpt><trkpt lat="45.8609835" lon="11.58578"><ele>1126.0</ele><time>2026-05-01T09:00:24.576Z</time></trkpt><trkpt lat="45.8610509" lon="11.5857154"><ele>1126.0</ele><time>2026-05-01T09:00:25.581Z</time></trkpt><trkpt lat="45.8611065" lon="11.5856363"><ele>1127.0</ele><time>2026-05-01T09:00:26.554Z</time></trkpt><trkpt lat="45.8611507" lon="11.5855344"><ele>1128.0</ele><time>2026-05-01T09:00:27.572Z</time></trkpt><trkpt lat="45.8611946" lon="11.5854221"><ele>1129.0</ele><time>2026-05-01T09:00:28.561Z</time></trkpt><trkpt lat="45.8612475" lon="11.5853116"><ele>1130.0</ele><time>2026-05-01T09:00:29.576Z</time></trkpt><trkpt lat="45.8613117" lon="11.5851954"><ele>1131.0</ele><time>2026-05-01T09:00:30.568Z</time></trkpt><trkpt lat="45.8613812" lon="11.5850741"><ele>1131.2</ele><time>2026-05-01T09:00:31.576Z</time></trkpt><trkpt lat="45.8614484" lon="11.58495"><ele>1131.3999999999999</ele><time>2026-05-01T09:00:32.563Z</time></trkpt><trkpt lat="45.861508" lon="11.5848452"><ele>1131.6</ele><time>2026-05-01T09:00:33.563Z</time></trkpt><trkpt lat="45.8615612" lon="11.5847418"><ele>1131.8</ele><time>2026-05-01T09:00:34.574Z</time></trkpt><trkpt lat="45.8616062" lon="11.5846273"><ele>1132.0</ele><time>2026-05-01T09:00:35.577Z</time></trkpt><trkpt lat="45.8616427" lon="11.5845027"><ele>1132.0</ele><time>2026-05-01T09:00:36.561Z</time></trkpt><trkpt lat="45.8616738" lon="11.5843787"><ele>1132.0</ele><time>2026-05-01T09:00:37.578Z</time></trkpt><trkpt lat="45.8617033" lon="11.5842611"><ele>1132.0</ele><time>2026-05-01T09:00:38.573Z</time></trkpt><trkpt lat="45.8617294" lon="11.5841446"><ele>1132.0</ele><time>2026-05-01T09:00:39.575Z</time></trkpt><trkpt lat="45.8617515" lon="11.584024"><ele>1132.0</ele><time>2026-05-01T09:00:40.575Z</time></trkpt><trkpt lat="45.8617726" lon="11.5839013"><ele>1132.0</ele><time>2026-05-01T09:00:41.577Z</time></trkpt><trkpt lat="45.8617881" lon="11.5837689"><ele>1134.8</ele><time>2026-05-01T09:00:42.578Z</time></trkpt><trkpt lat="45.8617924" lon="11.5836281"><ele>1137.6</ele><time>2026-05-01T09:00:43.577Z</time></trkpt><trkpt lat="45.86179" lon="11.5834949"><ele>1140.3999999999999</ele><time>2026-05-01T09:00:44.573Z</time></trkpt><trkpt lat="45.8617897" lon="11.5833518"><ele>1143.2</ele><time>2026-05-01T09:00:45.573Z</time></trkpt><trkpt lat="45.8617962" lon="11.58321"><ele>1146.0</ele><time>2026-05-01T09:00:46.577Z</time></trkpt><trkpt lat="45.8618082" lon="11.5830615"><ele>1146.0</ele><time>2026-05-01T09:00:47.578Z</time></trkpt><trkpt lat="45.8618305" lon="11.5829173"><ele>1146.0</ele><time>2026-05-01T09:00:48.574Z</time></trkpt><trkpt lat="45.8618518" lon="11.5827761"><ele>1146.0</ele><time>2026-05-01T09:00:49.58Z</time></trkpt><trkpt lat="45.8618872" lon="11.5826543"><ele>1146.0</ele><time>2026-05-01T09:00:50.574Z</time></trkpt><trkpt lat="45.861923" lon="11.5825357"><ele>1146.0</ele><time>2026-05-01T09:00:51.573Z</time></trkpt><trkpt lat="45.8619619" lon="11.5824253"><ele>1145.8333333333333</ele><time>2026-05-01T09:00:52.577Z</time></trkpt><trkpt lat="45.8619881" lon="11.5823355"><ele>1145.6666666666667</ele><time>2026-05-01T09:00:53.571Z</time></trkpt><trkpt lat="45.8620041" lon="11.5821763"><ele>1145.5</ele><time>2026-05-01T09:00:55.583Z</time></trkpt><trkpt lat="45.8619769" lon="11.5820848"><ele>1145.3333333333335</ele><time>2026-05-01T09:00:56.582Z</time></trkpt><trkpt lat="45.8619461" lon="11.5819881"><ele>1145.1666666666667</ele><time>2026-05-01T09:00:57.598Z</time></trkpt><trkpt lat="45.8619286" lon="11.5818943"><ele>1145.0</ele><time>2026-05-01T09:00:58.586Z</time></trkpt><trkpt lat="45.8619265" lon="11.5817976"><ele>1144.8333333333335</ele><time>2026-05-01T09:00:59.58Z</time></trkpt><trkpt lat="45.8619355" lon="11.5817016"><ele>1144.6666666666667</ele><time>2026-05-01T09:01:00.58Z</time></trkpt><trkpt lat="45.8619459" lon="11.5815385"><ele>1144.5</ele><time>2026-05-01T09:01:02.561Z</time></trkpt><trkpt lat="45.8618706" lon="11.5814406"><ele>1144.3333333333333</ele><time>2026-05-01T09:01:04.56Z</time></trkpt><trkpt lat="45.8618061" lon="11.5814176"><ele>1144.1666666666665</ele><time>2026-05-01T09:01:05.558Z</time></trkpt><trkpt lat="45.8617271" lon="11.5813896"><ele>1144.0</ele><time>2026-05-01T09:01:06.556Z</time></trkpt><trkpt lat="45.8616465" lon="11.5813447"><ele>1144.0</ele><time>2026-05-01T09:01:07.559Z</time></trkpt><trkpt lat="45.8615625" lon="11.5812832"><ele>1144.0</ele><time>2026-05-01T09:01:08.58Z</time></trkpt><trkpt lat="45.861477" lon="11.5812123"><ele>1144.0</ele><time>2026-05-01T09:01:09.574Z</time></trkpt><trkpt lat="45.8613977" lon="11.5811297"><ele>1144.0</ele><time>2026-05-01T09:01:10.561Z</time></trkpt><trkpt lat="45.8613196" lon="11.5810376"><ele>1144.0</ele><time>2026-05-01T09:01:11.566Z</time></trkpt><trkpt lat="45.8612389" lon="11.580943"><ele>1145.0</ele><time>2026-05-01T09:01:12.565Z</time></trkpt><trkpt lat="45.8611672" lon="11.5808453"><ele>1146.0</ele><time>2026-05-01T09:01:13.557Z</time></trkpt><trkpt lat="45.8610933" lon="11.5807464"><ele>1147.0</ele><time>2026-05-01T09:01:14.558Z</time></trkpt><trkpt lat="45.8610232" lon="11.5806669"><ele>1148.0</ele><time>2026-05-01T09:01:15.563Z</time></trkpt><trkpt lat="45.860952" lon="11.5806016"><ele>1149.0</ele><time>2026-05-01T09:01:16.558Z</time></trkpt><trkpt lat="45.860877" lon="11.5805484"><ele>1150.8333333333333</ele><time>2026-05-01T09:01:17.559Z</time></trkpt><trkpt lat="45.8608163" lon="11.5805009"><ele>1152.6666666666667</ele><time>2026-05-01T09:01:18.559Z</time></trkpt><trkpt lat="45.8607596" lon="11.5804554"><ele>1154.5</ele><time>2026-05-01T09:01:19.556Z</time></trkpt><trkpt lat="45.8607554" lon="11.5803125"><ele>1156.3333333333335</ele><time>2026-05-01T09:01:21.575Z</time></trkpt><trkpt lat="45.860832" lon="11.5802243"><ele>1158.1666666666667</ele><time>2026-05-01T09:01:23.563Z</time></trkpt><trkpt lat="45.8609102" lon="11.5802261"><ele>1160.0</ele><time>2026-05-01T09:01:24.573Z</time></trkpt><trkpt lat="45.860993" lon="11.5802295"><ele>1160.0</ele><time>2026-05-01T09:01:25.589Z</time></trkpt><trkpt lat="45.8610815" lon="11.5802384"><ele>1160.0</ele><time>2026-05-01T09:01:26.57Z</time></trkpt><trkpt lat="45.8611675" lon="11.5802473"><ele>1160.0</ele><time>2026-05-01T09:01:27.57Z</time></trkpt><trkpt lat="45.8612526" lon="11.5802444"><ele>1160.0</ele><time>2026-05-01T09:01:28.566Z</time></trkpt><trkpt lat="45.8613286" lon="11.5802196"><ele>1160.0</ele><time>2026-05-01T09:01:29.564Z</time></trkpt><trkpt lat="45.8613962" lon="11.5801712"><ele>1160.0</ele><time>2026-05-01T09:01:30.564Z</time></trkpt><trkpt lat="45.8614565" lon="11.5800924"><ele>1160.0</ele><time>2026-05-01T09:01:31.552Z</time></trkpt><trkpt lat="45.861508" lon="11.5800074"><ele>1160.0</ele><time>2026-05-01T09:01:32.57Z</time></trkpt><trkpt lat="45.8615568" lon="11.5799259"><ele>1160.0</ele><time>2026-05-01T09:01:33.57Z</time></trkpt><trkpt lat="45.8615712" lon="11.5798352"><ele>1160.0</ele><time>2026-05-01T09:01:34.586Z</time></trkpt><trkpt lat="45.8615494" lon="11.5796481"><ele>1160.0</ele><time>2026-05-01T09:01:36.571Z</time></trkpt><trkpt lat="45.861541" lon="11.5795444"><ele>1160.0</ele><time>2026-05-01T09:01:37.571Z</time></trkpt><trkpt lat="45.8615519" lon="11.5794534"><ele>1159.1666666666667</ele><time>2026-05-01T09:01:38.552Z</time></trkpt><trkpt lat="45.8616184" lon="11.5793478"><ele>1158.3333333333335</ele><time>2026-05-01T09:01:40.556Z</time></trkpt><trkpt lat="45.8616918" lon="11.5793341"><ele>1157.5</ele><time>2026-05-01T09:01:41.57Z</time></trkpt><trkpt lat="45.8617697" lon="11.5793241"><ele>1156.6666666666667</ele><time>2026-05-01T09:01:42.571Z</time></trkpt><trkpt lat="45.8618525" lon="11.5793061"><ele>1155.8333333333333</ele><time>2026-05-01T09:01:43.568Z</time></trkpt><trkpt lat="45.8619305" lon="11.5792793"><ele>1155.0</ele><time>2026-05-01T09:01:44.566Z</time></trkpt><trkpt lat="45.8620046" lon="11.5792341"><ele>1155.0</ele><time>2026-05-01T09:01:45.564Z</time></trkpt><trkpt lat="45.8620751" lon="11.57917"><ele>1155.0</ele><time>2026-05-01T09:01:46.573Z</time></trkpt><trkpt lat="45.8621403" lon="11.579087"><ele>1155.0</ele><time>2026-05-01T09:01:47.57Z</time></trkpt><trkpt lat="45.8621981" lon="11.5789899"><ele>1155.0</ele><time>2026-05-01T09:01:48.564Z</time></trkpt><trkpt lat="45.8622542" lon="11.5788952"><ele>1155.0</ele><time>2026-05-01T09:01:49.573Z</time></trkpt><trkpt lat="45.8622921" lon="11.5788029"><ele>1155.0</ele><time>2026-05-01T09:01:50.574Z</time></trkpt><trkpt lat="45.8623299" lon="11.5787117"><ele>1156.5</ele><time>2026-05-01T09:01:51.566Z</time></trkpt><trkpt lat="45.8623654" lon="11.5786251"><ele>1158.0</ele><time>2026-05-01T09:01:52.585Z</time></trkpt><trkpt lat="45.8624247" lon="11.5785792"><ele>1159.5</ele><time>2026-05-01T09:01:53.572Z</time></trkpt><trkpt lat="45.8624865" lon="11.5785367"><ele>1161.0</ele><time>2026-05-01T09:01:54.56Z</time></trkpt><trkpt lat="45.8625714" lon="11.5785159"><ele>1162.5</ele><time>2026-05-01T09:01:55.587Z</time></trkpt><trkpt lat="45.862653" lon="11.5784914"><ele>1164.0</ele><time>2026-05-01T09:01:56.566Z</time></trkpt><trkpt lat="45.8627386" lon="11.5784665"><ele>1165.0</ele><time>2026-05-01T09:01:57.58Z</time></trkpt><trkpt lat="45.8628242" lon="11.578446"><ele>1166.0</ele><time>2026-05-01T09:01:58.556Z</time></trkpt><trkpt lat="45.8629057" lon="11.5784241"><ele>1167.0</ele><time>2026-05-01T09:01:59.556Z</time></trkpt><trkpt lat="45.862987" lon="11.5783966"><ele>1168.0</ele><time>2026-05-01T09:02:00.568Z</time></trkpt><trkpt lat="45.863059" lon="11.5783673"><ele>1169.0</ele><time>2026-05-01T09:02:01.577Z</time></trkpt><trkpt lat="45.8631242" lon="11.5783471"><ele>1170.0</ele><time>2026-05-01T09:02:02.561Z</time></trkpt><trkpt lat="45.8632301" lon="11.5783555"><ele>1170.0</ele><time>2026-05-01T09:02:04.578Z</time></trkpt><trkpt lat="45.8633006" lon="11.5784433"><ele>1170.0</ele><time>2026-05-01T09:02:06.567Z</time></trkpt><trkpt lat="45.8633025" lon="11.5786084"><ele>1170.0</ele><time>2026-05-01T09:02:08.582Z</time></trkpt><trkpt lat="45.8632751" lon="11.578709"><ele>1170.0</ele><time>2026-05-01T09:02:09.559Z</time></trkpt><trkpt lat="45.863233" lon="11.5788079"><ele>1170.0</ele><time>2026-05-01T09:02:10.586Z</time></trkpt><trkpt lat="45.8631912" lon="11.5789052"><ele>1170.0</ele><time>2026-05-01T09:02:11.572Z</time></trkpt><trkpt lat="45.8631611" lon="11.579005"><ele>1169.0</ele><time>2026-05-01T09:02:12.562Z</time></trkpt><trkpt lat="45.8631475" lon="11.5791149"><ele>1168.0</ele><time>2026-05-01T09:02:13.573Z</time></trkpt><trkpt lat="45.8631479" lon="11.5792478"><ele>1167.0</ele><time>2026-05-01T09:02:14.561Z</time></trkpt><trkpt lat="45.8631642" lon="11.57939"><ele>1166.0</ele><time>2026-05-01T09:02:15.569Z</time></trkpt><trkpt lat="45.8631935" lon="11.5795526"><ele>1165.0</ele><time>2026-05-01T09:02:16.559Z</time></trkpt><trkpt lat="45.8632206" lon="11.5797049"><ele>1165.0</ele><time>2026-05-01T09:02:17.55Z</time></trkpt><trkpt lat="45.8632429" lon="11.5798282"><ele>1165.0</ele><time>2026-05-01T09:02:18.57Z</time></trkpt><trkpt lat="45.8632439" lon="11.5799553"><ele>1165.0</ele><time>2026-05-01T09:02:19.567Z</time></trkpt><trkpt lat="45.8632216" lon="11.5800995"><ele>1165.0</ele><time>2026-05-01T09:02:20.562Z</time></trkpt><trkpt lat="45.86319" lon="11.58025"><ele>1165.0</ele><time>2026-05-01T09:02:21.564Z</time></trkpt><trkpt lat="45.8631525" lon="11.5804038"><ele>1165.0</ele><time>2026-05-01T09:02:22.568Z</time></trkpt><trkpt lat="45.8631184" lon="11.5805677"><ele>1165.0</ele><time>2026-05-01T09:02:23.567Z</time></trkpt><trkpt lat="45.8630896" lon="11.5807276"><ele>1165.0</ele><time>2026-05-01T09:02:24.562Z</time></trkpt><trkpt lat="45.8630703" lon="11.5808678"><ele>1165.0</ele><time>2026-05-01T09:02:25.561Z</time></trkpt><trkpt lat="45.8630569" lon="11.5809886"><ele>1165.0</ele><time>2026-05-01T09:02:26.565Z</time></trkpt><trkpt lat="45.8630378" lon="11.5810926"><ele>1165.0</ele><time>2026-05-01T09:02:27.578Z</time></trkpt><trkpt lat="45.8629982" lon="11.5811754"><ele>1165.0</ele><time>2026-05-01T09:02:28.572Z</time></trkpt><trkpt lat="45.8629313" lon="11.5812406"><ele>1165.0</ele><time>2026-05-01T09:02:29.575Z</time></trkpt><trkpt lat="45.8628557" lon="11.5813049"><ele>1165.0</ele><time>2026-05-01T09:02:30.57Z</time></trkpt><trkpt lat="45.8627933" lon="11.5813882"><ele>1165.0</ele><time>2026-05-01T09:02:31.576Z</time></trkpt><trkpt lat="45.8627526" lon="11.5814872"><ele>1165.0</ele><time>2026-05-01T09:02:32.572Z</time></trkpt><trkpt lat="45.8627266" lon="11.5816139"><ele>1165.6</ele><time>2026-05-01T09:02:33.566Z</time></trkpt><trkpt lat="45.8626939" lon="11.581752"><ele>1166.2</ele><time>2026-05-01T09:02:34.576Z</time></trkpt><trkpt lat="45.8626454" lon="11.5818782"><ele>1166.8</ele><time>2026-05-01T09:02:35.562Z</time></trkpt><trkpt lat="45.8626034" lon="11.5820101"><ele>1167.4</ele><time>2026-05-01T09:02:36.579Z</time></trkpt><trkpt lat="45.8625607" lon="11.5821496"><ele>1168.0</ele><time>2026-05-01T09:02:37.579Z</time></trkpt><trkpt lat="45.8625495" lon="11.5823051"><ele>1163.6</ele><time>2026-05-01T09:02:38.578Z</time></trkpt><trkpt lat="45.8625408" lon="11.5824573"><ele>1159.1999999999998</ele><time>2026-05-01T09:02:39.575Z</time></trkpt><trkpt lat="45.8625475" lon="11.5825939"><ele>1154.8</ele><time>2026-05-01T09:02:40.589Z</time></trkpt><trkpt lat="45.8625491" lon="11.582718"><ele>1150.3999999999999</ele><time>2026-05-01T09:02:41.584Z</time></trkpt><trkpt lat="45.8625255" lon="11.5828284"><ele>1146.0</ele><time>2026-05-01T09:02:42.598Z</time></trkpt><trkpt lat="45.8624804" lon="11.5829371"><ele>1146.0</ele><time>2026-05-01T09:02:43.578Z</time></trkpt><trkpt lat="45.8624501" lon="11.583045"><ele>1146.0</ele><time>2026-05-01T09:02:44.588Z</time></trkpt><trkpt lat="45.8624413" lon="11.5831588"><ele>1146.0</ele><time>2026-05-01T09:02:45.58Z</time></trkpt><trkpt lat="45.8624617" lon="11.5832645"><ele>1146.0</ele><time>2026-05-01T09:02:46.579Z</time></trkpt><trkpt lat="45.8624995" lon="11.5833846"><ele>1146.0</ele><time>2026-05-01T09:02:47.586Z</time></trkpt><trkpt lat="45.8625424" lon="11.5835137"><ele>1146.0</ele><time>2026-05-01T09:02:48.58Z</time></trkpt><trkpt lat="45.8625989" lon="11.5836403"><ele>1145.8333333333333</ele><time>2026-05-01T09:02:49.582Z</time></trkpt><trkpt lat="45.8626413" lon="11.5837575"><ele>1145.6666666666667</ele><time>2026-05-01T09:02:50.588Z</time></trkpt><trkpt lat="45.8626625" lon="11.583871"><ele>1145.5</ele><time>2026-05-01T09:02:51.578Z</time></trkpt><trkpt lat="45.8626554" lon="11.5839889"><ele>1145.3333333333335</ele><time>2026-05-01T09:02:52.577Z</time></trkpt><trkpt lat="45.8626181" lon="11.5840979"><ele>1145.1666666666667</ele><time>2026-05-01T09:02:53.573Z</time></trkpt><trkpt lat="45.8625548" lon="11.5842095"><ele>1145.0</ele><time>2026-05-01T09:02:54.578Z</time></trkpt><trkpt lat="45.8625057" lon="11.5843148"><ele>1145.0</ele><time>2026-05-01T09:02:55.578Z</time></trkpt><trkpt lat="45.8624689" lon="11.5844351"><ele>1145.0</ele><time>2026-05-01T09:02:56.583Z</time></trkpt><trkpt lat="45.8624312" lon="11.5845619"><ele>1145.0</ele><time>2026-05-01T09:02:57.582Z</time></trkpt><trkpt lat="45.8623907" lon="11.5846761"><ele>1145.0</ele><time>2026-05-01T09:02:58.582Z</time></trkpt><trkpt lat="45.8623088" lon="11.584767"><ele>1145.0</ele><time>2026-05-01T09:02:59.577Z</time></trkpt><trkpt lat="45.8622271" lon="11.5848483"><ele>1145.6666666666667</ele><time>2026-05-01T09:03:00.586Z</time></trkpt><trkpt lat="45.8621601" lon="11.584923"><ele>1146.3333333333335</ele><time>2026-05-01T09:03:01.58Z</time></trkpt><trkpt lat="45.8621118" lon="11.5849971"><ele>1147.0</ele><time>2026-05-01T09:03:02.584Z</time></trkpt><trkpt lat="45.8620825" lon="11.5850852"><ele>1147.6666666666667</ele><time>2026-05-01T09:03:03.59Z</time></trkpt><trkpt lat="45.8620505" lon="11.5851843"><ele>1148.3333333333333</ele><time>2026-05-01T09:03:04.585Z</time></trkpt><trkpt lat="45.8620564" lon="11.5853268"><ele>1149.0</ele><time>2026-05-01T09:03:05.588Z</time></trkpt><trkpt lat="45.8620577" lon="11.5854947"><ele>1149.0</ele><time>2026-05-01T09:03:06.582Z</time></trkpt><trkpt lat="45.8620611" lon="11.5856619"><ele>1149.0</ele><time>2026-05-01T09:03:07.584Z</time></trkpt><trkpt lat="45.862055" lon="11.5858231"><ele>1149.0</ele><time>2026-05-01T09:03:08.583Z</time></trkpt><trkpt lat="45.8620383" lon="11.5859763"><ele>1149.0</ele><time>2026-05-01T09:03:09.588Z</time></trkpt><trkpt lat="45.8620083" lon="11.5861295"><ele>1149.0</ele><time>2026-05-01T09:03:10.584Z</time></trkpt><trkpt lat="45.8619831" lon="11.5862695"><ele>1149.0</ele><time>2026-05-01T09:03:11.58Z</time></trkpt><trkpt lat="45.8619685" lon="11.5864044"><ele>1149.0</ele><time>2026-05-01T09:03:12.583Z</time></trkpt><trkpt lat="45.8619723" lon="11.5865259"><ele>1149.0</ele><time>2026-05-01T09:03:13.587Z</time></trkpt><trkpt lat="45.8619781" lon="11.5866384"><ele>1149.0</ele><time>2026-05-01T09:03:14.583Z</time></trkpt><trkpt lat="45.8620282" lon="11.5867295"><ele>1149.0</ele><time>2026-05-01T09:03:15.578Z</time></trkpt><trkpt lat="45.8621082" lon="11.586834"><ele>1149.0</ele><time>2026-05-01T09:03:16.566Z</time></trkpt><trkpt lat="45.8622073" lon="11.5869345"><ele>1149.6000000000001</ele><time>2026-05-01T09:03:17.581Z</time></trkpt><trkpt lat="45.8623054" lon="11.5870331"><ele>1150.2</ele><time>2026-05-01T09:03:18.575Z</time></trkpt><trkpt lat="45.862392" lon="11.5871313"><ele>1150.8000000000002</ele><time>2026-05-01T09:03:19.575Z</time></trkpt><trkpt lat="45.8624706" lon="11.587205"><ele>1151.4</ele><time>2026-05-01T09:03:20.578Z</time></trkpt><trkpt lat="45.8625447" lon="11.5872706"><ele>1152.0</ele><time>2026-05-01T09:03:21.579Z</time></trkpt><trkpt lat="45.8626307" lon="11.5873018"><ele>1152.0</ele><time>2026-05-01T09:03:22.586Z</time></trkpt><trkpt lat="45.8627239" lon="11.5873309"><ele>1152.0</ele><time>2026-05-01T09:03:23.6Z</time></trkpt><trkpt lat="45.8628138" lon="11.5873915"><ele>1152.0</ele><time>2026-05-01T09:03:24.576Z</time></trkpt><trkpt lat="45.8629075" lon="11.5874565"><ele>1152.0</ele><time>2026-05-01T09:03:25.586Z</time></trkpt><trkpt lat="45.8630023" lon="11.5875462"><ele>1152.0</ele><time>2026-05-01T09:03:26.579Z</time></trkpt><trkpt lat="45.8630885" lon="11.5876452"><ele>1152.0</ele><time>2026-05-01T09:03:27.581Z</time></trkpt><trkpt lat="45.8631685" lon="11.5877492"><ele>1152.0</ele><time>2026-05-01T09:03:28.58Z</time></trkpt><trkpt lat="45.8632501" lon="11.587854"><ele>1152.0</ele><time>2026-05-01T09:03:29.582Z</time></trkpt><trkpt lat="45.8633276" lon="11.5879554"><ele>1152.0</ele><time>2026-05-01T09:03:30.575Z</time></trkpt><trkpt lat="45.8634068" lon="11.5880354"><ele>1152.0</ele><time>2026-05-01T09:03:31.574Z</time></trkpt><trkpt lat="45.8634961" lon="11.5881039"><ele>1149.0</ele><time>2026-05-01T09:03:32.553Z</time></trkpt><trkpt lat="45.8636068" lon="11.5881388"><ele>1146.0</ele><time>2026-05-01T09:03:33.58Z</time></trkpt><trkpt lat="45.8637252" lon="11.588156"><ele>1143.0</ele><time>2026-05-01T09:03:34.574Z</time></trkpt><trkpt lat="45.8638461" lon="11.5881758"><ele>1140.0</ele><time>2026-05-01T09:03:35.576Z</time></trkpt><trkpt lat="45.8639626" lon="11.5882087"><ele>1140.0</ele><time>2026-05-01T09:03:36.576Z</time></trkpt><trkpt lat="45.8640783" lon="11.5882394"><ele>1140.0</ele><time>2026-05-01T09:03:37.58Z</time></trkpt><trkpt lat="45.8641806" lon="11.5883048"><ele>1140.0</ele><time>2026-05-01T09:03:38.577Z</time></trkpt><trkpt lat="45.8642756" lon="11.5883829"><ele>1140.0</ele><time>2026-05-01T09:03:39.578Z</time></trkpt><trkpt lat="45.8643692" lon="11.5884636"><ele>1140.0</ele><time>2026-05-01T09:03:40.58Z</time></trkpt><trkpt lat="45.8644533" lon="11.5885416"><ele>1139.5</ele><time>2026-05-01T09:03:41.587Z</time></trkpt><trkpt lat="45.8645333" lon="11.5886141"><ele>1139.0</ele><time>2026-05-01T09:03:42.578Z</time></trkpt><trkpt lat="45.8646078" lon="11.5886745"><ele>1138.5</ele><time>2026-05-01T09:03:43.579Z</time></trkpt><trkpt lat="45.8646811" lon="11.5887162"><ele>1138.0</ele><time>2026-05-01T09:03:44.573Z</time></trkpt><trkpt lat="45.864765" lon="11.5887232"><ele>1137.5</ele><time>2026-05-01T09:03:45.576Z</time></trkpt><trkpt lat="45.8648595" lon="11.5887026"><ele>1137.0</ele><time>2026-05-01T09:03:46.59Z</time></trkpt><trkpt lat="45.8649536" lon="11.5886843"><ele>1137.0</ele><time>2026-05-01T09:03:47.581Z</time></trkpt><trkpt lat="45.8650466" lon="11.5886776"><ele>1137.0</ele><time>2026-05-01T09:03:48.587Z</time></trkpt><trkpt lat="45.8651467" lon="11.5887184"><ele>1137.0</ele><time>2026-05-01T09:03:49.573Z</time></trkpt><trkpt lat="45.8652548" lon="11.5887672"><ele>1137.0</ele><time>2026-05-01T09:03:50.585Z</time></trkpt><trkpt lat="45.8653577" lon="11.5888008"><ele>1137.0</ele><time>2026-05-01T09:03:51.575Z</time></trkpt><trkpt lat="45.8654607" lon="11.5888128"><ele>1137.0</ele><time>2026-05-01T09:03:52.579Z</time></trkpt><trkpt lat="45.8655664" lon="11.5887995"><ele>1137.0</ele><time>2026-05-01T09:03:53.577Z</time></trkpt><trkpt lat="45.8656669" lon="11.5887733"><ele>1137.0</ele><time>2026-05-01T09:03:54.577Z</time></trkpt><trkpt lat="45.8657692" lon="11.5887329"><ele>1137.0</ele><time>2026-05-01T09:03:55.577Z</time></trkpt><trkpt lat="45.8658722" lon="11.5886894"><ele>1137.0</ele><time>2026-05-01T09:03:56.577Z</time></trkpt><trkpt lat="45.8659637" lon="11.5886093"><ele>1139.2</ele><time>2026-05-01T09:03:57.589Z</time></trkpt><trkpt lat="45.8660466" lon="11.5885197"><ele>1141.4</ele><time>2026-05-01T09:03:58.579Z</time></trkpt><trkpt lat="45.8661235" lon="11.5884327"><ele>1143.6</ele><time>2026-05-01T09:03:59.574Z</time></trkpt><trkpt lat="45.8661971" lon="11.5883526"><ele>1145.8</ele><time>2026-05-01T09:04:00.576Z</time></trkpt><trkpt lat="45.8662977" lon="11.5883225"><ele>1148.0</ele><time>2026-05-01T09:04:01.572Z</time></trkpt><trkpt lat="45.8664042" lon="11.5883131"><ele>1148.0</ele><time>2026-05-01T09:04:02.578Z</time></trkpt><trkpt lat="45.8665177" lon="11.5883172"><ele>1148.0</ele><time>2026-05-01T09:04:03.586Z</time></trkpt><trkpt lat="45.8666356" lon="11.5883206"><ele>1148.0</ele><time>2026-05-01T09:04:04.58Z</time></trkpt><trkpt lat="45.8667532" lon="11.5883292"><ele>1148.0</ele><time>2026-05-01T09:04:05.575Z</time></trkpt><trkpt lat="45.8668714" lon="11.5883707"><ele>1152.5</ele><time>2026-05-01T09:04:06.589Z</time></trkpt><trkpt lat="45.8669893" lon="11.5884188"><ele>1157.0</ele><time>2026-05-01T09:04:07.575Z</time></trkpt><trkpt lat="45.8671049" lon="11.5884693"><ele>1161.5</ele><time>2026-05-01T09:04:08.573Z</time></trkpt><trkpt lat="45.8672191" lon="11.5885172"><ele>1166.0</ele><time>2026-05-01T09:04:09.576Z</time></trkpt><trkpt lat="45.8673366" lon="11.5885542"><ele>1166.0</ele><time>2026-05-01T09:04:10.577Z</time></trkpt><trkpt lat="45.867454" lon="11.5885856"><ele>1166.0</ele><time>2026-05-01T09:04:11.582Z</time></trkpt><trkpt lat="45.8675763" lon="11.5886148"><ele>1166.0</ele><time>2026-05-01T09:04:12.575Z</time></trkpt><trkpt lat="45.8676943" lon="11.5886604"><ele>1166.0</ele><time>2026-05-01T09:04:13.573Z</time></trkpt><trkpt lat="45.8678032" lon="11.588707"><ele>1164.0</ele><time>2026-05-01T09:04:14.582Z</time></trkpt><trkpt lat="45.8679088" lon="11.5887662"><ele>1162.0</ele><time>2026-05-01T09:04:15.574Z</time></trkpt><trkpt lat="45.8680036" lon="11.5888272"><ele>1160.0</ele><time>2026-05-01T09:04:16.578Z</time></trkpt><trkpt lat="45.8680921" lon="11.5888845"><ele>1158.0</ele><time>2026-05-01T09:04:17.573Z</time></trkpt><trkpt lat="45.8681652" lon="11.5889593"><ele>1156.0</ele><time>2026-05-01T09:04:18.575Z</time></trkpt><trkpt lat="45.8682399" lon="11.5890718"><ele>1156.0</ele><time>2026-05-01T09:04:19.575Z</time></trkpt><trkpt lat="45.8683068" lon="11.5892123"><ele>1156.0</ele><time>2026-05-01T09:04:20.572Z</time></trkpt><trkpt lat="45.8683702" lon="11.5893513"><ele>1156.0</ele><time>2026-05-01T09:04:21.578Z</time></trkpt><trkpt lat="45.8684276" lon="11.5894973"><ele>1156.0</ele><time>2026-05-01T09:04:22.579Z</time></trkpt><trkpt lat="45.8684777" lon="11.5896237"><ele>1156.2</ele><time>2026-05-01T09:04:23.578Z</time></trkpt><trkpt lat="45.8685247" lon="11.5897541"><ele>1156.3999999999999</ele><time>2026-05-01T09:04:24.579Z</time></trkpt><trkpt lat="45.8685853" lon="11.5898929"><ele>1156.6</ele><time>2026-05-01T09:04:25.579Z</time></trkpt><trkpt lat="45.8686441" lon="11.5900274"><ele>1156.8</ele><time>2026-05-01T09:04:26.584Z</time></trkpt><trkpt lat="45.8687258" lon="11.5901587"><ele>1157.0</ele><time>2026-05-01T09:04:27.575Z</time></trkpt><trkpt lat="45.8688067" lon="11.5902883"><ele>1155.6</ele><time>2026-05-01T09:04:28.585Z</time></trkpt><trkpt lat="45.8688838" lon="11.5904029"><ele>1154.2</ele><time>2026-05-01T09:04:29.581Z</time></trkpt><trkpt lat="45.8689585" lon="11.5905127"><ele>1152.8</ele><time>2026-05-01T09:04:30.576Z</time></trkpt><trkpt lat="45.8690453" lon="11.5905891"><ele>1151.4</ele><time>2026-05-01T09:04:31.577Z</time></trkpt><trkpt lat="45.8691467" lon="11.5906454"><ele>1150.0</ele><time>2026-05-01T09:04:32.577Z</time></trkpt><trkpt lat="45.8692701" lon="11.5906895"><ele>1149.75</ele><time>2026-05-01T09:04:33.577Z</time></trkpt><trkpt lat="45.8693989" lon="11.590717"><ele>1149.5</ele><time>2026-05-01T09:04:34.565Z</time></trkpt><trkpt lat="45.8695262" lon="11.5907306"><ele>1149.25</ele><time>2026-05-01T09:04:35.582Z</time></trkpt><trkpt lat="45.8696469" lon="11.5907427"><ele>1149.0</ele><time>2026-05-01T09:04:36.576Z</time></trkpt><trkpt lat="45.86976" lon="11.5907383"><ele>1149.0</ele><time>2026-05-01T09:04:37.573Z</time></trkpt><trkpt lat="45.8698663" lon="11.590731"><ele>1149.0</ele><time>2026-05-01T09:04:38.585Z</time></trkpt><trkpt lat="45.8699646" lon="11.5907016"><ele>1149.0</ele><time>2026-05-01T09:04:39.576Z</time></trkpt><trkpt lat="45.8700592" lon="11.5906451"><ele>1149.0</ele><time>2026-05-01T09:04:40.579Z</time></trkpt><trkpt lat="45.8701549" lon="11.5905883"><ele>1149.0</ele><time>2026-05-01T09:04:41.583Z</time></trkpt><trkpt lat="45.870252" lon="11.5905478"><ele>1149.0</ele><time>2026-05-01T09:04:42.582Z</time></trkpt><trkpt lat="45.8703524" lon="11.5905235"><ele>1149.0</ele><time>2026-05-01T09:04:43.566Z</time></trkpt><trkpt lat="45.8704478" lon="11.5905111"><ele>1149.0</ele><time>2026-05-01T09:04:44.584Z</time></trkpt><trkpt lat="45.8705332" lon="11.5904987"><ele>1149.0</ele><time>2026-05-01T09:04:45.593Z</time></trkpt><trkpt lat="45.8706087" lon="11.5905052"><ele>1149.0</ele><time>2026-05-01T09:04:46.601Z</time></trkpt><trkpt lat="45.8707261" lon="11.590563"><ele>1149.0</ele><time>2026-05-01T09:04:48.579Z</time></trkpt><trkpt lat="45.870827" lon="11.5906646"><ele>1149.0</ele><time>2026-05-01T09:04:50.587Z</time></trkpt><trkpt lat="45.8708759" lon="11.5907243"><ele>1149.0</ele><time>2026-05-01T09:04:51.58Z</time></trkpt><trkpt lat="45.8709247" lon="11.5907889"><ele>1149.0</ele><time>2026-05-01T09:04:52.592Z</time></trkpt><trkpt lat="45.8709705" lon="11.5908569"><ele>1149.0</ele><time>2026-05-01T09:04:53.587Z</time></trkpt><trkpt lat="45.8710147" lon="11.5909298"><ele>1149.0</ele><time>2026-05-01T09:04:54.586Z</time></trkpt><trkpt lat="45.8710671" lon="11.5910071"><ele>1150.8</ele><time>2026-05-01T09:04:55.582Z</time></trkpt><trkpt lat="45.8711328" lon="11.5910933"><ele>1152.6000000000001</ele><time>2026-05-01T09:04:56.588Z</time></trkpt><trkpt lat="45.8712043" lon="11.5911871"><ele>1154.4</ele><time>2026-05-01T09:04:57.584Z</time></trkpt><trkpt lat="45.8712781" lon="11.5912831"><ele>1156.2</ele><time>2026-05-01T09:04:58.592Z</time></trkpt><trkpt lat="45.8713534" lon="11.5913789"><ele>1158.0</ele><time>2026-05-01T09:04:59.579Z</time></trkpt><trkpt lat="45.8714291" lon="11.5914729"><ele>1158.0</ele><time>2026-05-01T09:05:00.583Z</time></trkpt><trkpt lat="45.8715043" lon="11.5915616"><ele>1158.0</ele><time>2026-05-01T09:05:01.575Z</time></trkpt><trkpt lat="45.87158" lon="11.5916504"><ele>1158.0</ele><time>2026-05-01T09:05:02.584Z</time></trkpt><trkpt lat="45.8716541" lon="11.5917379"><ele>1158.0</ele><time>2026-05-01T09:05:03.574Z</time></trkpt><trkpt lat="45.8717222" lon="11.5918239"><ele>1158.0</ele><time>2026-05-01T09:05:04.576Z</time></trkpt><trkpt lat="45.871781" lon="11.5919184"><ele>1158.8333333333333</ele><time>2026-05-01T09:05:05.574Z</time></trkpt><trkpt lat="45.8718332" lon="11.5920235"><ele>1159.6666666666667</ele><time>2026-05-01T09:05:06.582Z</time></trkpt><trkpt lat="45.871885" lon="11.5921298"><ele>1160.5</ele><time>2026-05-01T09:05:07.575Z</time></trkpt><trkpt lat="45.8719259" lon="11.5922253"><ele>1161.3333333333335</ele><time>2026-05-01T09:05:08.589Z</time></trkpt><trkpt lat="45.8719739" lon="11.5923143"><ele>1162.1666666666667</ele><time>2026-05-01T09:05:09.585Z</time></trkpt><trkpt lat="45.8720326" lon="11.5923944"><ele>1163.0</ele><time>2026-05-01T09:05:10.583Z</time></trkpt><trkpt lat="45.8720858" lon="11.5924686"><ele>1163.0</ele><time>2026-05-01T09:05:11.577Z</time></trkpt><trkpt lat="45.8721438" lon="11.5925251"><ele>1163.0</ele><time>2026-05-01T09:05:12.574Z</time></trkpt><trkpt lat="45.8722118" lon="11.5925699"><ele>1163.0</ele><time>2026-05-01T09:05:13.575Z</time></trkpt><trkpt lat="45.8722853" lon="11.5926179"><ele>1163.0</ele><time>2026-05-01T09:05:14.577Z</time></trkpt><trkpt lat="45.8723727" lon="11.5926436"><ele>1163.0</ele><time>2026-05-01T09:05:15.573Z</time></trkpt><trkpt lat="45.8724585" lon="11.5926504"><ele>1163.0</ele><time>2026-05-01T09:05:16.581Z</time></trkpt><trkpt lat="45.8725392" lon="11.5926359"><ele>1163.0</ele><time>2026-05-01T09:05:17.579Z</time></trkpt><trkpt lat="45.8726199" lon="11.5926016"><ele>1163.0</ele><time>2026-05-01T09:05:18.574Z</time></trkpt><trkpt lat="45.8727113" lon="11.5925585"><ele>1163.0</ele><time>2026-05-01T09:05:19.572Z</time></trkpt><trkpt lat="45.8728059" lon="11.592474"><ele>1163.0</ele><time>2026-05-01T09:05:20.579Z</time></trkpt><trkpt lat="45.8729037" lon="11.5924008"><ele>1163.0</ele><time>2026-05-01T09:05:21.577Z</time></trkpt><trkpt lat="45.8730023" lon="11.5923634"><ele>1163.0</ele><time>2026-05-01T09:05:22.584Z</time></trkpt><trkpt lat="45.873103" lon="11.5923558"><ele>1163.0</ele><time>2026-05-01T09:05:23.574Z</time></trkpt><trkpt lat="45.8732082" lon="11.5923621"><ele>1163.0</ele><time>2026-05-01T09:05:24.576Z</time></trkpt><trkpt lat="45.8733169" lon="11.5923772"><ele>1163.0</ele><time>2026-05-01T09:05:25.576Z</time></trkpt><trkpt lat="45.8734246" lon="11.5924012"><ele>1163.0</ele><time>2026-05-01T09:05:26.586Z</time></trkpt><trkpt lat="45.8735254" lon="11.5924267"><ele>1164.4285714285716</ele><time>2026-05-01T09:05:27.576Z</time></trkpt><trkpt lat="45.8736139" lon="11.5924497"><ele>1165.857142857143</ele><time>2026-05-01T09:05:28.587Z</time></trkpt><trkpt lat="45.8736748" lon="11.5924941"><ele>1167.2857142857142</ele><time>2026-05-01T09:05:29.604Z</time></trkpt><trkpt lat="45.8737212" lon="11.592561"><ele>1168.7142857142858</ele><time>2026-05-01T09:05:30.582Z</time></trkpt><trkpt lat="45.8737486" lon="11.5926504"><ele>1170.142857142857</ele><time>2026-05-01T09:05:31.574Z</time></trkpt><trkpt lat="45.8737619" lon="11.5927528"><ele>1171.5714285714287</ele><time>2026-05-01T09:05:32.575Z</time></trkpt><trkpt lat="45.8737843" lon="11.5928539"><ele>1173.0</ele><time>2026-05-01T09:05:33.581Z</time></trkpt><trkpt lat="45.8738252" lon="11.5929462"><ele>1173.0</ele><time>2026-05-01T09:05:34.576Z</time></trkpt><trkpt lat="45.8738828" lon="11.593032"><ele>1173.0</ele><time>2026-05-01T09:05:35.574Z</time></trkpt><trkpt lat="45.8739559" lon="11.5930997"><ele>1173.0</ele><time>2026-05-01T09:05:36.58Z</time></trkpt><trkpt lat="45.8740355" lon="11.5931397"><ele>1173.0</ele><time>2026-05-01T09:05:37.576Z</time></trkpt><trkpt lat="45.8741228" lon="11.593152"><ele>1173.0</ele><time>2026-05-01T09:05:38.581Z</time></trkpt><trkpt lat="45.8742192" lon="11.5931414"><ele>1173.0</ele><time>2026-05-01T09:05:39.58Z</time></trkpt><trkpt lat="45.874316" lon="11.5931294"><ele>1173.2</ele><time>2026-05-01T09:05:40.581Z</time></trkpt><trkpt lat="45.8744117" lon="11.5931316"><ele>1173.4</ele><time>2026-05-01T09:05:41.58Z</time></trkpt><trkpt lat="45.8745027" lon="11.5931561"><ele>1173.6000000000001</ele><time>2026-05-01T09:05:42.582Z</time></trkpt><trkpt lat="45.8745933" lon="11.5931802"><ele>1173.8</ele><time>2026-05-01T09:05:43.577Z</time></trkpt><trkpt lat="45.8746855" lon="11.5932105"><ele>1174.0</ele><time>2026-05-01T09:05:44.577Z</time></trkpt><trkpt lat="45.8747785" lon="11.5932557"><ele>1174.0</ele><time>2026-05-01T09:05:45.581Z</time></trkpt><trkpt lat="45.8748705" lon="11.5933081"><ele>1174.0</ele><time>2026-05-01T09:05:46.567Z</time></trkpt><trkpt lat="45.8749629" lon="11.5933631"><ele>1174.0</ele><time>2026-05-01T09:05:47.569Z</time></trkpt><trkpt lat="45.8750543" lon="11.5934143"><ele>1174.0</ele><time>2026-05-01T09:05:48.574Z</time></trkpt><trkpt lat="45.8751516" lon="11.5934386"><ele>1174.0</ele><time>2026-05-01T09:05:49.578Z</time></trkpt><trkpt lat="45.8752507" lon="11.5934435"><ele>1175.1666666666665</ele><time>2026-05-01T09:05:50.575Z</time></trkpt><trkpt lat="45.8753353" lon="11.5934388"><ele>1176.3333333333333</ele><time>2026-05-01T09:05:51.584Z</time></trkpt><trkpt lat="45.8754004" lon="11.5934221"><ele>1177.5</ele><time>2026-05-01T09:05:52.582Z</time></trkpt><trkpt lat="45.8754851" lon="11.5933113"><ele>1178.6666666666667</ele><time>2026-05-01T09:05:54.58Z</time></trkpt><trkpt lat="45.8755087" lon="11.5932139"><ele>1179.8333333333335</ele><time>2026-05-01T09:05:55.574Z</time></trkpt><trkpt lat="45.8755203" lon="11.5930916"><ele>1181.0</ele><time>2026-05-01T09:05:56.578Z</time></trkpt><trkpt lat="45.8755312" lon="11.592966"><ele>1181.0</ele><time>2026-05-01T09:05:57.566Z</time></trkpt><trkpt lat="45.8755509" lon="11.592856"><ele>1181.0</ele><time>2026-05-01T09:05:58.583Z</time></trkpt><trkpt lat="45.8755937" lon="11.5927622"><ele>1181.0</ele><time>2026-05-01T09:05:59.577Z</time></trkpt><trkpt lat="45.8756482" lon="11.5926956"><ele>1181.0</ele><time>2026-05-01T09:06:00.591Z</time></trkpt><trkpt lat="45.8757062" lon="11.5926472"><ele>1181.0</ele><time>2026-05-01T09:06:01.576Z</time></trkpt><trkpt lat="45.8757678" lon="11.5926142"><ele>1181.0</ele><time>2026-05-01T09:06:02.582Z</time></trkpt><trkpt lat="45.8758302" lon="11.5925834"><ele>1181.0</ele><time>2026-05-01T09:06:03.576Z</time></trkpt><trkpt lat="45.8759001" lon="11.5925871"><ele>1180.5</ele><time>2026-05-01T09:06:04.571Z</time></trkpt><trkpt lat="45.8759675" lon="11.5925784"><ele>1180.0</ele><time>2026-05-01T09:06:05.581Z</time></trkpt><trkpt lat="45.8760375" lon="11.5925401"><ele>1179.5</ele><time>2026-05-01T09:06:06.585Z</time></trkpt><trkpt lat="45.8761071" lon="11.5924727"><ele>1179.0</ele><time>2026-05-01T09:06:07.577Z</time></trkpt><trkpt lat="45.8761744" lon="11.59239"><ele>1178.5</ele><time>2026-05-01T09:06:08.574Z</time></trkpt><trkpt lat="45.8762311" lon="11.5922944"><ele>1178.0</ele><time>2026-05-01T09:06:09.577Z</time></trkpt><trkpt lat="45.8762802" lon="11.592193"><ele>1178.0</ele><time>2026-05-01T09:06:10.574Z</time></trkpt><trkpt lat="45.8763267" lon="11.5920926"><ele>1178.0</ele><time>2026-05-01T09:06:11.575Z</time></trkpt><trkpt lat="45.876368" lon="11.5919904"><ele>1178.0</ele><time>2026-05-01T09:06:12.574Z</time></trkpt><trkpt lat="45.8763951" lon="11.5918806"><ele>1178.0</ele><time>2026-05-01T09:06:13.581Z</time></trkpt><trkpt lat="45.876417" lon="11.5917616"><ele>1178.0</ele><time>2026-05-01T09:06:14.587Z</time></trkpt><trkpt lat="45.8764346" lon="11.5916172"><ele>1178.0</ele><time>2026-05-01T09:06:15.577Z</time></trkpt><trkpt lat="45.8764484" lon="11.5914634"><ele>1178.2</ele><time>2026-05-01T09:06:16.574Z</time></trkpt><trkpt lat="45.87646" lon="11.5913111"><ele>1178.4</ele><time>2026-05-01T09:06:17.574Z</time></trkpt><trkpt lat="45.8764666" lon="11.5911542"><ele>1178.6000000000001</ele><time>2026-05-01T09:06:18.581Z</time></trkpt><trkpt lat="45.8764664" lon="11.5909907"><ele>1178.8</ele><time>2026-05-01T09:06:19.575Z</time></trkpt><trkpt lat="45.8764696" lon="11.5908315"><ele>1179.0</ele><time>2026-05-01T09:06:20.592Z</time></trkpt><trkpt lat="45.8764628" lon="11.5906851"><ele>1178.6000000000001</ele><time>2026-05-01T09:06:21.581Z</time></trkpt><trkpt lat="45.8764206" lon="11.5905348"><ele>1178.2</ele><time>2026-05-01T09:06:22.586Z</time></trkpt><trkpt lat="45.8763738" lon="11.5903985"><ele>1177.8000000000002</ele><time>2026-05-01T09:06:23.58Z</time></trkpt><trkpt lat="45.8763351" lon="11.5902593"><ele>1177.4</ele><time>2026-05-01T09:06:24.582Z</time></trkpt><trkpt lat="45.8763038" lon="11.5901279"><ele>1177.0</ele><time>2026-05-01T09:06:25.58Z</time></trkpt><trkpt lat="45.8762786" lon="11.5900094"><ele>1176.3333333333333</ele><time>2026-05-01T09:06:26.577Z</time></trkpt><trkpt lat="45.8762556" lon="11.5899021"><ele>1175.6666666666665</ele><time>2026-05-01T09:06:27.574Z</time></trkpt><trkpt lat="45.8762484" lon="11.5898016"><ele>1175.0</ele><time>2026-05-01T09:06:28.576Z</time></trkpt><trkpt lat="45.8762374" lon="11.5896472"><ele>1174.3333333333333</ele><time>2026-05-01T09:06:30.571Z</time></trkpt><trkpt lat="45.8762082" lon="11.5895263"><ele>1173.6666666666667</ele><time>2026-05-01T09:06:32.596Z</time></trkpt><trkpt lat="45.8761841" lon="11.5894204"><ele>1173.0</ele><time>2026-05-01T09:06:34.57Z</time></trkpt><trkpt lat="45.8761478" lon="11.5893086"><ele>1167.0</ele><time>2026-05-01T09:07:18.573Z</time></trkpt></trkseg><trkseg><trkpt lat="45.8761286" lon="11.5890958"><ele>1167.0</ele><time>2026-05-01T09:24:07.558Z</time></trkpt><trkpt lat="45.8761285" lon="11.5890048"><ele>1167.0</ele><time>2026-05-01T09:24:08.562Z</time></trkpt><trkpt lat="45.8761178" lon="11.5889078"><ele>1167.0</ele><time>2026-05-01T09:24:09.561Z</time></trkpt><trkpt lat="45.8761163" lon="11.5888156"><ele>1167.0</ele><time>2026-05-01T09:24:10.557Z</time></trkpt><trkpt lat="45.8761103" lon="11.5887112"><ele>1167.0</ele><time>2026-05-01T09:24:11.56Z</time></trkpt><trkpt lat="45.876102" lon="11.5886178"><ele>1167.0</ele><time>2026-05-01T09:24:12.561Z</time></trkpt><trkpt lat="45.8760796" lon="11.5884602"><ele>1167.0</ele><time>2026-05-01T09:24:14.56Z</time></trkpt><trkpt lat="45.8760611" lon="11.5882773"><ele>1167.6666666666667</ele><time>2026-05-01T09:24:16.57Z</time></trkpt><trkpt lat="45.8760644" lon="11.5881755"><ele>1168.3333333333333</ele><time>2026-05-01T09:24:17.561Z</time></trkpt><trkpt lat="45.8760665" lon="11.5880784"><ele>1169.0</ele><time>2026-05-01T09:24:18.564Z</time></trkpt><trkpt lat="45.8760658" lon="11.5879842"><ele>1169.6666666666665</ele><time>2026-05-01T09:24:19.562Z</time></trkpt><trkpt lat="45.8760423" lon="11.5878325"><ele>1170.3333333333333</ele><time>2026-05-01T09:24:21.558Z</time></trkpt><trkpt lat="45.8759898" lon="11.5877021"><ele>1171.0</ele><time>2026-05-01T09:24:23.558Z</time></trkpt><trkpt lat="45.8759069" lon="11.5876284"><ele>1171.0</ele><time>2026-05-01T09:24:25.564Z</time></trkpt><trkpt lat="45.8758308" lon="11.5875772"><ele>1171.0</ele><time>2026-05-01T09:24:27.563Z</time></trkpt><trkpt lat="45.8757748" lon="11.5874631"><ele>1171.0</ele><time>2026-05-01T09:24:29.565Z</time></trkpt><trkpt lat="45.8757762" lon="11.5872872"><ele>1171.0</ele><time>2026-05-01T09:24:31.566Z</time></trkpt><trkpt lat="45.875843" lon="11.5871505"><ele>1171.0</ele><time>2026-05-01T09:24:33.564Z</time></trkpt><trkpt lat="45.8758876" lon="11.5870763"><ele>1163.8</ele><time>2026-05-01T09:24:34.559Z</time></trkpt><trkpt lat="45.8759401" lon="11.5869895"><ele>1156.6</ele><time>2026-05-01T09:24:35.561Z</time></trkpt><trkpt lat="45.8759765" lon="11.5869036"><ele>1149.4</ele><time>2026-05-01T09:24:36.579Z</time></trkpt><trkpt lat="45.876019" lon="11.5867387"><ele>1142.2</ele><time>2026-05-01T09:24:38.558Z</time></trkpt><trkpt lat="45.8760002" lon="11.5865689"><ele>1135.0</ele><time>2026-05-01T09:24:40.562Z</time></trkpt><trkpt lat="45.875982" lon="11.5864713"><ele>1135.0</ele><time>2026-05-01T09:24:41.556Z</time></trkpt><trkpt lat="45.8759425" lon="11.5863623"><ele>1135.0</ele><time>2026-05-01T09:24:42.564Z</time></trkpt><trkpt lat="45.8759063" lon="11.5862541"><ele>1135.0</ele><time>2026-05-01T09:24:43.565Z</time></trkpt><trkpt lat="45.8758764" lon="11.5861561"><ele>1135.0</ele><time>2026-05-01T09:24:44.563Z</time></trkpt><trkpt lat="45.8758548" lon="11.5860647"><ele>1135.0</ele><time>2026-05-01T09:24:45.564Z</time></trkpt><trkpt lat="45.8758428" lon="11.5859688"><ele>1135.0</ele><time>2026-05-01T09:24:46.563Z</time></trkpt><trkpt lat="45.8758318" lon="11.5858597"><ele>1135.4</ele><time>2026-05-01T09:24:47.565Z</time></trkpt><trkpt lat="45.8758147" lon="11.5857661"><ele>1135.8</ele><time>2026-05-01T09:24:48.563Z</time></trkpt><trkpt lat="45.875809" lon="11.5856042"><ele>1136.2</ele><time>2026-05-01T09:24:50.562Z</time></trkpt><trkpt lat="45.8758729" lon="11.585486"><ele>1136.6</ele><time>2026-05-01T09:24:52.564Z</time></trkpt><trkpt lat="45.8760057" lon="11.5854384"><ele>1137.0</ele><time>2026-05-01T09:24:54.562Z</time></trkpt><trkpt lat="45.8760811" lon="11.585416"><ele>1137.0</ele><time>2026-05-01T09:24:55.556Z</time></trkpt><trkpt lat="45.8761571" lon="11.5853854"><ele>1137.0</ele><time>2026-05-01T09:24:56.566Z</time></trkpt><trkpt lat="45.8762245" lon="11.5853546"><ele>1137.0</ele><time>2026-05-01T09:24:57.563Z</time></trkpt><trkpt lat="45.8762796" lon="11.5853066"><ele>1137.0</ele><time>2026-05-01T09:24:58.562Z</time></trkpt><trkpt lat="45.8763486" lon="11.5851539"><ele>1137.0</ele><time>2026-05-01T09:25:00.564Z</time></trkpt><trkpt lat="45.8763622" lon="11.5850296"><ele>1137.0</ele><time>2026-05-01T09:25:01.562Z</time></trkpt><trkpt lat="45.8763734" lon="11.5848935"><ele>1139.2</ele><time>2026-05-01T09:25:02.561Z</time></trkpt><trkpt lat="45.8763949" lon="11.5847516"><ele>1141.4</ele><time>2026-05-01T09:25:03.559Z</time></trkpt><trkpt lat="45.876419" lon="11.5846062"><ele>1143.6</ele><time>2026-05-01T09:25:04.571Z</time></trkpt><trkpt lat="45.8764415" lon="11.584454"><ele>1145.8</ele><time>2026-05-01T09:25:05.565Z</time></trkpt><trkpt lat="45.8764496" lon="11.5842947"><ele>1148.0</ele><time>2026-05-01T09:25:06.576Z</time></trkpt><trkpt lat="45.8764706" lon="11.584147"><ele>1148.3333333333335</ele><time>2026-05-01T09:25:07.564Z</time></trkpt><trkpt lat="45.8764845" lon="11.5840344"><ele>1148.6666666666667</ele><time>2026-05-01T09:25:08.562Z</time></trkpt><trkpt lat="45.876495" lon="11.5839245"><ele>1149.0</ele><time>2026-05-01T09:25:09.559Z</time></trkpt><trkpt lat="45.8764984" lon="11.5838272"><ele>1149.3333333333333</ele><time>2026-05-01T09:25:10.572Z</time></trkpt><trkpt lat="45.8764774" lon="11.5837298"><ele>1149.6666666666665</ele><time>2026-05-01T09:25:11.56Z</time></trkpt><trkpt lat="45.8764309" lon="11.5836392"><ele>1150.0</ele><time>2026-05-01T09:25:12.562Z</time></trkpt><trkpt lat="45.8763692" lon="11.5835432"><ele>1147.6666666666665</ele><time>2026-05-01T09:25:13.561Z</time></trkpt><trkpt lat="45.8762969" lon="11.583467"><ele>1145.3333333333333</ele><time>2026-05-01T09:25:14.561Z</time></trkpt><trkpt lat="45.876219" lon="11.583408"><ele>1143.0</ele><time>2026-05-01T09:25:15.563Z</time></trkpt><trkpt lat="45.8761458" lon="11.5833595"><ele>1140.6666666666667</ele><time>2026-05-01T09:25:16.562Z</time></trkpt><trkpt lat="45.8760759" lon="11.5833141"><ele>1138.3333333333335</ele><time>2026-05-01T09:25:17.557Z</time></trkpt><trkpt lat="45.8760172" lon="11.5832537"><ele>1136.0</ele><time>2026-05-01T09:25:18.564Z</time></trkpt><trkpt lat="45.8759691" lon="11.5831664"><ele>1136.0</ele><time>2026-05-01T09:25:19.559Z</time></trkpt><trkpt lat="45.8759484" lon="11.5830381"><ele>1136.0</ele><time>2026-05-01T09:25:20.555Z</time></trkpt><trkpt lat="45.8759344" lon="11.5828973"><ele>1136.0</ele><time>2026-05-01T09:25:21.561Z</time></trkpt><trkpt lat="45.8759362" lon="11.5827547"><ele>1136.0</ele><time>2026-05-01T09:25:22.559Z</time></trkpt><trkpt lat="45.8759479" lon="11.5826108"><ele>1136.0</ele><time>2026-05-01T09:25:23.562Z</time></trkpt><trkpt lat="45.8759728" lon="11.5824798"><ele>1134.5</ele><time>2026-05-01T09:25:24.556Z</time></trkpt><trkpt lat="45.8760003" lon="11.5823697"><ele>1133.0</ele><time>2026-05-01T09:25:25.561Z</time></trkpt><trkpt lat="45.8760269" lon="11.5822705"><ele>1131.5</ele><time>2026-05-01T09:25:26.561Z</time></trkpt><trkpt lat="45.8760587" lon="11.5821706"><ele>1130.0</ele><time>2026-05-01T09:25:27.561Z</time></trkpt><trkpt lat="45.8760836" lon="11.5820825"><ele>1128.5</ele><time>2026-05-01T09:25:28.569Z</time></trkpt><trkpt lat="45.8760842" lon="11.5819879"><ele>1127.0</ele><time>2026-05-01T09:25:29.563Z</time></trkpt><trkpt lat="45.876066" lon="11.581835"><ele>1127.0</ele><time>2026-05-01T09:25:31.556Z</time></trkpt><trkpt lat="45.8759991" lon="11.5816714"><ele>1127.0</ele><time>2026-05-01T09:25:33.557Z</time></trkpt><trkpt lat="45.8759567" lon="11.58158"><ele>1127.0</ele><time>2026-05-01T09:25:34.558Z</time></trkpt><trkpt lat="45.8759144" lon="11.5814823"><ele>1127.0</ele><time>2026-05-01T09:25:35.561Z</time></trkpt><trkpt lat="45.8758696" lon="11.581385"><ele>1127.0</ele><time>2026-05-01T09:25:36.564Z</time></trkpt><trkpt lat="45.8758238" lon="11.5812999"><ele>1127.0</ele><time>2026-05-01T09:25:37.562Z</time></trkpt><trkpt lat="45.8757787" lon="11.5812241"><ele>1133.0</ele><time>2026-05-01T09:25:38.558Z</time></trkpt><trkpt lat="45.8757236" lon="11.5811572"><ele>1139.0</ele><time>2026-05-01T09:25:39.571Z</time></trkpt><trkpt lat="45.8756766" lon="11.5810903"><ele>1145.0</ele><time>2026-05-01T09:25:40.56Z</time></trkpt><trkpt lat="45.8756581" lon="11.580947"><ele>1151.0</ele><time>2026-05-01T09:25:42.568Z</time></trkpt><trkpt lat="45.8756606" lon="11.5808174"><ele>1157.0</ele><time>2026-05-01T09:25:44.578Z</time></trkpt><trkpt lat="45.8756909" lon="11.5807305"><ele>1163.0</ele><time>2026-05-01T09:25:45.559Z</time></trkpt><trkpt lat="45.8757448" lon="11.5806362"><ele>1163.0</ele><time>2026-05-01T09:25:46.56Z</time></trkpt><trkpt lat="45.8758083" lon="11.580527"><ele>1163.0</ele><time>2026-05-01T09:25:47.565Z</time></trkpt><trkpt lat="45.8758736" lon="11.5804162"><ele>1163.0</ele><time>2026-05-01T09:25:48.559Z</time></trkpt><trkpt lat="45.8759268" lon="11.5802918"><ele>1163.0</ele><time>2026-05-01T09:25:49.57Z</time></trkpt><trkpt lat="45.875967" lon="11.5801775"><ele>1163.0</ele><time>2026-05-01T09:25:50.563Z</time></trkpt><trkpt lat="45.8759894" lon="11.5800563"><ele>1164.0</ele><time>2026-05-01T09:25:51.559Z</time></trkpt><trkpt lat="45.8759887" lon="11.5799384"><ele>1165.0</ele><time>2026-05-01T09:25:52.571Z</time></trkpt><trkpt lat="45.875981" lon="11.5798185"><ele>1166.0</ele><time>2026-05-01T09:25:53.56Z</time></trkpt><trkpt lat="45.8759592" lon="11.5797097"><ele>1167.0</ele><time>2026-05-01T09:25:54.564Z</time></trkpt><trkpt lat="45.8759225" lon="11.5796072"><ele>1168.0</ele><time>2026-05-01T09:25:55.56Z</time></trkpt><trkpt lat="45.8758899" lon="11.579508"><ele>1169.0</ele><time>2026-05-01T09:25:56.562Z</time></trkpt><trkpt lat="45.8758539" lon="11.5794153"><ele>1170.1666666666667</ele><time>2026-05-01T09:25:57.563Z</time></trkpt><trkpt lat="45.8758252" lon="11.5793339"><ele>1171.3333333333335</ele><time>2026-05-01T09:25:58.563Z</time></trkpt><trkpt lat="45.8757949" lon="11.5791898"><ele>1172.5</ele><time>2026-05-01T09:26:00.558Z</time></trkpt><trkpt lat="45.8758247" lon="11.5790694"><ele>1173.6666666666667</ele><time>2026-05-01T09:26:02.578Z</time></trkpt><trkpt lat="45.8758812" lon="11.5790008"><ele>1174.8333333333333</ele><time>2026-05-01T09:26:03.565Z</time></trkpt><trkpt lat="45.8759618" lon="11.5789525"><ele>1176.0</ele><time>2026-05-01T09:26:04.591Z</time></trkpt><trkpt lat="45.8760519" lon="11.57887"><ele>1170.0</ele><time>2026-05-01T09:26:05.559Z</time></trkpt><trkpt lat="45.8761349" lon="11.5787442"><ele>1164.0</ele><time>2026-05-01T09:26:06.56Z</time></trkpt><trkpt lat="45.8761931" lon="11.5786206"><ele>1158.0</ele><time>2026-05-01T09:26:07.56Z</time></trkpt><trkpt lat="45.8762447" lon="11.5785098"><ele>1152.0</ele><time>2026-05-01T09:26:08.56Z</time></trkpt><trkpt lat="45.8762847" lon="11.5784063"><ele>1146.0</ele><time>2026-05-01T09:26:09.567Z</time></trkpt><trkpt lat="45.8763098" lon="11.5783225"><ele>1146.0</ele><time>2026-05-01T09:26:10.568Z</time></trkpt><trkpt lat="45.8763237" lon="11.5782297"><ele>1146.0</ele><time>2026-05-01T09:26:11.563Z</time></trkpt><trkpt lat="45.8763163" lon="11.5781315"><ele>1146.0</ele><time>2026-05-01T09:26:12.563Z</time></trkpt><trkpt lat="45.876291" lon="11.5779865"><ele>1146.0</ele><time>2026-05-01T09:26:14.561Z</time></trkpt><trkpt lat="45.8763142" lon="11.5778548"><ele>1146.0</ele><time>2026-05-01T09:26:16.561Z</time></trkpt><trkpt lat="45.8764059" lon="11.5777319"><ele>1148.0</ele><time>2026-05-01T09:26:18.566Z</time></trkpt><trkpt lat="45.8764651" lon="11.5776647"><ele>1150.0</ele><time>2026-05-01T09:26:19.558Z</time></trkpt><trkpt lat="45.8765262" lon="11.577602"><ele>1152.0</ele><time>2026-05-01T09:26:20.562Z</time></trkpt><trkpt lat="45.8765915" lon="11.577474"><ele>1154.0</ele><time>2026-05-01T09:26:22.565Z</time></trkpt><trkpt lat="45.876633" lon="11.5773865"><ele>1156.0</ele><time>2026-05-01T09:26:23.559Z</time></trkpt><trkpt lat="45.8766741" lon="11.5772913"><ele>1158.0</ele><time>2026-05-01T09:26:24.567Z</time></trkpt><trkpt lat="45.8767217" lon="11.5771813"><ele>1154.6</ele><time>2026-05-01T09:26:25.561Z</time></trkpt><trkpt lat="45.8767745" lon="11.5770528"><ele>1151.1999999999998</ele><time>2026-05-01T09:26:26.571Z</time></trkpt><trkpt lat="45.8768307" lon="11.5769156"><ele>1147.8</ele><time>2026-05-01T09:26:27.566Z</time></trkpt><trkpt lat="45.8768865" lon="11.5767722"><ele>1144.3999999999999</ele><time>2026-05-01T09:26:28.565Z</time></trkpt><trkpt lat="45.8769475" lon="11.5766299"><ele>1141.0</ele><time>2026-05-01T09:26:29.562Z</time></trkpt><trkpt lat="45.8770137" lon="11.5764954"><ele>1141.0</ele><time>2026-05-01T09:26:30.562Z</time></trkpt><trkpt lat="45.8770884" lon="11.5763694"><ele>1141.0</ele><time>2026-05-01T09:26:31.559Z</time></trkpt><trkpt lat="45.8771625" lon="11.5762505"><ele>1141.0</ele><time>2026-05-01T09:26:32.567Z</time></trkpt><trkpt lat="45.87725" lon="11.5761471"><ele>1141.0</ele><time>2026-05-01T09:26:33.564Z</time></trkpt><trkpt lat="45.87734" lon="11.5760473"><ele>1139.0</ele><time>2026-05-01T09:26:34.573Z</time></trkpt><trkpt lat="45.877438" lon="11.5759367"><ele>1137.0</ele><time>2026-05-01T09:26:35.56Z</time></trkpt><trkpt lat="45.8775375" lon="11.5758148"><ele>1135.0</ele><time>2026-05-01T09:26:36.562Z</time></trkpt><trkpt lat="45.8776299" lon="11.5756913"><ele>1133.0</ele><time>2026-05-01T09:26:37.571Z</time></trkpt><trkpt lat="45.8777245" lon="11.5755697"><ele>1133.0</ele><time>2026-05-01T09:26:38.571Z</time></trkpt><trkpt lat="45.8778203" lon="11.5754478"><ele>1133.0</ele><time>2026-05-01T09:26:39.563Z</time></trkpt><trkpt lat="45.8779212" lon="11.5753323"><ele>1133.0</ele><time>2026-05-01T09:26:40.57Z</time></trkpt><trkpt lat="45.8780191" lon="11.5752129"><ele>1133.0</ele><time>2026-05-01T09:26:41.564Z</time></trkpt><trkpt lat="45.8781367" lon="11.5751061"><ele>1134.25</ele><time>2026-05-01T09:26:42.568Z</time></trkpt><trkpt lat="45.8782381" lon="11.5749886"><ele>1135.5</ele><time>2026-05-01T09:26:43.565Z</time></trkpt><trkpt lat="45.8783448" lon="11.5748957"><ele>1136.75</ele><time>2026-05-01T09:26:44.57Z</time></trkpt><trkpt lat="45.8784465" lon="11.5747935"><ele>1138.0</ele><time>2026-05-01T09:26:45.574Z</time></trkpt><trkpt lat="45.8785496" lon="11.5747016"><ele>1138.0</ele><time>2026-05-01T09:26:46.567Z</time></trkpt><trkpt lat="45.8786522" lon="11.5746131"><ele>1138.0</ele><time>2026-05-01T09:26:47.564Z</time></trkpt><trkpt lat="45.8787579" lon="11.5745295"><ele>1138.0</ele><time>2026-05-01T09:26:48.561Z</time></trkpt><trkpt lat="45.878853" lon="11.5744565"><ele>1138.0</ele><time>2026-05-01T09:26:49.568Z</time></trkpt><trkpt lat="45.8789381" lon="11.5743926"><ele>1138.0</ele><time>2026-05-01T09:26:50.57Z</time></trkpt><trkpt lat="45.8790082" lon="11.5743413"><ele>1138.3333333333333</ele><time>2026-05-01T09:26:51.565Z</time></trkpt><trkpt lat="45.8790782" lon="11.5742875"><ele>1138.6666666666665</ele><time>2026-05-01T09:26:52.569Z</time></trkpt><trkpt lat="45.8791456" lon="11.574233"><ele>1139.0</ele><time>2026-05-01T09:26:53.564Z</time></trkpt><trkpt lat="45.8792083" lon="11.5741829"><ele>1139.3333333333333</ele><time>2026-05-01T09:26:54.57Z</time></trkpt><trkpt lat="45.8792656" lon="11.5741373"><ele>1139.6666666666667</ele><time>2026-05-01T09:26:55.563Z</time></trkpt><trkpt lat="45.8793185" lon="11.5740849"><ele>1140.0</ele><time>2026-05-01T09:26:56.571Z</time></trkpt><trkpt lat="45.8794075" lon="11.5739721"><ele>1140.0</ele><time>2026-05-01T09:26:58.571Z</time></trkpt><trkpt lat="45.8794413" lon="11.5738479"><ele>1140.0</ele><time>2026-05-01T09:27:00.569Z</time></trkpt><trkpt lat="45.879391" lon="11.5737456"><ele>1140.0</ele><time>2026-05-01T09:27:02.583Z</time></trkpt><trkpt lat="45.8792675" lon="11.5736576"><ele>1140.0</ele><time>2026-05-01T09:27:04.563Z</time></trkpt><trkpt lat="45.8791876" lon="11.5736141"><ele>1140.0</ele><time>2026-05-01T09:27:05.57Z</time></trkpt><trkpt lat="45.8791026" lon="11.5735616"><ele>1143.0</ele><time>2026-05-01T09:27:06.577Z</time></trkpt><trkpt lat="45.8790115" lon="11.5735065"><ele>1146.0</ele><time>2026-05-01T09:27:07.571Z</time></trkpt><trkpt lat="45.8789143" lon="11.5734549"><ele>1149.0</ele><time>2026-05-01T09:27:08.568Z</time></trkpt><trkpt lat="45.8788121" lon="11.5734092"><ele>1152.0</ele><time>2026-05-01T09:27:09.572Z</time></trkpt><trkpt lat="45.8787066" lon="11.5733823"><ele>1155.0</ele><time>2026-05-01T09:27:10.569Z</time></trkpt><trkpt lat="45.878595" lon="11.5733741"><ele>1155.0</ele><time>2026-05-01T09:27:11.571Z</time></trkpt><trkpt lat="45.8784784" lon="11.5733804"><ele>1155.0</ele><time>2026-05-01T09:27:12.572Z</time></trkpt><trkpt lat="45.878361" lon="11.5733856"><ele>1155.0</ele><time>2026-05-01T09:27:13.573Z</time></trkpt><trkpt lat="45.8782563" lon="11.5733909"><ele>1155.0</ele><time>2026-05-01T09:27:14.565Z</time></trkpt><trkpt lat="45.8781646" lon="11.5734069"><ele>1155.0</ele><time>2026-05-01T09:27:15.563Z</time></trkpt><trkpt lat="45.8780761" lon="11.5734493"><ele>1156.25</ele><time>2026-05-01T09:27:16.567Z</time></trkpt><trkpt lat="45.8779832" lon="11.5735155"><ele>1157.5</ele><time>2026-05-01T09:27:17.566Z</time></trkpt><trkpt lat="45.8778875" lon="11.573601"><ele>1158.75</ele><time>2026-05-01T09:27:18.574Z</time></trkpt><trkpt lat="45.8777921" lon="11.5737038"><ele>1160.0</ele><time>2026-05-01T09:27:19.564Z</time></trkpt><trkpt lat="45.8776992" lon="11.5738107"><ele>1160.6</ele><time>2026-05-01T09:27:20.562Z</time></trkpt><trkpt lat="45.8776096" lon="11.573907"><ele>1161.2</ele><time>2026-05-01T09:27:21.569Z</time></trkpt><trkpt lat="45.877526" lon="11.5739763"><ele>1161.8</ele><time>2026-05-01T09:27:22.567Z</time></trkpt><trkpt lat="45.8774391" lon="11.574017"><ele>1162.4</ele><time>2026-05-01T09:27:23.564Z</time></trkpt><trkpt lat="45.8773606" lon="11.574015"><ele>1163.0</ele><time>2026-05-01T09:27:24.559Z</time></trkpt><trkpt lat="45.8772843" lon="11.5740091"><ele>1163.4</ele><time>2026-05-01T09:27:25.565Z</time></trkpt><trkpt lat="45.8772148" lon="11.5739396"><ele>1163.8</ele><time>2026-05-01T09:27:26.582Z</time></trkpt><trkpt lat="45.8771552" lon="11.5738192"><ele>1164.2</ele><time>2026-05-01T09:27:27.569Z</time></trkpt><trkpt lat="45.877092" lon="11.5736811"><ele>1164.6</ele><time>2026-05-01T09:27:28.57Z</time></trkpt><trkpt lat="45.877029" lon="11.5735459"><ele>1165.0</ele><time>2026-05-01T09:27:29.57Z</time></trkpt><trkpt lat="45.876968" lon="11.5734127"><ele>1163.8</ele><time>2026-05-01T09:27:30.572Z</time></trkpt><trkpt lat="45.8769161" lon="11.5732906"><ele>1162.6</ele><time>2026-05-01T09:27:31.565Z</time></trkpt><trkpt lat="45.8768713" lon="11.5731658"><ele>1161.4</ele><time>2026-05-01T09:27:32.567Z</time></trkpt><trkpt lat="45.8768362" lon="11.5730379"><ele>1160.2</ele><time>2026-05-01T09:27:33.562Z</time></trkpt><trkpt lat="45.8768172" lon="11.572906"><ele>1159.0</ele><time>2026-05-01T09:27:34.566Z</time></trkpt><trkpt lat="45.8768048" lon="11.5727751"><ele>1158.8333333333333</ele><time>2026-05-01T09:27:35.56Z</time></trkpt><trkpt lat="45.8767894" lon="11.5726546"><ele>1158.6666666666665</ele><time>2026-05-01T09:27:36.569Z</time></trkpt><trkpt lat="45.8767713" lon="11.5725553"><ele>1158.5</ele><time>2026-05-01T09:27:37.567Z</time></trkpt><trkpt lat="45.8767459" lon="11.5724719"><ele>1158.3333333333333</ele><time>2026-05-01T09:27:38.568Z</time></trkpt><trkpt lat="45.8766812" lon="11.5723565"><ele>1158.1666666666667</ele><time>2026-05-01T09:27:40.563Z</time></trkpt><trkpt lat="45.876595" lon="11.5723451"><ele>1158.0</ele><time>2026-05-01T09:27:42.565Z</time></trkpt><trkpt lat="45.8764964" lon="11.5724307"><ele>1160.0</ele><time>2026-05-01T09:27:44.571Z</time></trkpt><trkpt lat="45.8764455" lon="11.5725224"><ele>1162.0</ele><time>2026-05-01T09:27:45.571Z</time></trkpt><trkpt lat="45.8763797" lon="11.5726236"><ele>1164.0</ele><time>2026-05-01T09:27:46.571Z</time></trkpt><trkpt lat="45.8763138" lon="11.5727049"><ele>1166.0</ele><time>2026-05-01T09:27:47.567Z</time></trkpt><trkpt lat="45.8762333" lon="11.5727582"><ele>1168.0</ele><time>2026-05-01T09:27:48.568Z</time></trkpt><trkpt lat="45.8761443" lon="11.5727765"><ele>1170.0</ele><time>2026-05-01T09:27:49.565Z</time></trkpt><trkpt lat="45.87605" lon="11.5727577"><ele>1170.0</ele><time>2026-05-01T09:27:50.566Z</time></trkpt><trkpt lat="45.8759581" lon="11.5727364"><ele>1170.0</ele><time>2026-05-01T09:27:51.568Z</time></trkpt><trkpt lat="45.8758705" lon="11.572701"><ele>1170.0</ele><time>2026-05-01T09:27:52.574Z</time></trkpt><trkpt lat="45.8757824" lon="11.5726652"><ele>1170.0</ele><time>2026-05-01T09:27:53.572Z</time></trkpt><trkpt lat="45.8756906" lon="11.5726474"><ele>1170.0</ele><time>2026-05-01T09:27:54.57Z</time></trkpt><trkpt lat="45.8756135" lon="11.5726557"><ele>1170.0</ele><time>2026-05-01T09:27:55.565Z</time></trkpt><trkpt lat="45.8755433" lon="11.5726942"><ele>1168.6</ele><time>2026-05-01T09:27:56.567Z</time></trkpt><trkpt lat="45.8754741" lon="11.5727334"><ele>1167.2</ele><time>2026-05-01T09:27:57.57Z</time></trkpt><trkpt lat="45.8754154" lon="11.5728331"><ele>1165.8</ele><time>2026-05-01T09:27:58.574Z</time></trkpt><trkpt lat="45.8753538" lon="11.5729368"><ele>1164.4</ele><time>2026-05-01T09:27:59.562Z</time></trkpt><trkpt lat="45.8752866" lon="11.5730487"><ele>1163.0</ele><time>2026-05-01T09:28:00.57Z</time></trkpt><trkpt lat="45.8752067" lon="11.5731371"><ele>1162.8</ele><time>2026-05-01T09:28:01.563Z</time></trkpt><trkpt lat="45.875135" lon="11.5731979"><ele>1162.6</ele><time>2026-05-01T09:28:02.569Z</time></trkpt><trkpt lat="45.875018" lon="11.57323"><ele>1162.4</ele><time>2026-05-01T09:28:04.572Z</time></trkpt><trkpt lat="45.8749286" lon="11.5731297"><ele>1162.2</ele><time>2026-05-01T09:28:06.561Z</time></trkpt><trkpt lat="45.8749545" lon="11.5729517"><ele>1162.0</ele><time>2026-05-01T09:28:08.574Z</time></trkpt><trkpt lat="45.8749905" lon="11.5728359"><ele>1162.0</ele><time>2026-05-01T09:28:09.556Z</time></trkpt><trkpt lat="45.8750242" lon="11.5726845"><ele>1162.0</ele><time>2026-05-01T09:28:10.564Z</time></trkpt><trkpt lat="45.8750696" lon="11.572526"><ele>1162.0</ele><time>2026-05-01T09:28:11.561Z</time></trkpt><trkpt lat="45.8751143" lon="11.5723687"><ele>1162.0</ele><time>2026-05-01T09:28:12.556Z</time></trkpt><trkpt lat="45.8751611" lon="11.5722235"><ele>1162.1666666666665</ele><time>2026-05-01T09:28:13.56Z</time></trkpt><trkpt lat="45.8752013" lon="11.5720994"><ele>1162.3333333333333</ele><time>2026-05-01T09:28:14.568Z</time></trkpt><trkpt lat="45.8752418" lon="11.5720014"><ele>1162.5</ele><time>2026-05-01T09:28:15.562Z</time></trkpt><trkpt lat="45.875295" lon="11.5719103"><ele>1162.6666666666667</ele><time>2026-05-01T09:28:16.563Z</time></trkpt><trkpt lat="45.8753431" lon="11.5718353"><ele>1162.8333333333335</ele><time>2026-05-01T09:28:17.566Z</time></trkpt><trkpt lat="45.8753975" lon="11.5717796"><ele>1163.0</ele><time>2026-05-01T09:28:18.564Z</time></trkpt><trkpt lat="45.8754569" lon="11.5717408"><ele>1160.6666666666667</ele><time>2026-05-01T09:28:19.563Z</time></trkpt><trkpt lat="45.8755227" lon="11.5716996"><ele>1158.3333333333335</ele><time>2026-05-01T09:28:20.561Z</time></trkpt><trkpt lat="45.8755929" lon="11.5716594"><ele>1156.0</ele><time>2026-05-01T09:28:21.562Z</time></trkpt><trkpt lat="45.8756685" lon="11.5716072"><ele>1153.6666666666667</ele><time>2026-05-01T09:28:22.559Z</time></trkpt><trkpt lat="45.8757387" lon="11.5715332"><ele>1151.3333333333333</ele><time>2026-05-01T09:28:23.56Z</time></trkpt><trkpt lat="45.8757986" lon="11.5714478"><ele>1149.0</ele><time>2026-05-01T09:28:24.562Z</time></trkpt><trkpt lat="45.8758286" lon="11.5713239"><ele>1149.0</ele><time>2026-05-01T09:28:25.563Z</time></trkpt><trkpt lat="45.8758557" lon="11.5711934"><ele>1149.0</ele><time>2026-05-01T09:28:26.563Z</time></trkpt><trkpt lat="45.8758743" lon="11.5710493"><ele>1149.0</ele><time>2026-05-01T09:28:27.565Z</time></trkpt><trkpt lat="45.8758943" lon="11.5709171"><ele>1149.0</ele><time>2026-05-01T09:28:28.563Z</time></trkpt><trkpt lat="45.8759219" lon="11.5707985"><ele>1149.0</ele><time>2026-05-01T09:28:29.568Z</time></trkpt><trkpt lat="45.8759561" lon="11.5706947"><ele>1147.7142857142858</ele><time>2026-05-01T09:28:30.57Z</time></trkpt><trkpt lat="45.8759955" lon="11.570593"><ele>1146.4285714285713</ele><time>2026-05-01T09:28:31.564Z</time></trkpt><trkpt lat="45.8760382" lon="11.5704899"><ele>1145.142857142857</ele><time>2026-05-01T09:28:32.557Z</time></trkpt><trkpt lat="45.8760769" lon="11.5703929"><ele>1143.857142857143</ele><time>2026-05-01T09:28:33.569Z</time></trkpt><trkpt lat="45.8761116" lon="11.5703063"><ele>1142.5714285714287</ele><time>2026-05-01T09:28:34.573Z</time></trkpt><trkpt lat="45.8761504" lon="11.5702245"><ele>1141.2857142857142</ele><time>2026-05-01T09:28:35.563Z</time></trkpt><trkpt lat="45.8761983" lon="11.5701549"><ele>1140.0</ele><time>2026-05-01T09:28:36.562Z</time></trkpt><trkpt lat="45.8762507" lon="11.5700926"><ele>1139.6666666666667</ele><time>2026-05-01T09:28:37.563Z</time></trkpt><trkpt lat="45.8763044" lon="11.5700395"><ele>1139.3333333333333</ele><time>2026-05-01T09:28:38.569Z</time></trkpt><trkpt lat="45.8763627" lon="11.5699834"><ele>1139.0</ele><time>2026-05-01T09:28:39.567Z</time></trkpt><trkpt lat="45.8764114" lon="11.5699248"><ele>1138.6666666666665</ele><time>2026-05-01T09:28:40.568Z</time></trkpt><trkpt lat="45.8764833" lon="11.5697957"><ele>1138.3333333333333</ele><time>2026-05-01T09:28:42.564Z</time></trkpt><trkpt lat="45.8765297" lon="11.5696499"><ele>1138.0</ele><time>2026-05-01T09:28:44.569Z</time></trkpt><trkpt lat="45.876552" lon="11.569512"><ele>1138.0</ele><time>2026-05-01T09:28:46.565Z</time></trkpt><trkpt lat="45.8765718" lon="11.569362"><ele>1138.0</ele><time>2026-05-01T09:28:48.563Z</time></trkpt><trkpt lat="45.8765717" lon="11.5692064"><ele>1138.0</ele><time>2026-05-01T09:28:50.578Z</time></trkpt><trkpt lat="45.876557" lon="11.5690515"><ele>1138.0</ele><time>2026-05-01T09:28:52.567Z</time></trkpt><trkpt lat="45.8765379" lon="11.5688906"><ele>1138.0</ele><time>2026-05-01T09:28:54.563Z</time></trkpt><trkpt lat="45.8765069" lon="11.5687368"><ele>1137.0</ele><time>2026-05-01T09:28:56.571Z</time></trkpt><trkpt lat="45.8764659" lon="11.5685842"><ele>1136.0</ele><time>2026-05-01T09:28:58.565Z</time></trkpt><trkpt lat="45.8764236" lon="11.5684593"><ele>1135.0</ele><time>2026-05-01T09:29:00.576Z</time></trkpt><trkpt lat="45.8764146" lon="11.5683479"><ele>1134.0</ele><time>2026-05-01T09:29:02.578Z</time></trkpt><trkpt lat="45.8764327" lon="11.5682025"><ele>1133.0</ele><time>2026-05-01T09:29:04.572Z</time></trkpt><trkpt lat="45.8764329" lon="11.5680235"><ele>1132.4</ele><time>2026-05-01T09:29:06.565Z</time></trkpt><trkpt lat="45.8764351" lon="11.5678498"><ele>1131.8</ele><time>2026-05-01T09:29:08.568Z</time></trkpt><trkpt lat="45.8764524" lon="11.5676639"><ele>1131.2</ele><time>2026-05-01T09:29:10.575Z</time></trkpt><trkpt lat="45.8764676" lon="11.5675597"><ele>1130.6</ele><time>2026-05-01T09:29:11.568Z</time></trkpt><trkpt lat="45.8764881" lon="11.5674472"><ele>1130.0</ele><time>2026-05-01T09:29:12.569Z</time></trkpt><trkpt lat="45.8765139" lon="11.5673295"><ele>1130.0</ele><time>2026-05-01T09:29:13.569Z</time></trkpt><trkpt lat="45.8765394" lon="11.5672204"><ele>1130.0</ele><time>2026-05-01T09:29:14.571Z</time></trkpt><trkpt lat="45.8765641" lon="11.5671128"><ele>1130.0</ele><time>2026-05-01T09:29:15.567Z</time></trkpt><trkpt lat="45.8765878" lon="11.5670082"><ele>1130.0</ele><time>2026-05-01T09:29:16.568Z</time></trkpt><trkpt lat="45.8766115" lon="11.5669055"><ele>1130.0</ele><time>2026-05-01T09:29:17.562Z</time></trkpt><trkpt lat="45.8766334" lon="11.566809"><ele>1130.0</ele><time>2026-05-01T09:29:18.566Z</time></trkpt><trkpt lat="45.8766676" lon="11.5666491"><ele>1129.8333333333335</ele><time>2026-05-01T09:29:20.56Z</time></trkpt><trkpt lat="45.8767009" lon="11.5664875"><ele>1129.6666666666667</ele><time>2026-05-01T09:29:22.564Z</time></trkpt><trkpt lat="45.8767251" lon="11.5663918"><ele>1129.5</ele><time>2026-05-01T09:29:23.565Z</time></trkpt><trkpt lat="45.8767533" lon="11.5662929"><ele>1129.3333333333333</ele><time>2026-05-01T09:29:24.56Z</time></trkpt><trkpt lat="45.8767816" lon="11.5661895"><ele>1129.1666666666665</ele><time>2026-05-01T09:29:25.565Z</time></trkpt><trkpt lat="45.8768112" lon="11.5660827"><ele>1129.0</ele><time>2026-05-01T09:29:26.576Z</time></trkpt><trkpt lat="45.8768382" lon="11.5659748"><ele>1130.3333333333333</ele><time>2026-05-01T09:29:27.568Z</time></trkpt><trkpt lat="45.8768651" lon="11.5658663"><ele>1131.6666666666665</ele><time>2026-05-01T09:29:28.561Z</time></trkpt><trkpt lat="45.8768924" lon="11.5657599"><ele>1133.0</ele><time>2026-05-01T09:29:29.57Z</time></trkpt><trkpt lat="45.8769198" lon="11.5656556"><ele>1134.3333333333333</ele><time>2026-05-01T09:29:30.566Z</time></trkpt><trkpt lat="45.8769514" lon="11.5655563"><ele>1135.6666666666667</ele><time>2026-05-01T09:29:31.568Z</time></trkpt><trkpt lat="45.8769848" lon="11.5654618"><ele>1137.0</ele><time>2026-05-01T09:29:32.566Z</time></trkpt><trkpt lat="45.8770169" lon="11.5653727"><ele>1138.7142857142856</ele><time>2026-05-01T09:29:33.563Z</time></trkpt><trkpt lat="45.8770591" lon="11.5652962"><ele>1140.4285714285713</ele><time>2026-05-01T09:29:34.561Z</time></trkpt><trkpt lat="45.8771068" lon="11.5652317"><ele>1142.142857142857</ele><time>2026-05-01T09:29:35.568Z</time></trkpt><trkpt lat="45.8771563" lon="11.5651756"><ele>1143.8571428571427</ele><time>2026-05-01T09:29:36.564Z</time></trkpt><trkpt lat="45.8772084" lon="11.5651193"><ele>1145.5714285714284</ele><time>2026-05-01T09:29:37.563Z</time></trkpt><trkpt lat="45.8772601" lon="11.565063"><ele>1147.2857142857142</ele><time>2026-05-01T09:29:38.565Z</time></trkpt><trkpt lat="45.8773178" lon="11.5650037"><ele>1149.0</ele><time>2026-05-01T09:29:39.57Z</time></trkpt><trkpt lat="45.8773694" lon="11.5649467"><ele>1149.0</ele><time>2026-05-01T09:29:40.567Z</time></trkpt><trkpt lat="45.8774138" lon="11.5648777"><ele>1149.0</ele><time>2026-05-01T09:29:41.559Z</time></trkpt><trkpt lat="45.8774542" lon="11.5648028"><ele>1149.0</ele><time>2026-05-01T09:29:42.558Z</time></trkpt><trkpt lat="45.8774914" lon="11.5647186"><ele>1149.0</ele><time>2026-05-01T09:29:43.563Z</time></trkpt><trkpt lat="45.8775277" lon="11.5646388"><ele>1149.0</ele><time>2026-05-01T09:29:44.572Z</time></trkpt><trkpt lat="45.8775599" lon="11.5645592"><ele>1149.0</ele><time>2026-05-01T09:29:45.568Z</time></trkpt><trkpt lat="45.8775914" lon="11.5644784"><ele>1149.0</ele><time>2026-05-01T09:29:46.559Z</time></trkpt><trkpt lat="45.877623" lon="11.5643929"><ele>1150.7142857142858</ele><time>2026-05-01T09:29:47.569Z</time></trkpt><trkpt lat="45.8776538" lon="11.5643083"><ele>1152.4285714285713</ele><time>2026-05-01T09:29:48.57Z</time></trkpt><trkpt lat="45.8776912" lon="11.5642283"><ele>1154.142857142857</ele><time>2026-05-01T09:29:49.567Z</time></trkpt><trkpt lat="45.8777251" lon="11.564152"><ele>1155.857142857143</ele><time>2026-05-01T09:29:50.56Z</time></trkpt><trkpt lat="45.8777613" lon="11.5640632"><ele>1157.5714285714287</ele><time>2026-05-01T09:29:51.566Z</time></trkpt><trkpt lat="45.8777932" lon="11.5639677"><ele>1159.2857142857142</ele><time>2026-05-01T09:29:52.576Z</time></trkpt><trkpt lat="45.8778235" lon="11.5638662"><ele>1161.0</ele><time>2026-05-01T09:29:53.569Z</time></trkpt><trkpt lat="45.8778526" lon="11.5637621"><ele>1161.5714285714284</ele><time>2026-05-01T09:29:54.563Z</time></trkpt><trkpt lat="45.8778821" lon="11.5636596"><ele>1162.142857142857</ele><time>2026-05-01T09:29:55.566Z</time></trkpt><trkpt lat="45.8779138" lon="11.5635597"><ele>1162.7142857142858</ele><time>2026-05-01T09:29:56.57Z</time></trkpt><trkpt lat="45.877945" lon="11.5634627"><ele>1163.2857142857142</ele><time>2026-05-01T09:29:57.568Z</time></trkpt><trkpt lat="45.8779771" lon="11.5633796"><ele>1163.857142857143</ele><time>2026-05-01T09:29:58.564Z</time></trkpt><trkpt lat="45.8780123" lon="11.5632893"><ele>1164.4285714285713</ele><time>2026-05-01T09:29:59.568Z</time></trkpt><trkpt lat="45.8780457" lon="11.5631966"><ele>1165.0</ele><time>2026-05-01T09:30:00.573Z</time></trkpt><trkpt lat="45.8780739" lon="11.5630913"><ele>1165.0</ele><time>2026-05-01T09:30:01.566Z</time></trkpt><trkpt lat="45.8780991" lon="11.5629736"><ele>1165.0</ele><time>2026-05-01T09:30:02.562Z</time></trkpt><trkpt lat="45.8781225" lon="11.5628522"><ele>1165.0</ele><time>2026-05-01T09:30:03.57Z</time></trkpt><trkpt lat="45.878141" lon="11.5627376"><ele>1165.0</ele><time>2026-05-01T09:30:04.569Z</time></trkpt><trkpt lat="45.8781582" lon="11.5626249"><ele>1165.0</ele><time>2026-05-01T09:30:05.574Z</time></trkpt><trkpt lat="45.8781541" lon="11.5625112"><ele>1165.0</ele><time>2026-05-01T09:30:06.568Z</time></trkpt><trkpt lat="45.8781462" lon="11.5623931"><ele>1166.0</ele><time>2026-05-01T09:30:07.565Z</time></trkpt><trkpt lat="45.8781358" lon="11.5622685"><ele>1167.0</ele><time>2026-05-01T09:30:08.577Z</time></trkpt><trkpt lat="45.8781232" lon="11.5621437"><ele>1168.0</ele><time>2026-05-01T09:30:09.563Z</time></trkpt><trkpt lat="45.8781109" lon="11.5620274"><ele>1169.0</ele><time>2026-05-01T09:30:10.569Z</time></trkpt><trkpt lat="45.8781003" lon="11.5619127"><ele>1170.0</ele><time>2026-05-01T09:30:11.566Z</time></trkpt><trkpt lat="45.8781056" lon="11.5618022"><ele>1171.0</ele><time>2026-05-01T09:30:12.573Z</time></trkpt><trkpt lat="45.8781128" lon="11.5616897"><ele>1172.8333333333333</ele><time>2026-05-01T09:30:13.563Z</time></trkpt><trkpt lat="45.878142" lon="11.5615773"><ele>1174.6666666666665</ele><time>2026-05-01T09:30:14.573Z</time></trkpt><trkpt lat="45.8781768" lon="11.5614665"><ele>1176.5</ele><time>2026-05-01T09:30:15.564Z</time></trkpt><trkpt lat="45.8782136" lon="11.5613518"><ele>1178.3333333333333</ele><time>2026-05-01T09:30:16.569Z</time></trkpt><trkpt lat="45.8782488" lon="11.5612458"><ele>1180.1666666666667</ele><time>2026-05-01T09:30:17.567Z</time></trkpt><trkpt lat="45.8782866" lon="11.5611373"><ele>1182.0</ele><time>2026-05-01T09:30:18.567Z</time></trkpt><trkpt lat="45.8783167" lon="11.5610285"><ele>1183.8333333333333</ele><time>2026-05-01T09:30:19.564Z</time></trkpt><trkpt lat="45.8783214" lon="11.5609349"><ele>1185.6666666666667</ele><time>2026-05-01T09:30:20.567Z</time></trkpt><trkpt lat="45.8783121" lon="11.5608317"><ele>1187.5</ele><time>2026-05-01T09:30:21.564Z</time></trkpt><trkpt lat="45.878287" lon="11.5607425"><ele>1189.3333333333335</ele><time>2026-05-01T09:30:22.571Z</time></trkpt><trkpt lat="45.8782242" lon="11.5606209"><ele>1191.1666666666667</ele><time>2026-05-01T09:30:24.57Z</time></trkpt><trkpt lat="45.8781276" lon="11.5605881"><ele>1193.0</ele><time>2026-05-01T09:30:26.573Z</time></trkpt><trkpt lat="45.8780552" lon="11.5605937"><ele>1193.0</ele><time>2026-05-01T09:30:27.564Z</time></trkpt><trkpt lat="45.8779782" lon="11.5606066"><ele>1193.0</ele><time>2026-05-01T09:30:28.574Z</time></trkpt><trkpt lat="45.8779003" lon="11.560622"><ele>1193.0</ele><time>2026-05-01T09:30:29.576Z</time></trkpt><trkpt lat="45.8778218" lon="11.5606302"><ele>1193.0</ele><time>2026-05-01T09:30:30.566Z</time></trkpt><trkpt lat="45.8777491" lon="11.5606239"><ele>1193.0</ele><time>2026-05-01T09:30:31.572Z</time></trkpt><trkpt lat="45.8776741" lon="11.5606159"><ele>1193.0</ele><time>2026-05-01T09:30:32.575Z</time></trkpt><trkpt lat="45.8776018" lon="11.5605716"><ele>1194.5</ele><time>2026-05-01T09:30:33.568Z</time></trkpt><trkpt lat="45.8775319" lon="11.5605141"><ele>1196.0</ele><time>2026-05-01T09:30:34.565Z</time></trkpt><trkpt lat="45.8774692" lon="11.5604456"><ele>1197.5</ele><time>2026-05-01T09:30:35.565Z</time></trkpt><trkpt lat="45.8774109" lon="11.56038"><ele>1199.0</ele><time>2026-05-01T09:30:36.569Z</time></trkpt><trkpt lat="45.8773795" lon="11.5602872"><ele>1200.5</ele><time>2026-05-01T09:30:37.573Z</time></trkpt><trkpt lat="45.8773614" lon="11.5601842"><ele>1202.0</ele><time>2026-05-01T09:30:38.567Z</time></trkpt><trkpt lat="45.8773457" lon="11.5600717"><ele>1203.0</ele><time>2026-05-01T09:30:39.574Z</time></trkpt><trkpt lat="45.877361" lon="11.559954"><ele>1204.0</ele><time>2026-05-01T09:30:40.57Z</time></trkpt><trkpt lat="45.8773879" lon="11.5598423"><ele>1205.0</ele><time>2026-05-01T09:30:41.572Z</time></trkpt><trkpt lat="45.8774271" lon="11.5597232"><ele>1206.0</ele><time>2026-05-01T09:30:42.562Z</time></trkpt><trkpt lat="45.8774693" lon="11.5596118"><ele>1207.0</ele><time>2026-05-01T09:30:43.561Z</time></trkpt><trkpt lat="45.8775145" lon="11.5594999"><ele>1208.0</ele><time>2026-05-01T09:30:44.569Z</time></trkpt><trkpt lat="45.8775649" lon="11.5593934"><ele>1207.5</ele><time>2026-05-01T09:30:45.565Z</time></trkpt><trkpt lat="45.8776106" lon="11.5592842"><ele>1207.0</ele><time>2026-05-01T09:30:46.557Z</time></trkpt><trkpt lat="45.8776545" lon="11.5591734"><ele>1206.5</ele><time>2026-05-01T09:30:47.565Z</time></trkpt><trkpt lat="45.8776837" lon="11.5590589"><ele>1206.0</ele><time>2026-05-01T09:30:48.56Z</time></trkpt><trkpt lat="45.8777132" lon="11.5589396"><ele>1205.5</ele><time>2026-05-01T09:30:49.564Z</time></trkpt><trkpt lat="45.8777268" lon="11.5588095"><ele>1205.0</ele><time>2026-05-01T09:30:50.564Z</time></trkpt><trkpt lat="45.8777292" lon="11.5586785"><ele>1205.0</ele><time>2026-05-01T09:30:51.57Z</time></trkpt><trkpt lat="45.8777234" lon="11.5585451"><ele>1205.0</ele><time>2026-05-01T09:30:52.563Z</time></trkpt><trkpt lat="45.8777216" lon="11.5584079"><ele>1205.0</ele><time>2026-05-01T09:30:53.565Z</time></trkpt><trkpt lat="45.8777216" lon="11.5582754"><ele>1205.0</ele><time>2026-05-01T09:30:54.561Z</time></trkpt><trkpt lat="45.8777571" lon="11.5581538"><ele>1205.0</ele><time>2026-05-01T09:30:55.565Z</time></trkpt><trkpt lat="45.8777954" lon="11.5580256"><ele>1205.0</ele><time>2026-05-01T09:30:56.565Z</time></trkpt><trkpt lat="45.8778314" lon="11.5579003"><ele>1205.0</ele><time>2026-05-01T09:30:57.563Z</time></trkpt><trkpt lat="45.8778651" lon="11.5577761"><ele>1205.0</ele><time>2026-05-01T09:30:58.562Z</time></trkpt><trkpt lat="45.8778984" lon="11.5576582"><ele>1205.0</ele><time>2026-05-01T09:30:59.561Z</time></trkpt><trkpt lat="45.8779286" lon="11.5575554"><ele>1205.0</ele><time>2026-05-01T09:31:00.561Z</time></trkpt><trkpt lat="45.8779508" lon="11.5574178"><ele>1206.4</ele><time>2026-05-01T09:31:02.561Z</time></trkpt><trkpt lat="45.8779833" lon="11.5572523"><ele>1207.8</ele><time>2026-05-01T09:31:04.563Z</time></trkpt><trkpt lat="45.8780255" lon="11.5571337"><ele>1209.2</ele><time>2026-05-01T09:31:05.567Z</time></trkpt><trkpt lat="45.8780659" lon="11.5570135"><ele>1210.6</ele><time>2026-05-01T09:31:06.566Z</time></trkpt><trkpt lat="45.8780669" lon="11.556888"><ele>1212.0</ele><time>2026-05-01T09:31:07.56Z</time></trkpt><trkpt lat="45.8780409" lon="11.556767"><ele>1212.5</ele><time>2026-05-01T09:31:08.57Z</time></trkpt><trkpt lat="45.8779967" lon="11.5566546"><ele>1213.0</ele><time>2026-05-01T09:31:09.563Z</time></trkpt><trkpt lat="45.8779564" lon="11.5565382"><ele>1213.5</ele><time>2026-05-01T09:31:10.57Z</time></trkpt><trkpt lat="45.8779325" lon="11.5564139"><ele>1214.0</ele><time>2026-05-01T09:31:11.629Z</time></trkpt><trkpt lat="45.8779132" lon="11.5562976"><ele>1214.5</ele><time>2026-05-01T09:31:12.575Z</time></trkpt><trkpt lat="45.8778967" lon="11.5561734"><ele>1215.0</ele><time>2026-05-01T09:31:13.57Z</time></trkpt><trkpt lat="45.8778838" lon="11.5560406"><ele>1213.6</ele><time>2026-05-01T09:31:14.569Z</time></trkpt><trkpt lat="45.8778667" lon="11.555901"><ele>1212.2</ele><time>2026-05-01T09:31:15.565Z</time></trkpt><trkpt lat="45.8778483" lon="11.5557614"><ele>1210.8</ele><time>2026-05-01T09:31:16.567Z</time></trkpt><trkpt lat="45.8778285" lon="11.555613"><ele>1209.4</ele><time>2026-05-01T09:31:17.56Z</time></trkpt><trkpt lat="45.8778287" lon="11.5554506"><ele>1208.0</ele><time>2026-05-01T09:31:18.566Z</time></trkpt><trkpt lat="45.8778415" lon="11.5552857"><ele>1206.25</ele><time>2026-05-01T09:31:19.564Z</time></trkpt><trkpt lat="45.8778776" lon="11.5551186"><ele>1204.5</ele><time>2026-05-01T09:31:20.569Z</time></trkpt><trkpt lat="45.8779356" lon="11.5549623"><ele>1202.75</ele><time>2026-05-01T09:31:21.571Z</time></trkpt><trkpt lat="45.8780067" lon="11.5548238"><ele>1201.0</ele><time>2026-05-01T09:31:22.564Z</time></trkpt><trkpt lat="45.8780897" lon="11.5547042"><ele>1201.0</ele><time>2026-05-01T09:31:23.56Z</time></trkpt><trkpt lat="45.8781838" lon="11.5546098"><ele>1201.0</ele><time>2026-05-01T09:31:24.567Z</time></trkpt><trkpt lat="45.8782857" lon="11.554543"><ele>1201.0</ele><time>2026-05-01T09:31:25.559Z</time></trkpt><trkpt lat="45.8783881" lon="11.5544926"><ele>1201.0</ele><time>2026-05-01T09:31:26.557Z</time></trkpt><trkpt lat="45.8784889" lon="11.5544434"><ele>1201.0</ele><time>2026-05-01T09:31:27.561Z</time></trkpt><trkpt lat="45.8785881" lon="11.5544098"><ele>1198.2</ele><time>2026-05-01T09:31:28.562Z</time></trkpt><trkpt lat="45.8786873" lon="11.5543749"><ele>1195.3999999999999</ele><time>2026-05-01T09:31:29.562Z</time></trkpt><trkpt lat="45.878785" lon="11.5543319"><ele>1192.6</ele><time>2026-05-01T09:31:30.569Z</time></trkpt><trkpt lat="45.8788814" lon="11.5542794"><ele>1189.8</ele><time>2026-05-01T09:31:31.568Z</time></trkpt><trkpt lat="45.8789802" lon="11.5542122"><ele>1187.0</ele><time>2026-05-01T09:31:32.565Z</time></trkpt><trkpt lat="45.8790804" lon="11.5541247"><ele>1187.0</ele><time>2026-05-01T09:31:33.568Z</time></trkpt><trkpt lat="45.8791711" lon="11.5540323"><ele>1187.0</ele><time>2026-05-01T09:31:34.575Z</time></trkpt><trkpt lat="45.8792575" lon="11.5539387"><ele>1187.0</ele><time>2026-05-01T09:31:35.567Z</time></trkpt><trkpt lat="45.8793413" lon="11.5538497"><ele>1187.0</ele><time>2026-05-01T09:31:36.556Z</time></trkpt><trkpt lat="45.8794225" lon="11.5537629"><ele>1187.0</ele><time>2026-05-01T09:31:37.563Z</time></trkpt><trkpt lat="45.879502" lon="11.5536756"><ele>1184.4</ele><time>2026-05-01T09:31:38.573Z</time></trkpt><trkpt lat="45.8795803" lon="11.5535863"><ele>1181.8000000000002</ele><time>2026-05-01T09:31:39.565Z</time></trkpt><trkpt lat="45.8796575" lon="11.5534915"><ele>1179.2</ele><time>2026-05-01T09:31:40.566Z</time></trkpt><trkpt lat="45.8797329" lon="11.5533899"><ele>1176.6000000000001</ele><time>2026-05-01T09:31:41.564Z</time></trkpt><trkpt lat="45.8798078" lon="11.5532843"><ele>1174.0</ele><time>2026-05-01T09:31:42.574Z</time></trkpt><trkpt lat="45.8798883" lon="11.553177"><ele>1174.0</ele><time>2026-05-01T09:31:43.564Z</time></trkpt><trkpt lat="45.8799754" lon="11.5530858"><ele>1174.0</ele><time>2026-05-01T09:31:44.568Z</time></trkpt><trkpt lat="45.880072" lon="11.5530223"><ele>1174.0</ele><time>2026-05-01T09:31:45.569Z</time></trkpt><trkpt lat="45.8801707" lon="11.5529733"><ele>1174.0</ele><time>2026-05-01T09:31:46.58Z</time></trkpt><trkpt lat="45.8802694" lon="11.5529338"><ele>1174.0</ele><time>2026-05-01T09:31:47.568Z</time></trkpt><trkpt lat="45.8803696" lon="11.5529049"><ele>1171.4</ele><time>2026-05-01T09:31:48.56Z</time></trkpt><trkpt lat="45.8804701" lon="11.5528823"><ele>1168.8000000000002</ele><time>2026-05-01T09:31:49.561Z</time></trkpt><trkpt lat="45.8805702" lon="11.5528615"><ele>1166.1999999999998</ele><time>2026-05-01T09:31:50.57Z</time></trkpt><trkpt lat="45.8806705" lon="11.552842"><ele>1163.6</ele><time>2026-05-01T09:31:51.565Z</time></trkpt><trkpt lat="45.880775" lon="11.5528239"><ele>1161.0</ele><time>2026-05-01T09:31:52.575Z</time></trkpt><trkpt lat="45.8808822" lon="11.5528071"><ele>1158.25</ele><time>2026-05-01T09:31:53.571Z</time></trkpt><trkpt lat="45.8809937" lon="11.5527915"><ele>1155.5</ele><time>2026-05-01T09:31:54.57Z</time></trkpt><trkpt lat="45.8811087" lon="11.5527822"><ele>1152.75</ele><time>2026-05-01T09:31:55.585Z</time></trkpt><trkpt lat="45.8812258" lon="11.5527841"><ele>1150.0</ele><time>2026-05-01T09:31:56.572Z</time></trkpt><trkpt lat="45.8813436" lon="11.5527923"><ele>1150.0</ele><time>2026-05-01T09:31:57.564Z</time></trkpt><trkpt lat="45.8814633" lon="11.5528042"><ele>1150.0</ele><time>2026-05-01T09:31:58.567Z</time></trkpt><trkpt lat="45.8815852" lon="11.5528171"><ele>1150.0</ele><time>2026-05-01T09:31:59.57Z</time></trkpt><trkpt lat="45.881709" lon="11.5528295"><ele>1150.0</ele><time>2026-05-01T09:32:00.564Z</time></trkpt><trkpt lat="45.8818324" lon="11.5528423"><ele>1148.25</ele><time>2026-05-01T09:32:01.569Z</time></trkpt><trkpt lat="45.8819564" lon="11.5528556"><ele>1146.5</ele><time>2026-05-01T09:32:02.579Z</time></trkpt><trkpt lat="45.8820762" lon="11.5528665"><ele>1144.75</ele><time>2026-05-01T09:32:03.568Z</time></trkpt><trkpt lat="45.8821939" lon="11.5528746"><ele>1143.0</ele><time>2026-05-01T09:32:04.56Z</time></trkpt><trkpt lat="45.8823096" lon="11.5528823"><ele>1142.5</ele><time>2026-05-01T09:32:05.565Z</time></trkpt><trkpt lat="45.8824232" lon="11.5528899"><ele>1142.0</ele><time>2026-05-01T09:32:06.564Z</time></trkpt><trkpt lat="45.8825346" lon="11.5528987"><ele>1141.5</ele><time>2026-05-01T09:32:07.562Z</time></trkpt><trkpt lat="45.8826468" lon="11.5529175"><ele>1141.0</ele><time>2026-05-01T09:32:08.569Z</time></trkpt><trkpt lat="45.8827595" lon="11.5529604"><ele>1138.75</ele><time>2026-05-01T09:32:09.568Z</time></trkpt><trkpt lat="45.8828668" lon="11.5530348"><ele>1136.5</ele><time>2026-05-01T09:32:10.565Z</time></trkpt><trkpt lat="45.8829738" lon="11.5531244"><ele>1134.25</ele><time>2026-05-01T09:32:11.565Z</time></trkpt><trkpt lat="45.8830839" lon="11.553222"><ele>1132.0</ele><time>2026-05-01T09:32:12.572Z</time></trkpt><trkpt lat="45.8831959" lon="11.5533216"><ele>1132.0</ele><time>2026-05-01T09:32:13.569Z</time></trkpt><trkpt lat="45.8833103" lon="11.5534235"><ele>1132.0</ele><time>2026-05-01T09:32:14.578Z</time></trkpt><trkpt lat="45.8834259" lon="11.5535262"><ele>1132.0</ele><time>2026-05-01T09:32:15.56Z</time></trkpt><trkpt lat="45.8835438" lon="11.5536301"><ele>1132.0</ele><time>2026-05-01T09:32:16.564Z</time></trkpt><trkpt lat="45.8836617" lon="11.553737"><ele>1129.0</ele><time>2026-05-01T09:32:17.567Z</time></trkpt><trkpt lat="45.8837808" lon="11.5538436"><ele>1126.0</ele><time>2026-05-01T09:32:18.577Z</time></trkpt><trkpt lat="45.8839019" lon="11.5539506"><ele>1123.0</ele><time>2026-05-01T09:32:19.566Z</time></trkpt><trkpt lat="45.8840212" lon="11.5540577"><ele>1120.0</ele><time>2026-05-01T09:32:20.563Z</time></trkpt><trkpt lat="45.8841417" lon="11.554164"><ele>1120.0</ele><time>2026-05-01T09:32:21.562Z</time></trkpt><trkpt lat="45.8842596" lon="11.554268"><ele>1120.0</ele><time>2026-05-01T09:32:22.576Z</time></trkpt><trkpt lat="45.8843748" lon="11.5543695"><ele>1120.0</ele><time>2026-05-01T09:32:23.596Z</time></trkpt><trkpt lat="45.8844853" lon="11.5544691"><ele>1120.0</ele><time>2026-05-01T09:32:24.592Z</time></trkpt><trkpt lat="45.8845937" lon="11.5545665"><ele>1117.75</ele><time>2026-05-01T09:32:25.559Z</time></trkpt><trkpt lat="45.8847009" lon="11.554664"><ele>1115.5</ele><time>2026-05-01T09:32:26.591Z</time></trkpt><trkpt lat="45.8848054" lon="11.5547588"><ele>1113.25</ele><time>2026-05-01T09:32:27.574Z</time></trkpt><trkpt lat="45.8849013" lon="11.5548481"><ele>1111.0</ele><time>2026-05-01T09:32:28.565Z</time></trkpt><trkpt lat="45.8849845" lon="11.5549271"><ele>1111.0</ele><time>2026-05-01T09:32:29.575Z</time></trkpt><trkpt lat="45.8850635" lon="11.5549921"><ele>1111.0</ele><time>2026-05-01T09:32:30.577Z</time></trkpt><trkpt lat="45.8851435" lon="11.5550293"><ele>1111.0</ele><time>2026-05-01T09:32:31.566Z</time></trkpt><trkpt lat="45.8852267" lon="11.5550265"><ele>1111.0</ele><time>2026-05-01T09:32:32.565Z</time></trkpt><trkpt lat="45.885303" lon="11.5549803"><ele>1111.0</ele><time>2026-05-01T09:32:33.562Z</time></trkpt><trkpt lat="45.8853612" lon="11.5548915"><ele>1111.0</ele><time>2026-05-01T09:32:34.576Z</time></trkpt><trkpt lat="45.885397" lon="11.5547698"><ele>1108.75</ele><time>2026-05-01T09:32:35.578Z</time></trkpt><trkpt lat="45.8854335" lon="11.5546351"><ele>1106.5</ele><time>2026-05-01T09:32:36.564Z</time></trkpt><trkpt lat="45.8854532" lon="11.5544694"><ele>1104.25</ele><time>2026-05-01T09:32:37.564Z</time></trkpt><trkpt lat="45.8854811" lon="11.5542942"><ele>1102.0</ele><time>2026-05-01T09:32:38.574Z</time></trkpt><trkpt lat="45.885521" lon="11.5541194"><ele>1101.75</ele><time>2026-05-01T09:32:39.563Z</time></trkpt><trkpt lat="45.885573" lon="11.5539481"><ele>1101.5</ele><time>2026-05-01T09:32:40.568Z</time></trkpt><trkpt lat="45.8856315" lon="11.553783"><ele>1101.25</ele><time>2026-05-01T09:32:41.573Z</time></trkpt><trkpt lat="45.8856922" lon="11.5536244"><ele>1101.0</ele><time>2026-05-01T09:32:42.573Z</time></trkpt><trkpt lat="45.8857454" lon="11.5534773"><ele>1100.8</ele><time>2026-05-01T09:32:43.565Z</time></trkpt><trkpt lat="45.8857898" lon="11.5533343"><ele>1100.6</ele><time>2026-05-01T09:32:44.569Z</time></trkpt><trkpt lat="45.8858233" lon="11.5531889"><ele>1100.4</ele><time>2026-05-01T09:32:45.566Z</time></trkpt><trkpt lat="45.8858562" lon="11.5530402"><ele>1100.2</ele><time>2026-05-01T09:32:46.57Z</time></trkpt><trkpt lat="45.8858653" lon="11.5528806"><ele>1100.0</ele><time>2026-05-01T09:32:47.562Z</time></trkpt><trkpt lat="45.8858508" lon="11.5527222"><ele>1099.0</ele><time>2026-05-01T09:32:48.568Z</time></trkpt><trkpt lat="45.8858188" lon="11.5525639"><ele>1098.0</ele><time>2026-05-01T09:32:49.568Z</time></trkpt><trkpt lat="45.8857731" lon="11.552397"><ele>1097.0</ele><time>2026-05-01T09:32:50.573Z</time></trkpt><trkpt lat="45.8857218" lon="11.5522217"><ele>1096.0</ele><time>2026-05-01T09:32:51.572Z</time></trkpt><trkpt lat="45.8856756" lon="11.5520446"><ele>1094.0</ele><time>2026-05-01T09:32:52.571Z</time></trkpt><trkpt lat="45.8856468" lon="11.5518674"><ele>1092.0</ele><time>2026-05-01T09:32:53.56Z</time></trkpt><trkpt lat="45.8856455" lon="11.5517031"><ele>1090.0</ele><time>2026-05-01T09:32:54.562Z</time></trkpt><trkpt lat="45.8856824" lon="11.5515508"><ele>1088.0</ele><time>2026-05-01T09:32:55.563Z</time></trkpt><trkpt lat="45.885757" lon="11.5514204"><ele>1088.0</ele><time>2026-05-01T09:32:56.562Z</time></trkpt><trkpt lat="45.8858556" lon="11.5513074"><ele>1088.0</ele><time>2026-05-01T09:32:57.566Z</time></trkpt><trkpt lat="45.8859609" lon="11.5511947"><ele>1088.0</ele><time>2026-05-01T09:32:58.568Z</time></trkpt><trkpt lat="45.886063" lon="11.5510802"><ele>1088.0</ele><time>2026-05-01T09:32:59.563Z</time></trkpt><trkpt lat="45.8861482" lon="11.5509681"><ele>1086.4</ele><time>2026-05-01T09:33:00.564Z</time></trkpt><trkpt lat="45.8862098" lon="11.5508459"><ele>1084.8</ele><time>2026-05-01T09:33:01.561Z</time></trkpt><trkpt lat="45.8862458" lon="11.5507056"><ele>1083.2</ele><time>2026-05-01T09:33:02.56Z</time></trkpt><trkpt lat="45.8862624" lon="11.5505556"><ele>1081.6</ele><time>2026-05-01T09:33:03.563Z</time></trkpt><trkpt lat="45.8862596" lon="11.5504018"><ele>1080.0</ele><time>2026-05-01T09:33:04.564Z</time></trkpt><trkpt lat="45.8862424" lon="11.5502484"><ele>1079.2</ele><time>2026-05-01T09:33:05.563Z</time></trkpt><trkpt lat="45.8862183" lon="11.5500987"><ele>1078.4</ele><time>2026-05-01T09:33:06.564Z</time></trkpt><trkpt lat="45.8861928" lon="11.5499522"><ele>1077.6</ele><time>2026-05-01T09:33:07.564Z</time></trkpt><trkpt lat="45.8861678" lon="11.5498051"><ele>1076.8</ele><time>2026-05-01T09:33:08.568Z</time></trkpt><trkpt lat="45.8861501" lon="11.5496599"><ele>1076.0</ele><time>2026-05-01T09:33:09.571Z</time></trkpt><trkpt lat="45.8861454" lon="11.5495172"><ele>1075.8333333333335</ele><time>2026-05-01T09:33:10.562Z</time></trkpt><trkpt lat="45.8861595" lon="11.5493806"><ele>1075.6666666666667</ele><time>2026-05-01T09:33:11.562Z</time></trkpt><trkpt lat="45.8861905" lon="11.5492565"><ele>1075.5</ele><time>2026-05-01T09:33:12.561Z</time></trkpt><trkpt lat="45.8862277" lon="11.5491441"><ele>1075.3333333333333</ele><time>2026-05-01T09:33:13.57Z</time></trkpt><trkpt lat="45.8862639" lon="11.5490395"><ele>1075.1666666666665</ele><time>2026-05-01T09:33:14.562Z</time></trkpt><trkpt lat="45.8862952" lon="11.5489387"><ele>1075.0</ele><time>2026-05-01T09:33:15.56Z</time></trkpt><trkpt lat="45.8863226" lon="11.5488375"><ele>1075.0000000000002</ele><time>2026-05-01T09:33:16.565Z</time></trkpt><trkpt lat="45.8863476" lon="11.548739"><ele>1075.0</ele><time>2026-05-01T09:33:17.565Z</time></trkpt><trkpt lat="45.8863769" lon="11.5486517"><ele>1075.0</ele><time>2026-05-01T09:33:18.57Z</time></trkpt><trkpt lat="45.8864202" lon="11.5485827"><ele>1075.0</ele><time>2026-05-01T09:33:19.562Z</time></trkpt><trkpt lat="45.8864828" lon="11.5485446"><ele>1075.0</ele><time>2026-05-01T09:33:20.563Z</time></trkpt><trkpt lat="45.8865591" lon="11.5485423"><ele>1075.0000000000002</ele><time>2026-05-01T09:33:21.559Z</time></trkpt><trkpt lat="45.8866496" lon="11.5485675"><ele>1075.0</ele><time>2026-05-01T09:33:22.568Z</time></trkpt><trkpt lat="45.8867544" lon="11.5486025"><ele>1076.75</ele><time>2026-05-01T09:33:23.562Z</time></trkpt><trkpt lat="45.8868686" lon="11.5486434"><ele>1078.5</ele><time>2026-05-01T09:33:24.564Z</time></trkpt><trkpt lat="45.8870006" lon="11.5486682"><ele>1080.25</ele><time>2026-05-01T09:33:25.568Z</time></trkpt><trkpt lat="45.8871371" lon="11.5486789"><ele>1082.0</ele><time>2026-05-01T09:33:26.575Z</time></trkpt><trkpt lat="45.8872714" lon="11.5486904"><ele>1082.0</ele><time>2026-05-01T09:33:27.579Z</time></trkpt><trkpt lat="45.8874144" lon="11.5486847"><ele>1082.0</ele><time>2026-05-01T09:33:28.564Z</time></trkpt><trkpt lat="45.8875557" lon="11.5486788"><ele>1082.0</ele><time>2026-05-01T09:33:29.567Z</time></trkpt><trkpt lat="45.8876952" lon="11.5486665"><ele>1082.0</ele><time>2026-05-01T09:33:30.587Z</time></trkpt><trkpt lat="45.8878305" lon="11.5486205"><ele>1082.0</ele><time>2026-05-01T09:33:31.562Z</time></trkpt><trkpt lat="45.8879526" lon="11.5485433"><ele>1082.0</ele><time>2026-05-01T09:33:32.579Z</time></trkpt><trkpt lat="45.888057" lon="11.5484413"><ele>1082.0</ele><time>2026-05-01T09:33:33.573Z</time></trkpt><trkpt lat="45.8881474" lon="11.548329"><ele>1082.0</ele><time>2026-05-01T09:33:34.575Z</time></trkpt><trkpt lat="45.8882355" lon="11.5482207"><ele>1082.0</ele><time>2026-05-01T09:33:35.578Z</time></trkpt><trkpt lat="45.8883235" lon="11.5481208"><ele>1082.0</ele><time>2026-05-01T09:33:36.588Z</time></trkpt><trkpt lat="45.8884107" lon="11.5480208"><ele>1082.0</ele><time>2026-05-01T09:33:37.578Z</time></trkpt><trkpt lat="45.8885191" lon="11.5479547"><ele>1082.0</ele><time>2026-05-01T09:33:38.579Z</time></trkpt><trkpt lat="45.8886321" lon="11.5478965"><ele>1081.25</ele><time>2026-05-01T09:33:39.576Z</time></trkpt><trkpt lat="45.888747" lon="11.5478474"><ele>1080.5</ele><time>2026-05-01T09:33:40.574Z</time></trkpt><trkpt lat="45.8888642" lon="11.5478005"><ele>1079.75</ele><time>2026-05-01T09:33:41.563Z</time></trkpt><trkpt lat="45.8889812" lon="11.5477845"><ele>1079.0</ele><time>2026-05-01T09:33:42.565Z</time></trkpt><trkpt lat="45.8890991" lon="11.5477721"><ele>1079.0</ele><time>2026-05-01T09:33:43.574Z</time></trkpt><trkpt lat="45.889223" lon="11.5477756"><ele>1079.0</ele><time>2026-05-01T09:33:44.583Z</time></trkpt><trkpt lat="45.8893427" lon="11.5477796"><ele>1079.0</ele><time>2026-05-01T09:33:45.576Z</time></trkpt><trkpt lat="45.8894569" lon="11.5477863"><ele>1079.0</ele><time>2026-05-01T09:33:46.578Z</time></trkpt><trkpt lat="45.8895696" lon="11.5477903"><ele>1079.0</ele><time>2026-05-01T09:33:47.581Z</time></trkpt><trkpt lat="45.8896722" lon="11.5477982"><ele>1079.0</ele><time>2026-05-01T09:33:48.575Z</time></trkpt><trkpt lat="45.8897702" lon="11.5478042"><ele>1079.0</ele><time>2026-05-01T09:33:49.578Z</time></trkpt><trkpt lat="45.8898679" lon="11.5478122"><ele>1079.0</ele><time>2026-05-01T09:33:50.571Z</time></trkpt><trkpt lat="45.889971" lon="11.5478227"><ele>1079.0</ele><time>2026-05-01T09:33:51.576Z</time></trkpt><trkpt lat="45.8900761" lon="11.5478399"><ele>1079.25</ele><time>2026-05-01T09:33:52.581Z</time></trkpt><trkpt lat="45.8901818" lon="11.5478661"><ele>1079.5</ele><time>2026-05-01T09:33:53.579Z</time></trkpt><trkpt lat="45.8902919" lon="11.5479004"><ele>1079.75</ele><time>2026-05-01T09:33:54.574Z</time></trkpt><trkpt lat="45.8904056" lon="11.5479421"><ele>1080.0</ele><time>2026-05-01T09:33:55.574Z</time></trkpt><trkpt lat="45.8905172" lon="11.547986"><ele>1080.0</ele><time>2026-05-01T09:33:56.578Z</time></trkpt><trkpt lat="45.8906337" lon="11.5480286"><ele>1080.0</ele><time>2026-05-01T09:33:57.588Z</time></trkpt><trkpt lat="45.8907527" lon="11.5480715"><ele>1080.0</ele><time>2026-05-01T09:33:58.582Z</time></trkpt><trkpt lat="45.8908717" lon="11.5481103"><ele>1080.0</ele><time>2026-05-01T09:33:59.576Z</time></trkpt><trkpt lat="45.8909892" lon="11.5481313"><ele>1081.0</ele><time>2026-05-01T09:34:00.579Z</time></trkpt><trkpt lat="45.8911083" lon="11.5481315"><ele>1082.0</ele><time>2026-05-01T09:34:01.575Z</time></trkpt><trkpt lat="45.8912275" lon="11.5481116"><ele>1083.0</ele><time>2026-05-01T09:34:02.584Z</time></trkpt><trkpt lat="45.8913444" lon="11.5480765"><ele>1084.0</ele><time>2026-05-01T09:34:03.583Z</time></trkpt><trkpt lat="45.8914626" lon="11.5480313"><ele>1084.0</ele><time>2026-05-01T09:34:04.575Z</time></trkpt><trkpt lat="45.8915706" lon="11.5479828"><ele>1084.0</ele><time>2026-05-01T09:34:05.579Z</time></trkpt><trkpt lat="45.8916718" lon="11.5479389"><ele>1084.0</ele><time>2026-05-01T09:34:06.578Z</time></trkpt><trkpt lat="45.8917564" lon="11.5478989"><ele>1084.0</ele><time>2026-05-01T09:34:07.588Z</time></trkpt><trkpt lat="45.8918328" lon="11.5478662"><ele>1084.0</ele><time>2026-05-01T09:34:08.576Z</time></trkpt><trkpt lat="45.8919122" lon="11.5478272"><ele>1084.6000000000001</ele><time>2026-05-01T09:34:09.577Z</time></trkpt><trkpt lat="45.8919898" lon="11.5478029"><ele>1085.2</ele><time>2026-05-01T09:34:10.577Z</time></trkpt><trkpt lat="45.8920583" lon="11.5477922"><ele>1085.8000000000002</ele><time>2026-05-01T09:34:11.6Z</time></trkpt><trkpt lat="45.8921792" lon="11.547812"><ele>1086.4</ele><time>2026-05-01T09:34:13.579Z</time></trkpt><trkpt lat="45.892284" lon="11.5478537"><ele>1087.0</ele><time>2026-05-01T09:34:15.578Z</time></trkpt><trkpt lat="45.8923591" lon="11.5478753"><ele>1086.75</ele><time>2026-05-01T09:34:17.576Z</time></trkpt><trkpt lat="45.8924813" lon="11.5479902"><ele>1086.5</ele><time>2026-05-01T09:34:29.565Z</time></trkpt><trkpt lat="45.8924747" lon="11.5481916"><ele>1086.25</ele><time>2026-05-01T09:34:31.569Z</time></trkpt><trkpt lat="45.8924657" lon="11.5483132"><ele>1086.0</ele><time>2026-05-01T09:34:32.58Z</time></trkpt><trkpt lat="45.892451" lon="11.5484327"><ele>1086.0</ele><time>2026-05-01T09:34:33.575Z</time></trkpt><trkpt lat="45.8924343" lon="11.5485491"><ele>1086.0</ele><time>2026-05-01T09:34:34.583Z</time></trkpt><trkpt lat="45.8924181" lon="11.5486493"><ele>1086.0</ele><time>2026-05-01T09:34:35.579Z</time></trkpt><trkpt lat="45.8924046" lon="11.5487398"><ele>1086.0</ele><time>2026-05-01T09:34:36.578Z</time></trkpt><trkpt lat="45.8923877" lon="11.548829"><ele>1086.0</ele><time>2026-05-01T09:34:37.595Z</time></trkpt><trkpt lat="45.8923728" lon="11.5489273"><ele>1086.0</ele><time>2026-05-01T09:34:38.578Z</time></trkpt><trkpt lat="45.89236" lon="11.5490391"><ele>1086.0</ele><time>2026-05-01T09:34:39.58Z</time></trkpt><trkpt lat="45.8923451" lon="11.5491504"><ele>1086.0</ele><time>2026-05-01T09:34:40.563Z</time></trkpt><trkpt lat="45.8923298" lon="11.5492668"><ele>1086.0</ele><time>2026-05-01T09:34:41.565Z</time></trkpt><trkpt lat="45.8923174" lon="11.54939"><ele>1086.0</ele><time>2026-05-01T09:34:42.575Z</time></trkpt><trkpt lat="45.8923043" lon="11.5495132"><ele>1086.0</ele><time>2026-05-01T09:34:43.589Z</time></trkpt><trkpt lat="45.8922911" lon="11.549635"><ele>1086.0</ele><time>2026-05-01T09:34:44.583Z</time></trkpt><trkpt lat="45.8922782" lon="11.549748"><ele>1086.0</ele><time>2026-05-01T09:34:45.565Z</time></trkpt><trkpt lat="45.8922683" lon="11.5498594"><ele>1086.6666666666667</ele><time>2026-05-01T09:34:46.583Z</time></trkpt><trkpt lat="45.8922544" lon="11.5499729"><ele>1087.3333333333333</ele><time>2026-05-01T09:34:47.564Z</time></trkpt><trkpt lat="45.8922375" lon="11.5500877"><ele>1088.0</ele><time>2026-05-01T09:34:48.576Z</time></trkpt><trkpt lat="45.8922221" lon="11.5502056"><ele>1088.6666666666665</ele><time>2026-05-01T09:34:49.566Z</time></trkpt><trkpt lat="45.8922057" lon="11.550325"><ele>1089.3333333333333</ele><time>2026-05-01T09:34:50.588Z</time></trkpt><trkpt lat="45.8921904" lon="11.5504496"><ele>1090.0</ele><time>2026-05-01T09:34:51.599Z</time></trkpt><trkpt lat="45.8921751" lon="11.5505759"><ele>1091.2</ele><time>2026-05-01T09:34:52.582Z</time></trkpt><trkpt lat="45.8921561" lon="11.5506972"><ele>1092.4</ele><time>2026-05-01T09:34:53.588Z</time></trkpt><trkpt lat="45.8921386" lon="11.5508218"><ele>1093.6</ele><time>2026-05-01T09:34:54.573Z</time></trkpt><trkpt lat="45.8921217" lon="11.5509545"><ele>1094.8</ele><time>2026-05-01T09:34:55.584Z</time></trkpt><trkpt lat="45.8921026" lon="11.5510975"><ele>1096.0</ele><time>2026-05-01T09:34:56.575Z</time></trkpt><trkpt lat="45.8920824" lon="11.5512541"><ele>1096.5</ele><time>2026-05-01T09:34:57.579Z</time></trkpt><trkpt lat="45.8920591" lon="11.5514242"><ele>1097.0</ele><time>2026-05-01T09:34:58.578Z</time></trkpt><trkpt lat="45.8920392" lon="11.5516064"><ele>1097.5</ele><time>2026-05-01T09:34:59.581Z</time></trkpt><trkpt lat="45.8920162" lon="11.5517945"><ele>1098.0</ele><time>2026-05-01T09:35:00.582Z</time></trkpt><trkpt lat="45.8919943" lon="11.5519679"><ele>1098.5</ele><time>2026-05-01T09:35:01.58Z</time></trkpt><trkpt lat="45.8919753" lon="11.5521317"><ele>1099.0</ele><time>2026-05-01T09:35:02.577Z</time></trkpt><trkpt lat="45.8919651" lon="11.5522986"><ele>1099.5</ele><time>2026-05-01T09:35:03.574Z</time></trkpt><trkpt lat="45.8919895" lon="11.5524822"><ele>1100.0</ele><time>2026-05-01T09:35:04.581Z</time></trkpt><trkpt lat="45.8920281" lon="11.5526734"><ele>1100.0</ele><time>2026-05-01T09:35:05.579Z</time></trkpt><trkpt lat="45.8920594" lon="11.5528504"><ele>1100.0</ele><time>2026-05-01T09:35:06.58Z</time></trkpt><trkpt lat="45.8920815" lon="11.5530091"><ele>1100.0</ele><time>2026-05-01T09:35:07.581Z</time></trkpt><trkpt lat="45.8920918" lon="11.5531662"><ele>1100.0</ele><time>2026-05-01T09:35:08.575Z</time></trkpt><trkpt lat="45.89209" lon="11.5533235"><ele>1100.5</ele><time>2026-05-01T09:35:09.569Z</time></trkpt><trkpt lat="45.8920819" lon="11.5534809"><ele>1101.0</ele><time>2026-05-01T09:35:10.578Z</time></trkpt><trkpt lat="45.8920733" lon="11.5536368"><ele>1101.5</ele><time>2026-05-01T09:35:11.565Z</time></trkpt><trkpt lat="45.8920657" lon="11.5538038"><ele>1102.0</ele><time>2026-05-01T09:35:12.581Z</time></trkpt><trkpt lat="45.8920626" lon="11.5539808"><ele>1104.0</ele><time>2026-05-01T09:35:13.578Z</time></trkpt><trkpt lat="45.8920625" lon="11.5541551"><ele>1106.0</ele><time>2026-05-01T09:35:14.56Z</time></trkpt><trkpt lat="45.8920687" lon="11.5543381"><ele>1108.0</ele><time>2026-05-01T09:35:15.576Z</time></trkpt><trkpt lat="45.8920813" lon="11.5545184"><ele>1110.0</ele><time>2026-05-01T09:35:16.571Z</time></trkpt><trkpt lat="45.8921057" lon="11.554701"><ele>1110.75</ele><time>2026-05-01T09:35:17.575Z</time></trkpt><trkpt lat="45.8921373" lon="11.5548842"><ele>1111.5</ele><time>2026-05-01T09:35:18.587Z</time></trkpt><trkpt lat="45.8921734" lon="11.555063"><ele>1112.25</ele><time>2026-05-01T09:35:19.579Z</time></trkpt><trkpt lat="45.892209" lon="11.5552391"><ele>1113.0</ele><time>2026-05-01T09:35:20.604Z</time></trkpt><trkpt lat="45.8922409" lon="11.5554162"><ele>1113.0</ele><time>2026-05-01T09:35:21.581Z</time></trkpt><trkpt lat="45.8922655" lon="11.5555942"><ele>1113.0</ele><time>2026-05-01T09:35:22.559Z</time></trkpt><trkpt lat="45.8922819" lon="11.5557731"><ele>1113.0</ele><time>2026-05-01T09:35:23.564Z</time></trkpt><trkpt lat="45.892302" lon="11.5559512"><ele>1113.0</ele><time>2026-05-01T09:35:24.599Z</time></trkpt><trkpt lat="45.8923332" lon="11.5561262"><ele>1112.5</ele><time>2026-05-01T09:35:25.583Z</time></trkpt><trkpt lat="45.8923752" lon="11.5563017"><ele>1112.0</ele><time>2026-05-01T09:35:26.585Z</time></trkpt><trkpt lat="45.8924258" lon="11.5564744"><ele>1111.5</ele><time>2026-05-01T09:35:27.579Z</time></trkpt><trkpt lat="45.8924882" lon="11.5566419"><ele>1111.0</ele><time>2026-05-01T09:35:28.592Z</time></trkpt><trkpt lat="45.8926309" lon="11.5569572"><ele>1114.5</ele><time>2026-05-01T09:35:30.588Z</time></trkpt><trkpt lat="45.89271" lon="11.5571141"><ele>1118.0</ele><time>2026-05-01T09:35:31.599Z</time></trkpt><trkpt lat="45.8927948" lon="11.5572738"><ele>1121.5</ele><time>2026-05-01T09:35:32.567Z</time></trkpt><trkpt lat="45.8928865" lon="11.5574344"><ele>1125.0</ele><time>2026-05-01T09:35:33.574Z</time></trkpt><trkpt lat="45.8929852" lon="11.5575971"><ele>1125.0</ele><time>2026-05-01T09:35:34.575Z</time></trkpt><trkpt lat="45.8930836" lon="11.5577579"><ele>1125.0</ele><time>2026-05-01T09:35:35.576Z</time></trkpt><trkpt lat="45.893184" lon="11.5579174"><ele>1125.0</ele><time>2026-05-01T09:35:36.564Z</time></trkpt><trkpt lat="45.8932876" lon="11.5580736"><ele>1125.0</ele><time>2026-05-01T09:35:37.562Z</time></trkpt><trkpt lat="45.8933931" lon="11.5582275"><ele>1126.0</ele><time>2026-05-01T09:35:38.565Z</time></trkpt><trkpt lat="45.8934981" lon="11.5583786"><ele>1127.0</ele><time>2026-05-01T09:35:39.56Z</time></trkpt><trkpt lat="45.8936029" lon="11.558528"><ele>1128.0</ele><time>2026-05-01T09:35:40.605Z</time></trkpt><trkpt lat="45.8937091" lon="11.5586731"><ele>1129.0</ele><time>2026-05-01T09:35:41.595Z</time></trkpt><trkpt lat="45.8938229" lon="11.5588109"><ele>1129.0</ele><time>2026-05-01T09:35:42.568Z</time></trkpt><trkpt lat="45.8939444" lon="11.5589392"><ele>1129.0</ele><time>2026-05-01T09:35:43.563Z</time></trkpt><trkpt lat="45.8940739" lon="11.5590616"><ele>1129.0</ele><time>2026-05-01T09:35:44.563Z</time></trkpt><trkpt lat="45.8942132" lon="11.5591858"><ele>1133.3333333333333</ele><time>2026-05-01T09:35:45.563Z</time></trkpt><trkpt lat="45.8943545" lon="11.5593121"><ele>1137.6666666666667</ele><time>2026-05-01T09:35:46.564Z</time></trkpt><trkpt lat="45.8944827" lon="11.5594409"><ele>1142.0</ele><time>2026-05-01T09:35:47.565Z</time></trkpt><trkpt lat="45.8945993" lon="11.5595784"><ele>1142.0</ele><time>2026-05-01T09:35:48.565Z</time></trkpt><trkpt lat="45.8947065" lon="11.5597214"><ele>1142.0</ele><time>2026-05-01T09:35:49.563Z</time></trkpt><trkpt lat="45.8948113" lon="11.5598613"><ele>1142.0</ele><time>2026-05-01T09:35:50.566Z</time></trkpt><trkpt lat="45.8949069" lon="11.5599994"><ele>1142.0</ele><time>2026-05-01T09:35:51.566Z</time></trkpt><trkpt lat="45.8949978" lon="11.5601433"><ele>1142.0</ele><time>2026-05-01T09:35:52.567Z</time></trkpt><trkpt lat="45.8950871" lon="11.5602851"><ele>1142.0</ele><time>2026-05-01T09:35:53.567Z</time></trkpt><trkpt lat="45.8951703" lon="11.5604228"><ele>1142.0</ele><time>2026-05-01T09:35:54.565Z</time></trkpt><trkpt lat="45.8952444" lon="11.5605474"><ele>1142.0</ele><time>2026-05-01T09:35:55.575Z</time></trkpt><trkpt lat="45.8953257" lon="11.5606522"><ele>1140.75</ele><time>2026-05-01T09:35:56.561Z</time></trkpt><trkpt lat="45.895427" lon="11.5607113"><ele>1139.5</ele><time>2026-05-01T09:35:57.556Z</time></trkpt><trkpt lat="45.8955374" lon="11.5607073"><ele>1138.25</ele><time>2026-05-01T09:35:58.571Z</time></trkpt><trkpt lat="45.8956452" lon="11.560648"><ele>1137.0</ele><time>2026-05-01T09:35:59.566Z</time></trkpt><trkpt lat="45.895741" lon="11.5605382"><ele>1137.0</ele><time>2026-05-01T09:36:00.562Z</time></trkpt><trkpt lat="45.8958234" lon="11.5603973"><ele>1137.0</ele><time>2026-05-01T09:36:01.564Z</time></trkpt><trkpt lat="45.8958869" lon="11.5602373"><ele>1137.0</ele><time>2026-05-01T09:36:02.564Z</time></trkpt><trkpt lat="45.8959316" lon="11.5600559"><ele>1137.0</ele><time>2026-05-01T09:36:03.563Z</time></trkpt><trkpt lat="45.8959618" lon="11.5598727"><ele>1136.25</ele><time>2026-05-01T09:36:04.563Z</time></trkpt><trkpt lat="45.8959909" lon="11.559688"><ele>1135.5</ele><time>2026-05-01T09:36:05.56Z</time></trkpt><trkpt lat="45.8960153" lon="11.5595135"><ele>1134.75</ele><time>2026-05-01T09:36:06.561Z</time></trkpt><trkpt lat="45.8960382" lon="11.5593597"><ele>1134.0</ele><time>2026-05-01T09:36:07.558Z</time></trkpt><trkpt lat="45.896059" lon="11.559226"><ele>1141.6000000000001</ele><time>2026-05-01T09:36:08.563Z</time></trkpt><trkpt lat="45.8961209" lon="11.5591259"><ele>1149.2</ele><time>2026-05-01T09:36:09.565Z</time></trkpt><trkpt lat="45.896178" lon="11.5590261"><ele>1156.8000000000002</ele><time>2026-05-01T09:36:10.565Z</time></trkpt><trkpt lat="45.8962794" lon="11.5590089"><ele>1164.4</ele><time>2026-05-01T09:36:11.563Z</time></trkpt><trkpt lat="45.8963917" lon="11.5590162"><ele>1172.0</ele><time>2026-05-01T09:36:12.568Z</time></trkpt><trkpt lat="45.8965083" lon="11.5590605"><ele>1172.0</ele><time>2026-05-01T09:36:13.559Z</time></trkpt><trkpt lat="45.8966337" lon="11.5590918"><ele>1172.0</ele><time>2026-05-01T09:36:14.563Z</time></trkpt><trkpt lat="45.8967481" lon="11.559097"><ele>1172.0</ele><time>2026-05-01T09:36:15.565Z</time></trkpt><trkpt lat="45.8968674" lon="11.5590948"><ele>1172.0</ele><time>2026-05-01T09:36:16.571Z</time></trkpt><trkpt lat="45.8969781" lon="11.5590352"><ele>1173.6</ele><time>2026-05-01T09:36:17.567Z</time></trkpt><trkpt lat="45.8970966" lon="11.5589953"><ele>1175.2</ele><time>2026-05-01T09:36:18.557Z</time></trkpt><trkpt lat="45.8972077" lon="11.5589455"><ele>1176.8</ele><time>2026-05-01T09:36:19.561Z</time></trkpt><trkpt lat="45.8973058" lon="11.5589217"><ele>1178.4</ele><time>2026-05-01T09:36:20.569Z</time></trkpt><trkpt lat="45.8974051" lon="11.5589059"><ele>1180.0</ele><time>2026-05-01T09:36:21.564Z</time></trkpt><trkpt lat="45.8975031" lon="11.5589834"><ele>1185.25</ele><time>2026-05-01T09:36:22.562Z</time></trkpt><trkpt lat="45.8976075" lon="11.5590859"><ele>1190.5</ele><time>2026-05-01T09:36:23.563Z</time></trkpt><trkpt lat="45.8977088" lon="11.5592019"><ele>1195.75</ele><time>2026-05-01T09:36:24.569Z</time></trkpt><trkpt lat="45.8978133" lon="11.5593436"><ele>1201.0</ele><time>2026-05-01T09:36:25.567Z</time></trkpt><trkpt lat="45.8979129" lon="11.559494"><ele>1196.25</ele><time>2026-05-01T09:36:26.564Z</time></trkpt><trkpt lat="45.8980172" lon="11.5596429"><ele>1191.5</ele><time>2026-05-01T09:36:27.564Z</time></trkpt><trkpt lat="45.8981156" lon="11.5597985"><ele>1186.75</ele><time>2026-05-01T09:36:28.569Z</time></trkpt><trkpt lat="45.8982189" lon="11.5599567"><ele>1182.0</ele><time>2026-05-01T09:36:29.565Z</time></trkpt><trkpt lat="45.8983186" lon="11.5601114"><ele>1182.0</ele><time>2026-05-01T09:36:30.573Z</time></trkpt><trkpt lat="45.8984101" lon="11.5602717"><ele>1182.0</ele><time>2026-05-01T09:36:31.559Z</time></trkpt><trkpt lat="45.8984931" lon="11.5604212"><ele>1182.0</ele><time>2026-05-01T09:36:32.563Z</time></trkpt><trkpt lat="45.8985724" lon="11.5605578"><ele>1182.0</ele><time>2026-05-01T09:36:33.562Z</time></trkpt><trkpt lat="45.8986693" lon="11.5606819"><ele>1185.25</ele><time>2026-05-01T09:36:34.564Z</time></trkpt><trkpt lat="45.8987805" lon="11.5607751"><ele>1188.5</ele><time>2026-05-01T09:36:35.563Z</time></trkpt><trkpt lat="45.8988898" lon="11.5608582"><ele>1191.75</ele><time>2026-05-01T09:36:36.563Z</time></trkpt><trkpt lat="45.898993" lon="11.5609365"><ele>1195.0</ele><time>2026-05-01T09:36:37.561Z</time></trkpt><trkpt lat="45.8990883" lon="11.5610072"><ele>1195.0</ele><time>2026-05-01T09:36:38.564Z</time></trkpt><trkpt lat="45.8991815" lon="11.5610816"><ele>1195.0</ele><time>2026-05-01T09:36:39.564Z</time></trkpt><trkpt lat="45.8992748" lon="11.5611556"><ele>1195.0</ele><time>2026-05-01T09:36:40.562Z</time></trkpt><trkpt lat="45.8993606" lon="11.5612188"><ele>1195.0</ele><time>2026-05-01T09:36:41.569Z</time></trkpt><trkpt lat="45.8994491" lon="11.5612745"><ele>1195.0</ele><time>2026-05-01T09:36:42.568Z</time></trkpt><trkpt lat="45.89954" lon="11.5612976"><ele>1194.0</ele><time>2026-05-01T09:36:43.564Z</time></trkpt><trkpt lat="45.8996257" lon="11.5612755"><ele>1193.0</ele><time>2026-05-01T09:36:44.564Z</time></trkpt><trkpt lat="45.8996987" lon="11.5611949"><ele>1192.0</ele><time>2026-05-01T09:36:45.56Z</time></trkpt><trkpt lat="45.8997538" lon="11.5610843"><ele>1191.0</ele><time>2026-05-01T09:36:46.558Z</time></trkpt><trkpt lat="45.8998071" lon="11.5609699"><ele>1190.0</ele><time>2026-05-01T09:36:47.56Z</time></trkpt><trkpt lat="45.8998808" lon="11.5608608"><ele>1192.75</ele><time>2026-05-01T09:36:48.563Z</time></trkpt><trkpt lat="45.8999894" lon="11.5607546"><ele>1195.5</ele><time>2026-05-01T09:36:49.563Z</time></trkpt><trkpt lat="45.900108" lon="11.5606434"><ele>1198.25</ele><time>2026-05-01T09:36:50.574Z</time></trkpt><trkpt lat="45.9002115" lon="11.5605435"><ele>1201.0</ele><time>2026-05-01T09:36:51.565Z</time></trkpt><trkpt lat="45.9002929" lon="11.5604637"><ele>1204.3999999999999</ele><time>2026-05-01T09:36:52.565Z</time></trkpt><trkpt lat="45.9003571" lon="11.5603989"><ele>1207.8</ele><time>2026-05-01T09:36:53.569Z</time></trkpt><trkpt lat="45.9004143" lon="11.5603426"><ele>1211.1999999999998</ele><time>2026-05-01T09:36:54.581Z</time></trkpt><trkpt lat="45.900532" lon="11.560307"><ele>1214.6</ele><time>2026-05-01T09:36:56.594Z</time></trkpt><trkpt lat="45.9006187" lon="11.5604185"><ele>1218.0</ele><time>2026-05-01T09:36:58.573Z</time></trkpt><trkpt lat="45.9006382" lon="11.5605087"><ele>1218.0</ele><time>2026-05-01T09:36:59.569Z</time></trkpt><trkpt lat="45.9006534" lon="11.560602"><ele>1218.0</ele><time>2026-05-01T09:37:00.57Z</time></trkpt><trkpt lat="45.9006729" lon="11.5607016"><ele>1218.0</ele><time>2026-05-01T09:37:01.567Z</time></trkpt><trkpt lat="45.9006897" lon="11.560831"><ele>1218.0</ele><time>2026-05-01T09:37:02.571Z</time></trkpt><trkpt lat="45.9007532" lon="11.5609581"><ele>1218.0</ele><time>2026-05-01T09:37:03.564Z</time></trkpt><trkpt lat="45.9008195" lon="11.5611054"><ele>1216.0</ele><time>2026-05-01T09:37:04.57Z</time></trkpt><trkpt lat="45.9008778" lon="11.5612668"><ele>1214.0</ele><time>2026-05-01T09:37:05.567Z</time></trkpt><trkpt lat="45.9009316" lon="11.5614139"><ele>1212.0</ele><time>2026-05-01T09:37:06.566Z</time></trkpt><trkpt lat="45.9009941" lon="11.5615407"><ele>1210.0</ele><time>2026-05-01T09:37:07.561Z</time></trkpt><trkpt lat="45.9010688" lon="11.5616432"><ele>1215.8</ele><time>2026-05-01T09:37:08.574Z</time></trkpt><trkpt lat="45.9011555" lon="11.5617237"><ele>1221.6</ele><time>2026-05-01T09:37:09.561Z</time></trkpt><trkpt lat="45.9012414" lon="11.5617994"><ele>1227.4</ele><time>2026-05-01T09:37:10.57Z</time></trkpt><trkpt lat="45.9013153" lon="11.5618807"><ele>1233.2</ele><time>2026-05-01T09:37:11.565Z</time></trkpt><trkpt lat="45.9013653" lon="11.5619867"><ele>1239.0</ele><time>2026-05-01T09:37:12.565Z</time></trkpt><trkpt lat="45.9013888" lon="11.5621121"><ele>1239.0</ele><time>2026-05-01T09:37:13.566Z</time></trkpt><trkpt lat="45.9013994" lon="11.5622515"><ele>1239.0</ele><time>2026-05-01T09:37:14.56Z</time></trkpt><trkpt lat="45.9014111" lon="11.5623928"><ele>1239.0</ele><time>2026-05-01T09:37:15.561Z</time></trkpt><trkpt lat="45.9014186" lon="11.5625272"><ele>1239.0</ele><time>2026-05-01T09:37:16.568Z</time></trkpt><trkpt lat="45.9014271" lon="11.5626521"><ele>1239.0</ele><time>2026-05-01T09:37:17.572Z</time></trkpt><trkpt lat="45.901428" lon="11.562774"><ele>1239.1666666666667</ele><time>2026-05-01T09:37:18.566Z</time></trkpt><trkpt lat="45.9014176" lon="11.5628988"><ele>1239.3333333333333</ele><time>2026-05-01T09:37:19.566Z</time></trkpt><trkpt lat="45.9014062" lon="11.5630145"><ele>1239.5</ele><time>2026-05-01T09:37:20.563Z</time></trkpt><trkpt lat="45.9013882" lon="11.5631199"><ele>1239.6666666666665</ele><time>2026-05-01T09:37:21.559Z</time></trkpt><trkpt lat="45.9013748" lon="11.5632184"><ele>1239.8333333333333</ele><time>2026-05-01T09:37:22.569Z</time></trkpt><trkpt lat="45.9013707" lon="11.5633203"><ele>1240.0</ele><time>2026-05-01T09:37:23.565Z</time></trkpt><trkpt lat="45.9013747" lon="11.5634228"><ele>1240.0</ele><time>2026-05-01T09:37:24.569Z</time></trkpt><trkpt lat="45.9014129" lon="11.5635257"><ele>1240.0</ele><time>2026-05-01T09:37:25.562Z</time></trkpt><trkpt lat="45.9014831" lon="11.5636565"><ele>1240.0</ele><time>2026-05-01T09:37:26.564Z</time></trkpt><trkpt lat="45.9015582" lon="11.5638073"><ele>1240.0</ele><time>2026-05-01T09:37:27.575Z</time></trkpt><trkpt lat="45.9016333" lon="11.5639588"><ele>1238.4</ele><time>2026-05-01T09:37:28.562Z</time></trkpt><trkpt lat="45.9016983" lon="11.5640881"><ele>1236.8</ele><time>2026-05-01T09:37:29.564Z</time></trkpt><trkpt lat="45.9017517" lon="11.5641978"><ele>1235.2</ele><time>2026-05-01T09:37:30.563Z</time></trkpt><trkpt lat="45.9018039" lon="11.5643052"><ele>1233.6</ele><time>2026-05-01T09:37:31.559Z</time></trkpt><trkpt lat="45.9018588" lon="11.564418"><ele>1232.0</ele><time>2026-05-01T09:37:32.566Z</time></trkpt><trkpt lat="45.9019138" lon="11.5645265"><ele>1234.75</ele><time>2026-05-01T09:37:33.566Z</time></trkpt><trkpt lat="45.901988" lon="11.5646177"><ele>1237.5</ele><time>2026-05-01T09:37:34.565Z</time></trkpt><trkpt lat="45.9020933" lon="11.5646945"><ele>1240.25</ele><time>2026-05-01T09:37:35.566Z</time></trkpt><trkpt lat="45.9022285" lon="11.5647691"><ele>1243.0</ele><time>2026-05-01T09:37:36.571Z</time></trkpt><trkpt lat="45.9023778" lon="11.5648603"><ele>1243.0</ele><time>2026-05-01T09:37:37.566Z</time></trkpt><trkpt lat="45.9025388" lon="11.5649705"><ele>1243.0</ele><time>2026-05-01T09:37:38.559Z</time></trkpt><trkpt lat="45.9027074" lon="11.5650934"><ele>1243.0</ele><time>2026-05-01T09:37:39.561Z</time></trkpt><trkpt lat="45.9028699" lon="11.5652125"><ele>1244.0</ele><time>2026-05-01T09:37:40.568Z</time></trkpt><trkpt lat="45.9030157" lon="11.5653204"><ele>1245.0</ele><time>2026-05-01T09:37:41.561Z</time></trkpt><trkpt lat="45.9031528" lon="11.5654273"><ele>1246.0</ele><time>2026-05-01T09:37:42.577Z</time></trkpt><trkpt lat="45.9032968" lon="11.5655334"><ele>1255.3333333333333</ele><time>2026-05-01T09:37:43.567Z</time></trkpt><trkpt lat="45.9034516" lon="11.5656294"><ele>1264.6666666666667</ele><time>2026-05-01T09:37:44.564Z</time></trkpt><trkpt lat="45.9036171" lon="11.5657169"><ele>1274.0</ele><time>2026-05-01T09:37:45.585Z</time></trkpt><trkpt lat="45.9037879" lon="11.5658005"><ele>1274.0</ele><time>2026-05-01T09:37:46.565Z</time></trkpt><trkpt lat="45.9039651" lon="11.5658829"><ele>1274.0</ele><time>2026-05-01T09:37:47.557Z</time></trkpt><trkpt lat="45.9041464" lon="11.5659788"><ele>1274.0</ele><time>2026-05-01T09:37:48.562Z</time></trkpt><trkpt lat="45.9043285" lon="11.5660926"><ele>1275.3333333333335</ele><time>2026-05-01T09:37:49.564Z</time></trkpt><trkpt lat="45.9045058" lon="11.5662097"><ele>1276.6666666666667</ele><time>2026-05-01T09:37:50.559Z</time></trkpt><trkpt lat="45.9046769" lon="11.5663595"><ele>1278.0</ele><time>2026-05-01T09:37:51.568Z</time></trkpt><trkpt lat="45.9048601" lon="11.5665074"><ele>1278.0</ele><time>2026-05-01T09:37:52.563Z</time></trkpt><trkpt lat="45.9050488" lon="11.5666682"><ele>1278.0</ele><time>2026-05-01T09:37:53.56Z</time></trkpt><trkpt lat="45.9052478" lon="11.5668392"><ele>1280.5</ele><time>2026-05-01T09:37:54.562Z</time></trkpt><trkpt lat="45.9054454" lon="11.5670194"><ele>1283.0</ele><time>2026-05-01T09:37:55.559Z</time></trkpt><trkpt lat="45.905647" lon="11.5672006"><ele>1283.0</ele><time>2026-05-01T09:37:56.561Z</time></trkpt><trkpt lat="45.9058493" lon="11.5673792"><ele>1283.0</ele><time>2026-05-01T09:37:57.559Z</time></trkpt><trkpt lat="45.9060481" lon="11.5675461"><ele>1284.6666666666667</ele><time>2026-05-01T09:37:58.561Z</time></trkpt><trkpt lat="45.906245" lon="11.5677032"><ele>1286.3333333333333</ele><time>2026-05-01T09:37:59.571Z</time></trkpt><trkpt lat="45.9064404" lon="11.5678566"><ele>1288.0</ele><time>2026-05-01T09:38:00.563Z</time></trkpt><trkpt lat="45.9066344" lon="11.5679983"><ele>1295.6666666666665</ele><time>2026-05-01T09:38:01.562Z</time></trkpt><trkpt lat="45.906832" lon="11.5681214"><ele>1303.3333333333333</ele><time>2026-05-01T09:38:02.564Z</time></trkpt><trkpt lat="45.9070308" lon="11.568227"><ele>1311.0</ele><time>2026-05-01T09:38:03.558Z</time></trkpt><trkpt lat="45.9072193" lon="11.568321"><ele>1311.0</ele><time>2026-05-01T09:38:04.558Z</time></trkpt><trkpt lat="45.9074093" lon="11.5683936"><ele>1311.0</ele><time>2026-05-01T09:38:05.556Z</time></trkpt><trkpt lat="45.9075975" lon="11.5684327"><ele>1311.0</ele><time>2026-05-01T09:38:06.562Z</time></trkpt><trkpt lat="45.9077943" lon="11.5684374"><ele>1316.0</ele><time>2026-05-01T09:38:07.562Z</time></trkpt><trkpt lat="45.9079973" lon="11.5684227"><ele>1321.0</ele><time>2026-05-01T09:38:08.563Z</time></trkpt><trkpt lat="45.9082047" lon="11.5683964"><ele>1326.0</ele><time>2026-05-01T09:38:09.562Z</time></trkpt><trkpt lat="45.9084051" lon="11.5683711"><ele>1330.3333333333333</ele><time>2026-05-01T09:38:10.568Z</time></trkpt><trkpt lat="45.9086152" lon="11.5683461"><ele>1334.6666666666665</ele><time>2026-05-01T09:38:11.56Z</time></trkpt><trkpt lat="45.9088261" lon="11.5683208"><ele>1339.0</ele><time>2026-05-01T09:38:12.561Z</time></trkpt><trkpt lat="45.9090373" lon="11.5682944"><ele>1340.6666666666665</ele><time>2026-05-01T09:38:13.562Z</time></trkpt><trkpt lat="45.9092456" lon="11.5682675"><ele>1342.3333333333333</ele><time>2026-05-01T09:38:14.557Z</time></trkpt><trkpt lat="45.9094528" lon="11.5682418"><ele>1344.0</ele><time>2026-05-01T09:38:15.564Z</time></trkpt><trkpt lat="45.9096614" lon="11.5682151"><ele>1344.0</ele><time>2026-05-01T09:38:16.562Z</time></trkpt><trkpt lat="45.9098683" lon="11.5681819"><ele>1344.0</ele><time>2026-05-01T09:38:17.554Z</time></trkpt><trkpt lat="45.9100735" lon="11.5681266"><ele>1344.0</ele><time>2026-05-01T09:38:18.559Z</time></trkpt><trkpt lat="45.9102732" lon="11.5680723"><ele>1347.0</ele><time>2026-05-01T09:38:19.558Z</time></trkpt><trkpt lat="45.9104805" lon="11.5680215"><ele>1350.0</ele><time>2026-05-01T09:38:20.56Z</time></trkpt><trkpt lat="45.9106735" lon="11.567956"><ele>1353.0</ele><time>2026-05-01T09:38:21.563Z</time></trkpt><trkpt lat="45.9108599" lon="11.5678766"><ele>1363.3333333333333</ele><time>2026-05-01T09:38:22.559Z</time></trkpt><trkpt lat="45.9110446" lon="11.5677983"><ele>1373.6666666666665</ele><time>2026-05-01T09:38:23.563Z</time></trkpt><trkpt lat="45.9112394" lon="11.5677368"><ele>1384.0</ele><time>2026-05-01T09:38:24.565Z</time></trkpt><trkpt lat="45.9114227" lon="11.5677007"><ele>1384.0</ele><time>2026-05-01T09:38:25.558Z</time></trkpt><trkpt lat="45.9115854" lon="11.5676903"><ele>1384.0</ele><time>2026-05-01T09:38:26.562Z</time></trkpt><trkpt lat="45.9117273" lon="11.5677101"><ele>1384.0</ele><time>2026-05-01T09:38:27.561Z</time></trkpt><trkpt lat="45.911859" lon="11.5677396"><ele>1384.0</ele><time>2026-05-01T09:38:28.562Z</time></trkpt><trkpt lat="45.9119824" lon="11.5678284"><ele>1385.75</ele><time>2026-05-01T09:38:29.563Z</time></trkpt><trkpt lat="45.9121254" lon="11.567891"><ele>1387.5</ele><time>2026-05-01T09:38:30.569Z</time></trkpt><trkpt lat="45.9122715" lon="11.567909"><ele>1389.25</ele><time>2026-05-01T09:38:31.557Z</time></trkpt><trkpt lat="45.9124179" lon="11.5678968"><ele>1391.0</ele><time>2026-05-01T09:38:32.564Z</time></trkpt><trkpt lat="45.9125655" lon="11.5678388"><ele>1392.0</ele><time>2026-05-01T09:38:33.565Z</time></trkpt><trkpt lat="45.9127127" lon="11.5677463"><ele>1393.0</ele><time>2026-05-01T09:38:34.559Z</time></trkpt><trkpt lat="45.9128647" lon="11.5676545"><ele>1394.0</ele><time>2026-05-01T09:38:35.561Z</time></trkpt><trkpt lat="45.9130291" lon="11.5675808"><ele>1394.0</ele><time>2026-05-01T09:38:36.564Z</time></trkpt><trkpt lat="45.9131988" lon="11.5675293"><ele>1394.0</ele><time>2026-05-01T09:38:37.557Z</time></trkpt><trkpt lat="45.9133651" lon="11.5674923"><ele>1394.0</ele><time>2026-05-01T09:38:38.567Z</time></trkpt><trkpt lat="45.9135255" lon="11.5674388"><ele>1397.0</ele><time>2026-05-01T09:38:39.563Z</time></trkpt><trkpt lat="45.9136885" lon="11.5673688"><ele>1400.0</ele><time>2026-05-01T09:38:40.563Z</time></trkpt><trkpt lat="45.913852" lon="11.5672939"><ele>1403.0</ele><time>2026-05-01T09:38:41.563Z</time></trkpt><trkpt lat="45.9140189" lon="11.5672138"><ele>1403.0</ele><time>2026-05-01T09:38:42.565Z</time></trkpt><trkpt lat="45.9141851" lon="11.5671363"><ele>1403.0</ele><time>2026-05-01T09:38:43.565Z</time></trkpt><trkpt lat="45.9143516" lon="11.5670511"><ele>1403.0</ele><time>2026-05-01T09:38:44.556Z</time></trkpt><trkpt lat="45.9145164" lon="11.5669694"><ele>1405.0</ele><time>2026-05-01T09:38:45.558Z</time></trkpt><trkpt lat="45.9146781" lon="11.5668921"><ele>1407.0</ele><time>2026-05-01T09:38:46.568Z</time></trkpt><trkpt lat="45.9148347" lon="11.5668178"><ele>1409.0</ele><time>2026-05-01T09:38:47.566Z</time></trkpt><trkpt lat="45.9149885" lon="11.5667435"><ele>1410.6666666666667</ele><time>2026-05-01T09:38:48.553Z</time></trkpt><trkpt lat="45.9151415" lon="11.5666702"><ele>1412.3333333333333</ele><time>2026-05-01T09:38:49.564Z</time></trkpt><trkpt lat="45.9152913" lon="11.566586"><ele>1414.0</ele><time>2026-05-01T09:38:50.565Z</time></trkpt><trkpt lat="45.9154374" lon="11.5664834"><ele>1414.0</ele><time>2026-05-01T09:38:51.564Z</time></trkpt><trkpt lat="45.9155848" lon="11.5663685"><ele>1414.0</ele><time>2026-05-01T09:38:52.558Z</time></trkpt><trkpt lat="45.9157345" lon="11.56625"><ele>1414.0</ele><time>2026-05-01T09:38:53.566Z</time></trkpt><trkpt lat="45.9158841" lon="11.5661294"><ele>1413.3333333333333</ele><time>2026-05-01T09:38:54.565Z</time></trkpt><trkpt lat="45.9160324" lon="11.5660013"><ele>1412.6666666666667</ele><time>2026-05-01T09:38:55.557Z</time></trkpt><trkpt lat="45.9161802" lon="11.5658606"><ele>1412.0</ele><time>2026-05-01T09:38:56.563Z</time></trkpt><trkpt lat="45.9163259" lon="11.5657094"><ele>1412.0</ele><time>2026-05-01T09:38:57.566Z</time></trkpt><trkpt lat="45.9164667" lon="11.5655559"><ele>1412.0</ele><time>2026-05-01T09:38:58.559Z</time></trkpt><trkpt lat="45.916605" lon="11.5654049"><ele>1412.0</ele><time>2026-05-01T09:38:59.561Z</time></trkpt><trkpt lat="45.9167443" lon="11.5652571"><ele>1416.3333333333335</ele><time>2026-05-01T09:39:00.562Z</time></trkpt><trkpt lat="45.9168846" lon="11.5651134"><ele>1420.6666666666667</ele><time>2026-05-01T09:39:01.566Z</time></trkpt><trkpt lat="45.9170226" lon="11.5649645"><ele>1425.0</ele><time>2026-05-01T09:39:02.568Z</time></trkpt><trkpt lat="45.9171545" lon="11.564808"><ele>1425.0</ele><time>2026-05-01T09:39:03.56Z</time></trkpt><trkpt lat="45.9172777" lon="11.5646384"><ele>1425.0</ele><time>2026-05-01T09:39:04.565Z</time></trkpt><trkpt lat="45.9173936" lon="11.5644562"><ele>1425.0</ele><time>2026-05-01T09:39:05.568Z</time></trkpt><trkpt lat="45.9175007" lon="11.5642771"><ele>1426.25</ele><time>2026-05-01T09:39:06.572Z</time></trkpt><trkpt lat="45.9176014" lon="11.5641097"><ele>1427.5</ele><time>2026-05-01T09:39:07.564Z</time></trkpt><trkpt lat="45.917688" lon="11.5639399"><ele>1428.75</ele><time>2026-05-01T09:39:08.575Z</time></trkpt><trkpt lat="45.917753" lon="11.5637565"><ele>1430.0</ele><time>2026-05-01T09:39:09.561Z</time></trkpt><trkpt lat="45.917796" lon="11.5635551"><ele>1430.0</ele><time>2026-05-01T09:39:10.572Z</time></trkpt><trkpt lat="45.917821" lon="11.5633457"><ele>1430.0</ele><time>2026-05-01T09:39:11.558Z</time></trkpt><trkpt lat="45.9178383" lon="11.5631377"><ele>1430.0</ele><time>2026-05-01T09:39:12.567Z</time></trkpt><trkpt lat="45.9178578" lon="11.5629354"><ele>1430.0</ele><time>2026-05-01T09:39:13.582Z</time></trkpt><trkpt lat="45.9178904" lon="11.5627387"><ele>1429.25</ele><time>2026-05-01T09:39:14.575Z</time></trkpt><trkpt lat="45.917944" lon="11.562547"><ele>1428.5</ele><time>2026-05-01T09:39:15.569Z</time></trkpt><trkpt lat="45.9180199" lon="11.5623684"><ele>1427.75</ele><time>2026-05-01T09:39:16.57Z</time></trkpt><trkpt lat="45.9181136" lon="11.5622032"><ele>1427.0</ele><time>2026-05-01T09:39:17.575Z</time></trkpt><trkpt lat="45.9182202" lon="11.5620491"><ele>1427.3333333333335</ele><time>2026-05-01T09:39:18.579Z</time></trkpt><trkpt lat="45.9183417" lon="11.5619146"><ele>1427.6666666666667</ele><time>2026-05-01T09:39:19.553Z</time></trkpt><trkpt lat="45.9184776" lon="11.5618076"><ele>1428.0</ele><time>2026-05-01T09:39:20.56Z</time></trkpt><trkpt lat="45.9186245" lon="11.5617252"><ele>1428.0</ele><time>2026-05-01T09:39:21.572Z</time></trkpt><trkpt lat="45.9187786" lon="11.561658"><ele>1428.0</ele><time>2026-05-01T09:39:22.571Z</time></trkpt><trkpt lat="45.9189377" lon="11.561592"><ele>1428.0</ele><time>2026-05-01T09:39:23.572Z</time></trkpt><trkpt lat="45.9190989" lon="11.5615239"><ele>1428.6666666666667</ele><time>2026-05-01T09:39:24.578Z</time></trkpt><trkpt lat="45.9192583" lon="11.5614492"><ele>1429.3333333333335</ele><time>2026-05-01T09:39:25.574Z</time></trkpt><trkpt lat="45.9194211" lon="11.5613708"><ele>1430.0</ele><time>2026-05-01T09:39:26.575Z</time></trkpt><trkpt lat="45.919586" lon="11.5613007"><ele>1430.0</ele><time>2026-05-01T09:39:27.569Z</time></trkpt><trkpt lat="45.9197495" lon="11.5612319"><ele>1430.0</ele><time>2026-05-01T09:39:28.599Z</time></trkpt><trkpt lat="45.9199136" lon="11.5611637"><ele>1430.0</ele><time>2026-05-01T09:39:29.573Z</time></trkpt><trkpt lat="45.9200758" lon="11.5610977"><ele>1434.0</ele><time>2026-05-01T09:39:30.573Z</time></trkpt><trkpt lat="45.9202364" lon="11.5610504"><ele>1438.0</ele><time>2026-05-01T09:39:31.577Z</time></trkpt><trkpt lat="45.9204017" lon="11.5610409"><ele>1442.0</ele><time>2026-05-01T09:39:32.561Z</time></trkpt><trkpt lat="45.9205686" lon="11.5610572"><ele>1442.0</ele><time>2026-05-01T09:39:33.571Z</time></trkpt><trkpt lat="45.9207361" lon="11.5610822"><ele>1442.0</ele><time>2026-05-01T09:39:34.569Z</time></trkpt><trkpt lat="45.9209068" lon="11.5610855"><ele>1442.0</ele><time>2026-05-01T09:39:35.573Z</time></trkpt><trkpt lat="45.9210823" lon="11.561059"><ele>1443.6666666666667</ele><time>2026-05-01T09:39:36.572Z</time></trkpt><trkpt lat="45.9212637" lon="11.5610177"><ele>1445.3333333333333</ele><time>2026-05-01T09:39:37.574Z</time></trkpt><trkpt lat="45.9214463" lon="11.5609824"><ele>1447.0</ele><time>2026-05-01T09:39:38.576Z</time></trkpt><trkpt lat="45.9216234" lon="11.5609451"><ele>1450.0</ele><time>2026-05-01T09:39:39.566Z</time></trkpt><trkpt lat="45.9218057" lon="11.5609213"><ele>1453.0</ele><time>2026-05-01T09:39:40.568Z</time></trkpt><trkpt lat="45.9219744" lon="11.5609238"><ele>1456.0</ele><time>2026-05-01T09:39:41.575Z</time></trkpt><trkpt lat="45.9221383" lon="11.5609369"><ele>1456.0</ele><time>2026-05-01T09:39:42.583Z</time></trkpt><trkpt lat="45.9222916" lon="11.5609968"><ele>1456.0</ele><time>2026-05-01T09:39:43.571Z</time></trkpt><trkpt lat="45.9224466" lon="11.5610369"><ele>1456.0</ele><time>2026-05-01T09:39:44.575Z</time></trkpt><trkpt lat="45.9226109" lon="11.5610185"><ele>1458.6666666666665</ele><time>2026-05-01T09:39:45.583Z</time></trkpt><trkpt lat="45.9227799" lon="11.5609524"><ele>1461.3333333333333</ele><time>2026-05-01T09:39:46.568Z</time></trkpt><trkpt lat="45.9229488" lon="11.5608735"><ele>1464.0</ele><time>2026-05-01T09:39:47.572Z</time></trkpt><trkpt lat="45.9231077" lon="11.5607961"><ele>1464.0</ele><time>2026-05-01T09:39:48.568Z</time></trkpt><trkpt lat="45.9232539" lon="11.5607313"><ele>1464.0</ele><time>2026-05-01T09:39:49.575Z</time></trkpt><trkpt lat="45.923391" lon="11.5606702"><ele>1464.0</ele><time>2026-05-01T09:39:50.56Z</time></trkpt><trkpt lat="45.9235304" lon="11.5606086"><ele>1464.0</ele><time>2026-05-01T09:39:51.575Z</time></trkpt><trkpt lat="45.9236679" lon="11.5605524"><ele>1464.75</ele><time>2026-05-01T09:39:52.565Z</time></trkpt><trkpt lat="45.9238028" lon="11.560513"><ele>1465.5</ele><time>2026-05-01T09:39:53.573Z</time></trkpt><trkpt lat="45.9239338" lon="11.5604867"><ele>1466.25</ele><time>2026-05-01T09:39:54.566Z</time></trkpt><trkpt lat="45.9240653" lon="11.5605321"><ele>1467.0</ele><time>2026-05-01T09:39:55.57Z</time></trkpt><trkpt lat="45.9241808" lon="11.5605955"><ele>1466.5</ele><time>2026-05-01T09:39:56.57Z</time></trkpt><trkpt lat="45.924301" lon="11.5606405"><ele>1466.0</ele><time>2026-05-01T09:39:57.57Z</time></trkpt><trkpt lat="45.9244211" lon="11.5606637"><ele>1465.5</ele><time>2026-05-01T09:39:58.57Z</time></trkpt><trkpt lat="45.9245505" lon="11.5606665"><ele>1465.0</ele><time>2026-05-01T09:39:59.577Z</time></trkpt><trkpt lat="45.9246779" lon="11.560666"><ele>1465.0</ele><time>2026-05-01T09:40:00.577Z</time></trkpt><trkpt lat="45.9248124" lon="11.5606595"><ele>1465.0</ele><time>2026-05-01T09:40:01.578Z</time></trkpt><trkpt lat="45.9249474" lon="11.5606482"><ele>1465.0</ele><time>2026-05-01T09:40:02.574Z</time></trkpt><trkpt lat="45.9250815" lon="11.5606321"><ele>1465.0</ele><time>2026-05-01T09:40:03.58Z</time></trkpt><trkpt lat="45.9252174" lon="11.5606132"><ele>1465.25</ele><time>2026-05-01T09:40:04.573Z</time></trkpt><trkpt lat="45.9253541" lon="11.5605942"><ele>1465.5</ele><time>2026-05-01T09:40:05.577Z</time></trkpt><trkpt lat="45.9254934" lon="11.5605733"><ele>1465.75</ele><time>2026-05-01T09:40:06.573Z</time></trkpt><trkpt lat="45.9256341" lon="11.5605498"><ele>1466.0</ele><time>2026-05-01T09:40:07.574Z</time></trkpt><trkpt lat="45.9257756" lon="11.5605219"><ele>1467.5</ele><time>2026-05-01T09:40:08.571Z</time></trkpt><trkpt lat="45.925915" lon="11.5604919"><ele>1469.0</ele><time>2026-05-01T09:40:09.578Z</time></trkpt><trkpt lat="45.9260524" lon="11.5604617"><ele>1470.5</ele><time>2026-05-01T09:40:10.566Z</time></trkpt><trkpt lat="45.9261905" lon="11.5604343"><ele>1472.0</ele><time>2026-05-01T09:40:11.568Z</time></trkpt><trkpt lat="45.9263296" lon="11.5604148"><ele>1472.0</ele><time>2026-05-01T09:40:12.573Z</time></trkpt><trkpt lat="45.9264696" lon="11.5604067"><ele>1472.0</ele><time>2026-05-01T09:40:13.574Z</time></trkpt><trkpt lat="45.9266113" lon="11.5604061"><ele>1472.0</ele><time>2026-05-01T09:40:14.576Z</time></trkpt><trkpt lat="45.9267523" lon="11.5604039"><ele>1472.0</ele><time>2026-05-01T09:40:15.582Z</time></trkpt><trkpt lat="45.9268963" lon="11.5603904"><ele>1471.75</ele><time>2026-05-01T09:40:16.571Z</time></trkpt><trkpt lat="45.9270374" lon="11.5603531"><ele>1471.5</ele><time>2026-05-01T09:40:17.581Z</time></trkpt><trkpt lat="45.927179" lon="11.5602953"><ele>1471.25</ele><time>2026-05-01T09:40:18.575Z</time></trkpt><trkpt lat="45.9273237" lon="11.5602239"><ele>1471.0</ele><time>2026-05-01T09:40:19.585Z</time></trkpt><trkpt lat="45.9274621" lon="11.560156"><ele>1472.75</ele><time>2026-05-01T09:40:20.577Z</time></trkpt><trkpt lat="45.9275994" lon="11.560104"><ele>1474.5</ele><time>2026-05-01T09:40:21.575Z</time></trkpt><trkpt lat="45.9277375" lon="11.5600674"><ele>1476.25</ele><time>2026-05-01T09:40:22.574Z</time></trkpt><trkpt lat="45.9278741" lon="11.5600361"><ele>1478.0</ele><time>2026-05-01T09:40:23.598Z</time></trkpt><trkpt lat="45.9280115" lon="11.5599989"><ele>1478.0</ele><time>2026-05-01T09:40:24.58Z</time></trkpt><trkpt lat="45.9281478" lon="11.5599612"><ele>1478.0</ele><time>2026-05-01T09:40:25.579Z</time></trkpt><trkpt lat="45.9282852" lon="11.559932"><ele>1478.0</ele><time>2026-05-01T09:40:26.586Z</time></trkpt><trkpt lat="45.9284264" lon="11.5599229"><ele>1478.0</ele><time>2026-05-01T09:40:27.583Z</time></trkpt><trkpt lat="45.9285695" lon="11.5599411"><ele>1478.5</ele><time>2026-05-01T09:40:28.574Z</time></trkpt><trkpt lat="45.9287104" lon="11.5599792"><ele>1479.0</ele><time>2026-05-01T09:40:29.58Z</time></trkpt><trkpt lat="45.9288486" lon="11.5600262"><ele>1479.5</ele><time>2026-05-01T09:40:30.577Z</time></trkpt><trkpt lat="45.9289866" lon="11.5600753"><ele>1480.0</ele><time>2026-05-01T09:40:31.571Z</time></trkpt><trkpt lat="45.9291232" lon="11.5601122"><ele>1481.25</ele><time>2026-05-01T09:40:32.577Z</time></trkpt><trkpt lat="45.9292628" lon="11.5601206"><ele>1482.5</ele><time>2026-05-01T09:40:33.587Z</time></trkpt><trkpt lat="45.9294038" lon="11.5600956"><ele>1483.75</ele><time>2026-05-01T09:40:34.569Z</time></trkpt><trkpt lat="45.9295445" lon="11.5600408"><ele>1485.0</ele><time>2026-05-01T09:40:35.572Z</time></trkpt><trkpt lat="45.9296829" lon="11.5599651"><ele>1485.0</ele><time>2026-05-01T09:40:36.575Z</time></trkpt><trkpt lat="45.9298196" lon="11.5598872"><ele>1485.0</ele><time>2026-05-01T09:40:37.594Z</time></trkpt><trkpt lat="45.929958" lon="11.5598161"><ele>1485.0</ele><time>2026-05-01T09:40:38.574Z</time></trkpt><trkpt lat="45.9300918" lon="11.5597581"><ele>1485.0</ele><time>2026-05-01T09:40:39.574Z</time></trkpt><trkpt lat="45.9302219" lon="11.5597083"><ele>1486.75</ele><time>2026-05-01T09:40:40.577Z</time></trkpt><trkpt lat="45.9303518" lon="11.5596572"><ele>1488.5</ele><time>2026-05-01T09:40:41.573Z</time></trkpt><trkpt lat="45.9304792" lon="11.5595929"><ele>1490.25</ele><time>2026-05-01T09:40:42.569Z</time></trkpt><trkpt lat="45.9306033" lon="11.5595089"><ele>1492.0</ele><time>2026-05-01T09:40:43.571Z</time></trkpt><trkpt lat="45.9307266" lon="11.5594108"><ele>1492.25</ele><time>2026-05-01T09:40:44.574Z</time></trkpt><trkpt lat="45.930853" lon="11.5593106"><ele>1492.5</ele><time>2026-05-01T09:40:45.576Z</time></trkpt><trkpt lat="45.9309874" lon="11.5592174"><ele>1492.75</ele><time>2026-05-01T09:40:46.577Z</time></trkpt><trkpt lat="45.9311265" lon="11.5591252"><ele>1493.0</ele><time>2026-05-01T09:40:47.577Z</time></trkpt><trkpt lat="45.9312661" lon="11.5590285"><ele>1491.0</ele><time>2026-05-01T09:40:48.578Z</time></trkpt><trkpt lat="45.9314027" lon="11.5589284"><ele>1489.0</ele><time>2026-05-01T09:40:49.572Z</time></trkpt><trkpt lat="45.9315372" lon="11.5588257"><ele>1487.0</ele><time>2026-05-01T09:40:50.575Z</time></trkpt><trkpt lat="45.9316721" lon="11.5587272"><ele>1486.0</ele><time>2026-05-01T09:40:51.572Z</time></trkpt><trkpt lat="45.9318115" lon="11.558643"><ele>1485.0</ele><time>2026-05-01T09:40:52.573Z</time></trkpt><trkpt lat="45.9319564" lon="11.5585722"><ele>1484.0</ele><time>2026-05-01T09:40:53.572Z</time></trkpt><trkpt lat="45.9321024" lon="11.5585027"><ele>1484.0</ele><time>2026-05-01T09:40:54.579Z</time></trkpt><trkpt lat="45.9322512" lon="11.5584478"><ele>1484.0</ele><time>2026-05-01T09:40:55.578Z</time></trkpt><trkpt lat="45.9323961" lon="11.5583765"><ele>1484.0</ele><time>2026-05-01T09:40:56.582Z</time></trkpt><trkpt lat="45.9325413" lon="11.5583034"><ele>1485.6666666666667</ele><time>2026-05-01T09:40:57.573Z</time></trkpt><trkpt lat="45.9326882" lon="11.5582416"><ele>1487.3333333333333</ele><time>2026-05-01T09:40:58.577Z</time></trkpt><trkpt lat="45.9328402" lon="11.5581946"><ele>1489.0</ele><time>2026-05-01T09:40:59.575Z</time></trkpt><trkpt lat="45.9329974" lon="11.5581626"><ele>1489.0</ele><time>2026-05-01T09:41:00.588Z</time></trkpt><trkpt lat="45.9331543" lon="11.5581562"><ele>1489.0</ele><time>2026-05-01T09:41:01.572Z</time></trkpt><trkpt lat="45.9333173" lon="11.5581441"><ele>1489.0</ele><time>2026-05-01T09:41:02.572Z</time></trkpt><trkpt lat="45.9334811" lon="11.5581183"><ele>1491.3333333333333</ele><time>2026-05-01T09:41:03.571Z</time></trkpt><trkpt lat="45.9336436" lon="11.5580632"><ele>1493.6666666666667</ele><time>2026-05-01T09:41:04.578Z</time></trkpt><trkpt lat="45.9338013" lon="11.5579934"><ele>1496.0</ele><time>2026-05-01T09:41:05.571Z</time></trkpt><trkpt lat="45.9339558" lon="11.5579252"><ele>1496.6666666666667</ele><time>2026-05-01T09:41:06.583Z</time></trkpt><trkpt lat="45.9341069" lon="11.5578636"><ele>1497.3333333333333</ele><time>2026-05-01T09:41:07.58Z</time></trkpt><trkpt lat="45.9342509" lon="11.5577986"><ele>1498.0</ele><time>2026-05-01T09:41:08.59Z</time></trkpt><trkpt lat="45.9343945" lon="11.5577381"><ele>1498.0</ele><time>2026-05-01T09:41:09.574Z</time></trkpt><trkpt lat="45.9345368" lon="11.5576819"><ele>1498.0</ele><time>2026-05-01T09:41:10.574Z</time></trkpt><trkpt lat="45.9346748" lon="11.557634"><ele>1498.0</ele><time>2026-05-01T09:41:11.576Z</time></trkpt><trkpt lat="45.9348195" lon="11.5576085"><ele>1498.0</ele><time>2026-05-01T09:41:12.572Z</time></trkpt><trkpt lat="45.9349677" lon="11.5575916"><ele>1499.25</ele><time>2026-05-01T09:41:13.576Z</time></trkpt><trkpt lat="45.9351137" lon="11.5575809"><ele>1500.5</ele><time>2026-05-01T09:41:14.582Z</time></trkpt><trkpt lat="45.9352584" lon="11.5575722"><ele>1501.75</ele><time>2026-05-01T09:41:15.578Z</time></trkpt><trkpt lat="45.9354031" lon="11.5575771"><ele>1503.0</ele><time>2026-05-01T09:41:16.572Z</time></trkpt><trkpt lat="45.9355465" lon="11.5576099"><ele>1503.0</ele><time>2026-05-01T09:41:17.575Z</time></trkpt><trkpt lat="45.9356889" lon="11.5576479"><ele>1503.0</ele><time>2026-05-01T09:41:18.578Z</time></trkpt><trkpt lat="45.935824" lon="11.5577212"><ele>1503.0</ele><time>2026-05-01T09:41:19.572Z</time></trkpt><trkpt lat="45.9359525" lon="11.5577786"><ele>1503.0</ele><time>2026-05-01T09:41:20.569Z</time></trkpt><trkpt lat="45.9360788" lon="11.5578187"><ele>1503.5</ele><time>2026-05-01T09:41:21.575Z</time></trkpt><trkpt lat="45.936208" lon="11.557825"><ele>1504.0</ele><time>2026-05-01T09:41:22.576Z</time></trkpt><trkpt lat="45.9363398" lon="11.5577949"><ele>1504.5</ele><time>2026-05-01T09:41:23.574Z</time></trkpt><trkpt lat="45.9364754" lon="11.5577339"><ele>1505.0</ele><time>2026-05-01T09:41:24.571Z</time></trkpt><trkpt lat="45.9366088" lon="11.5576604"><ele>1506.75</ele><time>2026-05-01T09:41:25.576Z</time></trkpt><trkpt lat="45.9367346" lon="11.5575741"><ele>1508.5</ele><time>2026-05-01T09:41:26.575Z</time></trkpt><trkpt lat="45.936856" lon="11.5574789"><ele>1510.25</ele><time>2026-05-01T09:41:27.572Z</time></trkpt><trkpt lat="45.9369738" lon="11.5573743"><ele>1512.0</ele><time>2026-05-01T09:41:28.58Z</time></trkpt><trkpt lat="45.9370885" lon="11.5572696"><ele>1512.0</ele><time>2026-05-01T09:41:29.577Z</time></trkpt><trkpt lat="45.9372013" lon="11.5571736"><ele>1512.0</ele><time>2026-05-01T09:41:30.577Z</time></trkpt><trkpt lat="45.9373137" lon="11.5570856"><ele>1512.0</ele><time>2026-05-01T09:41:31.566Z</time></trkpt><trkpt lat="45.9374173" lon="11.5570029"><ele>1512.0</ele><time>2026-05-01T09:41:32.581Z</time></trkpt><trkpt lat="45.9375091" lon="11.5569304"><ele>1513.1999999999998</ele><time>2026-05-01T09:41:33.569Z</time></trkpt><trkpt lat="45.9375954" lon="11.5568487"><ele>1514.4</ele><time>2026-05-01T09:41:34.579Z</time></trkpt><trkpt lat="45.9376771" lon="11.5567469"><ele>1515.6</ele><time>2026-05-01T09:41:35.578Z</time></trkpt><trkpt lat="45.9377534" lon="11.5566282"><ele>1516.8000000000002</ele><time>2026-05-01T09:41:36.579Z</time></trkpt><trkpt lat="45.9378218" lon="11.5565128"><ele>1518.0</ele><time>2026-05-01T09:41:37.575Z</time></trkpt><trkpt lat="45.9378826" lon="11.5564126"><ele>1518.0</ele><time>2026-05-01T09:41:38.584Z</time></trkpt><trkpt lat="45.9379418" lon="11.5563224"><ele>1518.0</ele><time>2026-05-01T09:41:39.571Z</time></trkpt><trkpt lat="45.9380028" lon="11.5562367"><ele>1518.0</ele><time>2026-05-01T09:41:40.578Z</time></trkpt><trkpt lat="45.9380648" lon="11.5561523"><ele>1518.0</ele><time>2026-05-01T09:41:41.574Z</time></trkpt><trkpt lat="45.9381486" lon="11.5560515"><ele>1518.0</ele><time>2026-05-01T09:41:43.57Z</time></trkpt><trkpt lat="45.9382219" lon="11.5559701"><ele>1517.6000000000001</ele><time>2026-05-01T09:41:45.574Z</time></trkpt><trkpt lat="45.9382881" lon="11.5558797"><ele>1517.2</ele><time>2026-05-01T09:41:47.582Z</time></trkpt><trkpt lat="45.9383331" lon="11.5558086"><ele>1516.8</ele><time>2026-05-01T09:41:48.571Z</time></trkpt><trkpt lat="45.9383995" lon="11.5557335"><ele>1516.4</ele><time>2026-05-01T09:41:49.574Z</time></trkpt><trkpt lat="45.9384759" lon="11.5556397"><ele>1516.0</ele><time>2026-05-01T09:41:50.578Z</time></trkpt><trkpt lat="45.9385639" lon="11.5555214"><ele>1517.6666666666665</ele><time>2026-05-01T09:41:51.568Z</time></trkpt><trkpt lat="45.9386716" lon="11.555378"><ele>1519.3333333333333</ele><time>2026-05-01T09:41:52.573Z</time></trkpt><trkpt lat="45.9387918" lon="11.5552219"><ele>1521.0</ele><time>2026-05-01T09:41:53.572Z</time></trkpt><trkpt lat="45.9389203" lon="11.5550666"><ele>1521.0</ele><time>2026-05-01T09:41:54.577Z</time></trkpt><trkpt lat="45.9390617" lon="11.5549184"><ele>1521.0</ele><time>2026-05-01T09:41:55.579Z</time></trkpt><trkpt lat="45.9392146" lon="11.5547886"><ele>1521.0</ele><time>2026-05-01T09:41:56.572Z</time></trkpt><trkpt lat="45.9393791" lon="11.554684"><ele>1522.6666666666667</ele><time>2026-05-01T09:41:57.596Z</time></trkpt><trkpt lat="45.9395358" lon="11.5546107"><ele>1524.3333333333335</ele><time>2026-05-01T09:41:58.577Z</time></trkpt><trkpt lat="45.9396836" lon="11.5545485"><ele>1526.0</ele><time>2026-05-01T09:41:59.573Z</time></trkpt><trkpt lat="45.9398053" lon="11.5544725"><ele>1526.0</ele><time>2026-05-01T09:42:00.572Z</time></trkpt><trkpt lat="45.9399165" lon="11.5543695"><ele>1526.0</ele><time>2026-05-01T09:42:01.58Z</time></trkpt><trkpt lat="45.9400036" lon="11.5542504"><ele>1526.0</ele><time>2026-05-01T09:42:02.592Z</time></trkpt><trkpt lat="45.9400807" lon="11.5541319"><ele>1526.0</ele><time>2026-05-01T09:42:03.578Z</time></trkpt><trkpt lat="45.9401688" lon="11.5540289"><ele>1530.0</ele><time>2026-05-01T09:42:04.579Z</time></trkpt><trkpt lat="45.9402717" lon="11.5539528"><ele>1534.0</ele><time>2026-05-01T09:42:05.581Z</time></trkpt><trkpt lat="45.9403854" lon="11.5539037"><ele>1538.0</ele><time>2026-05-01T09:42:06.575Z</time></trkpt><trkpt lat="45.9405161" lon="11.5538796"><ele>1542.0</ele><time>2026-05-01T09:42:07.576Z</time></trkpt><trkpt lat="45.9406492" lon="11.5538632"><ele>1542.0</ele><time>2026-05-01T09:42:08.579Z</time></trkpt><trkpt lat="45.9407824" lon="11.5538529"><ele>1542.0</ele><time>2026-05-01T09:42:09.576Z</time></trkpt><trkpt lat="45.9409123" lon="11.5538544"><ele>1542.0</ele><time>2026-05-01T09:42:10.573Z</time></trkpt><trkpt lat="45.9410408" lon="11.5538498"><ele>1542.0</ele><time>2026-05-01T09:42:11.582Z</time></trkpt><trkpt lat="45.9411631" lon="11.5538241"><ele>1542.25</ele><time>2026-05-01T09:42:12.573Z</time></trkpt><trkpt lat="45.9412717" lon="11.5537609"><ele>1542.5</ele><time>2026-05-01T09:42:13.571Z</time></trkpt><trkpt lat="45.9413676" lon="11.5536651"><ele>1542.75</ele><time>2026-05-01T09:42:14.57Z</time></trkpt><trkpt lat="45.9414625" lon="11.5535653"><ele>1543.0</ele><time>2026-05-01T09:42:15.574Z</time></trkpt><trkpt lat="45.9415621" lon="11.5534685"><ele>1543.0</ele><time>2026-05-01T09:42:16.573Z</time></trkpt><trkpt lat="45.9416768" lon="11.5534038"><ele>1543.0</ele><time>2026-05-01T09:42:17.571Z</time></trkpt><trkpt lat="45.9418013" lon="11.5533457"><ele>1543.0</ele><time>2026-05-01T09:42:18.576Z</time></trkpt><trkpt lat="45.9419408" lon="11.5533136"><ele>1543.0</ele><time>2026-05-01T09:42:19.591Z</time></trkpt><trkpt lat="45.9420724" lon="11.5532859"><ele>1544.75</ele><time>2026-05-01T09:42:20.582Z</time></trkpt><trkpt lat="45.9421997" lon="11.5532679"><ele>1546.5</ele><time>2026-05-01T09:42:21.574Z</time></trkpt><trkpt lat="45.9423331" lon="11.5532625"><ele>1548.25</ele><time>2026-05-01T09:42:22.579Z</time></trkpt><trkpt lat="45.9424639" lon="11.5532598"><ele>1550.0</ele><time>2026-05-01T09:42:23.583Z</time></trkpt><trkpt lat="45.9425939" lon="11.5532505"><ele>1551.75</ele><time>2026-05-01T09:42:24.575Z</time></trkpt><trkpt lat="45.9427233" lon="11.553245"><ele>1553.5</ele><time>2026-05-01T09:42:25.581Z</time></trkpt><trkpt lat="45.9428505" lon="11.5532433"><ele>1555.25</ele><time>2026-05-01T09:42:26.575Z</time></trkpt><trkpt lat="45.942976" lon="11.5532543"><ele>1557.0</ele><time>2026-05-01T09:42:27.575Z</time></trkpt><trkpt lat="45.9430905" lon="11.5532885"><ele>1557.0</ele><time>2026-05-01T09:42:28.574Z</time></trkpt><trkpt lat="45.9431889" lon="11.5533566"><ele>1557.0</ele><time>2026-05-01T09:42:29.576Z</time></trkpt><trkpt lat="45.9432667" lon="11.5534593"><ele>1557.0</ele><time>2026-05-01T09:42:30.58Z</time></trkpt><trkpt lat="45.9433251" lon="11.5535897"><ele>1557.0</ele><time>2026-05-01T09:42:31.574Z</time></trkpt><trkpt lat="45.94337" lon="11.5537393"><ele>1557.0</ele><time>2026-05-01T09:42:32.57Z</time></trkpt><trkpt lat="45.9434067" lon="11.5538928"><ele>1560.1666666666667</ele><time>2026-05-01T09:42:33.575Z</time></trkpt><trkpt lat="45.9434383" lon="11.5540355"><ele>1563.3333333333335</ele><time>2026-05-01T09:42:34.573Z</time></trkpt><trkpt lat="45.9434651" lon="11.5541609"><ele>1566.5</ele><time>2026-05-01T09:42:35.564Z</time></trkpt><trkpt lat="45.9434902" lon="11.5542724"><ele>1569.6666666666667</ele><time>2026-05-01T09:42:36.579Z</time></trkpt><trkpt lat="45.9435132" lon="11.5543776"><ele>1572.8333333333335</ele><time>2026-05-01T09:42:37.58Z</time></trkpt><trkpt lat="45.9435357" lon="11.554473"><ele>1576.0</ele><time>2026-05-01T09:42:38.58Z</time></trkpt><trkpt lat="45.9435669" lon="11.5546161"><ele>1575.0</ele><time>2026-05-01T09:42:40.577Z</time></trkpt><trkpt lat="45.9435209" lon="11.5547467"><ele>1574.0</ele><time>2026-05-01T09:42:42.568Z</time></trkpt><trkpt lat="45.9434037" lon="11.5548214"><ele>1573.0</ele><time>2026-05-01T09:42:44.58Z</time></trkpt><trkpt lat="45.9433011" lon="11.5548747"><ele>1572.0</ele><time>2026-05-01T09:42:46.587Z</time></trkpt><trkpt lat="45.9432344" lon="11.5549005"><ele>1571.0</ele><time>2026-05-01T09:42:48.591Z</time></trkpt><trkpt lat="45.9429825" lon="11.5551572"><ele>1570.9999999999998</ele><time>2026-05-01T09:43:05.575Z</time></trkpt><trkpt lat="45.9429326" lon="11.5552379"><ele>1571.0</ele><time>2026-05-01T09:43:06.559Z</time></trkpt><trkpt lat="45.9428743" lon="11.5553152"><ele>1571.0</ele><time>2026-05-01T09:43:07.573Z</time></trkpt><trkpt lat="45.9428068" lon="11.5553807"><ele>1571.0</ele><time>2026-05-01T09:43:08.57Z</time></trkpt><trkpt lat="45.9427322" lon="11.5554451"><ele>1570.9999999999998</ele><time>2026-05-01T09:43:09.567Z</time></trkpt><trkpt lat="45.9426516" lon="11.5555189"><ele>1571.0</ele><time>2026-05-01T09:43:10.57Z</time></trkpt><trkpt lat="45.9425667" lon="11.5555977"><ele>1572.8</ele><time>2026-05-01T09:43:11.583Z</time></trkpt><trkpt lat="45.942487" lon="11.5556918"><ele>1574.6</ele><time>2026-05-01T09:43:12.574Z</time></trkpt><trkpt lat="45.9424124" lon="11.5557911"><ele>1576.4</ele><time>2026-05-01T09:43:13.571Z</time></trkpt><trkpt lat="45.9423394" lon="11.5558937"><ele>1578.2</ele><time>2026-05-01T09:43:14.571Z</time></trkpt><trkpt lat="45.9422628" lon="11.556001"><ele>1580.0</ele><time>2026-05-01T09:43:15.571Z</time></trkpt><trkpt lat="45.9421939" lon="11.5561056"><ele>1580.0</ele><time>2026-05-01T09:43:16.578Z</time></trkpt><trkpt lat="45.9421166" lon="11.5562003"><ele>1580.0</ele><time>2026-05-01T09:43:17.581Z</time></trkpt><trkpt lat="45.9420397" lon="11.55629"><ele>1580.0</ele><time>2026-05-01T09:43:18.577Z</time></trkpt><trkpt lat="45.9419608" lon="11.5563694"><ele>1580.0</ele><time>2026-05-01T09:43:19.573Z</time></trkpt><trkpt lat="45.9418792" lon="11.5564418"><ele>1580.0</ele><time>2026-05-01T09:43:20.575Z</time></trkpt><trkpt lat="45.9417947" lon="11.5565086"><ele>1580.8333333333333</ele><time>2026-05-01T09:43:21.581Z</time></trkpt><trkpt lat="45.9417132" lon="11.5565697"><ele>1581.6666666666665</ele><time>2026-05-01T09:43:22.574Z</time></trkpt><trkpt lat="45.9416276" lon="11.5566208"><ele>1582.5</ele><time>2026-05-01T09:43:23.582Z</time></trkpt><trkpt lat="45.9415504" lon="11.5566596"><ele>1583.3333333333335</ele><time>2026-05-01T09:43:24.579Z</time></trkpt><trkpt lat="45.9414897" lon="11.5566946"><ele>1584.1666666666667</ele><time>2026-05-01T09:43:25.574Z</time></trkpt><trkpt lat="45.9414226" lon="11.5568056"><ele>1585.0</ele><time>2026-05-01T09:43:27.578Z</time></trkpt><trkpt lat="45.9414424" lon="11.556935"><ele>1585.0000000000002</ele><time>2026-05-01T09:43:29.587Z</time></trkpt><trkpt lat="45.9414936" lon="11.5569902"><ele>1585.0</ele><time>2026-05-01T09:43:30.575Z</time></trkpt><trkpt lat="45.9415514" lon="11.5570787"><ele>1585.0</ele><time>2026-05-01T09:43:31.574Z</time></trkpt><trkpt lat="45.9416121" lon="11.5571784"><ele>1585.0</ele><time>2026-05-01T09:43:32.573Z</time></trkpt><trkpt lat="45.9416644" lon="11.5572904"><ele>1585.0000000000002</ele><time>2026-05-01T09:43:33.568Z</time></trkpt><trkpt lat="45.9417116" lon="11.5574177"><ele>1585.0</ele><time>2026-05-01T09:43:34.574Z</time></trkpt><trkpt lat="45.9417678" lon="11.5575476"><ele>1590.6</ele><time>2026-05-01T09:43:35.595Z</time></trkpt><trkpt lat="45.9418108" lon="11.5576698"><ele>1596.2</ele><time>2026-05-01T09:43:36.571Z</time></trkpt><trkpt lat="45.9418424" lon="11.5577894"><ele>1601.8000000000002</ele><time>2026-05-01T09:43:37.574Z</time></trkpt><trkpt lat="45.9418554" lon="11.5579178"><ele>1607.4</ele><time>2026-05-01T09:43:38.568Z</time></trkpt><trkpt lat="45.9418539" lon="11.5580446"><ele>1613.0</ele><time>2026-05-01T09:43:39.575Z</time></trkpt><trkpt lat="45.941845" lon="11.5581813"><ele>1613.3333333333333</ele><time>2026-05-01T09:43:40.571Z</time></trkpt><trkpt lat="45.9418116" lon="11.5583021"><ele>1613.6666666666665</ele><time>2026-05-01T09:43:41.571Z</time></trkpt><trkpt lat="45.9417847" lon="11.5584228"><ele>1614.0</ele><time>2026-05-01T09:43:42.557Z</time></trkpt><trkpt lat="45.9417925" lon="11.5585524"><ele>1614.3333333333335</ele><time>2026-05-01T09:43:43.579Z</time></trkpt><trkpt lat="45.9417842" lon="11.5586724"><ele>1614.6666666666667</ele><time>2026-05-01T09:43:44.57Z</time></trkpt><trkpt lat="45.9417624" lon="11.5587764"><ele>1615.0</ele><time>2026-05-01T09:43:45.574Z</time></trkpt><trkpt lat="45.9417125" lon="11.5588696"><ele>1612.1666666666667</ele><time>2026-05-01T09:43:46.584Z</time></trkpt><trkpt lat="45.9416646" lon="11.5589603"><ele>1609.3333333333335</ele><time>2026-05-01T09:43:47.571Z</time></trkpt><trkpt lat="45.9416054" lon="11.5590169"><ele>1606.5</ele><time>2026-05-01T09:43:48.586Z</time></trkpt><trkpt lat="45.9415283" lon="11.5590117"><ele>1603.6666666666665</ele><time>2026-05-01T09:43:49.573Z</time></trkpt><trkpt lat="45.9414437" lon="11.5590023"><ele>1600.8333333333333</ele><time>2026-05-01T09:43:50.575Z</time></trkpt><trkpt lat="45.9413563" lon="11.5589734"><ele>1598.0</ele><time>2026-05-01T09:43:51.573Z</time></trkpt><trkpt lat="45.9412602" lon="11.5589923"><ele>1598.0</ele><time>2026-05-01T09:43:52.578Z</time></trkpt><trkpt lat="45.9411522" lon="11.5590343"><ele>1598.0</ele><time>2026-05-01T09:43:53.573Z</time></trkpt><trkpt lat="45.9410718" lon="11.5590819"><ele>1598.0</ele><time>2026-05-01T09:43:54.574Z</time></trkpt><trkpt lat="45.9409904" lon="11.5591315"><ele>1598.0</ele><time>2026-05-01T09:43:55.572Z</time></trkpt><trkpt lat="45.940928" lon="11.559229"><ele>1598.0</ele><time>2026-05-01T09:43:56.574Z</time></trkpt><trkpt lat="45.9408727" lon="11.5593391"><ele>1597.8000000000002</ele><time>2026-05-01T09:43:57.572Z</time></trkpt><trkpt lat="45.9408208" lon="11.5594601"><ele>1597.6</ele><time>2026-05-01T09:43:58.573Z</time></trkpt><trkpt lat="45.9407766" lon="11.5595849"><ele>1597.4</ele><time>2026-05-01T09:43:59.573Z</time></trkpt><trkpt lat="45.9407232" lon="11.5597044"><ele>1597.1999999999998</ele><time>2026-05-01T09:44:00.574Z</time></trkpt><trkpt lat="45.9406721" lon="11.5598279"><ele>1597.0</ele><time>2026-05-01T09:44:01.576Z</time></trkpt><trkpt lat="45.9406163" lon="11.5599331"><ele>1597.0000000000002</ele><time>2026-05-01T09:44:02.575Z</time></trkpt><trkpt lat="45.9405648" lon="11.5600404"><ele>1597.0</ele><time>2026-05-01T09:44:03.569Z</time></trkpt><trkpt lat="45.9405131" lon="11.5601482"><ele>1597.0</ele><time>2026-05-01T09:44:04.57Z</time></trkpt><trkpt lat="45.9404515" lon="11.5602418"><ele>1597.0</ele><time>2026-05-01T09:44:05.572Z</time></trkpt><trkpt lat="45.940394" lon="11.560328"><ele>1597.0000000000002</ele><time>2026-05-01T09:44:06.569Z</time></trkpt><trkpt lat="45.9403165" lon="11.5603744"><ele>1597.0</ele><time>2026-05-01T09:44:07.57Z</time></trkpt><trkpt lat="45.9402304" lon="11.5603886"><ele>1597.0000000000002</ele><time>2026-05-01T09:44:08.572Z</time></trkpt><trkpt lat="45.940146" lon="11.5603681"><ele>1597.0</ele><time>2026-05-01T09:44:09.568Z</time></trkpt><trkpt lat="45.9400659" lon="11.5603433"><ele>1597.0</ele><time>2026-05-01T09:44:10.572Z</time></trkpt><trkpt lat="45.9399944" lon="11.5602816"><ele>1597.0</ele><time>2026-05-01T09:44:11.57Z</time></trkpt><trkpt lat="45.9399103" lon="11.5602423"><ele>1597.0000000000002</ele><time>2026-05-01T09:44:12.57Z</time></trkpt><trkpt lat="45.9398249" lon="11.5602418"><ele>1597.0</ele><time>2026-05-01T09:44:13.569Z</time></trkpt><trkpt lat="45.9397303" lon="11.560266"><ele>1598.8</ele><time>2026-05-01T09:44:14.572Z</time></trkpt><trkpt lat="45.9396364" lon="11.5603118"><ele>1600.6</ele><time>2026-05-01T09:44:15.566Z</time></trkpt><trkpt lat="45.9395453" lon="11.5603712"><ele>1602.3999999999999</ele><time>2026-05-01T09:44:16.57Z</time></trkpt><trkpt lat="45.9394554" lon="11.5604368"><ele>1604.1999999999998</ele><time>2026-05-01T09:44:17.578Z</time></trkpt><trkpt lat="45.9393644" lon="11.5604985"><ele>1606.0</ele><time>2026-05-01T09:44:18.581Z</time></trkpt><trkpt lat="45.9392718" lon="11.5605518"><ele>1603.0</ele><time>2026-05-01T09:44:19.571Z</time></trkpt><trkpt lat="45.939182" lon="11.5606117"><ele>1600.0</ele><time>2026-05-01T09:44:20.57Z</time></trkpt><trkpt lat="45.939092" lon="11.5606706"><ele>1597.0</ele><time>2026-05-01T09:44:21.572Z</time></trkpt><trkpt lat="45.9390185" lon="11.5607517"><ele>1594.0</ele><time>2026-05-01T09:44:22.573Z</time></trkpt><trkpt lat="45.9389508" lon="11.5608275"><ele>1591.0</ele><time>2026-05-01T09:44:23.571Z</time></trkpt><trkpt lat="45.9389176" lon="11.5609266"><ele>1591.0</ele><time>2026-05-01T09:44:24.569Z</time></trkpt><trkpt lat="45.9388988" lon="11.5610456"><ele>1591.0</ele><time>2026-05-01T09:44:25.573Z</time></trkpt><trkpt lat="45.9388923" lon="11.5611841"><ele>1591.0</ele><time>2026-05-01T09:44:26.569Z</time></trkpt><trkpt lat="45.9388881" lon="11.5613177"><ele>1591.0</ele><time>2026-05-01T09:44:27.57Z</time></trkpt><trkpt lat="45.9388835" lon="11.5614622"><ele>1591.0</ele><time>2026-05-01T09:44:28.576Z</time></trkpt><trkpt lat="45.9388763" lon="11.561601"><ele>1593.4</ele><time>2026-05-01T09:44:29.559Z</time></trkpt><trkpt lat="45.9388496" lon="11.5617357"><ele>1595.8</ele><time>2026-05-01T09:44:30.578Z</time></trkpt><trkpt lat="45.938821" lon="11.5618716"><ele>1598.2</ele><time>2026-05-01T09:44:31.572Z</time></trkpt><trkpt lat="45.938799" lon="11.5620043"><ele>1600.6000000000001</ele><time>2026-05-01T09:44:32.571Z</time></trkpt><trkpt lat="45.9387822" lon="11.5621217"><ele>1603.0</ele><time>2026-05-01T09:44:33.572Z</time></trkpt><trkpt lat="45.9387964" lon="11.5622526"><ele>1603.0</ele><time>2026-05-01T09:44:34.574Z</time></trkpt><trkpt lat="45.9388218" lon="11.5623958"><ele>1603.0</ele><time>2026-05-01T09:44:35.576Z</time></trkpt><trkpt lat="45.9388483" lon="11.5625415"><ele>1603.0</ele><time>2026-05-01T09:44:36.57Z</time></trkpt><trkpt lat="45.9388738" lon="11.5626823"><ele>1603.0</ele><time>2026-05-01T09:44:37.579Z</time></trkpt><trkpt lat="45.9388879" lon="11.5628112"><ele>1603.0</ele><time>2026-05-01T09:44:38.571Z</time></trkpt><trkpt lat="45.9388861" lon="11.5629411"><ele>1603.0000000000002</ele><time>2026-05-01T09:44:39.572Z</time></trkpt><trkpt lat="45.9388926" lon="11.5630599"><ele>1603.0</ele><time>2026-05-01T09:44:40.571Z</time></trkpt><trkpt lat="45.9389021" lon="11.5631806"><ele>1603.0</ele><time>2026-05-01T09:44:41.573Z</time></trkpt><trkpt lat="45.9389349" lon="11.5632849"><ele>1603.0</ele><time>2026-05-01T09:44:42.57Z</time></trkpt><trkpt lat="45.938972" lon="11.563379"><ele>1603.0000000000002</ele><time>2026-05-01T09:44:43.574Z</time></trkpt><trkpt lat="45.9390062" lon="11.5634668"><ele>1603.0</ele><time>2026-05-01T09:44:44.572Z</time></trkpt><trkpt lat="45.9390245" lon="11.5635601"><ele>1603.0000000000002</ele><time>2026-05-01T09:44:45.577Z</time></trkpt><trkpt lat="45.9390102" lon="11.5636612"><ele>1603.0</ele><time>2026-05-01T09:44:46.567Z</time></trkpt><trkpt lat="45.9389726" lon="11.5637732"><ele>1603.0</ele><time>2026-05-01T09:44:47.579Z</time></trkpt><trkpt lat="45.9389399" lon="11.563885"><ele>1603.0</ele><time>2026-05-01T09:44:48.564Z</time></trkpt><trkpt lat="45.9389203" lon="11.5640039"><ele>1603.0000000000002</ele><time>2026-05-01T09:44:49.571Z</time></trkpt><trkpt lat="45.9389483" lon="11.5641313"><ele>1603.0</ele><time>2026-05-01T09:44:50.564Z</time></trkpt><trkpt lat="45.9389848" lon="11.5642441"><ele>1602.6666666666667</ele><time>2026-05-01T09:44:51.573Z</time></trkpt><trkpt lat="45.939031" lon="11.5643576"><ele>1602.3333333333335</ele><time>2026-05-01T09:44:52.567Z</time></trkpt><trkpt lat="45.9390745" lon="11.5644687"><ele>1602.0</ele><time>2026-05-01T09:44:53.568Z</time></trkpt><trkpt lat="45.9391132" lon="11.5645747"><ele>1601.6666666666665</ele><time>2026-05-01T09:44:54.577Z</time></trkpt><trkpt lat="45.939137" lon="11.5646876"><ele>1601.3333333333333</ele><time>2026-05-01T09:44:55.571Z</time></trkpt><trkpt lat="45.9391474" lon="11.5648097"><ele>1601.0</ele><time>2026-05-01T09:44:56.573Z</time></trkpt><trkpt lat="45.9391558" lon="11.5649368"><ele>1600.9999999999998</ele><time>2026-05-01T09:44:57.572Z</time></trkpt><trkpt lat="45.9391598" lon="11.5650664"><ele>1601.0</ele><time>2026-05-01T09:44:58.576Z</time></trkpt><trkpt lat="45.9391695" lon="11.5651799"><ele>1601.0</ele><time>2026-05-01T09:44:59.577Z</time></trkpt><trkpt lat="45.9391867" lon="11.5652976"><ele>1601.0</ele><time>2026-05-01T09:45:00.58Z</time></trkpt><trkpt lat="45.9392171" lon="11.565436"><ele>1600.9999999999998</ele><time>2026-05-01T09:45:01.586Z</time></trkpt><trkpt lat="45.9392465" lon="11.5655575"><ele>1601.0</ele><time>2026-05-01T09:45:02.581Z</time></trkpt><trkpt lat="45.9392637" lon="11.5656854"><ele>1602.0</ele><time>2026-05-01T09:45:03.577Z</time></trkpt><trkpt lat="45.9392787" lon="11.5658228"><ele>1603.0</ele><time>2026-05-01T09:45:04.571Z</time></trkpt><trkpt lat="45.9392933" lon="11.5659637"><ele>1604.0</ele><time>2026-05-01T09:45:05.577Z</time></trkpt><trkpt lat="45.9393213" lon="11.5660973"><ele>1605.0</ele><time>2026-05-01T09:45:06.575Z</time></trkpt><trkpt lat="45.9393529" lon="11.5662187"><ele>1606.0</ele><time>2026-05-01T09:45:07.574Z</time></trkpt><trkpt lat="45.9394021" lon="11.5663396"><ele>1606.0000000000002</ele><time>2026-05-01T09:45:08.575Z</time></trkpt><trkpt lat="45.939447" lon="11.5664461"><ele>1606.0</ele><time>2026-05-01T09:45:09.578Z</time></trkpt><trkpt lat="45.9394855" lon="11.5665422"><ele>1606.0</ele><time>2026-05-01T09:45:10.582Z</time></trkpt><trkpt lat="45.9395083" lon="11.5666373"><ele>1606.0</ele><time>2026-05-01T09:45:11.587Z</time></trkpt><trkpt lat="45.9395109" lon="11.5667423"><ele>1606.0000000000002</ele><time>2026-05-01T09:45:12.578Z</time></trkpt><trkpt lat="45.9395109" lon="11.5668419"><ele>1606.0</ele><time>2026-05-01T09:45:13.586Z</time></trkpt><trkpt lat="45.939492" lon="11.5669458"><ele>1604.0000000000002</ele><time>2026-05-01T09:45:14.573Z</time></trkpt><trkpt lat="45.9394674" lon="11.5670575"><ele>1602.0</ele><time>2026-05-01T09:45:15.577Z</time></trkpt><trkpt lat="45.9394445" lon="11.5671698"><ele>1600.0</ele><time>2026-05-01T09:45:16.578Z</time></trkpt><trkpt lat="45.9394158" lon="11.5672833"><ele>1598.0</ele><time>2026-05-01T09:45:17.576Z</time></trkpt><trkpt lat="45.9393878" lon="11.5673941"><ele>1596.0000000000002</ele><time>2026-05-01T09:45:18.573Z</time></trkpt><trkpt lat="45.9393599" lon="11.5675056"><ele>1594.0</ele><time>2026-05-01T09:45:19.578Z</time></trkpt><trkpt lat="45.9393414" lon="11.5676156"><ele>1594.0000000000002</ele><time>2026-05-01T09:45:20.581Z</time></trkpt><trkpt lat="45.9393426" lon="11.5677362"><ele>1594.0</ele><time>2026-05-01T09:45:21.584Z</time></trkpt><trkpt lat="45.9393488" lon="11.5678605"><ele>1594.0</ele><time>2026-05-01T09:45:22.576Z</time></trkpt><trkpt lat="45.9393551" lon="11.5679807"><ele>1594.0</ele><time>2026-05-01T09:45:23.578Z</time></trkpt><trkpt lat="45.9393632" lon="11.5680879"><ele>1594.0000000000002</ele><time>2026-05-01T09:45:24.58Z</time></trkpt><trkpt lat="45.9393712" lon="11.5681918"><ele>1594.0</ele><time>2026-05-01T09:45:25.574Z</time></trkpt><trkpt lat="45.9393783" lon="11.5682939"><ele>1592.0000000000002</ele><time>2026-05-01T09:45:26.577Z</time></trkpt><trkpt lat="45.9393835" lon="11.5683921"><ele>1590.0</ele><time>2026-05-01T09:45:27.58Z</time></trkpt><trkpt lat="45.9393817" lon="11.5684914"><ele>1588.0</ele><time>2026-05-01T09:45:28.573Z</time></trkpt><trkpt lat="45.9393774" lon="11.5685887"><ele>1586.0</ele><time>2026-05-01T09:45:29.573Z</time></trkpt><trkpt lat="45.9393404" lon="11.5687502"><ele>1584.0000000000002</ele><time>2026-05-01T09:45:31.573Z</time></trkpt><trkpt lat="45.9393033" lon="11.5688404"><ele>1582.0</ele><time>2026-05-01T09:45:32.572Z</time></trkpt><trkpt lat="45.9392535" lon="11.5689178"><ele>1584.3333333333335</ele><time>2026-05-01T09:45:33.571Z</time></trkpt><trkpt lat="45.9391892" lon="11.5689868"><ele>1586.6666666666667</ele><time>2026-05-01T09:45:34.571Z</time></trkpt><trkpt lat="45.9391148" lon="11.5690453"><ele>1589.0</ele><time>2026-05-01T09:45:35.569Z</time></trkpt><trkpt lat="45.939043" lon="11.5690969"><ele>1591.3333333333335</ele><time>2026-05-01T09:45:36.574Z</time></trkpt><trkpt lat="45.9389849" lon="11.5691724"><ele>1593.6666666666667</ele><time>2026-05-01T09:45:37.573Z</time></trkpt><trkpt lat="45.9389479" lon="11.5692509"><ele>1596.0</ele><time>2026-05-01T09:45:38.571Z</time></trkpt><trkpt lat="45.9389111" lon="11.5693318"><ele>1596.0</ele><time>2026-05-01T09:45:39.569Z</time></trkpt><trkpt lat="45.9389056" lon="11.5694425"><ele>1596.0</ele><time>2026-05-01T09:45:40.575Z</time></trkpt><trkpt lat="45.9389173" lon="11.569565"><ele>1596.0</ele><time>2026-05-01T09:45:41.569Z</time></trkpt><trkpt lat="45.9389436" lon="11.5696827"><ele>1596.0</ele><time>2026-05-01T09:45:42.572Z</time></trkpt><trkpt lat="45.9389851" lon="11.5697909"><ele>1596.0</ele><time>2026-05-01T09:45:43.57Z</time></trkpt><trkpt lat="45.9390264" lon="11.569904"><ele>1596.0</ele><time>2026-05-01T09:45:44.576Z</time></trkpt><trkpt lat="45.9390639" lon="11.5700181"><ele>1594.6666666666667</ele><time>2026-05-01T09:45:45.57Z</time></trkpt><trkpt lat="45.9390913" lon="11.5701325"><ele>1593.3333333333335</ele><time>2026-05-01T09:45:46.574Z</time></trkpt><trkpt lat="45.9391126" lon="11.5702599"><ele>1592.0</ele><time>2026-05-01T09:45:47.571Z</time></trkpt><trkpt lat="45.939117" lon="11.5703745"><ele>1590.6666666666667</ele><time>2026-05-01T09:45:48.578Z</time></trkpt><trkpt lat="45.9391182" lon="11.5704947"><ele>1589.3333333333335</ele><time>2026-05-01T09:45:49.575Z</time></trkpt><trkpt lat="45.9391122" lon="11.5706241"><ele>1588.0</ele><time>2026-05-01T09:45:50.57Z</time></trkpt><trkpt lat="45.9391082" lon="11.5707427"><ele>1586.8000000000002</ele><time>2026-05-01T09:45:51.574Z</time></trkpt><trkpt lat="45.9391088" lon="11.5708489"><ele>1585.6</ele><time>2026-05-01T09:45:52.579Z</time></trkpt><trkpt lat="45.9391104" lon="11.570943"><ele>1584.4</ele><time>2026-05-01T09:45:53.574Z</time></trkpt><trkpt lat="45.9391021" lon="11.5711208"><ele>1583.1999999999998</ele><time>2026-05-01T09:45:55.57Z</time></trkpt><trkpt lat="45.9390347" lon="11.5712655"><ele>1582.0</ele><time>2026-05-01T09:45:57.566Z</time></trkpt><trkpt lat="45.9389611" lon="11.5712926"><ele>1579.3999999999999</ele><time>2026-05-01T09:45:58.566Z</time></trkpt><trkpt lat="45.9388832" lon="11.5713324"><ele>1576.8</ele><time>2026-05-01T09:45:59.577Z</time></trkpt><trkpt lat="45.9388089" lon="11.5713857"><ele>1574.2</ele><time>2026-05-01T09:46:00.571Z</time></trkpt><trkpt lat="45.9387327" lon="11.5714819"><ele>1571.6</ele><time>2026-05-01T09:46:01.573Z</time></trkpt><trkpt lat="45.9386707" lon="11.5715444"><ele>1569.0</ele><time>2026-05-01T09:46:02.573Z</time></trkpt><trkpt lat="45.938587" lon="11.5716693"><ele>1569.0</ele><time>2026-05-01T09:46:03.571Z</time></trkpt><trkpt lat="45.9385592" lon="11.5717767"><ele>1569.0</ele><time>2026-05-01T09:46:04.576Z</time></trkpt><trkpt lat="45.9385328" lon="11.5718817"><ele>1569.0</ele><time>2026-05-01T09:46:05.57Z</time></trkpt><trkpt lat="45.9385402" lon="11.5719869"><ele>1569.0</ele><time>2026-05-01T09:46:06.575Z</time></trkpt><trkpt lat="45.9385561" lon="11.5720961"><ele>1569.0</ele><time>2026-05-01T09:46:07.582Z</time></trkpt><trkpt lat="45.9385716" lon="11.5721981"><ele>1569.0</ele><time>2026-05-01T09:46:08.571Z</time></trkpt><trkpt lat="45.9385558" lon="11.572372"><ele>1568.8333333333333</ele><time>2026-05-01T09:46:10.58Z</time></trkpt><trkpt lat="45.9385078" lon="11.572431"><ele>1568.6666666666665</ele><time>2026-05-01T09:46:11.568Z</time></trkpt><trkpt lat="45.9383857" lon="11.5724692"><ele>1568.5</ele><time>2026-05-01T09:46:13.574Z</time></trkpt><trkpt lat="45.9383226" lon="11.5724858"><ele>1568.3333333333333</ele><time>2026-05-01T09:46:14.58Z</time></trkpt><trkpt lat="45.9382542" lon="11.5724845"><ele>1568.1666666666665</ele><time>2026-05-01T09:46:16.571Z</time></trkpt><trkpt lat="45.9381844" lon="11.5723664"><ele>1568.0</ele><time>2026-05-01T09:46:18.577Z</time></trkpt><trkpt lat="45.9381295" lon="11.5722908"><ele>1567.9999999999998</ele><time>2026-05-01T09:46:20.579Z</time></trkpt><trkpt lat="45.9380638" lon="11.5723314"><ele>1568.0</ele><time>2026-05-01T09:46:24.583Z</time></trkpt><trkpt lat="45.9381009" lon="11.5724637"><ele>1568.0</ele><time>2026-05-01T09:46:27.574Z</time></trkpt><trkpt lat="45.938188" lon="11.5725728"><ele>1568.0</ele><time>2026-05-01T09:46:29.574Z</time></trkpt><trkpt lat="45.9382528" lon="11.5726255"><ele>1567.9999999999998</ele><time>2026-05-01T09:46:30.591Z</time></trkpt><trkpt lat="45.938317" lon="11.5726778"><ele>1568.0</ele><time>2026-05-01T09:46:31.562Z</time></trkpt><trkpt lat="45.9383774" lon="11.5727209"><ele>1566.0</ele><time>2026-05-01T09:46:32.553Z</time></trkpt><trkpt lat="45.9384876" lon="11.5727417"><ele>1564.0</ele><time>2026-05-01T09:46:34.559Z</time></trkpt><trkpt lat="45.9385801" lon="11.5727203"><ele>1562.0</ele><time>2026-05-01T09:46:36.564Z</time></trkpt><trkpt lat="45.9386658" lon="11.5726796"><ele>1560.0</ele><time>2026-05-01T09:46:38.564Z</time></trkpt><trkpt lat="45.9387458" lon="11.5726389"><ele>1558.0</ele><time>2026-05-01T09:46:40.562Z</time></trkpt><trkpt lat="45.9388232" lon="11.5725966"><ele>1558.0000000000002</ele><time>2026-05-01T09:46:42.565Z</time></trkpt><trkpt lat="45.9388801" lon="11.5725271"><ele>1558.0</ele><time>2026-05-01T09:46:44.574Z</time></trkpt><trkpt lat="45.9389044" lon="11.5724313"><ele>1558.0</ele><time>2026-05-01T09:46:46.578Z</time></trkpt><trkpt lat="45.938908" lon="11.5723247"><ele>1558.0</ele><time>2026-05-01T09:46:48.582Z</time></trkpt><trkpt lat="45.9388929" lon="11.5722191"><ele>1558.0000000000002</ele><time>2026-05-01T09:46:50.575Z</time></trkpt><trkpt lat="45.9389268" lon="11.5721127"><ele>1558.0</ele><time>2026-05-01T09:46:52.574Z</time></trkpt><trkpt lat="45.9389915" lon="11.5720615"><ele>1558.0000000000002</ele><time>2026-05-01T09:46:54.573Z</time></trkpt><trkpt lat="45.9390704" lon="11.5720895"><ele>1558.0</ele><time>2026-05-01T09:46:56.574Z</time></trkpt><trkpt lat="45.9391281" lon="11.5721547"><ele>1558.0</ele><time>2026-05-01T09:46:58.576Z</time></trkpt><trkpt lat="45.9391316" lon="11.5722481"><ele>1558.0</ele><time>2026-05-01T09:47:00.573Z</time></trkpt><trkpt lat="45.9390969" lon="11.5723584"><ele>1558.0000000000002</ele><time>2026-05-01T09:47:02.575Z</time></trkpt><trkpt lat="45.9390736" lon="11.5724737"><ele>1558.0</ele><time>2026-05-01T09:47:04.575Z</time></trkpt><trkpt lat="45.9390887" lon="11.572599"><ele>1558.0000000000002</ele><time>2026-05-01T09:47:06.574Z</time></trkpt><trkpt lat="45.9391253" lon="11.5727016"><ele>1558.0</ele><time>2026-05-01T09:47:08.579Z</time></trkpt><trkpt lat="45.9391427" lon="11.5728169"><ele>1558.0</ele><time>2026-05-01T09:47:10.558Z</time></trkpt><trkpt lat="45.9391189" lon="11.5729441"><ele>1558.0</ele><time>2026-05-01T09:47:13.579Z</time></trkpt><trkpt lat="45.9390643" lon="11.5730124"><ele>1558.0000000000002</ele><time>2026-05-01T09:47:15.577Z</time></trkpt><trkpt lat="45.9389821" lon="11.5730816"><ele>1558.0</ele><time>2026-05-01T09:47:17.574Z</time></trkpt><trkpt lat="45.9388833" lon="11.5731535"><ele>1555.0</ele><time>2026-05-01T09:47:19.577Z</time></trkpt><trkpt lat="45.93879" lon="11.5731817"><ele>1552.0</ele><time>2026-05-01T09:47:21.577Z</time></trkpt><trkpt lat="45.9386922" lon="11.5732366"><ele>1549.0</ele><time>2026-05-01T09:47:23.573Z</time></trkpt><trkpt lat="45.9386136" lon="11.5732709"><ele>1546.0</ele><time>2026-05-01T09:47:25.574Z</time></trkpt><trkpt lat="45.9385486" lon="11.5733102"><ele>1543.0</ele><time>2026-05-01T09:47:27.567Z</time></trkpt><trkpt lat="45.9384266" lon="11.5733455"><ele>1543.0</ele><time>2026-05-01T09:51:37.578Z</time></trkpt><trkpt lat="45.9385821" lon="11.5732171"><ele>1543.0</ele><time>2026-05-01T09:52:15.575Z</time></trkpt><trkpt lat="45.9386712" lon="11.5731847"><ele>1543.0</ele><time>2026-05-01T09:52:17.581Z</time></trkpt><trkpt lat="45.9387622" lon="11.573137"><ele>1543.0</ele><time>2026-05-01T09:52:19.576Z</time></trkpt><trkpt lat="45.9388629" lon="11.5730647"><ele>1543.0</ele><time>2026-05-01T09:52:21.578Z</time></trkpt><trkpt lat="45.938967" lon="11.57299"><ele>1543.0</ele><time>2026-05-01T09:52:23.579Z</time></trkpt><trkpt lat="45.9390539" lon="11.5729036"><ele>1543.0</ele><time>2026-05-01T09:52:25.582Z</time></trkpt><trkpt lat="45.9390879" lon="11.5728033"><ele>1543.0</ele><time>2026-05-01T09:52:27.576Z</time></trkpt><trkpt lat="45.9390806" lon="11.5726966"><ele>1543.0</ele><time>2026-05-01T09:52:29.584Z</time></trkpt><trkpt lat="45.9390308" lon="11.5725835"><ele>1546.0</ele><time>2026-05-01T09:52:31.575Z</time></trkpt><trkpt lat="45.9390119" lon="11.5724546"><ele>1549.0</ele><time>2026-05-01T09:52:33.576Z</time></trkpt><trkpt lat="45.9390228" lon="11.5723324"><ele>1552.0</ele><time>2026-05-01T09:52:35.576Z</time></trkpt><trkpt lat="45.9390633" lon="11.5722044"><ele>1555.0</ele><time>2026-05-01T09:52:37.567Z</time></trkpt><trkpt lat="45.9390472" lon="11.5720648"><ele>1558.0</ele><time>2026-05-01T09:52:39.571Z</time></trkpt><trkpt lat="45.9389734" lon="11.5719755"><ele>1558.0</ele><time>2026-05-01T09:52:41.573Z</time></trkpt><trkpt lat="45.9388811" lon="11.5720119"><ele>1558.0</ele><time>2026-05-01T09:52:43.575Z</time></trkpt><trkpt lat="45.9388092" lon="11.5721392"><ele>1558.0</ele><time>2026-05-01T09:52:45.575Z</time></trkpt><trkpt lat="45.9388157" lon="11.5723119"><ele>1558.0</ele><time>2026-05-01T09:52:47.575Z</time></trkpt><trkpt lat="45.938832" lon="11.5724625"><ele>1558.0</ele><time>2026-05-01T09:52:49.57Z</time></trkpt><trkpt lat="45.9388035" lon="11.5725689"><ele>1558.0000000000002</ele><time>2026-05-01T09:52:51.575Z</time></trkpt><trkpt lat="45.9387495" lon="11.5726195"><ele>1558.0</ele><time>2026-05-01T09:52:52.571Z</time></trkpt><trkpt lat="45.9386794" lon="11.5726696"><ele>1558.0</ele><time>2026-05-01T09:52:53.576Z</time></trkpt><trkpt lat="45.9385836" lon="11.5727075"><ele>1558.0</ele><time>2026-05-01T09:52:54.581Z</time></trkpt><trkpt lat="45.9384964" lon="11.5727231"><ele>1558.0000000000002</ele><time>2026-05-01T09:52:55.58Z</time></trkpt><trkpt lat="45.9384089" lon="11.5727431"><ele>1558.0</ele><time>2026-05-01T09:52:56.585Z</time></trkpt><trkpt lat="45.938328" lon="11.5727319"><ele>1559.6666666666667</ele><time>2026-05-01T09:52:57.581Z</time></trkpt><trkpt lat="45.9382515" lon="11.5727003"><ele>1561.3333333333335</ele><time>2026-05-01T09:52:58.582Z</time></trkpt><trkpt lat="45.938178" lon="11.5726539"><ele>1563.0</ele><time>2026-05-01T09:52:59.58Z</time></trkpt><trkpt lat="45.9381142" lon="11.5725806"><ele>1564.6666666666665</ele><time>2026-05-01T09:53:00.578Z</time></trkpt><trkpt lat="45.9380663" lon="11.5725099"><ele>1566.3333333333333</ele><time>2026-05-01T09:53:01.581Z</time></trkpt><trkpt lat="45.9380106" lon="11.5723829"><ele>1568.0</ele><time>2026-05-01T09:53:03.57Z</time></trkpt><trkpt lat="45.9381099" lon="11.572308"><ele>1567.9999999999998</ele><time>2026-05-01T09:53:07.569Z</time></trkpt><trkpt lat="45.9381901" lon="11.5724581"><ele>1568.0</ele><time>2026-05-01T09:53:09.58Z</time></trkpt><trkpt lat="45.9382436" lon="11.5725274"><ele>1568.0</ele><time>2026-05-01T09:53:10.578Z</time></trkpt><trkpt lat="45.9382974" lon="11.5725961"><ele>1568.0</ele><time>2026-05-01T09:53:11.577Z</time></trkpt><trkpt lat="45.9383761" lon="11.5726023"><ele>1567.9999999999998</ele><time>2026-05-01T09:53:12.577Z</time></trkpt><trkpt lat="45.9384538" lon="11.5726045"><ele>1568.0</ele><time>2026-05-01T09:53:13.576Z</time></trkpt><trkpt lat="45.9385244" lon="11.5725521"><ele>1568.142857142857</ele><time>2026-05-01T09:53:14.576Z</time></trkpt><trkpt lat="45.9385676" lon="11.5724754"><ele>1568.2857142857142</ele><time>2026-05-01T09:53:15.575Z</time></trkpt><trkpt lat="45.9385875" lon="11.572383"><ele>1568.4285714285716</ele><time>2026-05-01T09:53:16.574Z</time></trkpt><trkpt lat="45.9385847" lon="11.5722812"><ele>1568.5714285714284</ele><time>2026-05-01T09:53:17.576Z</time></trkpt><trkpt lat="45.9385684" lon="11.5721703"><ele>1568.7142857142858</ele><time>2026-05-01T09:53:18.581Z</time></trkpt><trkpt lat="45.93855" lon="11.5720625"><ele>1568.857142857143</ele><time>2026-05-01T09:53:19.589Z</time></trkpt><trkpt lat="45.938549" lon="11.5719563"><ele>1569.0</ele><time>2026-05-01T09:53:20.575Z</time></trkpt><trkpt lat="45.9385462" lon="11.5718534"><ele>1569.0</ele><time>2026-05-01T09:53:21.579Z</time></trkpt><trkpt lat="45.9385766" lon="11.5717405"><ele>1569.0</ele><time>2026-05-01T09:53:22.585Z</time></trkpt><trkpt lat="45.9386047" lon="11.5716495"><ele>1569.0</ele><time>2026-05-01T09:53:23.58Z</time></trkpt><trkpt lat="45.9386505" lon="11.5715754"><ele>1569.0</ele><time>2026-05-01T09:53:24.576Z</time></trkpt><trkpt lat="45.9387055" lon="11.5714974"><ele>1569.0</ele><time>2026-05-01T09:53:25.57Z</time></trkpt><trkpt lat="45.9387678" lon="11.5714233"><ele>1569.0</ele><time>2026-05-01T09:53:26.578Z</time></trkpt><trkpt lat="45.9388284" lon="11.5713681"><ele>1569.0</ele><time>2026-05-01T09:53:27.584Z</time></trkpt><trkpt lat="45.9388985" lon="11.5713165"><ele>1569.0</ele><time>2026-05-01T09:53:28.579Z</time></trkpt><trkpt lat="45.9389599" lon="11.5712774"><ele>1569.0</ele><time>2026-05-01T09:53:29.571Z</time></trkpt><trkpt lat="45.9390228" lon="11.5712507"><ele>1569.0</ele><time>2026-05-01T09:53:30.573Z</time></trkpt><trkpt lat="45.9390818" lon="11.5711101"><ele>1569.0</ele><time>2026-05-01T09:53:32.571Z</time></trkpt><trkpt lat="45.9390811" lon="11.5709258"><ele>1571.1666666666667</ele><time>2026-05-01T09:53:34.584Z</time></trkpt><trkpt lat="45.9390704" lon="11.5708162"><ele>1573.3333333333335</ele><time>2026-05-01T09:53:35.573Z</time></trkpt><trkpt lat="45.9390598" lon="11.5707016"><ele>1575.5</ele><time>2026-05-01T09:53:36.577Z</time></trkpt><trkpt lat="45.9390569" lon="11.570589"><ele>1577.6666666666667</ele><time>2026-05-01T09:53:37.567Z</time></trkpt><trkpt lat="45.9390501" lon="11.5704787"><ele>1579.8333333333335</ele><time>2026-05-01T09:53:38.573Z</time></trkpt><trkpt lat="45.9390434" lon="11.5703574"><ele>1582.0</ele><time>2026-05-01T09:53:39.57Z</time></trkpt><trkpt lat="45.9390252" lon="11.5702296"><ele>1583.0000000000002</ele><time>2026-05-01T09:53:40.571Z</time></trkpt><trkpt lat="45.9389902" lon="11.5701111"><ele>1584.0</ele><time>2026-05-01T09:53:41.561Z</time></trkpt><trkpt lat="45.9389514" lon="11.5699849"><ele>1585.0</ele><time>2026-05-01T09:53:42.57Z</time></trkpt><trkpt lat="45.9389081" lon="11.5698773"><ele>1586.0</ele><time>2026-05-01T09:53:43.577Z</time></trkpt><trkpt lat="45.9388624" lon="11.5697638"><ele>1587.0000000000002</ele><time>2026-05-01T09:53:44.573Z</time></trkpt><trkpt lat="45.9388262" lon="11.5696745"><ele>1588.0</ele><time>2026-05-01T09:53:45.569Z</time></trkpt><trkpt lat="45.9388078" lon="11.5695801"><ele>1589.3333333333335</ele><time>2026-05-01T09:53:46.574Z</time></trkpt><trkpt lat="45.9388203" lon="11.5694892"><ele>1590.6666666666667</ele><time>2026-05-01T09:53:47.576Z</time></trkpt><trkpt lat="45.9388599" lon="11.5694025"><ele>1592.0</ele><time>2026-05-01T09:53:48.585Z</time></trkpt><trkpt lat="45.9389313" lon="11.5693278"><ele>1593.3333333333335</ele><time>2026-05-01T09:53:49.578Z</time></trkpt><trkpt lat="45.9390203" lon="11.5692569"><ele>1594.6666666666667</ele><time>2026-05-01T09:53:50.577Z</time></trkpt><trkpt lat="45.9391116" lon="11.5691793"><ele>1596.0</ele><time>2026-05-01T09:53:51.579Z</time></trkpt><trkpt lat="45.9391811" lon="11.5691045"><ele>1593.6666666666667</ele><time>2026-05-01T09:53:52.586Z</time></trkpt><trkpt lat="45.9392317" lon="11.5690074"><ele>1591.3333333333335</ele><time>2026-05-01T09:53:53.575Z</time></trkpt><trkpt lat="45.9392738" lon="11.5689036"><ele>1589.0</ele><time>2026-05-01T09:53:54.579Z</time></trkpt><trkpt lat="45.9393111" lon="11.5687874"><ele>1586.6666666666667</ele><time>2026-05-01T09:53:55.574Z</time></trkpt><trkpt lat="45.939341" lon="11.5686595"><ele>1584.3333333333335</ele><time>2026-05-01T09:53:56.58Z</time></trkpt><trkpt lat="45.9393443" lon="11.5685394"><ele>1582.0</ele><time>2026-05-01T09:53:57.579Z</time></trkpt><trkpt lat="45.9393407" lon="11.5684025"><ele>1582.0</ele><time>2026-05-01T09:53:58.574Z</time></trkpt><trkpt lat="45.9393359" lon="11.5682753"><ele>1582.0</ele><time>2026-05-01T09:53:59.578Z</time></trkpt><trkpt lat="45.9393298" lon="11.5681337"><ele>1582.0</ele><time>2026-05-01T09:54:00.582Z</time></trkpt><trkpt lat="45.9393148" lon="11.567979"><ele>1582.0</ele><time>2026-05-01T09:54:01.572Z</time></trkpt><trkpt lat="45.9393078" lon="11.5678402"><ele>1582.0</ele><time>2026-05-01T09:54:02.571Z</time></trkpt><trkpt lat="45.9393056" lon="11.5676961"><ele>1584.3999999999999</ele><time>2026-05-01T09:54:03.571Z</time></trkpt><trkpt lat="45.9393028" lon="11.5675634"><ele>1586.8</ele><time>2026-05-01T09:54:04.575Z</time></trkpt><trkpt lat="45.9393273" lon="11.5674288"><ele>1589.2</ele><time>2026-05-01T09:54:05.583Z</time></trkpt><trkpt lat="45.9393535" lon="11.5673085"><ele>1591.6</ele><time>2026-05-01T09:54:06.583Z</time></trkpt><trkpt lat="45.9393814" lon="11.5671941"><ele>1594.0</ele><time>2026-05-01T09:54:07.576Z</time></trkpt><trkpt lat="45.939411" lon="11.5670666"><ele>1596.0000000000002</ele><time>2026-05-01T09:54:08.577Z</time></trkpt><trkpt lat="45.9394297" lon="11.5669423"><ele>1598.0</ele><time>2026-05-01T09:54:09.582Z</time></trkpt><trkpt lat="45.9394488" lon="11.5668183"><ele>1600.0</ele><time>2026-05-01T09:54:10.577Z</time></trkpt><trkpt lat="45.9394497" lon="11.5667053"><ele>1602.0</ele><time>2026-05-01T09:54:11.603Z</time></trkpt><trkpt lat="45.9394278" lon="11.5665945"><ele>1604.0000000000002</ele><time>2026-05-01T09:54:12.575Z</time></trkpt><trkpt lat="45.9393968" lon="11.566491"><ele>1606.0</ele><time>2026-05-01T09:54:13.58Z</time></trkpt><trkpt lat="45.9393619" lon="11.5664059"><ele>1606.0</ele><time>2026-05-01T09:54:14.57Z</time></trkpt><trkpt lat="45.9392928" lon="11.5662427"><ele>1606.0</ele><time>2026-05-01T09:54:16.572Z</time></trkpt><trkpt lat="45.9392592" lon="11.5661576"><ele>1606.0</ele><time>2026-05-01T09:54:17.58Z</time></trkpt><trkpt lat="45.9392336" lon="11.5660729"><ele>1606.0</ele><time>2026-05-01T09:54:18.573Z</time></trkpt><trkpt lat="45.9392048" lon="11.5659839"><ele>1606.0</ele><time>2026-05-01T09:54:19.587Z</time></trkpt><trkpt lat="45.939196" lon="11.5657853"><ele>1606.5000000000002</ele><time>2026-05-01T09:54:21.579Z</time></trkpt><trkpt lat="45.9391821" lon="11.5656795"><ele>1607.0</ele><time>2026-05-01T09:54:22.591Z</time></trkpt><trkpt lat="45.9391627" lon="11.5655668"><ele>1607.5</ele><time>2026-05-01T09:54:23.571Z</time></trkpt><trkpt lat="45.9391432" lon="11.5654558"><ele>1608.0</ele><time>2026-05-01T09:54:24.559Z</time></trkpt><trkpt lat="45.9391206" lon="11.5653492"><ele>1608.5000000000002</ele><time>2026-05-01T09:54:25.578Z</time></trkpt><trkpt lat="45.9390979" lon="11.5652422"><ele>1609.0</ele><time>2026-05-01T09:54:26.577Z</time></trkpt><trkpt lat="45.9390967" lon="11.565133"><ele>1607.857142857143</ele><time>2026-05-01T09:54:27.585Z</time></trkpt><trkpt lat="45.9391008" lon="11.5650225"><ele>1606.7142857142858</ele><time>2026-05-01T09:54:28.573Z</time></trkpt><trkpt lat="45.9391034" lon="11.5649213"><ele>1605.5714285714284</ele><time>2026-05-01T09:54:29.574Z</time></trkpt><trkpt lat="45.9390889" lon="11.5648146"><ele>1604.4285714285716</ele><time>2026-05-01T09:54:30.571Z</time></trkpt><trkpt lat="45.9390693" lon="11.5647144"><ele>1603.2857142857144</ele><time>2026-05-01T09:54:31.568Z</time></trkpt><trkpt lat="45.9390455" lon="11.564617"><ele>1602.142857142857</ele><time>2026-05-01T09:54:32.571Z</time></trkpt><trkpt lat="45.9390115" lon="11.5645122"><ele>1601.0</ele><time>2026-05-01T09:54:33.569Z</time></trkpt><trkpt lat="45.9389675" lon="11.5644047"><ele>1600.9999999999998</ele><time>2026-05-01T09:54:34.571Z</time></trkpt><trkpt lat="45.9389245" lon="11.5643054"><ele>1601.0</ele><time>2026-05-01T09:54:35.577Z</time></trkpt><trkpt lat="45.93889" lon="11.564208"><ele>1601.0</ele><time>2026-05-01T09:54:36.575Z</time></trkpt><trkpt lat="45.9388907" lon="11.5641038"><ele>1601.0</ele><time>2026-05-01T09:54:37.578Z</time></trkpt><trkpt lat="45.9389085" lon="11.5639795"><ele>1600.9999999999998</ele><time>2026-05-01T09:54:38.563Z</time></trkpt><trkpt lat="45.9389368" lon="11.5638618"><ele>1601.0</ele><time>2026-05-01T09:54:39.572Z</time></trkpt><trkpt lat="45.938965" lon="11.5637518"><ele>1601.3333333333333</ele><time>2026-05-01T09:54:40.573Z</time></trkpt><trkpt lat="45.9389875" lon="11.5636447"><ele>1601.6666666666665</ele><time>2026-05-01T09:54:41.569Z</time></trkpt><trkpt lat="45.9389839" lon="11.5635369"><ele>1602.0</ele><time>2026-05-01T09:54:42.565Z</time></trkpt><trkpt lat="45.9389487" lon="11.5634386"><ele>1602.3333333333335</ele><time>2026-05-01T09:54:43.548Z</time></trkpt><trkpt lat="45.9389171" lon="11.5633232"><ele>1602.6666666666667</ele><time>2026-05-01T09:54:44.568Z</time></trkpt><trkpt lat="45.938889" lon="11.5632154"><ele>1603.0</ele><time>2026-05-01T09:54:45.551Z</time></trkpt><trkpt lat="45.9388759" lon="11.5630943"><ele>1603.0</ele><time>2026-05-01T09:54:46.569Z</time></trkpt><trkpt lat="45.9388772" lon="11.5629801"><ele>1603.0</ele><time>2026-05-01T09:54:47.57Z</time></trkpt><trkpt lat="45.9388706" lon="11.5628549"><ele>1603.0</ele><time>2026-05-01T09:54:48.577Z</time></trkpt><trkpt lat="45.938858" lon="11.5627118"><ele>1603.0</ele><time>2026-05-01T09:54:49.571Z</time></trkpt><trkpt lat="45.9388289" lon="11.5625595"><ele>1603.0</ele><time>2026-05-01T09:54:50.554Z</time></trkpt><trkpt lat="45.9388114" lon="11.5624144"><ele>1603.0</ele><time>2026-05-01T09:54:51.551Z</time></trkpt><trkpt lat="45.9387849" lon="11.5622748"><ele>1603.0</ele><time>2026-05-01T09:54:52.559Z</time></trkpt><trkpt lat="45.9387764" lon="11.5621383"><ele>1603.0</ele><time>2026-05-01T09:54:53.55Z</time></trkpt><trkpt lat="45.9387913" lon="11.5620079"><ele>1603.0</ele><time>2026-05-01T09:54:54.557Z</time></trkpt><trkpt lat="45.9388135" lon="11.5618636"><ele>1603.0</ele><time>2026-05-01T09:54:55.563Z</time></trkpt><trkpt lat="45.938838" lon="11.5617267"><ele>1603.0</ele><time>2026-05-01T09:54:56.547Z</time></trkpt><trkpt lat="45.938857" lon="11.5615829"><ele>1603.0</ele><time>2026-05-01T09:54:57.555Z</time></trkpt><trkpt lat="45.9388705" lon="11.5614435"><ele>1603.0</ele><time>2026-05-01T09:54:58.567Z</time></trkpt><trkpt lat="45.9388763" lon="11.5612976"><ele>1603.0</ele><time>2026-05-01T09:54:59.57Z</time></trkpt><trkpt lat="45.9388924" lon="11.561173"><ele>1603.0</ele><time>2026-05-01T09:55:00.559Z</time></trkpt><trkpt lat="45.9389225" lon="11.5610599"><ele>1603.6000000000001</ele><time>2026-05-01T09:55:01.579Z</time></trkpt><trkpt lat="45.9389682" lon="11.5609576"><ele>1604.2</ele><time>2026-05-01T09:55:02.572Z</time></trkpt><trkpt lat="45.9390314" lon="11.5608671"><ele>1604.8</ele><time>2026-05-01T09:55:03.597Z</time></trkpt><trkpt lat="45.9391074" lon="11.5607939"><ele>1605.4</ele><time>2026-05-01T09:55:04.567Z</time></trkpt><trkpt lat="45.9391921" lon="11.5607305"><ele>1606.0</ele><time>2026-05-01T09:55:05.569Z</time></trkpt><trkpt lat="45.9392805" lon="11.5606704"><ele>1606.0</ele><time>2026-05-01T09:55:06.566Z</time></trkpt><trkpt lat="45.9393691" lon="11.5606146"><ele>1606.0</ele><time>2026-05-01T09:55:07.577Z</time></trkpt><trkpt lat="45.9394572" lon="11.560557"><ele>1606.0</ele><time>2026-05-01T09:55:08.572Z</time></trkpt><trkpt lat="45.9395479" lon="11.5604993"><ele>1606.0</ele><time>2026-05-01T09:55:09.582Z</time></trkpt><trkpt lat="45.9396349" lon="11.5604445"><ele>1606.0</ele><time>2026-05-01T09:55:10.555Z</time></trkpt><trkpt lat="45.9397147" lon="11.5603998"><ele>1606.0000000000002</ele><time>2026-05-01T09:55:11.567Z</time></trkpt><trkpt lat="45.9397901" lon="11.5603802"><ele>1606.0</ele><time>2026-05-01T09:55:12.568Z</time></trkpt><trkpt lat="45.9398585" lon="11.560365"><ele>1606.0</ele><time>2026-05-01T09:55:13.566Z</time></trkpt><trkpt lat="45.9399883" lon="11.5603988"><ele>1606.0</ele><time>2026-05-01T09:55:15.571Z</time></trkpt><trkpt lat="45.9400506" lon="11.5604414"><ele>1606.0000000000002</ele><time>2026-05-01T09:55:16.571Z</time></trkpt><trkpt lat="45.9401175" lon="11.5604874"><ele>1606.0</ele><time>2026-05-01T09:55:17.565Z</time></trkpt><trkpt lat="45.940184" lon="11.5605196"><ele>1606.8</ele><time>2026-05-01T09:55:18.562Z</time></trkpt><trkpt lat="45.9402604" lon="11.5605157"><ele>1607.6</ele><time>2026-05-01T09:55:19.564Z</time></trkpt><trkpt lat="45.9403362" lon="11.5604598"><ele>1608.4</ele><time>2026-05-01T09:55:20.577Z</time></trkpt><trkpt lat="45.940413" lon="11.5603928"><ele>1609.2</ele><time>2026-05-01T09:55:21.568Z</time></trkpt><trkpt lat="45.9404876" lon="11.560278"><ele>1610.0</ele><time>2026-05-01T09:55:22.576Z</time></trkpt><trkpt lat="45.9405522" lon="11.5601602"><ele>1607.4</ele><time>2026-05-01T09:55:23.564Z</time></trkpt><trkpt lat="45.9406112" lon="11.5600402"><ele>1604.8</ele><time>2026-05-01T09:55:24.566Z</time></trkpt><trkpt lat="45.9406732" lon="11.5599198"><ele>1602.1999999999998</ele><time>2026-05-01T09:55:25.572Z</time></trkpt><trkpt lat="45.9407313" lon="11.5598007"><ele>1599.6</ele><time>2026-05-01T09:55:26.57Z</time></trkpt><trkpt lat="45.940791" lon="11.5596834"><ele>1597.0</ele><time>2026-05-01T09:55:27.572Z</time></trkpt><trkpt lat="45.94085" lon="11.5595683"><ele>1597.1999999999998</ele><time>2026-05-01T09:55:28.568Z</time></trkpt><trkpt lat="45.9409115" lon="11.5594371"><ele>1597.4</ele><time>2026-05-01T09:55:29.564Z</time></trkpt><trkpt lat="45.9409656" lon="11.5593227"><ele>1597.6</ele><time>2026-05-01T09:55:30.567Z</time></trkpt><trkpt lat="45.9410225" lon="11.5592372"><ele>1597.8000000000002</ele><time>2026-05-01T09:55:31.578Z</time></trkpt><trkpt lat="45.9410996" lon="11.5591773"><ele>1598.0</ele><time>2026-05-01T09:55:32.564Z</time></trkpt><trkpt lat="45.941177" lon="11.5591119"><ele>1597.9999999999998</ele><time>2026-05-01T09:55:33.581Z</time></trkpt><trkpt lat="45.9412638" lon="11.5590801"><ele>1598.0</ele><time>2026-05-01T09:55:34.569Z</time></trkpt><trkpt lat="45.9413562" lon="11.5590521"><ele>1598.0</ele><time>2026-05-01T09:55:35.571Z</time></trkpt><trkpt lat="45.9414487" lon="11.5590566"><ele>1598.0</ele><time>2026-05-01T09:55:36.575Z</time></trkpt><trkpt lat="45.9415297" lon="11.5590619"><ele>1597.9999999999998</ele><time>2026-05-01T09:55:37.573Z</time></trkpt><trkpt lat="45.9416078" lon="11.5590652"><ele>1598.0</ele><time>2026-05-01T09:55:38.58Z</time></trkpt><trkpt lat="45.94168" lon="11.5590257"><ele>1601.4</ele><time>2026-05-01T09:55:39.576Z</time></trkpt><trkpt lat="45.9417477" lon="11.5589601"><ele>1604.8000000000002</ele><time>2026-05-01T09:55:40.573Z</time></trkpt><trkpt lat="45.9417806" lon="11.5588405"><ele>1608.2</ele><time>2026-05-01T09:55:41.565Z</time></trkpt><trkpt lat="45.9418097" lon="11.5587207"><ele>1611.6</ele><time>2026-05-01T09:55:42.569Z</time></trkpt><trkpt lat="45.9418216" lon="11.5585795"><ele>1615.0</ele><time>2026-05-01T09:55:43.57Z</time></trkpt><trkpt lat="45.9418351" lon="11.5584397"><ele>1615.2</ele><time>2026-05-01T09:55:44.569Z</time></trkpt><trkpt lat="45.9418605" lon="11.5582883"><ele>1615.4</ele><time>2026-05-01T09:55:45.562Z</time></trkpt><trkpt lat="45.941883" lon="11.5581531"><ele>1615.6</ele><time>2026-05-01T09:55:46.57Z</time></trkpt><trkpt lat="45.9418923" lon="11.5580144"><ele>1615.8</ele><time>2026-05-01T09:55:47.577Z</time></trkpt><trkpt lat="45.9418798" lon="11.5578714"><ele>1616.0</ele><time>2026-05-01T09:55:48.57Z</time></trkpt><trkpt lat="45.9418377" lon="11.5577293"><ele>1615.4</ele><time>2026-05-01T09:55:49.568Z</time></trkpt><trkpt lat="45.9417917" lon="11.5576003"><ele>1614.8</ele><time>2026-05-01T09:55:50.563Z</time></trkpt><trkpt lat="45.9417569" lon="11.5574685"><ele>1614.2</ele><time>2026-05-01T09:55:51.57Z</time></trkpt><trkpt lat="45.9417158" lon="11.5573551"><ele>1613.6000000000001</ele><time>2026-05-01T09:55:52.566Z</time></trkpt><trkpt lat="45.9416743" lon="11.5572435"><ele>1613.0</ele><time>2026-05-01T09:55:53.574Z</time></trkpt><trkpt lat="45.9416243" lon="11.5571555"><ele>1611.1666666666665</ele><time>2026-05-01T09:55:54.571Z</time></trkpt><trkpt lat="45.9415774" lon="11.5570763"><ele>1609.3333333333333</ele><time>2026-05-01T09:55:55.573Z</time></trkpt><trkpt lat="45.9415159" lon="11.5569708"><ele>1607.5</ele><time>2026-05-01T09:55:57.589Z</time></trkpt><trkpt lat="45.9415344" lon="11.5568763"><ele>1605.6666666666665</ele><time>2026-05-01T09:55:59.569Z</time></trkpt><trkpt lat="45.9416342" lon="11.5568166"><ele>1603.8333333333333</ele><time>2026-05-01T09:56:01.567Z</time></trkpt><trkpt lat="45.9416998" lon="11.5567826"><ele>1602.0</ele><time>2026-05-01T09:56:02.571Z</time></trkpt><trkpt lat="45.9417735" lon="11.5567414"><ele>1602.0</ele><time>2026-05-01T09:56:03.573Z</time></trkpt><trkpt lat="45.9418463" lon="11.5566818"><ele>1602.0</ele><time>2026-05-01T09:56:04.584Z</time></trkpt><trkpt lat="45.9419216" lon="11.5566063"><ele>1602.0</ele><time>2026-05-01T09:56:05.578Z</time></trkpt><trkpt lat="45.9419929" lon="11.5565263"><ele>1602.0</ele><time>2026-05-01T09:56:06.567Z</time></trkpt><trkpt lat="45.9420604" lon="11.5564579"><ele>1602.0</ele><time>2026-05-01T09:56:07.568Z</time></trkpt><trkpt lat="45.9421234" lon="11.556383"><ele>1602.0</ele><time>2026-05-01T09:56:08.572Z</time></trkpt><trkpt lat="45.9421803" lon="11.5563006"><ele>1602.0</ele><time>2026-05-01T09:56:09.572Z</time></trkpt><trkpt lat="45.9422376" lon="11.5562182"><ele>1602.0</ele><time>2026-05-01T09:56:10.576Z</time></trkpt><trkpt lat="45.9422994" lon="11.556123"><ele>1602.0</ele><time>2026-05-01T09:56:11.565Z</time></trkpt><trkpt lat="45.9423562" lon="11.556037"><ele>1602.0</ele><time>2026-05-01T09:56:12.571Z</time></trkpt><trkpt lat="45.9424147" lon="11.5559531"><ele>1602.0</ele><time>2026-05-01T09:56:13.567Z</time></trkpt><trkpt lat="45.9424712" lon="11.5558754"><ele>1602.0</ele><time>2026-05-01T09:56:14.603Z</time></trkpt><trkpt lat="45.942535" lon="11.5558012"><ele>1600.3999999999999</ele><time>2026-05-01T09:56:15.578Z</time></trkpt><trkpt lat="45.9426073" lon="11.5557269"><ele>1598.8</ele><time>2026-05-01T09:56:16.571Z</time></trkpt><trkpt lat="45.942688" lon="11.5556579"><ele>1597.2</ele><time>2026-05-01T09:56:17.579Z</time></trkpt><trkpt lat="45.9427678" lon="11.555596"><ele>1595.6</ele><time>2026-05-01T09:56:18.567Z</time></trkpt><trkpt lat="45.9428627" lon="11.5555113"><ele>1594.0</ele><time>2026-05-01T09:56:19.574Z</time></trkpt><trkpt lat="45.9429346" lon="11.5554478"><ele>1590.1666666666667</ele><time>2026-05-01T09:56:20.566Z</time></trkpt><trkpt lat="45.9429941" lon="11.5553554"><ele>1586.3333333333335</ele><time>2026-05-01T09:56:21.571Z</time></trkpt><trkpt lat="45.9430434" lon="11.5552645"><ele>1582.5</ele><time>2026-05-01T09:56:22.57Z</time></trkpt><trkpt lat="45.9430838" lon="11.5551909"><ele>1578.6666666666665</ele><time>2026-05-01T09:56:23.567Z</time></trkpt><trkpt lat="45.9431633" lon="11.555093"><ele>1574.8333333333333</ele><time>2026-05-01T09:56:25.575Z</time></trkpt><trkpt lat="45.9432186" lon="11.555042"><ele>1571.0</ele><time>2026-05-01T09:56:26.573Z</time></trkpt><trkpt lat="45.9432856" lon="11.5550176"><ele>1571.0</ele><time>2026-05-01T09:56:27.579Z</time></trkpt><trkpt lat="45.9433729" lon="11.5549992"><ele>1571.0</ele><time>2026-05-01T09:56:28.576Z</time></trkpt><trkpt lat="45.9434582" lon="11.5549725"><ele>1571.0</ele><time>2026-05-01T09:56:29.57Z</time></trkpt><trkpt lat="45.9435537" lon="11.5549445"><ele>1571.0</ele><time>2026-05-01T09:56:30.572Z</time></trkpt><trkpt lat="45.9436568" lon="11.5549097"><ele>1571.0</ele><time>2026-05-01T09:56:31.58Z</time></trkpt><trkpt lat="45.9437534" lon="11.5548389"><ele>1572.25</ele><time>2026-05-01T09:56:32.566Z</time></trkpt><trkpt lat="45.9438429" lon="11.5547437"><ele>1573.5</ele><time>2026-05-01T09:56:33.573Z</time></trkpt><trkpt lat="45.9438995" lon="11.554605"><ele>1574.75</ele><time>2026-05-01T09:56:34.571Z</time></trkpt><trkpt lat="45.9439589" lon="11.5544404"><ele>1576.0</ele><time>2026-05-01T09:56:35.567Z</time></trkpt><trkpt lat="45.9440135" lon="11.5542688"><ele>1576.0</ele><time>2026-05-01T09:56:36.571Z</time></trkpt><trkpt lat="45.9440839" lon="11.5541151"><ele>1576.0</ele><time>2026-05-01T09:56:37.587Z</time></trkpt><trkpt lat="45.944169" lon="11.5539701"><ele>1576.0</ele><time>2026-05-01T09:56:38.569Z</time></trkpt><trkpt lat="45.9442626" lon="11.5538346"><ele>1576.0</ele><time>2026-05-01T09:56:39.567Z</time></trkpt><trkpt lat="45.9443593" lon="11.5537061"><ele>1578.25</ele><time>2026-05-01T09:56:40.579Z</time></trkpt><trkpt lat="45.944456" lon="11.5535786"><ele>1580.5</ele><time>2026-05-01T09:56:41.569Z</time></trkpt><trkpt lat="45.9445529" lon="11.5534585"><ele>1582.75</ele><time>2026-05-01T09:56:42.568Z</time></trkpt><trkpt lat="45.9446454" lon="11.5533436"><ele>1585.0</ele><time>2026-05-01T09:56:43.573Z</time></trkpt><trkpt lat="45.9447306" lon="11.5532298"><ele>1585.0</ele><time>2026-05-01T09:56:44.572Z</time></trkpt><trkpt lat="45.9448082" lon="11.5531016"><ele>1585.0</ele><time>2026-05-01T09:56:45.571Z</time></trkpt><trkpt lat="45.9448637" lon="11.553"><ele>1585.0</ele><time>2026-05-01T09:56:46.576Z</time></trkpt><trkpt lat="45.9449102" lon="11.552879"><ele>1585.0</ele><time>2026-05-01T09:56:47.589Z</time></trkpt><trkpt lat="45.9449508" lon="11.5527498"><ele>1585.0</ele><time>2026-05-01T09:56:48.573Z</time></trkpt><trkpt lat="45.9449854" lon="11.5526218"><ele>1584.0</ele><time>2026-05-01T09:56:49.59Z</time></trkpt><trkpt lat="45.9450134" lon="11.552477"><ele>1583.0</ele><time>2026-05-01T09:56:50.572Z</time></trkpt><trkpt lat="45.9450235" lon="11.5523516"><ele>1582.0</ele><time>2026-05-01T09:56:51.577Z</time></trkpt><trkpt lat="45.9450242" lon="11.5522528"><ele>1581.0</ele><time>2026-05-01T09:56:52.578Z</time></trkpt><trkpt lat="45.9450706" lon="11.5521338"><ele>1580.0</ele><time>2026-05-01T09:56:54.575Z</time></trkpt><trkpt lat="45.945168" lon="11.5522045"><ele>1584.0</ele><time>2026-05-01T09:56:56.582Z</time></trkpt><trkpt lat="45.9451871" lon="11.5523272"><ele>1588.0</ele><time>2026-05-01T09:56:57.571Z</time></trkpt><trkpt lat="45.9452062" lon="11.5524539"><ele>1592.0</ele><time>2026-05-01T09:56:58.57Z</time></trkpt><trkpt lat="45.9452328" lon="11.5525863"><ele>1596.0</ele><time>2026-05-01T09:56:59.582Z</time></trkpt><trkpt lat="45.9452682" lon="11.5527286"><ele>1600.0</ele><time>2026-05-01T09:57:00.591Z</time></trkpt><trkpt lat="45.9453082" lon="11.5528725"><ele>1598.5</ele><time>2026-05-01T09:57:01.579Z</time></trkpt><trkpt lat="45.94534" lon="11.5530316"><ele>1597.0</ele><time>2026-05-01T09:57:02.574Z</time></trkpt><trkpt lat="45.9453623" lon="11.5531966"><ele>1595.5</ele><time>2026-05-01T09:57:03.574Z</time></trkpt><trkpt lat="45.9453679" lon="11.5533666"><ele>1594.0</ele><time>2026-05-01T09:57:04.574Z</time></trkpt><trkpt lat="45.9453594" lon="11.5535357"><ele>1594.0</ele><time>2026-05-01T09:57:05.568Z</time></trkpt><trkpt lat="45.9453381" lon="11.5537042"><ele>1594.0</ele><time>2026-05-01T09:57:06.574Z</time></trkpt><trkpt lat="45.945304" lon="11.5538476"><ele>1594.0</ele><time>2026-05-01T09:57:07.564Z</time></trkpt><trkpt lat="45.9452751" lon="11.5539807"><ele>1594.0</ele><time>2026-05-01T09:57:08.57Z</time></trkpt><trkpt lat="45.945257" lon="11.5540936"><ele>1594.0</ele><time>2026-05-01T09:57:09.573Z</time></trkpt><trkpt lat="45.9452684" lon="11.554217"><ele>1595.8000000000002</ele><time>2026-05-01T09:57:10.566Z</time></trkpt><trkpt lat="45.9453193" lon="11.5543076"><ele>1597.6000000000001</ele><time>2026-05-01T09:57:11.57Z</time></trkpt><trkpt lat="45.9453984" lon="11.5543574"><ele>1599.4</ele><time>2026-05-01T09:57:12.579Z</time></trkpt><trkpt lat="45.945495" lon="11.5543795"><ele>1601.2</ele><time>2026-05-01T09:57:13.57Z</time></trkpt><trkpt lat="45.9456068" lon="11.5543886"><ele>1603.0</ele><time>2026-05-01T09:57:14.582Z</time></trkpt><trkpt lat="45.9457227" lon="11.5543685"><ele>1603.0</ele><time>2026-05-01T09:57:15.572Z</time></trkpt><trkpt lat="45.9458417" lon="11.5543191"><ele>1603.0</ele><time>2026-05-01T09:57:16.568Z</time></trkpt><trkpt lat="45.945958" lon="11.5542411"><ele>1603.0</ele><time>2026-05-01T09:57:17.563Z</time></trkpt><trkpt lat="45.9460766" lon="11.5541623"><ele>1603.0</ele><time>2026-05-01T09:57:18.567Z</time></trkpt><trkpt lat="45.9461859" lon="11.5540507"><ele>1605.0</ele><time>2026-05-01T09:57:19.566Z</time></trkpt><trkpt lat="45.9462864" lon="11.5539248"><ele>1607.0</ele><time>2026-05-01T09:57:20.579Z</time></trkpt><trkpt lat="45.9463806" lon="11.5537931"><ele>1609.0</ele><time>2026-05-01T09:57:21.58Z</time></trkpt><trkpt lat="45.9464613" lon="11.5536729"><ele>1611.0</ele><time>2026-05-01T09:57:22.572Z</time></trkpt><trkpt lat="45.9465321" lon="11.5535671"><ele>1611.0</ele><time>2026-05-01T09:57:23.57Z</time></trkpt><trkpt lat="45.9465919" lon="11.5534651"><ele>1611.0</ele><time>2026-05-01T09:57:24.573Z</time></trkpt><trkpt lat="45.9466435" lon="11.5533656"><ele>1611.0</ele><time>2026-05-01T09:57:25.574Z</time></trkpt><trkpt lat="45.9466833" lon="11.5532765"><ele>1611.0</ele><time>2026-05-01T09:57:26.568Z</time></trkpt><trkpt lat="45.9467663" lon="11.55318"><ele>1611.0</ele><time>2026-05-01T09:57:28.575Z</time></trkpt><trkpt lat="45.9468231" lon="11.5532321"><ele>1611.0</ele><time>2026-05-01T09:57:30.572Z</time></trkpt><trkpt lat="45.9467938" lon="11.5533247"><ele>1611.0</ele><time>2026-05-01T09:57:31.568Z</time></trkpt><trkpt lat="45.9467615" lon="11.5534321"><ele>1611.0</ele><time>2026-05-01T09:57:32.57Z</time></trkpt><trkpt lat="45.9467027" lon="11.5535636"><ele>1611.0</ele><time>2026-05-01T09:57:33.575Z</time></trkpt><trkpt lat="45.9466334" lon="11.5537118"><ele>1611.0</ele><time>2026-05-01T09:57:34.572Z</time></trkpt><trkpt lat="45.9465838" lon="11.5538769"><ele>1611.0</ele><time>2026-05-01T09:57:35.58Z</time></trkpt><trkpt lat="45.9465525" lon="11.5540605"><ele>1611.5</ele><time>2026-05-01T09:57:36.577Z</time></trkpt><trkpt lat="45.9465402" lon="11.5542541"><ele>1612.0</ele><time>2026-05-01T09:57:37.58Z</time></trkpt><trkpt lat="45.9465373" lon="11.5544456"><ele>1612.5</ele><time>2026-05-01T09:57:38.574Z</time></trkpt><trkpt lat="45.9465412" lon="11.5546136"><ele>1613.0</ele><time>2026-05-01T09:57:39.576Z</time></trkpt><trkpt lat="45.9465494" lon="11.5547513"><ele>1613.4</ele><time>2026-05-01T09:57:40.582Z</time></trkpt><trkpt lat="45.9465805" lon="11.5548638"><ele>1613.8000000000002</ele><time>2026-05-01T09:57:41.571Z</time></trkpt><trkpt lat="45.9466391" lon="11.5549595"><ele>1614.2</ele><time>2026-05-01T09:57:42.568Z</time></trkpt><trkpt lat="45.9467255" lon="11.5550179"><ele>1614.6</ele><time>2026-05-01T09:57:43.567Z</time></trkpt><trkpt lat="45.94682" lon="11.5550281"><ele>1615.0</ele><time>2026-05-01T09:57:44.569Z</time></trkpt><trkpt lat="45.9469104" lon="11.5549852"><ele>1614.5000000000002</ele><time>2026-05-01T09:57:45.569Z</time></trkpt><trkpt lat="45.946998" lon="11.5549026"><ele>1614.0</ele><time>2026-05-01T09:57:46.571Z</time></trkpt><trkpt lat="45.9470766" lon="11.5548141"><ele>1613.5</ele><time>2026-05-01T09:57:47.575Z</time></trkpt><trkpt lat="45.9471404" lon="11.5547206"><ele>1613.0</ele><time>2026-05-01T09:57:48.578Z</time></trkpt><trkpt lat="45.9471944" lon="11.5546482"><ele>1612.5000000000002</ele><time>2026-05-01T09:57:49.574Z</time></trkpt><trkpt lat="45.9472445" lon="11.5545818"><ele>1612.0</ele><time>2026-05-01T09:57:50.588Z</time></trkpt><trkpt lat="45.9473427" lon="11.554462"><ele>1612.0</ele><time>2026-05-01T09:57:52.577Z</time></trkpt><trkpt lat="45.9473972" lon="11.5543823"><ele>1612.0</ele><time>2026-05-01T09:57:53.575Z</time></trkpt><trkpt lat="45.9474539" lon="11.5542816"><ele>1612.0</ele><time>2026-05-01T09:57:54.583Z</time></trkpt><trkpt lat="45.947511" lon="11.554173"><ele>1612.0</ele><time>2026-05-01T09:57:55.581Z</time></trkpt><trkpt lat="45.9475727" lon="11.5540623"><ele>1612.0</ele><time>2026-05-01T09:57:56.573Z</time></trkpt><trkpt lat="45.9476463" lon="11.5539579"><ele>1611.6</ele><time>2026-05-01T09:57:57.565Z</time></trkpt><trkpt lat="45.9477321" lon="11.5538757"><ele>1611.1999999999998</ele><time>2026-05-01T09:57:58.576Z</time></trkpt><trkpt lat="45.9478311" lon="11.5538175"><ele>1610.8</ele><time>2026-05-01T09:57:59.567Z</time></trkpt><trkpt lat="45.9479382" lon="11.5537857"><ele>1610.4</ele><time>2026-05-01T09:58:00.582Z</time></trkpt><trkpt lat="45.9480494" lon="11.5537513"><ele>1610.0</ele><time>2026-05-01T09:58:01.571Z</time></trkpt><trkpt lat="45.9481626" lon="11.5537533"><ele>1610.0</ele><time>2026-05-01T09:58:02.574Z</time></trkpt><trkpt lat="45.9482818" lon="11.5537742"><ele>1610.0</ele><time>2026-05-01T09:58:03.574Z</time></trkpt><trkpt lat="45.9483999" lon="11.5538101"><ele>1610.0</ele><time>2026-05-01T09:58:04.574Z</time></trkpt><trkpt lat="45.9485192" lon="11.5538561"><ele>1610.0</ele><time>2026-05-01T09:58:05.572Z</time></trkpt><trkpt lat="45.9486387" lon="11.5539079"><ele>1610.5</ele><time>2026-05-01T09:58:06.578Z</time></trkpt><trkpt lat="45.9487592" lon="11.553962"><ele>1611.0</ele><time>2026-05-01T09:58:07.573Z</time></trkpt><trkpt lat="45.9488796" lon="11.5540136"><ele>1611.5</ele><time>2026-05-01T09:58:08.582Z</time></trkpt><trkpt lat="45.9489996" lon="11.5540591"><ele>1612.0</ele><time>2026-05-01T09:58:09.572Z</time></trkpt><trkpt lat="45.9491143" lon="11.554092"><ele>1611.8333333333335</ele><time>2026-05-01T09:58:10.577Z</time></trkpt><trkpt lat="45.9492154" lon="11.5541154"><ele>1611.6666666666667</ele><time>2026-05-01T09:58:11.587Z</time></trkpt><trkpt lat="45.9493045" lon="11.5541283"><ele>1611.5</ele><time>2026-05-01T09:58:12.584Z</time></trkpt><trkpt lat="45.9493841" lon="11.5541413"><ele>1611.3333333333335</ele><time>2026-05-01T09:58:13.574Z</time></trkpt><trkpt lat="45.949456" lon="11.5541524"><ele>1611.1666666666667</ele><time>2026-05-01T09:58:14.585Z</time></trkpt><trkpt lat="45.9495212" lon="11.5541664"><ele>1611.0</ele><time>2026-05-01T09:58:15.585Z</time></trkpt><trkpt lat="45.9495839" lon="11.5541832"><ele>1611.0</ele><time>2026-05-01T09:58:16.582Z</time></trkpt><trkpt lat="45.9497088" lon="11.5542027"><ele>1611.0</ele><time>2026-05-01T09:58:18.572Z</time></trkpt><trkpt lat="45.9497794" lon="11.5542049"><ele>1611.0</ele><time>2026-05-01T09:58:19.572Z</time></trkpt><trkpt lat="45.9500485" lon="11.5542122"><ele>1609.75</ele><time>2026-05-01T09:58:22.572Z</time></trkpt><trkpt lat="45.9501567" lon="11.5542261"><ele>1608.5</ele><time>2026-05-01T09:58:23.573Z</time></trkpt><trkpt lat="45.9502675" lon="11.5542423"><ele>1607.25</ele><time>2026-05-01T09:58:24.57Z</time></trkpt><trkpt lat="45.9503802" lon="11.554278"><ele>1606.0</ele><time>2026-05-01T09:58:25.58Z</time></trkpt><trkpt lat="45.9504945" lon="11.5543175"><ele>1606.0</ele><time>2026-05-01T09:58:26.573Z</time></trkpt><trkpt lat="45.9506126" lon="11.5543571"><ele>1606.0</ele><time>2026-05-01T09:58:27.58Z</time></trkpt><trkpt lat="45.9507321" lon="11.5543962"><ele>1606.0</ele><time>2026-05-01T09:58:28.573Z</time></trkpt><trkpt lat="45.9508537" lon="11.5544349"><ele>1606.0</ele><time>2026-05-01T09:58:29.572Z</time></trkpt><trkpt lat="45.9509797" lon="11.5544573"><ele>1606.5</ele><time>2026-05-01T09:58:30.583Z</time></trkpt><trkpt lat="45.9511049" lon="11.5544773"><ele>1607.0</ele><time>2026-05-01T09:58:31.572Z</time></trkpt><trkpt lat="45.9512274" lon="11.5545034"><ele>1607.5</ele><time>2026-05-01T09:58:32.584Z</time></trkpt><trkpt lat="45.9513479" lon="11.5545408"><ele>1608.0</ele><time>2026-05-01T09:58:33.575Z</time></trkpt><trkpt lat="45.9514634" lon="11.5545933"><ele>1606.75</ele><time>2026-05-01T09:58:34.574Z</time></trkpt><trkpt lat="45.9515698" lon="11.5546612"><ele>1605.5</ele><time>2026-05-01T09:58:35.579Z</time></trkpt><trkpt lat="45.9516687" lon="11.55474"><ele>1604.25</ele><time>2026-05-01T09:58:36.578Z</time></trkpt><trkpt lat="45.9517631" lon="11.5548223"><ele>1603.0</ele><time>2026-05-01T09:58:37.58Z</time></trkpt><trkpt lat="45.9518589" lon="11.5549037"><ele>1602.8000000000002</ele><time>2026-05-01T09:58:38.577Z</time></trkpt><trkpt lat="45.9519539" lon="11.5549913"><ele>1602.6</ele><time>2026-05-01T09:58:39.574Z</time></trkpt><trkpt lat="45.9520424" lon="11.5550821"><ele>1602.4</ele><time>2026-05-01T09:58:40.575Z</time></trkpt><trkpt lat="45.9521241" lon="11.5551706"><ele>1602.1999999999998</ele><time>2026-05-01T09:58:41.58Z</time></trkpt><trkpt lat="45.9522027" lon="11.5552515"><ele>1602.0</ele><time>2026-05-01T09:58:42.58Z</time></trkpt><trkpt lat="45.9522872" lon="11.5553159"><ele>1602.0</ele><time>2026-05-01T09:58:43.583Z</time></trkpt><trkpt lat="45.9523823" lon="11.555358"><ele>1602.0</ele><time>2026-05-01T09:58:44.576Z</time></trkpt><trkpt lat="45.9524891" lon="11.5553747"><ele>1602.0</ele><time>2026-05-01T09:58:45.576Z</time></trkpt><trkpt lat="45.9526023" lon="11.5553742"><ele>1602.0</ele><time>2026-05-01T09:58:46.578Z</time></trkpt><trkpt lat="45.9527254" lon="11.5553715"><ele>1602.0</ele><time>2026-05-01T09:58:47.573Z</time></trkpt><trkpt lat="45.9528576" lon="11.5553812"><ele>1599.75</ele><time>2026-05-01T09:58:48.58Z</time></trkpt><trkpt lat="45.9529992" lon="11.5553997"><ele>1597.5</ele><time>2026-05-01T09:58:49.574Z</time></trkpt><trkpt lat="45.9531387" lon="11.5554047"><ele>1595.25</ele><time>2026-05-01T09:58:50.578Z</time></trkpt><trkpt lat="45.953267" lon="11.5553974"><ele>1593.0</ele><time>2026-05-01T09:58:51.58Z</time></trkpt><trkpt lat="45.9533756" lon="11.5553916"><ele>1593.0</ele><time>2026-05-01T09:58:52.572Z</time></trkpt><trkpt lat="45.9534715" lon="11.5553865"><ele>1593.0</ele><time>2026-05-01T09:58:53.572Z</time></trkpt><trkpt lat="45.9535331" lon="11.5553302"><ele>1593.0</ele><time>2026-05-01T09:58:54.574Z</time></trkpt><trkpt lat="45.9535946" lon="11.555275"><ele>1593.0</ele><time>2026-05-01T09:58:55.577Z</time></trkpt><trkpt lat="45.9536164" lon="11.5551587"><ele>1593.0</ele><time>2026-05-01T09:58:56.571Z</time></trkpt><trkpt lat="45.9536229" lon="11.5550198"><ele>1593.0</ele><time>2026-05-01T09:58:57.577Z</time></trkpt><trkpt lat="45.9536302" lon="11.5548908"><ele>1593.0</ele><time>2026-05-01T09:58:58.583Z</time></trkpt><trkpt lat="45.9536359" lon="11.5547742"><ele>1593.0</ele><time>2026-05-01T09:58:59.574Z</time></trkpt><trkpt lat="45.9537048" lon="11.5547083"><ele>1593.0</ele><time>2026-05-01T09:59:00.571Z</time></trkpt><trkpt lat="45.9537933" lon="11.5546875"><ele>1593.0</ele><time>2026-05-01T09:59:01.565Z</time></trkpt><trkpt lat="45.953881" lon="11.5546687"><ele>1593.0</ele><time>2026-05-01T09:59:02.579Z</time></trkpt><trkpt lat="45.953971" lon="11.5546445"><ele>1593.0</ele><time>2026-05-01T09:59:03.565Z</time></trkpt><trkpt lat="45.9540546" lon="11.554577"><ele>1592.5</ele><time>2026-05-01T09:59:04.575Z</time></trkpt><trkpt lat="45.9541277" lon="11.5544583"><ele>1592.0</ele><time>2026-05-01T09:59:05.573Z</time></trkpt><trkpt lat="45.9542237" lon="11.5543512"><ele>1591.5</ele><time>2026-05-01T09:59:06.573Z</time></trkpt><trkpt lat="45.9543185" lon="11.554242"><ele>1591.0</ele><time>2026-05-01T09:59:07.574Z</time></trkpt><trkpt lat="45.9544263" lon="11.5541764"><ele>1591.0</ele><time>2026-05-01T09:59:08.584Z</time></trkpt><trkpt lat="45.9545071" lon="11.5541088"><ele>1591.0</ele><time>2026-05-01T09:59:09.574Z</time></trkpt><trkpt lat="45.9545638" lon="11.554032"><ele>1591.0</ele><time>2026-05-01T09:59:10.574Z</time></trkpt><trkpt lat="45.9546037" lon="11.5539499"><ele>1591.0</ele><time>2026-05-01T09:59:11.582Z</time></trkpt><trkpt lat="45.954659" lon="11.5538032"><ele>1591.0</ele><time>2026-05-01T09:59:13.575Z</time></trkpt><trkpt lat="45.9547151" lon="11.5536353"><ele>1591.4</ele><time>2026-05-01T09:59:15.564Z</time></trkpt><trkpt lat="45.95477" lon="11.5535423"><ele>1591.8</ele><time>2026-05-01T09:59:16.574Z</time></trkpt><trkpt lat="45.9548325" lon="11.5534465"><ele>1592.2</ele><time>2026-05-01T09:59:17.576Z</time></trkpt><trkpt lat="45.9549083" lon="11.553351"><ele>1592.6000000000001</ele><time>2026-05-01T09:59:18.578Z</time></trkpt><trkpt lat="45.9549888" lon="11.5532585"><ele>1593.0</ele><time>2026-05-01T09:59:19.576Z</time></trkpt><trkpt lat="45.9550468" lon="11.5531849"><ele>1590.6000000000001</ele><time>2026-05-01T09:59:20.573Z</time></trkpt><trkpt lat="45.9550996" lon="11.5530713"><ele>1588.2</ele><time>2026-05-01T09:59:22.573Z</time></trkpt><trkpt lat="45.9551298" lon="11.5529565"><ele>1585.8</ele><time>2026-05-01T09:59:24.58Z</time></trkpt><trkpt lat="45.9551583" lon="11.5528217"><ele>1583.4</ele><time>2026-05-01T09:59:26.578Z</time></trkpt><trkpt lat="45.955171" lon="11.5526772"><ele>1581.0</ele><time>2026-05-01T09:59:28.58Z</time></trkpt><trkpt lat="45.9551788" lon="11.5525395"><ele>1581.0</ele><time>2026-05-01T09:59:30.584Z</time></trkpt><trkpt lat="45.9551804" lon="11.5524016"><ele>1581.0</ele><time>2026-05-01T09:59:32.58Z</time></trkpt><trkpt lat="45.9551868" lon="11.5522774"><ele>1581.0</ele><time>2026-05-01T09:59:34.579Z</time></trkpt><trkpt lat="45.9551855" lon="11.5521854"><ele>1581.0</ele><time>2026-05-01T09:59:36.571Z</time></trkpt><trkpt lat="45.9551586" lon="11.5520136"><ele>1581.0</ele><time>2026-05-01T10:00:58.558Z</time></trkpt><trkpt lat="45.9551399" lon="11.5518952"><ele>1581.6666666666667</ele><time>2026-05-01T10:01:02.57Z</time></trkpt><trkpt lat="45.9551272" lon="11.5517779"><ele>1582.3333333333335</ele><time>2026-05-01T10:01:05.569Z</time></trkpt><trkpt lat="45.9551163" lon="11.551677"><ele>1583.0</ele><time>2026-05-01T10:01:08.569Z</time></trkpt><trkpt lat="45.9551137" lon="11.5515799"><ele>1583.6666666666667</ele><time>2026-05-01T10:01:11.565Z</time></trkpt><trkpt lat="45.9551236" lon="11.5514813"><ele>1584.3333333333335</ele><time>2026-05-01T10:01:14.57Z</time></trkpt><trkpt lat="45.9551443" lon="11.5513831"><ele>1585.0</ele><time>2026-05-01T10:01:17.571Z</time></trkpt><trkpt lat="45.955187" lon="11.5512658"><ele>1585.0</ele><time>2026-05-01T10:01:20.575Z</time></trkpt><trkpt lat="45.9552456" lon="11.5511986"><ele>1585.0</ele><time>2026-05-01T10:01:23.573Z</time></trkpt><trkpt lat="45.9553187" lon="11.551155"><ele>1585.0</ele><time>2026-05-01T10:01:26.572Z</time></trkpt><trkpt lat="45.9554697" lon="11.5511387"><ele>1585.0</ele><time>2026-05-01T10:01:51.571Z</time></trkpt><trkpt lat="45.955551" lon="11.5511923"><ele>1585.0</ele><time>2026-05-01T10:01:54.57Z</time></trkpt><trkpt lat="45.9556347" lon="11.5512199"><ele>1585.0</ele><time>2026-05-01T10:01:57.566Z</time></trkpt><trkpt lat="45.9557223" lon="11.5512304"><ele>1585.0</ele><time>2026-05-01T10:02:00.57Z</time></trkpt><trkpt lat="45.9558103" lon="11.55124"><ele>1585.0</ele><time>2026-05-01T10:02:03.582Z</time></trkpt><trkpt lat="45.9559022" lon="11.5512499"><ele>1585.0</ele><time>2026-05-01T10:02:06.568Z</time></trkpt><trkpt lat="45.9561099" lon="11.5512235"><ele>1587.0</ele><time>2026-05-01T10:02:11.576Z</time></trkpt><trkpt lat="45.9562217" lon="11.5512305"><ele>1589.0</ele><time>2026-05-01T10:02:13.574Z</time></trkpt><trkpt lat="45.956328" lon="11.5513012"><ele>1591.0</ele><time>2026-05-01T10:02:15.571Z</time></trkpt><trkpt lat="45.9563995" lon="11.5514602"><ele>1593.0</ele><time>2026-05-01T10:02:17.571Z</time></trkpt><trkpt lat="45.9564219" lon="11.551566"><ele>1595.0</ele><time>2026-05-01T10:02:18.571Z</time></trkpt><trkpt lat="45.9564385" lon="11.5516755"><ele>1595.0</ele><time>2026-05-01T10:02:19.574Z</time></trkpt><trkpt lat="45.9564443" lon="11.5517909"><ele>1595.0</ele><time>2026-05-01T10:02:20.572Z</time></trkpt><trkpt lat="45.9564392" lon="11.5519193"><ele>1595.0</ele><time>2026-05-01T10:02:21.573Z</time></trkpt><trkpt lat="45.9564247" lon="11.5520566"><ele>1595.0</ele><time>2026-05-01T10:02:22.57Z</time></trkpt><trkpt lat="45.9564046" lon="11.5522008"><ele>1595.0</ele><time>2026-05-01T10:02:23.569Z</time></trkpt><trkpt lat="45.9563882" lon="11.5523443"><ele>1594.8</ele><time>2026-05-01T10:02:24.563Z</time></trkpt><trkpt lat="45.9563915" lon="11.5524872"><ele>1594.6</ele><time>2026-05-01T10:02:25.566Z</time></trkpt><trkpt lat="45.9564154" lon="11.5526339"><ele>1594.4</ele><time>2026-05-01T10:02:26.569Z</time></trkpt><trkpt lat="45.956452" lon="11.5527809"><ele>1594.2</ele><time>2026-05-01T10:02:27.572Z</time></trkpt><trkpt lat="45.956493" lon="11.5529307"><ele>1594.0</ele><time>2026-05-01T10:02:28.577Z</time></trkpt><trkpt lat="45.9565369" lon="11.553072"><ele>1594.1666666666667</ele><time>2026-05-01T10:02:29.574Z</time></trkpt><trkpt lat="45.9565724" lon="11.5532019"><ele>1594.3333333333335</ele><time>2026-05-01T10:02:30.569Z</time></trkpt><trkpt lat="45.9566077" lon="11.5533162"><ele>1594.5</ele><time>2026-05-01T10:02:31.578Z</time></trkpt><trkpt lat="45.9566684" lon="11.5533849"><ele>1594.6666666666665</ele><time>2026-05-01T10:02:32.581Z</time></trkpt><trkpt lat="45.9567397" lon="11.5534301"><ele>1594.8333333333333</ele><time>2026-05-01T10:02:33.579Z</time></trkpt><trkpt lat="45.9568156" lon="11.55348"><ele>1595.0</ele><time>2026-05-01T10:02:34.574Z</time></trkpt><trkpt lat="45.9568731" lon="11.5535548"><ele>1594.9999999999998</ele><time>2026-05-01T10:02:35.573Z</time></trkpt><trkpt lat="45.9569127" lon="11.5536465"><ele>1595.0</ele><time>2026-05-01T10:02:36.569Z</time></trkpt><trkpt lat="45.9569456" lon="11.5537347"><ele>1595.0</ele><time>2026-05-01T10:02:37.57Z</time></trkpt><trkpt lat="45.9570043" lon="11.5538591"><ele>1595.0</ele><time>2026-05-01T10:02:39.576Z</time></trkpt><trkpt lat="45.9570423" lon="11.5539334"><ele>1594.9999999999998</ele><time>2026-05-01T10:02:41.572Z</time></trkpt><trkpt lat="45.9570991" lon="11.5539864"><ele>1595.0</ele><time>2026-05-01T10:02:44.57Z</time></trkpt><trkpt lat="45.957158" lon="11.5538007"><ele>1594.9999999999998</ele><time>2026-05-01T10:02:51.573Z</time></trkpt><trkpt lat="45.95717" lon="11.5536327"><ele>1595.0</ele><time>2026-05-01T10:02:53.573Z</time></trkpt><trkpt lat="45.9571484" lon="11.5534891"><ele>1595.0</ele><time>2026-05-01T10:02:55.575Z</time></trkpt><trkpt lat="45.957115" lon="11.5534093"><ele>1595.0</ele><time>2026-05-01T10:02:56.589Z</time></trkpt><trkpt lat="45.9570708" lon="11.5533223"><ele>1594.9999999999998</ele><time>2026-05-01T10:02:57.576Z</time></trkpt><trkpt lat="45.9570389" lon="11.553237"><ele>1595.0</ele><time>2026-05-01T10:02:58.581Z</time></trkpt><trkpt lat="45.9570224" lon="11.5531429"><ele>1594.9999999999998</ele><time>2026-05-01T10:02:59.576Z</time></trkpt><trkpt lat="45.9570219" lon="11.5530404"><ele>1595.0</ele><time>2026-05-01T10:03:00.574Z</time></trkpt><trkpt lat="45.957024" lon="11.5529322"><ele>1595.0</ele><time>2026-05-01T10:03:01.58Z</time></trkpt><trkpt lat="45.9570374" lon="11.5528058"><ele>1595.0</ele><time>2026-05-01T10:03:02.574Z</time></trkpt><trkpt lat="45.9570522" lon="11.5526753"><ele>1594.9999999999998</ele><time>2026-05-01T10:03:03.582Z</time></trkpt><trkpt lat="45.9570683" lon="11.5525443"><ele>1595.0</ele><time>2026-05-01T10:03:04.577Z</time></trkpt><trkpt lat="45.9570861" lon="11.5524107"><ele>1595.8333333333333</ele><time>2026-05-01T10:03:05.579Z</time></trkpt><trkpt lat="45.957127" lon="11.5522887"><ele>1596.6666666666665</ele><time>2026-05-01T10:03:06.577Z</time></trkpt><trkpt lat="45.9571755" lon="11.5521802"><ele>1597.5</ele><time>2026-05-01T10:03:07.579Z</time></trkpt><trkpt lat="45.9572226" lon="11.5520803"><ele>1598.3333333333335</ele><time>2026-05-01T10:03:08.571Z</time></trkpt><trkpt lat="45.9572574" lon="11.5519961"><ele>1599.1666666666667</ele><time>2026-05-01T10:03:09.573Z</time></trkpt><trkpt lat="45.9572811" lon="11.5518554"><ele>1600.0</ele><time>2026-05-01T10:03:11.576Z</time></trkpt><trkpt lat="45.9572317" lon="11.5517397"><ele>1600.5</ele><time>2026-05-01T10:03:13.578Z</time></trkpt><trkpt lat="45.9571166" lon="11.551674"><ele>1601.0</ele><time>2026-05-01T10:03:15.572Z</time></trkpt><trkpt lat="45.9570503" lon="11.5516468"><ele>1601.5</ele><time>2026-05-01T10:03:16.576Z</time></trkpt><trkpt lat="45.9569609" lon="11.5515603"><ele>1602.0</ele><time>2026-05-01T10:03:18.578Z</time></trkpt><trkpt lat="45.9569792" lon="11.551333"><ele>1602.0</ele><time>2026-05-01T10:03:21.584Z</time></trkpt><trkpt lat="45.9570262" lon="11.5512668"><ele>1602.0</ele><time>2026-05-01T10:03:22.575Z</time></trkpt><trkpt lat="45.9570677" lon="11.551191"><ele>1602.0</ele><time>2026-05-01T10:03:23.58Z</time></trkpt><trkpt lat="45.9571142" lon="11.5510978"><ele>1602.0</ele><time>2026-05-01T10:03:24.578Z</time></trkpt><trkpt lat="45.9571631" lon="11.5509927"><ele>1602.0</ele><time>2026-05-01T10:03:25.581Z</time></trkpt><trkpt lat="45.9572218" lon="11.5508917"><ele>1602.0</ele><time>2026-05-01T10:03:26.58Z</time></trkpt><trkpt lat="45.9572806" lon="11.5507963"><ele>1603.3333333333333</ele><time>2026-05-01T10:03:27.578Z</time></trkpt><trkpt lat="45.9573392" lon="11.5507039"><ele>1604.6666666666665</ele><time>2026-05-01T10:03:28.568Z</time></trkpt><trkpt lat="45.9573984" lon="11.5506129"><ele>1606.0</ele><time>2026-05-01T10:03:29.582Z</time></trkpt><trkpt lat="45.9574577" lon="11.5505229"><ele>1607.3333333333333</ele><time>2026-05-01T10:03:30.584Z</time></trkpt><trkpt lat="45.9575264" lon="11.5504376"><ele>1608.6666666666665</ele><time>2026-05-01T10:03:31.579Z</time></trkpt><trkpt lat="45.9576022" lon="11.5503612"><ele>1610.0</ele><time>2026-05-01T10:03:32.573Z</time></trkpt><trkpt lat="45.9576824" lon="11.550279"><ele>1610.6</ele><time>2026-05-01T10:03:33.583Z</time></trkpt><trkpt lat="45.9577613" lon="11.5501975"><ele>1611.2</ele><time>2026-05-01T10:03:34.585Z</time></trkpt><trkpt lat="45.957832" lon="11.5501089"><ele>1611.8000000000002</ele><time>2026-05-01T10:03:35.574Z</time></trkpt><trkpt lat="45.9579011" lon="11.5500185"><ele>1612.4</ele><time>2026-05-01T10:03:36.583Z</time></trkpt><trkpt lat="45.9579683" lon="11.5499269"><ele>1613.0</ele><time>2026-05-01T10:03:37.597Z</time></trkpt><trkpt lat="45.9580319" lon="11.549832"><ele>1612.9999999999998</ele><time>2026-05-01T10:03:38.582Z</time></trkpt><trkpt lat="45.9580966" lon="11.5497371"><ele>1613.0</ele><time>2026-05-01T10:03:39.581Z</time></trkpt><trkpt lat="45.9581581" lon="11.5496518"><ele>1613.0</ele><time>2026-05-01T10:03:40.577Z</time></trkpt><trkpt lat="45.9582158" lon="11.5495826"><ele>1613.0</ele><time>2026-05-01T10:03:41.571Z</time></trkpt><trkpt lat="45.9582771" lon="11.5495192"><ele>1612.9999999999998</ele><time>2026-05-01T10:03:42.571Z</time></trkpt><trkpt lat="45.9583373" lon="11.5494588"><ele>1613.0</ele><time>2026-05-01T10:03:43.576Z</time></trkpt><trkpt lat="45.9583907" lon="11.5494036"><ele>1613.8000000000002</ele><time>2026-05-01T10:03:44.578Z</time></trkpt><trkpt lat="45.9584708" lon="11.5492992"><ele>1614.6</ele><time>2026-05-01T10:03:46.589Z</time></trkpt><trkpt lat="45.9585556" lon="11.5491953"><ele>1615.4</ele><time>2026-05-01T10:03:48.583Z</time></trkpt><trkpt lat="45.9586494" lon="11.5490958"><ele>1616.1999999999998</ele><time>2026-05-01T10:03:50.576Z</time></trkpt><trkpt lat="45.9587003" lon="11.5490409"><ele>1617.0</ele><time>2026-05-01T10:03:51.578Z</time></trkpt><trkpt lat="45.9587524" lon="11.5489705"><ele>1617.0</ele><time>2026-05-01T10:03:52.572Z</time></trkpt><trkpt lat="45.9588112" lon="11.5488902"><ele>1617.0</ele><time>2026-05-01T10:03:53.574Z</time></trkpt><trkpt lat="45.9588677" lon="11.5488053"><ele>1617.0</ele><time>2026-05-01T10:03:54.583Z</time></trkpt><trkpt lat="45.958922" lon="11.5487148"><ele>1617.0</ele><time>2026-05-01T10:03:55.575Z</time></trkpt><trkpt lat="45.958979" lon="11.5486276"><ele>1617.0</ele><time>2026-05-01T10:03:56.577Z</time></trkpt><trkpt lat="45.9590379" lon="11.548543"><ele>1617.0</ele><time>2026-05-01T10:03:57.574Z</time></trkpt><trkpt lat="45.9590983" lon="11.5484616"><ele>1617.1666666666667</ele><time>2026-05-01T10:03:58.574Z</time></trkpt><trkpt lat="45.9591648" lon="11.5483792"><ele>1617.3333333333335</ele><time>2026-05-01T10:03:59.574Z</time></trkpt><trkpt lat="45.9592372" lon="11.5483084"><ele>1617.5</ele><time>2026-05-01T10:04:00.574Z</time></trkpt><trkpt lat="45.959308" lon="11.5482406"><ele>1617.6666666666667</ele><time>2026-05-01T10:04:01.571Z</time></trkpt><trkpt lat="45.9593823" lon="11.5481733"><ele>1617.8333333333335</ele><time>2026-05-01T10:04:02.577Z</time></trkpt><trkpt lat="45.9594615" lon="11.5480965"><ele>1618.0</ele><time>2026-05-01T10:04:03.573Z</time></trkpt><trkpt lat="45.959527" lon="11.5480326"><ele>1618.6666666666667</ele><time>2026-05-01T10:04:04.576Z</time></trkpt><trkpt lat="45.9595875" lon="11.5479646"><ele>1619.3333333333335</ele><time>2026-05-01T10:04:05.581Z</time></trkpt><trkpt lat="45.9596458" lon="11.5479027"><ele>1620.0</ele><time>2026-05-01T10:04:06.571Z</time></trkpt><trkpt lat="45.9597118" lon="11.5478429"><ele>1620.6666666666665</ele><time>2026-05-01T10:04:07.581Z</time></trkpt><trkpt lat="45.9597796" lon="11.5477868"><ele>1621.3333333333333</ele><time>2026-05-01T10:04:08.584Z</time></trkpt><trkpt lat="45.9598352" lon="11.5477407"><ele>1622.0</ele><time>2026-05-01T10:04:09.578Z</time></trkpt><trkpt lat="45.9599221" lon="11.5476541"><ele>1622.0</ele><time>2026-05-01T10:04:11.582Z</time></trkpt><trkpt lat="45.9600093" lon="11.5475643"><ele>1622.0</ele><time>2026-05-01T10:04:13.578Z</time></trkpt><trkpt lat="45.9600994" lon="11.5474863"><ele>1622.0</ele><time>2026-05-01T10:04:15.581Z</time></trkpt><trkpt lat="45.9601935" lon="11.5474344"><ele>1622.0</ele><time>2026-05-01T10:04:17.58Z</time></trkpt><trkpt lat="45.9602788" lon="11.5473791"><ele>1622.0</ele><time>2026-05-01T10:04:19.58Z</time></trkpt><trkpt lat="45.9603551" lon="11.5472998"><ele>1622.3999999999999</ele><time>2026-05-01T10:04:21.572Z</time></trkpt><trkpt lat="45.9604325" lon="11.5472114"><ele>1622.8</ele><time>2026-05-01T10:04:23.573Z</time></trkpt><trkpt lat="45.9605033" lon="11.5471299"><ele>1623.2</ele><time>2026-05-01T10:04:25.581Z</time></trkpt><trkpt lat="45.9605721" lon="11.5470338"><ele>1623.6</ele><time>2026-05-01T10:04:27.578Z</time></trkpt><trkpt lat="45.9606086" lon="11.5469419"><ele>1624.0</ele><time>2026-05-01T10:04:29.572Z</time></trkpt><trkpt lat="45.9606034" lon="11.5467829"><ele>1622.857142857143</ele><time>2026-05-01T10:04:31.576Z</time></trkpt><trkpt lat="45.9605969" lon="11.5466786"><ele>1621.7142857142858</ele><time>2026-05-01T10:04:32.574Z</time></trkpt><trkpt lat="45.9605922" lon="11.5465725"><ele>1620.5714285714284</ele><time>2026-05-01T10:04:33.577Z</time></trkpt><trkpt lat="45.9605912" lon="11.5464724"><ele>1619.4285714285716</ele><time>2026-05-01T10:04:34.57Z</time></trkpt><trkpt lat="45.9605942" lon="11.546377"><ele>1618.2857142857142</ele><time>2026-05-01T10:04:35.571Z</time></trkpt><trkpt lat="45.9606088" lon="11.546276"><ele>1617.142857142857</ele><time>2026-05-01T10:04:36.572Z</time></trkpt><trkpt lat="45.9606379" lon="11.5461762"><ele>1616.0</ele><time>2026-05-01T10:04:37.57Z</time></trkpt><trkpt lat="45.9606769" lon="11.5460809"><ele>1615.8333333333333</ele><time>2026-05-01T10:04:38.577Z</time></trkpt><trkpt lat="45.9607181" lon="11.5459862"><ele>1615.6666666666665</ele><time>2026-05-01T10:04:39.568Z</time></trkpt><trkpt lat="45.9607737" lon="11.5458928"><ele>1615.5</ele><time>2026-05-01T10:04:40.573Z</time></trkpt><trkpt lat="45.9608276" lon="11.5457911"><ele>1615.3333333333335</ele><time>2026-05-01T10:04:41.571Z</time></trkpt><trkpt lat="45.9608751" lon="11.5456933"><ele>1615.1666666666667</ele><time>2026-05-01T10:04:42.576Z</time></trkpt><trkpt lat="45.9609175" lon="11.5455909"><ele>1615.0</ele><time>2026-05-01T10:04:43.583Z</time></trkpt><trkpt lat="45.9609604" lon="11.5454889"><ele>1614.6666666666667</ele><time>2026-05-01T10:04:44.571Z</time></trkpt><trkpt lat="45.9610052" lon="11.5453875"><ele>1614.3333333333335</ele><time>2026-05-01T10:04:45.571Z</time></trkpt><trkpt lat="45.9610442" lon="11.5452837"><ele>1614.0</ele><time>2026-05-01T10:04:46.58Z</time></trkpt><trkpt lat="45.9610806" lon="11.5451822"><ele>1613.6666666666665</ele><time>2026-05-01T10:04:47.572Z</time></trkpt><trkpt lat="45.961119" lon="11.5450664"><ele>1613.3333333333333</ele><time>2026-05-01T10:04:48.589Z</time></trkpt><trkpt lat="45.9611547" lon="11.54495"><ele>1613.0</ele><time>2026-05-01T10:04:49.573Z</time></trkpt><trkpt lat="45.9612041" lon="11.5448474"><ele>1612.9999999999998</ele><time>2026-05-01T10:04:50.577Z</time></trkpt><trkpt lat="45.9612619" lon="11.5447618"><ele>1613.0</ele><time>2026-05-01T10:04:51.578Z</time></trkpt><trkpt lat="45.9613245" lon="11.5446804"><ele>1613.0</ele><time>2026-05-01T10:04:52.578Z</time></trkpt><trkpt lat="45.9613858" lon="11.5445943"><ele>1613.0</ele><time>2026-05-01T10:04:53.576Z</time></trkpt><trkpt lat="45.9614459" lon="11.5445014"><ele>1612.9999999999998</ele><time>2026-05-01T10:04:54.573Z</time></trkpt><trkpt lat="45.9614952" lon="11.544401"><ele>1613.0</ele><time>2026-05-01T10:04:55.574Z</time></trkpt><trkpt lat="45.9615334" lon="11.5442927"><ele>1613.6666666666665</ele><time>2026-05-01T10:04:56.578Z</time></trkpt><trkpt lat="45.9615637" lon="11.5441803"><ele>1614.3333333333333</ele><time>2026-05-01T10:04:57.574Z</time></trkpt><trkpt lat="45.9615932" lon="11.5440674"><ele>1615.0</ele><time>2026-05-01T10:04:58.571Z</time></trkpt><trkpt lat="45.9616255" lon="11.5439489"><ele>1615.6666666666665</ele><time>2026-05-01T10:04:59.573Z</time></trkpt><trkpt lat="45.9616598" lon="11.5438285"><ele>1616.3333333333333</ele><time>2026-05-01T10:05:00.587Z</time></trkpt><trkpt lat="45.9616932" lon="11.5437073"><ele>1617.0</ele><time>2026-05-01T10:05:01.569Z</time></trkpt><trkpt lat="45.9617273" lon="11.5435924"><ele>1617.8333333333333</ele><time>2026-05-01T10:05:02.578Z</time></trkpt><trkpt lat="45.961766" lon="11.5434847"><ele>1618.6666666666665</ele><time>2026-05-01T10:05:03.58Z</time></trkpt><trkpt lat="45.9618038" lon="11.5433848"><ele>1619.5</ele><time>2026-05-01T10:05:04.581Z</time></trkpt><trkpt lat="45.9618563" lon="11.5433002"><ele>1620.3333333333333</ele><time>2026-05-01T10:05:05.579Z</time></trkpt><trkpt lat="45.9619316" lon="11.5432344"><ele>1621.1666666666665</ele><time>2026-05-01T10:05:06.577Z</time></trkpt><trkpt lat="45.9620063" lon="11.543173"><ele>1622.0</ele><time>2026-05-01T10:05:07.574Z</time></trkpt><trkpt lat="45.9620829" lon="11.543112"><ele>1622.0</ele><time>2026-05-01T10:05:08.576Z</time></trkpt><trkpt lat="45.9621495" lon="11.5430533"><ele>1622.0</ele><time>2026-05-01T10:05:09.58Z</time></trkpt><trkpt lat="45.9622296" lon="11.5429226"><ele>1622.0</ele><time>2026-05-01T10:05:11.578Z</time></trkpt><trkpt lat="45.9622677" lon="11.5427625"><ele>1622.0</ele><time>2026-05-01T10:05:13.576Z</time></trkpt><trkpt lat="45.962307" lon="11.542577"><ele>1623.1666666666665</ele><time>2026-05-01T10:05:15.579Z</time></trkpt><trkpt lat="45.9623313" lon="11.5424759"><ele>1624.3333333333333</ele><time>2026-05-01T10:05:16.572Z</time></trkpt><trkpt lat="45.9623604" lon="11.5423742"><ele>1625.5</ele><time>2026-05-01T10:05:17.574Z</time></trkpt><trkpt lat="45.9623933" lon="11.5422654"><ele>1626.6666666666665</ele><time>2026-05-01T10:05:18.573Z</time></trkpt><trkpt lat="45.9624273" lon="11.5421401"><ele>1627.8333333333333</ele><time>2026-05-01T10:05:19.576Z</time></trkpt><trkpt lat="45.9624634" lon="11.5420229"><ele>1629.0</ele><time>2026-05-01T10:05:20.567Z</time></trkpt><trkpt lat="45.9624992" lon="11.5419116"><ele>1629.1666666666667</ele><time>2026-05-01T10:05:21.58Z</time></trkpt><trkpt lat="45.9625297" lon="11.5418135"><ele>1629.3333333333335</ele><time>2026-05-01T10:05:22.577Z</time></trkpt><trkpt lat="45.9625611" lon="11.5417234"><ele>1629.5</ele><time>2026-05-01T10:05:23.576Z</time></trkpt><trkpt lat="45.9625922" lon="11.541641"><ele>1629.6666666666667</ele><time>2026-05-01T10:05:24.582Z</time></trkpt><trkpt lat="45.9626311" lon="11.5415636"><ele>1629.8333333333335</ele><time>2026-05-01T10:05:25.575Z</time></trkpt><trkpt lat="45.9626904" lon="11.5414239"><ele>1630.0</ele><time>2026-05-01T10:05:27.574Z</time></trkpt><trkpt lat="45.9627112" lon="11.541333"><ele>1630.0000000000002</ele><time>2026-05-01T10:05:29.564Z</time></trkpt><trkpt lat="45.9626436" lon="11.5412869"><ele>1630.0</ele><time>2026-05-01T10:05:31.574Z</time></trkpt><trkpt lat="45.9625382" lon="11.5413195"><ele>1630.0</ele><time>2026-05-01T10:05:33.575Z</time></trkpt><trkpt lat="45.9624517" lon="11.5413773"><ele>1630.0</ele><time>2026-05-01T10:05:35.577Z</time></trkpt><trkpt lat="45.9623808" lon="11.5413957"><ele>1630.0000000000002</ele><time>2026-05-01T10:05:46.573Z</time></trkpt><trkpt lat="45.9623076" lon="11.5414009"><ele>1630.0</ele><time>2026-05-01T10:05:49.555Z</time></trkpt><trkpt lat="45.9623067" lon="11.5412998"><ele>1632.2</ele><time>2026-05-01T10:05:53.596Z</time></trkpt><trkpt lat="45.9623827" lon="11.5412035"><ele>1634.4</ele><time>2026-05-01T10:05:55.574Z</time></trkpt><trkpt lat="45.9624797" lon="11.5410771"><ele>1636.6</ele><time>2026-05-01T10:05:57.594Z</time></trkpt><trkpt lat="45.9625351" lon="11.5409957"><ele>1638.8</ele><time>2026-05-01T10:05:58.598Z</time></trkpt><trkpt lat="45.9625922" lon="11.5409122"><ele>1641.0</ele><time>2026-05-01T10:05:59.591Z</time></trkpt><trkpt lat="45.9626339" lon="11.5408286"><ele>1641.0</ele><time>2026-05-01T10:06:00.59Z</time></trkpt><trkpt lat="45.9626741" lon="11.5407304"><ele>1641.0</ele><time>2026-05-01T10:06:01.587Z</time></trkpt><trkpt lat="45.9627157" lon="11.540634"><ele>1641.0</ele><time>2026-05-01T10:06:02.586Z</time></trkpt><trkpt lat="45.9627511" lon="11.5405421"><ele>1641.0</ele><time>2026-05-01T10:06:03.556Z</time></trkpt><trkpt lat="45.9627867" lon="11.5404595"><ele>1641.0</ele><time>2026-05-01T10:06:04.57Z</time></trkpt><trkpt lat="45.9628222" lon="11.5403817"><ele>1641.0</ele><time>2026-05-01T10:06:05.583Z</time></trkpt><trkpt lat="45.9628963" lon="11.5402453"><ele>1642.6666666666667</ele><time>2026-05-01T10:06:07.572Z</time></trkpt><trkpt lat="45.9629631" lon="11.5401666"><ele>1644.3333333333335</ele><time>2026-05-01T10:06:08.593Z</time></trkpt><trkpt lat="45.9630252" lon="11.5400817"><ele>1646.0</ele><time>2026-05-01T10:06:09.582Z</time></trkpt><trkpt lat="45.9630692" lon="11.5399892"><ele>1647.6666666666667</ele><time>2026-05-01T10:06:10.599Z</time></trkpt><trkpt lat="45.9631064" lon="11.5398939"><ele>1649.3333333333335</ele><time>2026-05-01T10:06:11.576Z</time></trkpt><trkpt lat="45.9631408" lon="11.5397952"><ele>1651.0</ele><time>2026-05-01T10:06:12.564Z</time></trkpt><trkpt lat="45.9631578" lon="11.5396897"><ele>1651.0000000000002</ele><time>2026-05-01T10:06:13.575Z</time></trkpt><trkpt lat="45.963162" lon="11.5395821"><ele>1651.0</ele><time>2026-05-01T10:06:14.571Z</time></trkpt><trkpt lat="45.963164" lon="11.5394853"><ele>1651.0</ele><time>2026-05-01T10:06:15.581Z</time></trkpt><trkpt lat="45.9631594" lon="11.5393859"><ele>1651.0</ele><time>2026-05-01T10:06:16.579Z</time></trkpt><trkpt lat="45.9631578" lon="11.5392878"><ele>1651.0000000000002</ele><time>2026-05-01T10:06:17.582Z</time></trkpt><trkpt lat="45.9631311" lon="11.5391667"><ele>1651.0</ele><time>2026-05-01T10:06:19.571Z</time></trkpt><trkpt lat="45.9630574" lon="11.5391155"><ele>1652.6666666666667</ele><time>2026-05-01T10:06:21.57Z</time></trkpt><trkpt lat="45.9629629" lon="11.5391124"><ele>1654.3333333333335</ele><time>2026-05-01T10:06:23.593Z</time></trkpt><trkpt lat="45.9628824" lon="11.5391138"><ele>1656.0</ele><time>2026-05-01T10:06:25.589Z</time></trkpt><trkpt lat="45.9627952" lon="11.5391068"><ele>1657.6666666666665</ele><time>2026-05-01T10:06:27.577Z</time></trkpt><trkpt lat="45.9627022" lon="11.5390837"><ele>1659.3333333333333</ele><time>2026-05-01T10:06:29.574Z</time></trkpt><trkpt lat="45.9626359" lon="11.5390377"><ele>1661.0</ele><time>2026-05-01T10:06:31.574Z</time></trkpt><trkpt lat="45.9626018" lon="11.5389499"><ele>1660.9999999999998</ele><time>2026-05-01T10:06:41.587Z</time></trkpt><trkpt lat="45.9625907" lon="11.5388278"><ele>1661.0</ele><time>2026-05-01T10:06:44.586Z</time></trkpt><trkpt lat="45.962606" lon="11.5387341"><ele>1661.0</ele><time>2026-05-01T10:06:47.586Z</time></trkpt><trkpt lat="45.9626765" lon="11.5386819"><ele>1661.0</ele><time>2026-05-01T10:06:50.588Z</time></trkpt><trkpt lat="45.9627623" lon="11.5386796"><ele>1660.9999999999998</ele><time>2026-05-01T10:06:52.582Z</time></trkpt><trkpt lat="45.9628245" lon="11.538604"><ele>1661.0</ele><time>2026-05-01T10:06:54.576Z</time></trkpt><trkpt lat="45.9628048" lon="11.5384814"><ele>1662.6666666666665</ele><time>2026-05-01T10:06:57.571Z</time></trkpt><trkpt lat="45.9627296" lon="11.5384246"><ele>1664.3333333333333</ele><time>2026-05-01T10:06:59.575Z</time></trkpt><trkpt lat="45.9626995" lon="11.5383207"><ele>1666.0</ele><time>2026-05-01T10:07:02.59Z</time></trkpt><trkpt lat="45.9627025" lon="11.5381985"><ele>1667.6666666666665</ele><time>2026-05-01T10:07:04.57Z</time></trkpt><trkpt lat="45.9627259" lon="11.5380896"><ele>1669.3333333333333</ele><time>2026-05-01T10:07:06.577Z</time></trkpt><trkpt lat="45.9627293" lon="11.5379903"><ele>1671.0</ele><time>2026-05-01T10:07:08.58Z</time></trkpt><trkpt lat="45.9627276" lon="11.5378627"><ele>1671.3333333333333</ele><time>2026-05-01T10:07:10.57Z</time></trkpt><trkpt lat="45.9627359" lon="11.5377508"><ele>1671.6666666666665</ele><time>2026-05-01T10:07:12.553Z</time></trkpt><trkpt lat="45.9627564" lon="11.5376221"><ele>1672.0</ele><time>2026-05-01T10:07:15.572Z</time></trkpt><trkpt lat="45.9627974" lon="11.5375444"><ele>1672.3333333333333</ele><time>2026-05-01T10:07:17.58Z</time></trkpt><trkpt lat="45.9628699" lon="11.5374886"><ele>1672.6666666666665</ele><time>2026-05-01T10:07:20.574Z</time></trkpt><trkpt lat="45.9629667" lon="11.5374832"><ele>1673.0</ele><time>2026-05-01T10:07:23.591Z</time></trkpt><trkpt lat="45.9630493" lon="11.5374762"><ele>1672.9999999999998</ele><time>2026-05-01T10:07:25.57Z</time></trkpt><trkpt lat="45.9631213" lon="11.5374488"><ele>1673.0</ele><time>2026-05-01T10:07:27.584Z</time></trkpt><trkpt lat="45.9632077" lon="11.5374063"><ele>1673.0</ele><time>2026-05-01T10:07:30.578Z</time></trkpt><trkpt lat="45.9632635" lon="11.5373639"><ele>1673.0</ele><time>2026-05-01T10:07:32.577Z</time></trkpt><trkpt lat="45.9633339" lon="11.5372927"><ele>1672.9999999999998</ele><time>2026-05-01T10:07:35.58Z</time></trkpt><trkpt lat="45.9634036" lon="11.5372087"><ele>1673.0</ele><time>2026-05-01T10:07:43.564Z</time></trkpt><trkpt lat="45.9634868" lon="11.5371317"><ele>1672.9999999999998</ele><time>2026-05-01T10:07:45.566Z</time></trkpt><trkpt lat="45.9635565" lon="11.5370751"><ele>1673.0</ele><time>2026-05-01T10:07:47.565Z</time></trkpt><trkpt lat="45.9636151" lon="11.5369983"><ele>1673.0</ele><time>2026-05-01T10:07:49.568Z</time></trkpt><trkpt lat="45.9636398" lon="11.5368895"><ele>1673.0</ele><time>2026-05-01T10:07:51.569Z</time></trkpt><trkpt lat="45.9636292" lon="11.5367756"><ele>1672.9999999999998</ele><time>2026-05-01T10:07:53.58Z</time></trkpt><trkpt lat="45.9635724" lon="11.5366807"><ele>1673.0</ele><time>2026-05-01T10:07:55.579Z</time></trkpt><trkpt lat="45.9635048" lon="11.536667"><ele>1671.6666666666665</ele><time>2026-05-01T10:07:57.573Z</time></trkpt><trkpt lat="45.9634404" lon="11.5366809"><ele>1670.3333333333333</ele><time>2026-05-01T10:07:59.574Z</time></trkpt><trkpt lat="45.9635005" lon="11.5366466"><ele>1669.0</ele><time>2026-05-01T10:14:11.567Z</time></trkpt><trkpt lat="45.963583" lon="11.5366992"><ele>1667.6666666666665</ele><time>2026-05-01T10:14:14.565Z</time></trkpt><trkpt lat="45.9636322" lon="11.5367993"><ele>1666.3333333333333</ele><time>2026-05-01T10:14:16.565Z</time></trkpt><trkpt lat="45.9636485" lon="11.5369218"><ele>1665.0</ele><time>2026-05-01T10:14:18.572Z</time></trkpt><trkpt lat="45.9636257" lon="11.5370331"><ele>1666.3333333333333</ele><time>2026-05-01T10:14:20.567Z</time></trkpt><trkpt lat="45.9635559" lon="11.5370981"><ele>1667.6666666666665</ele><time>2026-05-01T10:14:22.565Z</time></trkpt><trkpt lat="45.9634825" lon="11.5371503"><ele>1669.0</ele><time>2026-05-01T10:14:24.576Z</time></trkpt><trkpt lat="45.963387" lon="11.5372263"><ele>1670.3333333333333</ele><time>2026-05-01T10:14:26.565Z</time></trkpt><trkpt lat="45.963332" lon="11.5372787"><ele>1671.6666666666665</ele><time>2026-05-01T10:14:27.572Z</time></trkpt><trkpt lat="45.9632765" lon="11.5373319"><ele>1673.0</ele><time>2026-05-01T10:14:28.581Z</time></trkpt><trkpt lat="45.96322" lon="11.5373724"><ele>1672.9999999999998</ele><time>2026-05-01T10:14:29.568Z</time></trkpt><trkpt lat="45.9631617" lon="11.5374082"><ele>1673.0</ele><time>2026-05-01T10:14:30.571Z</time></trkpt><trkpt lat="45.9631025" lon="11.5374421"><ele>1673.0</ele><time>2026-05-01T10:14:31.571Z</time></trkpt><trkpt lat="45.9630375" lon="11.5374621"><ele>1673.0</ele><time>2026-05-01T10:14:32.57Z</time></trkpt><trkpt lat="45.9629166" lon="11.537486"><ele>1672.9999999999998</ele><time>2026-05-01T10:14:34.579Z</time></trkpt><trkpt lat="45.9628336" lon="11.5374914"><ele>1673.0</ele><time>2026-05-01T10:14:36.584Z</time></trkpt><trkpt lat="45.962755" lon="11.5375473"><ele>1673.0</ele><time>2026-05-01T10:14:38.571Z</time></trkpt><trkpt lat="45.9627171" lon="11.537683"><ele>1673.0</ele><time>2026-05-01T10:14:40.573Z</time></trkpt><trkpt lat="45.9627014" lon="11.5378348"><ele>1673.0</ele><time>2026-05-01T10:14:42.55Z</time></trkpt><trkpt lat="45.9626913" lon="11.5379836"><ele>1673.0</ele><time>2026-05-01T10:14:44.563Z</time></trkpt><trkpt lat="45.9626907" lon="11.5381057"><ele>1673.0</ele><time>2026-05-01T10:14:46.573Z</time></trkpt><trkpt lat="45.9626892" lon="11.5382424"><ele>1672.7142857142858</ele><time>2026-05-01T10:14:48.564Z</time></trkpt><trkpt lat="45.9626857" lon="11.5383434"><ele>1672.4285714285716</ele><time>2026-05-01T10:14:50.576Z</time></trkpt><trkpt lat="45.9627076" lon="11.5384503"><ele>1672.142857142857</ele><time>2026-05-01T10:14:53.559Z</time></trkpt><trkpt lat="45.9627617" lon="11.5385098"><ele>1671.857142857143</ele><time>2026-05-01T10:14:55.592Z</time></trkpt><trkpt lat="45.9628124" lon="11.538565"><ele>1671.5714285714287</ele><time>2026-05-01T10:14:57.584Z</time></trkpt><trkpt lat="45.9628025" lon="11.5386864"><ele>1671.2857142857142</ele><time>2026-05-01T10:15:00.575Z</time></trkpt><trkpt lat="45.9627261" lon="11.5387085"><ele>1671.0</ele><time>2026-05-01T10:15:02.589Z</time></trkpt><trkpt lat="45.9626673" lon="11.5387493"><ele>1669.5714285714284</ele><time>2026-05-01T10:15:05.557Z</time></trkpt><trkpt lat="45.9626205" lon="11.5388145"><ele>1668.1428571428573</ele><time>2026-05-01T10:15:10.583Z</time></trkpt><trkpt lat="45.9626022" lon="11.5389021"><ele>1666.7142857142858</ele><time>2026-05-01T10:15:14.573Z</time></trkpt><trkpt lat="45.962624" lon="11.5390143"><ele>1665.2857142857142</ele><time>2026-05-01T10:15:18.618Z</time></trkpt><trkpt lat="45.962686" lon="11.5390497"><ele>1663.8571428571427</ele><time>2026-05-01T10:15:20.657Z</time></trkpt><trkpt lat="45.9627579" lon="11.539088"><ele>1662.4285714285716</ele><time>2026-05-01T10:15:22.581Z</time></trkpt><trkpt lat="45.9628376" lon="11.5391037"><ele>1661.0</ele><time>2026-05-01T10:15:26.579Z</time></trkpt><trkpt lat="45.9628997" lon="11.5391548"><ele>1660.9999999999998</ele><time>2026-05-01T10:15:30.574Z</time></trkpt><trkpt lat="45.9629743" lon="11.5391589"><ele>1661.0</ele><time>2026-05-01T10:15:34.617Z</time></trkpt><trkpt lat="45.9630426" lon="11.5391561"><ele>1661.0</ele><time>2026-05-01T10:15:36.655Z</time></trkpt><trkpt lat="45.9631369" lon="11.5392381"><ele>1661.0</ele><time>2026-05-01T10:15:38.588Z</time></trkpt><trkpt lat="45.9631501" lon="11.5394191"><ele>1660.9999999999998</ele><time>2026-05-01T10:15:40.572Z</time></trkpt><trkpt lat="45.9631537" lon="11.5395152"><ele>1661.0</ele><time>2026-05-01T10:15:41.573Z</time></trkpt><trkpt lat="45.9631559" lon="11.5396064"><ele>1659.3333333333333</ele><time>2026-05-01T10:15:42.572Z</time></trkpt><trkpt lat="45.9631485" lon="11.5397874"><ele>1657.6666666666665</ele><time>2026-05-01T10:15:44.575Z</time></trkpt><trkpt lat="45.9631243" lon="11.5398821"><ele>1656.0</ele><time>2026-05-01T10:15:45.582Z</time></trkpt><trkpt lat="45.9630953" lon="11.5399792"><ele>1654.3333333333335</ele><time>2026-05-01T10:15:46.573Z</time></trkpt><trkpt lat="45.9630643" lon="11.5400694"><ele>1652.6666666666667</ele><time>2026-05-01T10:15:47.592Z</time></trkpt><trkpt lat="45.9630172" lon="11.5401488"><ele>1651.0</ele><time>2026-05-01T10:15:48.579Z</time></trkpt><trkpt lat="45.9629655" lon="11.5402238"><ele>1651.0000000000002</ele><time>2026-05-01T10:15:49.576Z</time></trkpt><trkpt lat="45.9629117" lon="11.5403016"><ele>1651.0</ele><time>2026-05-01T10:15:50.582Z</time></trkpt><trkpt lat="45.9628544" lon="11.5403764"><ele>1651.0</ele><time>2026-05-01T10:15:51.58Z</time></trkpt><trkpt lat="45.9628008" lon="11.5404507"><ele>1651.0</ele><time>2026-05-01T10:15:52.584Z</time></trkpt><trkpt lat="45.9627576" lon="11.5405449"><ele>1651.0000000000002</ele><time>2026-05-01T10:15:53.575Z</time></trkpt><trkpt lat="45.9627201" lon="11.5406455"><ele>1651.0</ele><time>2026-05-01T10:15:54.562Z</time></trkpt><trkpt lat="45.9626831" lon="11.5407407"><ele>1650.6666666666667</ele><time>2026-05-01T10:15:55.579Z</time></trkpt><trkpt lat="45.962648" lon="11.5408306"><ele>1650.3333333333335</ele><time>2026-05-01T10:15:56.602Z</time></trkpt><trkpt lat="45.9626075" lon="11.5409238"><ele>1650.0</ele><time>2026-05-01T10:15:57.576Z</time></trkpt><trkpt lat="45.9625604" lon="11.5410051"><ele>1649.6666666666665</ele><time>2026-05-01T10:15:58.587Z</time></trkpt><trkpt lat="45.9625124" lon="11.5410777"><ele>1649.3333333333333</ele><time>2026-05-01T10:15:59.592Z</time></trkpt><trkpt lat="45.9624621" lon="11.5411458"><ele>1649.0</ele><time>2026-05-01T10:16:00.587Z</time></trkpt><trkpt lat="45.9623838" lon="11.5412494"><ele>1647.3333333333333</ele><time>2026-05-01T10:16:02.578Z</time></trkpt><trkpt lat="45.9623304" lon="11.5413069"><ele>1645.6666666666665</ele><time>2026-05-01T10:16:04.594Z</time></trkpt><trkpt lat="45.9623044" lon="11.5413972"><ele>1644.0</ele><time>2026-05-01T10:16:07.574Z</time></trkpt><trkpt lat="45.9623656" lon="11.5414508"><ele>1642.3333333333335</ele><time>2026-05-01T10:16:11.581Z</time></trkpt><trkpt lat="45.9624507" lon="11.541424"><ele>1640.6666666666667</ele><time>2026-05-01T10:16:13.576Z</time></trkpt><trkpt lat="45.9625579" lon="11.5413473"><ele>1639.0</ele><time>2026-05-01T10:16:15.581Z</time></trkpt><trkpt lat="45.9626456" lon="11.5412895"><ele>1639.0</ele><time>2026-05-01T10:16:17.577Z</time></trkpt><trkpt lat="45.9626898" lon="11.5413686"><ele>1639.0</ele><time>2026-05-01T10:16:19.574Z</time></trkpt><trkpt lat="45.9626792" lon="11.5414746"><ele>1639.0</ele><time>2026-05-01T10:16:21.578Z</time></trkpt><trkpt lat="45.9626424" lon="11.5415524"><ele>1639.0</ele><time>2026-05-01T10:16:22.57Z</time></trkpt><trkpt lat="45.9626039" lon="11.5416301"><ele>1639.0</ele><time>2026-05-01T10:16:23.566Z</time></trkpt><trkpt lat="45.9625619" lon="11.5417151"><ele>1639.0</ele><time>2026-05-01T10:16:24.575Z</time></trkpt><trkpt lat="45.9625235" lon="11.5417968"><ele>1639.0</ele><time>2026-05-01T10:16:25.593Z</time></trkpt><trkpt lat="45.9624927" lon="11.5418851"><ele>1639.0</ele><time>2026-05-01T10:16:26.58Z</time></trkpt><trkpt lat="45.9624604" lon="11.5419853"><ele>1639.0</ele><time>2026-05-01T10:16:27.597Z</time></trkpt><trkpt lat="45.9624307" lon="11.542082"><ele>1639.0</ele><time>2026-05-01T10:16:28.575Z</time></trkpt><trkpt lat="45.962406" lon="11.5421691"><ele>1639.0</ele><time>2026-05-01T10:16:29.566Z</time></trkpt><trkpt lat="45.9623829" lon="11.5422571"><ele>1639.0</ele><time>2026-05-01T10:16:30.582Z</time></trkpt><trkpt lat="45.962357" lon="11.5423505"><ele>1639.0</ele><time>2026-05-01T10:16:31.575Z</time></trkpt><trkpt lat="45.9623315" lon="11.5424364"><ele>1639.0</ele><time>2026-05-01T10:16:32.575Z</time></trkpt><trkpt lat="45.962291" lon="11.542591"><ele>1637.3333333333335</ele><time>2026-05-01T10:16:34.591Z</time></trkpt><trkpt lat="45.9622614" lon="11.5427247"><ele>1635.6666666666667</ele><time>2026-05-01T10:16:36.57Z</time></trkpt><trkpt lat="45.9622288" lon="11.54287"><ele>1634.0</ele><time>2026-05-01T10:16:38.57Z</time></trkpt><trkpt lat="45.9621991" lon="11.542958"><ele>1632.3333333333335</ele><time>2026-05-01T10:16:39.577Z</time></trkpt><trkpt lat="45.9621589" lon="11.5430432"><ele>1630.6666666666667</ele><time>2026-05-01T10:16:40.583Z</time></trkpt><trkpt lat="45.9621181" lon="11.5431248"><ele>1629.0</ele><time>2026-05-01T10:16:41.588Z</time></trkpt><trkpt lat="45.9620644" lon="11.543187"><ele>1627.8333333333333</ele><time>2026-05-01T10:16:42.574Z</time></trkpt><trkpt lat="45.9619984" lon="11.5432417"><ele>1626.6666666666665</ele><time>2026-05-01T10:16:43.581Z</time></trkpt><trkpt lat="45.9619296" lon="11.5432871"><ele>1625.5</ele><time>2026-05-01T10:16:44.579Z</time></trkpt><trkpt lat="45.9618678" lon="11.5433443"><ele>1624.3333333333333</ele><time>2026-05-01T10:16:45.575Z</time></trkpt><trkpt lat="45.9618169" lon="11.5434137"><ele>1623.1666666666665</ele><time>2026-05-01T10:16:46.574Z</time></trkpt><trkpt lat="45.9617614" lon="11.5434897"><ele>1622.0</ele><time>2026-05-01T10:16:47.584Z</time></trkpt><trkpt lat="45.9617194" lon="11.5435906"><ele>1621.8</ele><time>2026-05-01T10:16:48.576Z</time></trkpt><trkpt lat="45.9616813" lon="11.5437091"><ele>1621.6</ele><time>2026-05-01T10:16:49.576Z</time></trkpt><trkpt lat="45.9616433" lon="11.5438373"><ele>1621.3999999999999</ele><time>2026-05-01T10:16:50.567Z</time></trkpt><trkpt lat="45.9616092" lon="11.5439641"><ele>1621.1999999999998</ele><time>2026-05-01T10:16:51.578Z</time></trkpt><trkpt lat="45.9615696" lon="11.5440938"><ele>1621.0</ele><time>2026-05-01T10:16:52.575Z</time></trkpt><trkpt lat="45.9615283" lon="11.5442276"><ele>1620.1999999999998</ele><time>2026-05-01T10:16:53.577Z</time></trkpt><trkpt lat="45.9614797" lon="11.544358"><ele>1619.3999999999999</ele><time>2026-05-01T10:16:54.572Z</time></trkpt><trkpt lat="45.9614234" lon="11.5444798"><ele>1618.6</ele><time>2026-05-01T10:16:55.573Z</time></trkpt><trkpt lat="45.9613618" lon="11.5445938"><ele>1617.8</ele><time>2026-05-01T10:16:56.573Z</time></trkpt><trkpt lat="45.9613026" lon="11.5447031"><ele>1617.0</ele><time>2026-05-01T10:16:57.574Z</time></trkpt><trkpt lat="45.9612404" lon="11.5448041"><ele>1616.1999999999998</ele><time>2026-05-01T10:16:58.574Z</time></trkpt><trkpt lat="45.9611772" lon="11.5449179"><ele>1615.4</ele><time>2026-05-01T10:16:59.578Z</time></trkpt><trkpt lat="45.9611141" lon="11.5450345"><ele>1614.6</ele><time>2026-05-01T10:17:00.576Z</time></trkpt><trkpt lat="45.9610696" lon="11.5451624"><ele>1613.8000000000002</ele><time>2026-05-01T10:17:01.575Z</time></trkpt><trkpt lat="45.9610228" lon="11.5452934"><ele>1613.0</ele><time>2026-05-01T10:17:02.575Z</time></trkpt><trkpt lat="45.9609731" lon="11.5454243"><ele>1612.6000000000001</ele><time>2026-05-01T10:17:03.581Z</time></trkpt><trkpt lat="45.9609246" lon="11.5455504"><ele>1612.2</ele><time>2026-05-01T10:17:04.572Z</time></trkpt><trkpt lat="45.9608704" lon="11.5456749"><ele>1611.8</ele><time>2026-05-01T10:17:05.575Z</time></trkpt><trkpt lat="45.960815" lon="11.5457947"><ele>1611.4</ele><time>2026-05-01T10:17:06.572Z</time></trkpt><trkpt lat="45.9607623" lon="11.5459084"><ele>1611.0</ele><time>2026-05-01T10:17:07.581Z</time></trkpt><trkpt lat="45.9607009" lon="11.5460176"><ele>1611.6666666666667</ele><time>2026-05-01T10:17:08.574Z</time></trkpt><trkpt lat="45.9606497" lon="11.5461151"><ele>1612.3333333333335</ele><time>2026-05-01T10:17:09.572Z</time></trkpt><trkpt lat="45.960614" lon="11.5462047"><ele>1613.0</ele><time>2026-05-01T10:17:10.572Z</time></trkpt><trkpt lat="45.9605816" lon="11.5463791"><ele>1613.6666666666667</ele><time>2026-05-01T10:17:12.572Z</time></trkpt><trkpt lat="45.9605746" lon="11.5464707"><ele>1614.3333333333335</ele><time>2026-05-01T10:17:13.564Z</time></trkpt><trkpt lat="45.9605711" lon="11.5465627"><ele>1615.0</ele><time>2026-05-01T10:17:14.568Z</time></trkpt><trkpt lat="45.960571" lon="11.5466543"><ele>1615.2</ele><time>2026-05-01T10:17:15.577Z</time></trkpt><trkpt lat="45.9605827" lon="11.5468224"><ele>1615.4</ele><time>2026-05-01T10:17:17.57Z</time></trkpt><trkpt lat="45.9605851" lon="11.5469687"><ele>1615.6</ele><time>2026-05-01T10:17:19.568Z</time></trkpt><trkpt lat="45.9605308" lon="11.5470728"><ele>1615.8</ele><time>2026-05-01T10:17:21.567Z</time></trkpt><trkpt lat="45.9604393" lon="11.5471683"><ele>1616.0</ele><time>2026-05-01T10:17:23.574Z</time></trkpt><trkpt lat="45.9603873" lon="11.5472225"><ele>1616.9999999999998</ele><time>2026-05-01T10:17:24.573Z</time></trkpt><trkpt lat="45.9603325" lon="11.5472793"><ele>1618.0</ele><time>2026-05-01T10:17:25.57Z</time></trkpt><trkpt lat="45.9602687" lon="11.547341"><ele>1619.0</ele><time>2026-05-01T10:17:26.57Z</time></trkpt><trkpt lat="45.9601976" lon="11.5474035"><ele>1620.0</ele><time>2026-05-01T10:17:27.57Z</time></trkpt><trkpt lat="45.9601236" lon="11.5474632"><ele>1620.9999999999998</ele><time>2026-05-01T10:17:28.568Z</time></trkpt><trkpt lat="45.9600549" lon="11.5475189"><ele>1622.0</ele><time>2026-05-01T10:17:29.572Z</time></trkpt><trkpt lat="45.9599928" lon="11.547576"><ele>1621.9999999999998</ele><time>2026-05-01T10:17:30.579Z</time></trkpt><trkpt lat="45.9599317" lon="11.547635"><ele>1622.0</ele><time>2026-05-01T10:17:31.573Z</time></trkpt><trkpt lat="45.9598685" lon="11.5476949"><ele>1622.0</ele><time>2026-05-01T10:17:32.575Z</time></trkpt><trkpt lat="45.9597999" lon="11.5477514"><ele>1622.0</ele><time>2026-05-01T10:17:33.57Z</time></trkpt><trkpt lat="45.9597244" lon="11.5478148"><ele>1621.9999999999998</ele><time>2026-05-01T10:17:34.566Z</time></trkpt><trkpt lat="45.9596531" lon="11.5478859"><ele>1622.0</ele><time>2026-05-01T10:17:35.571Z</time></trkpt><trkpt lat="45.9595885" lon="11.547958"><ele>1622.5714285714284</ele><time>2026-05-01T10:17:36.575Z</time></trkpt><trkpt lat="45.9595304" lon="11.5480209"><ele>1623.1428571428573</ele><time>2026-05-01T10:17:37.579Z</time></trkpt><trkpt lat="45.9594748" lon="11.5480836"><ele>1623.7142857142858</ele><time>2026-05-01T10:17:38.577Z</time></trkpt><trkpt lat="45.9594106" lon="11.5481424"><ele>1624.2857142857142</ele><time>2026-05-01T10:17:39.58Z</time></trkpt><trkpt lat="45.9593479" lon="11.5482014"><ele>1624.8571428571427</ele><time>2026-05-01T10:17:40.575Z</time></trkpt><trkpt lat="45.9592846" lon="11.5482599"><ele>1625.4285714285716</ele><time>2026-05-01T10:17:41.578Z</time></trkpt><trkpt lat="45.959222" lon="11.5483148"><ele>1626.0</ele><time>2026-05-01T10:17:42.575Z</time></trkpt><trkpt lat="45.9591636" lon="11.5483682"><ele>1624.857142857143</ele><time>2026-05-01T10:17:43.579Z</time></trkpt><trkpt lat="45.9591104" lon="11.5484178"><ele>1623.7142857142856</ele><time>2026-05-01T10:17:44.576Z</time></trkpt><trkpt lat="45.9590584" lon="11.5484855"><ele>1622.5714285714284</ele><time>2026-05-01T10:17:45.581Z</time></trkpt><trkpt lat="45.9590116" lon="11.5485467"><ele>1621.4285714285716</ele><time>2026-05-01T10:17:46.57Z</time></trkpt><trkpt lat="45.9589621" lon="11.5486312"><ele>1620.2857142857142</ele><time>2026-05-01T10:17:47.575Z</time></trkpt><trkpt lat="45.9589177" lon="11.5487044"><ele>1619.142857142857</ele><time>2026-05-01T10:17:48.58Z</time></trkpt><trkpt lat="45.9588738" lon="11.5487787"><ele>1618.0</ele><time>2026-05-01T10:17:49.576Z</time></trkpt><trkpt lat="45.9588253" lon="11.5488529"><ele>1617.8333333333335</ele><time>2026-05-01T10:17:50.575Z</time></trkpt><trkpt lat="45.9587708" lon="11.5489212"><ele>1617.6666666666667</ele><time>2026-05-01T10:17:51.574Z</time></trkpt><trkpt lat="45.9587178" lon="11.5489855"><ele>1617.5</ele><time>2026-05-01T10:17:52.572Z</time></trkpt><trkpt lat="45.9586227" lon="11.5490905"><ele>1617.3333333333335</ele><time>2026-05-01T10:17:54.569Z</time></trkpt><trkpt lat="45.9585699" lon="11.5491448"><ele>1617.1666666666667</ele><time>2026-05-01T10:17:55.595Z</time></trkpt><trkpt lat="45.9584706" lon="11.5492489"><ele>1617.0</ele><time>2026-05-01T10:17:57.57Z</time></trkpt><trkpt lat="45.9584156" lon="11.5493138"><ele>1616.3333333333333</ele><time>2026-05-01T10:17:58.576Z</time></trkpt><trkpt lat="45.9583613" lon="11.5493814"><ele>1615.6666666666665</ele><time>2026-05-01T10:17:59.584Z</time></trkpt><trkpt lat="45.9583085" lon="11.5494451"><ele>1615.0</ele><time>2026-05-01T10:18:00.574Z</time></trkpt><trkpt lat="45.9582447" lon="11.5495226"><ele>1614.3333333333333</ele><time>2026-05-01T10:18:01.581Z</time></trkpt><trkpt lat="45.9581723" lon="11.5496114"><ele>1613.6666666666665</ele><time>2026-05-01T10:18:02.586Z</time></trkpt><trkpt lat="45.9581008" lon="11.5497101"><ele>1613.0</ele><time>2026-05-01T10:18:03.576Z</time></trkpt><trkpt lat="45.9580383" lon="11.5498064"><ele>1612.9999999999998</ele><time>2026-05-01T10:18:04.577Z</time></trkpt><trkpt lat="45.9579873" lon="11.5498898"><ele>1613.0</ele><time>2026-05-01T10:18:05.572Z</time></trkpt><trkpt lat="45.9579373" lon="11.549965"><ele>1613.0</ele><time>2026-05-01T10:18:06.577Z</time></trkpt><trkpt lat="45.9578786" lon="11.550045"><ele>1613.0</ele><time>2026-05-01T10:18:07.581Z</time></trkpt><trkpt lat="45.9578186" lon="11.5501269"><ele>1612.9999999999998</ele><time>2026-05-01T10:18:08.579Z</time></trkpt><trkpt lat="45.9577464" lon="11.5502152"><ele>1613.0</ele><time>2026-05-01T10:18:09.575Z</time></trkpt><trkpt lat="45.9576758" lon="11.5502971"><ele>1613.0</ele><time>2026-05-01T10:18:10.574Z</time></trkpt><trkpt lat="45.9575982" lon="11.5503703"><ele>1613.0</ele><time>2026-05-01T10:18:11.576Z</time></trkpt><trkpt lat="45.9575236" lon="11.5504489"><ele>1613.0</ele><time>2026-05-01T10:18:12.576Z</time></trkpt><trkpt lat="45.9574552" lon="11.5505391"><ele>1613.0</ele><time>2026-05-01T10:18:13.575Z</time></trkpt><trkpt lat="45.9573969" lon="11.550642"><ele>1613.0</ele><time>2026-05-01T10:18:14.563Z</time></trkpt><trkpt lat="45.9573392" lon="11.5507503"><ele>1612.4</ele><time>2026-05-01T10:18:15.577Z</time></trkpt><trkpt lat="45.9572778" lon="11.5508555"><ele>1611.8000000000002</ele><time>2026-05-01T10:18:16.579Z</time></trkpt><trkpt lat="45.9572138" lon="11.5509587"><ele>1611.2</ele><time>2026-05-01T10:18:17.569Z</time></trkpt><trkpt lat="45.9571523" lon="11.5510548"><ele>1610.6</ele><time>2026-05-01T10:18:18.574Z</time></trkpt><trkpt lat="45.9570916" lon="11.5511508"><ele>1610.0</ele><time>2026-05-01T10:18:19.577Z</time></trkpt><trkpt lat="45.957039" lon="11.551244"><ele>1608.6666666666665</ele><time>2026-05-01T10:18:20.577Z</time></trkpt><trkpt lat="45.9570057" lon="11.5513347"><ele>1607.3333333333333</ele><time>2026-05-01T10:18:21.578Z</time></trkpt><trkpt lat="45.9569753" lon="11.5514198"><ele>1606.0</ele><time>2026-05-01T10:18:22.575Z</time></trkpt><trkpt lat="45.9569972" lon="11.5515881"><ele>1604.6666666666665</ele><time>2026-05-01T10:18:24.574Z</time></trkpt><trkpt lat="45.9570783" lon="11.5517099"><ele>1603.3333333333333</ele><time>2026-05-01T10:18:26.568Z</time></trkpt><trkpt lat="45.957143" lon="11.5517567"><ele>1602.0</ele><time>2026-05-01T10:18:27.576Z</time></trkpt><trkpt lat="45.9572123" lon="11.5517846"><ele>1602.0</ele><time>2026-05-01T10:18:28.575Z</time></trkpt><trkpt lat="45.9572747" lon="11.5518024"><ele>1602.0</ele><time>2026-05-01T10:18:29.573Z</time></trkpt><trkpt lat="45.9573015" lon="11.5519474"><ele>1602.0</ele><time>2026-05-01T10:18:31.574Z</time></trkpt><trkpt lat="45.9572543" lon="11.552113"><ele>1602.0</ele><time>2026-05-01T10:18:33.564Z</time></trkpt><trkpt lat="45.9572056" lon="11.5522072"><ele>1602.0</ele><time>2026-05-01T10:18:34.574Z</time></trkpt><trkpt lat="45.9571548" lon="11.5523031"><ele>1601.6666666666667</ele><time>2026-05-01T10:18:35.573Z</time></trkpt><trkpt lat="45.9571102" lon="11.5524034"><ele>1601.3333333333335</ele><time>2026-05-01T10:18:36.577Z</time></trkpt><trkpt lat="45.9570902" lon="11.55253"><ele>1601.0</ele><time>2026-05-01T10:18:37.577Z</time></trkpt><trkpt lat="45.9570712" lon="11.5526509"><ele>1600.6666666666667</ele><time>2026-05-01T10:18:38.576Z</time></trkpt><trkpt lat="45.9570598" lon="11.5527693"><ele>1600.3333333333335</ele><time>2026-05-01T10:18:39.578Z</time></trkpt><trkpt lat="45.9570467" lon="11.5528828"><ele>1600.0</ele><time>2026-05-01T10:18:40.572Z</time></trkpt><trkpt lat="45.9570279" lon="11.5529936"><ele>1599.2857142857144</ele><time>2026-05-01T10:18:41.575Z</time></trkpt><trkpt lat="45.9570156" lon="11.5530943"><ele>1598.5714285714287</ele><time>2026-05-01T10:18:42.58Z</time></trkpt><trkpt lat="45.9570205" lon="11.5531871"><ele>1597.857142857143</ele><time>2026-05-01T10:18:43.574Z</time></trkpt><trkpt lat="45.9570431" lon="11.5532799"><ele>1597.1428571428573</ele><time>2026-05-01T10:18:44.595Z</time></trkpt><trkpt lat="45.9570794" lon="11.5533737"><ele>1596.4285714285713</ele><time>2026-05-01T10:18:45.579Z</time></trkpt><trkpt lat="45.9571187" lon="11.5534645"><ele>1595.7142857142858</ele><time>2026-05-01T10:18:46.572Z</time></trkpt><trkpt lat="45.9571442" lon="11.5535511"><ele>1595.0</ele><time>2026-05-01T10:18:47.572Z</time></trkpt><trkpt lat="45.9571518" lon="11.5536412"><ele>1593.4</ele><time>2026-05-01T10:18:48.572Z</time></trkpt><trkpt lat="45.9571381" lon="11.5538099"><ele>1591.8</ele><time>2026-05-01T10:18:50.583Z</time></trkpt><trkpt lat="45.9571262" lon="11.5539523"><ele>1590.1999999999998</ele><time>2026-05-01T10:18:52.562Z</time></trkpt><trkpt lat="45.9571328" lon="11.554048"><ele>1588.6</ele><time>2026-05-01T10:18:54.59Z</time></trkpt><trkpt lat="45.9571409" lon="11.5541616"><ele>1587.0</ele><time>2026-05-01T10:19:29.56Z</time></trkpt><trkpt lat="45.9571448" lon="11.5543142"><ele>1587.0</ele><time>2026-05-01T10:19:31.548Z</time></trkpt><trkpt lat="45.9571309" lon="11.5544094"><ele>1587.0</ele><time>2026-05-01T10:19:32.555Z</time></trkpt><trkpt lat="45.9571084" lon="11.5545096"><ele>1587.0</ele><time>2026-05-01T10:19:33.551Z</time></trkpt><trkpt lat="45.9570872" lon="11.5546207"><ele>1587.0</ele><time>2026-05-01T10:19:34.549Z</time></trkpt><trkpt lat="45.9570766" lon="11.5547357"><ele>1587.0</ele><time>2026-05-01T10:19:35.544Z</time></trkpt><trkpt lat="45.9570794" lon="11.5548405"><ele>1587.0</ele><time>2026-05-01T10:19:36.553Z</time></trkpt><trkpt lat="45.9570991" lon="11.5549305"><ele>1587.0</ele><time>2026-05-01T10:19:37.554Z</time></trkpt><trkpt lat="45.9571878" lon="11.5550422"><ele>1586.3333333333333</ele><time>2026-05-01T10:19:39.547Z</time></trkpt><trkpt lat="45.9572569" lon="11.5550465"><ele>1585.6666666666665</ele><time>2026-05-01T10:19:40.561Z</time></trkpt><trkpt lat="45.9573399" lon="11.555018"><ele>1585.0</ele><time>2026-05-01T10:19:41.549Z</time></trkpt><trkpt lat="45.9574328" lon="11.5549623"><ele>1584.3333333333333</ele><time>2026-05-01T10:19:42.553Z</time></trkpt><trkpt lat="45.9575252" lon="11.5549061"><ele>1583.6666666666665</ele><time>2026-05-01T10:19:43.549Z</time></trkpt><trkpt lat="45.9576039" lon="11.554851"><ele>1583.0</ele><time>2026-05-01T10:19:44.553Z</time></trkpt><trkpt lat="45.9577074" lon="11.5548024"><ele>1583.0</ele><time>2026-05-01T10:19:46.557Z</time></trkpt><trkpt lat="45.9577844" lon="11.5548506"><ele>1583.0</ele><time>2026-05-01T10:19:48.552Z</time></trkpt><trkpt lat="45.9578821" lon="11.5549916"><ele>1583.0</ele><time>2026-05-01T10:19:50.552Z</time></trkpt><trkpt lat="45.9579152" lon="11.5551144"><ele>1583.0</ele><time>2026-05-01T10:19:51.559Z</time></trkpt><trkpt lat="45.9579309" lon="11.5552351"><ele>1583.0</ele><time>2026-05-01T10:19:52.549Z</time></trkpt><trkpt lat="45.9579486" lon="11.5553309"><ele>1582.1666666666665</ele><time>2026-05-01T10:19:53.551Z</time></trkpt><trkpt lat="45.9579964" lon="11.5554764"><ele>1581.3333333333333</ele><time>2026-05-01T10:19:55.551Z</time></trkpt><trkpt lat="45.9580668" lon="11.5555427"><ele>1580.5</ele><time>2026-05-01T10:19:57.551Z</time></trkpt><trkpt lat="45.9581335" lon="11.5555373"><ele>1579.6666666666665</ele><time>2026-05-01T10:19:58.557Z</time></trkpt><trkpt lat="45.9582145" lon="11.5555529"><ele>1578.8333333333333</ele><time>2026-05-01T10:19:59.551Z</time></trkpt><trkpt lat="45.9583049" lon="11.5555683"><ele>1578.0</ele><time>2026-05-01T10:20:00.554Z</time></trkpt><trkpt lat="45.9583955" lon="11.5555607"><ele>1578.6666666666667</ele><time>2026-05-01T10:20:01.55Z</time></trkpt><trkpt lat="45.9584811" lon="11.5555495"><ele>1579.3333333333335</ele><time>2026-05-01T10:20:02.556Z</time></trkpt><trkpt lat="45.9585622" lon="11.5555007"><ele>1580.0</ele><time>2026-05-01T10:20:03.549Z</time></trkpt><trkpt lat="45.9586396" lon="11.555426"><ele>1580.6666666666667</ele><time>2026-05-01T10:20:04.556Z</time></trkpt><trkpt lat="45.9587158" lon="11.5553696"><ele>1581.3333333333335</ele><time>2026-05-01T10:20:05.547Z</time></trkpt><trkpt lat="45.9587866" lon="11.5553267"><ele>1582.0</ele><time>2026-05-01T10:20:06.549Z</time></trkpt><trkpt lat="45.9589" lon="11.5553285"><ele>1580.1666666666667</ele><time>2026-05-01T10:20:08.547Z</time></trkpt><trkpt lat="45.9589719" lon="11.5553791"><ele>1578.3333333333335</ele><time>2026-05-01T10:20:09.546Z</time></trkpt><trkpt lat="45.9590289" lon="11.5554439"><ele>1576.5</ele><time>2026-05-01T10:20:10.553Z</time></trkpt><trkpt lat="45.9590795" lon="11.5555138"><ele>1574.6666666666665</ele><time>2026-05-01T10:20:11.548Z</time></trkpt><trkpt lat="45.959191" lon="11.5555916"><ele>1572.8333333333333</ele><time>2026-05-01T10:20:13.543Z</time></trkpt><trkpt lat="45.9592802" lon="11.5555748"><ele>1571.0</ele><time>2026-05-01T10:20:14.553Z</time></trkpt><trkpt lat="45.9593912" lon="11.5555441"><ele>1570.75</ele><time>2026-05-01T10:20:15.552Z</time></trkpt><trkpt lat="45.9595078" lon="11.5555107"><ele>1570.5</ele><time>2026-05-01T10:20:16.554Z</time></trkpt><trkpt lat="45.9596331" lon="11.555476"><ele>1570.25</ele><time>2026-05-01T10:20:17.559Z</time></trkpt><trkpt lat="45.9597649" lon="11.5554411"><ele>1570.0</ele><time>2026-05-01T10:20:18.554Z</time></trkpt><trkpt lat="45.9598966" lon="11.5553774"><ele>1570.6</ele><time>2026-05-01T10:20:19.552Z</time></trkpt><trkpt lat="45.9600112" lon="11.5553163"><ele>1571.2</ele><time>2026-05-01T10:20:20.55Z</time></trkpt><trkpt lat="45.9601162" lon="11.555263"><ele>1571.8000000000002</ele><time>2026-05-01T10:20:21.55Z</time></trkpt><trkpt lat="45.9602009" lon="11.5552108"><ele>1572.4</ele><time>2026-05-01T10:20:22.556Z</time></trkpt><trkpt lat="45.9602717" lon="11.5551236"><ele>1573.0</ele><time>2026-05-01T10:20:23.55Z</time></trkpt><trkpt lat="45.9603291" lon="11.5550115"><ele>1573.0</ele><time>2026-05-01T10:20:24.551Z</time></trkpt><trkpt lat="45.9603948" lon="11.5549085"><ele>1573.0</ele><time>2026-05-01T10:20:25.552Z</time></trkpt><trkpt lat="45.9604712" lon="11.5548326"><ele>1573.0</ele><time>2026-05-01T10:20:26.555Z</time></trkpt><trkpt lat="45.960568" lon="11.5547691"><ele>1573.0</ele><time>2026-05-01T10:20:27.548Z</time></trkpt><trkpt lat="45.9606794" lon="11.5547162"><ele>1573.0</ele><time>2026-05-01T10:20:28.551Z</time></trkpt><trkpt lat="45.9607813" lon="11.5546646"><ele>1573.8000000000002</ele><time>2026-05-01T10:20:29.552Z</time></trkpt><trkpt lat="45.9608685" lon="11.554612"><ele>1574.6</ele><time>2026-05-01T10:20:30.551Z</time></trkpt><trkpt lat="45.9609522" lon="11.5545607"><ele>1575.4</ele><time>2026-05-01T10:20:31.559Z</time></trkpt><trkpt lat="45.9610351" lon="11.554516"><ele>1576.1999999999998</ele><time>2026-05-01T10:20:32.549Z</time></trkpt><trkpt lat="45.9611235" lon="11.5544816"><ele>1577.0</ele><time>2026-05-01T10:20:33.547Z</time></trkpt><trkpt lat="45.9612095" lon="11.5544527"><ele>1577.0</ele><time>2026-05-01T10:20:34.558Z</time></trkpt><trkpt lat="45.9612922" lon="11.5544229"><ele>1577.0</ele><time>2026-05-01T10:20:35.557Z</time></trkpt><trkpt lat="45.9613737" lon="11.5544"><ele>1577.0</ele><time>2026-05-01T10:20:36.555Z</time></trkpt><trkpt lat="45.9615079" lon="11.5543908"><ele>1577.0</ele><time>2026-05-01T10:20:38.552Z</time></trkpt><trkpt lat="45.9615807" lon="11.5543948"><ele>1577.0</ele><time>2026-05-01T10:20:39.597Z</time></trkpt><trkpt lat="45.961655" lon="11.5544031"><ele>1576.7142857142858</ele><time>2026-05-01T10:20:40.549Z</time></trkpt><trkpt lat="45.9617289" lon="11.5544047"><ele>1576.4285714285713</ele><time>2026-05-01T10:20:41.553Z</time></trkpt><trkpt lat="45.9617993" lon="11.5543746"><ele>1576.142857142857</ele><time>2026-05-01T10:20:42.552Z</time></trkpt><trkpt lat="45.9618779" lon="11.5543381"><ele>1575.857142857143</ele><time>2026-05-01T10:20:43.556Z</time></trkpt><trkpt lat="45.961951" lon="11.5543068"><ele>1575.5714285714284</ele><time>2026-05-01T10:20:44.551Z</time></trkpt><trkpt lat="45.9620207" lon="11.55429"><ele>1575.2857142857142</ele><time>2026-05-01T10:20:45.562Z</time></trkpt><trkpt lat="45.9620873" lon="11.5542713"><ele>1575.0</ele><time>2026-05-01T10:20:46.556Z</time></trkpt><trkpt lat="45.9621496" lon="11.554257"><ele>1575.0</ele><time>2026-05-01T10:20:47.556Z</time></trkpt><trkpt lat="45.9622168" lon="11.5542376"><ele>1575.0</ele><time>2026-05-01T10:20:48.55Z</time></trkpt><trkpt lat="45.9622902" lon="11.5542143"><ele>1575.0</ele><time>2026-05-01T10:20:49.556Z</time></trkpt><trkpt lat="45.9623643" lon="11.5541999"><ele>1575.0</ele><time>2026-05-01T10:20:50.552Z</time></trkpt><trkpt lat="45.962438" lon="11.5541937"><ele>1575.0</ele><time>2026-05-01T10:20:51.553Z</time></trkpt><trkpt lat="45.9625113" lon="11.5541852"><ele>1575.0</ele><time>2026-05-01T10:20:52.56Z</time></trkpt><trkpt lat="45.9625772" lon="11.554185"><ele>1575.0</ele><time>2026-05-01T10:20:53.554Z</time></trkpt><trkpt lat="45.9626914" lon="11.5542323"><ele>1575.4</ele><time>2026-05-01T10:20:55.553Z</time></trkpt><trkpt lat="45.9627814" lon="11.5543527"><ele>1575.8</ele><time>2026-05-01T10:20:57.552Z</time></trkpt><trkpt lat="45.9628075" lon="11.5544579"><ele>1576.1999999999998</ele><time>2026-05-01T10:20:58.562Z</time></trkpt><trkpt lat="45.9628424" lon="11.554577"><ele>1576.6</ele><time>2026-05-01T10:20:59.555Z</time></trkpt><trkpt lat="45.9628777" lon="11.5546982"><ele>1577.0</ele><time>2026-05-01T10:21:00.554Z</time></trkpt><trkpt lat="45.9629328" lon="11.5548162"><ele>1575.6666666666665</ele><time>2026-05-01T10:21:01.552Z</time></trkpt><trkpt lat="45.9629993" lon="11.5549165"><ele>1574.3333333333333</ele><time>2026-05-01T10:21:02.56Z</time></trkpt><trkpt lat="45.9630748" lon="11.5549908"><ele>1573.0</ele><time>2026-05-01T10:21:03.555Z</time></trkpt><trkpt lat="45.9631607" lon="11.5550456"><ele>1571.6666666666665</ele><time>2026-05-01T10:21:04.552Z</time></trkpt><trkpt lat="45.9632425" lon="11.5550906"><ele>1570.3333333333333</ele><time>2026-05-01T10:21:05.557Z</time></trkpt><trkpt lat="45.9633107" lon="11.5551461"><ele>1569.0</ele><time>2026-05-01T10:21:06.556Z</time></trkpt><trkpt lat="45.9633647" lon="11.5552275"><ele>1568.6666666666667</ele><time>2026-05-01T10:21:07.553Z</time></trkpt><trkpt lat="45.9634167" lon="11.5553023"><ele>1568.3333333333335</ele><time>2026-05-01T10:21:08.56Z</time></trkpt><trkpt lat="45.9634755" lon="11.5553459"><ele>1568.0</ele><time>2026-05-01T10:21:09.552Z</time></trkpt><trkpt lat="45.963565" lon="11.5553438"><ele>1567.6666666666667</ele><time>2026-05-01T10:21:10.552Z</time></trkpt><trkpt lat="45.9636464" lon="11.5553369"><ele>1567.3333333333335</ele><time>2026-05-01T10:21:11.586Z</time></trkpt><trkpt lat="45.9637289" lon="11.5553288"><ele>1567.0</ele><time>2026-05-01T10:21:12.565Z</time></trkpt><trkpt lat="45.963819" lon="11.5553112"><ele>1567.0000000000002</ele><time>2026-05-01T10:21:13.559Z</time></trkpt><trkpt lat="45.9639097" lon="11.5552999"><ele>1567.0</ele><time>2026-05-01T10:21:14.56Z</time></trkpt><trkpt lat="45.9639937" lon="11.5552806"><ele>1567.0</ele><time>2026-05-01T10:21:15.555Z</time></trkpt><trkpt lat="45.9640673" lon="11.5552381"><ele>1567.0</ele><time>2026-05-01T10:21:16.575Z</time></trkpt><trkpt lat="45.9641366" lon="11.5551751"><ele>1567.0000000000002</ele><time>2026-05-01T10:21:17.556Z</time></trkpt><trkpt lat="45.9641981" lon="11.5551095"><ele>1567.0</ele><time>2026-05-01T10:21:18.558Z</time></trkpt><trkpt lat="45.9642608" lon="11.5550548"><ele>1566.3333333333335</ele><time>2026-05-01T10:21:19.559Z</time></trkpt><trkpt lat="45.9643185" lon="11.5550047"><ele>1565.6666666666667</ele><time>2026-05-01T10:21:20.564Z</time></trkpt><trkpt lat="45.9643875" lon="11.5550067"><ele>1565.0</ele><time>2026-05-01T10:21:21.561Z</time></trkpt><trkpt lat="45.9644548" lon="11.5550426"><ele>1564.3333333333335</ele><time>2026-05-01T10:21:22.559Z</time></trkpt><trkpt lat="45.9645177" lon="11.5551202"><ele>1563.6666666666667</ele><time>2026-05-01T10:21:23.553Z</time></trkpt><trkpt lat="45.964578" lon="11.5552165"><ele>1563.0</ele><time>2026-05-01T10:21:24.564Z</time></trkpt><trkpt lat="45.9646421" lon="11.5552854"><ele>1563.0</ele><time>2026-05-01T10:21:25.561Z</time></trkpt><trkpt lat="45.9647085" lon="11.5553579"><ele>1563.0</ele><time>2026-05-01T10:21:26.565Z</time></trkpt><trkpt lat="45.9647981" lon="11.5553809"><ele>1563.0</ele><time>2026-05-01T10:21:27.558Z</time></trkpt><trkpt lat="45.9648923" lon="11.5554075"><ele>1563.0</ele><time>2026-05-01T10:21:28.563Z</time></trkpt><trkpt lat="45.9649903" lon="11.5554655"><ele>1563.0</ele><time>2026-05-01T10:21:29.56Z</time></trkpt><trkpt lat="45.9650824" lon="11.5555482"><ele>1562.0</ele><time>2026-05-01T10:21:30.563Z</time></trkpt><trkpt lat="45.9651677" lon="11.5556517"><ele>1561.0</ele><time>2026-05-01T10:21:31.579Z</time></trkpt><trkpt lat="45.9652495" lon="11.5557526"><ele>1560.0</ele><time>2026-05-01T10:21:32.566Z</time></trkpt><trkpt lat="45.9653135" lon="11.5558832"><ele>1559.0</ele><time>2026-05-01T10:21:33.558Z</time></trkpt><trkpt lat="45.9653751" lon="11.5560127"><ele>1558.0</ele><time>2026-05-01T10:21:34.566Z</time></trkpt><trkpt lat="45.9654417" lon="11.5561476"><ele>1557.6000000000001</ele><time>2026-05-01T10:21:35.559Z</time></trkpt><trkpt lat="45.9655223" lon="11.5562604"><ele>1557.2</ele><time>2026-05-01T10:21:36.556Z</time></trkpt><trkpt lat="45.965609" lon="11.5563657"><ele>1556.8</ele><time>2026-05-01T10:21:37.553Z</time></trkpt><trkpt lat="45.9656946" lon="11.556469"><ele>1556.4</ele><time>2026-05-01T10:21:38.557Z</time></trkpt><trkpt lat="45.9657741" lon="11.5565664"><ele>1556.0</ele><time>2026-05-01T10:21:39.558Z</time></trkpt><trkpt lat="45.9658527" lon="11.556659"><ele>1556.3333333333333</ele><time>2026-05-01T10:21:40.57Z</time></trkpt><trkpt lat="45.9659216" lon="11.5567465"><ele>1556.6666666666665</ele><time>2026-05-01T10:21:41.557Z</time></trkpt><trkpt lat="45.9659814" lon="11.5568391"><ele>1557.0</ele><time>2026-05-01T10:21:42.559Z</time></trkpt><trkpt lat="45.9660348" lon="11.556934"><ele>1557.3333333333335</ele><time>2026-05-01T10:21:43.564Z</time></trkpt><trkpt lat="45.9660656" lon="11.5570307"><ele>1557.6666666666667</ele><time>2026-05-01T10:21:44.559Z</time></trkpt><trkpt lat="45.966077" lon="11.5571485"><ele>1558.0</ele><time>2026-05-01T10:21:45.56Z</time></trkpt><trkpt lat="45.9660601" lon="11.5572708"><ele>1558.1666666666667</ele><time>2026-05-01T10:21:46.56Z</time></trkpt><trkpt lat="45.9660204" lon="11.5573971"><ele>1558.3333333333335</ele><time>2026-05-01T10:21:47.559Z</time></trkpt><trkpt lat="45.9659652" lon="11.5575005"><ele>1558.5</ele><time>2026-05-01T10:21:48.558Z</time></trkpt><trkpt lat="45.9659054" lon="11.5575761"><ele>1558.6666666666665</ele><time>2026-05-01T10:21:49.557Z</time></trkpt><trkpt lat="45.9658467" lon="11.5576388"><ele>1558.8333333333333</ele><time>2026-05-01T10:21:50.569Z</time></trkpt><trkpt lat="45.9657931" lon="11.557693"><ele>1559.0</ele><time>2026-05-01T10:21:51.57Z</time></trkpt><trkpt lat="45.9656918" lon="11.5577958"><ele>1559.4</ele><time>2026-05-01T10:21:53.564Z</time></trkpt><trkpt lat="45.9656306" lon="11.5578729"><ele>1559.8000000000002</ele><time>2026-05-01T10:21:54.555Z</time></trkpt><trkpt lat="45.9655791" lon="11.5579919"><ele>1560.1999999999998</ele><time>2026-05-01T10:21:55.558Z</time></trkpt><trkpt lat="45.965528" lon="11.5581215"><ele>1560.6</ele><time>2026-05-01T10:21:56.573Z</time></trkpt><trkpt lat="45.9654737" lon="11.5582615"><ele>1561.0</ele><time>2026-05-01T10:21:57.563Z</time></trkpt><trkpt lat="45.9654176" lon="11.558404"><ele>1561.0</ele><time>2026-05-01T10:21:58.556Z</time></trkpt><trkpt lat="45.9653648" lon="11.558537"><ele>1561.0</ele><time>2026-05-01T10:21:59.563Z</time></trkpt><trkpt lat="45.965322" lon="11.5586761"><ele>1561.0</ele><time>2026-05-01T10:22:00.563Z</time></trkpt><trkpt lat="45.9652897" lon="11.5588257"><ele>1561.0</ele><time>2026-05-01T10:22:01.557Z</time></trkpt><trkpt lat="45.9652645" lon="11.5589788"><ele>1561.0</ele><time>2026-05-01T10:22:02.59Z</time></trkpt><trkpt lat="45.9652489" lon="11.5591342"><ele>1561.25</ele><time>2026-05-01T10:22:03.555Z</time></trkpt><trkpt lat="45.9652449" lon="11.5592975"><ele>1561.5</ele><time>2026-05-01T10:22:04.559Z</time></trkpt><trkpt lat="45.9652503" lon="11.5594623"><ele>1561.75</ele><time>2026-05-01T10:22:05.561Z</time></trkpt><trkpt lat="45.9652608" lon="11.5596258"><ele>1562.0</ele><time>2026-05-01T10:22:06.565Z</time></trkpt><trkpt lat="45.9652727" lon="11.5597889"><ele>1562.0</ele><time>2026-05-01T10:22:07.562Z</time></trkpt><trkpt lat="45.9652871" lon="11.5599487"><ele>1562.0</ele><time>2026-05-01T10:22:08.569Z</time></trkpt><trkpt lat="45.9653012" lon="11.5601094"><ele>1562.0</ele><time>2026-05-01T10:22:09.557Z</time></trkpt><trkpt lat="45.9653138" lon="11.5602686"><ele>1562.0</ele><time>2026-05-01T10:22:10.565Z</time></trkpt><trkpt lat="45.9653267" lon="11.5604309"><ele>1562.0</ele><time>2026-05-01T10:22:11.557Z</time></trkpt><trkpt lat="45.9653432" lon="11.5605924"><ele>1561.1999999999998</ele><time>2026-05-01T10:22:12.565Z</time></trkpt><trkpt lat="45.9653659" lon="11.5607424"><ele>1560.4</ele><time>2026-05-01T10:22:13.561Z</time></trkpt><trkpt lat="45.965404" lon="11.5608869"><ele>1559.6</ele><time>2026-05-01T10:22:14.565Z</time></trkpt><trkpt lat="45.9654501" lon="11.5610249"><ele>1558.8000000000002</ele><time>2026-05-01T10:22:15.562Z</time></trkpt><trkpt lat="45.9654993" lon="11.5611679"><ele>1558.0</ele><time>2026-05-01T10:22:16.565Z</time></trkpt><trkpt lat="45.9655476" lon="11.5613086"><ele>1558.0</ele><time>2026-05-01T10:22:17.559Z</time></trkpt><trkpt lat="45.965595" lon="11.5614502"><ele>1558.0</ele><time>2026-05-01T10:22:18.601Z</time></trkpt><trkpt lat="45.9656373" lon="11.5615865"><ele>1558.0</ele><time>2026-05-01T10:22:19.558Z</time></trkpt><trkpt lat="45.965681" lon="11.5617243"><ele>1558.0</ele><time>2026-05-01T10:22:20.56Z</time></trkpt><trkpt lat="45.9657335" lon="11.5618526"><ele>1558.0</ele><time>2026-05-01T10:22:21.562Z</time></trkpt><trkpt lat="45.9657972" lon="11.5619756"><ele>1558.6000000000001</ele><time>2026-05-01T10:22:22.56Z</time></trkpt><trkpt lat="45.9658711" lon="11.5620919"><ele>1559.2</ele><time>2026-05-01T10:22:23.56Z</time></trkpt><trkpt lat="45.9659544" lon="11.5622041"><ele>1559.8</ele><time>2026-05-01T10:22:24.563Z</time></trkpt><trkpt lat="45.9660394" lon="11.5623168"><ele>1560.4</ele><time>2026-05-01T10:22:25.569Z</time></trkpt><trkpt lat="45.9661206" lon="11.5624238"><ele>1561.0</ele><time>2026-05-01T10:22:26.56Z</time></trkpt><trkpt lat="45.9661884" lon="11.5625079"><ele>1561.0</ele><time>2026-05-01T10:22:27.558Z</time></trkpt><trkpt lat="45.9662578" lon="11.562583"><ele>1561.0</ele><time>2026-05-01T10:22:28.568Z</time></trkpt><trkpt lat="45.9663351" lon="11.5626512"><ele>1561.0</ele><time>2026-05-01T10:22:29.559Z</time></trkpt><trkpt lat="45.9664151" lon="11.562721"><ele>1561.0</ele><time>2026-05-01T10:22:30.551Z</time></trkpt><trkpt lat="45.966506" lon="11.5627795"><ele>1561.0</ele><time>2026-05-01T10:22:31.559Z</time></trkpt><trkpt lat="45.9665921" lon="11.5628389"><ele>1560.0</ele><time>2026-05-01T10:22:32.563Z</time></trkpt><trkpt lat="45.9666806" lon="11.5629207"><ele>1559.0</ele><time>2026-05-01T10:22:33.561Z</time></trkpt><trkpt lat="45.9667761" lon="11.5630031"><ele>1558.0</ele><time>2026-05-01T10:22:34.555Z</time></trkpt><trkpt lat="45.9668631" lon="11.5631022"><ele>1557.0</ele><time>2026-05-01T10:22:35.556Z</time></trkpt><trkpt lat="45.9669485" lon="11.5632186"><ele>1556.0</ele><time>2026-05-01T10:22:36.562Z</time></trkpt><trkpt lat="45.9670277" lon="11.5633419"><ele>1556.0</ele><time>2026-05-01T10:22:37.556Z</time></trkpt><trkpt lat="45.9671115" lon="11.5634697"><ele>1556.0</ele><time>2026-05-01T10:22:38.555Z</time></trkpt><trkpt lat="45.9671924" lon="11.5636029"><ele>1556.0</ele><time>2026-05-01T10:22:39.565Z</time></trkpt><trkpt lat="45.9672685" lon="11.5637368"><ele>1556.0</ele><time>2026-05-01T10:22:40.563Z</time></trkpt><trkpt lat="45.9673422" lon="11.5638659"><ele>1555.1999999999998</ele><time>2026-05-01T10:22:41.553Z</time></trkpt><trkpt lat="45.9674138" lon="11.5639835"><ele>1554.3999999999999</ele><time>2026-05-01T10:22:42.561Z</time></trkpt><trkpt lat="45.9674813" lon="11.5641004"><ele>1553.6</ele><time>2026-05-01T10:22:43.567Z</time></trkpt><trkpt lat="45.9675448" lon="11.564217"><ele>1552.8</ele><time>2026-05-01T10:22:44.565Z</time></trkpt><trkpt lat="45.9676093" lon="11.5643344"><ele>1552.0</ele><time>2026-05-01T10:22:45.561Z</time></trkpt><trkpt lat="45.9676729" lon="11.5644466"><ele>1552.0</ele><time>2026-05-01T10:22:46.561Z</time></trkpt><trkpt lat="45.9677335" lon="11.564554"><ele>1551.0</ele><time>2026-05-01T10:22:47.562Z</time></trkpt><trkpt lat="45.9677902" lon="11.5646507"><ele>1551.0</ele><time>2026-05-01T10:22:48.567Z</time></trkpt><trkpt lat="45.9678518" lon="11.5647323"><ele>1551.0</ele><time>2026-05-01T10:22:49.562Z</time></trkpt><trkpt lat="45.967926" lon="11.564798"><ele>1551.0</ele><time>2026-05-01T10:22:50.556Z</time></trkpt><trkpt lat="45.9680135" lon="11.564847"><ele>1551.0</ele><time>2026-05-01T10:22:51.557Z</time></trkpt></trkseg><trkseg><trkpt lat="45.9577368" lon="11.6295927"><ele>1452.75</ele><time>2026-05-01T11:20:10.186Z</time></trkpt><trkpt lat="45.9577087" lon="11.6293647"><ele>1456.5</ele><time>2026-05-01T11:20:12.161Z</time></trkpt><trkpt lat="45.9577331" lon="11.6292511"><ele>1460.25</ele><time>2026-05-01T11:20:13.177Z</time></trkpt><trkpt lat="45.9576774" lon="11.6290139"><ele>1464.0</ele><time>2026-05-01T11:20:14.563Z</time></trkpt><trkpt lat="45.9576571" lon="11.6288417"><ele>1464.0</ele><time>2026-05-01T11:20:15.58Z</time></trkpt><trkpt lat="45.9576446" lon="11.628711"><ele>1464.0</ele><time>2026-05-01T11:20:16.58Z</time></trkpt><trkpt lat="45.9576339" lon="11.6286082"><ele>1464.0</ele><time>2026-05-01T11:20:17.588Z</time></trkpt><trkpt lat="45.95761" lon="11.6285225"><ele>1464.0</ele><time>2026-05-01T11:20:18.589Z</time></trkpt><trkpt lat="45.9575602" lon="11.628451"><ele>1464.0</ele><time>2026-05-01T11:20:19.613Z</time></trkpt><trkpt lat="45.9574892" lon="11.6284203"><ele>1464.0</ele><time>2026-05-01T11:20:20.614Z</time></trkpt><trkpt lat="45.957404" lon="11.6284378"><ele>1465.0</ele><time>2026-05-01T11:20:21.613Z</time></trkpt><trkpt lat="45.9573149" lon="11.6284741"><ele>1466.0</ele><time>2026-05-01T11:20:22.615Z</time></trkpt><trkpt lat="45.9572354" lon="11.6285016"><ele>1467.0</ele><time>2026-05-01T11:20:23.614Z</time></trkpt><trkpt lat="45.9571553" lon="11.6285279"><ele>1468.0</ele><time>2026-05-01T11:20:24.615Z</time></trkpt><trkpt lat="45.9570983" lon="11.6285905"><ele>1469.0</ele><time>2026-05-01T11:20:25.62Z</time></trkpt><trkpt lat="45.9570665" lon="11.6286857"><ele>1470.0</ele><time>2026-05-01T11:20:26.615Z</time></trkpt><trkpt lat="45.9570508" lon="11.6288274"><ele>1466.75</ele><time>2026-05-01T11:20:27.621Z</time></trkpt><trkpt lat="45.95705" lon="11.6290082"><ele>1463.5</ele><time>2026-05-01T11:20:28.617Z</time></trkpt><trkpt lat="45.9570452" lon="11.6291912"><ele>1460.25</ele><time>2026-05-01T11:20:29.624Z</time></trkpt><trkpt lat="45.9570382" lon="11.6293752"><ele>1457.0</ele><time>2026-05-01T11:20:30.636Z</time></trkpt><trkpt lat="45.957022" lon="11.6295536"><ele>1454.8</ele><time>2026-05-01T11:20:31.622Z</time></trkpt><trkpt lat="45.9570014" lon="11.6297219"><ele>1452.6</ele><time>2026-05-01T11:20:32.63Z</time></trkpt><trkpt lat="45.9569781" lon="11.6298805"><ele>1450.3999999999999</ele><time>2026-05-01T11:20:33.631Z</time></trkpt><trkpt lat="45.9569457" lon="11.6300222"><ele>1448.1999999999998</ele><time>2026-05-01T11:20:34.627Z</time></trkpt><trkpt lat="45.9568981" lon="11.6301551"><ele>1446.0</ele><time>2026-05-01T11:20:35.626Z</time></trkpt><trkpt lat="45.9568357" lon="11.6302882"><ele>1446.1999999999998</ele><time>2026-05-01T11:20:36.632Z</time></trkpt><trkpt lat="45.9567659" lon="11.6304257"><ele>1446.3999999999999</ele><time>2026-05-01T11:20:37.632Z</time></trkpt><trkpt lat="45.9567044" lon="11.630545"><ele>1446.6</ele><time>2026-05-01T11:20:38.636Z</time></trkpt><trkpt lat="45.9566481" lon="11.6306545"><ele>1446.8</ele><time>2026-05-01T11:20:39.637Z</time></trkpt><trkpt lat="45.9565887" lon="11.6307333"><ele>1447.0</ele><time>2026-05-01T11:20:40.64Z</time></trkpt><trkpt lat="45.9565246" lon="11.6307809"><ele>1447.0</ele><time>2026-05-01T11:20:41.633Z</time></trkpt><trkpt lat="45.9564527" lon="11.6307909"><ele>1447.0</ele><time>2026-05-01T11:20:42.633Z</time></trkpt><trkpt lat="45.9563811" lon="11.6307578"><ele>1447.0</ele><time>2026-05-01T11:20:43.637Z</time></trkpt><trkpt lat="45.9563142" lon="11.6306946"><ele>1447.0</ele><time>2026-05-01T11:20:44.632Z</time></trkpt><trkpt lat="45.9562428" lon="11.6305992"><ele>1447.0</ele><time>2026-05-01T11:20:45.634Z</time></trkpt><trkpt lat="45.9561623" lon="11.6304904"><ele>1447.0</ele><time>2026-05-01T11:20:46.634Z</time></trkpt><trkpt lat="45.956081" lon="11.6303534"><ele>1448.8</ele><time>2026-05-01T11:20:47.634Z</time></trkpt><trkpt lat="45.956008" lon="11.6302142"><ele>1450.6</ele><time>2026-05-01T11:20:48.629Z</time></trkpt><trkpt lat="45.9559408" lon="11.6300749"><ele>1452.3999999999999</ele><time>2026-05-01T11:20:49.63Z</time></trkpt><trkpt lat="45.955883" lon="11.6299538"><ele>1454.1999999999998</ele><time>2026-05-01T11:20:50.631Z</time></trkpt><trkpt lat="45.9558307" lon="11.6298451"><ele>1456.0</ele><time>2026-05-01T11:20:51.633Z</time></trkpt><trkpt lat="45.9557854" lon="11.6297601"><ele>1456.0</ele><time>2026-05-01T11:20:52.631Z</time></trkpt><trkpt lat="45.955676" lon="11.6296864"><ele>1456.0</ele><time>2026-05-01T11:20:54.631Z</time></trkpt><trkpt lat="45.9556146" lon="11.629731"><ele>1456.0</ele><time>2026-05-01T11:20:55.641Z</time></trkpt><trkpt lat="45.9555411" lon="11.6297913"><ele>1456.0</ele><time>2026-05-01T11:20:56.632Z</time></trkpt><trkpt lat="45.9554712" lon="11.6299068"><ele>1456.0</ele><time>2026-05-01T11:20:57.627Z</time></trkpt><trkpt lat="45.9554034" lon="11.6300249"><ele>1456.0</ele><time>2026-05-01T11:20:58.631Z</time></trkpt><trkpt lat="45.9553518" lon="11.6301152"><ele>1456.0</ele><time>2026-05-01T11:20:59.63Z</time></trkpt><trkpt lat="45.9552594" lon="11.6301934"><ele>1456.0</ele><time>2026-05-01T11:21:01.631Z</time></trkpt><trkpt lat="45.9551504" lon="11.6301462"><ele>1456.0</ele><time>2026-05-01T11:21:03.632Z</time></trkpt><trkpt lat="45.9550818" lon="11.6300671"><ele>1456.0</ele><time>2026-05-01T11:21:04.631Z</time></trkpt><trkpt lat="45.9550015" lon="11.6299749"><ele>1455.8</ele><time>2026-05-01T11:21:05.633Z</time></trkpt><trkpt lat="45.9549123" lon="11.6298688"><ele>1455.6</ele><time>2026-05-01T11:21:06.632Z</time></trkpt><trkpt lat="45.9548297" lon="11.6297701"><ele>1455.4</ele><time>2026-05-01T11:21:07.632Z</time></trkpt><trkpt lat="45.9547666" lon="11.629695"><ele>1455.2</ele><time>2026-05-01T11:21:08.637Z</time></trkpt><trkpt lat="45.954714" lon="11.629637"><ele>1455.0</ele><time>2026-05-01T11:21:09.636Z</time></trkpt><trkpt lat="45.954601" lon="11.6296004"><ele>1455.0</ele><time>2026-05-01T11:21:11.633Z</time></trkpt><trkpt lat="45.9545379" lon="11.6296021"><ele>1455.0</ele><time>2026-05-01T11:21:12.629Z</time></trkpt><trkpt lat="45.9544944" lon="11.6296857"><ele>1455.0</ele><time>2026-05-01T11:21:13.632Z</time></trkpt><trkpt lat="45.9544564" lon="11.6297805"><ele>1455.0</ele><time>2026-05-01T11:21:14.638Z</time></trkpt><trkpt lat="45.9544528" lon="11.6299288"><ele>1455.0</ele><time>2026-05-01T11:21:15.631Z</time></trkpt><trkpt lat="45.9544487" lon="11.6300957"><ele>1455.0</ele><time>2026-05-01T11:21:16.634Z</time></trkpt><trkpt lat="45.9544319" lon="11.6302589"><ele>1452.0</ele><time>2026-05-01T11:21:17.637Z</time></trkpt><trkpt lat="45.9544077" lon="11.6304213"><ele>1449.0</ele><time>2026-05-01T11:21:18.635Z</time></trkpt><trkpt lat="45.9543839" lon="11.6305792"><ele>1446.0</ele><time>2026-05-01T11:21:19.629Z</time></trkpt><trkpt lat="45.954357" lon="11.6307413"><ele>1443.0</ele><time>2026-05-01T11:21:20.631Z</time></trkpt><trkpt lat="45.9543318" lon="11.6309026"><ele>1443.0</ele><time>2026-05-01T11:21:21.635Z</time></trkpt><trkpt lat="45.954307" lon="11.6310497"><ele>1443.0</ele><time>2026-05-01T11:21:22.636Z</time></trkpt><trkpt lat="45.9542793" lon="11.6311823"><ele>1443.0</ele><time>2026-05-01T11:21:23.631Z</time></trkpt><trkpt lat="45.9542476" lon="11.631292"><ele>1443.0</ele><time>2026-05-01T11:21:24.633Z</time></trkpt><trkpt lat="45.9542193" lon="11.6313862"><ele>1443.0</ele><time>2026-05-01T11:21:25.634Z</time></trkpt><trkpt lat="45.9541283" lon="11.6314452"><ele>1442.8333333333333</ele><time>2026-05-01T11:21:27.635Z</time></trkpt><trkpt lat="45.9540217" lon="11.6314228"><ele>1442.6666666666667</ele><time>2026-05-01T11:21:29.629Z</time></trkpt><trkpt lat="45.9539629" lon="11.6313758"><ele>1442.5</ele><time>2026-05-01T11:21:30.64Z</time></trkpt><trkpt lat="45.9539011" lon="11.6313043"><ele>1442.3333333333335</ele><time>2026-05-01T11:21:31.633Z</time></trkpt><trkpt lat="45.9538366" lon="11.6312123"><ele>1442.1666666666667</ele><time>2026-05-01T11:21:32.633Z</time></trkpt><trkpt lat="45.9537697" lon="11.6310998"><ele>1442.0</ele><time>2026-05-01T11:21:33.635Z</time></trkpt><trkpt lat="45.9536999" lon="11.6309744"><ele>1444.6666666666667</ele><time>2026-05-01T11:21:34.638Z</time></trkpt><trkpt lat="45.9536373" lon="11.630861"><ele>1447.3333333333335</ele><time>2026-05-01T11:21:35.633Z</time></trkpt><trkpt lat="45.953582" lon="11.6307638"><ele>1450.0</ele><time>2026-05-01T11:21:36.637Z</time></trkpt><trkpt lat="45.9535332" lon="11.6306773"><ele>1452.6666666666667</ele><time>2026-05-01T11:21:37.631Z</time></trkpt><trkpt lat="45.9534713" lon="11.6306273"><ele>1455.3333333333333</ele><time>2026-05-01T11:21:38.632Z</time></trkpt><trkpt lat="45.9534041" lon="11.6306142"><ele>1458.0</ele><time>2026-05-01T11:21:39.63Z</time></trkpt><trkpt lat="45.9533251" lon="11.6306332"><ele>1458.0</ele><time>2026-05-01T11:21:40.629Z</time></trkpt><trkpt lat="45.9532389" lon="11.6306679"><ele>1458.0</ele><time>2026-05-01T11:21:41.634Z</time></trkpt><trkpt lat="45.9531643" lon="11.6306787"><ele>1458.0</ele><time>2026-05-01T11:21:42.634Z</time></trkpt><trkpt lat="45.9530802" lon="11.6306632"><ele>1458.0</ele><time>2026-05-01T11:21:43.635Z</time></trkpt><trkpt lat="45.9529931" lon="11.630645"><ele>1458.0</ele><time>2026-05-01T11:21:44.631Z</time></trkpt><trkpt lat="45.9529085" lon="11.6306339"><ele>1458.0</ele><time>2026-05-01T11:21:45.633Z</time></trkpt><trkpt lat="45.9528375" lon="11.6306565"><ele>1458.0</ele><time>2026-05-01T11:21:46.63Z</time></trkpt><trkpt lat="45.9527759" lon="11.6307096"><ele>1458.0</ele><time>2026-05-01T11:21:47.629Z</time></trkpt><trkpt lat="45.9527112" lon="11.6307704"><ele>1458.0</ele><time>2026-05-01T11:21:48.639Z</time></trkpt><trkpt lat="45.9526798" lon="11.6308958"><ele>1458.0</ele><time>2026-05-01T11:21:49.629Z</time></trkpt><trkpt lat="45.9526586" lon="11.6310504"><ele>1458.0</ele><time>2026-05-01T11:21:50.634Z</time></trkpt><trkpt lat="45.9526447" lon="11.6312121"><ele>1460.5</ele><time>2026-05-01T11:21:51.633Z</time></trkpt><trkpt lat="45.9526273" lon="11.6313823"><ele>1463.0</ele><time>2026-05-01T11:21:52.632Z</time></trkpt><trkpt lat="45.9525965" lon="11.6315486"><ele>1465.5</ele><time>2026-05-01T11:21:53.631Z</time></trkpt><trkpt lat="45.9525542" lon="11.6317021"><ele>1468.0</ele><time>2026-05-01T11:21:54.636Z</time></trkpt><trkpt lat="45.9525035" lon="11.6318325"><ele>1468.0</ele><time>2026-05-01T11:21:55.631Z</time></trkpt><trkpt lat="45.9524444" lon="11.6319387"><ele>1468.0</ele><time>2026-05-01T11:21:56.632Z</time></trkpt><trkpt lat="45.9523774" lon="11.6320199"><ele>1468.0</ele><time>2026-05-01T11:21:57.635Z</time></trkpt><trkpt lat="45.9522949" lon="11.6320817"><ele>1468.0</ele><time>2026-05-01T11:21:58.632Z</time></trkpt><trkpt lat="45.9522002" lon="11.632123"><ele>1468.0</ele><time>2026-05-01T11:21:59.63Z</time></trkpt><trkpt lat="45.9520976" lon="11.6321503"><ele>1465.3333333333333</ele><time>2026-05-01T11:22:00.632Z</time></trkpt><trkpt lat="45.9520095" lon="11.6321666"><ele>1462.6666666666665</ele><time>2026-05-01T11:22:01.63Z</time></trkpt><trkpt lat="45.9519284" lon="11.6321814"><ele>1460.0</ele><time>2026-05-01T11:22:02.638Z</time></trkpt><trkpt lat="45.9518453" lon="11.6321764"><ele>1457.3333333333333</ele><time>2026-05-01T11:22:03.63Z</time></trkpt><trkpt lat="45.9517651" lon="11.6321511"><ele>1454.6666666666667</ele><time>2026-05-01T11:22:04.628Z</time></trkpt><trkpt lat="45.9516854" lon="11.6321138"><ele>1452.0</ele><time>2026-05-01T11:22:05.632Z</time></trkpt><trkpt lat="45.9516181" lon="11.6320559"><ele>1451.0</ele><time>2026-05-01T11:22:06.634Z</time></trkpt><trkpt lat="45.9515601" lon="11.6319743"><ele>1450.0</ele><time>2026-05-01T11:22:07.629Z</time></trkpt><trkpt lat="45.9515131" lon="11.6318727"><ele>1449.0</ele><time>2026-05-01T11:22:08.628Z</time></trkpt><trkpt lat="45.9514607" lon="11.6317547"><ele>1448.0</ele><time>2026-05-01T11:22:09.63Z</time></trkpt><trkpt lat="45.951402" lon="11.6316415"><ele>1447.0</ele><time>2026-05-01T11:22:10.633Z</time></trkpt><trkpt lat="45.9513375" lon="11.6315413"><ele>1450.6</ele><time>2026-05-01T11:22:11.628Z</time></trkpt><trkpt lat="45.9512656" lon="11.6314644"><ele>1454.1999999999998</ele><time>2026-05-01T11:22:12.636Z</time></trkpt><trkpt lat="45.9511859" lon="11.6314065"><ele>1457.8</ele><time>2026-05-01T11:22:13.629Z</time></trkpt><trkpt lat="45.9511058" lon="11.6313482"><ele>1461.4</ele><time>2026-05-01T11:22:14.633Z</time></trkpt><trkpt lat="45.9510315" lon="11.6312765"><ele>1465.0</ele><time>2026-05-01T11:22:15.635Z</time></trkpt><trkpt lat="45.9509623" lon="11.6311819"><ele>1464.0</ele><time>2026-05-01T11:22:16.634Z</time></trkpt><trkpt lat="45.9508981" lon="11.6310721"><ele>1463.0</ele><time>2026-05-01T11:22:17.632Z</time></trkpt><trkpt lat="45.9508363" lon="11.6309584"><ele>1462.0</ele><time>2026-05-01T11:22:18.635Z</time></trkpt><trkpt lat="45.9507766" lon="11.6308521"><ele>1461.0</ele><time>2026-05-01T11:22:19.633Z</time></trkpt><trkpt lat="45.9507142" lon="11.6307586"><ele>1460.0</ele><time>2026-05-01T11:22:20.634Z</time></trkpt><trkpt lat="45.950643" lon="11.630682"><ele>1460.0</ele><time>2026-05-01T11:22:21.638Z</time></trkpt><trkpt lat="45.9505649" lon="11.6306308"><ele>1460.0</ele><time>2026-05-01T11:22:22.634Z</time></trkpt><trkpt lat="45.9504845" lon="11.6306133"><ele>1460.0</ele><time>2026-05-01T11:22:23.634Z</time></trkpt><trkpt lat="45.9504091" lon="11.6306306"><ele>1460.0</ele><time>2026-05-01T11:22:24.636Z</time></trkpt><trkpt lat="45.9503308" lon="11.6306498"><ele>1460.0</ele><time>2026-05-01T11:22:25.639Z</time></trkpt><trkpt lat="45.9502619" lon="11.6307155"><ele>1460.0</ele><time>2026-05-01T11:22:26.641Z</time></trkpt><trkpt lat="45.9501994" lon="11.6308157"><ele>1460.0</ele><time>2026-05-01T11:22:27.642Z</time></trkpt><trkpt lat="45.9501681" lon="11.6309384"><ele>1460.0</ele><time>2026-05-01T11:22:28.646Z</time></trkpt><trkpt lat="45.9501325" lon="11.6310734"><ele>1460.0</ele><time>2026-05-01T11:22:29.64Z</time></trkpt><trkpt lat="45.950095" lon="11.6312065"><ele>1460.0</ele><time>2026-05-01T11:22:30.64Z</time></trkpt><trkpt lat="45.9500569" lon="11.6313382"><ele>1460.0</ele><time>2026-05-01T11:22:31.634Z</time></trkpt><trkpt lat="45.9500024" lon="11.6314704"><ele>1455.6</ele><time>2026-05-01T11:22:32.638Z</time></trkpt><trkpt lat="45.9499484" lon="11.6316032"><ele>1451.2</ele><time>2026-05-01T11:22:33.638Z</time></trkpt><trkpt lat="45.9498926" lon="11.6317286"><ele>1446.8000000000002</ele><time>2026-05-01T11:22:34.639Z</time></trkpt><trkpt lat="45.9498306" lon="11.631845"><ele>1442.4</ele><time>2026-05-01T11:22:35.642Z</time></trkpt><trkpt lat="45.9497647" lon="11.6319489"><ele>1438.0</ele><time>2026-05-01T11:22:36.637Z</time></trkpt><trkpt lat="45.9496984" lon="11.6320573"><ele>1434.6000000000001</ele><time>2026-05-01T11:22:37.631Z</time></trkpt><trkpt lat="45.9496305" lon="11.6321599"><ele>1431.2</ele><time>2026-05-01T11:22:38.629Z</time></trkpt><trkpt lat="45.9495647" lon="11.6322599"><ele>1427.8</ele><time>2026-05-01T11:22:39.637Z</time></trkpt><trkpt lat="45.9494984" lon="11.6323669"><ele>1424.4</ele><time>2026-05-01T11:22:40.631Z</time></trkpt><trkpt lat="45.9494269" lon="11.6324675"><ele>1421.0</ele><time>2026-05-01T11:22:41.636Z</time></trkpt><trkpt lat="45.9493482" lon="11.6325537"><ele>1421.0</ele><time>2026-05-01T11:22:42.634Z</time></trkpt><trkpt lat="45.9492566" lon="11.632631"><ele>1421.0</ele><time>2026-05-01T11:22:43.636Z</time></trkpt><trkpt lat="45.9491568" lon="11.6327093"><ele>1421.0</ele><time>2026-05-01T11:22:44.63Z</time></trkpt><trkpt lat="45.9490612" lon="11.6327925"><ele>1421.0</ele><time>2026-05-01T11:22:45.636Z</time></trkpt><trkpt lat="45.9489604" lon="11.6328984"><ele>1420.1999999999998</ele><time>2026-05-01T11:22:46.632Z</time></trkpt><trkpt lat="45.9488688" lon="11.6329969"><ele>1419.3999999999999</ele><time>2026-05-01T11:22:47.639Z</time></trkpt><trkpt lat="45.9487769" lon="11.6330763"><ele>1418.6</ele><time>2026-05-01T11:22:48.633Z</time></trkpt><trkpt lat="45.9486791" lon="11.6331379"><ele>1417.8</ele><time>2026-05-01T11:22:49.63Z</time></trkpt><trkpt lat="45.9485729" lon="11.6331856"><ele>1417.0</ele><time>2026-05-01T11:22:50.641Z</time></trkpt><trkpt lat="45.9484615" lon="11.6332178"><ele>1419.75</ele><time>2026-05-01T11:22:51.633Z</time></trkpt><trkpt lat="45.9483447" lon="11.6332374"><ele>1422.5</ele><time>2026-05-01T11:22:52.638Z</time></trkpt><trkpt lat="45.9482253" lon="11.6332551"><ele>1425.25</ele><time>2026-05-01T11:22:53.632Z</time></trkpt><trkpt lat="45.9480958" lon="11.6332721"><ele>1428.0</ele><time>2026-05-01T11:22:54.638Z</time></trkpt><trkpt lat="45.9479658" lon="11.6332874"><ele>1428.0</ele><time>2026-05-01T11:22:55.636Z</time></trkpt><trkpt lat="45.9478372" lon="11.6333154"><ele>1428.0</ele><time>2026-05-01T11:22:56.639Z</time></trkpt><trkpt lat="45.9477077" lon="11.6333397"><ele>1428.0</ele><time>2026-05-01T11:22:57.636Z</time></trkpt><trkpt lat="45.947589" lon="11.63336"><ele>1428.0</ele><time>2026-05-01T11:22:58.634Z</time></trkpt><trkpt lat="45.9474741" lon="11.6333755"><ele>1428.0</ele><time>2026-05-01T11:22:59.636Z</time></trkpt><trkpt lat="45.947361" lon="11.6333809"><ele>1428.0</ele><time>2026-05-01T11:23:00.641Z</time></trkpt><trkpt lat="45.9472466" lon="11.6333698"><ele>1428.0</ele><time>2026-05-01T11:23:01.635Z</time></trkpt><trkpt lat="45.9471362" lon="11.6333491"><ele>1428.0</ele><time>2026-05-01T11:23:02.638Z</time></trkpt><trkpt lat="45.9470301" lon="11.6333268"><ele>1428.0</ele><time>2026-05-01T11:23:03.649Z</time></trkpt><trkpt lat="45.9469256" lon="11.6332879"><ele>1428.0</ele><time>2026-05-01T11:23:04.638Z</time></trkpt><trkpt lat="45.9468226" lon="11.6332367"><ele>1428.0</ele><time>2026-05-01T11:23:05.631Z</time></trkpt><trkpt lat="45.9467224" lon="11.6331777"><ele>1428.0</ele><time>2026-05-01T11:23:06.635Z</time></trkpt><trkpt lat="45.9466154" lon="11.6331188"><ele>1428.0</ele><time>2026-05-01T11:23:07.634Z</time></trkpt><trkpt lat="45.9465138" lon="11.6330607"><ele>1428.0</ele><time>2026-05-01T11:23:08.628Z</time></trkpt><trkpt lat="45.9464096" lon="11.6330026"><ele>1426.6000000000001</ele><time>2026-05-01T11:23:09.63Z</time></trkpt><trkpt lat="45.9463014" lon="11.6329681"><ele>1425.2</ele><time>2026-05-01T11:23:10.638Z</time></trkpt><trkpt lat="45.9461878" lon="11.6329482"><ele>1423.8</ele><time>2026-05-01T11:23:11.634Z</time></trkpt><trkpt lat="45.9460717" lon="11.6329327"><ele>1422.4</ele><time>2026-05-01T11:23:12.637Z</time></trkpt><trkpt lat="45.945967" lon="11.6329085"><ele>1421.0</ele><time>2026-05-01T11:23:13.633Z</time></trkpt><trkpt lat="45.9458679" lon="11.6328653"><ele>1426.75</ele><time>2026-05-01T11:23:14.637Z</time></trkpt><trkpt lat="45.9457695" lon="11.6328022"><ele>1432.5</ele><time>2026-05-01T11:23:15.633Z</time></trkpt><trkpt lat="45.9456739" lon="11.6327221"><ele>1438.25</ele><time>2026-05-01T11:23:16.63Z</time></trkpt><trkpt lat="45.9455753" lon="11.6326246"><ele>1444.0</ele><time>2026-05-01T11:23:17.629Z</time></trkpt><trkpt lat="45.9454757" lon="11.6325231"><ele>1444.0</ele><time>2026-05-01T11:23:18.633Z</time></trkpt><trkpt lat="45.9453814" lon="11.6324212"><ele>1444.0</ele><time>2026-05-01T11:23:19.634Z</time></trkpt><trkpt lat="45.9452943" lon="11.6323083"><ele>1444.0</ele><time>2026-05-01T11:23:20.635Z</time></trkpt><trkpt lat="45.9452093" lon="11.6321789"><ele>1444.0</ele><time>2026-05-01T11:23:21.634Z</time></trkpt><trkpt lat="45.9451226" lon="11.6320445"><ele>1445.5</ele><time>2026-05-01T11:23:22.635Z</time></trkpt><trkpt lat="45.9450341" lon="11.63191"><ele>1447.0</ele><time>2026-05-01T11:23:23.637Z</time></trkpt><trkpt lat="45.9449479" lon="11.6317795"><ele>1448.5</ele><time>2026-05-01T11:23:24.646Z</time></trkpt><trkpt lat="45.9448636" lon="11.6316506"><ele>1450.0</ele><time>2026-05-01T11:23:25.64Z</time></trkpt><trkpt lat="45.9447734" lon="11.6315433"><ele>1450.0</ele><time>2026-05-01T11:23:26.627Z</time></trkpt><trkpt lat="45.9446819" lon="11.6314367"><ele>1450.0</ele><time>2026-05-01T11:23:27.639Z</time></trkpt><trkpt lat="45.9445939" lon="11.6313303"><ele>1450.0</ele><time>2026-05-01T11:23:28.635Z</time></trkpt><trkpt lat="45.9445172" lon="11.6312087"><ele>1450.0</ele><time>2026-05-01T11:23:29.632Z</time></trkpt><trkpt lat="45.9444469" lon="11.6310837"><ele>1451.8</ele><time>2026-05-01T11:23:30.636Z</time></trkpt><trkpt lat="45.9443878" lon="11.6309588"><ele>1453.6</ele><time>2026-05-01T11:23:31.636Z</time></trkpt><trkpt lat="45.9443294" lon="11.6308259"><ele>1455.4</ele><time>2026-05-01T11:23:32.637Z</time></trkpt><trkpt lat="45.9442668" lon="11.6306995"><ele>1457.2</ele><time>2026-05-01T11:23:33.642Z</time></trkpt><trkpt lat="45.9441993" lon="11.6306057"><ele>1459.0</ele><time>2026-05-01T11:23:34.642Z</time></trkpt><trkpt lat="45.9441245" lon="11.6305279"><ele>1459.0</ele><time>2026-05-01T11:23:35.639Z</time></trkpt><trkpt lat="45.9440566" lon="11.6304572"><ele>1459.0</ele><time>2026-05-01T11:23:36.636Z</time></trkpt><trkpt lat="45.9439991" lon="11.6303872"><ele>1459.0</ele><time>2026-05-01T11:23:37.636Z</time></trkpt><trkpt lat="45.9439523" lon="11.6303163"><ele>1459.0</ele><time>2026-05-01T11:23:38.638Z</time></trkpt><trkpt lat="45.9438801" lon="11.6301844"><ele>1459.0</ele><time>2026-05-01T11:23:40.639Z</time></trkpt><trkpt lat="45.9438314" lon="11.6300572"><ele>1459.0</ele><time>2026-05-01T11:23:42.644Z</time></trkpt><trkpt lat="45.9437823" lon="11.6299681"><ele>1458.9999999999998</ele><time>2026-05-01T11:23:44.639Z</time></trkpt><trkpt lat="45.9437135" lon="11.6299627"><ele>1459.0</ele><time>2026-05-01T11:23:46.647Z</time></trkpt><trkpt lat="45.943668" lon="11.6300365"><ele>1459.0</ele><time>2026-05-01T11:23:48.639Z</time></trkpt><trkpt lat="45.9436471" lon="11.6301473"><ele>1459.0</ele><time>2026-05-01T11:23:50.651Z</time></trkpt><trkpt lat="45.9436255" lon="11.6302598"><ele>1459.0</ele><time>2026-05-01T11:23:52.649Z</time></trkpt><trkpt lat="45.9435881" lon="11.6303593"><ele>1458.9999999999998</ele><time>2026-05-01T11:23:54.659Z</time></trkpt><trkpt lat="45.943522" lon="11.6303982"><ele>1459.0</ele><time>2026-05-01T11:23:56.698Z</time></trkpt><trkpt lat="45.9434537" lon="11.630352"><ele>1459.1666666666665</ele><time>2026-05-01T11:23:58.674Z</time></trkpt><trkpt lat="45.9433919" lon="11.6302227"><ele>1459.3333333333333</ele><time>2026-05-01T11:24:00.65Z</time></trkpt><trkpt lat="45.9433551" lon="11.6300514"><ele>1459.5</ele><time>2026-05-01T11:24:02.659Z</time></trkpt><trkpt lat="45.9433452" lon="11.6299612"><ele>1459.6666666666667</ele><time>2026-05-01T11:24:03.654Z</time></trkpt><trkpt lat="45.9433434" lon="11.6298658"><ele>1459.8333333333335</ele><time>2026-05-01T11:24:04.651Z</time></trkpt><trkpt lat="45.9433476" lon="11.6297591"><ele>1460.0</ele><time>2026-05-01T11:24:05.645Z</time></trkpt><trkpt lat="45.9433565" lon="11.6296465"><ele>1460.0</ele><time>2026-05-01T11:24:06.648Z</time></trkpt><trkpt lat="45.9433674" lon="11.629538"><ele>1460.0</ele><time>2026-05-01T11:24:07.666Z</time></trkpt><trkpt lat="45.9433793" lon="11.6294304"><ele>1460.0</ele><time>2026-05-01T11:24:08.646Z</time></trkpt><trkpt lat="45.9433926" lon="11.6293205"><ele>1460.0</ele><time>2026-05-01T11:24:09.638Z</time></trkpt><trkpt lat="45.9434061" lon="11.6292083"><ele>1460.0</ele><time>2026-05-01T11:24:10.644Z</time></trkpt><trkpt lat="45.9434209" lon="11.629098"><ele>1460.0</ele><time>2026-05-01T11:24:11.655Z</time></trkpt><trkpt lat="45.9434399" lon="11.6289846"><ele>1459.1666666666667</ele><time>2026-05-01T11:24:12.641Z</time></trkpt><trkpt lat="45.9434581" lon="11.6288702"><ele>1458.3333333333335</ele><time>2026-05-01T11:24:13.639Z</time></trkpt><trkpt lat="45.9434802" lon="11.6287574"><ele>1457.5</ele><time>2026-05-01T11:24:14.644Z</time></trkpt><trkpt lat="45.9435068" lon="11.6286445"><ele>1456.6666666666667</ele><time>2026-05-01T11:24:15.647Z</time></trkpt><trkpt lat="45.9435364" lon="11.6285317"><ele>1455.8333333333333</ele><time>2026-05-01T11:24:16.639Z</time></trkpt><trkpt lat="45.9435731" lon="11.6284197"><ele>1455.0</ele><time>2026-05-01T11:24:17.643Z</time></trkpt><trkpt lat="45.9436205" lon="11.6283184"><ele>1455.0</ele><time>2026-05-01T11:24:18.641Z</time></trkpt><trkpt lat="45.9436678" lon="11.6282201"><ele>1455.0</ele><time>2026-05-01T11:24:19.64Z</time></trkpt><trkpt lat="45.9437369" lon="11.6281531"><ele>1455.0</ele><time>2026-05-01T11:24:20.642Z</time></trkpt><trkpt lat="45.9438046" lon="11.628109"><ele>1455.0</ele><time>2026-05-01T11:24:21.643Z</time></trkpt><trkpt lat="45.9438782" lon="11.6280862"><ele>1455.0</ele><time>2026-05-01T11:24:22.643Z</time></trkpt><trkpt lat="45.9439666" lon="11.6280754"><ele>1455.0</ele><time>2026-05-01T11:24:23.656Z</time></trkpt><trkpt lat="45.9440621" lon="11.62807"><ele>1455.0</ele><time>2026-05-01T11:24:24.65Z</time></trkpt><trkpt lat="45.9441616" lon="11.6280646"><ele>1455.0</ele><time>2026-05-01T11:24:25.654Z</time></trkpt><trkpt lat="45.9442631" lon="11.6280609"><ele>1455.0</ele><time>2026-05-01T11:24:26.641Z</time></trkpt><trkpt lat="45.9443677" lon="11.62807"><ele>1455.0</ele><time>2026-05-01T11:24:27.644Z</time></trkpt><trkpt lat="45.9444813" lon="11.6280953"><ele>1455.0</ele><time>2026-05-01T11:24:28.647Z</time></trkpt><trkpt lat="45.9445989" lon="11.6281092"><ele>1454.25</ele><time>2026-05-01T11:24:29.641Z</time></trkpt><trkpt lat="45.9447206" lon="11.6281113"><ele>1453.5</ele><time>2026-05-01T11:24:30.644Z</time></trkpt><trkpt lat="45.9448443" lon="11.6281067"><ele>1452.75</ele><time>2026-05-01T11:24:31.645Z</time></trkpt><trkpt lat="45.9449716" lon="11.6281019"><ele>1452.0</ele><time>2026-05-01T11:24:32.642Z</time></trkpt><trkpt lat="45.9451024" lon="11.6280947"><ele>1452.0</ele><time>2026-05-01T11:24:33.653Z</time></trkpt><trkpt lat="45.9452317" lon="11.628088"><ele>1452.0</ele><time>2026-05-01T11:24:34.644Z</time></trkpt><trkpt lat="45.9453591" lon="11.6280754"><ele>1452.0</ele><time>2026-05-01T11:24:35.64Z</time></trkpt><trkpt lat="45.9454844" lon="11.6280545"><ele>1452.0</ele><time>2026-05-01T11:24:36.643Z</time></trkpt><trkpt lat="45.9456068" lon="11.6280267"><ele>1452.0</ele><time>2026-05-01T11:24:37.641Z</time></trkpt><trkpt lat="45.9457208" lon="11.6279925"><ele>1452.0</ele><time>2026-05-01T11:24:38.647Z</time></trkpt><trkpt lat="45.9458312" lon="11.6279507"><ele>1452.0</ele><time>2026-05-01T11:24:39.646Z</time></trkpt><trkpt lat="45.9459359" lon="11.627894"><ele>1452.0</ele><time>2026-05-01T11:24:40.644Z</time></trkpt><trkpt lat="45.9460363" lon="11.6278189"><ele>1448.25</ele><time>2026-05-01T11:24:41.647Z</time></trkpt><trkpt lat="45.9461361" lon="11.6277358"><ele>1444.5</ele><time>2026-05-01T11:24:42.661Z</time></trkpt><trkpt lat="45.9462364" lon="11.6276543"><ele>1440.75</ele><time>2026-05-01T11:24:43.647Z</time></trkpt><trkpt lat="45.946337" lon="11.6275852"><ele>1437.0</ele><time>2026-05-01T11:24:44.637Z</time></trkpt><trkpt lat="45.9464429" lon="11.6275295"><ele>1437.0</ele><time>2026-05-01T11:24:45.645Z</time></trkpt><trkpt lat="45.9465541" lon="11.6274891"><ele>1437.0</ele><time>2026-05-01T11:24:46.647Z</time></trkpt><trkpt lat="45.9466626" lon="11.6274556"><ele>1437.0</ele><time>2026-05-01T11:24:47.647Z</time></trkpt><trkpt lat="45.946768" lon="11.6274157"><ele>1437.0</ele><time>2026-05-01T11:24:48.639Z</time></trkpt><trkpt lat="45.946874" lon="11.6273736"><ele>1437.0</ele><time>2026-05-01T11:24:49.651Z</time></trkpt><trkpt lat="45.9469664" lon="11.6273047"><ele>1435.6</ele><time>2026-05-01T11:24:50.653Z</time></trkpt><trkpt lat="45.947042" lon="11.6272124"><ele>1434.1999999999998</ele><time>2026-05-01T11:24:51.647Z</time></trkpt><trkpt lat="45.9471042" lon="11.6270952"><ele>1432.8</ele><time>2026-05-01T11:24:52.64Z</time></trkpt><trkpt lat="45.9471588" lon="11.6269561"><ele>1431.4</ele><time>2026-05-01T11:24:53.647Z</time></trkpt><trkpt lat="45.9472059" lon="11.6268115"><ele>1430.0</ele><time>2026-05-01T11:24:54.64Z</time></trkpt><trkpt lat="45.947255" lon="11.6266829"><ele>1430.0</ele><time>2026-05-01T11:24:55.65Z</time></trkpt><trkpt lat="45.9473186" lon="11.6265741"><ele>1430.0</ele><time>2026-05-01T11:24:56.641Z</time></trkpt><trkpt lat="45.9473956" lon="11.6264887"><ele>1430.0</ele><time>2026-05-01T11:24:57.648Z</time></trkpt><trkpt lat="45.9474728" lon="11.6264047"><ele>1430.0</ele><time>2026-05-01T11:24:58.643Z</time></trkpt><trkpt lat="45.9475593" lon="11.6263729"><ele>1430.0</ele><time>2026-05-01T11:24:59.646Z</time></trkpt><trkpt lat="45.9476361" lon="11.6263641"><ele>1429.1666666666667</ele><time>2026-05-01T11:25:00.653Z</time></trkpt><trkpt lat="45.9477045" lon="11.626364"><ele>1428.3333333333335</ele><time>2026-05-01T11:25:01.652Z</time></trkpt><trkpt lat="45.9478062" lon="11.6263517"><ele>1427.5</ele><time>2026-05-01T11:25:03.648Z</time></trkpt><trkpt lat="45.9478742" lon="11.626302"><ele>1426.6666666666667</ele><time>2026-05-01T11:25:05.656Z</time></trkpt><trkpt lat="45.9478879" lon="11.6262022"><ele>1425.8333333333333</ele><time>2026-05-01T11:25:07.648Z</time></trkpt><trkpt lat="45.9478383" lon="11.6260914"><ele>1425.0</ele><time>2026-05-01T11:25:09.646Z</time></trkpt><trkpt lat="45.9477802" lon="11.6260364"><ele>1422.8333333333333</ele><time>2026-05-01T11:25:10.646Z</time></trkpt><trkpt lat="45.9477087" lon="11.6259866"><ele>1420.6666666666667</ele><time>2026-05-01T11:25:11.642Z</time></trkpt><trkpt lat="45.9476262" lon="11.6259438"><ele>1418.5</ele><time>2026-05-01T11:25:12.639Z</time></trkpt><trkpt lat="45.9475416" lon="11.6259014"><ele>1416.3333333333335</ele><time>2026-05-01T11:25:13.647Z</time></trkpt><trkpt lat="45.9474563" lon="11.6258856"><ele>1414.1666666666667</ele><time>2026-05-01T11:25:14.649Z</time></trkpt><trkpt lat="45.9473737" lon="11.6258773"><ele>1412.0</ele><time>2026-05-01T11:25:15.643Z</time></trkpt><trkpt lat="45.9472939" lon="11.6258777"><ele>1412.0</ele><time>2026-05-01T11:25:16.649Z</time></trkpt><trkpt lat="45.9472141" lon="11.6258777"><ele>1412.0</ele><time>2026-05-01T11:25:17.647Z</time></trkpt><trkpt lat="45.947134" lon="11.6258791"><ele>1412.0</ele><time>2026-05-01T11:25:18.642Z</time></trkpt><trkpt lat="45.9470548" lon="11.625885"><ele>1412.0</ele><time>2026-05-01T11:25:19.646Z</time></trkpt><trkpt lat="45.9469722" lon="11.6258884"><ele>1412.0</ele><time>2026-05-01T11:25:20.643Z</time></trkpt><trkpt lat="45.9468857" lon="11.6258968"><ele>1412.0</ele><time>2026-05-01T11:25:21.641Z</time></trkpt><trkpt lat="45.9467999" lon="11.6259052"><ele>1412.0</ele><time>2026-05-01T11:25:22.645Z</time></trkpt><trkpt lat="45.9467158" lon="11.6259159"><ele>1412.0</ele><time>2026-05-01T11:25:23.646Z</time></trkpt><trkpt lat="45.9466303" lon="11.6259326"><ele>1412.0</ele><time>2026-05-01T11:25:24.651Z</time></trkpt><trkpt lat="45.9465534" lon="11.6259516"><ele>1412.0</ele><time>2026-05-01T11:25:25.646Z</time></trkpt><trkpt lat="45.9464713" lon="11.6259809"><ele>1412.0</ele><time>2026-05-01T11:25:26.653Z</time></trkpt><trkpt lat="45.9463929" lon="11.6260174"><ele>1412.0</ele><time>2026-05-01T11:25:27.653Z</time></trkpt><trkpt lat="45.9463129" lon="11.626066"><ele>1412.6666666666667</ele><time>2026-05-01T11:25:28.643Z</time></trkpt><trkpt lat="45.9462321" lon="11.6261244"><ele>1413.3333333333335</ele><time>2026-05-01T11:25:29.646Z</time></trkpt><trkpt lat="45.9461515" lon="11.6261867"><ele>1414.0</ele><time>2026-05-01T11:25:30.652Z</time></trkpt><trkpt lat="45.9460718" lon="11.6262433"><ele>1414.6666666666667</ele><time>2026-05-01T11:25:31.642Z</time></trkpt><trkpt lat="45.9459927" lon="11.6262933"><ele>1415.3333333333333</ele><time>2026-05-01T11:25:32.642Z</time></trkpt><trkpt lat="45.945916" lon="11.6263252"><ele>1416.0</ele><time>2026-05-01T11:25:33.64Z</time></trkpt><trkpt lat="45.9458367" lon="11.6263259"><ele>1413.5</ele><time>2026-05-01T11:25:34.646Z</time></trkpt><trkpt lat="45.9457595" lon="11.6262943"><ele>1411.0</ele><time>2026-05-01T11:25:35.645Z</time></trkpt><trkpt lat="45.9456893" lon="11.6262319"><ele>1408.5</ele><time>2026-05-01T11:25:36.642Z</time></trkpt><trkpt lat="45.9456275" lon="11.6261429"><ele>1406.0</ele><time>2026-05-01T11:25:37.646Z</time></trkpt><trkpt lat="45.9455691" lon="11.6260333"><ele>1403.5</ele><time>2026-05-01T11:25:38.642Z</time></trkpt><trkpt lat="45.9455078" lon="11.6259183"><ele>1401.0</ele><time>2026-05-01T11:25:39.639Z</time></trkpt><trkpt lat="45.9454401" lon="11.6257983"><ele>1399.0</ele><time>2026-05-01T11:25:40.645Z</time></trkpt><trkpt lat="45.9453663" lon="11.6256821"><ele>1397.0</ele><time>2026-05-01T11:25:41.642Z</time></trkpt><trkpt lat="45.9452868" lon="11.6255634"><ele>1395.0</ele><time>2026-05-01T11:25:42.643Z</time></trkpt><trkpt lat="45.9452045" lon="11.6254402"><ele>1393.0</ele><time>2026-05-01T11:25:43.648Z</time></trkpt><trkpt lat="45.9451236" lon="11.6253179"><ele>1391.8000000000002</ele><time>2026-05-01T11:25:44.642Z</time></trkpt><trkpt lat="45.9450457" lon="11.6251946"><ele>1390.6</ele><time>2026-05-01T11:25:45.636Z</time></trkpt><trkpt lat="45.9449786" lon="11.6250794"><ele>1389.4</ele><time>2026-05-01T11:25:46.644Z</time></trkpt><trkpt lat="45.9449217" lon="11.6249769"><ele>1388.1999999999998</ele><time>2026-05-01T11:25:47.657Z</time></trkpt><trkpt lat="45.9448796" lon="11.6248809"><ele>1387.0</ele><time>2026-05-01T11:25:48.652Z</time></trkpt><trkpt lat="45.9448415" lon="11.6247933"><ele>1387.0</ele><time>2026-05-01T11:25:49.65Z</time></trkpt><trkpt lat="45.9448272" lon="11.6247007"><ele>1387.0</ele><time>2026-05-01T11:25:50.638Z</time></trkpt><trkpt lat="45.9448259" lon="11.6245887"><ele>1387.0</ele><time>2026-05-01T11:25:51.65Z</time></trkpt><trkpt lat="45.9448271" lon="11.6244753"><ele>1387.0</ele><time>2026-05-01T11:25:52.653Z</time></trkpt><trkpt lat="45.944831" lon="11.6243611"><ele>1387.0</ele><time>2026-05-01T11:25:53.643Z</time></trkpt><trkpt lat="45.9448403" lon="11.6242597"><ele>1387.0</ele><time>2026-05-01T11:25:54.64Z</time></trkpt><trkpt lat="45.9448582" lon="11.6241562"><ele>1387.0</ele><time>2026-05-01T11:25:55.653Z</time></trkpt><trkpt lat="45.9448831" lon="11.6240423"><ele>1386.1999999999998</ele><time>2026-05-01T11:25:56.646Z</time></trkpt><trkpt lat="45.944919" lon="11.6239259"><ele>1385.4</ele><time>2026-05-01T11:25:57.64Z</time></trkpt><trkpt lat="45.9449684" lon="11.6238042"><ele>1384.6</ele><time>2026-05-01T11:25:58.651Z</time></trkpt><trkpt lat="45.9450253" lon="11.6236803"><ele>1383.8000000000002</ele><time>2026-05-01T11:25:59.647Z</time></trkpt><trkpt lat="45.9450851" lon="11.6235527"><ele>1383.0</ele><time>2026-05-01T11:26:00.641Z</time></trkpt><trkpt lat="45.9451489" lon="11.6234281"><ele>1382.8000000000002</ele><time>2026-05-01T11:26:01.649Z</time></trkpt><trkpt lat="45.9452164" lon="11.6233119"><ele>1382.6</ele><time>2026-05-01T11:26:02.652Z</time></trkpt><trkpt lat="45.945289" lon="11.6232044"><ele>1382.4</ele><time>2026-05-01T11:26:03.644Z</time></trkpt><trkpt lat="45.9453565" lon="11.6231059"><ele>1382.1999999999998</ele><time>2026-05-01T11:26:04.647Z</time></trkpt><trkpt lat="45.9454198" lon="11.6230099"><ele>1382.0</ele><time>2026-05-01T11:26:05.64Z</time></trkpt><trkpt lat="45.9454875" lon="11.6229127"><ele>1382.0</ele><time>2026-05-01T11:26:06.642Z</time></trkpt><trkpt lat="45.9455586" lon="11.6228251"><ele>1382.0</ele><time>2026-05-01T11:26:07.639Z</time></trkpt><trkpt lat="45.9456298" lon="11.6227563"><ele>1382.0</ele><time>2026-05-01T11:26:08.66Z</time></trkpt><trkpt lat="45.9457054" lon="11.6226986"><ele>1382.0</ele><time>2026-05-01T11:26:09.648Z</time></trkpt><trkpt lat="45.9457855" lon="11.6226492"><ele>1382.0</ele><time>2026-05-01T11:26:10.655Z</time></trkpt><trkpt lat="45.9458721" lon="11.6226037"><ele>1382.0</ele><time>2026-05-01T11:26:11.715Z</time></trkpt><trkpt lat="45.9459594" lon="11.6225594"><ele>1378.0</ele><time>2026-05-01T11:26:12.663Z</time></trkpt><trkpt lat="45.9460555" lon="11.6225252"><ele>1374.0</ele><time>2026-05-01T11:26:13.645Z</time></trkpt><trkpt lat="45.9461578" lon="11.6224922"><ele>1370.0</ele><time>2026-05-01T11:26:14.652Z</time></trkpt><trkpt lat="45.9462661" lon="11.6224592"><ele>1366.0</ele><time>2026-05-01T11:26:15.644Z</time></trkpt><trkpt lat="45.946379" lon="11.6224297"><ele>1362.0</ele><time>2026-05-01T11:26:16.646Z</time></trkpt><trkpt lat="45.946494" lon="11.6223981"><ele>1362.0</ele><time>2026-05-01T11:26:17.648Z</time></trkpt><trkpt lat="45.9466079" lon="11.6223647"><ele>1362.0</ele><time>2026-05-01T11:26:18.65Z</time></trkpt><trkpt lat="45.9467213" lon="11.6223301"><ele>1362.0</ele><time>2026-05-01T11:26:19.645Z</time></trkpt><trkpt lat="45.9468357" lon="11.6222813"><ele>1362.0</ele><time>2026-05-01T11:26:20.642Z</time></trkpt><trkpt lat="45.9469412" lon="11.6222374"><ele>1360.6</ele><time>2026-05-01T11:26:21.64Z</time></trkpt><trkpt lat="45.9470393" lon="11.6222053"><ele>1359.1999999999998</ele><time>2026-05-01T11:26:22.643Z</time></trkpt><trkpt lat="45.9471339" lon="11.6221825"><ele>1357.8</ele><time>2026-05-01T11:26:23.643Z</time></trkpt><trkpt lat="45.947228" lon="11.6221795"><ele>1356.4</ele><time>2026-05-01T11:26:24.642Z</time></trkpt><trkpt lat="45.9473219" lon="11.6221986"><ele>1355.0</ele><time>2026-05-01T11:26:25.638Z</time></trkpt><trkpt lat="45.9474132" lon="11.6222421"><ele>1355.0</ele><time>2026-05-01T11:26:26.642Z</time></trkpt><trkpt lat="45.9474956" lon="11.6223038"><ele>1355.0</ele><time>2026-05-01T11:26:27.646Z</time></trkpt><trkpt lat="45.9475628" lon="11.6223728"><ele>1355.0</ele><time>2026-05-01T11:26:28.645Z</time></trkpt><trkpt lat="45.9476138" lon="11.6224488"><ele>1355.0</ele><time>2026-05-01T11:26:29.644Z</time></trkpt><trkpt lat="45.9476547" lon="11.6225462"><ele>1355.0</ele><time>2026-05-01T11:26:30.652Z</time></trkpt><trkpt lat="45.9476886" lon="11.6226545"><ele>1355.0</ele><time>2026-05-01T11:26:31.644Z</time></trkpt><trkpt lat="45.9477265" lon="11.622745"><ele>1355.3333333333335</ele><time>2026-05-01T11:26:32.639Z</time></trkpt><trkpt lat="45.9477763" lon="11.6228096"><ele>1355.6666666666667</ele><time>2026-05-01T11:26:33.647Z</time></trkpt><trkpt lat="45.9478243" lon="11.6228712"><ele>1356.0</ele><time>2026-05-01T11:26:34.651Z</time></trkpt><trkpt lat="45.9479003" lon="11.6228788"><ele>1356.3333333333333</ele><time>2026-05-01T11:26:35.641Z</time></trkpt><trkpt lat="45.9479972" lon="11.6228633"><ele>1356.6666666666665</ele><time>2026-05-01T11:26:36.639Z</time></trkpt><trkpt lat="45.9481155" lon="11.6228243"><ele>1357.0</ele><time>2026-05-01T11:26:37.647Z</time></trkpt><trkpt lat="45.948229" lon="11.6227727"><ele>1352.6</ele><time>2026-05-01T11:26:38.645Z</time></trkpt><trkpt lat="45.9483357" lon="11.6227202"><ele>1348.1999999999998</ele><time>2026-05-01T11:26:39.638Z</time></trkpt><trkpt lat="45.9484248" lon="11.6226704"><ele>1343.8</ele><time>2026-05-01T11:26:40.648Z</time></trkpt><trkpt lat="45.9484959" lon="11.622627"><ele>1339.4</ele><time>2026-05-01T11:26:41.64Z</time></trkpt><trkpt lat="45.9485593" lon="11.6226024"><ele>1335.0</ele><time>2026-05-01T11:26:42.647Z</time></trkpt><trkpt lat="45.9486829" lon="11.6226244"><ele>1334.0</ele><time>2026-05-01T11:26:44.644Z</time></trkpt><trkpt lat="45.9487518" lon="11.6226511"><ele>1333.0</ele><time>2026-05-01T11:26:45.653Z</time></trkpt><trkpt lat="45.948817" lon="11.6226662"><ele>1332.0</ele><time>2026-05-01T11:26:46.66Z</time></trkpt><trkpt lat="45.9489253" lon="11.6226401"><ele>1331.0</ele><time>2026-05-01T11:26:48.643Z</time></trkpt><trkpt lat="45.9489582" lon="11.6224969"><ele>1330.0</ele><time>2026-05-01T11:26:50.65Z</time></trkpt><trkpt lat="45.9489341" lon="11.6223283"><ele>1330.0</ele><time>2026-05-01T11:26:52.643Z</time></trkpt><trkpt lat="45.9488945" lon="11.6222378"><ele>1330.0</ele><time>2026-05-01T11:26:53.643Z</time></trkpt><trkpt lat="45.948856" lon="11.622166"><ele>1330.0</ele><time>2026-05-01T11:26:54.65Z</time></trkpt><trkpt lat="45.9488225" lon="11.6220294"><ele>1330.0</ele><time>2026-05-01T11:26:56.649Z</time></trkpt><trkpt lat="45.9488813" lon="11.6219396"><ele>1330.0</ele><time>2026-05-01T11:26:58.648Z</time></trkpt><trkpt lat="45.9489799" lon="11.6219114"><ele>1330.0</ele><time>2026-05-01T11:27:00.646Z</time></trkpt><trkpt lat="45.9490996" lon="11.621886"><ele>1329.1666666666665</ele><time>2026-05-01T11:27:02.65Z</time></trkpt><trkpt lat="45.9491538" lon="11.6218329"><ele>1328.3333333333333</ele><time>2026-05-01T11:27:03.656Z</time></trkpt><trkpt lat="45.9491983" lon="11.6217544"><ele>1327.5</ele><time>2026-05-01T11:27:04.647Z</time></trkpt><trkpt lat="45.9492394" lon="11.6216503"><ele>1326.6666666666667</ele><time>2026-05-01T11:27:05.652Z</time></trkpt><trkpt lat="45.9492797" lon="11.6215278"><ele>1325.8333333333335</ele><time>2026-05-01T11:27:06.653Z</time></trkpt><trkpt lat="45.949321" lon="11.6213978"><ele>1325.0</ele><time>2026-05-01T11:27:07.651Z</time></trkpt><trkpt lat="45.9493602" lon="11.6212678"><ele>1324.0</ele><time>2026-05-01T11:27:08.644Z</time></trkpt><trkpt lat="45.9493941" lon="11.6211347"><ele>1323.0</ele><time>2026-05-01T11:27:09.649Z</time></trkpt><trkpt lat="45.9494231" lon="11.6209951"><ele>1322.0</ele><time>2026-05-01T11:27:10.644Z</time></trkpt><trkpt lat="45.9494466" lon="11.6208502"><ele>1321.0</ele><time>2026-05-01T11:27:11.651Z</time></trkpt><trkpt lat="45.9494628" lon="11.6207122"><ele>1320.0</ele><time>2026-05-01T11:27:12.644Z</time></trkpt><trkpt lat="45.9494745" lon="11.6205837"><ele>1320.0</ele><time>2026-05-01T11:27:13.645Z</time></trkpt><trkpt lat="45.9494845" lon="11.6204594"><ele>1320.0</ele><time>2026-05-01T11:27:14.645Z</time></trkpt><trkpt lat="45.9494756" lon="11.6203448"><ele>1320.0</ele><time>2026-05-01T11:27:15.646Z</time></trkpt><trkpt lat="45.9494523" lon="11.6202241"><ele>1320.0</ele><time>2026-05-01T11:27:16.643Z</time></trkpt><trkpt lat="45.9494153" lon="11.6200984"><ele>1320.0</ele><time>2026-05-01T11:27:17.644Z</time></trkpt><trkpt lat="45.9493636" lon="11.6199626"><ele>1319.4</ele><time>2026-05-01T11:27:18.646Z</time></trkpt><trkpt lat="45.9493119" lon="11.6198272"><ele>1318.8</ele><time>2026-05-01T11:27:19.646Z</time></trkpt><trkpt lat="45.9492508" lon="11.6197056"><ele>1318.1999999999998</ele><time>2026-05-01T11:27:20.642Z</time></trkpt><trkpt lat="45.9491894" lon="11.6195971"><ele>1317.6</ele><time>2026-05-01T11:27:21.645Z</time></trkpt><trkpt lat="45.9491374" lon="11.6195065"><ele>1317.0</ele><time>2026-05-01T11:27:22.644Z</time></trkpt><trkpt lat="45.9490941" lon="11.6194139"><ele>1316.3333333333333</ele><time>2026-05-01T11:27:23.65Z</time></trkpt><trkpt lat="45.9490588" lon="11.6193189"><ele>1315.6666666666667</ele><time>2026-05-01T11:27:24.644Z</time></trkpt><trkpt lat="45.9490362" lon="11.6192152"><ele>1315.0</ele><time>2026-05-01T11:27:25.643Z</time></trkpt><trkpt lat="45.9490243" lon="11.6190892"><ele>1314.3333333333335</ele><time>2026-05-01T11:27:26.646Z</time></trkpt><trkpt lat="45.9490131" lon="11.6189496"><ele>1313.6666666666667</ele><time>2026-05-01T11:27:27.65Z</time></trkpt><trkpt lat="45.9489977" lon="11.6188085"><ele>1313.0</ele><time>2026-05-01T11:27:28.644Z</time></trkpt><trkpt lat="45.9489799" lon="11.6186618"><ele>1312.0</ele><time>2026-05-01T11:27:29.642Z</time></trkpt><trkpt lat="45.9489663" lon="11.6185162"><ele>1311.0</ele><time>2026-05-01T11:27:30.643Z</time></trkpt><trkpt lat="45.9489569" lon="11.6183657"><ele>1310.0</ele><time>2026-05-01T11:27:31.646Z</time></trkpt><trkpt lat="45.9489469" lon="11.6182106"><ele>1309.0</ele><time>2026-05-01T11:27:32.676Z</time></trkpt><trkpt lat="45.9489332" lon="11.6180549"><ele>1308.0</ele><time>2026-05-01T11:27:33.664Z</time></trkpt><trkpt lat="45.9489189" lon="11.6178989"><ele>1307.3333333333333</ele><time>2026-05-01T11:27:34.644Z</time></trkpt><trkpt lat="45.9489032" lon="11.6177516"><ele>1306.6666666666667</ele><time>2026-05-01T11:27:35.642Z</time></trkpt><trkpt lat="45.9488884" lon="11.6176245"><ele>1306.0</ele><time>2026-05-01T11:27:36.647Z</time></trkpt><trkpt lat="45.9488733" lon="11.6175132"><ele>1305.3333333333335</ele><time>2026-05-01T11:27:37.65Z</time></trkpt><trkpt lat="45.9488492" lon="11.6174158"><ele>1304.6666666666667</ele><time>2026-05-01T11:27:38.647Z</time></trkpt><trkpt lat="45.9488117" lon="11.6173191"><ele>1304.0</ele><time>2026-05-01T11:27:39.643Z</time></trkpt><trkpt lat="45.9487639" lon="11.6172231"><ele>1304.0</ele><time>2026-05-01T11:27:40.655Z</time></trkpt><trkpt lat="45.9487117" lon="11.6171233"><ele>1304.0</ele><time>2026-05-01T11:27:41.649Z</time></trkpt><trkpt lat="45.9486576" lon="11.6170095"><ele>1304.0</ele><time>2026-05-01T11:27:42.639Z</time></trkpt><trkpt lat="45.9486049" lon="11.6169007"><ele>1304.0</ele><time>2026-05-01T11:27:43.649Z</time></trkpt><trkpt lat="45.9485367" lon="11.6167997"><ele>1304.0</ele><time>2026-05-01T11:27:44.643Z</time></trkpt><trkpt lat="45.9484424" lon="11.6167259"><ele>1303.25</ele><time>2026-05-01T11:27:45.644Z</time></trkpt><trkpt lat="45.9483284" lon="11.6166911"><ele>1302.5</ele><time>2026-05-01T11:27:46.641Z</time></trkpt><trkpt lat="45.9482113" lon="11.6166991"><ele>1301.75</ele><time>2026-05-01T11:27:47.646Z</time></trkpt><trkpt lat="45.9480929" lon="11.6167094"><ele>1301.0</ele><time>2026-05-01T11:27:48.655Z</time></trkpt><trkpt lat="45.9479798" lon="11.6167482"><ele>1301.0</ele><time>2026-05-01T11:27:49.639Z</time></trkpt><trkpt lat="45.9478674" lon="11.6167766"><ele>1301.0</ele><time>2026-05-01T11:27:50.632Z</time></trkpt><trkpt lat="45.9477548" lon="11.6167924"><ele>1301.0</ele><time>2026-05-01T11:27:51.64Z</time></trkpt><trkpt lat="45.9476408" lon="11.6167959"><ele>1301.0</ele><time>2026-05-01T11:27:52.644Z</time></trkpt><trkpt lat="45.9475324" lon="11.6167712"><ele>1301.6</ele><time>2026-05-01T11:27:53.652Z</time></trkpt><trkpt lat="45.9474317" lon="11.6167245"><ele>1302.1999999999998</ele><time>2026-05-01T11:27:54.658Z</time></trkpt><trkpt lat="45.9473377" lon="11.6166668"><ele>1302.8000000000002</ele><time>2026-05-01T11:27:55.657Z</time></trkpt><trkpt lat="45.9472612" lon="11.6165993"><ele>1303.4</ele><time>2026-05-01T11:27:56.657Z</time></trkpt><trkpt lat="45.9472084" lon="11.6165145"><ele>1304.0</ele><time>2026-05-01T11:27:57.661Z</time></trkpt><trkpt lat="45.9471834" lon="11.6164154"><ele>1304.0</ele><time>2026-05-01T11:27:58.656Z</time></trkpt><trkpt lat="45.9471777" lon="11.6163247"><ele>1304.0</ele><time>2026-05-01T11:27:59.648Z</time></trkpt><trkpt lat="45.9471823" lon="11.6161758"><ele>1304.0</ele><time>2026-05-01T11:28:01.654Z</time></trkpt><trkpt lat="45.9472017" lon="11.6160739"><ele>1304.0</ele><time>2026-05-01T11:28:04.65Z</time></trkpt><trkpt lat="45.9471496" lon="11.6161895"><ele>1304.0</ele><time>2026-05-01T11:28:09.658Z</time></trkpt><trkpt lat="45.9471579" lon="11.6162988"><ele>1304.0</ele><time>2026-05-01T11:28:10.65Z</time></trkpt><trkpt lat="45.9471718" lon="11.6164057"><ele>1304.0</ele><time>2026-05-01T11:28:11.659Z</time></trkpt><trkpt lat="45.9471865" lon="11.6165544"><ele>1304.0</ele><time>2026-05-01T11:28:13.648Z</time></trkpt><trkpt lat="45.9471236" lon="11.6165995"><ele>1304.0</ele><time>2026-05-01T11:28:16.668Z</time></trkpt><trkpt lat="45.9470328" lon="11.6164837"><ele>1304.0</ele><time>2026-05-01T11:28:18.655Z</time></trkpt><trkpt lat="45.9469863" lon="11.6163878"><ele>1304.0</ele><time>2026-05-01T11:28:19.657Z</time></trkpt><trkpt lat="45.9469394" lon="11.6162674"><ele>1304.4</ele><time>2026-05-01T11:28:20.645Z</time></trkpt><trkpt lat="45.9468895" lon="11.6161302"><ele>1304.8000000000002</ele><time>2026-05-01T11:28:21.655Z</time></trkpt><trkpt lat="45.9468388" lon="11.6159831"><ele>1305.1999999999998</ele><time>2026-05-01T11:28:22.659Z</time></trkpt><trkpt lat="45.9467902" lon="11.6158395"><ele>1305.6</ele><time>2026-05-01T11:28:23.654Z</time></trkpt><trkpt lat="45.9467439" lon="11.6157088"><ele>1306.0</ele><time>2026-05-01T11:28:24.66Z</time></trkpt><trkpt lat="45.9467019" lon="11.6155923"><ele>1305.1428571428573</ele><time>2026-05-01T11:28:25.652Z</time></trkpt><trkpt lat="45.9466645" lon="11.6154945"><ele>1304.2857142857142</ele><time>2026-05-01T11:28:26.658Z</time></trkpt><trkpt lat="45.9466222" lon="11.6154159"><ele>1303.4285714285716</ele><time>2026-05-01T11:28:27.654Z</time></trkpt><trkpt lat="45.9465728" lon="11.6153558"><ele>1302.5714285714287</ele><time>2026-05-01T11:28:28.646Z</time></trkpt><trkpt lat="45.9465103" lon="11.6153157"><ele>1301.7142857142858</ele><time>2026-05-01T11:28:29.656Z</time></trkpt><trkpt lat="45.9464399" lon="11.6153012"><ele>1300.857142857143</ele><time>2026-05-01T11:28:30.653Z</time></trkpt><trkpt lat="45.9463643" lon="11.6153102"><ele>1300.0</ele><time>2026-05-01T11:28:31.651Z</time></trkpt><trkpt lat="45.9462921" lon="11.6153405"><ele>1300.0</ele><time>2026-05-01T11:28:32.651Z</time></trkpt><trkpt lat="45.9462219" lon="11.615393"><ele>1300.0</ele><time>2026-05-01T11:28:33.658Z</time></trkpt><trkpt lat="45.9461587" lon="11.6154527"><ele>1300.0</ele><time>2026-05-01T11:28:34.657Z</time></trkpt><trkpt lat="45.9461024" lon="11.6154934"><ele>1300.0</ele><time>2026-05-01T11:28:35.673Z</time></trkpt><trkpt lat="45.946004" lon="11.615513"><ele>1300.0</ele><time>2026-05-01T11:28:37.667Z</time></trkpt><trkpt lat="45.9458973" lon="11.6154468"><ele>1300.0</ele><time>2026-05-01T11:28:39.65Z</time></trkpt><trkpt lat="45.9457901" lon="11.6154043"><ele>1299.1666666666665</ele><time>2026-05-01T11:28:41.655Z</time></trkpt><trkpt lat="45.9456811" lon="11.6154994"><ele>1298.3333333333333</ele><time>2026-05-01T11:28:43.672Z</time></trkpt><trkpt lat="45.9456336" lon="11.6155716"><ele>1297.5</ele><time>2026-05-01T11:28:44.662Z</time></trkpt><trkpt lat="45.9455837" lon="11.6156458"><ele>1296.6666666666667</ele><time>2026-05-01T11:28:45.681Z</time></trkpt><trkpt lat="45.9455364" lon="11.6157322"><ele>1295.8333333333335</ele><time>2026-05-01T11:28:46.642Z</time></trkpt><trkpt lat="45.945489" lon="11.6158211"><ele>1295.0</ele><time>2026-05-01T11:28:47.648Z</time></trkpt><trkpt lat="45.9454442" lon="11.6159129"><ele>1295.0</ele><time>2026-05-01T11:28:48.645Z</time></trkpt><trkpt lat="45.9453954" lon="11.6160159"><ele>1295.0</ele><time>2026-05-01T11:28:49.637Z</time></trkpt><trkpt lat="45.9453458" lon="11.6161114"><ele>1295.0</ele><time>2026-05-01T11:28:50.639Z</time></trkpt><trkpt lat="45.945297" lon="11.6162036"><ele>1295.0</ele><time>2026-05-01T11:28:51.641Z</time></trkpt><trkpt lat="45.9452484" lon="11.616281"><ele>1295.0</ele><time>2026-05-01T11:28:52.672Z</time></trkpt><trkpt lat="45.9451632" lon="11.6163817"><ele>1295.0</ele><time>2026-05-01T11:28:54.671Z</time></trkpt><trkpt lat="45.9450864" lon="11.6164508"><ele>1294.6</ele><time>2026-05-01T11:28:56.656Z</time></trkpt><trkpt lat="45.9450285" lon="11.6165045"><ele>1294.2</ele><time>2026-05-01T11:28:58.665Z</time></trkpt><trkpt lat="45.9449677" lon="11.6165835"><ele>1293.8000000000002</ele><time>2026-05-01T11:29:19.64Z</time></trkpt><trkpt lat="45.9449138" lon="11.6167079"><ele>1293.4</ele><time>2026-05-01T11:29:21.639Z</time></trkpt><trkpt lat="45.9448541" lon="11.6168816"><ele>1293.0</ele><time>2026-05-01T11:29:23.642Z</time></trkpt><trkpt lat="45.9448232" lon="11.6169894"><ele>1292.5</ele><time>2026-05-01T11:29:24.645Z</time></trkpt><trkpt lat="45.9447906" lon="11.6171016"><ele>1292.0</ele><time>2026-05-01T11:29:25.644Z</time></trkpt><trkpt lat="45.944759" lon="11.6172141"><ele>1291.5</ele><time>2026-05-01T11:29:26.641Z</time></trkpt><trkpt lat="45.9447309" lon="11.617327"><ele>1291.0</ele><time>2026-05-01T11:29:27.638Z</time></trkpt><trkpt lat="45.944707" lon="11.6174407"><ele>1290.5</ele><time>2026-05-01T11:29:28.642Z</time></trkpt><trkpt lat="45.9446849" lon="11.6175546"><ele>1290.0</ele><time>2026-05-01T11:29:29.635Z</time></trkpt><trkpt lat="45.9446779" lon="11.6176828"><ele>1290.0</ele><time>2026-05-01T11:29:30.642Z</time></trkpt><trkpt lat="45.9446747" lon="11.6178071"><ele>1290.0</ele><time>2026-05-01T11:29:31.646Z</time></trkpt><trkpt lat="45.9446683" lon="11.6179284"><ele>1290.0</ele><time>2026-05-01T11:29:32.637Z</time></trkpt><trkpt lat="45.9446571" lon="11.6180337"><ele>1290.0</ele><time>2026-05-01T11:29:33.642Z</time></trkpt><trkpt lat="45.9446388" lon="11.618136"><ele>1290.0</ele><time>2026-05-01T11:29:34.638Z</time></trkpt><trkpt lat="45.9446214" lon="11.6182341"><ele>1290.0</ele><time>2026-05-01T11:29:35.64Z</time></trkpt><trkpt lat="45.9445957" lon="11.6183227"><ele>1289.857142857143</ele><time>2026-05-01T11:29:36.635Z</time></trkpt><trkpt lat="45.9445723" lon="11.6184148"><ele>1289.7142857142856</ele><time>2026-05-01T11:29:37.637Z</time></trkpt><trkpt lat="45.9445424" lon="11.6185094"><ele>1289.5714285714284</ele><time>2026-05-01T11:29:38.648Z</time></trkpt><trkpt lat="45.9445075" lon="11.6186026"><ele>1289.4285714285716</ele><time>2026-05-01T11:29:39.635Z</time></trkpt><trkpt lat="45.9444672" lon="11.6186954"><ele>1289.2857142857142</ele><time>2026-05-01T11:29:40.642Z</time></trkpt><trkpt lat="45.9444211" lon="11.6187885"><ele>1289.142857142857</ele><time>2026-05-01T11:29:41.64Z</time></trkpt><trkpt lat="45.9443688" lon="11.6188741"><ele>1289.0</ele><time>2026-05-01T11:29:42.648Z</time></trkpt><trkpt lat="45.9443156" lon="11.6189601"><ele>1288.8000000000002</ele><time>2026-05-01T11:29:43.678Z</time></trkpt><trkpt lat="45.9442453" lon="11.6190459"><ele>1288.6000000000001</ele><time>2026-05-01T11:29:44.64Z</time></trkpt><trkpt lat="45.9441737" lon="11.6191316"><ele>1288.4</ele><time>2026-05-01T11:29:45.637Z</time></trkpt><trkpt lat="45.9441051" lon="11.6192111"><ele>1288.2</ele><time>2026-05-01T11:29:46.643Z</time></trkpt><trkpt lat="45.9440315" lon="11.6193027"><ele>1288.0</ele><time>2026-05-01T11:29:47.637Z</time></trkpt><trkpt lat="45.943958" lon="11.619389"><ele>1288.0</ele><time>2026-05-01T11:29:48.648Z</time></trkpt><trkpt lat="45.9438887" lon="11.6194745"><ele>1288.0</ele><time>2026-05-01T11:29:49.635Z</time></trkpt><trkpt lat="45.9438318" lon="11.619579"><ele>1288.0</ele><time>2026-05-01T11:29:50.64Z</time></trkpt><trkpt lat="45.9437876" lon="11.6196886"><ele>1288.0</ele><time>2026-05-01T11:29:51.646Z</time></trkpt><trkpt lat="45.9437591" lon="11.6198067"><ele>1288.0</ele><time>2026-05-01T11:29:52.636Z</time></trkpt><trkpt lat="45.9437303" lon="11.6199239"><ele>1288.0</ele><time>2026-05-01T11:29:53.639Z</time></trkpt><trkpt lat="45.9437178" lon="11.6200468"><ele>1288.142857142857</ele><time>2026-05-01T11:29:54.637Z</time></trkpt><trkpt lat="45.9437054" lon="11.6201687"><ele>1288.2857142857142</ele><time>2026-05-01T11:29:55.641Z</time></trkpt><trkpt lat="45.9436974" lon="11.6202768"><ele>1288.4285714285716</ele><time>2026-05-01T11:29:56.647Z</time></trkpt><trkpt lat="45.9436834" lon="11.6203692"><ele>1288.5714285714284</ele><time>2026-05-01T11:29:57.639Z</time></trkpt><trkpt lat="45.9436555" lon="11.6204532"><ele>1288.7142857142858</ele><time>2026-05-01T11:29:58.634Z</time></trkpt><trkpt lat="45.9436078" lon="11.620519"><ele>1288.857142857143</ele><time>2026-05-01T11:29:59.643Z</time></trkpt><trkpt lat="45.9435417" lon="11.6205723"><ele>1289.0</ele><time>2026-05-01T11:30:00.635Z</time></trkpt><trkpt lat="45.9434659" lon="11.6206198"><ele>1288.6666666666667</ele><time>2026-05-01T11:30:01.65Z</time></trkpt><trkpt lat="45.9433867" lon="11.6206636"><ele>1288.3333333333335</ele><time>2026-05-01T11:30:02.641Z</time></trkpt><trkpt lat="45.9433093" lon="11.6207065"><ele>1288.0</ele><time>2026-05-01T11:30:03.652Z</time></trkpt><trkpt lat="45.9432425" lon="11.6207498"><ele>1287.6666666666667</ele><time>2026-05-01T11:30:04.643Z</time></trkpt><trkpt lat="45.9431829" lon="11.6207896"><ele>1287.3333333333333</ele><time>2026-05-01T11:30:05.641Z</time></trkpt><trkpt lat="45.9431277" lon="11.6208537"><ele>1287.0</ele><time>2026-05-01T11:30:06.643Z</time></trkpt><trkpt lat="45.94307" lon="11.6209421"><ele>1287.0</ele><time>2026-05-01T11:30:07.649Z</time></trkpt><trkpt lat="45.9430215" lon="11.6210333"><ele>1287.0</ele><time>2026-05-01T11:30:08.658Z</time></trkpt><trkpt lat="45.9429762" lon="11.621124"><ele>1287.0</ele><time>2026-05-01T11:30:09.648Z</time></trkpt><trkpt lat="45.9429493" lon="11.621235"><ele>1287.0</ele><time>2026-05-01T11:30:10.647Z</time></trkpt><trkpt lat="45.9429389" lon="11.6213496"><ele>1287.0</ele><time>2026-05-01T11:30:11.644Z</time></trkpt><trkpt lat="45.9429283" lon="11.6214579"><ele>1287.0</ele><time>2026-05-01T11:30:12.64Z</time></trkpt><trkpt lat="45.9429155" lon="11.6215555"><ele>1288.0</ele><time>2026-05-01T11:30:13.642Z</time></trkpt><trkpt lat="45.9428682" lon="11.6216256"><ele>1289.0</ele><time>2026-05-01T11:30:14.642Z</time></trkpt><trkpt lat="45.9427661" lon="11.6217"><ele>1290.0</ele><time>2026-05-01T11:30:16.634Z</time></trkpt><trkpt lat="45.9426877" lon="11.621709"><ele>1291.0</ele><time>2026-05-01T11:30:17.639Z</time></trkpt><trkpt lat="45.9426002" lon="11.6217226"><ele>1292.0</ele><time>2026-05-01T11:30:18.634Z</time></trkpt><trkpt lat="45.9425225" lon="11.6217606"><ele>1293.0</ele><time>2026-05-01T11:30:19.647Z</time></trkpt><trkpt lat="45.9424626" lon="11.6218119"><ele>1293.0</ele><time>2026-05-01T11:30:20.637Z</time></trkpt><trkpt lat="45.9424179" lon="11.6218997"><ele>1293.0</ele><time>2026-05-01T11:30:21.637Z</time></trkpt><trkpt lat="45.9423937" lon="11.621997"><ele>1293.0</ele><time>2026-05-01T11:30:22.642Z</time></trkpt><trkpt lat="45.9423765" lon="11.6220903"><ele>1293.0</ele><time>2026-05-01T11:30:23.634Z</time></trkpt><trkpt lat="45.9423417" lon="11.6221741"><ele>1293.0</ele><time>2026-05-01T11:30:24.633Z</time></trkpt><trkpt lat="45.9422944" lon="11.6222589"><ele>1293.0</ele><time>2026-05-01T11:30:25.641Z</time></trkpt><trkpt lat="45.9422471" lon="11.6223203"><ele>1293.0</ele><time>2026-05-01T11:30:26.64Z</time></trkpt><trkpt lat="45.9421848" lon="11.6223627"><ele>1293.5</ele><time>2026-05-01T11:30:27.637Z</time></trkpt><trkpt lat="45.9421129" lon="11.622384"><ele>1294.0</ele><time>2026-05-01T11:30:28.646Z</time></trkpt><trkpt lat="45.9420344" lon="11.6223974"><ele>1294.5</ele><time>2026-05-01T11:30:29.638Z</time></trkpt><trkpt lat="45.941955" lon="11.6224125"><ele>1295.0</ele><time>2026-05-01T11:30:30.639Z</time></trkpt><trkpt lat="45.9418677" lon="11.6224306"><ele>1295.5</ele><time>2026-05-01T11:30:31.641Z</time></trkpt><trkpt lat="45.9417885" lon="11.6224761"><ele>1296.0</ele><time>2026-05-01T11:30:32.636Z</time></trkpt><trkpt lat="45.9417116" lon="11.6225411"><ele>1296.5</ele><time>2026-05-01T11:30:33.636Z</time></trkpt><trkpt lat="45.9416461" lon="11.6226251"><ele>1297.0</ele><time>2026-05-01T11:30:34.645Z</time></trkpt><trkpt lat="45.9415864" lon="11.6227224"><ele>1297.5</ele><time>2026-05-01T11:30:35.645Z</time></trkpt><trkpt lat="45.9415264" lon="11.6228205"><ele>1298.0</ele><time>2026-05-01T11:30:36.65Z</time></trkpt><trkpt lat="45.9414615" lon="11.62291"><ele>1298.5</ele><time>2026-05-01T11:30:37.635Z</time></trkpt><trkpt lat="45.9413959" lon="11.6229999"><ele>1299.0</ele><time>2026-05-01T11:30:38.649Z</time></trkpt><trkpt lat="45.941341" lon="11.6230962"><ele>1298.5</ele><time>2026-05-01T11:30:39.639Z</time></trkpt><trkpt lat="45.9412941" lon="11.623205"><ele>1298.0</ele><time>2026-05-01T11:30:40.645Z</time></trkpt><trkpt lat="45.941256" lon="11.6233204"><ele>1297.5</ele><time>2026-05-01T11:30:41.645Z</time></trkpt><trkpt lat="45.9412205" lon="11.6234299"><ele>1297.0</ele><time>2026-05-01T11:30:42.64Z</time></trkpt><trkpt lat="45.9411875" lon="11.6235234"><ele>1296.5</ele><time>2026-05-01T11:30:43.635Z</time></trkpt><trkpt lat="45.9411517" lon="11.6236008"><ele>1296.0</ele><time>2026-05-01T11:30:44.642Z</time></trkpt><trkpt lat="45.94105" lon="11.6237023"><ele>1296.0</ele><time>2026-05-01T11:30:46.645Z</time></trkpt><trkpt lat="45.9409826" lon="11.6237232"><ele>1296.0</ele><time>2026-05-01T11:30:47.641Z</time></trkpt><trkpt lat="45.9409039" lon="11.623728"><ele>1296.0</ele><time>2026-05-01T11:30:48.64Z</time></trkpt><trkpt lat="45.9408192" lon="11.6237297"><ele>1296.0</ele><time>2026-05-01T11:30:49.645Z</time></trkpt><trkpt lat="45.94073" lon="11.6237391"><ele>1296.0</ele><time>2026-05-01T11:30:50.639Z</time></trkpt><trkpt lat="45.9406365" lon="11.6237522"><ele>1296.0</ele><time>2026-05-01T11:30:51.645Z</time></trkpt><trkpt lat="45.9405449" lon="11.623758"><ele>1292.6</ele><time>2026-05-01T11:30:52.642Z</time></trkpt><trkpt lat="45.940453" lon="11.6237558"><ele>1289.1999999999998</ele><time>2026-05-01T11:30:53.64Z</time></trkpt><trkpt lat="45.9403599" lon="11.6237576"><ele>1285.8000000000002</ele><time>2026-05-01T11:30:54.637Z</time></trkpt><trkpt lat="45.9402673" lon="11.6237746"><ele>1282.4</ele><time>2026-05-01T11:30:55.634Z</time></trkpt><trkpt lat="45.9401815" lon="11.6238098"><ele>1279.0</ele><time>2026-05-01T11:30:56.632Z</time></trkpt><trkpt lat="45.940098" lon="11.6238603"><ele>1280.5</ele><time>2026-05-01T11:30:57.642Z</time></trkpt><trkpt lat="45.9400082" lon="11.6239185"><ele>1282.0</ele><time>2026-05-01T11:30:58.639Z</time></trkpt><trkpt lat="45.9399256" lon="11.6239769"><ele>1283.5</ele><time>2026-05-01T11:30:59.632Z</time></trkpt><trkpt lat="45.9398525" lon="11.6240405"><ele>1285.0</ele><time>2026-05-01T11:31:00.644Z</time></trkpt><trkpt lat="45.9397803" lon="11.6241032"><ele>1286.5</ele><time>2026-05-01T11:31:01.642Z</time></trkpt><trkpt lat="45.9397153" lon="11.6241789"><ele>1288.0</ele><time>2026-05-01T11:31:02.641Z</time></trkpt><trkpt lat="45.9396647" lon="11.6242854"><ele>1288.0</ele><time>2026-05-01T11:31:03.646Z</time></trkpt><trkpt lat="45.939613" lon="11.624393"><ele>1288.0</ele><time>2026-05-01T11:31:04.65Z</time></trkpt><trkpt lat="45.9395527" lon="11.624496"><ele>1288.0</ele><time>2026-05-01T11:31:05.639Z</time></trkpt><trkpt lat="45.9394876" lon="11.6245896"><ele>1288.0</ele><time>2026-05-01T11:31:06.646Z</time></trkpt><trkpt lat="45.9394187" lon="11.6246861"><ele>1288.0</ele><time>2026-05-01T11:31:07.642Z</time></trkpt><trkpt lat="45.939353" lon="11.6247828"><ele>1287.4</ele><time>2026-05-01T11:31:08.647Z</time></trkpt><trkpt lat="45.9392894" lon="11.6248763"><ele>1286.8000000000002</ele><time>2026-05-01T11:31:09.642Z</time></trkpt><trkpt lat="45.9392348" lon="11.6249821"><ele>1286.2</ele><time>2026-05-01T11:31:10.64Z</time></trkpt><trkpt lat="45.9391894" lon="11.6251006"><ele>1285.6</ele><time>2026-05-01T11:31:11.641Z</time></trkpt><trkpt lat="45.9391525" lon="11.6252217"><ele>1285.0</ele><time>2026-05-01T11:31:12.64Z</time></trkpt><trkpt lat="45.9391194" lon="11.6253501"><ele>1285.0</ele><time>2026-05-01T11:31:13.642Z</time></trkpt><trkpt lat="45.939092" lon="11.6254683"><ele>1285.0</ele><time>2026-05-01T11:31:14.645Z</time></trkpt><trkpt lat="45.9390637" lon="11.6255879"><ele>1285.0</ele><time>2026-05-01T11:31:15.636Z</time></trkpt><trkpt lat="45.9390264" lon="11.6257033"><ele>1285.0</ele><time>2026-05-01T11:31:16.636Z</time></trkpt><trkpt lat="45.9390067" lon="11.6258286"><ele>1285.0</ele><time>2026-05-01T11:31:17.633Z</time></trkpt><trkpt lat="45.9389863" lon="11.6259558"><ele>1285.0</ele><time>2026-05-01T11:31:18.642Z</time></trkpt><trkpt lat="45.9389637" lon="11.6260782"><ele>1284.5</ele><time>2026-05-01T11:31:19.636Z</time></trkpt><trkpt lat="45.9389451" lon="11.6261975"><ele>1284.0</ele><time>2026-05-01T11:31:20.643Z</time></trkpt><trkpt lat="45.9389265" lon="11.6263213"><ele>1283.5</ele><time>2026-05-01T11:31:21.647Z</time></trkpt><trkpt lat="45.9389168" lon="11.6264369"><ele>1283.0</ele><time>2026-05-01T11:31:22.64Z</time></trkpt><trkpt lat="45.9389164" lon="11.6265468"><ele>1282.5</ele><time>2026-05-01T11:31:23.661Z</time></trkpt><trkpt lat="45.9389123" lon="11.6266593"><ele>1282.0</ele><time>2026-05-01T11:31:24.638Z</time></trkpt><trkpt lat="45.9389158" lon="11.6267777"><ele>1282.0</ele><time>2026-05-01T11:31:25.637Z</time></trkpt><trkpt lat="45.9389238" lon="11.6269046"><ele>1282.0</ele><time>2026-05-01T11:31:26.638Z</time></trkpt><trkpt lat="45.938933" lon="11.6270293"><ele>1282.0</ele><time>2026-05-01T11:31:27.637Z</time></trkpt><trkpt lat="45.938946" lon="11.6271643"><ele>1282.0</ele><time>2026-05-01T11:31:28.636Z</time></trkpt><trkpt lat="45.9389531" lon="11.6272944"><ele>1282.0</ele><time>2026-05-01T11:31:29.638Z</time></trkpt><trkpt lat="45.9389601" lon="11.6274207"><ele>1282.0</ele><time>2026-05-01T11:31:30.64Z</time></trkpt><trkpt lat="45.9389639" lon="11.6275421"><ele>1282.0</ele><time>2026-05-01T11:31:31.636Z</time></trkpt><trkpt lat="45.9389658" lon="11.6276615"><ele>1282.0</ele><time>2026-05-01T11:31:32.632Z</time></trkpt><trkpt lat="45.938957" lon="11.6277897"><ele>1282.0</ele><time>2026-05-01T11:31:33.638Z</time></trkpt><trkpt lat="45.9389489" lon="11.6279151"><ele>1282.0</ele><time>2026-05-01T11:31:34.639Z</time></trkpt><trkpt lat="45.9389372" lon="11.6280418"><ele>1282.0</ele><time>2026-05-01T11:31:35.64Z</time></trkpt><trkpt lat="45.9389248" lon="11.6281663"><ele>1282.0</ele><time>2026-05-01T11:31:36.637Z</time></trkpt><trkpt lat="45.9389136" lon="11.6282976"><ele>1282.0</ele><time>2026-05-01T11:31:37.643Z</time></trkpt><trkpt lat="45.9389053" lon="11.6284245"><ele>1282.0</ele><time>2026-05-01T11:31:38.637Z</time></trkpt><trkpt lat="45.9388958" lon="11.6285481"><ele>1282.0</ele><time>2026-05-01T11:31:39.639Z</time></trkpt><trkpt lat="45.9388976" lon="11.6286809"><ele>1282.0</ele><time>2026-05-01T11:31:40.639Z</time></trkpt><trkpt lat="45.9389051" lon="11.6288029"><ele>1282.0</ele><time>2026-05-01T11:31:41.638Z</time></trkpt><trkpt lat="45.9389086" lon="11.6289242"><ele>1282.0</ele><time>2026-05-01T11:31:42.643Z</time></trkpt><trkpt lat="45.9389118" lon="11.629037"><ele>1280.5</ele><time>2026-05-01T11:31:43.64Z</time></trkpt><trkpt lat="45.9388942" lon="11.629151"><ele>1279.0</ele><time>2026-05-01T11:31:44.637Z</time></trkpt><trkpt lat="45.938868" lon="11.6292605"><ele>1277.5</ele><time>2026-05-01T11:31:45.641Z</time></trkpt><trkpt lat="45.9388362" lon="11.6293657"><ele>1276.0</ele><time>2026-05-01T11:31:46.641Z</time></trkpt><trkpt lat="45.9387929" lon="11.6294741"><ele>1274.5</ele><time>2026-05-01T11:31:47.642Z</time></trkpt><trkpt lat="45.9387465" lon="11.6295747"><ele>1273.0</ele><time>2026-05-01T11:31:48.639Z</time></trkpt><trkpt lat="45.9387037" lon="11.6296594"><ele>1270.8333333333333</ele><time>2026-05-01T11:31:49.638Z</time></trkpt><trkpt lat="45.9386629" lon="11.6297396"><ele>1268.6666666666665</ele><time>2026-05-01T11:31:50.643Z</time></trkpt><trkpt lat="45.9386267" lon="11.6298172"><ele>1266.5</ele><time>2026-05-01T11:31:51.64Z</time></trkpt><trkpt lat="45.9385352" lon="11.6299549"><ele>1264.3333333333333</ele><time>2026-05-01T11:31:53.638Z</time></trkpt><trkpt lat="45.9384757" lon="11.6300168"><ele>1262.1666666666667</ele><time>2026-05-01T11:31:54.66Z</time></trkpt><trkpt lat="45.93841" lon="11.6300745"><ele>1260.0</ele><time>2026-05-01T11:31:55.638Z</time></trkpt><trkpt lat="45.9383415" lon="11.6301294"><ele>1260.6666666666667</ele><time>2026-05-01T11:31:56.64Z</time></trkpt><trkpt lat="45.9382737" lon="11.6301813"><ele>1261.3333333333333</ele><time>2026-05-01T11:31:57.637Z</time></trkpt><trkpt lat="45.9382047" lon="11.6302318"><ele>1262.0</ele><time>2026-05-01T11:31:58.639Z</time></trkpt><trkpt lat="45.9381327" lon="11.6302815"><ele>1262.6666666666665</ele><time>2026-05-01T11:31:59.638Z</time></trkpt><trkpt lat="45.9380595" lon="11.630332"><ele>1263.3333333333333</ele><time>2026-05-01T11:32:00.636Z</time></trkpt><trkpt lat="45.9379886" lon="11.6303808"><ele>1264.0</ele><time>2026-05-01T11:32:01.632Z</time></trkpt><trkpt lat="45.9379164" lon="11.6304288"><ele>1264.0</ele><time>2026-05-01T11:32:02.64Z</time></trkpt><trkpt lat="45.9378487" lon="11.6304742"><ele>1264.0</ele><time>2026-05-01T11:32:03.641Z</time></trkpt><trkpt lat="45.9377936" lon="11.6305215"><ele>1264.0</ele><time>2026-05-01T11:32:04.637Z</time></trkpt><trkpt lat="45.9377068" lon="11.6306171"><ele>1264.0</ele><time>2026-05-01T11:32:06.637Z</time></trkpt><trkpt lat="45.9376542" lon="11.6306888"><ele>1264.0</ele><time>2026-05-01T11:32:08.639Z</time></trkpt><trkpt lat="45.9375935" lon="11.6307768"><ele>1264.0</ele><time>2026-05-01T11:32:11.645Z</time></trkpt><trkpt lat="45.9375355" lon="11.6308729"><ele>1264.2857142857144</ele><time>2026-05-01T11:32:14.643Z</time></trkpt><trkpt lat="45.9374963" lon="11.6309473"><ele>1264.5714285714287</ele><time>2026-05-01T11:32:16.639Z</time></trkpt><trkpt lat="45.9374578" lon="11.631027"><ele>1264.857142857143</ele><time>2026-05-01T11:32:18.641Z</time></trkpt><trkpt lat="45.9374141" lon="11.6311092"><ele>1265.1428571428573</ele><time>2026-05-01T11:32:21.645Z</time></trkpt><trkpt lat="45.9373615" lon="11.631197"><ele>1265.4285714285716</ele><time>2026-05-01T11:32:24.642Z</time></trkpt><trkpt lat="45.9373126" lon="11.6312668"><ele>1265.7142857142858</ele><time>2026-05-01T11:32:26.645Z</time></trkpt><trkpt lat="45.9372617" lon="11.631351"><ele>1266.0</ele><time>2026-05-01T11:32:28.64Z</time></trkpt><trkpt lat="45.9372052" lon="11.6314287"><ele>1266.0</ele><time>2026-05-01T11:32:30.646Z</time></trkpt><trkpt lat="45.9371276" lon="11.6315114"><ele>1266.0</ele><time>2026-05-01T11:32:32.639Z</time></trkpt><trkpt lat="45.9370611" lon="11.631609"><ele>1266.0</ele><time>2026-05-01T11:32:34.639Z</time></trkpt><trkpt lat="45.93699" lon="11.6317154"><ele>1266.0</ele><time>2026-05-01T11:32:36.634Z</time></trkpt><trkpt lat="45.9369051" lon="11.6317976"><ele>1266.0</ele><time>2026-05-01T11:32:38.638Z</time></trkpt><trkpt lat="45.936817" lon="11.6318474"><ele>1270.5</ele><time>2026-05-01T11:32:40.643Z</time></trkpt><trkpt lat="45.9367093" lon="11.631857"><ele>1275.0</ele><time>2026-05-01T11:32:42.642Z</time></trkpt><trkpt lat="45.9365924" lon="11.6318352"><ele>1279.5</ele><time>2026-05-01T11:32:44.635Z</time></trkpt><trkpt lat="45.9364784" lon="11.6317833"><ele>1284.0</ele><time>2026-05-01T11:32:46.644Z</time></trkpt><trkpt lat="45.9363598" lon="11.6317432"><ele>1284.0</ele><time>2026-05-01T11:32:48.637Z</time></trkpt><trkpt lat="45.9362942" lon="11.6317282"><ele>1284.0</ele><time>2026-05-01T11:32:49.638Z</time></trkpt><trkpt lat="45.9362247" lon="11.631717"><ele>1284.0</ele><time>2026-05-01T11:32:50.639Z</time></trkpt><trkpt lat="45.9361602" lon="11.6317031"><ele>1284.0</ele><time>2026-05-01T11:32:51.636Z</time></trkpt><trkpt lat="45.9360343" lon="11.6316909"><ele>1284.0</ele><time>2026-05-01T11:32:53.639Z</time></trkpt><trkpt lat="45.935966" lon="11.631701"><ele>1284.0</ele><time>2026-05-01T11:32:54.639Z</time></trkpt><trkpt lat="45.9358992" lon="11.6317103"><ele>1283.7142857142856</ele><time>2026-05-01T11:32:55.634Z</time></trkpt><trkpt lat="45.9358246" lon="11.6317194"><ele>1283.4285714285713</ele><time>2026-05-01T11:32:56.633Z</time></trkpt><trkpt lat="45.9357444" lon="11.6317368"><ele>1283.142857142857</ele><time>2026-05-01T11:32:57.64Z</time></trkpt><trkpt lat="45.9356687" lon="11.6317482"><ele>1282.8571428571427</ele><time>2026-05-01T11:32:58.636Z</time></trkpt><trkpt lat="45.935605" lon="11.6317614"><ele>1282.5714285714284</ele><time>2026-05-01T11:32:59.633Z</time></trkpt><trkpt lat="45.9355326" lon="11.6317774"><ele>1282.2857142857142</ele><time>2026-05-01T11:33:00.639Z</time></trkpt><trkpt lat="45.9354565" lon="11.6317931"><ele>1282.0</ele><time>2026-05-01T11:33:01.638Z</time></trkpt><trkpt lat="45.9353818" lon="11.6318148"><ele>1282.0</ele><time>2026-05-01T11:33:02.632Z</time></trkpt><trkpt lat="45.9353148" lon="11.6318313"><ele>1282.0</ele><time>2026-05-01T11:33:03.635Z</time></trkpt><trkpt lat="45.9352439" lon="11.6318539"><ele>1282.0</ele><time>2026-05-01T11:33:04.633Z</time></trkpt><trkpt lat="45.9351562" lon="11.6318893"><ele>1282.0</ele><time>2026-05-01T11:33:05.634Z</time></trkpt><trkpt lat="45.9350747" lon="11.63191"><ele>1282.0</ele><time>2026-05-01T11:33:06.638Z</time></trkpt><trkpt lat="45.9349911" lon="11.631928"><ele>1282.0</ele><time>2026-05-01T11:33:07.635Z</time></trkpt><trkpt lat="45.9349109" lon="11.6319562"><ele>1283.1666666666665</ele><time>2026-05-01T11:33:08.641Z</time></trkpt><trkpt lat="45.9348205" lon="11.6319727"><ele>1284.3333333333333</ele><time>2026-05-01T11:33:09.635Z</time></trkpt><trkpt lat="45.934737" lon="11.6319813"><ele>1285.5</ele><time>2026-05-01T11:33:10.637Z</time></trkpt><trkpt lat="45.9346601" lon="11.6319948"><ele>1286.6666666666667</ele><time>2026-05-01T11:33:11.637Z</time></trkpt><trkpt lat="45.9345909" lon="11.6320027"><ele>1287.8333333333335</ele><time>2026-05-01T11:33:12.638Z</time></trkpt><trkpt lat="45.9344829" lon="11.6320121"><ele>1289.0</ele><time>2026-05-01T11:33:14.64Z</time></trkpt><trkpt lat="45.9343555" lon="11.6320004"><ele>1290.5</ele><time>2026-05-01T11:33:16.639Z</time></trkpt><trkpt lat="45.9342894" lon="11.6319955"><ele>1292.0</ele><time>2026-05-01T11:33:17.635Z</time></trkpt><trkpt lat="45.9341708" lon="11.6319686"><ele>1293.5</ele><time>2026-05-01T11:33:19.631Z</time></trkpt><trkpt lat="45.9340519" lon="11.6319317"><ele>1295.0</ele><time>2026-05-01T11:33:21.633Z</time></trkpt><trkpt lat="45.9339831" lon="11.6319222"><ele>1296.5</ele><time>2026-05-01T11:33:22.634Z</time></trkpt><trkpt lat="45.933915" lon="11.6319244"><ele>1298.0</ele><time>2026-05-01T11:33:23.637Z</time></trkpt><trkpt lat="45.9338103" lon="11.6319085"><ele>1298.0</ele><time>2026-05-01T11:33:25.634Z</time></trkpt><trkpt lat="45.9336883" lon="11.6318776"><ele>1298.0</ele><time>2026-05-01T11:33:27.636Z</time></trkpt><trkpt lat="45.9335817" lon="11.6318467"><ele>1298.0</ele><time>2026-05-01T11:33:29.635Z</time></trkpt><trkpt lat="45.9334743" lon="11.6318063"><ele>1298.0</ele><time>2026-05-01T11:33:31.638Z</time></trkpt><trkpt lat="45.9333563" lon="11.6317564"><ele>1300.2</ele><time>2026-05-01T11:33:33.635Z</time></trkpt><trkpt lat="45.9332855" lon="11.6317456"><ele>1302.4</ele><time>2026-05-01T11:33:34.63Z</time></trkpt><trkpt lat="45.9332148" lon="11.6317512"><ele>1304.6000000000001</ele><time>2026-05-01T11:33:35.633Z</time></trkpt><trkpt lat="45.933112" lon="11.6318075"><ele>1306.8000000000002</ele><time>2026-05-01T11:33:37.633Z</time></trkpt><trkpt lat="45.9330169" lon="11.6319105"><ele>1309.0</ele><time>2026-05-01T11:33:39.638Z</time></trkpt><trkpt lat="45.9329147" lon="11.6319894"><ele>1303.5</ele><time>2026-05-01T11:33:41.639Z</time></trkpt><trkpt lat="45.9328118" lon="11.632046"><ele>1298.0</ele><time>2026-05-01T11:33:43.633Z</time></trkpt><trkpt lat="45.9327034" lon="11.6320827"><ele>1292.5</ele><time>2026-05-01T11:33:45.64Z</time></trkpt><trkpt lat="45.9325829" lon="11.6321345"><ele>1287.0</ele><time>2026-05-01T11:33:47.633Z</time></trkpt><trkpt lat="45.9324779" lon="11.6321757"><ele>1287.0</ele><time>2026-05-01T11:33:49.642Z</time></trkpt><trkpt lat="45.9323781" lon="11.6321858"><ele>1287.0</ele><time>2026-05-01T11:33:51.647Z</time></trkpt><trkpt lat="45.9323092" lon="11.632187"><ele>1287.0</ele><time>2026-05-01T11:33:53.646Z</time></trkpt><trkpt lat="45.9322237" lon="11.6322064"><ele>1287.0</ele><time>2026-05-01T11:33:56.65Z</time></trkpt><trkpt lat="45.9321241" lon="11.6322646"><ele>1287.0</ele><time>2026-05-01T11:34:30.64Z</time></trkpt><trkpt lat="45.9320635" lon="11.6323005"><ele>1287.0</ele><time>2026-05-01T11:34:34.64Z</time></trkpt><trkpt lat="45.9319969" lon="11.6323167"><ele>1287.0</ele><time>2026-05-01T11:34:39.645Z</time></trkpt><trkpt lat="45.9319342" lon="11.6323297"><ele>1287.0</ele><time>2026-05-01T11:34:42.639Z</time></trkpt><trkpt lat="45.9318586" lon="11.6323586"><ele>1287.0</ele><time>2026-05-01T11:34:44.639Z</time></trkpt><trkpt lat="45.9317972" lon="11.6323809"><ele>1287.0</ele><time>2026-05-01T11:34:45.643Z</time></trkpt><trkpt lat="45.9316731" lon="11.6324187"><ele>1287.0</ele><time>2026-05-01T11:34:47.637Z</time></trkpt><trkpt lat="45.9316043" lon="11.6324437"><ele>1287.0</ele><time>2026-05-01T11:34:48.64Z</time></trkpt><trkpt lat="45.9315366" lon="11.6324645"><ele>1290.8333333333333</ele><time>2026-05-01T11:34:49.641Z</time></trkpt><trkpt lat="45.9314673" lon="11.6324844"><ele>1294.6666666666667</ele><time>2026-05-01T11:34:50.649Z</time></trkpt><trkpt lat="45.9313964" lon="11.6325036"><ele>1298.5</ele><time>2026-05-01T11:34:51.646Z</time></trkpt><trkpt lat="45.9313272" lon="11.6325264"><ele>1302.3333333333335</ele><time>2026-05-01T11:34:52.638Z</time></trkpt><trkpt lat="45.9312655" lon="11.6325451"><ele>1306.1666666666667</ele><time>2026-05-01T11:34:53.643Z</time></trkpt><trkpt lat="45.9311495" lon="11.6325634"><ele>1310.0</ele><time>2026-05-01T11:34:55.636Z</time></trkpt><trkpt lat="45.9310343" lon="11.6325766"><ele>1310.0</ele><time>2026-05-01T11:34:57.641Z</time></trkpt><trkpt lat="45.9309194" lon="11.632585"><ele>1310.0</ele><time>2026-05-01T11:34:59.632Z</time></trkpt><trkpt lat="45.9308538" lon="11.6325858"><ele>1310.0</ele><time>2026-05-01T11:35:00.641Z</time></trkpt><trkpt lat="45.9307856" lon="11.6325897"><ele>1310.0</ele><time>2026-05-01T11:35:01.646Z</time></trkpt><trkpt lat="45.9307184" lon="11.6326104"><ele>1310.0</ele><time>2026-05-01T11:35:02.639Z</time></trkpt><trkpt lat="45.9306527" lon="11.6326532"><ele>1310.0</ele><time>2026-05-01T11:35:03.633Z</time></trkpt><trkpt lat="45.9305864" lon="11.6327018"><ele>1309.7142857142858</ele><time>2026-05-01T11:35:04.635Z</time></trkpt><trkpt lat="45.9305226" lon="11.6327495"><ele>1309.4285714285713</ele><time>2026-05-01T11:35:05.636Z</time></trkpt><trkpt lat="45.930457" lon="11.632793"><ele>1309.142857142857</ele><time>2026-05-01T11:35:06.633Z</time></trkpt><trkpt lat="45.9303914" lon="11.6328402"><ele>1308.857142857143</ele><time>2026-05-01T11:35:07.639Z</time></trkpt><trkpt lat="45.9303286" lon="11.6328853"><ele>1308.5714285714287</ele><time>2026-05-01T11:35:08.642Z</time></trkpt><trkpt lat="45.9302668" lon="11.6329255"><ele>1308.2857142857142</ele><time>2026-05-01T11:35:09.635Z</time></trkpt><trkpt lat="45.9302059" lon="11.6329646"><ele>1308.0</ele><time>2026-05-01T11:35:10.639Z</time></trkpt><trkpt lat="45.930088" lon="11.6330494"><ele>1313.1666666666667</ele><time>2026-05-01T11:35:12.636Z</time></trkpt><trkpt lat="45.9300222" lon="11.633094"><ele>1318.3333333333333</ele><time>2026-05-01T11:35:13.649Z</time></trkpt><trkpt lat="45.9299598" lon="11.6331389"><ele>1323.5</ele><time>2026-05-01T11:35:14.645Z</time></trkpt><trkpt lat="45.9299025" lon="11.6331999"><ele>1328.6666666666665</ele><time>2026-05-01T11:35:15.64Z</time></trkpt><trkpt lat="45.9298399" lon="11.6333265"><ele>1333.8333333333333</ele><time>2026-05-01T11:35:17.643Z</time></trkpt><trkpt lat="45.9297683" lon="11.6334326"><ele>1339.0</ele><time>2026-05-01T11:35:19.642Z</time></trkpt><trkpt lat="45.9297181" lon="11.6334974"><ele>1339.0</ele><time>2026-05-01T11:35:20.64Z</time></trkpt><trkpt lat="45.9296593" lon="11.6335592"><ele>1339.0</ele><time>2026-05-01T11:35:21.639Z</time></trkpt><trkpt lat="45.929596" lon="11.6336302"><ele>1339.0</ele><time>2026-05-01T11:35:22.631Z</time></trkpt><trkpt lat="45.9295376" lon="11.6337147"><ele>1339.0</ele><time>2026-05-01T11:35:23.642Z</time></trkpt><trkpt lat="45.9294791" lon="11.6338186"><ele>1339.0</ele><time>2026-05-01T11:35:24.64Z</time></trkpt><trkpt lat="45.9294255" lon="11.6339201"><ele>1339.0</ele><time>2026-05-01T11:35:25.635Z</time></trkpt><trkpt lat="45.9293645" lon="11.6340088"><ele>1341.5</ele><time>2026-05-01T11:35:26.635Z</time></trkpt><trkpt lat="45.929301" lon="11.6340855"><ele>1344.0</ele><time>2026-05-01T11:35:27.64Z</time></trkpt><trkpt lat="45.9292365" lon="11.6341716"><ele>1346.5</ele><time>2026-05-01T11:35:28.638Z</time></trkpt><trkpt lat="45.9291759" lon="11.6342615"><ele>1349.0</ele><time>2026-05-01T11:35:29.636Z</time></trkpt><trkpt lat="45.9291198" lon="11.6343247"><ele>1351.5</ele><time>2026-05-01T11:35:30.632Z</time></trkpt><trkpt lat="45.9290538" lon="11.6343984"><ele>1354.0</ele><time>2026-05-01T11:35:31.639Z</time></trkpt><trkpt lat="45.9289845" lon="11.6344683"><ele>1351.6666666666665</ele><time>2026-05-01T11:35:32.633Z</time></trkpt><trkpt lat="45.9289194" lon="11.6345611"><ele>1349.3333333333333</ele><time>2026-05-01T11:35:33.642Z</time></trkpt><trkpt lat="45.9288626" lon="11.6346541"><ele>1347.0</ele><time>2026-05-01T11:35:34.635Z</time></trkpt><trkpt lat="45.9288109" lon="11.6347465"><ele>1344.6666666666667</ele><time>2026-05-01T11:35:35.639Z</time></trkpt><trkpt lat="45.9287827" lon="11.6348407"><ele>1342.3333333333335</ele><time>2026-05-01T11:35:36.637Z</time></trkpt><trkpt lat="45.9287569" lon="11.6349299"><ele>1340.0</ele><time>2026-05-01T11:35:37.631Z</time></trkpt><trkpt lat="45.9287294" lon="11.6350231"><ele>1340.0</ele><time>2026-05-01T11:35:38.638Z</time></trkpt><trkpt lat="45.9286878" lon="11.6351228"><ele>1340.0</ele><time>2026-05-01T11:35:39.638Z</time></trkpt><trkpt lat="45.9286554" lon="11.6352211"><ele>1340.0</ele><time>2026-05-01T11:35:40.634Z</time></trkpt><trkpt lat="45.9286307" lon="11.6353232"><ele>1340.0</ele><time>2026-05-01T11:35:41.639Z</time></trkpt><trkpt lat="45.9286307" lon="11.6354153"><ele>1340.0</ele><time>2026-05-01T11:35:42.636Z</time></trkpt><trkpt lat="45.9286369" lon="11.6355169"><ele>1340.0</ele><time>2026-05-01T11:35:43.639Z</time></trkpt><trkpt lat="45.9286506" lon="11.6356378"><ele>1338.5</ele><time>2026-05-01T11:35:44.631Z</time></trkpt><trkpt lat="45.9286576" lon="11.6357499"><ele>1337.0</ele><time>2026-05-01T11:35:45.634Z</time></trkpt><trkpt lat="45.9286509" lon="11.6358635"><ele>1335.5</ele><time>2026-05-01T11:35:46.644Z</time></trkpt><trkpt lat="45.9286393" lon="11.6359753"><ele>1334.0</ele><time>2026-05-01T11:35:47.642Z</time></trkpt><trkpt lat="45.9286213" lon="11.6360906"><ele>1332.5</ele><time>2026-05-01T11:35:48.638Z</time></trkpt><trkpt lat="45.9285966" lon="11.6362035"><ele>1331.0</ele><time>2026-05-01T11:35:49.638Z</time></trkpt><trkpt lat="45.9285621" lon="11.63631"><ele>1331.0</ele><time>2026-05-01T11:35:50.646Z</time></trkpt><trkpt lat="45.9285193" lon="11.6364153"><ele>1331.0</ele><time>2026-05-01T11:35:51.64Z</time></trkpt><trkpt lat="45.92847" lon="11.6365245"><ele>1331.0</ele><time>2026-05-01T11:35:52.645Z</time></trkpt><trkpt lat="45.9284203" lon="11.6366324"><ele>1331.0</ele><time>2026-05-01T11:35:53.64Z</time></trkpt><trkpt lat="45.9283769" lon="11.6367179"><ele>1331.0</ele><time>2026-05-01T11:35:54.643Z</time></trkpt><trkpt lat="45.9283006" lon="11.6368153"><ele>1331.0</ele><time>2026-05-01T11:35:56.643Z</time></trkpt><trkpt lat="45.9282037" lon="11.6368343"><ele>1335.1666666666667</ele><time>2026-05-01T11:35:58.66Z</time></trkpt><trkpt lat="45.9281069" lon="11.6368796"><ele>1339.3333333333335</ele><time>2026-05-01T11:36:00.638Z</time></trkpt><trkpt lat="45.928061" lon="11.6369507"><ele>1343.5</ele><time>2026-05-01T11:36:01.639Z</time></trkpt><trkpt lat="45.928012" lon="11.6370296"><ele>1347.6666666666667</ele><time>2026-05-01T11:36:02.652Z</time></trkpt><trkpt lat="45.9279702" lon="11.6371271"><ele>1351.8333333333333</ele><time>2026-05-01T11:36:03.636Z</time></trkpt><trkpt lat="45.9279354" lon="11.6372274"><ele>1356.0</ele><time>2026-05-01T11:36:04.632Z</time></trkpt><trkpt lat="45.9279032" lon="11.6373345"><ele>1356.0</ele><time>2026-05-01T11:36:05.64Z</time></trkpt><trkpt lat="45.9278819" lon="11.637444"><ele>1356.0</ele><time>2026-05-01T11:36:06.636Z</time></trkpt><trkpt lat="45.9278671" lon="11.6375569"><ele>1356.0</ele><time>2026-05-01T11:36:07.641Z</time></trkpt><trkpt lat="45.9278498" lon="11.6376709"><ele>1356.0</ele><time>2026-05-01T11:36:08.649Z</time></trkpt><trkpt lat="45.9278324" lon="11.637783"><ele>1356.0</ele><time>2026-05-01T11:36:09.638Z</time></trkpt><trkpt lat="45.9277961" lon="11.6378917"><ele>1356.0</ele><time>2026-05-01T11:36:10.635Z</time></trkpt><trkpt lat="45.927745" lon="11.6379898"><ele>1355.3333333333333</ele><time>2026-05-01T11:36:11.643Z</time></trkpt><trkpt lat="45.9276857" lon="11.6380858"><ele>1354.6666666666667</ele><time>2026-05-01T11:36:12.643Z</time></trkpt><trkpt lat="45.9276219" lon="11.6381709"><ele>1354.0</ele><time>2026-05-01T11:36:13.634Z</time></trkpt><trkpt lat="45.9275557" lon="11.6382408"><ele>1353.3333333333335</ele><time>2026-05-01T11:36:14.638Z</time></trkpt><trkpt lat="45.9274825" lon="11.6382921"><ele>1352.6666666666667</ele><time>2026-05-01T11:36:15.643Z</time></trkpt><trkpt lat="45.9274023" lon="11.638342"><ele>1352.0</ele><time>2026-05-01T11:36:16.636Z</time></trkpt><trkpt lat="45.9273191" lon="11.6384055"><ele>1354.6</ele><time>2026-05-01T11:36:17.635Z</time></trkpt><trkpt lat="45.9272316" lon="11.6384799"><ele>1357.1999999999998</ele><time>2026-05-01T11:36:18.64Z</time></trkpt><trkpt lat="45.927149" lon="11.6385553"><ele>1359.8</ele><time>2026-05-01T11:36:19.634Z</time></trkpt><trkpt lat="45.9270707" lon="11.6386376"><ele>1362.4</ele><time>2026-05-01T11:36:20.637Z</time></trkpt><trkpt lat="45.9269967" lon="11.6387148"><ele>1365.0</ele><time>2026-05-01T11:36:21.642Z</time></trkpt><trkpt lat="45.9269431" lon="11.6388168"><ele>1365.0</ele><time>2026-05-01T11:36:22.647Z</time></trkpt><trkpt lat="45.9269048" lon="11.6389293"><ele>1365.0</ele><time>2026-05-01T11:36:23.644Z</time></trkpt><trkpt lat="45.9268776" lon="11.639053"><ele>1365.0</ele><time>2026-05-01T11:36:24.636Z</time></trkpt><trkpt lat="45.9268587" lon="11.6391893"><ele>1365.0</ele><time>2026-05-01T11:36:25.645Z</time></trkpt><trkpt lat="45.9268416" lon="11.639331"><ele>1365.0</ele><time>2026-05-01T11:36:26.642Z</time></trkpt><trkpt lat="45.9268236" lon="11.6394638"><ele>1364.4</ele><time>2026-05-01T11:36:27.639Z</time></trkpt><trkpt lat="45.9268075" lon="11.6395752"><ele>1363.8</ele><time>2026-05-01T11:36:28.636Z</time></trkpt><trkpt lat="45.9267869" lon="11.6397243"><ele>1363.1999999999998</ele><time>2026-05-01T11:36:30.637Z</time></trkpt><trkpt lat="45.9267461" lon="11.6398514"><ele>1362.6</ele><time>2026-05-01T11:36:32.639Z</time></trkpt><trkpt lat="45.9267287" lon="11.6399411"><ele>1362.0</ele><time>2026-05-01T11:37:03.643Z</time></trkpt><trkpt lat="45.9267015" lon="11.6400842"><ele>1362.1999999999998</ele><time>2026-05-01T11:37:05.636Z</time></trkpt><trkpt lat="45.9266764" lon="11.640192"><ele>1362.4</ele><time>2026-05-01T11:37:06.641Z</time></trkpt><trkpt lat="45.9266555" lon="11.6403151"><ele>1362.6</ele><time>2026-05-01T11:37:07.645Z</time></trkpt><trkpt lat="45.9266506" lon="11.6404517"><ele>1362.8000000000002</ele><time>2026-05-01T11:37:08.634Z</time></trkpt><trkpt lat="45.9266625" lon="11.640596"><ele>1363.0</ele><time>2026-05-01T11:37:09.636Z</time></trkpt><trkpt lat="45.926686" lon="11.6407454"><ele>1363.0</ele><time>2026-05-01T11:37:10.635Z</time></trkpt><trkpt lat="45.9267124" lon="11.6409018"><ele>1363.0</ele><time>2026-05-01T11:37:11.652Z</time></trkpt><trkpt lat="45.9267293" lon="11.6410633"><ele>1363.0</ele><time>2026-05-01T11:37:12.633Z</time></trkpt><trkpt lat="45.9267213" lon="11.6412111"><ele>1363.0</ele><time>2026-05-01T11:37:13.639Z</time></trkpt><trkpt lat="45.9266903" lon="11.6413415"><ele>1363.0</ele><time>2026-05-01T11:37:14.642Z</time></trkpt><trkpt lat="45.9266358" lon="11.6414528"><ele>1362.8000000000002</ele><time>2026-05-01T11:37:15.641Z</time></trkpt><trkpt lat="45.9265576" lon="11.6415345"><ele>1362.6</ele><time>2026-05-01T11:37:16.649Z</time></trkpt><trkpt lat="45.9264634" lon="11.6415938"><ele>1362.4</ele><time>2026-05-01T11:37:17.639Z</time></trkpt><trkpt lat="45.9263684" lon="11.6416688"><ele>1362.1999999999998</ele><time>2026-05-01T11:37:18.639Z</time></trkpt><trkpt lat="45.9262814" lon="11.6417732"><ele>1362.0</ele><time>2026-05-01T11:37:19.641Z</time></trkpt><trkpt lat="45.9262027" lon="11.6418984"><ele>1361.0</ele><time>2026-05-01T11:37:20.641Z</time></trkpt><trkpt lat="45.9261334" lon="11.6420364"><ele>1360.0</ele><time>2026-05-01T11:37:21.648Z</time></trkpt><trkpt lat="45.9260753" lon="11.6421862"><ele>1359.0</ele><time>2026-05-01T11:37:22.642Z</time></trkpt><trkpt lat="45.9260297" lon="11.6423449"><ele>1358.0</ele><time>2026-05-01T11:37:23.642Z</time></trkpt><trkpt lat="45.9259967" lon="11.6425058"><ele>1358.0</ele><time>2026-05-01T11:37:24.641Z</time></trkpt><trkpt lat="45.9259727" lon="11.6426552"><ele>1358.0</ele><time>2026-05-01T11:37:25.645Z</time></trkpt><trkpt lat="45.9259524" lon="11.6428073"><ele>1358.0</ele><time>2026-05-01T11:37:26.639Z</time></trkpt><trkpt lat="45.9259228" lon="11.6429533"><ele>1358.0</ele><time>2026-05-01T11:37:27.637Z</time></trkpt><trkpt lat="45.9258729" lon="11.6430712"><ele>1358.0</ele><time>2026-05-01T11:37:28.643Z</time></trkpt><trkpt lat="45.9257999" lon="11.6431475"><ele>1359.75</ele><time>2026-05-01T11:37:29.643Z</time></trkpt><trkpt lat="45.9257063" lon="11.6431674"><ele>1361.5</ele><time>2026-05-01T11:37:30.636Z</time></trkpt><trkpt lat="45.9255964" lon="11.6431412"><ele>1363.25</ele><time>2026-05-01T11:37:31.637Z</time></trkpt><trkpt lat="45.9254733" lon="11.6430774"><ele>1365.0</ele><time>2026-05-01T11:37:32.636Z</time></trkpt><trkpt lat="45.9253451" lon="11.6429864"><ele>1365.0</ele><time>2026-05-01T11:37:33.641Z</time></trkpt><trkpt lat="45.9252279" lon="11.6429062"><ele>1365.0</ele><time>2026-05-01T11:37:34.645Z</time></trkpt><trkpt lat="45.9251129" lon="11.6428704"><ele>1365.0</ele><time>2026-05-01T11:37:35.638Z</time></trkpt><trkpt lat="45.9249932" lon="11.6428901"><ele>1365.0</ele><time>2026-05-01T11:37:36.647Z</time></trkpt><trkpt lat="45.9248681" lon="11.6429095"><ele>1366.0</ele><time>2026-05-01T11:37:37.637Z</time></trkpt><trkpt lat="45.9247368" lon="11.6429723"><ele>1367.0</ele><time>2026-05-01T11:37:38.644Z</time></trkpt><trkpt lat="45.9246077" lon="11.6430558"><ele>1368.0</ele><time>2026-05-01T11:37:39.636Z</time></trkpt><trkpt lat="45.9244818" lon="11.6431546"><ele>1369.0</ele><time>2026-05-01T11:37:40.646Z</time></trkpt><trkpt lat="45.9243499" lon="11.6432339"><ele>1369.3333333333333</ele><time>2026-05-01T11:37:41.647Z</time></trkpt><trkpt lat="45.9242075" lon="11.6432935"><ele>1369.6666666666667</ele><time>2026-05-01T11:37:42.636Z</time></trkpt><trkpt lat="45.9240581" lon="11.6433381"><ele>1370.0</ele><time>2026-05-01T11:37:43.634Z</time></trkpt><trkpt lat="45.9239081" lon="11.6433682"><ele>1370.0</ele><time>2026-05-01T11:37:44.643Z</time></trkpt><trkpt lat="45.9237616" lon="11.6434014"><ele>1370.0</ele><time>2026-05-01T11:37:45.637Z</time></trkpt><trkpt lat="45.9236278" lon="11.6434528"><ele>1370.0</ele><time>2026-05-01T11:37:46.638Z</time></trkpt><trkpt lat="45.9235094" lon="11.6435303"><ele>1370.0</ele><time>2026-05-01T11:37:47.643Z</time></trkpt><trkpt lat="45.9234032" lon="11.6436349"><ele>1368.25</ele><time>2026-05-01T11:37:48.646Z</time></trkpt><trkpt lat="45.9233059" lon="11.643763"><ele>1366.5</ele><time>2026-05-01T11:37:49.635Z</time></trkpt><trkpt lat="45.9232154" lon="11.6439001"><ele>1364.75</ele><time>2026-05-01T11:37:50.64Z</time></trkpt><trkpt lat="45.9231318" lon="11.6440243"><ele>1363.0</ele><time>2026-05-01T11:37:51.646Z</time></trkpt><trkpt lat="45.9230456" lon="11.6441191"><ele>1363.0</ele><time>2026-05-01T11:37:52.646Z</time></trkpt><trkpt lat="45.9229537" lon="11.6441759"><ele>1363.0</ele><time>2026-05-01T11:37:53.635Z</time></trkpt><trkpt lat="45.9228665" lon="11.6442283"><ele>1363.0</ele><time>2026-05-01T11:37:54.637Z</time></trkpt><trkpt lat="45.9227615" lon="11.6441791"><ele>1363.0</ele><time>2026-05-01T11:37:55.641Z</time></trkpt><trkpt lat="45.9226512" lon="11.6441032"><ele>1363.0</ele><time>2026-05-01T11:37:56.64Z</time></trkpt><trkpt lat="45.9225854" lon="11.6439681"><ele>1362.8000000000002</ele><time>2026-05-01T11:37:57.641Z</time></trkpt><trkpt lat="45.9225225" lon="11.643831"><ele>1362.6</ele><time>2026-05-01T11:37:58.647Z</time></trkpt><trkpt lat="45.9224674" lon="11.6436666"><ele>1362.4</ele><time>2026-05-01T11:37:59.646Z</time></trkpt><trkpt lat="45.9224089" lon="11.6435329"><ele>1362.1999999999998</ele><time>2026-05-01T11:38:00.64Z</time></trkpt><trkpt lat="45.9223511" lon="11.6434235"><ele>1362.0</ele><time>2026-05-01T11:38:01.643Z</time></trkpt><trkpt lat="45.9222579" lon="11.6433916"><ele>1362.0</ele><time>2026-05-01T11:38:02.637Z</time></trkpt><trkpt lat="45.9221504" lon="11.6434084"><ele>1362.0</ele><time>2026-05-01T11:38:03.642Z</time></trkpt><trkpt lat="45.9220425" lon="11.6434882"><ele>1362.0</ele><time>2026-05-01T11:38:04.639Z</time></trkpt><trkpt lat="45.9219409" lon="11.643604"><ele>1362.0</ele><time>2026-05-01T11:38:05.644Z</time></trkpt><trkpt lat="45.9218386" lon="11.6437381"><ele>1360.0</ele><time>2026-05-01T11:38:06.641Z</time></trkpt><trkpt lat="45.9217428" lon="11.6438639"><ele>1358.0</ele><time>2026-05-01T11:38:07.645Z</time></trkpt><trkpt lat="45.9216546" lon="11.6439783"><ele>1356.0</ele><time>2026-05-01T11:38:08.642Z</time></trkpt><trkpt lat="45.9215696" lon="11.6440837"><ele>1354.0</ele><time>2026-05-01T11:38:09.648Z</time></trkpt><trkpt lat="45.9214878" lon="11.6441805"><ele>1353.6</ele><time>2026-05-01T11:38:10.638Z</time></trkpt><trkpt lat="45.9213988" lon="11.6442599"><ele>1353.2</ele><time>2026-05-01T11:38:11.682Z</time></trkpt><trkpt lat="45.9213079" lon="11.6443041"><ele>1352.8</ele><time>2026-05-01T11:38:12.639Z</time></trkpt><trkpt lat="45.9212017" lon="11.6443018"><ele>1352.3999999999999</ele><time>2026-05-01T11:38:13.637Z</time></trkpt><trkpt lat="45.9210904" lon="11.6442684"><ele>1352.0</ele><time>2026-05-01T11:38:14.642Z</time></trkpt><trkpt lat="45.9209823" lon="11.6442085"><ele>1353.25</ele><time>2026-05-01T11:38:15.64Z</time></trkpt><trkpt lat="45.9208823" lon="11.6441255"><ele>1354.5</ele><time>2026-05-01T11:38:16.64Z</time></trkpt><trkpt lat="45.9207884" lon="11.6440212"><ele>1355.75</ele><time>2026-05-01T11:38:17.643Z</time></trkpt><trkpt lat="45.9207032" lon="11.6438982"><ele>1357.0</ele><time>2026-05-01T11:38:18.643Z</time></trkpt><trkpt lat="45.9206314" lon="11.6437619"><ele>1359.1999999999998</ele><time>2026-05-01T11:38:19.641Z</time></trkpt><trkpt lat="45.9205678" lon="11.6436137"><ele>1361.4</ele><time>2026-05-01T11:38:20.641Z</time></trkpt><trkpt lat="45.92051" lon="11.6434665"><ele>1363.6</ele><time>2026-05-01T11:38:21.643Z</time></trkpt><trkpt lat="45.9204584" lon="11.6433366"><ele>1365.8000000000002</ele><time>2026-05-01T11:38:22.643Z</time></trkpt><trkpt lat="45.9204033" lon="11.6432335"><ele>1368.0</ele><time>2026-05-01T11:38:23.638Z</time></trkpt><trkpt lat="45.9203352" lon="11.6431711"><ele>1368.0</ele><time>2026-05-01T11:38:24.64Z</time></trkpt><trkpt lat="45.9202552" lon="11.6431671"><ele>1368.0</ele><time>2026-05-01T11:38:25.64Z</time></trkpt><trkpt lat="45.9201747" lon="11.6432226"><ele>1368.0</ele><time>2026-05-01T11:38:26.644Z</time></trkpt><trkpt lat="45.9200991" lon="11.6433241"><ele>1368.0</ele><time>2026-05-01T11:38:27.637Z</time></trkpt><trkpt lat="45.9200288" lon="11.643462"><ele>1368.0</ele><time>2026-05-01T11:38:28.643Z</time></trkpt><trkpt lat="45.9199567" lon="11.6436128"><ele>1362.0</ele><time>2026-05-01T11:38:29.64Z</time></trkpt><trkpt lat="45.9198821" lon="11.6437657"><ele>1356.0</ele><time>2026-05-01T11:38:30.638Z</time></trkpt><trkpt lat="45.9198039" lon="11.643907"><ele>1350.0</ele><time>2026-05-01T11:38:31.641Z</time></trkpt><trkpt lat="45.9197131" lon="11.6440288"><ele>1344.0</ele><time>2026-05-01T11:38:32.637Z</time></trkpt><trkpt lat="45.919608" lon="11.6441344"><ele>1344.0</ele><time>2026-05-01T11:38:33.635Z</time></trkpt><trkpt lat="45.9194946" lon="11.6442317"><ele>1344.0</ele><time>2026-05-01T11:38:34.646Z</time></trkpt><trkpt lat="45.9193754" lon="11.6443221"><ele>1344.0</ele><time>2026-05-01T11:38:35.641Z</time></trkpt><trkpt lat="45.9192515" lon="11.6444002"><ele>1344.0</ele><time>2026-05-01T11:38:36.651Z</time></trkpt><trkpt lat="45.9191276" lon="11.6444657"><ele>1337.5</ele><time>2026-05-01T11:38:37.638Z</time></trkpt><trkpt lat="45.9190079" lon="11.6445282"><ele>1331.0</ele><time>2026-05-01T11:38:38.637Z</time></trkpt><trkpt lat="45.9188883" lon="11.6445652"><ele>1324.5</ele><time>2026-05-01T11:38:39.64Z</time></trkpt><trkpt lat="45.9187728" lon="11.6445933"><ele>1318.0</ele><time>2026-05-01T11:38:40.636Z</time></trkpt><trkpt lat="45.9186683" lon="11.6446413"><ele>1318.0</ele><time>2026-05-01T11:38:41.636Z</time></trkpt><trkpt lat="45.9185706" lon="11.6447339"><ele>1318.0</ele><time>2026-05-01T11:38:42.63Z</time></trkpt><trkpt lat="45.9184715" lon="11.6448369"><ele>1318.0</ele><time>2026-05-01T11:38:43.636Z</time></trkpt><trkpt lat="45.9183828" lon="11.6449744"><ele>1318.0</ele><time>2026-05-01T11:38:44.641Z</time></trkpt><trkpt lat="45.918278" lon="11.6450908"><ele>1321.5</ele><time>2026-05-01T11:38:45.645Z</time></trkpt><trkpt lat="45.9181611" lon="11.6451919"><ele>1325.0</ele><time>2026-05-01T11:38:46.638Z</time></trkpt><trkpt lat="45.9180311" lon="11.6452738"><ele>1328.5</ele><time>2026-05-01T11:38:47.64Z</time></trkpt><trkpt lat="45.9178928" lon="11.6453487"><ele>1332.0</ele><time>2026-05-01T11:38:48.642Z</time></trkpt><trkpt lat="45.9177452" lon="11.6454336"><ele>1325.6666666666667</ele><time>2026-05-01T11:38:49.638Z</time></trkpt><trkpt lat="45.9175937" lon="11.6455223"><ele>1319.3333333333335</ele><time>2026-05-01T11:38:50.641Z</time></trkpt><trkpt lat="45.9174418" lon="11.6456284"><ele>1313.0</ele><time>2026-05-01T11:38:51.645Z</time></trkpt><trkpt lat="45.9172867" lon="11.6457269"><ele>1313.0</ele><time>2026-05-01T11:38:52.644Z</time></trkpt><trkpt lat="45.9171349" lon="11.6458453"><ele>1313.0</ele><time>2026-05-01T11:38:53.64Z</time></trkpt><trkpt lat="45.9169855" lon="11.6459672"><ele>1313.0</ele><time>2026-05-01T11:38:54.646Z</time></trkpt><trkpt lat="45.9168441" lon="11.6461156"><ele>1309.0</ele><time>2026-05-01T11:38:55.646Z</time></trkpt><trkpt lat="45.9167189" lon="11.6462686"><ele>1305.0</ele><time>2026-05-01T11:38:56.655Z</time></trkpt><trkpt lat="45.9165998" lon="11.6464107"><ele>1301.0</ele><time>2026-05-01T11:38:57.644Z</time></trkpt><trkpt lat="45.9164794" lon="11.6465481"><ele>1301.0</ele><time>2026-05-01T11:38:58.639Z</time></trkpt><trkpt lat="45.9163605" lon="11.6466862"><ele>1301.0</ele><time>2026-05-01T11:38:59.641Z</time></trkpt><trkpt lat="45.9162375" lon="11.6468224"><ele>1301.0</ele><time>2026-05-01T11:39:00.638Z</time></trkpt><trkpt lat="45.9161211" lon="11.646955"><ele>1299.0</ele><time>2026-05-01T11:39:01.643Z</time></trkpt><trkpt lat="45.9159918" lon="11.6470729"><ele>1297.0</ele><time>2026-05-01T11:39:02.637Z</time></trkpt><trkpt lat="45.9158802" lon="11.6471746"><ele>1295.0</ele><time>2026-05-01T11:39:03.639Z</time></trkpt><trkpt lat="45.9157622" lon="11.6472741"><ele>1293.0</ele><time>2026-05-01T11:39:04.644Z</time></trkpt><trkpt lat="45.9156469" lon="11.6473638"><ele>1293.0</ele><time>2026-05-01T11:39:05.646Z</time></trkpt><trkpt lat="45.9155301" lon="11.6474263"><ele>1293.0</ele><time>2026-05-01T11:39:06.638Z</time></trkpt><trkpt lat="45.9154162" lon="11.6474591"><ele>1293.0</ele><time>2026-05-01T11:39:07.644Z</time></trkpt><trkpt lat="45.9153031" lon="11.6474915"><ele>1293.0</ele><time>2026-05-01T11:39:08.643Z</time></trkpt><trkpt lat="45.9152065" lon="11.6475434"><ele>1293.0</ele><time>2026-05-01T11:39:09.64Z</time></trkpt><trkpt lat="45.9151296" lon="11.6476377"><ele>1293.0</ele><time>2026-05-01T11:39:10.637Z</time></trkpt><trkpt lat="45.9150844" lon="11.6477713"><ele>1293.0</ele><time>2026-05-01T11:39:11.639Z</time></trkpt><trkpt lat="45.9150343" lon="11.647913"><ele>1293.0</ele><time>2026-05-01T11:39:12.644Z</time></trkpt><trkpt lat="45.9149877" lon="11.6480862"><ele>1293.0</ele><time>2026-05-01T11:39:13.643Z</time></trkpt><trkpt lat="45.9149102" lon="11.648237"><ele>1289.75</ele><time>2026-05-01T11:39:14.641Z</time></trkpt><trkpt lat="45.9148245" lon="11.6483754"><ele>1286.5</ele><time>2026-05-01T11:39:15.64Z</time></trkpt><trkpt lat="45.9147213" lon="11.6484787"><ele>1283.25</ele><time>2026-05-01T11:39:16.642Z</time></trkpt><trkpt lat="45.9146277" lon="11.6485738"><ele>1280.0</ele><time>2026-05-01T11:39:17.644Z</time></trkpt><trkpt lat="45.9145164" lon="11.6485964"><ele>1280.0</ele><time>2026-05-01T11:39:18.643Z</time></trkpt><trkpt lat="45.9144189" lon="11.6485999"><ele>1280.0</ele><time>2026-05-01T11:39:19.643Z</time></trkpt><trkpt lat="45.9143245" lon="11.6485668"><ele>1280.0</ele><time>2026-05-01T11:39:20.636Z</time></trkpt><trkpt lat="45.9142174" lon="11.6484875"><ele>1280.0</ele><time>2026-05-01T11:39:21.643Z</time></trkpt><trkpt lat="45.9141206" lon="11.6483717"><ele>1280.0</ele><time>2026-05-01T11:39:22.647Z</time></trkpt><trkpt lat="45.9140367" lon="11.6482624"><ele>1280.0</ele><time>2026-05-01T11:39:23.64Z</time></trkpt><trkpt lat="45.9139323" lon="11.6482032"><ele>1280.0</ele><time>2026-05-01T11:39:24.639Z</time></trkpt><trkpt lat="45.9138261" lon="11.6481583"><ele>1280.0</ele><time>2026-05-01T11:39:25.645Z</time></trkpt><trkpt lat="45.9137048" lon="11.6481977"><ele>1280.0</ele><time>2026-05-01T11:39:26.636Z</time></trkpt><trkpt lat="45.9135777" lon="11.6482492"><ele>1280.0</ele><time>2026-05-01T11:39:27.639Z</time></trkpt><trkpt lat="45.9134552" lon="11.6482727"><ele>1280.0</ele><time>2026-05-01T11:39:28.638Z</time></trkpt><trkpt lat="45.9133387" lon="11.6482492"><ele>1280.0</ele><time>2026-05-01T11:39:29.644Z</time></trkpt><trkpt lat="45.9132272" lon="11.6482757"><ele>1280.0</ele><time>2026-05-01T11:39:30.64Z</time></trkpt><trkpt lat="45.9131324" lon="11.6483859"><ele>1278.75</ele><time>2026-05-01T11:39:31.637Z</time></trkpt><trkpt lat="45.9130587" lon="11.648514"><ele>1277.5</ele><time>2026-05-01T11:39:32.639Z</time></trkpt><trkpt lat="45.9129941" lon="11.6486665"><ele>1276.25</ele><time>2026-05-01T11:39:33.641Z</time></trkpt><trkpt lat="45.9129375" lon="11.6488174"><ele>1275.0</ele><time>2026-05-01T11:39:34.641Z</time></trkpt><trkpt lat="45.9128869" lon="11.6489492"><ele>1271.2</ele><time>2026-05-01T11:39:35.634Z</time></trkpt><trkpt lat="45.9128287" lon="11.6490479"><ele>1267.4</ele><time>2026-05-01T11:39:36.642Z</time></trkpt><trkpt lat="45.9127563" lon="11.6491058"><ele>1263.6</ele><time>2026-05-01T11:39:37.638Z</time></trkpt><trkpt lat="45.9126697" lon="11.6491158"><ele>1259.8</ele><time>2026-05-01T11:39:38.638Z</time></trkpt><trkpt lat="45.9125636" lon="11.6490639"><ele>1256.0</ele><time>2026-05-01T11:39:39.642Z</time></trkpt><trkpt lat="45.9124613" lon="11.6489889"><ele>1253.5</ele><time>2026-05-01T11:39:40.638Z</time></trkpt><trkpt lat="45.9123404" lon="11.6489083"><ele>1251.0</ele><time>2026-05-01T11:39:41.635Z</time></trkpt><trkpt lat="45.9122045" lon="11.6488173"><ele>1248.5</ele><time>2026-05-01T11:39:42.636Z</time></trkpt><trkpt lat="45.9120701" lon="11.6487284"><ele>1246.0</ele><time>2026-05-01T11:39:43.643Z</time></trkpt><trkpt lat="45.9119291" lon="11.6486394"><ele>1248.6666666666665</ele><time>2026-05-01T11:39:44.642Z</time></trkpt><trkpt lat="45.9117929" lon="11.6485402"><ele>1251.3333333333333</ele><time>2026-05-01T11:39:45.64Z</time></trkpt><trkpt lat="45.911656" lon="11.6484248"><ele>1254.0</ele><time>2026-05-01T11:39:46.639Z</time></trkpt><trkpt lat="45.9115168" lon="11.6483143"><ele>1254.0</ele><time>2026-05-01T11:39:47.643Z</time></trkpt><trkpt lat="45.9113768" lon="11.6482052"><ele>1254.0</ele><time>2026-05-01T11:39:48.632Z</time></trkpt><trkpt lat="45.911233" lon="11.6480997"><ele>1254.0</ele><time>2026-05-01T11:39:49.641Z</time></trkpt><trkpt lat="45.9110895" lon="11.6480021"><ele>1254.0</ele><time>2026-05-01T11:39:50.641Z</time></trkpt><trkpt lat="45.9109498" lon="11.6479078"><ele>1254.0</ele><time>2026-05-01T11:39:51.635Z</time></trkpt><trkpt lat="45.9108197" lon="11.6477993"><ele>1254.0</ele><time>2026-05-01T11:39:52.636Z</time></trkpt><trkpt lat="45.9106987" lon="11.6476768"><ele>1252.6666666666667</ele><time>2026-05-01T11:39:53.638Z</time></trkpt><trkpt lat="45.9105828" lon="11.6475414"><ele>1251.3333333333335</ele><time>2026-05-01T11:39:54.634Z</time></trkpt><trkpt lat="45.9104634" lon="11.6474078"><ele>1250.0</ele><time>2026-05-01T11:39:55.642Z</time></trkpt><trkpt lat="45.9103401" lon="11.6472783"><ele>1250.0</ele><time>2026-05-01T11:39:56.634Z</time></trkpt><trkpt lat="45.9102113" lon="11.6471606"><ele>1250.0</ele><time>2026-05-01T11:39:57.636Z</time></trkpt><trkpt lat="45.9100819" lon="11.647043"><ele>1250.0</ele><time>2026-05-01T11:39:58.634Z</time></trkpt><trkpt lat="45.9099472" lon="11.6469365"><ele>1247.0</ele><time>2026-05-01T11:39:59.636Z</time></trkpt><trkpt lat="45.9098181" lon="11.6468221"><ele>1244.0</ele><time>2026-05-01T11:40:00.635Z</time></trkpt><trkpt lat="45.909695" lon="11.6466867"><ele>1241.0</ele><time>2026-05-01T11:40:01.641Z</time></trkpt><trkpt lat="45.9095837" lon="11.6465315"><ele>1241.0</ele><time>2026-05-01T11:40:02.638Z</time></trkpt><trkpt lat="45.9094746" lon="11.6463769"><ele>1241.0</ele><time>2026-05-01T11:40:03.651Z</time></trkpt><trkpt lat="45.9093546" lon="11.6462357"><ele>1241.0</ele><time>2026-05-01T11:40:04.639Z</time></trkpt><trkpt lat="45.9092271" lon="11.646107"><ele>1237.3333333333335</ele><time>2026-05-01T11:40:05.635Z</time></trkpt><trkpt lat="45.9090975" lon="11.6459823"><ele>1233.6666666666667</ele><time>2026-05-01T11:40:06.63Z</time></trkpt><trkpt lat="45.9089698" lon="11.6458628"><ele>1230.0</ele><time>2026-05-01T11:40:07.631Z</time></trkpt><trkpt lat="45.9088476" lon="11.6457434"><ele>1230.0</ele><time>2026-05-01T11:40:08.636Z</time></trkpt><trkpt lat="45.9087417" lon="11.6456124"><ele>1230.0</ele><time>2026-05-01T11:40:09.641Z</time></trkpt><trkpt lat="45.9086335" lon="11.6455091"><ele>1230.0</ele><time>2026-05-01T11:40:10.634Z</time></trkpt><trkpt lat="45.9085308" lon="11.6454231"><ele>1230.0</ele><time>2026-05-01T11:40:11.636Z</time></trkpt><trkpt lat="45.908431" lon="11.645346"><ele>1229.6666666666667</ele><time>2026-05-01T11:40:12.638Z</time></trkpt><trkpt lat="45.908341" lon="11.6452703"><ele>1229.3333333333333</ele><time>2026-05-01T11:40:13.642Z</time></trkpt><trkpt lat="45.9082711" lon="11.6452061"><ele>1229.0</ele><time>2026-05-01T11:40:14.635Z</time></trkpt><trkpt lat="45.9082194" lon="11.6451445"><ele>1228.6666666666665</ele><time>2026-05-01T11:40:15.643Z</time></trkpt><trkpt lat="45.9081441" lon="11.6451218"><ele>1228.3333333333333</ele><time>2026-05-01T11:40:17.658Z</time></trkpt><trkpt lat="45.908153" lon="11.6452827"><ele>1228.0</ele><time>2026-05-01T11:40:19.639Z</time></trkpt><trkpt lat="45.9082363" lon="11.645388"><ele>1228.5</ele><time>2026-05-01T11:40:20.645Z</time></trkpt><trkpt lat="45.9083351" lon="11.6454922"><ele>1229.0</ele><time>2026-05-01T11:40:21.642Z</time></trkpt><trkpt lat="45.9084401" lon="11.6456053"><ele>1229.5</ele><time>2026-05-01T11:40:22.638Z</time></trkpt><trkpt lat="45.9085467" lon="11.6457186"><ele>1230.0</ele><time>2026-05-01T11:40:23.639Z</time></trkpt><trkpt lat="45.9086467" lon="11.6458447"><ele>1230.0</ele><time>2026-05-01T11:40:24.645Z</time></trkpt><trkpt lat="45.9087414" lon="11.6460044"><ele>1230.0</ele><time>2026-05-01T11:40:25.644Z</time></trkpt><trkpt lat="45.9088328" lon="11.6461782"><ele>1230.0</ele><time>2026-05-01T11:40:26.641Z</time></trkpt><trkpt lat="45.9089279" lon="11.6463214"><ele>1230.0</ele><time>2026-05-01T11:40:27.642Z</time></trkpt><trkpt lat="45.9090174" lon="11.6464891"><ele>1232.75</ele><time>2026-05-01T11:40:28.636Z</time></trkpt><trkpt lat="45.9091065" lon="11.6466391"><ele>1235.5</ele><time>2026-05-01T11:40:29.643Z</time></trkpt><trkpt lat="45.9092015" lon="11.6467764"><ele>1238.25</ele><time>2026-05-01T11:40:30.633Z</time></trkpt><trkpt lat="45.9092752" lon="11.6469289"><ele>1241.0</ele><time>2026-05-01T11:40:31.636Z</time></trkpt><trkpt lat="45.9093366" lon="11.6470996"><ele>1233.75</ele><time>2026-05-01T11:40:32.631Z</time></trkpt><trkpt lat="45.9094055" lon="11.6472624"><ele>1226.5</ele><time>2026-05-01T11:40:33.631Z</time></trkpt><trkpt lat="45.9094819" lon="11.6474325"><ele>1219.25</ele><time>2026-05-01T11:40:34.64Z</time></trkpt><trkpt lat="45.909588" lon="11.6475574"><ele>1212.0</ele><time>2026-05-01T11:40:35.635Z</time></trkpt><trkpt lat="45.9096879" lon="11.6476868"><ele>1204.5</ele><time>2026-05-01T11:40:36.634Z</time></trkpt><trkpt lat="45.9097781" lon="11.64783"><ele>1197.0</ele><time>2026-05-01T11:40:37.64Z</time></trkpt><trkpt lat="45.9098519" lon="11.6479996"><ele>1189.5</ele><time>2026-05-01T11:40:38.635Z</time></trkpt><trkpt lat="45.9099184" lon="11.6481807"><ele>1182.0</ele><time>2026-05-01T11:40:39.638Z</time></trkpt><trkpt lat="45.9099867" lon="11.6483413"><ele>1182.0</ele><time>2026-05-01T11:40:40.637Z</time></trkpt><trkpt lat="45.9100568" lon="11.6485206"><ele>1182.0</ele><time>2026-05-01T11:40:41.639Z</time></trkpt><trkpt lat="45.9101345" lon="11.6486918"><ele>1182.0</ele><time>2026-05-01T11:40:42.633Z</time></trkpt><trkpt lat="45.910224" lon="11.6488616"><ele>1182.0</ele><time>2026-05-01T11:40:43.64Z</time></trkpt><trkpt lat="45.910328" lon="11.6490138"><ele>1183.6666666666667</ele><time>2026-05-01T11:40:44.639Z</time></trkpt><trkpt lat="45.9104432" lon="11.6491512"><ele>1185.3333333333335</ele><time>2026-05-01T11:40:45.642Z</time></trkpt><trkpt lat="45.9105658" lon="11.649287"><ele>1187.0</ele><time>2026-05-01T11:40:46.633Z</time></trkpt><trkpt lat="45.9106845" lon="11.6494211"><ele>1186.75</ele><time>2026-05-01T11:40:47.635Z</time></trkpt><trkpt lat="45.910794" lon="11.6495524"><ele>1186.5</ele><time>2026-05-01T11:40:48.638Z</time></trkpt><trkpt lat="45.9108925" lon="11.6496677"><ele>1186.25</ele><time>2026-05-01T11:40:49.636Z</time></trkpt><trkpt lat="45.9109819" lon="11.649762"><ele>1186.0</ele><time>2026-05-01T11:40:50.644Z</time></trkpt><trkpt lat="45.9110615" lon="11.6498332"><ele>1186.0</ele><time>2026-05-01T11:40:51.639Z</time></trkpt><trkpt lat="45.9111277" lon="11.6498879"><ele>1186.0</ele><time>2026-05-01T11:40:52.639Z</time></trkpt><trkpt lat="45.9111961" lon="11.6499841"><ele>1186.0</ele><time>2026-05-01T11:40:54.631Z</time></trkpt><trkpt lat="45.9111287" lon="11.6500097"><ele>1186.0</ele><time>2026-05-01T11:40:56.639Z</time></trkpt><trkpt lat="45.9110523" lon="11.6499412"><ele>1186.0</ele><time>2026-05-01T11:40:57.634Z</time></trkpt><trkpt lat="45.9109637" lon="11.6498626"><ele>1186.0</ele><time>2026-05-01T11:40:58.653Z</time></trkpt><trkpt lat="45.910855" lon="11.6497909"><ele>1178.5</ele><time>2026-05-01T11:40:59.639Z</time></trkpt><trkpt lat="45.9107386" lon="11.6497191"><ele>1171.0</ele><time>2026-05-01T11:41:00.646Z</time></trkpt><trkpt lat="45.9106141" lon="11.6496439"><ele>1163.5</ele><time>2026-05-01T11:41:01.652Z</time></trkpt><trkpt lat="45.9104728" lon="11.6495768"><ele>1156.0</ele><time>2026-05-01T11:41:02.642Z</time></trkpt><trkpt lat="45.910338" lon="11.6495047"><ele>1155.3333333333333</ele><time>2026-05-01T11:41:03.639Z</time></trkpt><trkpt lat="45.9102003" lon="11.6494204"><ele>1154.6666666666667</ele><time>2026-05-01T11:41:04.642Z</time></trkpt><trkpt lat="45.9100649" lon="11.6493162"><ele>1154.0</ele><time>2026-05-01T11:41:05.643Z</time></trkpt><trkpt lat="45.9099366" lon="11.6492028"><ele>1154.0</ele><time>2026-05-01T11:41:06.638Z</time></trkpt><trkpt lat="45.909817" lon="11.6490912"><ele>1154.0</ele><time>2026-05-01T11:41:07.64Z</time></trkpt><trkpt lat="45.9097096" lon="11.6489735"><ele>1154.0</ele><time>2026-05-01T11:41:08.649Z</time></trkpt><trkpt lat="45.9096099" lon="11.6488563"><ele>1154.0</ele><time>2026-05-01T11:41:09.644Z</time></trkpt><trkpt lat="45.9095171" lon="11.648715"><ele>1151.25</ele><time>2026-05-01T11:41:10.64Z</time></trkpt><trkpt lat="45.9094214" lon="11.6485775"><ele>1148.5</ele><time>2026-05-01T11:41:11.64Z</time></trkpt><trkpt lat="45.9093097" lon="11.6484796"><ele>1145.75</ele><time>2026-05-01T11:41:12.648Z</time></trkpt><trkpt lat="45.9091917" lon="11.6484229"><ele>1143.0</ele><time>2026-05-01T11:41:13.642Z</time></trkpt><trkpt lat="45.9090701" lon="11.6483692"><ele>1143.0</ele><time>2026-05-01T11:41:14.636Z</time></trkpt><trkpt lat="45.9089537" lon="11.6482942"><ele>1143.0</ele><time>2026-05-01T11:41:15.64Z</time></trkpt><trkpt lat="45.9088487" lon="11.6481942"><ele>1143.0</ele><time>2026-05-01T11:41:16.635Z</time></trkpt><trkpt lat="45.9087481" lon="11.6480804"><ele>1143.0</ele><time>2026-05-01T11:41:17.637Z</time></trkpt><trkpt lat="45.9086429" lon="11.6479697"><ele>1143.0</ele><time>2026-05-01T11:41:18.65Z</time></trkpt><trkpt lat="45.9085291" lon="11.6478763"><ele>1143.0</ele><time>2026-05-01T11:41:19.642Z</time></trkpt><trkpt lat="45.9084096" lon="11.6477914"><ele>1143.0</ele><time>2026-05-01T11:41:20.637Z</time></trkpt><trkpt lat="45.9082843" lon="11.6477021"><ele>1143.0</ele><time>2026-05-01T11:41:21.641Z</time></trkpt><trkpt lat="45.908157" lon="11.6475975"><ele>1138.0</ele><time>2026-05-01T11:41:22.649Z</time></trkpt><trkpt lat="45.9080334" lon="11.6474743"><ele>1133.0</ele><time>2026-05-01T11:41:23.693Z</time></trkpt><trkpt lat="45.9079048" lon="11.6473498"><ele>1128.0</ele><time>2026-05-01T11:41:24.645Z</time></trkpt><trkpt lat="45.9077702" lon="11.6472393"><ele>1128.0</ele><time>2026-05-01T11:41:25.66Z</time></trkpt><trkpt lat="45.9076293" lon="11.6471467"><ele>1128.0</ele><time>2026-05-01T11:41:26.681Z</time></trkpt><trkpt lat="45.9074877" lon="11.6470547"><ele>1128.0</ele><time>2026-05-01T11:41:27.667Z</time></trkpt><trkpt lat="45.9073463" lon="11.6469546"><ele>1128.75</ele><time>2026-05-01T11:41:28.636Z</time></trkpt><trkpt lat="45.9072114" lon="11.6468469"><ele>1129.5</ele><time>2026-05-01T11:41:29.645Z</time></trkpt><trkpt lat="45.9070848" lon="11.6467402"><ele>1130.25</ele><time>2026-05-01T11:41:30.627Z</time></trkpt><trkpt lat="45.9069621" lon="11.6466344"><ele>1131.0</ele><time>2026-05-01T11:41:31.645Z</time></trkpt><trkpt lat="45.9068423" lon="11.6465382"><ele>1123.25</ele><time>2026-05-01T11:41:32.659Z</time></trkpt><trkpt lat="45.9067267" lon="11.646442"><ele>1115.5</ele><time>2026-05-01T11:41:33.649Z</time></trkpt><trkpt lat="45.9066159" lon="11.6463459"><ele>1107.75</ele><time>2026-05-01T11:41:34.645Z</time></trkpt><trkpt lat="45.9065112" lon="11.6462458"><ele>1100.0</ele><time>2026-05-01T11:41:35.637Z</time></trkpt><trkpt lat="45.9064141" lon="11.64614"><ele>1105.0</ele><time>2026-05-01T11:41:36.649Z</time></trkpt><trkpt lat="45.906322" lon="11.6460314"><ele>1110.0</ele><time>2026-05-01T11:41:37.632Z</time></trkpt><trkpt lat="45.9062281" lon="11.6459333"><ele>1115.0</ele><time>2026-05-01T11:41:38.634Z</time></trkpt><trkpt lat="45.9061268" lon="11.6458616"><ele>1120.0</ele><time>2026-05-01T11:41:39.637Z</time></trkpt><trkpt lat="45.9060199" lon="11.6458219"><ele>1120.0</ele><time>2026-05-01T11:41:40.643Z</time></trkpt><trkpt lat="45.9059135" lon="11.6458118"><ele>1120.0</ele><time>2026-05-01T11:41:41.637Z</time></trkpt><trkpt lat="45.9058126" lon="11.6458149"><ele>1120.0</ele><time>2026-05-01T11:41:42.633Z</time></trkpt><trkpt lat="45.9057213" lon="11.6458179"><ele>1120.0</ele><time>2026-05-01T11:41:43.64Z</time></trkpt><trkpt lat="45.9056346" lon="11.6458054"><ele>1120.0</ele><time>2026-05-01T11:41:44.637Z</time></trkpt><trkpt lat="45.9055584" lon="11.6457714"><ele>1117.6666666666665</ele><time>2026-05-01T11:41:45.64Z</time></trkpt><trkpt lat="45.9055026" lon="11.6457051"><ele>1115.3333333333333</ele><time>2026-05-01T11:41:46.639Z</time></trkpt><trkpt lat="45.9054505" lon="11.6456451"><ele>1113.0</ele><time>2026-05-01T11:41:47.639Z</time></trkpt><trkpt lat="45.9054243" lon="11.645547"><ele>1110.6666666666667</ele><time>2026-05-01T11:41:48.648Z</time></trkpt><trkpt lat="45.9053907" lon="11.645388"><ele>1108.3333333333335</ele><time>2026-05-01T11:41:50.635Z</time></trkpt><trkpt lat="45.9053727" lon="11.6452167"><ele>1106.0</ele><time>2026-05-01T11:41:52.643Z</time></trkpt><trkpt lat="45.9053673" lon="11.6451016"><ele>1106.0</ele><time>2026-05-01T11:41:53.646Z</time></trkpt><trkpt lat="45.905358" lon="11.6449661"><ele>1106.0</ele><time>2026-05-01T11:41:54.644Z</time></trkpt><trkpt lat="45.9053458" lon="11.6448167"><ele>1106.0</ele><time>2026-05-01T11:41:55.639Z</time></trkpt><trkpt lat="45.9053344" lon="11.6446582"><ele>1106.0</ele><time>2026-05-01T11:41:56.633Z</time></trkpt><trkpt lat="45.9053245" lon="11.6444981"><ele>1106.0</ele><time>2026-05-01T11:41:57.629Z</time></trkpt><trkpt lat="45.9053131" lon="11.6443246"><ele>1108.75</ele><time>2026-05-01T11:41:58.632Z</time></trkpt><trkpt lat="45.9053063" lon="11.6441378"><ele>1111.5</ele><time>2026-05-01T11:41:59.631Z</time></trkpt><trkpt lat="45.9053059" lon="11.6439484"><ele>1114.25</ele><time>2026-05-01T11:42:00.639Z</time></trkpt><trkpt lat="45.9053045" lon="11.6437504"><ele>1117.0</ele><time>2026-05-01T11:42:01.644Z</time></trkpt><trkpt lat="45.9053208" lon="11.6435519"><ele>1118.25</ele><time>2026-05-01T11:42:02.643Z</time></trkpt><trkpt lat="45.9053397" lon="11.6433467"><ele>1119.5</ele><time>2026-05-01T11:42:03.653Z</time></trkpt><trkpt lat="45.9053605" lon="11.6431323"><ele>1120.75</ele><time>2026-05-01T11:42:04.644Z</time></trkpt><trkpt lat="45.9053752" lon="11.6429143"><ele>1122.0</ele><time>2026-05-01T11:42:05.646Z</time></trkpt><trkpt lat="45.905388" lon="11.6426966"><ele>1122.0</ele><time>2026-05-01T11:42:06.665Z</time></trkpt><trkpt lat="45.9054028" lon="11.6424681"><ele>1122.0</ele><time>2026-05-01T11:42:07.66Z</time></trkpt><trkpt lat="45.9054197" lon="11.6422596"><ele>1122.0</ele><time>2026-05-01T11:42:08.625Z</time></trkpt><trkpt lat="45.9054371" lon="11.6420596"><ele>1122.0</ele><time>2026-05-01T11:42:09.627Z</time></trkpt><trkpt lat="45.9054832" lon="11.6418601"><ele>1121.25</ele><time>2026-05-01T11:42:10.639Z</time></trkpt><trkpt lat="45.9055424" lon="11.6416766"><ele>1120.5</ele><time>2026-05-01T11:42:11.604Z</time></trkpt><trkpt lat="45.9056112" lon="11.6414875"><ele>1119.75</ele><time>2026-05-01T11:42:12.618Z</time></trkpt><trkpt lat="45.9056723" lon="11.6412949"><ele>1119.0</ele><time>2026-05-01T11:42:13.701Z</time></trkpt><trkpt lat="45.9057736" lon="11.640882"><ele>1123.3333333333333</ele><time>2026-05-01T11:42:15.666Z</time></trkpt><trkpt lat="45.9058252" lon="11.640668"><ele>1127.6666666666665</ele><time>2026-05-01T11:42:16.668Z</time></trkpt><trkpt lat="45.9058889" lon="11.6404658"><ele>1132.0</ele><time>2026-05-01T11:42:17.633Z</time></trkpt><trkpt lat="45.9059738" lon="11.640277"><ele>1132.0</ele><time>2026-05-01T11:42:18.618Z</time></trkpt><trkpt lat="45.9060619" lon="11.6400904"><ele>1132.0</ele><time>2026-05-01T11:42:19.622Z</time></trkpt><trkpt lat="45.9061434" lon="11.6399012"><ele>1132.0</ele><time>2026-05-01T11:42:20.607Z</time></trkpt><trkpt lat="45.9062122" lon="11.6397226"><ele>1132.0</ele><time>2026-05-01T11:42:21.61Z</time></trkpt><trkpt lat="45.90628" lon="11.6395537"><ele>1132.0</ele><time>2026-05-01T11:42:22.608Z</time></trkpt><trkpt lat="45.9063859" lon="11.6394299"><ele>1132.0</ele><time>2026-05-01T11:42:23.61Z</time></trkpt><trkpt lat="45.9064964" lon="11.6393065"><ele>1132.0</ele><time>2026-05-01T11:42:24.605Z</time></trkpt><trkpt lat="45.9066281" lon="11.639171"><ele>1138.3333333333333</ele><time>2026-05-01T11:42:25.61Z</time></trkpt><trkpt lat="45.9067607" lon="11.6390459"><ele>1144.6666666666667</ele><time>2026-05-01T11:42:26.63Z</time></trkpt><trkpt lat="45.9068807" lon="11.6388901"><ele>1151.0</ele><time>2026-05-01T11:42:27.609Z</time></trkpt><trkpt lat="45.906991" lon="11.6387082"><ele>1141.6666666666667</ele><time>2026-05-01T11:42:28.603Z</time></trkpt><trkpt lat="45.907093" lon="11.6385311"><ele>1132.3333333333333</ele><time>2026-05-01T11:42:29.615Z</time></trkpt><trkpt lat="45.9071923" lon="11.6383496"><ele>1123.0</ele><time>2026-05-01T11:42:30.602Z</time></trkpt><trkpt lat="45.9072753" lon="11.638171"><ele>1123.0</ele><time>2026-05-01T11:42:31.606Z</time></trkpt><trkpt lat="45.9073359" lon="11.6379939"><ele>1123.0</ele><time>2026-05-01T11:42:32.61Z</time></trkpt><trkpt lat="45.9073965" lon="11.6378213"><ele>1123.0</ele><time>2026-05-01T11:42:33.606Z</time></trkpt><trkpt lat="45.9073916" lon="11.6376394"><ele>1123.0</ele><time>2026-05-01T11:42:34.609Z</time></trkpt><trkpt lat="45.9073671" lon="11.6374588"><ele>1124.75</ele><time>2026-05-01T11:42:35.617Z</time></trkpt><trkpt lat="45.9073279" lon="11.6372682"><ele>1126.5</ele><time>2026-05-01T11:42:36.62Z</time></trkpt><trkpt lat="45.9072165" lon="11.6371148"><ele>1128.25</ele><time>2026-05-01T11:42:37.613Z</time></trkpt><trkpt lat="45.9071031" lon="11.6369729"><ele>1130.0</ele><time>2026-05-01T11:42:38.609Z</time></trkpt><trkpt lat="45.9069893" lon="11.636846"><ele>1130.0</ele><time>2026-05-01T11:42:39.612Z</time></trkpt><trkpt lat="45.9068761" lon="11.6367196"><ele>1130.0</ele><time>2026-05-01T11:42:40.61Z</time></trkpt><trkpt lat="45.906779" lon="11.6365951"><ele>1130.0</ele><time>2026-05-01T11:42:41.602Z</time></trkpt><trkpt lat="45.906687" lon="11.6364682"><ele>1130.0</ele><time>2026-05-01T11:42:42.607Z</time></trkpt><trkpt lat="45.9066191" lon="11.6362951"><ele>1122.0</ele><time>2026-05-01T11:42:43.612Z</time></trkpt><trkpt lat="45.9065881" lon="11.6360976"><ele>1114.0</ele><time>2026-05-01T11:42:44.607Z</time></trkpt><trkpt lat="45.9065518" lon="11.6358828"><ele>1106.0</ele><time>2026-05-01T11:42:45.62Z</time></trkpt><trkpt lat="45.9065317" lon="11.6356405"><ele>1106.0</ele><time>2026-05-01T11:42:46.611Z</time></trkpt><trkpt lat="45.9065087" lon="11.6353937"><ele>1106.0</ele><time>2026-05-01T11:42:47.616Z</time></trkpt><trkpt lat="45.9064813" lon="11.635146"><ele>1106.0</ele><time>2026-05-01T11:42:48.614Z</time></trkpt><trkpt lat="45.906448" lon="11.6348916"><ele>1109.3333333333335</ele><time>2026-05-01T11:42:49.622Z</time></trkpt><trkpt lat="45.9064053" lon="11.6346309"><ele>1112.6666666666667</ele><time>2026-05-01T11:42:50.616Z</time></trkpt><trkpt lat="45.9063554" lon="11.634375"><ele>1116.0</ele><time>2026-05-01T11:42:51.605Z</time></trkpt><trkpt lat="45.9063225" lon="11.6341259"><ele>1118.6666666666667</ele><time>2026-05-01T11:42:52.608Z</time></trkpt><trkpt lat="45.9063011" lon="11.6338756"><ele>1121.3333333333335</ele><time>2026-05-01T11:42:53.622Z</time></trkpt><trkpt lat="45.9062849" lon="11.633632"><ele>1124.0</ele><time>2026-05-01T11:42:54.604Z</time></trkpt><trkpt lat="45.9062589" lon="11.6334049"><ele>1126.0</ele><time>2026-05-01T11:42:55.6Z</time></trkpt><trkpt lat="45.9062155" lon="11.6331998"><ele>1128.0</ele><time>2026-05-01T11:42:56.61Z</time></trkpt><trkpt lat="45.9061592" lon="11.6330178"><ele>1130.0</ele><time>2026-05-01T11:42:57.608Z</time></trkpt><trkpt lat="45.9060911" lon="11.6328539"><ele>1132.0</ele><time>2026-05-01T11:42:58.606Z</time></trkpt><trkpt lat="45.9059877" lon="11.6327807"><ele>1128.5</ele><time>2026-05-01T11:42:59.606Z</time></trkpt><trkpt lat="45.9058711" lon="11.6327566"><ele>1125.0</ele><time>2026-05-01T11:43:00.617Z</time></trkpt><trkpt lat="45.9057519" lon="11.632799"><ele>1121.5</ele><time>2026-05-01T11:43:01.61Z</time></trkpt><trkpt lat="45.9056129" lon="11.6328559"><ele>1118.0</ele><time>2026-05-01T11:43:02.614Z</time></trkpt><trkpt lat="45.9055001" lon="11.6330003"><ele>1111.75</ele><time>2026-05-01T11:43:03.604Z</time></trkpt><trkpt lat="45.9053829" lon="11.6331247"><ele>1105.5</ele><time>2026-05-01T11:43:04.606Z</time></trkpt><trkpt lat="45.9052931" lon="11.6332435"><ele>1099.25</ele><time>2026-05-01T11:43:05.624Z</time></trkpt><trkpt lat="45.9052162" lon="11.6333225"><ele>1093.0</ele><time>2026-05-01T11:43:06.616Z</time></trkpt><trkpt lat="45.9051285" lon="11.6333393"><ele>1092.2</ele><time>2026-05-01T11:43:07.611Z</time></trkpt><trkpt lat="45.9050398" lon="11.633303"><ele>1091.4</ele><time>2026-05-01T11:43:08.617Z</time></trkpt><trkpt lat="45.9049549" lon="11.6332059"><ele>1090.6000000000001</ele><time>2026-05-01T11:43:09.608Z</time></trkpt><trkpt lat="45.9048696" lon="11.6331054"><ele>1089.8</ele><time>2026-05-01T11:43:10.614Z</time></trkpt><trkpt lat="45.9047974" lon="11.6329566"><ele>1089.0</ele><time>2026-05-01T11:43:11.615Z</time></trkpt><trkpt lat="45.9047222" lon="11.6328046"><ele>1094.75</ele><time>2026-05-01T11:43:12.612Z</time></trkpt><trkpt lat="45.9046446" lon="11.6326502"><ele>1100.5</ele><time>2026-05-01T11:43:13.619Z</time></trkpt><trkpt lat="45.9045673" lon="11.6324892"><ele>1106.25</ele><time>2026-05-01T11:43:14.619Z</time></trkpt><trkpt lat="45.9044876" lon="11.6323219"><ele>1112.0</ele><time>2026-05-01T11:43:15.628Z</time></trkpt><trkpt lat="45.9044028" lon="11.6321595"><ele>1112.0</ele><time>2026-05-01T11:43:16.646Z</time></trkpt><trkpt lat="45.9043056" lon="11.6320148"><ele>1112.0</ele><time>2026-05-01T11:43:17.614Z</time></trkpt><trkpt lat="45.9041942" lon="11.6319013"><ele>1112.0</ele><time>2026-05-01T11:43:18.612Z</time></trkpt><trkpt lat="45.9040687" lon="11.6318131"><ele>1112.0</ele><time>2026-05-01T11:43:19.615Z</time></trkpt><trkpt lat="45.9039339" lon="11.6317526"><ele>1110.75</ele><time>2026-05-01T11:43:20.612Z</time></trkpt><trkpt lat="45.9037979" lon="11.6316985"><ele>1109.5</ele><time>2026-05-01T11:43:21.6Z</time></trkpt><trkpt lat="45.9036594" lon="11.6316407"><ele>1108.25</ele><time>2026-05-01T11:43:22.612Z</time></trkpt><trkpt lat="45.9035315" lon="11.6315723"><ele>1107.0</ele><time>2026-05-01T11:43:23.61Z</time></trkpt><trkpt lat="45.9033989" lon="11.6315009"><ele>1101.5</ele><time>2026-05-01T11:43:24.608Z</time></trkpt><trkpt lat="45.9032639" lon="11.6314229"><ele>1096.0</ele><time>2026-05-01T11:43:25.623Z</time></trkpt><trkpt lat="45.9031287" lon="11.6313417"><ele>1090.5</ele><time>2026-05-01T11:43:26.611Z</time></trkpt><trkpt lat="45.9030004" lon="11.6312516"><ele>1085.0</ele><time>2026-05-01T11:43:27.612Z</time></trkpt><trkpt lat="45.9028775" lon="11.6311514"><ele>1083.75</ele><time>2026-05-01T11:43:28.609Z</time></trkpt><trkpt lat="45.9027681" lon="11.6310207"><ele>1082.5</ele><time>2026-05-01T11:43:29.613Z</time></trkpt><trkpt lat="45.9026662" lon="11.6308836"><ele>1081.25</ele><time>2026-05-01T11:43:30.611Z</time></trkpt><trkpt lat="45.9025701" lon="11.6307378"><ele>1080.0</ele><time>2026-05-01T11:43:31.616Z</time></trkpt><trkpt lat="45.902477" lon="11.6305878"><ele>1080.0</ele><time>2026-05-01T11:43:32.616Z</time></trkpt><trkpt lat="45.9023912" lon="11.6304297"><ele>1080.0</ele><time>2026-05-01T11:43:33.616Z</time></trkpt><trkpt lat="45.9023093" lon="11.6302685"><ele>1080.0</ele><time>2026-05-01T11:43:34.609Z</time></trkpt><trkpt lat="45.9022238" lon="11.6301067"><ele>1080.0</ele><time>2026-05-01T11:43:35.611Z</time></trkpt><trkpt lat="45.9021195" lon="11.6300015"><ele>1081.5</ele><time>2026-05-01T11:43:36.617Z</time></trkpt><trkpt lat="45.9019903" lon="11.6299448"><ele>1083.0</ele><time>2026-05-01T11:43:37.618Z</time></trkpt><trkpt lat="45.9018478" lon="11.6299338"><ele>1084.5</ele><time>2026-05-01T11:43:38.607Z</time></trkpt><trkpt lat="45.9016971" lon="11.629948"><ele>1086.0</ele><time>2026-05-01T11:43:39.613Z</time></trkpt><trkpt lat="45.9015448" lon="11.6299692"><ele>1086.0</ele><time>2026-05-01T11:43:40.606Z</time></trkpt><trkpt lat="45.9013924" lon="11.6299861"><ele>1086.0</ele><time>2026-05-01T11:43:41.611Z</time></trkpt><trkpt lat="45.9012402" lon="11.6299949"><ele>1086.0</ele><time>2026-05-01T11:43:42.613Z</time></trkpt><trkpt lat="45.9010889" lon="11.6299863"><ele>1086.0</ele><time>2026-05-01T11:43:43.609Z</time></trkpt><trkpt lat="45.9009405" lon="11.6299618"><ele>1086.0</ele><time>2026-05-01T11:43:44.612Z</time></trkpt><trkpt lat="45.9007928" lon="11.6299283"><ele>1086.0</ele><time>2026-05-01T11:43:45.616Z</time></trkpt><trkpt lat="45.9006463" lon="11.629892"><ele>1086.0</ele><time>2026-05-01T11:43:46.607Z</time></trkpt><trkpt lat="45.9005202" lon="11.6298461"><ele>1083.6666666666667</ele><time>2026-05-01T11:43:47.609Z</time></trkpt><trkpt lat="45.9003735" lon="11.6298131"><ele>1081.3333333333335</ele><time>2026-05-01T11:43:48.621Z</time></trkpt><trkpt lat="45.9002227" lon="11.6298155"><ele>1079.0</ele><time>2026-05-01T11:43:49.617Z</time></trkpt><trkpt lat="45.900068" lon="11.6298369"><ele>1079.0</ele><time>2026-05-01T11:43:50.609Z</time></trkpt><trkpt lat="45.8999039" lon="11.6298693"><ele>1079.0</ele><time>2026-05-01T11:43:51.605Z</time></trkpt><trkpt lat="45.8997427" lon="11.6299072"><ele>1079.0</ele><time>2026-05-01T11:43:52.616Z</time></trkpt><trkpt lat="45.8996028" lon="11.6299448"><ele>1079.0</ele><time>2026-05-01T11:43:53.631Z</time></trkpt><trkpt lat="45.8994501" lon="11.6299887"><ele>1079.0</ele><time>2026-05-01T11:43:54.615Z</time></trkpt><trkpt lat="45.8992807" lon="11.630032"><ele>1079.0</ele><time>2026-05-01T11:43:55.611Z</time></trkpt><trkpt lat="45.8991055" lon="11.6300738"><ele>1081.6666666666667</ele><time>2026-05-01T11:43:56.607Z</time></trkpt><trkpt lat="45.8989358" lon="11.6301154"><ele>1084.3333333333333</ele><time>2026-05-01T11:43:57.606Z</time></trkpt><trkpt lat="45.8987662" lon="11.6301565"><ele>1087.0</ele><time>2026-05-01T11:43:58.614Z</time></trkpt><trkpt lat="45.898599" lon="11.630199"><ele>1087.0</ele><time>2026-05-01T11:43:59.62Z</time></trkpt><trkpt lat="45.8984389" lon="11.6302386"><ele>1087.0</ele><time>2026-05-01T11:44:00.613Z</time></trkpt><trkpt lat="45.8982909" lon="11.6302716"><ele>1087.0</ele><time>2026-05-01T11:44:01.616Z</time></trkpt><trkpt lat="45.8981466" lon="11.6303065"><ele>1088.25</ele><time>2026-05-01T11:44:02.61Z</time></trkpt><trkpt lat="45.8980046" lon="11.6303439"><ele>1089.5</ele><time>2026-05-01T11:44:03.61Z</time></trkpt><trkpt lat="45.8978655" lon="11.6303853"><ele>1090.75</ele><time>2026-05-01T11:44:04.614Z</time></trkpt><trkpt lat="45.8977403" lon="11.6304298"><ele>1092.0</ele><time>2026-05-01T11:44:05.613Z</time></trkpt><trkpt lat="45.8976305" lon="11.6304853"><ele>1091.75</ele><time>2026-05-01T11:44:06.601Z</time></trkpt><trkpt lat="45.8975232" lon="11.6305339"><ele>1091.5</ele><time>2026-05-01T11:44:07.623Z</time></trkpt><trkpt lat="45.8974148" lon="11.6305869"><ele>1091.25</ele><time>2026-05-01T11:44:08.603Z</time></trkpt><trkpt lat="45.8973009" lon="11.6306128"><ele>1091.0</ele><time>2026-05-01T11:44:09.622Z</time></trkpt><trkpt lat="45.8971865" lon="11.6306295"><ele>1091.0</ele><time>2026-05-01T11:44:10.612Z</time></trkpt><trkpt lat="45.8970746" lon="11.6306395"><ele>1091.0</ele><time>2026-05-01T11:44:11.614Z</time></trkpt><trkpt lat="45.8969624" lon="11.6306489"><ele>1091.0</ele><time>2026-05-01T11:44:12.606Z</time></trkpt><trkpt lat="45.8968483" lon="11.630659"><ele>1091.0</ele><time>2026-05-01T11:44:13.618Z</time></trkpt><trkpt lat="45.8967431" lon="11.6306633"><ele>1091.0</ele><time>2026-05-01T11:44:14.602Z</time></trkpt><trkpt lat="45.8966471" lon="11.6306704"><ele>1089.6</ele><time>2026-05-01T11:44:15.611Z</time></trkpt><trkpt lat="45.8965702" lon="11.6306618"><ele>1088.1999999999998</ele><time>2026-05-01T11:44:16.612Z</time></trkpt><trkpt lat="45.8965058" lon="11.6306561"><ele>1086.8000000000002</ele><time>2026-05-01T11:44:17.614Z</time></trkpt><trkpt lat="45.896484" lon="11.6304727"><ele>1085.4</ele><time>2026-05-01T11:44:19.624Z</time></trkpt><trkpt lat="45.8965302" lon="11.6303514"><ele>1084.0</ele><time>2026-05-01T11:44:20.61Z</time></trkpt><trkpt lat="45.8965985" lon="11.6302358"><ele>1085.25</ele><time>2026-05-01T11:44:21.61Z</time></trkpt><trkpt lat="45.8966816" lon="11.6301186"><ele>1086.5</ele><time>2026-05-01T11:44:22.614Z</time></trkpt><trkpt lat="45.8967743" lon="11.6299954"><ele>1087.75</ele><time>2026-05-01T11:44:23.621Z</time></trkpt><trkpt lat="45.8968706" lon="11.629872"><ele>1089.0</ele><time>2026-05-01T11:44:24.608Z</time></trkpt><trkpt lat="45.8969688" lon="11.6297447"><ele>1089.0</ele><time>2026-05-01T11:44:25.622Z</time></trkpt><trkpt lat="45.8970636" lon="11.6296219"><ele>1089.0</ele><time>2026-05-01T11:44:26.614Z</time></trkpt><trkpt lat="45.8971553" lon="11.6295097"><ele>1089.0</ele><time>2026-05-01T11:44:27.614Z</time></trkpt><trkpt lat="45.8972508" lon="11.6294004"><ele>1089.0</ele><time>2026-05-01T11:44:28.609Z</time></trkpt><trkpt lat="45.8973484" lon="11.6292925"><ele>1087.75</ele><time>2026-05-01T11:44:29.615Z</time></trkpt><trkpt lat="45.8974507" lon="11.6291805"><ele>1086.5</ele><time>2026-05-01T11:44:30.61Z</time></trkpt><trkpt lat="45.8975611" lon="11.629081"><ele>1085.25</ele><time>2026-05-01T11:44:31.612Z</time></trkpt><trkpt lat="45.897671" lon="11.6289778"><ele>1084.0</ele><time>2026-05-01T11:44:32.602Z</time></trkpt><trkpt lat="45.8977901" lon="11.6288568"><ele>1084.0</ele><time>2026-05-01T11:44:33.617Z</time></trkpt><trkpt lat="45.8979128" lon="11.6287498"><ele>1084.0</ele><time>2026-05-01T11:44:34.613Z</time></trkpt><trkpt lat="45.8980452" lon="11.6286549"><ele>1084.0</ele><time>2026-05-01T11:44:35.613Z</time></trkpt><trkpt lat="45.8981858" lon="11.6285733"><ele>1084.0</ele><time>2026-05-01T11:44:36.61Z</time></trkpt><trkpt lat="45.8983286" lon="11.6284842"><ele>1078.0</ele><time>2026-05-01T11:44:37.613Z</time></trkpt><trkpt lat="45.8984752" lon="11.6283985"><ele>1072.0</ele><time>2026-05-01T11:44:38.608Z</time></trkpt><trkpt lat="45.8986252" lon="11.62831"><ele>1066.0</ele><time>2026-05-01T11:44:39.621Z</time></trkpt><trkpt lat="45.8987642" lon="11.6282058"><ele>1066.0</ele><time>2026-05-01T11:44:40.608Z</time></trkpt><trkpt lat="45.8988928" lon="11.6281125"><ele>1066.0</ele><time>2026-05-01T11:44:41.607Z</time></trkpt><trkpt lat="45.8990206" lon="11.6280266"><ele>1066.0</ele><time>2026-05-01T11:44:42.606Z</time></trkpt><trkpt lat="45.8991337" lon="11.6279478"><ele>1066.0</ele><time>2026-05-01T11:44:43.615Z</time></trkpt><trkpt lat="45.8992375" lon="11.6278642"><ele>1066.6</ele><time>2026-05-01T11:44:44.607Z</time></trkpt><trkpt lat="45.8993225" lon="11.6277747"><ele>1067.1999999999998</ele><time>2026-05-01T11:44:45.622Z</time></trkpt><trkpt lat="45.8993716" lon="11.6276393"><ele>1067.8000000000002</ele><time>2026-05-01T11:44:46.607Z</time></trkpt><trkpt lat="45.8993787" lon="11.6274953"><ele>1068.4</ele><time>2026-05-01T11:44:47.61Z</time></trkpt><trkpt lat="45.8993547" lon="11.6273434"><ele>1069.0</ele><time>2026-05-01T11:44:48.612Z</time></trkpt><trkpt lat="45.8993207" lon="11.6271935"><ele>1069.0</ele><time>2026-05-01T11:44:49.611Z</time></trkpt><trkpt lat="45.8992999" lon="11.6270442"><ele>1069.0</ele><time>2026-05-01T11:44:50.605Z</time></trkpt><trkpt lat="45.8993134" lon="11.6268876"><ele>1069.0</ele><time>2026-05-01T11:44:51.617Z</time></trkpt><trkpt lat="45.8993481" lon="11.6267253"><ele>1069.0</ele><time>2026-05-01T11:44:52.612Z</time></trkpt><trkpt lat="45.8993877" lon="11.6265588"><ele>1068.25</ele><time>2026-05-01T11:44:53.615Z</time></trkpt><trkpt lat="45.8994424" lon="11.6263912"><ele>1067.5</ele><time>2026-05-01T11:44:54.619Z</time></trkpt><trkpt lat="45.8994775" lon="11.62621"><ele>1066.75</ele><time>2026-05-01T11:44:55.616Z</time></trkpt><trkpt lat="45.8995076" lon="11.6260289"><ele>1066.0</ele><time>2026-05-01T11:44:56.596Z</time></trkpt><trkpt lat="45.8995264" lon="11.6258576"><ele>1066.0</ele><time>2026-05-01T11:44:57.601Z</time></trkpt><trkpt lat="45.8995452" lon="11.625702"><ele>1066.0</ele><time>2026-05-01T11:44:58.61Z</time></trkpt><trkpt lat="45.8995684" lon="11.6255518"><ele>1066.0</ele><time>2026-05-01T11:44:59.62Z</time></trkpt><trkpt lat="45.8995902" lon="11.6254184"><ele>1066.0</ele><time>2026-05-01T11:45:00.606Z</time></trkpt><trkpt lat="45.8996442" lon="11.6252812"><ele>1066.0</ele><time>2026-05-01T11:45:01.61Z</time></trkpt><trkpt lat="45.8997223" lon="11.6251775"><ele>1063.25</ele><time>2026-05-01T11:45:02.606Z</time></trkpt><trkpt lat="45.8998142" lon="11.6250768"><ele>1060.5</ele><time>2026-05-01T11:45:03.617Z</time></trkpt><trkpt lat="45.8999281" lon="11.6249985"><ele>1057.75</ele><time>2026-05-01T11:45:04.611Z</time></trkpt><trkpt lat="45.9000546" lon="11.6249933"><ele>1055.0</ele><time>2026-05-01T11:45:05.608Z</time></trkpt><trkpt lat="45.9001889" lon="11.625028"><ele>1055.0</ele><time>2026-05-01T11:45:06.613Z</time></trkpt><trkpt lat="45.9003212" lon="11.6250375"><ele>1055.0</ele><time>2026-05-01T11:45:07.613Z</time></trkpt><trkpt lat="45.9004324" lon="11.6250261"><ele>1055.0</ele><time>2026-05-01T11:45:08.606Z</time></trkpt><trkpt lat="45.9005354" lon="11.6249965"><ele>1055.0</ele><time>2026-05-01T11:45:09.613Z</time></trkpt><trkpt lat="45.9006176" lon="11.6249185"><ele>1055.0</ele><time>2026-05-01T11:45:10.629Z</time></trkpt><trkpt lat="45.9006771" lon="11.62479"><ele>1055.0</ele><time>2026-05-01T11:45:11.618Z</time></trkpt><trkpt lat="45.900697" lon="11.624631"><ele>1055.0</ele><time>2026-05-01T11:45:12.614Z</time></trkpt><trkpt lat="45.9007143" lon="11.6244625"><ele>1055.0</ele><time>2026-05-01T11:45:13.617Z</time></trkpt><trkpt lat="45.9006938" lon="11.6242787"><ele>1055.0</ele><time>2026-05-01T11:45:14.604Z</time></trkpt><trkpt lat="45.9006747" lon="11.6240891"><ele>1054.0</ele><time>2026-05-01T11:45:15.611Z</time></trkpt><trkpt lat="45.9006639" lon="11.6238941"><ele>1053.0</ele><time>2026-05-01T11:45:16.607Z</time></trkpt><trkpt lat="45.900654" lon="11.6237062"><ele>1052.0</ele><time>2026-05-01T11:45:17.615Z</time></trkpt><trkpt lat="45.9006502" lon="11.6235273"><ele>1051.0</ele><time>2026-05-01T11:45:18.63Z</time></trkpt><trkpt lat="45.900655" lon="11.6233424"><ele>1050.75</ele><time>2026-05-01T11:45:19.609Z</time></trkpt><trkpt lat="45.9006698" lon="11.6231561"><ele>1050.5</ele><time>2026-05-01T11:45:20.612Z</time></trkpt><trkpt lat="45.900693" lon="11.622968"><ele>1050.25</ele><time>2026-05-01T11:45:21.615Z</time></trkpt><trkpt lat="45.900715" lon="11.6227903"><ele>1050.0</ele><time>2026-05-01T11:45:22.621Z</time></trkpt><trkpt lat="45.9007223" lon="11.6226136"><ele>1051.25</ele><time>2026-05-01T11:45:23.612Z</time></trkpt><trkpt lat="45.9007149" lon="11.6224349"><ele>1052.5</ele><time>2026-05-01T11:45:24.609Z</time></trkpt><trkpt lat="45.9006909" lon="11.6222543"><ele>1053.75</ele><time>2026-05-01T11:45:25.619Z</time></trkpt><trkpt lat="45.9006621" lon="11.6220769"><ele>1055.0</ele><time>2026-05-01T11:45:26.608Z</time></trkpt><trkpt lat="45.9006024" lon="11.6219024"><ele>1056.25</ele><time>2026-05-01T11:45:27.614Z</time></trkpt><trkpt lat="45.90052" lon="11.6217437"><ele>1057.5</ele><time>2026-05-01T11:45:28.609Z</time></trkpt><trkpt lat="45.9004201" lon="11.6215988"><ele>1058.75</ele><time>2026-05-01T11:45:29.614Z</time></trkpt><trkpt lat="45.9003172" lon="11.6214552"><ele>1060.0</ele><time>2026-05-01T11:45:30.613Z</time></trkpt><trkpt lat="45.9002119" lon="11.6213184"><ele>1060.0</ele><time>2026-05-01T11:45:31.608Z</time></trkpt><trkpt lat="45.9001056" lon="11.6211691"><ele>1060.0</ele><time>2026-05-01T11:45:32.613Z</time></trkpt><trkpt lat="45.8999971" lon="11.6210185"><ele>1060.0</ele><time>2026-05-01T11:45:33.611Z</time></trkpt><trkpt lat="45.8998916" lon="11.6208641"><ele>1056.25</ele><time>2026-05-01T11:45:34.62Z</time></trkpt><trkpt lat="45.8997836" lon="11.6207113"><ele>1052.5</ele><time>2026-05-01T11:45:35.618Z</time></trkpt><trkpt lat="45.8996784" lon="11.6205626"><ele>1048.75</ele><time>2026-05-01T11:45:36.61Z</time></trkpt><trkpt lat="45.8995725" lon="11.620413"><ele>1045.0</ele><time>2026-05-01T11:45:37.614Z</time></trkpt><trkpt lat="45.8994677" lon="11.6202627"><ele>1045.0</ele><time>2026-05-01T11:45:38.609Z</time></trkpt><trkpt lat="45.8993664" lon="11.6201185"><ele>1045.0</ele><time>2026-05-01T11:45:39.619Z</time></trkpt><trkpt lat="45.8992714" lon="11.6199847"><ele>1045.0</ele><time>2026-05-01T11:45:40.611Z</time></trkpt><trkpt lat="45.8991845" lon="11.619857"><ele>1045.0</ele><time>2026-05-01T11:45:41.608Z</time></trkpt><trkpt lat="45.8991084" lon="11.6197447"><ele>1044.8333333333333</ele><time>2026-05-01T11:45:42.618Z</time></trkpt><trkpt lat="45.8990435" lon="11.6196492"><ele>1044.6666666666665</ele><time>2026-05-01T11:45:43.618Z</time></trkpt><trkpt lat="45.8989884" lon="11.6195701"><ele>1044.5</ele><time>2026-05-01T11:45:44.604Z</time></trkpt><trkpt lat="45.898943" lon="11.6195048"><ele>1044.3333333333333</ele><time>2026-05-01T11:45:45.616Z</time></trkpt><trkpt lat="45.8988723" lon="11.6194022"><ele>1044.1666666666667</ele><time>2026-05-01T11:45:47.615Z</time></trkpt><trkpt lat="45.8988499" lon="11.6195036"><ele>1044.0</ele><time>2026-05-01T11:46:09.625Z</time></trkpt><trkpt lat="45.8989294" lon="11.6196098"><ele>1044.2</ele><time>2026-05-01T11:46:11.614Z</time></trkpt><trkpt lat="45.8989828" lon="11.6196819"><ele>1044.4</ele><time>2026-05-01T11:46:12.623Z</time></trkpt><trkpt lat="45.8990464" lon="11.6197743"><ele>1044.6</ele><time>2026-05-01T11:46:13.619Z</time></trkpt><trkpt lat="45.8991127" lon="11.619875"><ele>1044.8</ele><time>2026-05-01T11:46:14.607Z</time></trkpt><trkpt lat="45.8991765" lon="11.6199779"><ele>1045.0</ele><time>2026-05-01T11:46:15.613Z</time></trkpt><trkpt lat="45.8992606" lon="11.6200939"><ele>1045.0</ele><time>2026-05-01T11:46:16.608Z</time></trkpt><trkpt lat="45.8993217" lon="11.6202176"><ele>1045.0</ele><time>2026-05-01T11:46:17.611Z</time></trkpt><trkpt lat="45.8993741" lon="11.6203582"><ele>1045.0</ele><time>2026-05-01T11:46:18.605Z</time></trkpt><trkpt lat="45.8994153" lon="11.6204967"><ele>1045.0</ele><time>2026-05-01T11:46:19.615Z</time></trkpt><trkpt lat="45.8994598" lon="11.6206264"><ele>1045.0</ele><time>2026-05-01T11:46:20.621Z</time></trkpt><trkpt lat="45.8995054" lon="11.6207263"><ele>1043.3333333333333</ele><time>2026-05-01T11:46:21.609Z</time></trkpt><trkpt lat="45.8995485" lon="11.6208021"><ele>1041.6666666666665</ele><time>2026-05-01T11:46:22.607Z</time></trkpt><trkpt lat="45.8995634" lon="11.6209097"><ele>1040.0</ele><time>2026-05-01T11:46:24.624Z</time></trkpt><trkpt lat="45.8994788" lon="11.6208795"><ele>1038.3333333333333</ele><time>2026-05-01T11:46:26.607Z</time></trkpt><trkpt lat="45.8994187" lon="11.6208098"><ele>1036.6666666666667</ele><time>2026-05-01T11:46:27.602Z</time></trkpt><trkpt lat="45.8993468" lon="11.6207164"><ele>1035.0</ele><time>2026-05-01T11:46:28.613Z</time></trkpt><trkpt lat="45.8992649" lon="11.620609"><ele>1032.8</ele><time>2026-05-01T11:46:29.61Z</time></trkpt><trkpt lat="45.8991839" lon="11.6205034"><ele>1030.6</ele><time>2026-05-01T11:46:30.607Z</time></trkpt><trkpt lat="45.8991076" lon="11.6204062"><ele>1028.4</ele><time>2026-05-01T11:46:31.618Z</time></trkpt><trkpt lat="45.899039" lon="11.6203169"><ele>1026.2</ele><time>2026-05-01T11:46:32.609Z</time></trkpt><trkpt lat="45.8989808" lon="11.620242"><ele>1024.0</ele><time>2026-05-01T11:46:33.623Z</time></trkpt><trkpt lat="45.8989101" lon="11.6202079"><ele>1021.6</ele><time>2026-05-01T11:46:35.609Z</time></trkpt><trkpt lat="45.8989185" lon="11.6203458"><ele>1019.2</ele><time>2026-05-01T11:46:37.61Z</time></trkpt><trkpt lat="45.8989469" lon="11.6204549"><ele>1016.8000000000001</ele><time>2026-05-01T11:46:38.61Z</time></trkpt><trkpt lat="45.8990112" lon="11.6205758"><ele>1014.4000000000001</ele><time>2026-05-01T11:46:39.61Z</time></trkpt><trkpt lat="45.8990549" lon="11.6207262"><ele>1012.0</ele><time>2026-05-01T11:46:40.607Z</time></trkpt><trkpt lat="45.8991058" lon="11.6208895"><ele>1012.0</ele><time>2026-05-01T11:46:41.601Z</time></trkpt><trkpt lat="45.8991627" lon="11.621019"><ele>1012.0</ele><time>2026-05-01T11:46:42.605Z</time></trkpt><trkpt lat="45.8992154" lon="11.6211183"><ele>1012.0</ele><time>2026-05-01T11:46:43.614Z</time></trkpt><trkpt lat="45.8992462" lon="11.621233"><ele>1012.0</ele><time>2026-05-01T11:46:45.609Z</time></trkpt><trkpt lat="45.8991177" lon="11.6211872"><ele>1012.0</ele><time>2026-05-01T11:46:48.601Z</time></trkpt><trkpt lat="45.899026" lon="11.6210889"><ele>1012.0</ele><time>2026-05-01T11:46:49.608Z</time></trkpt><trkpt lat="45.8989263" lon="11.6209715"><ele>1012.0</ele><time>2026-05-01T11:46:50.611Z</time></trkpt><trkpt lat="45.8988262" lon="11.6208521"><ele>1012.0</ele><time>2026-05-01T11:46:51.604Z</time></trkpt><trkpt lat="45.8987488" lon="11.6207389"><ele>1012.0</ele><time>2026-05-01T11:46:52.601Z</time></trkpt><trkpt lat="45.8986982" lon="11.6206437"><ele>1012.0</ele><time>2026-05-01T11:46:53.608Z</time></trkpt><trkpt lat="45.8986603" lon="11.6205713"><ele>1012.0</ele><time>2026-05-01T11:46:54.604Z</time></trkpt><trkpt lat="45.8985937" lon="11.6205232"><ele>1012.0</ele><time>2026-05-01T11:46:56.606Z</time></trkpt><trkpt lat="45.8985991" lon="11.6206817"><ele>1012.0</ele><time>2026-05-01T11:46:58.605Z</time></trkpt><trkpt lat="45.8986494" lon="11.6208196"><ele>1012.0</ele><time>2026-05-01T11:46:59.601Z</time></trkpt><trkpt lat="45.8987001" lon="11.6209666"><ele>1012.0</ele><time>2026-05-01T11:47:00.616Z</time></trkpt><trkpt lat="45.8987506" lon="11.6211284"><ele>1012.0</ele><time>2026-05-01T11:47:01.608Z</time></trkpt><trkpt lat="45.8987953" lon="11.6212782"><ele>1012.0</ele><time>2026-05-01T11:47:02.607Z</time></trkpt><trkpt lat="45.8988371" lon="11.6213978"><ele>1012.0</ele><time>2026-05-01T11:47:03.619Z</time></trkpt><trkpt lat="45.8988792" lon="11.6214824"><ele>1012.0</ele><time>2026-05-01T11:47:04.609Z</time></trkpt><trkpt lat="45.8989081" lon="11.6215861"><ele>1008.8</ele><time>2026-05-01T11:47:06.603Z</time></trkpt><trkpt lat="45.8988478" lon="11.6216272"><ele>1005.6</ele><time>2026-05-01T11:47:08.611Z</time></trkpt><trkpt lat="45.8987992" lon="11.6215553"><ele>1002.3999999999999</ele><time>2026-05-01T11:47:09.609Z</time></trkpt><trkpt lat="45.8987224" lon="11.6214583"><ele>999.1999999999999</ele><time>2026-05-01T11:47:10.612Z</time></trkpt><trkpt lat="45.8986338" lon="11.6213632"><ele>996.0</ele><time>2026-05-01T11:47:11.611Z</time></trkpt><trkpt lat="45.8985393" lon="11.6212679"><ele>996.0</ele><time>2026-05-01T11:47:12.603Z</time></trkpt><trkpt lat="45.8984474" lon="11.6211696"><ele>995.9999999999999</ele><time>2026-05-01T11:47:13.607Z</time></trkpt><trkpt lat="45.8983614" lon="11.6210825"><ele>995.9999999999999</ele><time>2026-05-01T11:47:14.603Z</time></trkpt><trkpt lat="45.8982906" lon="11.620999"><ele>996.0</ele><time>2026-05-01T11:47:15.621Z</time></trkpt><trkpt lat="45.8982389" lon="11.620911"><ele>996.0</ele><time>2026-05-01T11:47:16.604Z</time></trkpt><trkpt lat="45.8981957" lon="11.620814"><ele>994.8333333333334</ele><time>2026-05-01T11:47:17.605Z</time></trkpt><trkpt lat="45.8981658" lon="11.6206565"><ele>993.6666666666667</ele><time>2026-05-01T11:47:19.61Z</time></trkpt><trkpt lat="45.8981181" lon="11.6205896"><ele>992.5</ele><time>2026-05-01T11:47:21.621Z</time></trkpt><trkpt lat="45.8980703" lon="11.6207052"><ele>991.3333333333334</ele><time>2026-05-01T11:47:23.604Z</time></trkpt><trkpt lat="45.8980888" lon="11.6207971"><ele>990.1666666666667</ele><time>2026-05-01T11:47:24.614Z</time></trkpt><trkpt lat="45.8981292" lon="11.6209133"><ele>989.0</ele><time>2026-05-01T11:47:25.608Z</time></trkpt><trkpt lat="45.898178" lon="11.621043"><ele>986.5</ele><time>2026-05-01T11:47:26.616Z</time></trkpt><trkpt lat="45.8981862" lon="11.6212123"><ele>984.0</ele><time>2026-05-01T11:47:27.609Z</time></trkpt><trkpt lat="45.8981991" lon="11.6213936"><ele>981.5</ele><time>2026-05-01T11:47:28.615Z</time></trkpt><trkpt lat="45.898238" lon="11.6215486"><ele>979.0</ele><time>2026-05-01T11:47:29.613Z</time></trkpt><trkpt lat="45.8982864" lon="11.6217005"><ele>978.9999999999999</ele><time>2026-05-01T11:47:30.628Z</time></trkpt><trkpt lat="45.8983303" lon="11.6218006"><ele>979.0</ele><time>2026-05-01T11:47:31.604Z</time></trkpt><trkpt lat="45.8983846" lon="11.6218825"><ele>979.0</ele><time>2026-05-01T11:47:32.613Z</time></trkpt><trkpt lat="45.8984116" lon="11.621981"><ele>979.0</ele><time>2026-05-01T11:47:34.602Z</time></trkpt><trkpt lat="45.8983468" lon="11.6220187"><ele>978.9999999999999</ele><time>2026-05-01T11:47:36.603Z</time></trkpt><trkpt lat="45.8982902" lon="11.6219522"><ele>979.0</ele><time>2026-05-01T11:47:37.603Z</time></trkpt><trkpt lat="45.8982054" lon="11.6218693"><ele>979.0</ele><time>2026-05-01T11:47:38.61Z</time></trkpt><trkpt lat="45.8981175" lon="11.6217882"><ele>979.0000000000001</ele><time>2026-05-01T11:47:39.603Z</time></trkpt><trkpt lat="45.8980359" lon="11.6216993"><ele>979.0000000000001</ele><time>2026-05-01T11:47:40.611Z</time></trkpt><trkpt lat="45.8979626" lon="11.6215883"><ele>979.0</ele><time>2026-05-01T11:47:41.608Z</time></trkpt><trkpt lat="45.8978902" lon="11.6214515"><ele>979.0</ele><time>2026-05-01T11:47:42.616Z</time></trkpt><trkpt lat="45.8978244" lon="11.6213134"><ele>979.0</ele><time>2026-05-01T11:47:43.619Z</time></trkpt><trkpt lat="45.8977604" lon="11.6211753"><ele>979.0</ele><time>2026-05-01T11:47:44.602Z</time></trkpt><trkpt lat="45.8976952" lon="11.6210336"><ele>979.0</ele><time>2026-05-01T11:47:45.611Z</time></trkpt><trkpt lat="45.8976317" lon="11.6208939"><ele>979.0</ele><time>2026-05-01T11:47:46.609Z</time></trkpt><trkpt lat="45.8975799" lon="11.6207603"><ele>977.1666666666666</ele><time>2026-05-01T11:47:47.598Z</time></trkpt><trkpt lat="45.8975349" lon="11.6206368"><ele>975.3333333333333</ele><time>2026-05-01T11:47:48.608Z</time></trkpt><trkpt lat="45.8975023" lon="11.6205452"><ele>973.5</ele><time>2026-05-01T11:47:49.608Z</time></trkpt><trkpt lat="45.8974364" lon="11.6204782"><ele>971.6666666666667</ele><time>2026-05-01T11:47:51.623Z</time></trkpt><trkpt lat="45.8974149" lon="11.6205696"><ele>969.8333333333334</ele><time>2026-05-01T11:47:53.608Z</time></trkpt><trkpt lat="45.8974321" lon="11.6206569"><ele>968.0</ele><time>2026-05-01T11:47:54.608Z</time></trkpt><trkpt lat="45.8974571" lon="11.6207722"><ele>968.0</ele><time>2026-05-01T11:47:55.623Z</time></trkpt><trkpt lat="45.897477" lon="11.6209131"><ele>968.0</ele><time>2026-05-01T11:47:56.601Z</time></trkpt><trkpt lat="45.8974811" lon="11.6210732"><ele>968.0</ele><time>2026-05-01T11:47:57.612Z</time></trkpt><trkpt lat="45.89747" lon="11.6212438"><ele>968.0</ele><time>2026-05-01T11:47:58.612Z</time></trkpt><trkpt lat="45.8974561" lon="11.6214066"><ele>968.0</ele><time>2026-05-01T11:47:59.61Z</time></trkpt><trkpt lat="45.8974431" lon="11.6215518"><ele>967.0000000000001</ele><time>2026-05-01T11:48:00.613Z</time></trkpt><trkpt lat="45.8974324" lon="11.6216767"><ele>966.0</ele><time>2026-05-01T11:48:01.605Z</time></trkpt><trkpt lat="45.8974536" lon="11.6217781"><ele>965.0</ele><time>2026-05-01T11:48:02.607Z</time></trkpt><trkpt lat="45.8974752" lon="11.6218718"><ele>964.0</ele><time>2026-05-01T11:48:03.61Z</time></trkpt><trkpt lat="45.897464" lon="11.6219639"><ele>963.0000000000001</ele><time>2026-05-01T11:48:06.613Z</time></trkpt><trkpt lat="45.8973768" lon="11.6218036"><ele>962.0</ele><time>2026-05-01T11:48:08.611Z</time></trkpt><trkpt lat="45.8973266" lon="11.6216749"><ele>962.0</ele><time>2026-05-01T11:48:09.613Z</time></trkpt><trkpt lat="45.8972874" lon="11.6215273"><ele>962.0</ele><time>2026-05-01T11:48:10.622Z</time></trkpt><trkpt lat="45.8972602" lon="11.6213746"><ele>962.0</ele><time>2026-05-01T11:48:11.605Z</time></trkpt><trkpt lat="45.8972193" lon="11.6212238"><ele>962.0</ele><time>2026-05-01T11:48:12.604Z</time></trkpt><trkpt lat="45.8971777" lon="11.6210702"><ele>962.0</ele><time>2026-05-01T11:48:13.613Z</time></trkpt><trkpt lat="45.8971249" lon="11.6209409"><ele>962.0000000000001</ele><time>2026-05-01T11:48:14.602Z</time></trkpt><trkpt lat="45.8970786" lon="11.6208446"><ele>962.0</ele><time>2026-05-01T11:48:15.613Z</time></trkpt><trkpt lat="45.8970032" lon="11.6207395"><ele>962.0</ele><time>2026-05-01T11:48:17.609Z</time></trkpt><trkpt lat="45.8969409" lon="11.6208137"><ele>962.0</ele><time>2026-05-01T11:48:19.623Z</time></trkpt><trkpt lat="45.8969441" lon="11.6209083"><ele>962.0000000000001</ele><time>2026-05-01T11:48:20.607Z</time></trkpt><trkpt lat="45.8969531" lon="11.6210378"><ele>962.0</ele><time>2026-05-01T11:48:21.612Z</time></trkpt><trkpt lat="45.8969604" lon="11.6211882"><ele>962.0</ele><time>2026-05-01T11:48:22.618Z</time></trkpt><trkpt lat="45.896962" lon="11.6213501"><ele>962.0</ele><time>2026-05-01T11:48:23.62Z</time></trkpt><trkpt lat="45.8969529" lon="11.6215193"><ele>962.0</ele><time>2026-05-01T11:48:24.618Z</time></trkpt><trkpt lat="45.8969346" lon="11.6216799"><ele>962.0</ele><time>2026-05-01T11:48:25.61Z</time></trkpt><trkpt lat="45.8969128" lon="11.6218221"><ele>962.0</ele><time>2026-05-01T11:48:26.611Z</time></trkpt><trkpt lat="45.8968982" lon="11.6219496"><ele>960.0</ele><time>2026-05-01T11:48:27.615Z</time></trkpt><trkpt lat="45.8968839" lon="11.6220736"><ele>958.0</ele><time>2026-05-01T11:48:28.618Z</time></trkpt><trkpt lat="45.8969098" lon="11.6222151"><ele>956.0</ele><time>2026-05-01T11:48:29.611Z</time></trkpt><trkpt lat="45.8969374" lon="11.6223707"><ele>954.0</ele><time>2026-05-01T11:48:30.618Z</time></trkpt><trkpt lat="45.8969639" lon="11.6225261"><ele>952.0</ele><time>2026-05-01T11:48:31.61Z</time></trkpt><trkpt lat="45.8969961" lon="11.6226823"><ele>950.4000000000001</ele><time>2026-05-01T11:48:32.616Z</time></trkpt><trkpt lat="45.897038" lon="11.622839"><ele>948.8000000000001</ele><time>2026-05-01T11:48:33.622Z</time></trkpt><trkpt lat="45.8970783" lon="11.622989"><ele>947.2</ele><time>2026-05-01T11:48:34.609Z</time></trkpt><trkpt lat="45.8971086" lon="11.6231349"><ele>945.6</ele><time>2026-05-01T11:48:35.617Z</time></trkpt><trkpt lat="45.8971353" lon="11.6232758"><ele>944.0</ele><time>2026-05-01T11:48:36.604Z</time></trkpt><trkpt lat="45.8971659" lon="11.6234051"><ele>944.0000000000001</ele><time>2026-05-01T11:48:37.599Z</time></trkpt><trkpt lat="45.897197" lon="11.623534"><ele>944.0</ele><time>2026-05-01T11:48:38.606Z</time></trkpt><trkpt lat="45.8972332" lon="11.6236594"><ele>944.0</ele><time>2026-05-01T11:48:39.605Z</time></trkpt><trkpt lat="45.8972566" lon="11.6237674"><ele>944.0</ele><time>2026-05-01T11:48:40.605Z</time></trkpt><trkpt lat="45.8972744" lon="11.6238558"><ele>944.0000000000001</ele><time>2026-05-01T11:48:41.606Z</time></trkpt><trkpt lat="45.8972594" lon="11.6239482"><ele>944.0</ele><time>2026-05-01T11:48:43.622Z</time></trkpt><trkpt lat="45.8971913" lon="11.6239509"><ele>944.25</ele><time>2026-05-01T11:48:44.605Z</time></trkpt><trkpt lat="45.8970971" lon="11.6239427"><ele>944.5</ele><time>2026-05-01T11:48:45.617Z</time></trkpt><trkpt lat="45.8969827" lon="11.6239459"><ele>944.75</ele><time>2026-05-01T11:48:46.606Z</time></trkpt><trkpt lat="45.896859" lon="11.6239521"><ele>945.0</ele><time>2026-05-01T11:48:47.608Z</time></trkpt><trkpt lat="45.8967351" lon="11.6239845"><ele>941.4</ele><time>2026-05-01T11:48:48.609Z</time></trkpt><trkpt lat="45.8966265" lon="11.6240126"><ele>937.8</ele><time>2026-05-01T11:48:49.62Z</time></trkpt><trkpt lat="45.8965174" lon="11.6240256"><ele>934.2</ele><time>2026-05-01T11:48:50.596Z</time></trkpt><trkpt lat="45.8964082" lon="11.6240189"><ele>930.6</ele><time>2026-05-01T11:48:51.605Z</time></trkpt><trkpt lat="45.8962984" lon="11.6240051"><ele>927.0</ele><time>2026-05-01T11:48:52.611Z</time></trkpt><trkpt lat="45.8961865" lon="11.623988"><ele>927.0</ele><time>2026-05-01T11:48:53.608Z</time></trkpt><trkpt lat="45.8960739" lon="11.6239672"><ele>927.0</ele><time>2026-05-01T11:48:54.609Z</time></trkpt><trkpt lat="45.895959" lon="11.6239416"><ele>927.0</ele><time>2026-05-01T11:48:55.613Z</time></trkpt><trkpt lat="45.8958429" lon="11.6239108"><ele>927.0</ele><time>2026-05-01T11:48:56.607Z</time></trkpt><trkpt lat="45.8957316" lon="11.6238786"><ele>925.0</ele><time>2026-05-01T11:48:57.617Z</time></trkpt><trkpt lat="45.8956287" lon="11.6238445"><ele>923.0</ele><time>2026-05-01T11:48:58.6Z</time></trkpt><trkpt lat="45.8955276" lon="11.6238088"><ele>921.0</ele><time>2026-05-01T11:48:59.601Z</time></trkpt><trkpt lat="45.895437" lon="11.6237384"><ele>919.0</ele><time>2026-05-01T11:49:00.609Z</time></trkpt><trkpt lat="45.8953418" lon="11.6236736"><ele>917.0</ele><time>2026-05-01T11:49:01.606Z</time></trkpt><trkpt lat="45.8952404" lon="11.6236203"><ele>915.8</ele><time>2026-05-01T11:49:02.614Z</time></trkpt><trkpt lat="45.8951375" lon="11.6235669"><ele>914.6</ele><time>2026-05-01T11:49:03.611Z</time></trkpt><trkpt lat="45.895033" lon="11.6235179"><ele>913.3999999999999</ele><time>2026-05-01T11:49:04.607Z</time></trkpt><trkpt lat="45.8949309" lon="11.6234801"><ele>912.1999999999999</ele><time>2026-05-01T11:49:05.614Z</time></trkpt><trkpt lat="45.8948324" lon="11.6234564"><ele>911.0</ele><time>2026-05-01T11:49:06.6Z</time></trkpt><trkpt lat="45.894737" lon="11.6234478"><ele>908.3333333333334</ele><time>2026-05-01T11:49:07.605Z</time></trkpt><trkpt lat="45.8946485" lon="11.623441"><ele>905.6666666666667</ele><time>2026-05-01T11:49:08.602Z</time></trkpt><trkpt lat="45.8945799" lon="11.6233975"><ele>903.0</ele><time>2026-05-01T11:49:09.617Z</time></trkpt><trkpt lat="45.894513" lon="11.6233548"><ele>900.3333333333333</ele><time>2026-05-01T11:49:10.603Z</time></trkpt><trkpt lat="45.8944689" lon="11.6232624"><ele>897.6666666666666</ele><time>2026-05-01T11:49:11.595Z</time></trkpt><trkpt lat="45.8944272" lon="11.6231422"><ele>895.0</ele><time>2026-05-01T11:49:12.609Z</time></trkpt><trkpt lat="45.8943712" lon="11.6230083"><ele>895.0</ele><time>2026-05-01T11:49:13.612Z</time></trkpt><trkpt lat="45.8943057" lon="11.6228674"><ele>895.0</ele><time>2026-05-01T11:49:14.608Z</time></trkpt><trkpt lat="45.8942294" lon="11.6227294"><ele>895.0</ele><time>2026-05-01T11:49:15.617Z</time></trkpt><trkpt lat="45.8941482" lon="11.6225888"><ele>895.0</ele><time>2026-05-01T11:49:16.61Z</time></trkpt><trkpt lat="45.894064" lon="11.6224503"><ele>891.75</ele><time>2026-05-01T11:49:17.603Z</time></trkpt><trkpt lat="45.8939757" lon="11.6223142"><ele>888.5</ele><time>2026-05-01T11:49:18.61Z</time></trkpt><trkpt lat="45.8938926" lon="11.6221884"><ele>885.25</ele><time>2026-05-01T11:49:19.611Z</time></trkpt><trkpt lat="45.8938154" lon="11.622067"><ele>882.0</ele><time>2026-05-01T11:49:20.612Z</time></trkpt><trkpt lat="45.8937433" lon="11.6219407"><ele>882.0</ele><time>2026-05-01T11:49:21.618Z</time></trkpt><trkpt lat="45.8936776" lon="11.621805"><ele>882.0</ele><time>2026-05-01T11:49:22.607Z</time></trkpt><trkpt lat="45.8936152" lon="11.6216596"><ele>882.0</ele><time>2026-05-01T11:49:23.601Z</time></trkpt><trkpt lat="45.8935574" lon="11.6215048"><ele>882.0</ele><time>2026-05-01T11:49:24.617Z</time></trkpt><trkpt lat="45.8935076" lon="11.6213384"><ele>882.0</ele><time>2026-05-01T11:49:25.611Z</time></trkpt><trkpt lat="45.893459" lon="11.6211709"><ele>882.0</ele><time>2026-05-01T11:49:26.611Z</time></trkpt><trkpt lat="45.8934104" lon="11.6210104"><ele>882.0</ele><time>2026-05-01T11:49:27.616Z</time></trkpt><trkpt lat="45.8933703" lon="11.6208656"><ele>882.0</ele><time>2026-05-01T11:49:28.605Z</time></trkpt><trkpt lat="45.893345" lon="11.6207319"><ele>881.0</ele><time>2026-05-01T11:49:29.613Z</time></trkpt><trkpt lat="45.8933422" lon="11.6206028"><ele>880.0</ele><time>2026-05-01T11:49:30.611Z</time></trkpt><trkpt lat="45.8933401" lon="11.6204738"><ele>879.0</ele><time>2026-05-01T11:49:31.603Z</time></trkpt><trkpt lat="45.8933405" lon="11.6203517"><ele>878.0</ele><time>2026-05-01T11:49:32.618Z</time></trkpt><trkpt lat="45.89334" lon="11.620239"><ele>877.0</ele><time>2026-05-01T11:49:33.618Z</time></trkpt><trkpt lat="45.8933155" lon="11.6201501"><ele>876.0</ele><time>2026-05-01T11:49:34.603Z</time></trkpt><trkpt lat="45.8932251" lon="11.620057"><ele>876.0</ele><time>2026-05-01T11:49:36.607Z</time></trkpt><trkpt lat="45.8931572" lon="11.6200207"><ele>875.9999999999999</ele><time>2026-05-01T11:49:37.612Z</time></trkpt><trkpt lat="45.8930566" lon="11.6200366"><ele>875.9999999999999</ele><time>2026-05-01T11:49:38.615Z</time></trkpt><trkpt lat="45.892948" lon="11.6200488"><ele>876.0</ele><time>2026-05-01T11:49:39.602Z</time></trkpt><trkpt lat="45.8928243" lon="11.6200571"><ele>876.0</ele><time>2026-05-01T11:49:40.606Z</time></trkpt><trkpt lat="45.8926965" lon="11.6200885"><ele>876.25</ele><time>2026-05-01T11:49:41.609Z</time></trkpt><trkpt lat="45.8925648" lon="11.6201444"><ele>876.5</ele><time>2026-05-01T11:49:42.609Z</time></trkpt><trkpt lat="45.8924327" lon="11.6202176"><ele>876.75</ele><time>2026-05-01T11:49:43.613Z</time></trkpt><trkpt lat="45.8922979" lon="11.6202972"><ele>877.0</ele><time>2026-05-01T11:49:44.604Z</time></trkpt><trkpt lat="45.8921595" lon="11.6203795"><ele>871.3333333333333</ele><time>2026-05-01T11:49:45.618Z</time></trkpt><trkpt lat="45.8920199" lon="11.6204682"><ele>865.6666666666667</ele><time>2026-05-01T11:49:46.611Z</time></trkpt><trkpt lat="45.8918802" lon="11.6205593"><ele>860.0</ele><time>2026-05-01T11:49:47.603Z</time></trkpt><trkpt lat="45.8917441" lon="11.6206511"><ele>860.0</ele><time>2026-05-01T11:49:48.602Z</time></trkpt><trkpt lat="45.8916065" lon="11.620745"><ele>860.0</ele><time>2026-05-01T11:49:49.617Z</time></trkpt><trkpt lat="45.8914658" lon="11.6208237"><ele>860.0</ele><time>2026-05-01T11:49:50.617Z</time></trkpt><trkpt lat="45.8913316" lon="11.620891"><ele>860.0</ele><time>2026-05-01T11:49:51.608Z</time></trkpt><trkpt lat="45.8911998" lon="11.6209573"><ele>860.0</ele><time>2026-05-01T11:49:52.602Z</time></trkpt><trkpt lat="45.8910655" lon="11.621028"><ele>860.0</ele><time>2026-05-01T11:49:53.609Z</time></trkpt><trkpt lat="45.8909376" lon="11.6211209"><ele>860.0</ele><time>2026-05-01T11:49:54.607Z</time></trkpt><trkpt lat="45.8908017" lon="11.6212399"><ele>860.0</ele><time>2026-05-01T11:49:55.61Z</time></trkpt><trkpt lat="45.8906693" lon="11.621356"><ele>855.6666666666667</ele><time>2026-05-01T11:49:56.611Z</time></trkpt><trkpt lat="45.8905437" lon="11.6214823"><ele>851.3333333333333</ele><time>2026-05-01T11:49:57.616Z</time></trkpt><trkpt lat="45.8904116" lon="11.6216171"><ele>847.0</ele><time>2026-05-01T11:49:58.607Z</time></trkpt><trkpt lat="45.8902792" lon="11.6217527"><ele>847.0</ele><time>2026-05-01T11:49:59.605Z</time></trkpt><trkpt lat="45.8901457" lon="11.6218879"><ele>847.0</ele><time>2026-05-01T11:50:00.608Z</time></trkpt><trkpt lat="45.8900084" lon="11.6220265"><ele>847.0</ele><time>2026-05-01T11:50:01.606Z</time></trkpt><trkpt lat="45.8898776" lon="11.6221566"><ele>845.0</ele><time>2026-05-01T11:50:02.605Z</time></trkpt><trkpt lat="45.8897543" lon="11.6222818"><ele>843.0</ele><time>2026-05-01T11:50:03.616Z</time></trkpt><trkpt lat="45.8896402" lon="11.6223976"><ele>841.0</ele><time>2026-05-01T11:50:04.607Z</time></trkpt><trkpt lat="45.8895272" lon="11.6225082"><ele>839.0</ele><time>2026-05-01T11:50:05.618Z</time></trkpt><trkpt lat="45.8894118" lon="11.6226051"><ele>839.0</ele><time>2026-05-01T11:50:06.599Z</time></trkpt><trkpt lat="45.8892948" lon="11.622689"><ele>839.0</ele><time>2026-05-01T11:50:07.607Z</time></trkpt><trkpt lat="45.8891663" lon="11.6227617"><ele>839.0</ele><time>2026-05-01T11:50:08.61Z</time></trkpt><trkpt lat="45.8890395" lon="11.622825"><ele>839.0</ele><time>2026-05-01T11:50:09.612Z</time></trkpt><trkpt lat="45.8889183" lon="11.6228888"><ele>838.0</ele><time>2026-05-01T11:50:10.599Z</time></trkpt><trkpt lat="45.8887941" lon="11.6229628"><ele>837.0</ele><time>2026-05-01T11:50:11.607Z</time></trkpt><trkpt lat="45.8886684" lon="11.6230467"><ele>836.0</ele><time>2026-05-01T11:50:12.602Z</time></trkpt><trkpt lat="45.8885465" lon="11.6231265"><ele>835.0</ele><time>2026-05-01T11:50:13.608Z</time></trkpt><trkpt lat="45.8884229" lon="11.6231934"><ele>833.75</ele><time>2026-05-01T11:50:14.604Z</time></trkpt><trkpt lat="45.8882952" lon="11.6232474"><ele>832.5</ele><time>2026-05-01T11:50:15.62Z</time></trkpt><trkpt lat="45.8881637" lon="11.6232877"><ele>831.25</ele><time>2026-05-01T11:50:16.596Z</time></trkpt><trkpt lat="45.8880326" lon="11.6233142"><ele>830.0</ele><time>2026-05-01T11:50:17.59Z</time></trkpt><trkpt lat="45.8879" lon="11.623328"><ele>830.0</ele><time>2026-05-01T11:50:18.61Z</time></trkpt><trkpt lat="45.8877665" lon="11.6233295"><ele>830.0</ele><time>2026-05-01T11:50:19.606Z</time></trkpt><trkpt lat="45.8876377" lon="11.6233282"><ele>830.0</ele><time>2026-05-01T11:50:20.607Z</time></trkpt><trkpt lat="45.8875161" lon="11.6233401"><ele>830.0</ele><time>2026-05-01T11:50:21.603Z</time></trkpt><trkpt lat="45.8874008" lon="11.6233589"><ele>828.6</ele><time>2026-05-01T11:50:22.62Z</time></trkpt><trkpt lat="45.8872959" lon="11.6233751"><ele>827.2</ele><time>2026-05-01T11:50:23.602Z</time></trkpt><trkpt lat="45.8872019" lon="11.6233772"><ele>825.8</ele><time>2026-05-01T11:50:24.606Z</time></trkpt><trkpt lat="45.8871114" lon="11.6233572"><ele>824.4</ele><time>2026-05-01T11:50:25.619Z</time></trkpt><trkpt lat="45.8870227" lon="11.6233044"><ele>823.0</ele><time>2026-05-01T11:50:26.61Z</time></trkpt><trkpt lat="45.8869314" lon="11.6232349"><ele>823.0</ele><time>2026-05-01T11:50:27.605Z</time></trkpt><trkpt lat="45.8868328" lon="11.6231582"><ele>823.0</ele><time>2026-05-01T11:50:28.596Z</time></trkpt><trkpt lat="45.886729" lon="11.623076"><ele>823.0</ele><time>2026-05-01T11:50:29.606Z</time></trkpt><trkpt lat="45.8866277" lon="11.6229969"><ele>823.0</ele><time>2026-05-01T11:50:30.605Z</time></trkpt><trkpt lat="45.8865307" lon="11.6229239"><ele>822.8</ele><time>2026-05-01T11:50:31.603Z</time></trkpt><trkpt lat="45.8864417" lon="11.6228578"><ele>822.5999999999999</ele><time>2026-05-01T11:50:32.601Z</time></trkpt><trkpt lat="45.8863578" lon="11.6227904"><ele>822.4000000000001</ele><time>2026-05-01T11:50:33.611Z</time></trkpt><trkpt lat="45.8862813" lon="11.6227211"><ele>822.2</ele><time>2026-05-01T11:50:34.61Z</time></trkpt><trkpt lat="45.8862015" lon="11.6226608"><ele>822.0</ele><time>2026-05-01T11:50:35.602Z</time></trkpt><trkpt lat="45.8861126" lon="11.6226294"><ele>822.0</ele><time>2026-05-01T11:50:36.603Z</time></trkpt><trkpt lat="45.8860241" lon="11.622604"><ele>822.0</ele><time>2026-05-01T11:50:37.61Z</time></trkpt><trkpt lat="45.8859379" lon="11.6225883"><ele>822.0</ele><time>2026-05-01T11:50:38.606Z</time></trkpt><trkpt lat="45.885851" lon="11.6225747"><ele>822.0</ele><time>2026-05-01T11:50:39.607Z</time></trkpt><trkpt lat="45.8857668" lon="11.6225771"><ele>822.0</ele><time>2026-05-01T11:50:40.601Z</time></trkpt><trkpt lat="45.8856753" lon="11.6225911"><ele>822.0</ele><time>2026-05-01T11:50:41.608Z</time></trkpt><trkpt lat="45.8855843" lon="11.6225957"><ele>821.2</ele><time>2026-05-01T11:50:42.594Z</time></trkpt><trkpt lat="45.8854898" lon="11.6225822"><ele>820.4000000000001</ele><time>2026-05-01T11:50:43.598Z</time></trkpt><trkpt lat="45.8853946" lon="11.6225783"><ele>819.5999999999999</ele><time>2026-05-01T11:50:44.603Z</time></trkpt><trkpt lat="45.8852989" lon="11.6225962"><ele>818.8</ele><time>2026-05-01T11:50:45.61Z</time></trkpt><trkpt lat="45.8852069" lon="11.6226114"><ele>818.0</ele><time>2026-05-01T11:50:46.605Z</time></trkpt><trkpt lat="45.8851226" lon="11.6226196"><ele>817.5000000000001</ele><time>2026-05-01T11:50:47.604Z</time></trkpt><trkpt lat="45.8850359" lon="11.6226071"><ele>817.0</ele><time>2026-05-01T11:50:48.603Z</time></trkpt><trkpt lat="45.88495" lon="11.6225672"><ele>816.5</ele><time>2026-05-01T11:50:49.617Z</time></trkpt><trkpt lat="45.884865" lon="11.6225178"><ele>816.0</ele><time>2026-05-01T11:50:50.603Z</time></trkpt><trkpt lat="45.8847781" lon="11.6224775"><ele>815.5000000000001</ele><time>2026-05-01T11:50:51.609Z</time></trkpt><trkpt lat="45.8846974" lon="11.6224421"><ele>815.0</ele><time>2026-05-01T11:50:52.604Z</time></trkpt><trkpt lat="45.8846224" lon="11.6224126"><ele>815.0</ele><time>2026-05-01T11:50:53.614Z</time></trkpt><trkpt lat="45.8845562" lon="11.6223792"><ele>815.0</ele><time>2026-05-01T11:50:54.601Z</time></trkpt><trkpt lat="45.8844536" lon="11.6222917"><ele>815.0</ele><time>2026-05-01T11:50:56.6Z</time></trkpt><trkpt lat="45.8844361" lon="11.6221139"><ele>815.0</ele><time>2026-05-01T11:50:58.604Z</time></trkpt><trkpt lat="45.8844023" lon="11.6220196"><ele>815.0</ele><time>2026-05-01T11:50:59.61Z</time></trkpt><trkpt lat="45.8843433" lon="11.6219466"><ele>816.2</ele><time>2026-05-01T11:51:00.622Z</time></trkpt><trkpt lat="45.8842675" lon="11.6218771"><ele>817.4</ele><time>2026-05-01T11:51:01.605Z</time></trkpt><trkpt lat="45.884178" lon="11.6218049"><ele>818.5999999999999</ele><time>2026-05-01T11:51:02.614Z</time></trkpt><trkpt lat="45.8840801" lon="11.6217255"><ele>819.8</ele><time>2026-05-01T11:51:03.608Z</time></trkpt><trkpt lat="45.8839784" lon="11.6216479"><ele>821.0</ele><time>2026-05-01T11:51:04.605Z</time></trkpt><trkpt lat="45.8838749" lon="11.6215734"><ele>821.0</ele><time>2026-05-01T11:51:05.611Z</time></trkpt><trkpt lat="45.8837736" lon="11.6215038"><ele>821.0</ele><time>2026-05-01T11:51:06.599Z</time></trkpt><trkpt lat="45.883695" lon="11.6214441"><ele>821.0</ele><time>2026-05-01T11:51:07.608Z</time></trkpt><trkpt lat="45.8836087" lon="11.6213819"><ele>821.0</ele><time>2026-05-01T11:51:08.606Z</time></trkpt><trkpt lat="45.8835278" lon="11.6213174"><ele>821.0</ele><time>2026-05-01T11:51:09.633Z</time></trkpt><trkpt lat="45.8834447" lon="11.6212457"><ele>820.0</ele><time>2026-05-01T11:51:10.606Z</time></trkpt><trkpt lat="45.8833941" lon="11.6211669"><ele>819.0</ele><time>2026-05-01T11:51:11.605Z</time></trkpt><trkpt lat="45.8833748" lon="11.6210115"><ele>818.0</ele><time>2026-05-01T11:51:13.613Z</time></trkpt><trkpt lat="45.8834038" lon="11.6209142"><ele>817.0</ele><time>2026-05-01T11:51:14.605Z</time></trkpt><trkpt lat="45.8834634" lon="11.6208078"><ele>816.0</ele><time>2026-05-01T11:51:15.608Z</time></trkpt><trkpt lat="45.8835527" lon="11.6206879"><ele>819.8</ele><time>2026-05-01T11:51:16.603Z</time></trkpt><trkpt lat="45.8836249" lon="11.6205876"><ele>823.5999999999999</ele><time>2026-05-01T11:51:17.623Z</time></trkpt><trkpt lat="45.8836852" lon="11.6205077"><ele>827.4</ele><time>2026-05-01T11:51:18.609Z</time></trkpt><trkpt lat="45.8837215" lon="11.6203461"><ele>831.2</ele><time>2026-05-01T11:51:20.607Z</time></trkpt><trkpt lat="45.8836748" lon="11.6202655"><ele>835.0</ele><time>2026-05-01T11:51:21.61Z</time></trkpt><trkpt lat="45.8836139" lon="11.6201693"><ele>838.0</ele><time>2026-05-01T11:51:22.609Z</time></trkpt><trkpt lat="45.8835123" lon="11.6200641"><ele>841.0</ele><time>2026-05-01T11:51:23.606Z</time></trkpt><trkpt lat="45.8834217" lon="11.6199542"><ele>844.0</ele><time>2026-05-01T11:51:24.613Z</time></trkpt><trkpt lat="45.8833184" lon="11.6198511"><ele>847.0</ele><time>2026-05-01T11:51:25.612Z</time></trkpt><trkpt lat="45.8832161" lon="11.6197579"><ele>844.8</ele><time>2026-05-01T11:51:26.592Z</time></trkpt><trkpt lat="45.8831203" lon="11.6196321"><ele>842.6</ele><time>2026-05-01T11:51:27.596Z</time></trkpt><trkpt lat="45.8830325" lon="11.6195431"><ele>840.4</ele><time>2026-05-01T11:51:28.599Z</time></trkpt><trkpt lat="45.8829586" lon="11.6194523"><ele>838.1999999999999</ele><time>2026-05-01T11:51:29.603Z</time></trkpt><trkpt lat="45.8829018" lon="11.6193742"><ele>836.0</ele><time>2026-05-01T11:51:30.606Z</time></trkpt><trkpt lat="45.8828672" lon="11.6192259"><ele>836.0</ele><time>2026-05-01T11:51:32.604Z</time></trkpt><trkpt lat="45.8829239" lon="11.6190261"><ele>836.0</ele><time>2026-05-01T11:51:34.61Z</time></trkpt><trkpt lat="45.88298" lon="11.6189032"><ele>836.0</ele><time>2026-05-01T11:51:35.606Z</time></trkpt><trkpt lat="45.883036" lon="11.6187883"><ele>836.0</ele><time>2026-05-01T11:51:36.606Z</time></trkpt><trkpt lat="45.8830549" lon="11.618682"><ele>836.0</ele><time>2026-05-01T11:51:37.608Z</time></trkpt><trkpt lat="45.8830515" lon="11.6185737"><ele>837.0</ele><time>2026-05-01T11:51:38.609Z</time></trkpt><trkpt lat="45.8830401" lon="11.6184592"><ele>838.0</ele><time>2026-05-01T11:51:39.606Z</time></trkpt><trkpt lat="45.8829797" lon="11.6183454"><ele>839.0</ele><time>2026-05-01T11:51:40.603Z</time></trkpt><trkpt lat="45.8828999" lon="11.6182446"><ele>840.0</ele><time>2026-05-01T11:51:41.606Z</time></trkpt><trkpt lat="45.8828056" lon="11.6181363"><ele>841.0</ele><time>2026-05-01T11:51:42.602Z</time></trkpt><trkpt lat="45.882706" lon="11.6180313"><ele>841.0</ele><time>2026-05-01T11:51:43.603Z</time></trkpt><trkpt lat="45.8826172" lon="11.6179463"><ele>841.0</ele><time>2026-05-01T11:51:44.61Z</time></trkpt><trkpt lat="45.8825601" lon="11.6178269"><ele>841.0</ele><time>2026-05-01T11:51:45.604Z</time></trkpt><trkpt lat="45.8825049" lon="11.6176861"><ele>841.0</ele><time>2026-05-01T11:51:47.622Z</time></trkpt><trkpt lat="45.8825216" lon="11.617586"><ele>841.0</ele><time>2026-05-01T11:51:48.613Z</time></trkpt><trkpt lat="45.8825807" lon="11.6174946"><ele>842.25</ele><time>2026-05-01T11:51:49.606Z</time></trkpt><trkpt lat="45.8826668" lon="11.6174149"><ele>843.5</ele><time>2026-05-01T11:51:50.613Z</time></trkpt><trkpt lat="45.8827795" lon="11.617333"><ele>844.75</ele><time>2026-05-01T11:51:51.608Z</time></trkpt><trkpt lat="45.8829111" lon="11.617253"><ele>846.0</ele><time>2026-05-01T11:51:52.62Z</time></trkpt><trkpt lat="45.8830531" lon="11.6171711"><ele>846.0</ele><time>2026-05-01T11:51:53.611Z</time></trkpt><trkpt lat="45.8831826" lon="11.6170854"><ele>846.0</ele><time>2026-05-01T11:51:54.608Z</time></trkpt><trkpt lat="45.8833245" lon="11.6170021"><ele>846.0</ele><time>2026-05-01T11:51:55.605Z</time></trkpt><trkpt lat="45.8834505" lon="11.6169026"><ele>846.0</ele><time>2026-05-01T11:51:56.602Z</time></trkpt><trkpt lat="45.8835789" lon="11.6168061"><ele>847.25</ele><time>2026-05-01T11:51:57.63Z</time></trkpt><trkpt lat="45.8837063" lon="11.6167067"><ele>848.5</ele><time>2026-05-01T11:51:58.609Z</time></trkpt><trkpt lat="45.8838169" lon="11.6165808"><ele>849.75</ele><time>2026-05-01T11:51:59.599Z</time></trkpt><trkpt lat="45.8839218" lon="11.6164495"><ele>851.0</ele><time>2026-05-01T11:52:00.609Z</time></trkpt><trkpt lat="45.8840157" lon="11.6163301"><ele>851.0</ele><time>2026-05-01T11:52:01.603Z</time></trkpt><trkpt lat="45.8840951" lon="11.6162265"><ele>851.0</ele><time>2026-05-01T11:52:02.598Z</time></trkpt><trkpt lat="45.8841803" lon="11.6161343"><ele>851.0</ele><time>2026-05-01T11:52:03.612Z</time></trkpt><trkpt lat="45.8842648" lon="11.616057"><ele>851.0</ele><time>2026-05-01T11:52:04.608Z</time></trkpt><trkpt lat="45.8843538" lon="11.6159927"><ele>851.0</ele><time>2026-05-01T11:52:05.618Z</time></trkpt><trkpt lat="45.884441" lon="11.6159391"><ele>849.5999999999999</ele><time>2026-05-01T11:52:06.607Z</time></trkpt><trkpt lat="45.8845326" lon="11.615895"><ele>848.2</ele><time>2026-05-01T11:52:07.601Z</time></trkpt><trkpt lat="45.8846336" lon="11.6158729"><ele>846.8</ele><time>2026-05-01T11:52:08.611Z</time></trkpt><trkpt lat="45.8847377" lon="11.6158633"><ele>845.4000000000001</ele><time>2026-05-01T11:52:09.613Z</time></trkpt><trkpt lat="45.8848375" lon="11.615856"><ele>844.0</ele><time>2026-05-01T11:52:10.603Z</time></trkpt><trkpt lat="45.8849437" lon="11.6158594"><ele>844.0</ele><time>2026-05-01T11:52:11.598Z</time></trkpt><trkpt lat="45.8850468" lon="11.6158651"><ele>844.0</ele><time>2026-05-01T11:52:12.607Z</time></trkpt><trkpt lat="45.8851545" lon="11.6158764"><ele>844.0</ele><time>2026-05-01T11:52:13.607Z</time></trkpt><trkpt lat="45.8852667" lon="11.6158878"><ele>844.0</ele><time>2026-05-01T11:52:14.604Z</time></trkpt><trkpt lat="45.8853838" lon="11.6159041"><ele>844.0</ele><time>2026-05-01T11:52:15.616Z</time></trkpt><trkpt lat="45.8854852" lon="11.6159242"><ele>844.0</ele><time>2026-05-01T11:52:16.605Z</time></trkpt><trkpt lat="45.8855854" lon="11.615947"><ele>844.0</ele><time>2026-05-01T11:52:17.603Z</time></trkpt><trkpt lat="45.8856859" lon="11.6159691"><ele>844.0</ele><time>2026-05-01T11:52:18.602Z</time></trkpt><trkpt lat="45.885785" lon="11.6159929"><ele>844.0</ele><time>2026-05-01T11:52:19.607Z</time></trkpt><trkpt lat="45.8858789" lon="11.6160168"><ele>844.0</ele><time>2026-05-01T11:52:20.599Z</time></trkpt><trkpt lat="45.8859762" lon="11.6160427"><ele>844.0</ele><time>2026-05-01T11:52:21.601Z</time></trkpt><trkpt lat="45.8860777" lon="11.6160723"><ele>844.0</ele><time>2026-05-01T11:52:22.605Z</time></trkpt><trkpt lat="45.8861847" lon="11.6161046"><ele>844.0</ele><time>2026-05-01T11:52:23.604Z</time></trkpt><trkpt lat="45.8862949" lon="11.6161415"><ele>844.0</ele><time>2026-05-01T11:52:24.605Z</time></trkpt><trkpt lat="45.886407" lon="11.6161809"><ele>844.0</ele><time>2026-05-01T11:52:25.624Z</time></trkpt><trkpt lat="45.8865137" lon="11.6162255"><ele>850.0</ele><time>2026-05-01T11:52:26.623Z</time></trkpt><trkpt lat="45.8866139" lon="11.6162685"><ele>856.0</ele><time>2026-05-01T11:52:27.6Z</time></trkpt><trkpt lat="45.8867223" lon="11.6163128"><ele>862.0000000000001</ele><time>2026-05-01T11:52:28.616Z</time></trkpt><trkpt lat="45.8868287" lon="11.6163607"><ele>868.0</ele><time>2026-05-01T11:52:29.61Z</time></trkpt><trkpt lat="45.8869356" lon="11.6164003"><ele>874.0</ele><time>2026-05-01T11:52:30.601Z</time></trkpt><trkpt lat="45.88704" lon="11.6164293"><ele>875.6</ele><time>2026-05-01T11:52:31.63Z</time></trkpt><trkpt lat="45.8871368" lon="11.6164582"><ele>877.2</ele><time>2026-05-01T11:52:32.618Z</time></trkpt><trkpt lat="45.8872321" lon="11.6164807"><ele>878.8000000000001</ele><time>2026-05-01T11:52:33.603Z</time></trkpt><trkpt lat="45.8873365" lon="11.6164958"><ele>880.4000000000001</ele><time>2026-05-01T11:52:34.603Z</time></trkpt><trkpt lat="45.8874387" lon="11.6164987"><ele>882.0</ele><time>2026-05-01T11:52:35.603Z</time></trkpt><trkpt lat="45.8875463" lon="11.6164848"><ele>885.6666666666666</ele><time>2026-05-01T11:52:36.604Z</time></trkpt><trkpt lat="45.8876671" lon="11.6164432"><ele>889.3333333333333</ele><time>2026-05-01T11:52:37.595Z</time></trkpt><trkpt lat="45.8877369" lon="11.6164026"><ele>893.0</ele><time>2026-05-01T11:52:38.6Z</time></trkpt><trkpt lat="45.8878068" lon="11.6163557"><ele>896.6666666666666</ele><time>2026-05-01T11:52:39.604Z</time></trkpt><trkpt lat="45.8878696" lon="11.6163012"><ele>900.3333333333333</ele><time>2026-05-01T11:52:40.599Z</time></trkpt><trkpt lat="45.8878964" lon="11.6162117"><ele>904.0</ele><time>2026-05-01T11:52:41.595Z</time></trkpt><trkpt lat="45.8878858" lon="11.6160866"><ele>904.0</ele><time>2026-05-01T11:52:42.605Z</time></trkpt><trkpt lat="45.8878525" lon="11.6159564"><ele>904.0000000000001</ele><time>2026-05-01T11:52:43.597Z</time></trkpt><trkpt lat="45.887801" lon="11.6158301"><ele>904.0000000000001</ele><time>2026-05-01T11:52:44.601Z</time></trkpt><trkpt lat="45.8877198" lon="11.6156963"><ele>904.0</ele><time>2026-05-01T11:52:45.596Z</time></trkpt><trkpt lat="45.8876342" lon="11.6155703"><ele>904.0</ele><time>2026-05-01T11:52:46.614Z</time></trkpt><trkpt lat="45.8875431" lon="11.6154395"><ele>899.0</ele><time>2026-05-01T11:52:47.601Z</time></trkpt><trkpt lat="45.8874554" lon="11.6153008"><ele>894.0</ele><time>2026-05-01T11:52:48.596Z</time></trkpt><trkpt lat="45.8873731" lon="11.6151774"><ele>889.0</ele><time>2026-05-01T11:52:49.607Z</time></trkpt><trkpt lat="45.8872891" lon="11.6150446"><ele>884.0</ele><time>2026-05-01T11:52:50.607Z</time></trkpt><trkpt lat="45.8872094" lon="11.6149073"><ele>884.0</ele><time>2026-05-01T11:52:51.609Z</time></trkpt><trkpt lat="45.8871296" lon="11.6147548"><ele>884.0</ele><time>2026-05-01T11:52:52.593Z</time></trkpt><trkpt lat="45.8870592" lon="11.6146075"><ele>884.0</ele><time>2026-05-01T11:52:53.592Z</time></trkpt><trkpt lat="45.8869944" lon="11.6144707"><ele>884.0</ele><time>2026-05-01T11:52:54.603Z</time></trkpt><trkpt lat="45.8869386" lon="11.6143575"><ele>885.6666666666667</ele><time>2026-05-01T11:52:55.608Z</time></trkpt><trkpt lat="45.8868878" lon="11.6142626"><ele>887.3333333333334</ele><time>2026-05-01T11:52:56.613Z</time></trkpt><trkpt lat="45.8868448" lon="11.614156"><ele>889.0</ele><time>2026-05-01T11:52:57.605Z</time></trkpt><trkpt lat="45.8868307" lon="11.6140449"><ele>890.6666666666667</ele><time>2026-05-01T11:52:58.604Z</time></trkpt><trkpt lat="45.8868293" lon="11.6139323"><ele>892.3333333333334</ele><time>2026-05-01T11:52:59.61Z</time></trkpt><trkpt lat="45.8868482" lon="11.6137939"><ele>894.0</ele><time>2026-05-01T11:53:00.599Z</time></trkpt><trkpt lat="45.8868702" lon="11.6136431"><ele>896.0</ele><time>2026-05-01T11:53:01.598Z</time></trkpt><trkpt lat="45.8868835" lon="11.6134822"><ele>898.0</ele><time>2026-05-01T11:53:02.604Z</time></trkpt><trkpt lat="45.8868928" lon="11.6133189"><ele>900.0</ele><time>2026-05-01T11:53:03.601Z</time></trkpt><trkpt lat="45.8868914" lon="11.6131445"><ele>902.0</ele><time>2026-05-01T11:53:04.601Z</time></trkpt><trkpt lat="45.8868847" lon="11.6129772"><ele>902.6</ele><time>2026-05-01T11:53:05.604Z</time></trkpt><trkpt lat="45.8868668" lon="11.612819"><ele>903.2</ele><time>2026-05-01T11:53:06.599Z</time></trkpt><trkpt lat="45.8868333" lon="11.6126568"><ele>903.8</ele><time>2026-05-01T11:53:07.603Z</time></trkpt><trkpt lat="45.8868052" lon="11.6125069"><ele>904.4</ele><time>2026-05-01T11:53:08.605Z</time></trkpt><trkpt lat="45.886783" lon="11.6123618"><ele>905.0</ele><time>2026-05-01T11:53:09.606Z</time></trkpt><trkpt lat="45.8867709" lon="11.6122237"><ele>905.0000000000001</ele><time>2026-05-01T11:53:10.6Z</time></trkpt><trkpt lat="45.8867806" lon="11.6120953"><ele>905.0</ele><time>2026-05-01T11:53:11.607Z</time></trkpt><trkpt lat="45.8868009" lon="11.6119715"><ele>905.0</ele><time>2026-05-01T11:53:12.605Z</time></trkpt><trkpt lat="45.8868201" lon="11.6118608"><ele>905.0</ele><time>2026-05-01T11:53:13.607Z</time></trkpt><trkpt lat="45.8868462" lon="11.6117579"><ele>905.0000000000001</ele><time>2026-05-01T11:53:14.61Z</time></trkpt><trkpt lat="45.8868931" lon="11.6116592"><ele>905.0</ele><time>2026-05-01T11:53:15.603Z</time></trkpt><trkpt lat="45.8869655" lon="11.6115874"><ele>902.6</ele><time>2026-05-01T11:53:16.608Z</time></trkpt><trkpt lat="45.8870556" lon="11.6115239"><ele>900.2</ele><time>2026-05-01T11:53:17.621Z</time></trkpt><trkpt lat="45.887156" lon="11.6114613"><ele>897.8</ele><time>2026-05-01T11:53:18.605Z</time></trkpt><trkpt lat="45.8872609" lon="11.611399"><ele>895.4</ele><time>2026-05-01T11:53:19.598Z</time></trkpt><trkpt lat="45.8873748" lon="11.6113432"><ele>893.0</ele><time>2026-05-01T11:53:20.601Z</time></trkpt><trkpt lat="45.8874901" lon="11.6112905"><ele>890.5999999999999</ele><time>2026-05-01T11:53:21.601Z</time></trkpt><trkpt lat="45.8875938" lon="11.6112394"><ele>888.1999999999999</ele><time>2026-05-01T11:53:22.603Z</time></trkpt><trkpt lat="45.8876959" lon="11.6111931"><ele>885.8</ele><time>2026-05-01T11:53:23.606Z</time></trkpt><trkpt lat="45.8877979" lon="11.6111492"><ele>883.4</ele><time>2026-05-01T11:53:24.605Z</time></trkpt><trkpt lat="45.8878975" lon="11.611123"><ele>881.0</ele><time>2026-05-01T11:53:25.603Z</time></trkpt><trkpt lat="45.8880024" lon="11.6111152"><ele>881.0</ele><time>2026-05-01T11:53:26.612Z</time></trkpt><trkpt lat="45.8881092" lon="11.6111126"><ele>880.9999999999999</ele><time>2026-05-01T11:53:27.602Z</time></trkpt><trkpt lat="45.8882213" lon="11.61112"><ele>880.9999999999999</ele><time>2026-05-01T11:53:28.598Z</time></trkpt><trkpt lat="45.888331" lon="11.6111291"><ele>881.0</ele><time>2026-05-01T11:53:29.599Z</time></trkpt><trkpt lat="45.8884329" lon="11.6111469"><ele>881.0</ele><time>2026-05-01T11:53:30.601Z</time></trkpt><trkpt lat="45.8885325" lon="11.6111605"><ele>884.0000000000001</ele><time>2026-05-01T11:53:31.595Z</time></trkpt><trkpt lat="45.8886147" lon="11.6111768"><ele>887.0</ele><time>2026-05-01T11:53:32.604Z</time></trkpt><trkpt lat="45.8886848" lon="11.6111571"><ele>890.0</ele><time>2026-05-01T11:53:33.603Z</time></trkpt><trkpt lat="45.8887402" lon="11.6110988"><ele>893.0</ele><time>2026-05-01T11:53:34.594Z</time></trkpt><trkpt lat="45.8887702" lon="11.6109955"><ele>896.0000000000001</ele><time>2026-05-01T11:53:35.602Z</time></trkpt><trkpt lat="45.8887834" lon="11.6108769"><ele>899.0</ele><time>2026-05-01T11:53:36.607Z</time></trkpt><trkpt lat="45.8887392" lon="11.610766"><ele>899.0000000000001</ele><time>2026-05-01T11:53:37.602Z</time></trkpt><trkpt lat="45.8886952" lon="11.6106624"><ele>899.0</ele><time>2026-05-01T11:53:38.6Z</time></trkpt><trkpt lat="45.8886603" lon="11.6105641"><ele>899.0</ele><time>2026-05-01T11:53:39.599Z</time></trkpt><trkpt lat="45.8886347" lon="11.6104585"><ele>899.0</ele><time>2026-05-01T11:53:40.595Z</time></trkpt><trkpt lat="45.8886258" lon="11.6103567"><ele>899.0000000000001</ele><time>2026-05-01T11:53:41.604Z</time></trkpt><trkpt lat="45.8886576" lon="11.6102574"><ele>899.0</ele><time>2026-05-01T11:53:42.607Z</time></trkpt><trkpt lat="45.8887135" lon="11.6101554"><ele>895.75</ele><time>2026-05-01T11:53:43.598Z</time></trkpt><trkpt lat="45.8887877" lon="11.6100349"><ele>892.5</ele><time>2026-05-01T11:53:44.603Z</time></trkpt><trkpt lat="45.8888783" lon="11.6099261"><ele>889.25</ele><time>2026-05-01T11:53:45.602Z</time></trkpt><trkpt lat="45.8889778" lon="11.6097995"><ele>886.0</ele><time>2026-05-01T11:53:46.606Z</time></trkpt><trkpt lat="45.8890748" lon="11.6096764"><ele>886.0</ele><time>2026-05-01T11:53:47.603Z</time></trkpt><trkpt lat="45.889173" lon="11.6095477"><ele>886.0</ele><time>2026-05-01T11:53:48.601Z</time></trkpt><trkpt lat="45.8892832" lon="11.6094222"><ele>886.0</ele><time>2026-05-01T11:53:49.606Z</time></trkpt><trkpt lat="45.8893981" lon="11.6092959"><ele>886.0</ele><time>2026-05-01T11:53:50.602Z</time></trkpt><trkpt lat="45.8895077" lon="11.6091723"><ele>887.0</ele><time>2026-05-01T11:53:51.598Z</time></trkpt><trkpt lat="45.8896094" lon="11.6090674"><ele>888.0</ele><time>2026-05-01T11:53:52.603Z</time></trkpt><trkpt lat="45.8897046" lon="11.608954"><ele>889.0</ele><time>2026-05-01T11:53:53.607Z</time></trkpt><trkpt lat="45.8898028" lon="11.60884"><ele>890.0</ele><time>2026-05-01T11:53:54.597Z</time></trkpt><trkpt lat="45.8898967" lon="11.6087275"><ele>892.0</ele><time>2026-05-01T11:53:55.6Z</time></trkpt><trkpt lat="45.889978" lon="11.6086028"><ele>894.0</ele><time>2026-05-01T11:53:56.588Z</time></trkpt><trkpt lat="45.8900625" lon="11.608481"><ele>896.0</ele><time>2026-05-01T11:53:57.603Z</time></trkpt><trkpt lat="45.8901528" lon="11.6083445"><ele>898.0</ele><time>2026-05-01T11:53:58.598Z</time></trkpt><trkpt lat="45.89024" lon="11.608208"><ele>898.0</ele><time>2026-05-01T11:53:59.602Z</time></trkpt><trkpt lat="45.8903002" lon="11.6080671"><ele>898.0</ele><time>2026-05-01T11:54:00.599Z</time></trkpt><trkpt lat="45.8903594" lon="11.6079303"><ele>898.0</ele><time>2026-05-01T11:54:01.601Z</time></trkpt><trkpt lat="45.8904165" lon="11.6077982"><ele>898.0</ele><time>2026-05-01T11:54:02.604Z</time></trkpt><trkpt lat="45.8904724" lon="11.6076842"><ele>898.0</ele><time>2026-05-01T11:54:03.599Z</time></trkpt><trkpt lat="45.8905282" lon="11.6075845"><ele>894.4999999999999</ele><time>2026-05-01T11:54:04.601Z</time></trkpt><trkpt lat="45.8905927" lon="11.6075131"><ele>891.0</ele><time>2026-05-01T11:54:05.6Z</time></trkpt><trkpt lat="45.8906635" lon="11.6074491"><ele>887.5</ele><time>2026-05-01T11:54:06.617Z</time></trkpt><trkpt lat="45.8907343" lon="11.607384"><ele>884.0</ele><time>2026-05-01T11:54:07.602Z</time></trkpt><trkpt lat="45.8907971" lon="11.6072934"><ele>880.4999999999999</ele><time>2026-05-01T11:54:08.599Z</time></trkpt><trkpt lat="45.8908553" lon="11.6071658"><ele>877.0</ele><time>2026-05-01T11:54:09.606Z</time></trkpt><trkpt lat="45.8908857" lon="11.6070183"><ele>879.6</ele><time>2026-05-01T11:54:10.609Z</time></trkpt><trkpt lat="45.890916" lon="11.6068632"><ele>882.2</ele><time>2026-05-01T11:54:11.61Z</time></trkpt><trkpt lat="45.8909434" lon="11.6067053"><ele>884.8</ele><time>2026-05-01T11:54:12.605Z</time></trkpt><trkpt lat="45.8909671" lon="11.6065744"><ele>887.4</ele><time>2026-05-01T11:54:13.607Z</time></trkpt><trkpt lat="45.8909896" lon="11.6064489"><ele>890.0</ele><time>2026-05-01T11:54:14.604Z</time></trkpt><trkpt lat="45.8910274" lon="11.6063292"><ele>890.0</ele><time>2026-05-01T11:54:15.609Z</time></trkpt><trkpt lat="45.8910689" lon="11.6062129"><ele>890.0</ele><time>2026-05-01T11:54:16.603Z</time></trkpt><trkpt lat="45.8911231" lon="11.606113"><ele>890.0</ele><time>2026-05-01T11:54:17.599Z</time></trkpt><trkpt lat="45.8911824" lon="11.6060112"><ele>890.0</ele><time>2026-05-01T11:54:18.599Z</time></trkpt><trkpt lat="45.8912481" lon="11.6059029"><ele>890.0</ele><time>2026-05-01T11:54:19.613Z</time></trkpt><trkpt lat="45.8913473" lon="11.6057931"><ele>886.0</ele><time>2026-05-01T11:54:20.605Z</time></trkpt><trkpt lat="45.8914476" lon="11.6056783"><ele>882.0</ele><time>2026-05-01T11:54:21.607Z</time></trkpt><trkpt lat="45.8915507" lon="11.6055551"><ele>878.0</ele><time>2026-05-01T11:54:22.603Z</time></trkpt><trkpt lat="45.8916533" lon="11.6054162"><ele>874.0</ele><time>2026-05-01T11:54:23.6Z</time></trkpt><trkpt lat="45.8917385" lon="11.6052712"><ele>876.6</ele><time>2026-05-01T11:54:24.597Z</time></trkpt><trkpt lat="45.8918153" lon="11.6051467"><ele>879.2</ele><time>2026-05-01T11:54:25.601Z</time></trkpt><trkpt lat="45.8918932" lon="11.6050527"><ele>881.8000000000001</ele><time>2026-05-01T11:54:26.605Z</time></trkpt><trkpt lat="45.8919812" lon="11.6049762"><ele>884.4000000000001</ele><time>2026-05-01T11:54:27.608Z</time></trkpt><trkpt lat="45.8920732" lon="11.6049161"><ele>887.0</ele><time>2026-05-01T11:54:28.601Z</time></trkpt><trkpt lat="45.8921582" lon="11.6048631"><ele>887.0000000000001</ele><time>2026-05-01T11:54:29.603Z</time></trkpt><trkpt lat="45.8922229" lon="11.6048153"><ele>887.0</ele><time>2026-05-01T11:54:30.602Z</time></trkpt><trkpt lat="45.8922821" lon="11.604774"><ele>887.0</ele><time>2026-05-01T11:54:31.601Z</time></trkpt><trkpt lat="45.8923387" lon="11.6046509"><ele>887.0</ele><time>2026-05-01T11:54:33.601Z</time></trkpt><trkpt lat="45.8923217" lon="11.6044996"><ele>887.0000000000001</ele><time>2026-05-01T11:54:35.605Z</time></trkpt><trkpt lat="45.8922645" lon="11.6044526"><ele>887.0</ele><time>2026-05-01T11:54:36.605Z</time></trkpt><trkpt lat="45.8921912" lon="11.6043746"><ele>885.0</ele><time>2026-05-01T11:54:37.602Z</time></trkpt><trkpt lat="45.8921121" lon="11.6042856"><ele>883.0</ele><time>2026-05-01T11:54:38.606Z</time></trkpt><trkpt lat="45.8920308" lon="11.6041913"><ele>881.0</ele><time>2026-05-01T11:54:39.601Z</time></trkpt><trkpt lat="45.8919243" lon="11.6041095"><ele>879.0</ele><time>2026-05-01T11:54:40.606Z</time></trkpt><trkpt lat="45.8918243" lon="11.604045"><ele>877.0</ele><time>2026-05-01T11:54:41.601Z</time></trkpt><trkpt lat="45.8917302" lon="11.6039856"><ele>873.8</ele><time>2026-05-01T11:54:42.595Z</time></trkpt><trkpt lat="45.8916354" lon="11.6039543"><ele>870.6</ele><time>2026-05-01T11:54:43.603Z</time></trkpt><trkpt lat="45.8915388" lon="11.603983"><ele>867.3999999999999</ele><time>2026-05-01T11:54:44.607Z</time></trkpt><trkpt lat="45.8914379" lon="11.6040173"><ele>864.1999999999999</ele><time>2026-05-01T11:54:45.601Z</time></trkpt><trkpt lat="45.8913377" lon="11.6040844"><ele>861.0</ele><time>2026-05-01T11:54:46.604Z</time></trkpt><trkpt lat="45.8912502" lon="11.604141"><ele>861.0</ele><time>2026-05-01T11:54:47.602Z</time></trkpt><trkpt lat="45.8911735" lon="11.6041888"><ele>861.0</ele><time>2026-05-01T11:54:48.611Z</time></trkpt><trkpt lat="45.891099" lon="11.6042313"><ele>861.0</ele><time>2026-05-01T11:54:49.613Z</time></trkpt><trkpt lat="45.8910205" lon="11.6042352"><ele>861.0</ele><time>2026-05-01T11:54:50.597Z</time></trkpt><trkpt lat="45.8909481" lon="11.6042345"><ele>861.0</ele><time>2026-05-01T11:54:51.61Z</time></trkpt><trkpt lat="45.8908813" lon="11.6042095"><ele>861.0</ele><time>2026-05-01T11:54:52.605Z</time></trkpt><trkpt lat="45.8908231" lon="11.6041481"><ele>861.5</ele><time>2026-05-01T11:54:53.606Z</time></trkpt><trkpt lat="45.8907737" lon="11.6040619"><ele>862.0</ele><time>2026-05-01T11:54:54.608Z</time></trkpt><trkpt lat="45.8907321" lon="11.6039619"><ele>862.5</ele><time>2026-05-01T11:54:55.605Z</time></trkpt><trkpt lat="45.89069" lon="11.6038509"><ele>863.0</ele><time>2026-05-01T11:54:56.603Z</time></trkpt><trkpt lat="45.8906507" lon="11.6037388"><ele>863.5</ele><time>2026-05-01T11:54:57.616Z</time></trkpt><trkpt lat="45.8906113" lon="11.6036307"><ele>864.0</ele><time>2026-05-01T11:54:58.601Z</time></trkpt><trkpt lat="45.890595" lon="11.6035297"><ele>864.6666666666666</ele><time>2026-05-01T11:54:59.602Z</time></trkpt><trkpt lat="45.8905876" lon="11.6034321"><ele>865.3333333333333</ele><time>2026-05-01T11:55:00.607Z</time></trkpt><trkpt lat="45.8905871" lon="11.6033244"><ele>866.0</ele><time>2026-05-01T11:55:01.587Z</time></trkpt><trkpt lat="45.8905916" lon="11.6032038"><ele>866.6666666666666</ele><time>2026-05-01T11:55:02.598Z</time></trkpt><trkpt lat="45.8906003" lon="11.6030787"><ele>867.3333333333333</ele><time>2026-05-01T11:55:03.604Z</time></trkpt><trkpt lat="45.890611" lon="11.6029472"><ele>868.0</ele><time>2026-05-01T11:55:04.604Z</time></trkpt><trkpt lat="45.8906249" lon="11.6028093"><ele>867.9999999999999</ele><time>2026-05-01T11:55:05.597Z</time></trkpt><trkpt lat="45.8906374" lon="11.6026774"><ele>868.0</ele><time>2026-05-01T11:55:06.602Z</time></trkpt><trkpt lat="45.8906491" lon="11.6025649"><ele>868.0</ele><time>2026-05-01T11:55:07.599Z</time></trkpt><trkpt lat="45.8906566" lon="11.6024742"><ele>868.0</ele><time>2026-05-01T11:55:08.606Z</time></trkpt><trkpt lat="45.8906617" lon="11.6023394"><ele>867.9999999999999</ele><time>2026-05-01T11:55:10.603Z</time></trkpt><trkpt lat="45.8906156" lon="11.602274"><ele>868.0</ele><time>2026-05-01T11:55:21.61Z</time></trkpt><trkpt lat="45.8905247" lon="11.6023474"><ele>868.0</ele><time>2026-05-01T11:55:23.644Z</time></trkpt><trkpt lat="45.890468" lon="11.6024253"><ele>868.0</ele><time>2026-05-01T11:55:24.607Z</time></trkpt><trkpt lat="45.8904004" lon="11.6025207"><ele>868.0</ele><time>2026-05-01T11:55:25.602Z</time></trkpt><trkpt lat="45.8903266" lon="11.6026252"><ele>868.0</ele><time>2026-05-01T11:55:26.6Z</time></trkpt><trkpt lat="45.8902458" lon="11.6027354"><ele>868.0</ele><time>2026-05-01T11:55:27.602Z</time></trkpt><trkpt lat="45.8901618" lon="11.6028477"><ele>865.25</ele><time>2026-05-01T11:55:28.604Z</time></trkpt><trkpt lat="45.8900748" lon="11.602963"><ele>862.5</ele><time>2026-05-01T11:55:29.602Z</time></trkpt><trkpt lat="45.8899879" lon="11.60308"><ele>859.75</ele><time>2026-05-01T11:55:30.603Z</time></trkpt><trkpt lat="45.8899003" lon="11.6031974"><ele>857.0</ele><time>2026-05-01T11:55:31.602Z</time></trkpt><trkpt lat="45.8898102" lon="11.6033198"><ele>857.0</ele><time>2026-05-01T11:55:32.602Z</time></trkpt><trkpt lat="45.8897162" lon="11.6034485"><ele>857.0</ele><time>2026-05-01T11:55:33.603Z</time></trkpt><trkpt lat="45.8896195" lon="11.6035825"><ele>857.0</ele><time>2026-05-01T11:55:34.605Z</time></trkpt><trkpt lat="45.8895204" lon="11.6037179"><ele>857.0</ele><time>2026-05-01T11:55:35.613Z</time></trkpt><trkpt lat="45.8894202" lon="11.6038529"><ele>856.5</ele><time>2026-05-01T11:55:36.612Z</time></trkpt><trkpt lat="45.889319" lon="11.603989"><ele>856.0</ele><time>2026-05-01T11:55:37.605Z</time></trkpt><trkpt lat="45.8892162" lon="11.6041264"><ele>855.5</ele><time>2026-05-01T11:55:38.608Z</time></trkpt><trkpt lat="45.8891127" lon="11.6042637"><ele>855.0</ele><time>2026-05-01T11:55:39.607Z</time></trkpt><trkpt lat="45.8890085" lon="11.6044003"><ele>850.0</ele><time>2026-05-01T11:55:40.606Z</time></trkpt><trkpt lat="45.8889035" lon="11.6045373"><ele>845.0</ele><time>2026-05-01T11:55:41.605Z</time></trkpt><trkpt lat="45.8888011" lon="11.6046744"><ele>840.0</ele><time>2026-05-01T11:55:42.6Z</time></trkpt><trkpt lat="45.8886996" lon="11.6048109"><ele>835.0</ele><time>2026-05-01T11:55:43.604Z</time></trkpt><trkpt lat="45.8885992" lon="11.6049426"><ele>835.0</ele><time>2026-05-01T11:55:44.612Z</time></trkpt><trkpt lat="45.8885067" lon="11.6050643"><ele>835.0</ele><time>2026-05-01T11:55:45.607Z</time></trkpt><trkpt lat="45.8884274" lon="11.6051846"><ele>835.0</ele><time>2026-05-01T11:55:46.603Z</time></trkpt><trkpt lat="45.8883694" lon="11.6053236"><ele>835.0</ele><time>2026-05-01T11:55:47.612Z</time></trkpt><trkpt lat="45.8883387" lon="11.6054863"><ele>843.0</ele><time>2026-05-01T11:55:48.611Z</time></trkpt><trkpt lat="45.8883331" lon="11.6056674"><ele>851.0</ele><time>2026-05-01T11:55:49.607Z</time></trkpt><trkpt lat="45.888338" lon="11.6058597"><ele>859.0</ele><time>2026-05-01T11:55:50.599Z</time></trkpt><trkpt lat="45.8883445" lon="11.6060592"><ele>867.0</ele><time>2026-05-01T11:55:51.598Z</time></trkpt><trkpt lat="45.8883483" lon="11.6062604"><ele>867.0</ele><time>2026-05-01T11:55:52.602Z</time></trkpt><trkpt lat="45.8883518" lon="11.6064478"><ele>867.0</ele><time>2026-05-01T11:55:53.607Z</time></trkpt><trkpt lat="45.8883004" lon="11.6066148"><ele>867.0</ele><time>2026-05-01T11:55:54.601Z</time></trkpt><trkpt lat="45.8882499" lon="11.6067797"><ele>867.0</ele><time>2026-05-01T11:55:55.604Z</time></trkpt><trkpt lat="45.8881543" lon="11.6069101"><ele>853.3333333333333</ele><time>2026-05-01T11:55:56.602Z</time></trkpt><trkpt lat="45.8880391" lon="11.607028"><ele>839.6666666666666</ele><time>2026-05-01T11:55:57.602Z</time></trkpt><trkpt lat="45.8879031" lon="11.60713"><ele>826.0</ele><time>2026-05-01T11:55:58.596Z</time></trkpt><trkpt lat="45.8877635" lon="11.6072381"><ele>826.0</ele><time>2026-05-01T11:55:59.608Z</time></trkpt><trkpt lat="45.8876163" lon="11.6073579"><ele>826.0</ele><time>2026-05-01T11:56:00.608Z</time></trkpt><trkpt lat="45.8874535" lon="11.6074621"><ele>826.0</ele><time>2026-05-01T11:56:01.597Z</time></trkpt><trkpt lat="45.8872898" lon="11.607579"><ele>838.3333333333333</ele><time>2026-05-01T11:56:02.608Z</time></trkpt><trkpt lat="45.8871403" lon="11.6076823"><ele>850.6666666666667</ele><time>2026-05-01T11:56:03.6Z</time></trkpt><trkpt lat="45.8870047" lon="11.6077597"><ele>863.0</ele><time>2026-05-01T11:56:04.606Z</time></trkpt><trkpt lat="45.8868591" lon="11.6078019"><ele>868.0</ele><time>2026-05-01T11:56:05.609Z</time></trkpt><trkpt lat="45.8867065" lon="11.6078162"><ele>873.0</ele><time>2026-05-01T11:56:06.61Z</time></trkpt><trkpt lat="45.8865688" lon="11.6077814"><ele>878.0</ele><time>2026-05-01T11:56:07.615Z</time></trkpt><trkpt lat="45.8864265" lon="11.6077105"><ele>883.0</ele><time>2026-05-01T11:56:08.609Z</time></trkpt><trkpt lat="45.8862867" lon="11.607631"><ele>883.0</ele><time>2026-05-01T11:56:09.6Z</time></trkpt><trkpt lat="45.886147" lon="11.607546"><ele>883.0</ele><time>2026-05-01T11:56:10.607Z</time></trkpt><trkpt lat="45.8860062" lon="11.6074662"><ele>883.0</ele><time>2026-05-01T11:56:11.605Z</time></trkpt><trkpt lat="45.8858636" lon="11.6073957"><ele>883.6666666666666</ele><time>2026-05-01T11:56:12.605Z</time></trkpt><trkpt lat="45.8857135" lon="11.6073587"><ele>884.3333333333333</ele><time>2026-05-01T11:56:13.623Z</time></trkpt><trkpt lat="45.8855604" lon="11.6073763"><ele>885.0</ele><time>2026-05-01T11:56:14.608Z</time></trkpt><trkpt lat="45.8854117" lon="11.6074472"><ele>885.0</ele><time>2026-05-01T11:56:15.599Z</time></trkpt><trkpt lat="45.885267" lon="11.6075644"><ele>885.0</ele><time>2026-05-01T11:56:16.606Z</time></trkpt><trkpt lat="45.8851256" lon="11.6077199"><ele>885.0</ele><time>2026-05-01T11:56:17.611Z</time></trkpt><trkpt lat="45.8849891" lon="11.607901"><ele>885.6666666666667</ele><time>2026-05-01T11:56:18.596Z</time></trkpt><trkpt lat="45.8848614" lon="11.6080762"><ele>886.3333333333334</ele><time>2026-05-01T11:56:19.596Z</time></trkpt><trkpt lat="45.884734" lon="11.6082364"><ele>887.0</ele><time>2026-05-01T11:56:20.604Z</time></trkpt><trkpt lat="45.8846009" lon="11.6083778"><ele>887.0</ele><time>2026-05-01T11:56:21.609Z</time></trkpt><trkpt lat="45.8844634" lon="11.6085073"><ele>887.0</ele><time>2026-05-01T11:56:22.602Z</time></trkpt><trkpt lat="45.8843257" lon="11.6086254"><ele>887.0</ele><time>2026-05-01T11:56:23.601Z</time></trkpt><trkpt lat="45.8841956" lon="11.6087305"><ele>888.25</ele><time>2026-05-01T11:56:24.607Z</time></trkpt><trkpt lat="45.8840763" lon="11.608823"><ele>889.5</ele><time>2026-05-01T11:56:25.602Z</time></trkpt><trkpt lat="45.8839548" lon="11.608898"><ele>890.75</ele><time>2026-05-01T11:56:26.602Z</time></trkpt><trkpt lat="45.8838368" lon="11.6089741"><ele>892.0</ele><time>2026-05-01T11:56:27.6Z</time></trkpt><trkpt lat="45.8837006" lon="11.6089656"><ele>892.0</ele><time>2026-05-01T11:56:28.601Z</time></trkpt><trkpt lat="45.883566" lon="11.608927"><ele>892.0</ele><time>2026-05-01T11:56:29.598Z</time></trkpt><trkpt lat="45.8834239" lon="11.6088537"><ele>892.0</ele><time>2026-05-01T11:56:30.608Z</time></trkpt><trkpt lat="45.8832889" lon="11.6087617"><ele>892.0</ele><time>2026-05-01T11:56:31.61Z</time></trkpt><trkpt lat="45.8831472" lon="11.608662"><ele>896.3333333333333</ele><time>2026-05-01T11:56:32.602Z</time></trkpt><trkpt lat="45.8830183" lon="11.6085299"><ele>900.6666666666667</ele><time>2026-05-01T11:56:33.603Z</time></trkpt><trkpt lat="45.882893" lon="11.6083792"><ele>905.0</ele><time>2026-05-01T11:56:34.611Z</time></trkpt><trkpt lat="45.8827829" lon="11.6082287"><ele>905.0</ele><time>2026-05-01T11:56:35.614Z</time></trkpt><trkpt lat="45.8826706" lon="11.608067"><ele>905.0</ele><time>2026-05-01T11:56:36.604Z</time></trkpt><trkpt lat="45.8825674" lon="11.6078894"><ele>905.0</ele><time>2026-05-01T11:56:37.606Z</time></trkpt><trkpt lat="45.8824883" lon="11.6076927"><ele>906.0</ele><time>2026-05-01T11:56:38.597Z</time></trkpt><trkpt lat="45.8823964" lon="11.6074985"><ele>907.0</ele><time>2026-05-01T11:56:39.607Z</time></trkpt><trkpt lat="45.8822891" lon="11.6073352"><ele>908.0</ele><time>2026-05-01T11:56:40.602Z</time></trkpt><trkpt lat="45.8821721" lon="11.6072135"><ele>908.0</ele><time>2026-05-01T11:56:41.615Z</time></trkpt><trkpt lat="45.882048" lon="11.6071372"><ele>908.0</ele><time>2026-05-01T11:56:42.612Z</time></trkpt><trkpt lat="45.8819134" lon="11.607117"><ele>908.0</ele><time>2026-05-01T11:56:43.605Z</time></trkpt><trkpt lat="45.8817799" lon="11.607149"><ele>908.0</ele><time>2026-05-01T11:56:44.599Z</time></trkpt><trkpt lat="45.8816443" lon="11.6071982"><ele>907.75</ele><time>2026-05-01T11:56:45.618Z</time></trkpt><trkpt lat="45.8815399" lon="11.6073283"><ele>907.5</ele><time>2026-05-01T11:56:46.67Z</time></trkpt><trkpt lat="45.8814664" lon="11.6075018"><ele>907.25</ele><time>2026-05-01T11:56:47.63Z</time></trkpt><trkpt lat="45.8814296" lon="11.6077068"><ele>907.0</ele><time>2026-05-01T11:56:48.606Z</time></trkpt><trkpt lat="45.8814217" lon="11.6079226"><ele>906.6666666666666</ele><time>2026-05-01T11:56:49.627Z</time></trkpt><trkpt lat="45.8814228" lon="11.6081459"><ele>906.3333333333333</ele><time>2026-05-01T11:56:50.602Z</time></trkpt><trkpt lat="45.8814228" lon="11.6083713"><ele>906.0</ele><time>2026-05-01T11:56:51.604Z</time></trkpt><trkpt lat="45.8813682" lon="11.6086146"><ele>903.0</ele><time>2026-05-01T11:56:52.606Z</time></trkpt><trkpt lat="45.8813325" lon="11.6088271"><ele>900.0</ele><time>2026-05-01T11:56:53.612Z</time></trkpt><trkpt lat="45.881268" lon="11.6090435"><ele>897.0</ele><time>2026-05-01T11:56:54.599Z</time></trkpt><trkpt lat="45.8811936" lon="11.6092494"><ele>897.0</ele><time>2026-05-01T11:56:55.608Z</time></trkpt><trkpt lat="45.8811061" lon="11.6094456"><ele>897.0</ele><time>2026-05-01T11:56:56.602Z</time></trkpt><trkpt lat="45.8810016" lon="11.6096279"><ele>897.0</ele><time>2026-05-01T11:56:57.6Z</time></trkpt><trkpt lat="45.8808912" lon="11.6098031"><ele>904.6666666666667</ele><time>2026-05-01T11:56:58.599Z</time></trkpt><trkpt lat="45.8807777" lon="11.6099612"><ele>912.3333333333334</ele><time>2026-05-01T11:56:59.606Z</time></trkpt><trkpt lat="45.8806625" lon="11.6101124"><ele>920.0</ele><time>2026-05-01T11:57:00.603Z</time></trkpt><trkpt lat="45.880545" lon="11.6102625"><ele>914.3333333333334</ele><time>2026-05-01T11:57:01.595Z</time></trkpt><trkpt lat="45.8804199" lon="11.6104058"><ele>908.6666666666667</ele><time>2026-05-01T11:57:02.608Z</time></trkpt><trkpt lat="45.880291" lon="11.6105394"><ele>903.0</ele><time>2026-05-01T11:57:03.605Z</time></trkpt><trkpt lat="45.8801578" lon="11.6106682"><ele>910.3333333333333</ele><time>2026-05-01T11:57:04.602Z</time></trkpt><trkpt lat="45.8800325" lon="11.6107883"><ele>917.6666666666666</ele><time>2026-05-01T11:57:05.601Z</time></trkpt><trkpt lat="45.8798996" lon="11.6109196"><ele>925.0</ele><time>2026-05-01T11:57:06.603Z</time></trkpt><trkpt lat="45.8797695" lon="11.611044"><ele>921.0</ele><time>2026-05-01T11:57:07.605Z</time></trkpt><trkpt lat="45.8796387" lon="11.6111707"><ele>917.0</ele><time>2026-05-01T11:57:08.6Z</time></trkpt><trkpt lat="45.8795094" lon="11.611303"><ele>913.0</ele><time>2026-05-01T11:57:09.606Z</time></trkpt><trkpt lat="45.8793866" lon="11.6114433"><ele>913.0</ele><time>2026-05-01T11:57:10.612Z</time></trkpt><trkpt lat="45.8792774" lon="11.6115901"><ele>913.0</ele><time>2026-05-01T11:57:11.603Z</time></trkpt><trkpt lat="45.879194" lon="11.6117402"><ele>913.0</ele><time>2026-05-01T11:57:12.606Z</time></trkpt><trkpt lat="45.8791442" lon="11.611904"><ele>913.0</ele><time>2026-05-01T11:57:13.61Z</time></trkpt><trkpt lat="45.8791203" lon="11.6120752"><ele>916.8</ele><time>2026-05-01T11:57:14.603Z</time></trkpt><trkpt lat="45.8790951" lon="11.612232"><ele>920.5999999999999</ele><time>2026-05-01T11:57:15.597Z</time></trkpt><trkpt lat="45.8790559" lon="11.612383"><ele>924.4000000000001</ele><time>2026-05-01T11:57:16.607Z</time></trkpt><trkpt lat="45.8790058" lon="11.6125311"><ele>928.2</ele><time>2026-05-01T11:57:17.611Z</time></trkpt><trkpt lat="45.8789439" lon="11.6126534"><ele>932.0</ele><time>2026-05-01T11:57:18.614Z</time></trkpt><trkpt lat="45.8788751" lon="11.6127431"><ele>932.0000000000001</ele><time>2026-05-01T11:57:19.611Z</time></trkpt><trkpt lat="45.8788039" lon="11.6128055"><ele>932.0</ele><time>2026-05-01T11:57:20.601Z</time></trkpt><trkpt lat="45.8787279" lon="11.6128508"><ele>932.0</ele><time>2026-05-01T11:57:21.604Z</time></trkpt><trkpt lat="45.8786463" lon="11.6128887"><ele>932.0</ele><time>2026-05-01T11:57:22.598Z</time></trkpt><trkpt lat="45.8785601" lon="11.6129323"><ele>932.0000000000001</ele><time>2026-05-01T11:57:23.606Z</time></trkpt><trkpt lat="45.8784696" lon="11.6129706"><ele>932.0</ele><time>2026-05-01T11:57:24.614Z</time></trkpt><trkpt lat="45.8783735" lon="11.6130036"><ele>931.5000000000001</ele><time>2026-05-01T11:57:25.605Z</time></trkpt><trkpt lat="45.8782829" lon="11.6130376"><ele>931.0</ele><time>2026-05-01T11:57:26.6Z</time></trkpt><trkpt lat="45.8781932" lon="11.6130718"><ele>930.5</ele><time>2026-05-01T11:57:27.599Z</time></trkpt><trkpt lat="45.8781154" lon="11.6131216"><ele>930.0</ele><time>2026-05-01T11:57:28.612Z</time></trkpt><trkpt lat="45.8780422" lon="11.6131314"><ele>929.5000000000001</ele><time>2026-05-01T11:57:29.608Z</time></trkpt><trkpt lat="45.877969" lon="11.613133"><ele>929.0</ele><time>2026-05-01T11:57:30.604Z</time></trkpt><trkpt lat="45.877898" lon="11.6130691"><ele>929.0</ele><time>2026-05-01T11:57:31.607Z</time></trkpt><trkpt lat="45.877818" lon="11.6129635"><ele>929.0</ele><time>2026-05-01T11:57:32.604Z</time></trkpt><trkpt lat="45.8777229" lon="11.6128503"><ele>929.0</ele><time>2026-05-01T11:57:33.595Z</time></trkpt><trkpt lat="45.8776261" lon="11.6127485"><ele>929.0</ele><time>2026-05-01T11:57:34.6Z</time></trkpt><trkpt lat="45.8775157" lon="11.6126778"><ele>929.5</ele><time>2026-05-01T11:57:35.606Z</time></trkpt><trkpt lat="45.8773913" lon="11.6126443"><ele>930.0</ele><time>2026-05-01T11:57:36.601Z</time></trkpt><trkpt lat="45.8772611" lon="11.6126295"><ele>930.5</ele><time>2026-05-01T11:57:37.605Z</time></trkpt><trkpt lat="45.8771241" lon="11.6126274"><ele>931.0</ele><time>2026-05-01T11:57:38.611Z</time></trkpt><trkpt lat="45.8769953" lon="11.6126065"><ele>931.0</ele><time>2026-05-01T11:57:39.605Z</time></trkpt><trkpt lat="45.876869" lon="11.6125627"><ele>931.0</ele><time>2026-05-01T11:57:40.602Z</time></trkpt><trkpt lat="45.8767497" lon="11.6125029"><ele>931.0</ele><time>2026-05-01T11:57:41.605Z</time></trkpt><trkpt lat="45.8766388" lon="11.6124075"><ele>931.0</ele><time>2026-05-01T11:57:42.605Z</time></trkpt><trkpt lat="45.8765211" lon="11.6123113"><ele>932.25</ele><time>2026-05-01T11:57:43.615Z</time></trkpt><trkpt lat="45.8764027" lon="11.6122268"><ele>933.5</ele><time>2026-05-01T11:57:44.608Z</time></trkpt><trkpt lat="45.8762943" lon="11.6121328"><ele>934.75</ele><time>2026-05-01T11:57:45.604Z</time></trkpt><trkpt lat="45.8761891" lon="11.6120456"><ele>936.0</ele><time>2026-05-01T11:57:46.61Z</time></trkpt><trkpt lat="45.8760874" lon="11.6119534"><ele>936.0</ele><time>2026-05-01T11:57:47.602Z</time></trkpt><trkpt lat="45.8759884" lon="11.6118629"><ele>936.0</ele><time>2026-05-01T11:57:48.602Z</time></trkpt><trkpt lat="45.8758973" lon="11.6117607"><ele>936.0</ele><time>2026-05-01T11:57:49.604Z</time></trkpt><trkpt lat="45.8758118" lon="11.6116391"><ele>936.0</ele><time>2026-05-01T11:57:50.61Z</time></trkpt><trkpt lat="45.8757369" lon="11.6115095"><ele>931.0</ele><time>2026-05-01T11:57:51.599Z</time></trkpt><trkpt lat="45.8756414" lon="11.611409"><ele>926.0</ele><time>2026-05-01T11:57:52.6Z</time></trkpt><trkpt lat="45.8755295" lon="11.6113361"><ele>921.0</ele><time>2026-05-01T11:57:53.605Z</time></trkpt><trkpt lat="45.8754013" lon="11.611301"><ele>916.0</ele><time>2026-05-01T11:57:54.609Z</time></trkpt><trkpt lat="45.8752709" lon="11.6112742"><ele>916.0</ele><time>2026-05-01T11:57:55.604Z</time></trkpt><trkpt lat="45.8751389" lon="11.6112651"><ele>916.0</ele><time>2026-05-01T11:57:56.605Z</time></trkpt><trkpt lat="45.8750081" lon="11.6112775"><ele>916.0</ele><time>2026-05-01T11:57:57.607Z</time></trkpt><trkpt lat="45.87488" lon="11.611311"><ele>916.0</ele><time>2026-05-01T11:57:58.6Z</time></trkpt><trkpt lat="45.8747503" lon="11.6113476"><ele>914.0</ele><time>2026-05-01T11:57:59.601Z</time></trkpt><trkpt lat="45.8746178" lon="11.6113626"><ele>912.0</ele><time>2026-05-01T11:58:00.621Z</time></trkpt><trkpt lat="45.8744823" lon="11.6113461"><ele>910.0</ele><time>2026-05-01T11:58:01.608Z</time></trkpt><trkpt lat="45.874356" lon="11.6113136"><ele>908.0</ele><time>2026-05-01T11:58:02.597Z</time></trkpt><trkpt lat="45.8742384" lon="11.6112749"><ele>908.0000000000001</ele><time>2026-05-01T11:58:03.608Z</time></trkpt><trkpt lat="45.8741375" lon="11.6112378"><ele>908.0</ele><time>2026-05-01T11:58:04.608Z</time></trkpt><trkpt lat="45.8740523" lon="11.6112289"><ele>908.0</ele><time>2026-05-01T11:58:05.608Z</time></trkpt><trkpt lat="45.8739802" lon="11.6112664"><ele>908.0</ele><time>2026-05-01T11:58:06.599Z</time></trkpt><trkpt lat="45.8739106" lon="11.6113078"><ele>908.0000000000001</ele><time>2026-05-01T11:58:07.6Z</time></trkpt><trkpt lat="45.8739028" lon="11.6114458"><ele>908.0</ele><time>2026-05-01T11:58:08.601Z</time></trkpt><trkpt lat="45.8739457" lon="11.6115865"><ele>908.0</ele><time>2026-05-01T11:58:09.595Z</time></trkpt><trkpt lat="45.8740272" lon="11.6116994"><ele>908.0</ele><time>2026-05-01T11:58:10.604Z</time></trkpt><trkpt lat="45.8741102" lon="11.6118269"><ele>908.0</ele><time>2026-05-01T11:58:11.598Z</time></trkpt><trkpt lat="45.8741836" lon="11.6119459"><ele>908.0</ele><time>2026-05-01T11:58:12.603Z</time></trkpt><trkpt lat="45.8742138" lon="11.6120847"><ele>908.0</ele><time>2026-05-01T11:58:13.597Z</time></trkpt><trkpt lat="45.8741726" lon="11.612271"><ele>908.75</ele><time>2026-05-01T11:58:14.606Z</time></trkpt><trkpt lat="45.8741692" lon="11.6124611"><ele>909.5</ele><time>2026-05-01T11:58:15.612Z</time></trkpt><trkpt lat="45.8741924" lon="11.6126468"><ele>910.25</ele><time>2026-05-01T11:58:16.598Z</time></trkpt><trkpt lat="45.8742449" lon="11.6128067"><ele>911.0</ele><time>2026-05-01T11:58:17.605Z</time></trkpt><trkpt lat="45.8743203" lon="11.6129473"><ele>909.25</ele><time>2026-05-01T11:58:18.613Z</time></trkpt><trkpt lat="45.8744066" lon="11.6130728"><ele>907.5</ele><time>2026-05-01T11:58:19.602Z</time></trkpt><trkpt lat="45.8745193" lon="11.6131777"><ele>905.75</ele><time>2026-05-01T11:58:20.596Z</time></trkpt><trkpt lat="45.8746083" lon="11.6132986"><ele>904.0</ele><time>2026-05-01T11:58:21.598Z</time></trkpt><trkpt lat="45.8746078" lon="11.6134537"><ele>904.0</ele><time>2026-05-01T11:58:22.613Z</time></trkpt><trkpt lat="45.8746069" lon="11.6136111"><ele>904.0</ele><time>2026-05-01T11:58:23.603Z</time></trkpt><trkpt lat="45.8745561" lon="11.6138143"><ele>904.0</ele><time>2026-05-01T11:58:24.603Z</time></trkpt><trkpt lat="45.8745213" lon="11.6140068"><ele>904.0</ele><time>2026-05-01T11:58:25.614Z</time></trkpt><trkpt lat="45.8745038" lon="11.6141961"><ele>906.2</ele><time>2026-05-01T11:58:26.625Z</time></trkpt><trkpt lat="45.8745014" lon="11.6143622"><ele>908.4000000000001</ele><time>2026-05-01T11:58:27.608Z</time></trkpt><trkpt lat="45.8745168" lon="11.6144957"><ele>910.6</ele><time>2026-05-01T11:58:28.601Z</time></trkpt><trkpt lat="45.8745838" lon="11.6146101"><ele>912.8</ele><time>2026-05-01T11:58:29.599Z</time></trkpt><trkpt lat="45.8746971" lon="11.6146907"><ele>915.0</ele><time>2026-05-01T11:58:30.603Z</time></trkpt><trkpt lat="45.8748187" lon="11.6147775"><ele>920.3333333333333</ele><time>2026-05-01T11:58:31.595Z</time></trkpt><trkpt lat="45.8749008" lon="11.6149297"><ele>925.6666666666666</ele><time>2026-05-01T11:58:32.605Z</time></trkpt><trkpt lat="45.8749595" lon="11.6151305"><ele>931.0</ele><time>2026-05-01T11:58:33.607Z</time></trkpt><trkpt lat="45.8749837" lon="11.6153787"><ele>927.6666666666666</ele><time>2026-05-01T11:58:34.602Z</time></trkpt><trkpt lat="45.8750069" lon="11.6156082"><ele>924.3333333333333</ele><time>2026-05-01T11:58:35.598Z</time></trkpt><trkpt lat="45.8750577" lon="11.6158285"><ele>921.0</ele><time>2026-05-01T11:58:36.607Z</time></trkpt><trkpt lat="45.8751145" lon="11.616029"><ele>921.75</ele><time>2026-05-01T11:58:37.607Z</time></trkpt><trkpt lat="45.8751959" lon="11.616195"><ele>922.5</ele><time>2026-05-01T11:58:38.602Z</time></trkpt><trkpt lat="45.8752651" lon="11.6163424"><ele>923.25</ele><time>2026-05-01T11:58:39.601Z</time></trkpt><trkpt lat="45.8752721" lon="11.6165199"><ele>924.0</ele><time>2026-05-01T11:58:40.603Z</time></trkpt><trkpt lat="45.8752299" lon="11.6166845"><ele>924.0</ele><time>2026-05-01T11:58:41.615Z</time></trkpt><trkpt lat="45.8751769" lon="11.6168517"><ele>924.0</ele><time>2026-05-01T11:58:42.603Z</time></trkpt><trkpt lat="45.8750899" lon="11.6169835"><ele>924.0</ele><time>2026-05-01T11:58:43.607Z</time></trkpt><trkpt lat="45.8749894" lon="11.6171096"><ele>924.0</ele><time>2026-05-01T11:58:44.599Z</time></trkpt><trkpt lat="45.8748839" lon="11.617246"><ele>927.25</ele><time>2026-05-01T11:58:45.608Z</time></trkpt><trkpt lat="45.8747686" lon="11.6173781"><ele>930.5</ele><time>2026-05-01T11:58:46.601Z</time></trkpt><trkpt lat="45.8746423" lon="11.617491"><ele>933.75</ele><time>2026-05-01T11:58:47.601Z</time></trkpt><trkpt lat="45.8745353" lon="11.6175865"><ele>937.0</ele><time>2026-05-01T11:58:48.596Z</time></trkpt><trkpt lat="45.8744064" lon="11.6176371"><ele>937.0</ele><time>2026-05-01T11:58:49.604Z</time></trkpt><trkpt lat="45.874283" lon="11.6176111"><ele>937.0</ele><time>2026-05-01T11:58:50.607Z</time></trkpt><trkpt lat="45.8741412" lon="11.6175965"><ele>937.0</ele><time>2026-05-01T11:58:51.606Z</time></trkpt><trkpt lat="45.8740017" lon="11.6176272"><ele>937.0</ele><time>2026-05-01T11:58:52.597Z</time></trkpt><trkpt lat="45.8738807" lon="11.6176463"><ele>941.8</ele><time>2026-05-01T11:58:53.607Z</time></trkpt><trkpt lat="45.8737865" lon="11.617642"><ele>946.6</ele><time>2026-05-01T11:58:54.603Z</time></trkpt><trkpt lat="45.8737106" lon="11.6175932"><ele>951.3999999999999</ele><time>2026-05-01T11:58:55.603Z</time></trkpt><trkpt lat="45.8736203" lon="11.6174594"><ele>956.1999999999999</ele><time>2026-05-01T11:58:56.601Z</time></trkpt><trkpt lat="45.8735112" lon="11.6173528"><ele>961.0</ele><time>2026-05-01T11:58:57.604Z</time></trkpt><trkpt lat="45.8734037" lon="11.6172566"><ele>961.0</ele><time>2026-05-01T11:58:58.615Z</time></trkpt><trkpt lat="45.8732764" lon="11.6172502"><ele>961.0</ele><time>2026-05-01T11:58:59.601Z</time></trkpt><trkpt lat="45.8731403" lon="11.6172559"><ele>961.0</ele><time>2026-05-01T11:59:00.596Z</time></trkpt><trkpt lat="45.8729799" lon="11.6172853"><ele>961.0</ele><time>2026-05-01T11:59:01.6Z</time></trkpt><trkpt lat="45.872816" lon="11.6172987"><ele>961.0</ele><time>2026-05-01T11:59:02.597Z</time></trkpt><trkpt lat="45.8726803" lon="11.6173417"><ele>961.0</ele><time>2026-05-01T11:59:03.584Z</time></trkpt><trkpt lat="45.8725457" lon="11.6173977"><ele>961.0</ele><time>2026-05-01T11:59:04.604Z</time></trkpt><trkpt lat="45.8723861" lon="11.6174613"><ele>961.0</ele><time>2026-05-01T11:59:05.613Z</time></trkpt><trkpt lat="45.87223" lon="11.6175746"><ele>965.3333333333333</ele><time>2026-05-01T11:59:06.595Z</time></trkpt><trkpt lat="45.8720842" lon="11.6176781"><ele>969.6666666666667</ele><time>2026-05-01T11:59:07.605Z</time></trkpt><trkpt lat="45.8719381" lon="11.6177787"><ele>974.0</ele><time>2026-05-01T11:59:08.597Z</time></trkpt><trkpt lat="45.87179" lon="11.6178784"><ele>971.25</ele><time>2026-05-01T11:59:09.621Z</time></trkpt><trkpt lat="45.8716549" lon="11.6179707"><ele>968.5</ele><time>2026-05-01T11:59:10.606Z</time></trkpt><trkpt lat="45.8715261" lon="11.6180611"><ele>965.75</ele><time>2026-05-01T11:59:11.597Z</time></trkpt><trkpt lat="45.8713887" lon="11.618135"><ele>963.0</ele><time>2026-05-01T11:59:12.603Z</time></trkpt><trkpt lat="45.8712522" lon="11.6181981"><ele>963.0</ele><time>2026-05-01T11:59:13.595Z</time></trkpt><trkpt lat="45.8711086" lon="11.61823"><ele>963.0</ele><time>2026-05-01T11:59:14.612Z</time></trkpt><trkpt lat="45.8709736" lon="11.6182666"><ele>963.0</ele><time>2026-05-01T11:59:15.603Z</time></trkpt><trkpt lat="45.8708454" lon="11.6183351"><ele>963.0</ele><time>2026-05-01T11:59:16.606Z</time></trkpt><trkpt lat="45.870737" lon="11.6184461"><ele>956.5</ele><time>2026-05-01T11:59:17.599Z</time></trkpt><trkpt lat="45.8706425" lon="11.6185506"><ele>950.0</ele><time>2026-05-01T11:59:18.603Z</time></trkpt><trkpt lat="45.8705469" lon="11.6186333"><ele>943.5</ele><time>2026-05-01T11:59:19.612Z</time></trkpt><trkpt lat="45.8704098" lon="11.6186481"><ele>937.0</ele><time>2026-05-01T11:59:20.601Z</time></trkpt><trkpt lat="45.870269" lon="11.6186614"><ele>937.0</ele><time>2026-05-01T11:59:21.605Z</time></trkpt><trkpt lat="45.8701256" lon="11.6186805"><ele>937.0</ele><time>2026-05-01T11:59:22.598Z</time></trkpt><trkpt lat="45.8699839" lon="11.6187066"><ele>937.0</ele><time>2026-05-01T11:59:23.599Z</time></trkpt><trkpt lat="45.8698529" lon="11.618727"><ele>937.0</ele><time>2026-05-01T11:59:24.609Z</time></trkpt><trkpt lat="45.8697299" lon="11.6187428"><ele>943.0</ele><time>2026-05-01T11:59:25.601Z</time></trkpt><trkpt lat="45.8696088" lon="11.6187382"><ele>949.0</ele><time>2026-05-01T11:59:26.588Z</time></trkpt><trkpt lat="45.8694791" lon="11.6187188"><ele>955.0</ele><time>2026-05-01T11:59:27.614Z</time></trkpt><trkpt lat="45.8693424" lon="11.6186959"><ele>961.0</ele><time>2026-05-01T11:59:28.608Z</time></trkpt><trkpt lat="45.8692004" lon="11.6186779"><ele>965.5</ele><time>2026-05-01T11:59:29.615Z</time></trkpt><trkpt lat="45.8690559" lon="11.618658"><ele>970.0</ele><time>2026-05-01T11:59:30.611Z</time></trkpt><trkpt lat="45.8689076" lon="11.6186363"><ele>974.5</ele><time>2026-05-01T11:59:31.605Z</time></trkpt><trkpt lat="45.8687622" lon="11.6186238"><ele>979.0</ele><time>2026-05-01T11:59:32.604Z</time></trkpt><trkpt lat="45.8686228" lon="11.6186301"><ele>980.5</ele><time>2026-05-01T11:59:33.608Z</time></trkpt><trkpt lat="45.8684915" lon="11.6186379"><ele>982.0</ele><time>2026-05-01T11:59:34.6Z</time></trkpt><trkpt lat="45.8683669" lon="11.618627"><ele>983.5</ele><time>2026-05-01T11:59:35.616Z</time></trkpt><trkpt lat="45.8682471" lon="11.618583"><ele>985.0</ele><time>2026-05-01T11:59:36.612Z</time></trkpt><trkpt lat="45.8681273" lon="11.6185226"><ele>985.0</ele><time>2026-05-01T11:59:37.615Z</time></trkpt><trkpt lat="45.8679996" lon="11.6184714"><ele>985.0</ele><time>2026-05-01T11:59:38.609Z</time></trkpt><trkpt lat="45.8678691" lon="11.6184312"><ele>985.0</ele><time>2026-05-01T11:59:39.604Z</time></trkpt><trkpt lat="45.867737" lon="11.6184026"><ele>985.0</ele><time>2026-05-01T11:59:40.619Z</time></trkpt><trkpt lat="45.8676055" lon="11.6183672"><ele>982.8</ele><time>2026-05-01T11:59:41.6Z</time></trkpt><trkpt lat="45.8674925" lon="11.6183274"><ele>980.6</ele><time>2026-05-01T11:59:42.606Z</time></trkpt><trkpt lat="45.8673895" lon="11.6182809"><ele>978.4000000000001</ele><time>2026-05-01T11:59:43.611Z</time></trkpt><trkpt lat="45.8673149" lon="11.618202"><ele>976.2</ele><time>2026-05-01T11:59:44.597Z</time></trkpt><trkpt lat="45.867257" lon="11.6181015"><ele>974.0</ele><time>2026-05-01T11:59:45.603Z</time></trkpt><trkpt lat="45.8672107" lon="11.6179614"><ele>977.75</ele><time>2026-05-01T11:59:46.605Z</time></trkpt><trkpt lat="45.867152" lon="11.6177914"><ele>981.5</ele><time>2026-05-01T11:59:47.6Z</time></trkpt><trkpt lat="45.8670812" lon="11.6176194"><ele>985.25</ele><time>2026-05-01T11:59:48.605Z</time></trkpt><trkpt lat="45.866996" lon="11.6174725"><ele>989.0</ele><time>2026-05-01T11:59:49.605Z</time></trkpt><trkpt lat="45.8669167" lon="11.6173661"><ele>989.0</ele><time>2026-05-01T11:59:50.588Z</time></trkpt><trkpt lat="45.8668408" lon="11.6172892"><ele>989.0000000000001</ele><time>2026-05-01T11:59:51.6Z</time></trkpt><trkpt lat="45.866746" lon="11.6172655"><ele>989.0000000000001</ele><time>2026-05-01T11:59:52.608Z</time></trkpt><trkpt lat="45.8666489" lon="11.6172575"><ele>989.0</ele><time>2026-05-01T11:59:53.599Z</time></trkpt><trkpt lat="45.8665448" lon="11.6173474"><ele>989.0</ele><time>2026-05-01T11:59:54.604Z</time></trkpt><trkpt lat="45.8664671" lon="11.6175191"><ele>986.0</ele><time>2026-05-01T11:59:55.597Z</time></trkpt><trkpt lat="45.8663912" lon="11.617685"><ele>983.0000000000001</ele><time>2026-05-01T11:59:56.585Z</time></trkpt><trkpt lat="45.8663127" lon="11.6178172"><ele>980.0000000000001</ele><time>2026-05-01T11:59:57.612Z</time></trkpt><trkpt lat="45.8662462" lon="11.6179142"><ele>977.0</ele><time>2026-05-01T11:59:58.602Z</time></trkpt><trkpt lat="45.8661869" lon="11.6180159"><ele>974.0</ele><time>2026-05-01T11:59:59.608Z</time></trkpt><trkpt lat="45.8661188" lon="11.6180332"><ele>972.25</ele><time>2026-05-01T12:00:00.602Z</time></trkpt><trkpt lat="45.8660148" lon="11.61796"><ele>970.5</ele><time>2026-05-01T12:00:01.596Z</time></trkpt><trkpt lat="45.865897" lon="11.6178663"><ele>968.75</ele><time>2026-05-01T12:00:02.601Z</time></trkpt><trkpt lat="45.8657953" lon="11.6177733"><ele>967.0</ele><time>2026-05-01T12:00:03.599Z</time></trkpt><trkpt lat="45.8656774" lon="11.6176678"><ele>967.0</ele><time>2026-05-01T12:00:04.605Z</time></trkpt><trkpt lat="45.865557" lon="11.6175416"><ele>967.0</ele><time>2026-05-01T12:00:05.597Z</time></trkpt><trkpt lat="45.865446" lon="11.6174269"><ele>967.0</ele><time>2026-05-01T12:00:06.584Z</time></trkpt><trkpt lat="45.8653421" lon="11.6173117"><ele>967.0</ele><time>2026-05-01T12:00:07.6Z</time></trkpt><trkpt lat="45.8652751" lon="11.6171733"><ele>967.0</ele><time>2026-05-01T12:00:08.601Z</time></trkpt><trkpt lat="45.865219" lon="11.6170292"><ele>967.0</ele><time>2026-05-01T12:00:09.606Z</time></trkpt><trkpt lat="45.8651768" lon="11.6168711"><ele>967.0</ele><time>2026-05-01T12:00:10.608Z</time></trkpt><trkpt lat="45.8651273" lon="11.6167207"><ele>967.0</ele><time>2026-05-01T12:00:11.624Z</time></trkpt><trkpt lat="45.8650491" lon="11.6165899"><ele>966.0</ele><time>2026-05-01T12:00:12.61Z</time></trkpt><trkpt lat="45.8649516" lon="11.6164815"><ele>965.0</ele><time>2026-05-01T12:00:13.622Z</time></trkpt><trkpt lat="45.8648429" lon="11.6164133"><ele>964.0</ele><time>2026-05-01T12:00:14.632Z</time></trkpt><trkpt lat="45.8647349" lon="11.6164012"><ele>963.0</ele><time>2026-05-01T12:00:15.597Z</time></trkpt><trkpt lat="45.8646288" lon="11.6164315"><ele>963.0</ele><time>2026-05-01T12:00:16.61Z</time></trkpt><trkpt lat="45.8645239" lon="11.61646"><ele>963.0</ele><time>2026-05-01T12:00:17.624Z</time></trkpt><trkpt lat="45.8644151" lon="11.6164593"><ele>963.0</ele><time>2026-05-01T12:00:18.601Z</time></trkpt><trkpt lat="45.8643101" lon="11.6164131"><ele>963.0</ele><time>2026-05-01T12:00:19.602Z</time></trkpt><trkpt lat="45.8642273" lon="11.6163287"><ele>963.0</ele><time>2026-05-01T12:00:20.613Z</time></trkpt><trkpt lat="45.8641663" lon="11.6162041"><ele>962.25</ele><time>2026-05-01T12:00:21.608Z</time></trkpt><trkpt lat="45.8641184" lon="11.6160586"><ele>961.5</ele><time>2026-05-01T12:00:22.602Z</time></trkpt><trkpt lat="45.8640747" lon="11.6158974"><ele>960.75</ele><time>2026-05-01T12:00:23.612Z</time></trkpt><trkpt lat="45.8640335" lon="11.6157228"><ele>960.0</ele><time>2026-05-01T12:00:24.616Z</time></trkpt><trkpt lat="45.863999" lon="11.6155357"><ele>960.0</ele><time>2026-05-01T12:00:25.614Z</time></trkpt><trkpt lat="45.8639623" lon="11.6153422"><ele>960.0</ele><time>2026-05-01T12:00:26.615Z</time></trkpt><trkpt lat="45.8639056" lon="11.615159"><ele>960.0</ele><time>2026-05-01T12:00:27.611Z</time></trkpt><trkpt lat="45.8638317" lon="11.6149931"><ele>960.0</ele><time>2026-05-01T12:00:28.599Z</time></trkpt><trkpt lat="45.8637497" lon="11.6148387"><ele>962.25</ele><time>2026-05-01T12:00:29.609Z</time></trkpt><trkpt lat="45.8636629" lon="11.6146949"><ele>964.5</ele><time>2026-05-01T12:00:30.605Z</time></trkpt><trkpt lat="45.863575" lon="11.6145715"><ele>966.75</ele><time>2026-05-01T12:00:31.587Z</time></trkpt><trkpt lat="45.8634914" lon="11.6144741"><ele>969.0</ele><time>2026-05-01T12:00:32.595Z</time></trkpt><trkpt lat="45.8634152" lon="11.6144025"><ele>969.0</ele><time>2026-05-01T12:00:33.604Z</time></trkpt><trkpt lat="45.8633512" lon="11.6143501"><ele>969.0000000000001</ele><time>2026-05-01T12:00:34.611Z</time></trkpt><trkpt lat="45.8632545" lon="11.6143097"><ele>969.0000000000001</ele><time>2026-05-01T12:00:36.598Z</time></trkpt><trkpt lat="45.863144" lon="11.6143474"><ele>969.0</ele><time>2026-05-01T12:00:38.601Z</time></trkpt><trkpt lat="45.8630703" lon="11.6144069"><ele>969.0</ele><time>2026-05-01T12:00:39.613Z</time></trkpt><trkpt lat="45.8629715" lon="11.6144793"><ele>966.8000000000001</ele><time>2026-05-01T12:00:40.603Z</time></trkpt><trkpt lat="45.8628744" lon="11.6145368"><ele>964.6000000000001</ele><time>2026-05-01T12:00:41.598Z</time></trkpt><trkpt lat="45.8627712" lon="11.6145625"><ele>962.4</ele><time>2026-05-01T12:00:42.608Z</time></trkpt><trkpt lat="45.8626658" lon="11.6145514"><ele>960.2</ele><time>2026-05-01T12:00:43.599Z</time></trkpt><trkpt lat="45.8625723" lon="11.6145174"><ele>958.0</ele><time>2026-05-01T12:00:44.607Z</time></trkpt><trkpt lat="45.8624881" lon="11.6144498"><ele>958.0</ele><time>2026-05-01T12:00:45.61Z</time></trkpt><trkpt lat="45.8624201" lon="11.6143517"><ele>958.0</ele><time>2026-05-01T12:00:46.587Z</time></trkpt><trkpt lat="45.8623754" lon="11.6142284"><ele>958.0</ele><time>2026-05-01T12:00:47.599Z</time></trkpt><trkpt lat="45.8623556" lon="11.6140868"><ele>958.0</ele><time>2026-05-01T12:00:48.604Z</time></trkpt><trkpt lat="45.8623614" lon="11.6139356"><ele>958.0</ele><time>2026-05-01T12:00:49.607Z</time></trkpt><trkpt lat="45.862389" lon="11.6137844"><ele>956.75</ele><time>2026-05-01T12:00:50.612Z</time></trkpt><trkpt lat="45.8624247" lon="11.6136235"><ele>955.5</ele><time>2026-05-01T12:00:51.599Z</time></trkpt><trkpt lat="45.86247" lon="11.6134656"><ele>954.25</ele><time>2026-05-01T12:00:52.602Z</time></trkpt><trkpt lat="45.8625299" lon="11.613316"><ele>953.0</ele><time>2026-05-01T12:00:53.606Z</time></trkpt><trkpt lat="45.862603" lon="11.613177"><ele>955.8</ele><time>2026-05-01T12:00:54.602Z</time></trkpt><trkpt lat="45.8626778" lon="11.613039"><ele>958.5999999999999</ele><time>2026-05-01T12:00:55.604Z</time></trkpt><trkpt lat="45.8627478" lon="11.6128889"><ele>961.4000000000001</ele><time>2026-05-01T12:00:56.617Z</time></trkpt><trkpt lat="45.8627958" lon="11.6127517"><ele>964.2</ele><time>2026-05-01T12:00:57.612Z</time></trkpt><trkpt lat="45.8628158" lon="11.612622"><ele>967.0</ele><time>2026-05-01T12:00:58.598Z</time></trkpt><trkpt lat="45.8628075" lon="11.6124849"><ele>966.9999999999999</ele><time>2026-05-01T12:00:59.598Z</time></trkpt><trkpt lat="45.862786" lon="11.6123868"><ele>967.0</ele><time>2026-05-01T12:01:00.603Z</time></trkpt><trkpt lat="45.8627316" lon="11.6123343"><ele>967.0</ele><time>2026-05-01T12:01:01.611Z</time></trkpt><trkpt lat="45.8626455" lon="11.6123348"><ele>967.0</ele><time>2026-05-01T12:01:02.609Z</time></trkpt><trkpt lat="45.8625425" lon="11.6123753"><ele>966.9999999999999</ele><time>2026-05-01T12:01:03.605Z</time></trkpt><trkpt lat="45.8624418" lon="11.6124209"><ele>967.0</ele><time>2026-05-01T12:01:04.602Z</time></trkpt><trkpt lat="45.8622988" lon="11.6125362"><ele>962.25</ele><time>2026-05-01T12:01:05.6Z</time></trkpt><trkpt lat="45.8621755" lon="11.6126128"><ele>957.5</ele><time>2026-05-01T12:01:06.603Z</time></trkpt><trkpt lat="45.8620493" lon="11.6126942"><ele>952.75</ele><time>2026-05-01T12:01:07.597Z</time></trkpt><trkpt lat="45.8619286" lon="11.6127375"><ele>948.0</ele><time>2026-05-01T12:01:08.604Z</time></trkpt><trkpt lat="45.8618182" lon="11.6127621"><ele>946.0</ele><time>2026-05-01T12:01:09.608Z</time></trkpt><trkpt lat="45.8617239" lon="11.6127297"><ele>944.0</ele><time>2026-05-01T12:01:10.604Z</time></trkpt><trkpt lat="45.8616234" lon="11.6126664"><ele>942.0</ele><time>2026-05-01T12:01:11.594Z</time></trkpt><trkpt lat="45.8615406" lon="11.6125177"><ele>940.0</ele><time>2026-05-01T12:01:12.6Z</time></trkpt><trkpt lat="45.8614844" lon="11.6123497"><ele>940.0</ele><time>2026-05-01T12:01:13.615Z</time></trkpt><trkpt lat="45.8614218" lon="11.6121712"><ele>940.0</ele><time>2026-05-01T12:01:14.602Z</time></trkpt><trkpt lat="45.8613537" lon="11.6119817"><ele>940.0</ele><time>2026-05-01T12:01:15.606Z</time></trkpt><trkpt lat="45.8612766" lon="11.6118097"><ele>940.0</ele><time>2026-05-01T12:01:16.603Z</time></trkpt><trkpt lat="45.8611877" lon="11.6116577"><ele>940.75</ele><time>2026-05-01T12:01:17.612Z</time></trkpt><trkpt lat="45.8610982" lon="11.6115171"><ele>941.5</ele><time>2026-05-01T12:01:18.608Z</time></trkpt><trkpt lat="45.8610155" lon="11.6113844"><ele>942.25</ele><time>2026-05-01T12:01:19.605Z</time></trkpt><trkpt lat="45.8609378" lon="11.6112667"><ele>943.0</ele><time>2026-05-01T12:01:20.599Z</time></trkpt><trkpt lat="45.8608705" lon="11.611166"><ele>942.4</ele><time>2026-05-01T12:01:21.605Z</time></trkpt><trkpt lat="45.8608156" lon="11.611095"><ele>941.8</ele><time>2026-05-01T12:01:22.603Z</time></trkpt><trkpt lat="45.8607289" lon="11.6110858"><ele>941.2</ele><time>2026-05-01T12:01:24.6Z</time></trkpt><trkpt lat="45.8607104" lon="11.6111911"><ele>940.6</ele><time>2026-05-01T12:01:26.607Z</time></trkpt><trkpt lat="45.8607557" lon="11.6113246"><ele>940.0</ele><time>2026-05-01T12:01:42.588Z</time></trkpt><trkpt lat="45.8608528" lon="11.6114668"><ele>940.0</ele><time>2026-05-01T12:01:44.595Z</time></trkpt><trkpt lat="45.8609143" lon="11.6115488"><ele>940.0</ele><time>2026-05-01T12:01:45.603Z</time></trkpt><trkpt lat="45.8609873" lon="11.6116382"><ele>940.0</ele><time>2026-05-01T12:01:46.586Z</time></trkpt><trkpt lat="45.8610572" lon="11.611743"><ele>940.0</ele><time>2026-05-01T12:01:47.591Z</time></trkpt><trkpt lat="45.8611084" lon="11.6118673"><ele>940.0</ele><time>2026-05-01T12:01:48.605Z</time></trkpt><trkpt lat="45.8611379" lon="11.6120079"><ele>940.0</ele><time>2026-05-01T12:01:49.614Z</time></trkpt><trkpt lat="45.8611544" lon="11.612165"><ele>940.0</ele><time>2026-05-01T12:01:50.606Z</time></trkpt><trkpt lat="45.8611691" lon="11.6123322"><ele>940.0</ele><time>2026-05-01T12:01:51.607Z</time></trkpt><trkpt lat="45.8611828" lon="11.6125008"><ele>940.0</ele><time>2026-05-01T12:01:52.612Z</time></trkpt><trkpt lat="45.8611964" lon="11.6126578"><ele>940.0</ele><time>2026-05-01T12:01:53.599Z</time></trkpt><trkpt lat="45.8611983" lon="11.6127974"><ele>940.0</ele><time>2026-05-01T12:01:54.61Z</time></trkpt><trkpt lat="45.8611988" lon="11.6129153"><ele>940.0</ele><time>2026-05-01T12:01:55.604Z</time></trkpt><trkpt lat="45.8611623" lon="11.6130007"><ele>940.0</ele><time>2026-05-01T12:01:56.59Z</time></trkpt><trkpt lat="45.8610845" lon="11.6131291"><ele>940.0</ele><time>2026-05-01T12:01:58.6Z</time></trkpt><trkpt lat="45.8609957" lon="11.6132705"><ele>939.3333333333333</ele><time>2026-05-01T12:02:00.61Z</time></trkpt><trkpt lat="45.8609475" lon="11.6133482"><ele>938.6666666666666</ele><time>2026-05-01T12:02:01.605Z</time></trkpt><trkpt lat="45.8608975" lon="11.6134311"><ele>938.0</ele><time>2026-05-01T12:02:02.602Z</time></trkpt><trkpt lat="45.8608484" lon="11.6135189"><ele>937.3333333333333</ele><time>2026-05-01T12:02:03.607Z</time></trkpt><trkpt lat="45.8607964" lon="11.6136069"><ele>936.6666666666666</ele><time>2026-05-01T12:02:04.609Z</time></trkpt><trkpt lat="45.8607417" lon="11.6137004"><ele>936.0</ele><time>2026-05-01T12:02:05.603Z</time></trkpt><trkpt lat="45.8606834" lon="11.6138001"><ele>935.5999999999999</ele><time>2026-05-01T12:02:06.61Z</time></trkpt><trkpt lat="45.8606208" lon="11.6139031"><ele>935.1999999999999</ele><time>2026-05-01T12:02:07.598Z</time></trkpt><trkpt lat="45.8605592" lon="11.6140079"><ele>934.8000000000001</ele><time>2026-05-01T12:02:08.581Z</time></trkpt><trkpt lat="45.8604965" lon="11.6141109"><ele>934.4000000000001</ele><time>2026-05-01T12:02:09.603Z</time></trkpt><trkpt lat="45.8604373" lon="11.6142111"><ele>934.0</ele><time>2026-05-01T12:02:10.606Z</time></trkpt><trkpt lat="45.8603792" lon="11.6143054"><ele>933.9999999999999</ele><time>2026-05-01T12:02:11.593Z</time></trkpt><trkpt lat="45.8603205" lon="11.6143991"><ele>934.0</ele><time>2026-05-01T12:02:12.608Z</time></trkpt><trkpt lat="45.8602634" lon="11.6144878"><ele>934.0</ele><time>2026-05-01T12:02:13.619Z</time></trkpt><trkpt lat="45.8602117" lon="11.6145744"><ele>934.0</ele><time>2026-05-01T12:02:14.613Z</time></trkpt><trkpt lat="45.8601825" lon="11.6146596"><ele>933.9999999999999</ele><time>2026-05-01T12:02:15.603Z</time></trkpt><trkpt lat="45.8601619" lon="11.6147613"><ele>934.0</ele><time>2026-05-01T12:02:16.597Z</time></trkpt><trkpt lat="45.8601408" lon="11.6148654"><ele>934.1666666666666</ele><time>2026-05-01T12:02:17.601Z</time></trkpt><trkpt lat="45.8601318" lon="11.614987"><ele>934.3333333333333</ele><time>2026-05-01T12:02:18.599Z</time></trkpt><trkpt lat="45.8601361" lon="11.6151106"><ele>934.5</ele><time>2026-05-01T12:02:19.598Z</time></trkpt><trkpt lat="45.860147" lon="11.6152234"><ele>934.6666666666667</ele><time>2026-05-01T12:02:20.602Z</time></trkpt><trkpt lat="45.8601594" lon="11.6153278"><ele>934.8333333333334</ele><time>2026-05-01T12:02:21.592Z</time></trkpt><trkpt lat="45.8601684" lon="11.6154233"><ele>935.0</ele><time>2026-05-01T12:02:22.606Z</time></trkpt><trkpt lat="45.8601723" lon="11.6155211"><ele>935.0000000000001</ele><time>2026-05-01T12:02:23.607Z</time></trkpt><trkpt lat="45.8601699" lon="11.6156239"><ele>935.0</ele><time>2026-05-01T12:02:24.605Z</time></trkpt><trkpt lat="45.8601515" lon="11.61572"><ele>935.0</ele><time>2026-05-01T12:02:25.598Z</time></trkpt><trkpt lat="45.8601338" lon="11.6158077"><ele>935.0</ele><time>2026-05-01T12:02:26.606Z</time></trkpt><trkpt lat="45.8600443" lon="11.6159393"><ele>935.0000000000001</ele><time>2026-05-01T12:02:28.605Z</time></trkpt><trkpt lat="45.859975" lon="11.6159949"><ele>935.0</ele><time>2026-05-01T12:02:29.595Z</time></trkpt><trkpt lat="45.8598832" lon="11.6160988"><ele>936.8</ele><time>2026-05-01T12:02:31.61Z</time></trkpt><trkpt lat="45.8598558" lon="11.6162337"><ele>938.6</ele><time>2026-05-01T12:02:33.611Z</time></trkpt><trkpt lat="45.8598717" lon="11.616409"><ele>940.4000000000001</ele><time>2026-05-01T12:02:35.598Z</time></trkpt><trkpt lat="45.8599051" lon="11.6165226"><ele>942.2</ele><time>2026-05-01T12:02:36.605Z</time></trkpt><trkpt lat="45.8599488" lon="11.6166466"><ele>944.0</ele><time>2026-05-01T12:02:37.602Z</time></trkpt><trkpt lat="45.8599896" lon="11.6167613"><ele>944.0</ele><time>2026-05-01T12:02:38.598Z</time></trkpt><trkpt lat="45.8600262" lon="11.6168842"><ele>944.0000000000001</ele><time>2026-05-01T12:02:39.603Z</time></trkpt><trkpt lat="45.8600466" lon="11.6170147"><ele>944.0000000000001</ele><time>2026-05-01T12:02:40.598Z</time></trkpt><trkpt lat="45.8600675" lon="11.6171593"><ele>944.0</ele><time>2026-05-01T12:02:41.607Z</time></trkpt><trkpt lat="45.8600921" lon="11.6173138"><ele>944.0</ele><time>2026-05-01T12:02:42.605Z</time></trkpt><trkpt lat="45.8601311" lon="11.6174653"><ele>939.2</ele><time>2026-05-01T12:02:43.597Z</time></trkpt><trkpt lat="45.8601663" lon="11.6176157"><ele>934.4000000000001</ele><time>2026-05-01T12:02:44.602Z</time></trkpt><trkpt lat="45.8602189" lon="11.6177412"><ele>929.6</ele><time>2026-05-01T12:02:45.606Z</time></trkpt><trkpt lat="45.8602669" lon="11.6178508"><ele>924.8</ele><time>2026-05-01T12:02:46.603Z</time></trkpt><trkpt lat="45.8603032" lon="11.6179352"><ele>920.0</ele><time>2026-05-01T12:02:47.595Z</time></trkpt><trkpt lat="45.8603215" lon="11.6180989"><ele>919.6</ele><time>2026-05-01T12:02:49.608Z</time></trkpt><trkpt lat="45.8602536" lon="11.6182205"><ele>919.2</ele><time>2026-05-01T12:02:51.624Z</time></trkpt><trkpt lat="45.8601877" lon="11.6182688"><ele>918.8</ele><time>2026-05-01T12:02:52.614Z</time></trkpt><trkpt lat="45.8601186" lon="11.618327"><ele>918.4</ele><time>2026-05-01T12:02:53.595Z</time></trkpt><trkpt lat="45.8600495" lon="11.6184159"><ele>918.0</ele><time>2026-05-01T12:02:54.601Z</time></trkpt><trkpt lat="45.8599709" lon="11.6185195"><ele>924.8</ele><time>2026-05-01T12:02:55.595Z</time></trkpt><trkpt lat="45.8598733" lon="11.6186365"><ele>931.5999999999999</ele><time>2026-05-01T12:02:56.602Z</time></trkpt><trkpt lat="45.8597817" lon="11.618753"><ele>938.4000000000001</ele><time>2026-05-01T12:02:57.601Z</time></trkpt><trkpt lat="45.8596988" lon="11.618857"><ele>945.2</ele><time>2026-05-01T12:02:58.602Z</time></trkpt><trkpt lat="45.8596393" lon="11.6189394"><ele>952.0</ele><time>2026-05-01T12:02:59.601Z</time></trkpt><trkpt lat="45.8595809" lon="11.6190135"><ele>951.9999999999999</ele><time>2026-05-01T12:03:00.612Z</time></trkpt><trkpt lat="45.8595348" lon="11.6190837"><ele>952.0</ele><time>2026-05-01T12:03:01.601Z</time></trkpt><trkpt lat="45.8594949" lon="11.6191582"><ele>952.0</ele><time>2026-05-01T12:03:02.612Z</time></trkpt><trkpt lat="45.859423" lon="11.6193032"><ele>952.0</ele><time>2026-05-01T12:03:04.592Z</time></trkpt><trkpt lat="45.8593829" lon="11.6193785"><ele>951.9999999999999</ele><time>2026-05-01T12:03:05.6Z</time></trkpt><trkpt lat="45.8593433" lon="11.6194538"><ele>952.0</ele><time>2026-05-01T12:03:06.601Z</time></trkpt><trkpt lat="45.8593158" lon="11.6195375"><ele>951.6</ele><time>2026-05-01T12:03:07.621Z</time></trkpt><trkpt lat="45.8592989" lon="11.6196287"><ele>951.2</ele><time>2026-05-01T12:03:08.599Z</time></trkpt><trkpt lat="45.8593164" lon="11.6198133"><ele>950.8</ele><time>2026-05-01T12:03:10.6Z</time></trkpt><trkpt lat="45.8593557" lon="11.6199054"><ele>950.4</ele><time>2026-05-01T12:03:11.607Z</time></trkpt><trkpt lat="45.8593915" lon="11.6200027"><ele>950.0</ele><time>2026-05-01T12:03:12.599Z</time></trkpt><trkpt lat="45.8594109" lon="11.6201475"><ele>950.0</ele><time>2026-05-01T12:03:13.605Z</time></trkpt><trkpt lat="45.8594094" lon="11.6203015"><ele>950.0</ele><time>2026-05-01T12:03:14.601Z</time></trkpt><trkpt lat="45.8594134" lon="11.6204492"><ele>950.0</ele><time>2026-05-01T12:03:15.617Z</time></trkpt><trkpt lat="45.8594375" lon="11.6205981"><ele>950.0</ele><time>2026-05-01T12:03:16.61Z</time></trkpt><trkpt lat="45.859463" lon="11.6207465"><ele>950.0</ele><time>2026-05-01T12:03:17.608Z</time></trkpt><trkpt lat="45.8594829" lon="11.6208802"><ele>949.6666666666667</ele><time>2026-05-01T12:03:18.594Z</time></trkpt><trkpt lat="45.8594734" lon="11.6210033"><ele>949.3333333333334</ele><time>2026-05-01T12:03:19.605Z</time></trkpt><trkpt lat="45.8594438" lon="11.6211007"><ele>949.0</ele><time>2026-05-01T12:03:20.6Z</time></trkpt><trkpt lat="45.8593965" lon="11.6211871"><ele>948.6666666666667</ele><time>2026-05-01T12:03:21.611Z</time></trkpt><trkpt lat="45.8593287" lon="11.6212533"><ele>948.3333333333334</ele><time>2026-05-01T12:03:22.617Z</time></trkpt><trkpt lat="45.8592571" lon="11.6213032"><ele>948.0</ele><time>2026-05-01T12:03:23.597Z</time></trkpt><trkpt lat="45.8591867" lon="11.6213365"><ele>948.0</ele><time>2026-05-01T12:03:24.605Z</time></trkpt><trkpt lat="45.8591064" lon="11.6213618"><ele>948.0</ele><time>2026-05-01T12:03:25.597Z</time></trkpt><trkpt lat="45.8590186" lon="11.6213629"><ele>948.0</ele><time>2026-05-01T12:03:26.606Z</time></trkpt><trkpt lat="45.8589356" lon="11.6213627"><ele>948.0</ele><time>2026-05-01T12:03:27.603Z</time></trkpt><trkpt lat="45.8588121" lon="11.6213482"><ele>948.0</ele><time>2026-05-01T12:03:28.591Z</time></trkpt><trkpt lat="45.8586942" lon="11.621318"><ele>948.0</ele><time>2026-05-01T12:03:29.612Z</time></trkpt><trkpt lat="45.8585862" lon="11.6212601"><ele>948.0</ele><time>2026-05-01T12:03:30.6Z</time></trkpt><trkpt lat="45.8584707" lon="11.621203"><ele>948.0</ele><time>2026-05-01T12:03:31.588Z</time></trkpt><trkpt lat="45.8583577" lon="11.6211396"><ele>948.0</ele><time>2026-05-01T12:03:32.601Z</time></trkpt><trkpt lat="45.858253" lon="11.6210769"><ele>948.8</ele><time>2026-05-01T12:03:33.6Z</time></trkpt><trkpt lat="45.8581502" lon="11.6210309"><ele>949.5999999999999</ele><time>2026-05-01T12:03:34.601Z</time></trkpt><trkpt lat="45.8580529" lon="11.6209893"><ele>950.4000000000001</ele><time>2026-05-01T12:03:35.601Z</time></trkpt><trkpt lat="45.8579556" lon="11.6210029"><ele>951.2</ele><time>2026-05-01T12:03:36.598Z</time></trkpt><trkpt lat="45.8578568" lon="11.6210216"><ele>952.0</ele><time>2026-05-01T12:03:37.588Z</time></trkpt><trkpt lat="45.8577506" lon="11.6210553"><ele>952.0</ele><time>2026-05-01T12:03:38.6Z</time></trkpt><trkpt lat="45.8576509" lon="11.6211"><ele>952.0</ele><time>2026-05-01T12:03:39.609Z</time></trkpt><trkpt lat="45.857548" lon="11.6211401"><ele>952.0</ele><time>2026-05-01T12:03:40.6Z</time></trkpt><trkpt lat="45.8574522" lon="11.6211753"><ele>952.0</ele><time>2026-05-01T12:03:41.602Z</time></trkpt><trkpt lat="45.8573534" lon="11.6212263"><ele>952.0</ele><time>2026-05-01T12:03:42.594Z</time></trkpt><trkpt lat="45.8572707" lon="11.621297"><ele>952.8</ele><time>2026-05-01T12:03:43.657Z</time></trkpt><trkpt lat="45.8571934" lon="11.6213884"><ele>953.6</ele><time>2026-05-01T12:03:44.592Z</time></trkpt><trkpt lat="45.8571207" lon="11.6215013"><ele>954.3999999999999</ele><time>2026-05-01T12:03:45.598Z</time></trkpt><trkpt lat="45.8570563" lon="11.6216097"><ele>955.1999999999999</ele><time>2026-05-01T12:03:46.599Z</time></trkpt><trkpt lat="45.8569902" lon="11.6217096"><ele>956.0</ele><time>2026-05-01T12:03:47.604Z</time></trkpt><trkpt lat="45.8569182" lon="11.621816"><ele>956.0</ele><time>2026-05-01T12:03:48.609Z</time></trkpt><trkpt lat="45.8568361" lon="11.6219209"><ele>955.9999999999999</ele><time>2026-05-01T12:03:49.599Z</time></trkpt><trkpt lat="45.856744" lon="11.621988"><ele>955.9999999999999</ele><time>2026-05-01T12:03:50.597Z</time></trkpt><trkpt lat="45.8566466" lon="11.62204"><ele>956.0</ele><time>2026-05-01T12:03:51.6Z</time></trkpt><trkpt lat="45.8565494" lon="11.6220863"><ele>956.0</ele><time>2026-05-01T12:03:52.605Z</time></trkpt><trkpt lat="45.8564428" lon="11.6221244"><ele>956.8</ele><time>2026-05-01T12:03:53.602Z</time></trkpt><trkpt lat="45.8563437" lon="11.622153"><ele>957.5999999999999</ele><time>2026-05-01T12:03:54.599Z</time></trkpt><trkpt lat="45.8562585" lon="11.6222135"><ele>958.4</ele><time>2026-05-01T12:03:55.596Z</time></trkpt><trkpt lat="45.8561729" lon="11.6222972"><ele>959.2</ele><time>2026-05-01T12:03:56.599Z</time></trkpt><trkpt lat="45.8560862" lon="11.6223924"><ele>960.0</ele><time>2026-05-01T12:03:57.605Z</time></trkpt><trkpt lat="45.8560165" lon="11.622466"><ele>960.3333333333334</ele><time>2026-05-01T12:03:58.599Z</time></trkpt><trkpt lat="45.8559508" lon="11.6225455"><ele>960.6666666666667</ele><time>2026-05-01T12:03:59.602Z</time></trkpt><trkpt lat="45.8558758" lon="11.6226193"><ele>961.0</ele><time>2026-05-01T12:04:00.601Z</time></trkpt><trkpt lat="45.8558052" lon="11.6226646"><ele>961.3333333333334</ele><time>2026-05-01T12:04:01.601Z</time></trkpt><trkpt lat="45.8557253" lon="11.6226812"><ele>961.6666666666667</ele><time>2026-05-01T12:04:02.603Z</time></trkpt><trkpt lat="45.8556324" lon="11.6227011"><ele>962.0</ele><time>2026-05-01T12:04:03.606Z</time></trkpt><trkpt lat="45.8555415" lon="11.6227297"><ele>962.0</ele><time>2026-05-01T12:04:04.6Z</time></trkpt><trkpt lat="45.8554634" lon="11.6227836"><ele>962.0</ele><time>2026-05-01T12:04:05.594Z</time></trkpt><trkpt lat="45.8553958" lon="11.6228629"><ele>962.0</ele><time>2026-05-01T12:04:06.599Z</time></trkpt><trkpt lat="45.8553279" lon="11.6229599"><ele>962.0</ele><time>2026-05-01T12:04:07.623Z</time></trkpt><trkpt lat="45.8552604" lon="11.623052"><ele>962.0</ele><time>2026-05-01T12:04:08.606Z</time></trkpt><trkpt lat="45.8551949" lon="11.6231349"><ele>961.8333333333334</ele><time>2026-05-01T12:04:09.588Z</time></trkpt><trkpt lat="45.8551336" lon="11.6232138"><ele>961.6666666666667</ele><time>2026-05-01T12:04:10.603Z</time></trkpt><trkpt lat="45.8550689" lon="11.6232725"><ele>961.5</ele><time>2026-05-01T12:04:11.597Z</time></trkpt><trkpt lat="45.8549927" lon="11.6233129"><ele>961.3333333333333</ele><time>2026-05-01T12:04:12.603Z</time></trkpt><trkpt lat="45.8549095" lon="11.6233605"><ele>961.1666666666666</ele><time>2026-05-01T12:04:13.606Z</time></trkpt><trkpt lat="45.8548338" lon="11.6234195"><ele>961.0</ele><time>2026-05-01T12:04:14.592Z</time></trkpt><trkpt lat="45.8547543" lon="11.6234827"><ele>962.4</ele><time>2026-05-01T12:04:15.592Z</time></trkpt><trkpt lat="45.8546761" lon="11.6235498"><ele>963.8</ele><time>2026-05-01T12:04:16.596Z</time></trkpt><trkpt lat="45.8545966" lon="11.6236187"><ele>965.1999999999999</ele><time>2026-05-01T12:04:17.605Z</time></trkpt><trkpt lat="45.8545036" lon="11.6236448"><ele>966.5999999999999</ele><time>2026-05-01T12:04:18.586Z</time></trkpt><trkpt lat="45.8544122" lon="11.623682"><ele>968.0</ele><time>2026-05-01T12:04:19.602Z</time></trkpt><trkpt lat="45.8543223" lon="11.6237279"><ele>970.0000000000001</ele><time>2026-05-01T12:04:20.604Z</time></trkpt><trkpt lat="45.854249" lon="11.6237795"><ele>972.0</ele><time>2026-05-01T12:04:21.59Z</time></trkpt><trkpt lat="45.8541815" lon="11.6238339"><ele>974.0</ele><time>2026-05-01T12:04:22.583Z</time></trkpt><trkpt lat="45.8541108" lon="11.6238812"><ele>976.0</ele><time>2026-05-01T12:04:23.591Z</time></trkpt><trkpt lat="45.8540304" lon="11.623918"><ele>978.0000000000001</ele><time>2026-05-01T12:04:24.594Z</time></trkpt><trkpt lat="45.8539479" lon="11.6239359"><ele>980.0</ele><time>2026-05-01T12:04:25.585Z</time></trkpt><trkpt lat="45.8538774" lon="11.6239913"><ele>980.0000000000001</ele><time>2026-05-01T12:04:26.604Z</time></trkpt><trkpt lat="45.8538161" lon="11.6240806"><ele>980.0</ele><time>2026-05-01T12:04:27.602Z</time></trkpt><trkpt lat="45.8537526" lon="11.6241578"><ele>980.0</ele><time>2026-05-01T12:04:28.589Z</time></trkpt><trkpt lat="45.8536891" lon="11.6242119"><ele>980.0</ele><time>2026-05-01T12:04:29.598Z</time></trkpt><trkpt lat="45.8536201" lon="11.6242412"><ele>980.0000000000001</ele><time>2026-05-01T12:04:30.602Z</time></trkpt><trkpt lat="45.8535255" lon="11.6242236"><ele>980.0</ele><time>2026-05-01T12:04:31.592Z</time></trkpt><trkpt lat="45.8534226" lon="11.6242212"><ele>980.0</ele><time>2026-05-01T12:04:32.583Z</time></trkpt><trkpt lat="45.8533146" lon="11.6242583"><ele>980.0</ele><time>2026-05-01T12:04:33.602Z</time></trkpt><trkpt lat="45.8532138" lon="11.6243238"><ele>980.0</ele><time>2026-05-01T12:04:34.605Z</time></trkpt><trkpt lat="45.8531187" lon="11.6244046"><ele>980.0</ele><time>2026-05-01T12:04:35.601Z</time></trkpt><trkpt lat="45.8530282" lon="11.6244711"><ele>980.0</ele><time>2026-05-01T12:04:36.585Z</time></trkpt><trkpt lat="45.8529419" lon="11.6245314"><ele>981.8333333333334</ele><time>2026-05-01T12:04:37.592Z</time></trkpt><trkpt lat="45.8528685" lon="11.6245673"><ele>983.6666666666667</ele><time>2026-05-01T12:04:38.591Z</time></trkpt><trkpt lat="45.8527933" lon="11.6245728"><ele>985.5</ele><time>2026-05-01T12:04:39.59Z</time></trkpt><trkpt lat="45.8527258" lon="11.6245556"><ele>987.3333333333333</ele><time>2026-05-01T12:04:40.599Z</time></trkpt><trkpt lat="45.8526611" lon="11.6245256"><ele>989.1666666666666</ele><time>2026-05-01T12:04:41.595Z</time></trkpt><trkpt lat="45.85255" lon="11.6244999"><ele>991.0</ele><time>2026-05-01T12:04:43.6Z</time></trkpt><trkpt lat="45.852427" lon="11.6245541"><ele>991.0</ele><time>2026-05-01T12:04:45.607Z</time></trkpt><trkpt lat="45.85235" lon="11.6246003"><ele>990.9999999999999</ele><time>2026-05-01T12:04:46.616Z</time></trkpt><trkpt lat="45.8522615" lon="11.624638"><ele>990.9999999999999</ele><time>2026-05-01T12:04:47.611Z</time></trkpt><trkpt lat="45.8521681" lon="11.6246777"><ele>991.0</ele><time>2026-05-01T12:04:48.601Z</time></trkpt><trkpt lat="45.8520659" lon="11.6247058"><ele>991.0</ele><time>2026-05-01T12:04:49.613Z</time></trkpt><trkpt lat="45.8519622" lon="11.624734"><ele>991.0</ele><time>2026-05-01T12:04:50.595Z</time></trkpt><trkpt lat="45.8518685" lon="11.6247655"><ele>990.9999999999999</ele><time>2026-05-01T12:04:51.596Z</time></trkpt><trkpt lat="45.8517755" lon="11.6248198"><ele>990.9999999999999</ele><time>2026-05-01T12:04:52.597Z</time></trkpt><trkpt lat="45.8516958" lon="11.6248782"><ele>991.0</ele><time>2026-05-01T12:04:53.603Z</time></trkpt><trkpt lat="45.851617" lon="11.6249519"><ele>991.0</ele><time>2026-05-01T12:04:54.604Z</time></trkpt><trkpt lat="45.8515418" lon="11.6250396"><ele>991.8</ele><time>2026-05-01T12:04:55.618Z</time></trkpt><trkpt lat="45.8514663" lon="11.6251215"><ele>992.5999999999999</ele><time>2026-05-01T12:04:56.591Z</time></trkpt><trkpt lat="45.8513949" lon="11.6251989"><ele>993.4</ele><time>2026-05-01T12:04:57.592Z</time></trkpt><trkpt lat="45.851307" lon="11.6252563"><ele>994.2</ele><time>2026-05-01T12:04:58.614Z</time></trkpt><trkpt lat="45.8512101" lon="11.6253209"><ele>995.0</ele><time>2026-05-01T12:04:59.605Z</time></trkpt><trkpt lat="45.8511065" lon="11.6253998"><ele>998.0</ele><time>2026-05-01T12:05:00.596Z</time></trkpt><trkpt lat="45.8509937" lon="11.6254765"><ele>1001.0</ele><time>2026-05-01T12:05:01.598Z</time></trkpt><trkpt lat="45.8508731" lon="11.6255472"><ele>1004.0</ele><time>2026-05-01T12:05:02.608Z</time></trkpt><trkpt lat="45.8507667" lon="11.6256138"><ele>1007.0</ele><time>2026-05-01T12:05:03.599Z</time></trkpt><trkpt lat="45.8506685" lon="11.6256977"><ele>1007.0000000000001</ele><time>2026-05-01T12:05:04.605Z</time></trkpt><trkpt lat="45.8505749" lon="11.625773"><ele>1007.0</ele><time>2026-05-01T12:05:05.6Z</time></trkpt><trkpt lat="45.8504991" lon="11.6258224"><ele>1007.0</ele><time>2026-05-01T12:05:06.595Z</time></trkpt><trkpt lat="45.8504273" lon="11.6258494"><ele>1007.0</ele><time>2026-05-01T12:05:07.614Z</time></trkpt><trkpt lat="45.850318" lon="11.6258045"><ele>1007.0000000000001</ele><time>2026-05-01T12:05:09.611Z</time></trkpt><trkpt lat="45.8502597" lon="11.6257664"><ele>1007.0</ele><time>2026-05-01T12:05:10.592Z</time></trkpt><trkpt lat="45.8502038" lon="11.6257229"><ele>1006.6</ele><time>2026-05-01T12:05:11.602Z</time></trkpt><trkpt lat="45.8501192" lon="11.6256559"><ele>1006.2</ele><time>2026-05-01T12:05:12.603Z</time></trkpt><trkpt lat="45.8500199" lon="11.6255535"><ele>1005.8</ele><time>2026-05-01T12:05:13.597Z</time></trkpt><trkpt lat="45.8499412" lon="11.6254645"><ele>1005.4</ele><time>2026-05-01T12:05:14.603Z</time></trkpt><trkpt lat="45.8498843" lon="11.6254045"><ele>1005.0</ele><time>2026-05-01T12:05:15.601Z</time></trkpt><trkpt lat="45.8497831" lon="11.6253981"><ele>1005.0</ele><time>2026-05-01T12:05:17.633Z</time></trkpt><trkpt lat="45.8497258" lon="11.6254704"><ele>1005.0</ele><time>2026-05-01T12:05:18.611Z</time></trkpt><trkpt lat="45.8496607" lon="11.6255745"><ele>1005.0</ele><time>2026-05-01T12:05:19.599Z</time></trkpt><trkpt lat="45.8495958" lon="11.6256842"><ele>1005.0</ele><time>2026-05-01T12:05:20.596Z</time></trkpt><trkpt lat="45.8495488" lon="11.6258059"><ele>1005.0</ele><time>2026-05-01T12:05:21.599Z</time></trkpt><trkpt lat="45.8495056" lon="11.6259128"><ele>1005.0</ele><time>2026-05-01T12:05:22.612Z</time></trkpt><trkpt lat="45.8494056" lon="11.6260013"><ele>1005.0</ele><time>2026-05-01T12:05:24.607Z</time></trkpt><trkpt lat="45.8493385" lon="11.6259851"><ele>1005.0</ele><time>2026-05-01T12:05:25.597Z</time></trkpt><trkpt lat="45.8492661" lon="11.6259593"><ele>1005.0</ele><time>2026-05-01T12:05:26.612Z</time></trkpt><trkpt lat="45.8492017" lon="11.6259139"><ele>1005.0</ele><time>2026-05-01T12:05:27.604Z</time></trkpt><trkpt lat="45.8491328" lon="11.6258555"><ele>1005.0</ele><time>2026-05-01T12:05:28.621Z</time></trkpt><trkpt lat="45.849068" lon="11.6258013"><ele>1005.3333333333334</ele><time>2026-05-01T12:05:29.588Z</time></trkpt><trkpt lat="45.8490014" lon="11.6257596"><ele>1005.6666666666667</ele><time>2026-05-01T12:05:30.6Z</time></trkpt><trkpt lat="45.84893" lon="11.6257875"><ele>1006.0</ele><time>2026-05-01T12:05:31.603Z</time></trkpt><trkpt lat="45.8488386" lon="11.6258181"><ele>1006.3333333333334</ele><time>2026-05-01T12:05:32.611Z</time></trkpt><trkpt lat="45.8487511" lon="11.6258698"><ele>1006.6666666666667</ele><time>2026-05-01T12:05:33.594Z</time></trkpt><trkpt lat="45.848669" lon="11.6259196"><ele>1007.0</ele><time>2026-05-01T12:05:34.601Z</time></trkpt><trkpt lat="45.8485806" lon="11.6259683"><ele>1007.0000000000001</ele><time>2026-05-01T12:05:35.607Z</time></trkpt><trkpt lat="45.8484887" lon="11.6260107"><ele>1007.0</ele><time>2026-05-01T12:05:36.656Z</time></trkpt><trkpt lat="45.8484006" lon="11.6260427"><ele>1007.0</ele><time>2026-05-01T12:05:37.599Z</time></trkpt><trkpt lat="45.8483262" lon="11.6260609"><ele>1007.0</ele><time>2026-05-01T12:05:38.597Z</time></trkpt><trkpt lat="45.8482611" lon="11.6260611"><ele>1007.0000000000001</ele><time>2026-05-01T12:05:39.6Z</time></trkpt><trkpt lat="45.8481623" lon="11.6260316"><ele>1007.0</ele><time>2026-05-01T12:05:41.592Z</time></trkpt><trkpt lat="45.848042" lon="11.625984"><ele>1008.5714285714286</ele><time>2026-05-01T12:05:43.608Z</time></trkpt><trkpt lat="45.8479777" lon="11.6259722"><ele>1010.1428571428571</ele><time>2026-05-01T12:05:44.599Z</time></trkpt><trkpt lat="45.8479109" lon="11.625978"><ele>1011.7142857142857</ele><time>2026-05-01T12:05:45.606Z</time></trkpt><trkpt lat="45.8478419" lon="11.6259991"><ele>1013.2857142857142</ele><time>2026-05-01T12:05:46.598Z</time></trkpt><trkpt lat="45.8477766" lon="11.626024"><ele>1014.8571428571429</ele><time>2026-05-01T12:05:47.6Z</time></trkpt><trkpt lat="45.8477066" lon="11.6260467"><ele>1016.4285714285713</ele><time>2026-05-01T12:05:48.598Z</time></trkpt><trkpt lat="45.8476249" lon="11.6260897"><ele>1017.9999999999999</ele><time>2026-05-01T12:05:49.612Z</time></trkpt><trkpt lat="45.8475492" lon="11.6261371"><ele>1018.9999999999999</ele><time>2026-05-01T12:05:50.582Z</time></trkpt><trkpt lat="45.847491" lon="11.6261845"><ele>1020.0</ele><time>2026-05-01T12:05:51.593Z</time></trkpt><trkpt lat="45.8474379" lon="11.6262448"><ele>1020.9999999999999</ele><time>2026-05-01T12:05:52.585Z</time></trkpt><trkpt lat="45.8473873" lon="11.6263136"><ele>1021.9999999999999</ele><time>2026-05-01T12:05:53.593Z</time></trkpt><trkpt lat="45.8473463" lon="11.6264011"><ele>1023.0</ele><time>2026-05-01T12:05:54.6Z</time></trkpt><trkpt lat="45.8473168" lon="11.626498"><ele>1023.9999999999999</ele><time>2026-05-01T12:05:55.612Z</time></trkpt><trkpt lat="45.8472902" lon="11.6265872"><ele>1025.0</ele><time>2026-05-01T12:05:56.589Z</time></trkpt><trkpt lat="45.8472336" lon="11.626713"><ele>1025.0</ele><time>2026-05-01T12:05:58.597Z</time></trkpt><trkpt lat="45.847118" lon="11.6267777"><ele>1025.0</ele><time>2026-05-01T12:06:00.602Z</time></trkpt><trkpt lat="45.8470479" lon="11.6268002"><ele>1025.0</ele><time>2026-05-01T12:06:01.592Z</time></trkpt><trkpt lat="45.8469704" lon="11.626817"><ele>1025.0</ele><time>2026-05-01T12:06:02.597Z</time></trkpt><trkpt lat="45.846885" lon="11.6268363"><ele>1025.0</ele><time>2026-05-01T12:06:03.592Z</time></trkpt><trkpt lat="45.8467985" lon="11.6268598"><ele>1025.0</ele><time>2026-05-01T12:06:04.598Z</time></trkpt><trkpt lat="45.8467127" lon="11.6268794"><ele>1025.8</ele><time>2026-05-01T12:06:05.59Z</time></trkpt><trkpt lat="45.846615" lon="11.6268741"><ele>1026.6</ele><time>2026-05-01T12:06:06.6Z</time></trkpt><trkpt lat="45.8465155" lon="11.626872"><ele>1027.4</ele><time>2026-05-01T12:06:07.596Z</time></trkpt><trkpt lat="45.8464235" lon="11.6268669"><ele>1028.2</ele><time>2026-05-01T12:06:08.59Z</time></trkpt><trkpt lat="45.8463381" lon="11.6268624"><ele>1029.0</ele><time>2026-05-01T12:06:09.6Z</time></trkpt><trkpt lat="45.8462571" lon="11.6268575"><ele>1029.0</ele><time>2026-05-01T12:06:10.6Z</time></trkpt><trkpt lat="45.8461748" lon="11.6268436"><ele>1029.0</ele><time>2026-05-01T12:06:11.595Z</time></trkpt><trkpt lat="45.8460988" lon="11.6268155"><ele>1029.0</ele><time>2026-05-01T12:06:12.591Z</time></trkpt><trkpt lat="45.8460275" lon="11.6267727"><ele>1029.0</ele><time>2026-05-01T12:06:13.611Z</time></trkpt><trkpt lat="45.8459534" lon="11.626729"><ele>1029.0</ele><time>2026-05-01T12:06:14.592Z</time></trkpt><trkpt lat="45.845876" lon="11.6266949"><ele>1029.0</ele><time>2026-05-01T12:06:15.613Z</time></trkpt><trkpt lat="45.8458092" lon="11.6266782"><ele>1030.8</ele><time>2026-05-01T12:06:16.598Z</time></trkpt><trkpt lat="45.845717" lon="11.6266873"><ele>1032.6000000000001</ele><time>2026-05-01T12:06:18.61Z</time></trkpt><trkpt lat="45.8456324" lon="11.6266847"><ele>1034.4</ele><time>2026-05-01T12:06:21.596Z</time></trkpt><trkpt lat="45.8455187" lon="11.6266936"><ele>1036.2</ele><time>2026-05-01T12:07:12.594Z</time></trkpt><trkpt lat="45.8454031" lon="11.6266958"><ele>1038.0</ele><time>2026-05-01T12:07:14.606Z</time></trkpt><trkpt lat="45.8453218" lon="11.6266986"><ele>1038.0</ele><time>2026-05-01T12:07:15.596Z</time></trkpt><trkpt lat="45.8452536" lon="11.6266958"><ele>1038.0</ele><time>2026-05-01T12:07:16.605Z</time></trkpt><trkpt lat="45.8451834" lon="11.6266898"><ele>1038.0</ele><time>2026-05-01T12:07:17.592Z</time></trkpt><trkpt lat="45.8451086" lon="11.6266834"><ele>1038.0</ele><time>2026-05-01T12:07:18.596Z</time></trkpt><trkpt lat="45.8449675" lon="11.6266789"><ele>1038.0</ele><time>2026-05-01T12:07:20.6Z</time></trkpt><trkpt lat="45.8448918" lon="11.6266799"><ele>1038.0</ele><time>2026-05-01T12:07:21.587Z</time></trkpt><trkpt lat="45.8448192" lon="11.6266786"><ele>1039.3333333333333</ele><time>2026-05-01T12:07:22.604Z</time></trkpt><trkpt lat="45.8447516" lon="11.6266838"><ele>1040.6666666666667</ele><time>2026-05-01T12:07:23.601Z</time></trkpt><trkpt lat="45.8446668" lon="11.6267172"><ele>1042.0</ele><time>2026-05-01T12:07:25.606Z</time></trkpt><trkpt lat="45.8445932" lon="11.6268168"><ele>1043.3333333333335</ele><time>2026-05-01T12:07:27.6Z</time></trkpt><trkpt lat="45.8445551" lon="11.6268914"><ele>1044.6666666666667</ele><time>2026-05-01T12:07:28.602Z</time></trkpt><trkpt lat="45.8445116" lon="11.6269795"><ele>1046.0</ele><time>2026-05-01T12:07:29.596Z</time></trkpt><trkpt lat="45.8444237" lon="11.6271069"><ele>1046.5714285714284</ele><time>2026-05-01T12:07:31.603Z</time></trkpt><trkpt lat="45.8443691" lon="11.6271658"><ele>1047.142857142857</ele><time>2026-05-01T12:07:32.603Z</time></trkpt><trkpt lat="45.8443073" lon="11.6272184"><ele>1047.7142857142858</ele><time>2026-05-01T12:07:33.604Z</time></trkpt><trkpt lat="45.8442484" lon="11.6272537"><ele>1048.2857142857142</ele><time>2026-05-01T12:07:34.601Z</time></trkpt><trkpt lat="45.8441818" lon="11.627287"><ele>1048.857142857143</ele><time>2026-05-01T12:07:35.606Z</time></trkpt><trkpt lat="45.8441049" lon="11.6273155"><ele>1049.4285714285713</ele><time>2026-05-01T12:07:36.6Z</time></trkpt><trkpt lat="45.8440311" lon="11.6273483"><ele>1050.0</ele><time>2026-05-01T12:07:37.601Z</time></trkpt><trkpt lat="45.8439602" lon="11.6273918"><ele>1051.0</ele><time>2026-05-01T12:07:38.595Z</time></trkpt><trkpt lat="45.8438934" lon="11.6274393"><ele>1052.0</ele><time>2026-05-01T12:07:39.603Z</time></trkpt><trkpt lat="45.8438263" lon="11.6274875"><ele>1053.0</ele><time>2026-05-01T12:07:40.595Z</time></trkpt><trkpt lat="45.8437628" lon="11.6275332"><ele>1054.0</ele><time>2026-05-01T12:07:41.604Z</time></trkpt><trkpt lat="45.8436776" lon="11.6276599"><ele>1055.0</ele><time>2026-05-01T12:07:43.607Z</time></trkpt><trkpt lat="45.843684" lon="11.6278239"><ele>1057.4</ele><time>2026-05-01T12:07:45.599Z</time></trkpt><trkpt lat="45.8437148" lon="11.6279065"><ele>1059.8</ele><time>2026-05-01T12:07:46.602Z</time></trkpt><trkpt lat="45.8437643" lon="11.6280661"><ele>1062.2</ele><time>2026-05-01T12:07:48.617Z</time></trkpt><trkpt lat="45.8437387" lon="11.6281814"><ele>1064.6</ele><time>2026-05-01T12:07:50.621Z</time></trkpt><trkpt lat="45.8436645" lon="11.6282568"><ele>1067.0</ele><time>2026-05-01T12:07:52.611Z</time></trkpt><trkpt lat="45.8435636" lon="11.6283354"><ele>1065.6</ele><time>2026-05-01T12:07:54.603Z</time></trkpt><trkpt lat="45.8434589" lon="11.6284163"><ele>1064.2</ele><time>2026-05-01T12:07:56.594Z</time></trkpt><trkpt lat="45.8433897" lon="11.6285235"><ele>1062.8</ele><time>2026-05-01T12:07:58.592Z</time></trkpt><trkpt lat="45.8433683" lon="11.6286696"><ele>1061.4</ele><time>2026-05-01T12:08:00.595Z</time></trkpt><trkpt lat="45.8433649" lon="11.628774"><ele>1060.0</ele><time>2026-05-01T12:08:01.599Z</time></trkpt><trkpt lat="45.8433741" lon="11.628864"><ele>1064.0</ele><time>2026-05-01T12:08:02.605Z</time></trkpt><trkpt lat="45.8434017" lon="11.6289462"><ele>1068.0</ele><time>2026-05-01T12:08:03.595Z</time></trkpt><trkpt lat="45.8434781" lon="11.6290597"><ele>1072.0</ele><time>2026-05-01T12:08:05.606Z</time></trkpt><trkpt lat="45.8435999" lon="11.629087"><ele>1076.0</ele><time>2026-05-01T12:08:07.598Z</time></trkpt><trkpt lat="45.8436652" lon="11.629082"><ele>1080.0</ele><time>2026-05-01T12:08:08.609Z</time></trkpt><trkpt lat="45.8437831" lon="11.6290084"><ele>1080.0</ele><time>2026-05-01T12:08:10.596Z</time></trkpt><trkpt lat="45.8438316" lon="11.6289323"><ele>1080.0</ele><time>2026-05-01T12:08:11.601Z</time></trkpt><trkpt lat="45.8438774" lon="11.6288626"><ele>1080.0</ele><time>2026-05-01T12:08:12.6Z</time></trkpt><trkpt lat="45.8439536" lon="11.6287967"><ele>1080.0</ele><time>2026-05-01T12:08:14.607Z</time></trkpt><trkpt lat="45.8440121" lon="11.6288437"><ele>1080.0</ele><time>2026-05-01T12:08:16.589Z</time></trkpt><trkpt lat="45.844061" lon="11.6289239"><ele>1080.0</ele><time>2026-05-01T12:08:18.61Z</time></trkpt><trkpt lat="45.8441119" lon="11.6290811"><ele>1080.0</ele><time>2026-05-01T12:08:20.604Z</time></trkpt><trkpt lat="45.844127" lon="11.6291868"><ele>1080.0</ele><time>2026-05-01T12:08:21.609Z</time></trkpt><trkpt lat="45.8441574" lon="11.6293693"><ele>1080.0</ele><time>2026-05-01T12:08:23.61Z</time></trkpt><trkpt lat="45.8441867" lon="11.629457"><ele>1080.0</ele><time>2026-05-01T12:08:24.608Z</time></trkpt><trkpt lat="45.8442455" lon="11.6295515"><ele>1080.0</ele><time>2026-05-01T12:08:26.604Z</time></trkpt><trkpt lat="45.8443074" lon="11.6295141"><ele>1080.0</ele><time>2026-05-01T12:08:28.604Z</time></trkpt><trkpt lat="45.8443667" lon="11.6293877"><ele>1080.6</ele><time>2026-05-01T12:08:30.6Z</time></trkpt><trkpt lat="45.8444244" lon="11.6293397"><ele>1081.2</ele><time>2026-05-01T12:08:31.601Z</time></trkpt><trkpt lat="45.8445314" lon="11.6292961"><ele>1081.8</ele><time>2026-05-01T12:08:33.605Z</time></trkpt><trkpt lat="45.8446546" lon="11.629341"><ele>1082.4</ele><time>2026-05-01T12:08:35.6Z</time></trkpt><trkpt lat="45.8447285" lon="11.6293576"><ele>1083.0</ele><time>2026-05-01T12:08:36.597Z</time></trkpt><trkpt lat="45.8448049" lon="11.6293515"><ele>1083.0</ele><time>2026-05-01T12:08:37.604Z</time></trkpt><trkpt lat="45.844887" lon="11.629362"><ele>1083.0</ele><time>2026-05-01T12:08:38.607Z</time></trkpt><trkpt lat="45.8449684" lon="11.6293908"><ele>1083.0</ele><time>2026-05-01T12:08:39.602Z</time></trkpt><trkpt lat="45.845053" lon="11.6294311"><ele>1083.0</ele><time>2026-05-01T12:08:40.603Z</time></trkpt><trkpt lat="45.8451415" lon="11.6294733"><ele>1083.0</ele><time>2026-05-01T12:08:41.597Z</time></trkpt><trkpt lat="45.8452288" lon="11.6295164"><ele>1083.0</ele><time>2026-05-01T12:08:42.607Z</time></trkpt><trkpt lat="45.8453223" lon="11.6295554"><ele>1085.1666666666667</ele><time>2026-05-01T12:08:43.603Z</time></trkpt><trkpt lat="45.8454165" lon="11.6295849"><ele>1087.3333333333333</ele><time>2026-05-01T12:08:44.599Z</time></trkpt><trkpt lat="45.8455043" lon="11.6295969"><ele>1089.5</ele><time>2026-05-01T12:08:45.6Z</time></trkpt><trkpt lat="45.8455812" lon="11.6296022"><ele>1091.6666666666665</ele><time>2026-05-01T12:08:46.608Z</time></trkpt><trkpt lat="45.8456522" lon="11.6296057"><ele>1093.8333333333333</ele><time>2026-05-01T12:08:47.607Z</time></trkpt><trkpt lat="45.8457564" lon="11.6296288"><ele>1096.0</ele><time>2026-05-01T12:08:49.617Z</time></trkpt><trkpt lat="45.8458639" lon="11.629708"><ele>1096.0</ele><time>2026-05-01T12:08:51.609Z</time></trkpt><trkpt lat="45.845925" lon="11.629772"><ele>1096.0</ele><time>2026-05-01T12:08:52.605Z</time></trkpt><trkpt lat="45.8459905" lon="11.6298366"><ele>1096.0</ele><time>2026-05-01T12:08:53.605Z</time></trkpt><trkpt lat="45.8460634" lon="11.6298851"><ele>1096.0</ele><time>2026-05-01T12:08:54.588Z</time></trkpt><trkpt lat="45.8461395" lon="11.6299332"><ele>1096.0</ele><time>2026-05-01T12:08:55.59Z</time></trkpt><trkpt lat="45.8462157" lon="11.6299447"><ele>1096.0</ele><time>2026-05-01T12:08:56.61Z</time></trkpt><trkpt lat="45.8462845" lon="11.6299452"><ele>1097.5</ele><time>2026-05-01T12:08:57.615Z</time></trkpt><trkpt lat="45.8463478" lon="11.6299101"><ele>1099.0</ele><time>2026-05-01T12:08:58.607Z</time></trkpt><trkpt lat="45.8464204" lon="11.6298482"><ele>1100.5</ele><time>2026-05-01T12:08:59.61Z</time></trkpt><trkpt lat="45.8464971" lon="11.6297723"><ele>1102.0</ele><time>2026-05-01T12:09:00.602Z</time></trkpt><trkpt lat="45.8465799" lon="11.6297081"><ele>1103.5</ele><time>2026-05-01T12:09:01.601Z</time></trkpt><trkpt lat="45.8466752" lon="11.6296501"><ele>1105.0</ele><time>2026-05-01T12:09:02.598Z</time></trkpt><trkpt lat="45.8467726" lon="11.6295938"><ele>1104.6</ele><time>2026-05-01T12:09:03.602Z</time></trkpt><trkpt lat="45.846872" lon="11.6295579"><ele>1104.2</ele><time>2026-05-01T12:09:04.612Z</time></trkpt><trkpt lat="45.8469742" lon="11.6295328"><ele>1103.8</ele><time>2026-05-01T12:09:05.608Z</time></trkpt><trkpt lat="45.8470762" lon="11.6295212"><ele>1103.4</ele><time>2026-05-01T12:09:06.603Z</time></trkpt><trkpt lat="45.8471728" lon="11.6295198"><ele>1103.0</ele><time>2026-05-01T12:09:07.62Z</time></trkpt><trkpt lat="45.8472688" lon="11.6295309"><ele>1103.0</ele><time>2026-05-01T12:09:08.598Z</time></trkpt><trkpt lat="45.8473648" lon="11.6295443"><ele>1103.0</ele><time>2026-05-01T12:09:09.602Z</time></trkpt><trkpt lat="45.8474613" lon="11.6295788"><ele>1103.0</ele><time>2026-05-01T12:09:10.629Z</time></trkpt><trkpt lat="45.8475713" lon="11.6296447"><ele>1103.0</ele><time>2026-05-01T12:09:11.6Z</time></trkpt><trkpt lat="45.8476808" lon="11.6297189"><ele>1103.0</ele><time>2026-05-01T12:09:12.596Z</time></trkpt><trkpt lat="45.8477955" lon="11.629803"><ele>1103.25</ele><time>2026-05-01T12:09:13.603Z</time></trkpt><trkpt lat="45.8479177" lon="11.6298873"><ele>1103.5</ele><time>2026-05-01T12:09:14.624Z</time></trkpt><trkpt lat="45.8480472" lon="11.6299709"><ele>1103.75</ele><time>2026-05-01T12:09:15.603Z</time></trkpt><trkpt lat="45.8481708" lon="11.6300546"><ele>1104.0</ele><time>2026-05-01T12:09:16.601Z</time></trkpt><trkpt lat="45.8482988" lon="11.6301438"><ele>1104.0</ele><time>2026-05-01T12:09:17.606Z</time></trkpt><trkpt lat="45.8484198" lon="11.6302262"><ele>1104.0</ele><time>2026-05-01T12:09:18.604Z</time></trkpt><trkpt lat="45.8485307" lon="11.6303029"><ele>1104.0</ele><time>2026-05-01T12:09:19.605Z</time></trkpt><trkpt lat="45.8486253" lon="11.630362"><ele>1104.0</ele><time>2026-05-01T12:09:20.606Z</time></trkpt><trkpt lat="45.8487097" lon="11.6303886"><ele>1104.0</ele><time>2026-05-01T12:09:21.596Z</time></trkpt><trkpt lat="45.8487914" lon="11.6304118"><ele>1103.6666666666667</ele><time>2026-05-01T12:09:22.609Z</time></trkpt><trkpt lat="45.8488634" lon="11.6303938"><ele>1103.3333333333333</ele><time>2026-05-01T12:09:23.602Z</time></trkpt><trkpt lat="45.8489365" lon="11.6303531"><ele>1103.0</ele><time>2026-05-01T12:09:24.612Z</time></trkpt><trkpt lat="45.8490099" lon="11.6303097"><ele>1102.6666666666665</ele><time>2026-05-01T12:09:25.615Z</time></trkpt><trkpt lat="45.8490836" lon="11.6302642"><ele>1102.3333333333333</ele><time>2026-05-01T12:09:26.609Z</time></trkpt><trkpt lat="45.8491597" lon="11.6302148"><ele>1102.0</ele><time>2026-05-01T12:09:27.607Z</time></trkpt><trkpt lat="45.8492389" lon="11.6301773"><ele>1102.5</ele><time>2026-05-01T12:09:28.607Z</time></trkpt><trkpt lat="45.8493169" lon="11.6301584"><ele>1103.0</ele><time>2026-05-01T12:09:29.61Z</time></trkpt><trkpt lat="45.8493982" lon="11.6301543"><ele>1103.5</ele><time>2026-05-01T12:09:30.608Z</time></trkpt><trkpt lat="45.8494796" lon="11.6301608"><ele>1104.0</ele><time>2026-05-01T12:09:31.607Z</time></trkpt><trkpt lat="45.8495595" lon="11.6301932"><ele>1104.5</ele><time>2026-05-01T12:09:32.611Z</time></trkpt><trkpt lat="45.8496466" lon="11.6302463"><ele>1105.0</ele><time>2026-05-01T12:09:33.607Z</time></trkpt><trkpt lat="45.8497369" lon="11.6303119"><ele>1105.8333333333333</ele><time>2026-05-01T12:09:34.602Z</time></trkpt><trkpt lat="45.8498165" lon="11.6303675"><ele>1106.6666666666665</ele><time>2026-05-01T12:09:35.612Z</time></trkpt><trkpt lat="45.8498797" lon="11.6304106"><ele>1107.5</ele><time>2026-05-01T12:09:36.605Z</time></trkpt><trkpt lat="45.8499712" lon="11.6305037"><ele>1108.3333333333333</ele><time>2026-05-01T12:09:38.606Z</time></trkpt><trkpt lat="45.8499728" lon="11.6306024"><ele>1109.1666666666667</ele><time>2026-05-01T12:09:40.608Z</time></trkpt><trkpt lat="45.849888" lon="11.6306643"><ele>1110.0</ele><time>2026-05-01T12:09:42.621Z</time></trkpt><trkpt lat="45.8498218" lon="11.6306752"><ele>1110.0</ele><time>2026-05-01T12:09:43.597Z</time></trkpt><trkpt lat="45.8497457" lon="11.6306735"><ele>1110.0</ele><time>2026-05-01T12:09:44.591Z</time></trkpt><trkpt lat="45.8496644" lon="11.6306725"><ele>1110.0</ele><time>2026-05-01T12:09:45.615Z</time></trkpt><trkpt lat="45.8495809" lon="11.6306845"><ele>1110.0</ele><time>2026-05-01T12:09:46.611Z</time></trkpt><trkpt lat="45.8495007" lon="11.6307096"><ele>1110.0</ele><time>2026-05-01T12:09:47.604Z</time></trkpt><trkpt lat="45.8494252" lon="11.6307461"><ele>1110.0</ele><time>2026-05-01T12:09:48.611Z</time></trkpt><trkpt lat="45.8493493" lon="11.6307848"><ele>1111.0</ele><time>2026-05-01T12:09:49.611Z</time></trkpt><trkpt lat="45.8492828" lon="11.6308459"><ele>1112.0</ele><time>2026-05-01T12:09:50.611Z</time></trkpt><trkpt lat="45.8492192" lon="11.6309124"><ele>1113.0</ele><time>2026-05-01T12:09:51.606Z</time></trkpt><trkpt lat="45.8491561" lon="11.6309826"><ele>1114.0</ele><time>2026-05-01T12:09:52.621Z</time></trkpt><trkpt lat="45.8490962" lon="11.631058"><ele>1115.0</ele><time>2026-05-01T12:09:53.61Z</time></trkpt><trkpt lat="45.8490429" lon="11.6311308"><ele>1116.0</ele><time>2026-05-01T12:09:54.598Z</time></trkpt><trkpt lat="45.8489898" lon="11.6312049"><ele>1116.142857142857</ele><time>2026-05-01T12:09:55.598Z</time></trkpt><trkpt lat="45.8489388" lon="11.6312773"><ele>1116.2857142857142</ele><time>2026-05-01T12:09:56.61Z</time></trkpt><trkpt lat="45.8488864" lon="11.6313502"><ele>1116.4285714285716</ele><time>2026-05-01T12:09:57.613Z</time></trkpt><trkpt lat="45.8488324" lon="11.6314243"><ele>1116.5714285714284</ele><time>2026-05-01T12:09:58.599Z</time></trkpt><trkpt lat="45.8487808" lon="11.6314952"><ele>1116.7142857142858</ele><time>2026-05-01T12:09:59.606Z</time></trkpt><trkpt lat="45.8487291" lon="11.6315667"><ele>1116.857142857143</ele><time>2026-05-01T12:10:00.609Z</time></trkpt><trkpt lat="45.8486748" lon="11.6316421"><ele>1117.0</ele><time>2026-05-01T12:10:01.604Z</time></trkpt><trkpt lat="45.8486181" lon="11.6317171"><ele>1117.0</ele><time>2026-05-01T12:10:02.596Z</time></trkpt><trkpt lat="45.8485628" lon="11.6317913"><ele>1117.0</ele><time>2026-05-01T12:10:03.604Z</time></trkpt><trkpt lat="45.8485094" lon="11.6318676"><ele>1117.0</ele><time>2026-05-01T12:10:04.608Z</time></trkpt><trkpt lat="45.8484535" lon="11.6319457"><ele>1117.0</ele><time>2026-05-01T12:10:05.616Z</time></trkpt><trkpt lat="45.8483969" lon="11.6320252"><ele>1117.0</ele><time>2026-05-01T12:10:06.625Z</time></trkpt><trkpt lat="45.8483364" lon="11.6321063"><ele>1117.0</ele><time>2026-05-01T12:10:07.617Z</time></trkpt><trkpt lat="45.8482714" lon="11.6321947"><ele>1120.8</ele><time>2026-05-01T12:10:08.603Z</time></trkpt><trkpt lat="45.8482028" lon="11.6322916"><ele>1124.6</ele><time>2026-05-01T12:10:09.605Z</time></trkpt><trkpt lat="45.8481287" lon="11.6323952"><ele>1128.3999999999999</ele><time>2026-05-01T12:10:10.604Z</time></trkpt><trkpt lat="45.8480551" lon="11.6324964"><ele>1132.2</ele><time>2026-05-01T12:10:11.596Z</time></trkpt><trkpt lat="45.8479809" lon="11.6325977"><ele>1136.0</ele><time>2026-05-01T12:10:12.606Z</time></trkpt><trkpt lat="45.8479061" lon="11.6326961"><ele>1136.0</ele><time>2026-05-01T12:10:13.594Z</time></trkpt><trkpt lat="45.8478325" lon="11.6327924"><ele>1136.0</ele><time>2026-05-01T12:10:14.618Z</time></trkpt><trkpt lat="45.84776" lon="11.6328882"><ele>1136.0</ele><time>2026-05-01T12:10:15.607Z</time></trkpt><trkpt lat="45.8476909" lon="11.6329858"><ele>1136.0</ele><time>2026-05-01T12:10:16.601Z</time></trkpt><trkpt lat="45.8476255" lon="11.6330891"><ele>1136.0</ele><time>2026-05-01T12:10:17.6Z</time></trkpt><trkpt lat="45.8475655" lon="11.6331979"><ele>1138.1666666666667</ele><time>2026-05-01T12:10:18.598Z</time></trkpt><trkpt lat="45.8475123" lon="11.6333102"><ele>1140.3333333333335</ele><time>2026-05-01T12:10:19.601Z</time></trkpt><trkpt lat="45.84747" lon="11.6334177"><ele>1142.5</ele><time>2026-05-01T12:10:20.6Z</time></trkpt><trkpt lat="45.8474412" lon="11.6335141"><ele>1144.6666666666667</ele><time>2026-05-01T12:10:21.614Z</time></trkpt><trkpt lat="45.8474157" lon="11.633622"><ele>1146.8333333333333</ele><time>2026-05-01T12:10:22.599Z</time></trkpt><trkpt lat="45.8473952" lon="11.6337118"><ele>1149.0</ele><time>2026-05-01T12:10:23.603Z</time></trkpt><trkpt lat="45.8473568" lon="11.633832"><ele>1149.0</ele><time>2026-05-01T12:10:25.608Z</time></trkpt><trkpt lat="45.8472872" lon="11.6338627"><ele>1149.0</ele><time>2026-05-01T12:10:27.614Z</time></trkpt><trkpt lat="45.8472097" lon="11.6338606"><ele>1149.0</ele><time>2026-05-01T12:10:29.598Z</time></trkpt><trkpt lat="45.8471476" lon="11.6338215"><ele>1149.0</ele><time>2026-05-01T12:10:31.62Z</time></trkpt><trkpt lat="45.847111" lon="11.6336472"><ele>1149.0</ele><time>2026-05-01T12:10:33.606Z</time></trkpt><trkpt lat="45.8470812" lon="11.6335424"><ele>1149.0</ele><time>2026-05-01T12:10:34.603Z</time></trkpt><trkpt lat="45.8470461" lon="11.6334304"><ele>1150.0</ele><time>2026-05-01T12:10:35.594Z</time></trkpt><trkpt lat="45.8470092" lon="11.6333175"><ele>1151.0</ele><time>2026-05-01T12:10:36.605Z</time></trkpt><trkpt lat="45.8469748" lon="11.6332096"><ele>1152.0</ele><time>2026-05-01T12:10:37.61Z</time></trkpt><trkpt lat="45.8469418" lon="11.6331115"><ele>1153.0</ele><time>2026-05-01T12:10:38.612Z</time></trkpt><trkpt lat="45.8469062" lon="11.6330208"><ele>1154.0</ele><time>2026-05-01T12:10:39.606Z</time></trkpt><trkpt lat="45.8468622" lon="11.6329467"><ele>1155.0</ele><time>2026-05-01T12:10:40.602Z</time></trkpt><trkpt lat="45.8468099" lon="11.6328941"><ele>1158.4</ele><time>2026-05-01T12:10:41.601Z</time></trkpt><trkpt lat="45.8466933" lon="11.6328727"><ele>1161.8</ele><time>2026-05-01T12:10:43.596Z</time></trkpt><trkpt lat="45.8465812" lon="11.6329476"><ele>1165.2</ele><time>2026-05-01T12:10:45.596Z</time></trkpt><trkpt lat="45.8465251" lon="11.633015"><ele>1168.6</ele><time>2026-05-01T12:10:46.606Z</time></trkpt><trkpt lat="45.846465" lon="11.6330944"><ele>1172.0</ele><time>2026-05-01T12:10:47.603Z</time></trkpt><trkpt lat="45.846398" lon="11.6331755"><ele>1172.0</ele><time>2026-05-01T12:10:48.606Z</time></trkpt><trkpt lat="45.846324" lon="11.6332558"><ele>1172.0</ele><time>2026-05-01T12:10:49.602Z</time></trkpt><trkpt lat="45.8462435" lon="11.6333288"><ele>1172.0</ele><time>2026-05-01T12:10:50.609Z</time></trkpt><trkpt lat="45.84616" lon="11.63339"><ele>1172.0</ele><time>2026-05-01T12:10:51.598Z</time></trkpt><trkpt lat="45.8460731" lon="11.6334365"><ele>1172.0</ele><time>2026-05-01T12:10:52.607Z</time></trkpt><trkpt lat="45.8459835" lon="11.6334632"><ele>1171.6666666666667</ele><time>2026-05-01T12:10:53.621Z</time></trkpt><trkpt lat="45.8458937" lon="11.6334721"><ele>1171.3333333333335</ele><time>2026-05-01T12:10:54.594Z</time></trkpt><trkpt lat="45.8458055" lon="11.6334645"><ele>1171.0</ele><time>2026-05-01T12:10:55.603Z</time></trkpt><trkpt lat="45.8457166" lon="11.6334572"><ele>1170.6666666666667</ele><time>2026-05-01T12:10:56.593Z</time></trkpt><trkpt lat="45.8456297" lon="11.6334542"><ele>1170.3333333333333</ele><time>2026-05-01T12:10:57.61Z</time></trkpt><trkpt lat="45.8455449" lon="11.6334607"><ele>1170.0</ele><time>2026-05-01T12:10:58.623Z</time></trkpt><trkpt lat="45.8454678" lon="11.6334809"><ele>1170.0</ele><time>2026-05-01T12:10:59.617Z</time></trkpt><trkpt lat="45.8454022" lon="11.6335121"><ele>1170.0</ele><time>2026-05-01T12:11:00.606Z</time></trkpt><trkpt lat="45.84529" lon="11.6335924"><ele>1170.0</ele><time>2026-05-01T12:11:02.61Z</time></trkpt><trkpt lat="45.8452296" lon="11.6336467"><ele>1170.0</ele><time>2026-05-01T12:11:03.612Z</time></trkpt><trkpt lat="45.8451647" lon="11.6337073"><ele>1170.0</ele><time>2026-05-01T12:11:04.605Z</time></trkpt><trkpt lat="45.8450914" lon="11.6337625"><ele>1170.0</ele><time>2026-05-01T12:11:05.611Z</time></trkpt><trkpt lat="45.8450114" lon="11.6337943"><ele>1169.8</ele><time>2026-05-01T12:11:06.598Z</time></trkpt><trkpt lat="45.844927" lon="11.6337976"><ele>1169.6</ele><time>2026-05-01T12:11:07.591Z</time></trkpt><trkpt lat="45.8448401" lon="11.6337689"><ele>1169.4</ele><time>2026-05-01T12:11:08.603Z</time></trkpt><trkpt lat="45.8447552" lon="11.6337135"><ele>1169.2</ele><time>2026-05-01T12:11:09.62Z</time></trkpt><trkpt lat="45.8446693" lon="11.6336401"><ele>1169.0</ele><time>2026-05-01T12:11:10.604Z</time></trkpt><trkpt lat="45.8445813" lon="11.6335664"><ele>1169.0</ele><time>2026-05-01T12:11:11.602Z</time></trkpt><trkpt lat="45.8444889" lon="11.6335024"><ele>1169.0</ele><time>2026-05-01T12:11:12.612Z</time></trkpt><trkpt lat="45.8443977" lon="11.633439"><ele>1169.0</ele><time>2026-05-01T12:11:13.621Z</time></trkpt><trkpt lat="45.8443009" lon="11.6334253"><ele>1169.0</ele><time>2026-05-01T12:11:14.602Z</time></trkpt><trkpt lat="45.8442038" lon="11.6334152"><ele>1169.0</ele><time>2026-05-01T12:11:15.611Z</time></trkpt><trkpt lat="45.8441117" lon="11.6334538"><ele>1169.2</ele><time>2026-05-01T12:11:16.617Z</time></trkpt><trkpt lat="45.8440265" lon="11.6334915"><ele>1169.4</ele><time>2026-05-01T12:11:17.611Z</time></trkpt><trkpt lat="45.8439428" lon="11.6335772"><ele>1169.6</ele><time>2026-05-01T12:11:18.614Z</time></trkpt><trkpt lat="45.8438664" lon="11.6336792"><ele>1169.8</ele><time>2026-05-01T12:11:19.605Z</time></trkpt><trkpt lat="45.8437962" lon="11.6337941"><ele>1170.0</ele><time>2026-05-01T12:11:20.605Z</time></trkpt><trkpt lat="45.8437229" lon="11.6339142"><ele>1172.4</ele><time>2026-05-01T12:11:21.61Z</time></trkpt><trkpt lat="45.8436582" lon="11.6340304"><ele>1174.8</ele><time>2026-05-01T12:11:22.606Z</time></trkpt><trkpt lat="45.8435897" lon="11.6341467"><ele>1177.2</ele><time>2026-05-01T12:11:23.604Z</time></trkpt><trkpt lat="45.8435204" lon="11.6342678"><ele>1179.6</ele><time>2026-05-01T12:11:24.608Z</time></trkpt><trkpt lat="45.8434232" lon="11.6343486"><ele>1182.0</ele><time>2026-05-01T12:11:25.597Z</time></trkpt><trkpt lat="45.8433202" lon="11.6344139"><ele>1182.0</ele><time>2026-05-01T12:11:26.599Z</time></trkpt><trkpt lat="45.8432199" lon="11.6344618"><ele>1182.0</ele><time>2026-05-01T12:11:27.608Z</time></trkpt><trkpt lat="45.8431156" lon="11.6344885"><ele>1182.0</ele><time>2026-05-01T12:11:28.607Z</time></trkpt><trkpt lat="45.8430204" lon="11.6344897"><ele>1182.0</ele><time>2026-05-01T12:11:29.597Z</time></trkpt><trkpt lat="45.842928" lon="11.6344615"><ele>1182.0</ele><time>2026-05-01T12:11:30.589Z</time></trkpt><trkpt lat="45.8428394" lon="11.6344101"><ele>1182.0</ele><time>2026-05-01T12:11:31.617Z</time></trkpt><trkpt lat="45.8427485" lon="11.634357"><ele>1182.0</ele><time>2026-05-01T12:11:32.612Z</time></trkpt><trkpt lat="45.8426642" lon="11.6342809"><ele>1182.0</ele><time>2026-05-01T12:11:33.6Z</time></trkpt><trkpt lat="45.842578" lon="11.6342194"><ele>1182.0</ele><time>2026-05-01T12:11:34.6Z</time></trkpt><trkpt lat="45.8424898" lon="11.6341689"><ele>1182.0</ele><time>2026-05-01T12:11:35.607Z</time></trkpt><trkpt lat="45.8423962" lon="11.6341324"><ele>1183.0</ele><time>2026-05-01T12:11:36.611Z</time></trkpt><trkpt lat="45.8422923" lon="11.6341052"><ele>1184.0</ele><time>2026-05-01T12:11:37.596Z</time></trkpt><trkpt lat="45.8421874" lon="11.6340876"><ele>1185.0</ele><time>2026-05-01T12:11:38.612Z</time></trkpt><trkpt lat="45.8420783" lon="11.634077"><ele>1186.0</ele><time>2026-05-01T12:11:39.592Z</time></trkpt><trkpt lat="45.8419698" lon="11.6340647"><ele>1187.0</ele><time>2026-05-01T12:11:40.603Z</time></trkpt><trkpt lat="45.8418658" lon="11.6340436"><ele>1187.8333333333335</ele><time>2026-05-01T12:11:41.608Z</time></trkpt><trkpt lat="45.8417698" lon="11.6340079"><ele>1188.6666666666667</ele><time>2026-05-01T12:11:42.613Z</time></trkpt><trkpt lat="45.8416801" lon="11.6339635"><ele>1189.5</ele><time>2026-05-01T12:11:43.599Z</time></trkpt><trkpt lat="45.8415956" lon="11.6339163"><ele>1190.3333333333333</ele><time>2026-05-01T12:11:44.616Z</time></trkpt><trkpt lat="45.8415225" lon="11.6338723"><ele>1191.1666666666665</ele><time>2026-05-01T12:11:45.602Z</time></trkpt><trkpt lat="45.8414567" lon="11.6338395"><ele>1192.0</ele><time>2026-05-01T12:11:46.604Z</time></trkpt><trkpt lat="45.8413435" lon="11.633796"><ele>1192.0</ele><time>2026-05-01T12:11:48.608Z</time></trkpt><trkpt lat="45.841287" lon="11.6337529"><ele>1192.0</ele><time>2026-05-01T12:11:49.603Z</time></trkpt><trkpt lat="45.8412251" lon="11.6337048"><ele>1192.0</ele><time>2026-05-01T12:11:50.622Z</time></trkpt><trkpt lat="45.8411507" lon="11.6336587"><ele>1192.0</ele><time>2026-05-01T12:11:51.604Z</time></trkpt><trkpt lat="45.8410735" lon="11.6336256"><ele>1192.0</ele><time>2026-05-01T12:11:52.603Z</time></trkpt><trkpt lat="45.8410001" lon="11.6336161"><ele>1192.0</ele><time>2026-05-01T12:11:53.606Z</time></trkpt><trkpt lat="45.8409207" lon="11.6336161"><ele>1192.0</ele><time>2026-05-01T12:11:54.606Z</time></trkpt><trkpt lat="45.8408365" lon="11.6336307"><ele>1190.5</ele><time>2026-05-01T12:11:55.604Z</time></trkpt><trkpt lat="45.8407542" lon="11.6336509"><ele>1189.0</ele><time>2026-05-01T12:11:56.614Z</time></trkpt><trkpt lat="45.8406704" lon="11.6336723"><ele>1187.5</ele><time>2026-05-01T12:11:57.604Z</time></trkpt><trkpt lat="45.8405903" lon="11.6336902"><ele>1186.0</ele><time>2026-05-01T12:11:58.6Z</time></trkpt><trkpt lat="45.8405123" lon="11.6337045"><ele>1184.5</ele><time>2026-05-01T12:11:59.596Z</time></trkpt><trkpt lat="45.8404384" lon="11.6337114"><ele>1183.0</ele><time>2026-05-01T12:12:00.6Z</time></trkpt><trkpt lat="45.8403707" lon="11.6337096"><ele>1183.0</ele><time>2026-05-01T12:12:01.604Z</time></trkpt><trkpt lat="45.8403085" lon="11.6336948"><ele>1183.0</ele><time>2026-05-01T12:12:02.603Z</time></trkpt><trkpt lat="45.8402497" lon="11.6336624"><ele>1183.0</ele><time>2026-05-01T12:12:03.603Z</time></trkpt><trkpt lat="45.8401946" lon="11.6336111"><ele>1183.0</ele><time>2026-05-01T12:12:04.603Z</time></trkpt><trkpt lat="45.8401433" lon="11.6335457"><ele>1183.0</ele><time>2026-05-01T12:12:05.601Z</time></trkpt><trkpt lat="45.8400931" lon="11.6334659"><ele>1183.0</ele><time>2026-05-01T12:12:06.606Z</time></trkpt><trkpt lat="45.840046" lon="11.6333712"><ele>1183.0</ele><time>2026-05-01T12:12:07.608Z</time></trkpt><trkpt lat="45.8399981" lon="11.6332708"><ele>1183.0</ele><time>2026-05-01T12:12:08.613Z</time></trkpt><trkpt lat="45.8399496" lon="11.6331701"><ele>1183.0</ele><time>2026-05-01T12:12:09.613Z</time></trkpt><trkpt lat="45.8399032" lon="11.633067"><ele>1183.0</ele><time>2026-05-01T12:12:10.606Z</time></trkpt><trkpt lat="45.8398545" lon="11.6329607"><ele>1183.0</ele><time>2026-05-01T12:12:11.602Z</time></trkpt><trkpt lat="45.8397967" lon="11.6328639"><ele>1183.0</ele><time>2026-05-01T12:12:12.603Z</time></trkpt><trkpt lat="45.8397288" lon="11.6327856"><ele>1183.0</ele><time>2026-05-01T12:12:13.613Z</time></trkpt><trkpt lat="45.8396478" lon="11.6327208"><ele>1183.0</ele><time>2026-05-01T12:12:14.595Z</time></trkpt><trkpt lat="45.8395628" lon="11.6326542"><ele>1183.0</ele><time>2026-05-01T12:12:15.613Z</time></trkpt><trkpt lat="45.8394647" lon="11.6326093"><ele>1183.0</ele><time>2026-05-01T12:12:16.609Z</time></trkpt><trkpt lat="45.8393668" lon="11.6325675"><ele>1183.0</ele><time>2026-05-01T12:12:17.597Z</time></trkpt><trkpt lat="45.8392755" lon="11.6325225"><ele>1183.0</ele><time>2026-05-01T12:12:18.604Z</time></trkpt><trkpt lat="45.8391945" lon="11.6324624"><ele>1180.8</ele><time>2026-05-01T12:12:19.607Z</time></trkpt><trkpt lat="45.8391186" lon="11.632378"><ele>1178.6</ele><time>2026-05-01T12:12:20.607Z</time></trkpt><trkpt lat="45.8390481" lon="11.6322802"><ele>1176.4</ele><time>2026-05-01T12:12:21.604Z</time></trkpt><trkpt lat="45.838979" lon="11.6321897"><ele>1174.2</ele><time>2026-05-01T12:12:22.608Z</time></trkpt><trkpt lat="45.8388995" lon="11.6321198"><ele>1172.0</ele><time>2026-05-01T12:12:23.608Z</time></trkpt><trkpt lat="45.8388103" lon="11.6320786"><ele>1172.0</ele><time>2026-05-01T12:12:24.617Z</time></trkpt><trkpt lat="45.838721" lon="11.6320688"><ele>1172.0</ele><time>2026-05-01T12:12:25.605Z</time></trkpt><trkpt lat="45.8386348" lon="11.632089"><ele>1172.0</ele><time>2026-05-01T12:12:26.592Z</time></trkpt><trkpt lat="45.8385463" lon="11.6321334"><ele>1172.0</ele><time>2026-05-01T12:12:27.611Z</time></trkpt><trkpt lat="45.8384557" lon="11.6321914"><ele>1172.0</ele><time>2026-05-01T12:12:28.602Z</time></trkpt><trkpt lat="45.838367" lon="11.6322462"><ele>1171.0</ele><time>2026-05-01T12:12:29.602Z</time></trkpt><trkpt lat="45.8382834" lon="11.6322871"><ele>1170.0</ele><time>2026-05-01T12:12:30.609Z</time></trkpt><trkpt lat="45.8382076" lon="11.632299"><ele>1169.0</ele><time>2026-05-01T12:12:31.608Z</time></trkpt><trkpt lat="45.838141" lon="11.6323056"><ele>1168.0</ele><time>2026-05-01T12:12:32.608Z</time></trkpt><trkpt lat="45.8380795" lon="11.6322491"><ele>1167.0</ele><time>2026-05-01T12:12:33.613Z</time></trkpt><trkpt lat="45.8380271" lon="11.6321591"><ele>1166.0</ele><time>2026-05-01T12:12:34.604Z</time></trkpt><trkpt lat="45.8379871" lon="11.632041"><ele>1168.2</ele><time>2026-05-01T12:12:35.59Z</time></trkpt><trkpt lat="45.8379532" lon="11.6319114"><ele>1170.3999999999999</ele><time>2026-05-01T12:12:36.59Z</time></trkpt><trkpt lat="45.837914" lon="11.6317954"><ele>1172.6</ele><time>2026-05-01T12:12:37.594Z</time></trkpt><trkpt lat="45.8378562" lon="11.6317048"><ele>1174.8</ele><time>2026-05-01T12:12:38.606Z</time></trkpt><trkpt lat="45.8377825" lon="11.6316348"><ele>1177.0</ele><time>2026-05-01T12:12:39.604Z</time></trkpt><trkpt lat="45.8376959" lon="11.6315894"><ele>1175.0</ele><time>2026-05-01T12:12:40.603Z</time></trkpt><trkpt lat="45.8376065" lon="11.6315428"><ele>1173.0</ele><time>2026-05-01T12:12:41.612Z</time></trkpt><trkpt lat="45.8375111" lon="11.6315191"><ele>1171.0</ele><time>2026-05-01T12:12:42.607Z</time></trkpt><trkpt lat="45.83741" lon="11.6314691"><ele>1169.0</ele><time>2026-05-01T12:12:43.613Z</time></trkpt><trkpt lat="45.8373178" lon="11.6313998"><ele>1167.0</ele><time>2026-05-01T12:12:44.608Z</time></trkpt><trkpt lat="45.8372276" lon="11.6313281"><ele>1167.0</ele><time>2026-05-01T12:12:45.594Z</time></trkpt><trkpt lat="45.8371533" lon="11.6312306"><ele>1167.0</ele><time>2026-05-01T12:12:46.598Z</time></trkpt><trkpt lat="45.8370885" lon="11.6311117"><ele>1167.0</ele><time>2026-05-01T12:12:47.595Z</time></trkpt><trkpt lat="45.8370166" lon="11.6309991"><ele>1167.0</ele><time>2026-05-01T12:12:48.6Z</time></trkpt><trkpt lat="45.8369457" lon="11.6308906"><ele>1167.0</ele><time>2026-05-01T12:12:49.6Z</time></trkpt><trkpt lat="45.8368734" lon="11.6307838"><ele>1168.5</ele><time>2026-05-01T12:12:50.6Z</time></trkpt><trkpt lat="45.8367888" lon="11.6307025"><ele>1170.0</ele><time>2026-05-01T12:12:51.601Z</time></trkpt><trkpt lat="45.836674" lon="11.6306598"><ele>1171.5</ele><time>2026-05-01T12:12:52.61Z</time></trkpt><trkpt lat="45.8365553" lon="11.6306252"><ele>1173.0</ele><time>2026-05-01T12:12:53.61Z</time></trkpt><trkpt lat="45.8364418" lon="11.6305947"><ele>1173.0</ele><time>2026-05-01T12:12:54.605Z</time></trkpt><trkpt lat="45.8363328" lon="11.6305676"><ele>1173.0</ele><time>2026-05-01T12:12:55.601Z</time></trkpt><trkpt lat="45.8362216" lon="11.6305299"><ele>1173.0</ele><time>2026-05-01T12:12:56.601Z</time></trkpt><trkpt lat="45.8361205" lon="11.6304816"><ele>1173.0</ele><time>2026-05-01T12:12:57.61Z</time></trkpt><trkpt lat="45.8360243" lon="11.6304399"><ele>1173.0</ele><time>2026-05-01T12:12:58.608Z</time></trkpt><trkpt lat="45.835946" lon="11.6304073"><ele>1171.5</ele><time>2026-05-01T12:12:59.606Z</time></trkpt><trkpt lat="45.8358368" lon="11.6303335"><ele>1170.0</ele><time>2026-05-01T12:13:01.602Z</time></trkpt><trkpt lat="45.8357827" lon="11.6302782"><ele>1168.5</ele><time>2026-05-01T12:13:02.595Z</time></trkpt><trkpt lat="45.8357259" lon="11.630225"><ele>1167.0</ele><time>2026-05-01T12:13:03.604Z</time></trkpt><trkpt lat="45.8356724" lon="11.6301663"><ele>1165.5</ele><time>2026-05-01T12:13:04.61Z</time></trkpt><trkpt lat="45.83561" lon="11.6301049"><ele>1164.0</ele><time>2026-05-01T12:13:05.612Z</time></trkpt><trkpt lat="45.8355483" lon="11.6300448"><ele>1167.0</ele><time>2026-05-01T12:13:06.593Z</time></trkpt><trkpt lat="45.8354874" lon="11.629984"><ele>1170.0</ele><time>2026-05-01T12:13:07.61Z</time></trkpt><trkpt lat="45.8354302" lon="11.6299153"><ele>1173.0</ele><time>2026-05-01T12:13:08.603Z</time></trkpt><trkpt lat="45.8353725" lon="11.6298457"><ele>1176.0</ele><time>2026-05-01T12:13:09.607Z</time></trkpt><trkpt lat="45.8353089" lon="11.6297757"><ele>1179.0</ele><time>2026-05-01T12:13:10.6Z</time></trkpt><trkpt lat="45.8352439" lon="11.6297063"><ele>1182.0</ele><time>2026-05-01T12:13:11.607Z</time></trkpt><trkpt lat="45.8351798" lon="11.6296432"><ele>1180.8333333333333</ele><time>2026-05-01T12:13:12.603Z</time></trkpt><trkpt lat="45.8351033" lon="11.6295903"><ele>1179.6666666666667</ele><time>2026-05-01T12:13:13.606Z</time></trkpt><trkpt lat="45.8350245" lon="11.6295449"><ele>1178.5</ele><time>2026-05-01T12:13:14.603Z</time></trkpt><trkpt lat="45.8349365" lon="11.6295139"><ele>1177.3333333333335</ele><time>2026-05-01T12:13:15.59Z</time></trkpt><trkpt lat="45.8348454" lon="11.6294949"><ele>1176.1666666666667</ele><time>2026-05-01T12:13:16.593Z</time></trkpt><trkpt lat="45.8347571" lon="11.6294981"><ele>1175.0</ele><time>2026-05-01T12:13:17.599Z</time></trkpt><trkpt lat="45.8346596" lon="11.6295229"><ele>1175.0</ele><time>2026-05-01T12:13:18.603Z</time></trkpt><trkpt lat="45.8345664" lon="11.6295606"><ele>1175.0</ele><time>2026-05-01T12:13:19.611Z</time></trkpt><trkpt lat="45.8344777" lon="11.6295806"><ele>1175.0</ele><time>2026-05-01T12:13:20.605Z</time></trkpt><trkpt lat="45.8343887" lon="11.6295841"><ele>1175.0</ele><time>2026-05-01T12:13:21.604Z</time></trkpt><trkpt lat="45.834292" lon="11.6295541"><ele>1175.0</ele><time>2026-05-01T12:13:22.608Z</time></trkpt><trkpt lat="45.8341894" lon="11.6295156"><ele>1175.0</ele><time>2026-05-01T12:13:23.612Z</time></trkpt><trkpt lat="45.8340847" lon="11.6294783"><ele>1175.0</ele><time>2026-05-01T12:13:24.609Z</time></trkpt><trkpt lat="45.8339719" lon="11.6294421"><ele>1175.0</ele><time>2026-05-01T12:13:25.603Z</time></trkpt><trkpt lat="45.833862" lon="11.6294066"><ele>1175.0</ele><time>2026-05-01T12:13:26.616Z</time></trkpt><trkpt lat="45.8337572" lon="11.6293659"><ele>1175.0</ele><time>2026-05-01T12:13:27.61Z</time></trkpt><trkpt lat="45.8336618" lon="11.6293118"><ele>1178.3333333333335</ele><time>2026-05-01T12:13:28.604Z</time></trkpt><trkpt lat="45.8335852" lon="11.6292599"><ele>1181.6666666666667</ele><time>2026-05-01T12:13:29.614Z</time></trkpt><trkpt lat="45.8335166" lon="11.6292267"><ele>1185.0</ele><time>2026-05-01T12:13:30.602Z</time></trkpt><trkpt lat="45.8334061" lon="11.6292971"><ele>1188.3333333333333</ele><time>2026-05-01T12:13:32.596Z</time></trkpt><trkpt lat="45.8333527" lon="11.6293612"><ele>1191.6666666666665</ele><time>2026-05-01T12:13:33.596Z</time></trkpt><trkpt lat="45.8333163" lon="11.6294583"><ele>1195.0</ele><time>2026-05-01T12:13:34.606Z</time></trkpt><trkpt lat="45.8333219" lon="11.6295861"><ele>1195.0</ele><time>2026-05-01T12:13:35.603Z</time></trkpt><trkpt lat="45.8333414" lon="11.6297269"><ele>1195.0</ele><time>2026-05-01T12:13:36.606Z</time></trkpt><trkpt lat="45.8333545" lon="11.6298743"><ele>1195.0</ele><time>2026-05-01T12:13:37.598Z</time></trkpt><trkpt lat="45.833375" lon="11.6300345"><ele>1195.0</ele><time>2026-05-01T12:13:38.609Z</time></trkpt><trkpt lat="45.8334117" lon="11.6301993"><ele>1195.0</ele><time>2026-05-01T12:13:39.62Z</time></trkpt><trkpt lat="45.8334451" lon="11.6303653"><ele>1190.5</ele><time>2026-05-01T12:13:40.604Z</time></trkpt><trkpt lat="45.8334762" lon="11.6305237"><ele>1186.0</ele><time>2026-05-01T12:13:41.605Z</time></trkpt><trkpt lat="45.8335073" lon="11.6306512"><ele>1181.5</ele><time>2026-05-01T12:13:42.597Z</time></trkpt><trkpt lat="45.8335306" lon="11.6307614"><ele>1177.0</ele><time>2026-05-01T12:13:43.59Z</time></trkpt><trkpt lat="45.8335433" lon="11.6308726"><ele>1172.5</ele><time>2026-05-01T12:13:44.599Z</time></trkpt><trkpt lat="45.833542" lon="11.6309712"><ele>1168.0</ele><time>2026-05-01T12:13:45.601Z</time></trkpt><trkpt lat="45.8334885" lon="11.6310765"><ele>1171.3333333333333</ele><time>2026-05-01T12:13:46.59Z</time></trkpt><trkpt lat="45.8334269" lon="11.6311691"><ele>1174.6666666666665</ele><time>2026-05-01T12:13:47.608Z</time></trkpt><trkpt lat="45.8333652" lon="11.631259"><ele>1178.0</ele><time>2026-05-01T12:13:48.599Z</time></trkpt><trkpt lat="45.833305" lon="11.6313471"><ele>1181.3333333333333</ele><time>2026-05-01T12:13:49.598Z</time></trkpt><trkpt lat="45.8332518" lon="11.6314414"><ele>1184.6666666666667</ele><time>2026-05-01T12:13:50.597Z</time></trkpt><trkpt lat="45.833202" lon="11.6315354"><ele>1188.0</ele><time>2026-05-01T12:13:51.597Z</time></trkpt><trkpt lat="45.8331567" lon="11.6316313"><ele>1188.0</ele><time>2026-05-01T12:13:52.599Z</time></trkpt><trkpt lat="45.8331135" lon="11.6317275"><ele>1188.0</ele><time>2026-05-01T12:13:53.613Z</time></trkpt><trkpt lat="45.8330777" lon="11.6318211"><ele>1188.0</ele><time>2026-05-01T12:13:54.599Z</time></trkpt><trkpt lat="45.8330383" lon="11.6319073"><ele>1188.0</ele><time>2026-05-01T12:13:55.611Z</time></trkpt><trkpt lat="45.8329819" lon="11.6319843"><ele>1188.0</ele><time>2026-05-01T12:13:56.603Z</time></trkpt><trkpt lat="45.8329067" lon="11.6320477"><ele>1188.0</ele><time>2026-05-01T12:13:57.601Z</time></trkpt><trkpt lat="45.8328225" lon="11.6321062"><ele>1190.8</ele><time>2026-05-01T12:13:58.603Z</time></trkpt><trkpt lat="45.8327428" lon="11.6321787"><ele>1193.6</ele><time>2026-05-01T12:13:59.612Z</time></trkpt><trkpt lat="45.8326645" lon="11.6322506"><ele>1196.4</ele><time>2026-05-01T12:14:00.604Z</time></trkpt><trkpt lat="45.832601" lon="11.6323514"><ele>1199.2</ele><time>2026-05-01T12:14:01.593Z</time></trkpt><trkpt lat="45.8325528" lon="11.6324946"><ele>1202.0</ele><time>2026-05-01T12:14:02.619Z</time></trkpt><trkpt lat="45.8325226" lon="11.6326589"><ele>1199.75</ele><time>2026-05-01T12:14:03.612Z</time></trkpt><trkpt lat="45.8324904" lon="11.632829"><ele>1197.5</ele><time>2026-05-01T12:14:04.599Z</time></trkpt><trkpt lat="45.8324537" lon="11.6329896"><ele>1195.25</ele><time>2026-05-01T12:14:05.608Z</time></trkpt><trkpt lat="45.8323971" lon="11.6331372"><ele>1193.0</ele><time>2026-05-01T12:14:06.61Z</time></trkpt><trkpt lat="45.8323204" lon="11.633273"><ele>1193.0</ele><time>2026-05-01T12:14:07.597Z</time></trkpt><trkpt lat="45.8322392" lon="11.6333909"><ele>1193.0</ele><time>2026-05-01T12:14:08.595Z</time></trkpt><trkpt lat="45.8321577" lon="11.6335021"><ele>1193.0</ele><time>2026-05-01T12:14:09.598Z</time></trkpt><trkpt lat="45.8320771" lon="11.6336186"><ele>1193.0</ele><time>2026-05-01T12:14:10.615Z</time></trkpt><trkpt lat="45.8320008" lon="11.6337368"><ele>1190.8</ele><time>2026-05-01T12:14:11.609Z</time></trkpt><trkpt lat="45.8319374" lon="11.6338738"><ele>1188.6</ele><time>2026-05-01T12:14:12.6Z</time></trkpt><trkpt lat="45.8318969" lon="11.6340194"><ele>1186.4</ele><time>2026-05-01T12:14:13.611Z</time></trkpt><trkpt lat="45.8318678" lon="11.6341576"><ele>1184.2</ele><time>2026-05-01T12:14:14.603Z</time></trkpt><trkpt lat="45.8318594" lon="11.6342937"><ele>1182.0</ele><time>2026-05-01T12:14:15.604Z</time></trkpt><trkpt lat="45.8318478" lon="11.6344156"><ele>1183.0</ele><time>2026-05-01T12:14:16.595Z</time></trkpt><trkpt lat="45.8318294" lon="11.6345479"><ele>1184.0</ele><time>2026-05-01T12:14:17.607Z</time></trkpt><trkpt lat="45.83181" lon="11.634648"><ele>1185.0</ele><time>2026-05-01T12:14:18.607Z</time></trkpt><trkpt lat="45.8317912" lon="11.6347397"><ele>1186.0</ele><time>2026-05-01T12:14:19.606Z</time></trkpt><trkpt lat="45.8317182" lon="11.6348695"><ele>1187.0</ele><time>2026-05-01T12:14:21.609Z</time></trkpt><trkpt lat="45.8316282" lon="11.6349479"><ele>1188.8333333333335</ele><time>2026-05-01T12:14:23.614Z</time></trkpt><trkpt lat="45.8315619" lon="11.6349686"><ele>1190.6666666666667</ele><time>2026-05-01T12:14:24.605Z</time></trkpt><trkpt lat="45.8314854" lon="11.6349794"><ele>1192.5</ele><time>2026-05-01T12:14:25.606Z</time></trkpt><trkpt lat="45.8314019" lon="11.6349835"><ele>1194.3333333333333</ele><time>2026-05-01T12:14:26.615Z</time></trkpt><trkpt lat="45.8313118" lon="11.6349843"><ele>1196.1666666666665</ele><time>2026-05-01T12:14:27.595Z</time></trkpt><trkpt lat="45.8312216" lon="11.6349843"><ele>1198.0</ele><time>2026-05-01T12:14:28.596Z</time></trkpt><trkpt lat="45.8311367" lon="11.6349842"><ele>1198.0</ele><time>2026-05-01T12:14:29.593Z</time></trkpt><trkpt lat="45.8310562" lon="11.634982"><ele>1198.0</ele><time>2026-05-01T12:14:30.627Z</time></trkpt><trkpt lat="45.8309807" lon="11.6349496"><ele>1198.0</ele><time>2026-05-01T12:14:31.592Z</time></trkpt><trkpt lat="45.8309037" lon="11.6349051"><ele>1198.0</ele><time>2026-05-01T12:14:32.598Z</time></trkpt><trkpt lat="45.8308205" lon="11.6348435"><ele>1198.0</ele><time>2026-05-01T12:14:33.592Z</time></trkpt><trkpt lat="45.8307389" lon="11.6347865"><ele>1198.0</ele><time>2026-05-01T12:14:34.594Z</time></trkpt><trkpt lat="45.830654" lon="11.6347308"><ele>1197.8</ele><time>2026-05-01T12:14:35.586Z</time></trkpt><trkpt lat="45.83057" lon="11.6346728"><ele>1197.6</ele><time>2026-05-01T12:14:36.608Z</time></trkpt><trkpt lat="45.8304767" lon="11.6346021"><ele>1197.4</ele><time>2026-05-01T12:14:37.595Z</time></trkpt><trkpt lat="45.8303941" lon="11.6345276"><ele>1197.2</ele><time>2026-05-01T12:14:38.594Z</time></trkpt><trkpt lat="45.830316" lon="11.6344422"><ele>1197.0</ele><time>2026-05-01T12:14:39.605Z</time></trkpt><trkpt lat="45.8302522" lon="11.6343536"><ele>1197.0</ele><time>2026-05-01T12:14:40.59Z</time></trkpt><trkpt lat="45.8301948" lon="11.634227"><ele>1197.0</ele><time>2026-05-01T12:14:41.605Z</time></trkpt><trkpt lat="45.8301725" lon="11.6340994"><ele>1197.0</ele><time>2026-05-01T12:14:42.606Z</time></trkpt><trkpt lat="45.8301579" lon="11.6339632"><ele>1197.0</ele><time>2026-05-01T12:14:43.605Z</time></trkpt><trkpt lat="45.8301418" lon="11.6338378"><ele>1197.0</ele><time>2026-05-01T12:14:44.622Z</time></trkpt><trkpt lat="45.8301433" lon="11.6337152"><ele>1197.6666666666667</ele><time>2026-05-01T12:14:45.59Z</time></trkpt><trkpt lat="45.8301451" lon="11.6336"><ele>1198.3333333333333</ele><time>2026-05-01T12:14:46.611Z</time></trkpt><trkpt lat="45.8301373" lon="11.6334992"><ele>1199.0</ele><time>2026-05-01T12:14:47.605Z</time></trkpt><trkpt lat="45.8301117" lon="11.6333978"><ele>1199.6666666666665</ele><time>2026-05-01T12:14:48.593Z</time></trkpt><trkpt lat="45.8300569" lon="11.6333092"><ele>1200.3333333333333</ele><time>2026-05-01T12:14:49.602Z</time></trkpt><trkpt lat="45.829998" lon="11.6332196"><ele>1201.0</ele><time>2026-05-01T12:14:50.604Z</time></trkpt><trkpt lat="45.8299183" lon="11.6331491"><ele>1197.8333333333333</ele><time>2026-05-01T12:14:51.599Z</time></trkpt><trkpt lat="45.8298327" lon="11.6330971"><ele>1194.6666666666665</ele><time>2026-05-01T12:14:52.6Z</time></trkpt><trkpt lat="45.8297575" lon="11.6330276"><ele>1191.5</ele><time>2026-05-01T12:14:53.594Z</time></trkpt><trkpt lat="45.8296954" lon="11.6329515"><ele>1188.3333333333333</ele><time>2026-05-01T12:14:54.603Z</time></trkpt><trkpt lat="45.8296363" lon="11.6328583"><ele>1185.1666666666667</ele><time>2026-05-01T12:14:55.602Z</time></trkpt><trkpt lat="45.8295882" lon="11.6327533"><ele>1182.0</ele><time>2026-05-01T12:14:56.592Z</time></trkpt><trkpt lat="45.8295529" lon="11.632641"><ele>1182.0</ele><time>2026-05-01T12:14:57.605Z</time></trkpt><trkpt lat="45.8295325" lon="11.6325267"><ele>1182.0</ele><time>2026-05-01T12:14:58.593Z</time></trkpt><trkpt lat="45.8295168" lon="11.6324031"><ele>1182.0</ele><time>2026-05-01T12:14:59.599Z</time></trkpt><trkpt lat="45.8295151" lon="11.6322887"><ele>1182.0</ele><time>2026-05-01T12:15:00.6Z</time></trkpt><trkpt lat="45.8295215" lon="11.6321776"><ele>1182.0</ele><time>2026-05-01T12:15:01.598Z</time></trkpt><trkpt lat="45.8295253" lon="11.6320756"><ele>1182.0</ele><time>2026-05-01T12:15:02.605Z</time></trkpt><trkpt lat="45.8294984" lon="11.631987"><ele>1182.8333333333333</ele><time>2026-05-01T12:15:03.6Z</time></trkpt><trkpt lat="45.8294164" lon="11.6318533"><ele>1183.6666666666667</ele><time>2026-05-01T12:15:05.601Z</time></trkpt><trkpt lat="45.8293478" lon="11.631814"><ele>1184.5</ele><time>2026-05-01T12:15:06.603Z</time></trkpt><trkpt lat="45.8292678" lon="11.631792"><ele>1185.3333333333335</ele><time>2026-05-01T12:15:07.603Z</time></trkpt><trkpt lat="45.8291825" lon="11.6317697"><ele>1186.1666666666667</ele><time>2026-05-01T12:15:08.599Z</time></trkpt><trkpt lat="45.8291035" lon="11.6317435"><ele>1187.0</ele><time>2026-05-01T12:15:09.6Z</time></trkpt><trkpt lat="45.8290446" lon="11.6316759"><ele>1181.2</ele><time>2026-05-01T12:15:10.603Z</time></trkpt><trkpt lat="45.8289896" lon="11.6315918"><ele>1175.4</ele><time>2026-05-01T12:15:11.603Z</time></trkpt><trkpt lat="45.8289344" lon="11.6314959"><ele>1169.6</ele><time>2026-05-01T12:15:12.593Z</time></trkpt><trkpt lat="45.8288816" lon="11.6313901"><ele>1163.8</ele><time>2026-05-01T12:15:13.599Z</time></trkpt><trkpt lat="45.8288252" lon="11.6312745"><ele>1158.0</ele><time>2026-05-01T12:15:14.602Z</time></trkpt><trkpt lat="45.8287566" lon="11.6311617"><ele>1160.8</ele><time>2026-05-01T12:15:15.598Z</time></trkpt><trkpt lat="45.8286716" lon="11.6310699"><ele>1163.6</ele><time>2026-05-01T12:15:16.601Z</time></trkpt><trkpt lat="45.8285882" lon="11.6309794"><ele>1166.4</ele><time>2026-05-01T12:15:17.602Z</time></trkpt><trkpt lat="45.8285129" lon="11.6308885"><ele>1169.2</ele><time>2026-05-01T12:15:18.588Z</time></trkpt><trkpt lat="45.8284411" lon="11.630776"><ele>1172.0</ele><time>2026-05-01T12:15:19.599Z</time></trkpt><trkpt lat="45.8283921" lon="11.6306496"><ele>1166.3333333333335</ele><time>2026-05-01T12:15:20.606Z</time></trkpt><trkpt lat="45.8283598" lon="11.6305146"><ele>1160.6666666666667</ele><time>2026-05-01T12:15:21.606Z</time></trkpt><trkpt lat="45.8283446" lon="11.6303958"><ele>1155.0</ele><time>2026-05-01T12:15:22.601Z</time></trkpt><trkpt lat="45.8283477" lon="11.6302888"><ele>1149.3333333333333</ele><time>2026-05-01T12:15:23.595Z</time></trkpt><trkpt lat="45.8283511" lon="11.6301756"><ele>1143.6666666666665</ele><time>2026-05-01T12:15:24.604Z</time></trkpt><trkpt lat="45.8283637" lon="11.6300644"><ele>1138.0</ele><time>2026-05-01T12:15:25.608Z</time></trkpt><trkpt lat="45.8283677" lon="11.6299531"><ele>1138.0000000000002</ele><time>2026-05-01T12:15:26.623Z</time></trkpt><trkpt lat="45.828364" lon="11.6298486"><ele>1138.0</ele><time>2026-05-01T12:15:27.599Z</time></trkpt><trkpt lat="45.8283546" lon="11.6297547"><ele>1138.0</ele><time>2026-05-01T12:15:28.6Z</time></trkpt><trkpt lat="45.8283372" lon="11.629662"><ele>1138.0</ele><time>2026-05-01T12:15:29.6Z</time></trkpt><trkpt lat="45.8283212" lon="11.6295706"><ele>1138.0</ele><time>2026-05-01T12:15:30.608Z</time></trkpt><trkpt lat="45.8283061" lon="11.629475"><ele>1138.0000000000002</ele><time>2026-05-01T12:15:31.606Z</time></trkpt><trkpt lat="45.8282959" lon="11.6293684"><ele>1138.0</ele><time>2026-05-01T12:15:32.586Z</time></trkpt><trkpt lat="45.8282867" lon="11.6292548"><ele>1138.3333333333333</ele><time>2026-05-01T12:15:33.599Z</time></trkpt><trkpt lat="45.828269" lon="11.6291432"><ele>1138.6666666666665</ele><time>2026-05-01T12:15:34.598Z</time></trkpt><trkpt lat="45.8282231" lon="11.6290398"><ele>1139.0</ele><time>2026-05-01T12:15:35.593Z</time></trkpt><trkpt lat="45.8281553" lon="11.6289559"><ele>1139.3333333333333</ele><time>2026-05-01T12:15:36.6Z</time></trkpt><trkpt lat="45.8280839" lon="11.6288845"><ele>1139.6666666666667</ele><time>2026-05-01T12:15:37.598Z</time></trkpt><trkpt lat="45.8280034" lon="11.6288167"><ele>1140.0</ele><time>2026-05-01T12:15:38.595Z</time></trkpt><trkpt lat="45.8279279" lon="11.6287627"><ele>1140.0</ele><time>2026-05-01T12:15:39.603Z</time></trkpt><trkpt lat="45.8278675" lon="11.6287137"><ele>1140.0</ele><time>2026-05-01T12:15:40.6Z</time></trkpt><trkpt lat="45.8277693" lon="11.6285919"><ele>1140.0</ele><time>2026-05-01T12:15:42.608Z</time></trkpt><trkpt lat="45.8277272" lon="11.6285069"><ele>1140.0</ele><time>2026-05-01T12:15:43.614Z</time></trkpt><trkpt lat="45.827709" lon="11.6283951"><ele>1140.0</ele><time>2026-05-01T12:15:44.606Z</time></trkpt><trkpt lat="45.8276998" lon="11.6282744"><ele>1140.0</ele><time>2026-05-01T12:15:45.599Z</time></trkpt><trkpt lat="45.8276912" lon="11.628146"><ele>1142.0</ele><time>2026-05-01T12:15:46.602Z</time></trkpt><trkpt lat="45.8276779" lon="11.628024"><ele>1144.0</ele><time>2026-05-01T12:15:47.603Z</time></trkpt><trkpt lat="45.8276629" lon="11.6279133"><ele>1146.0</ele><time>2026-05-01T12:15:48.607Z</time></trkpt><trkpt lat="45.8276251" lon="11.6278125"><ele>1148.0</ele><time>2026-05-01T12:15:49.592Z</time></trkpt><trkpt lat="45.8275721" lon="11.6277096"><ele>1150.0</ele><time>2026-05-01T12:15:50.605Z</time></trkpt><trkpt lat="45.8275096" lon="11.6276035"><ele>1152.0</ele><time>2026-05-01T12:15:51.602Z</time></trkpt><trkpt lat="45.827457" lon="11.6274887"><ele>1149.0</ele><time>2026-05-01T12:15:52.598Z</time></trkpt><trkpt lat="45.8274107" lon="11.6273658"><ele>1146.0</ele><time>2026-05-01T12:15:53.6Z</time></trkpt><trkpt lat="45.8273738" lon="11.6272322"><ele>1143.0</ele><time>2026-05-01T12:15:54.591Z</time></trkpt><trkpt lat="45.827342" lon="11.6271091"><ele>1140.0</ele><time>2026-05-01T12:15:55.606Z</time></trkpt><trkpt lat="45.8273109" lon="11.6269971"><ele>1137.0</ele><time>2026-05-01T12:15:56.587Z</time></trkpt><trkpt lat="45.8272828" lon="11.6268872"><ele>1137.0</ele><time>2026-05-01T12:15:57.596Z</time></trkpt><trkpt lat="45.8272325" lon="11.6267851"><ele>1137.0</ele><time>2026-05-01T12:15:58.593Z</time></trkpt><trkpt lat="45.8271554" lon="11.6266849"><ele>1137.0</ele><time>2026-05-01T12:15:59.607Z</time></trkpt><trkpt lat="45.8270805" lon="11.6265842"><ele>1137.0</ele><time>2026-05-01T12:16:00.605Z</time></trkpt><trkpt lat="45.8269957" lon="11.6264939"><ele>1137.0</ele><time>2026-05-01T12:16:01.615Z</time></trkpt><trkpt lat="45.8269121" lon="11.6263901"><ele>1137.0</ele><time>2026-05-01T12:16:02.6Z</time></trkpt><trkpt lat="45.8268323" lon="11.626279"><ele>1137.0</ele><time>2026-05-01T12:16:03.591Z</time></trkpt><trkpt lat="45.826754" lon="11.6261675"><ele>1137.0</ele><time>2026-05-01T12:16:04.608Z</time></trkpt><trkpt lat="45.8266737" lon="11.6260509"><ele>1137.0</ele><time>2026-05-01T12:16:05.599Z</time></trkpt><trkpt lat="45.8265858" lon="11.6259405"><ele>1132.4</ele><time>2026-05-01T12:16:06.587Z</time></trkpt><trkpt lat="45.8264979" lon="11.6258342"><ele>1127.8000000000002</ele><time>2026-05-01T12:16:07.583Z</time></trkpt><trkpt lat="45.8264167" lon="11.6257377"><ele>1123.2</ele><time>2026-05-01T12:16:08.589Z</time></trkpt><trkpt lat="45.8263395" lon="11.6256425"><ele>1118.6000000000001</ele><time>2026-05-01T12:16:09.585Z</time></trkpt><trkpt lat="45.8262697" lon="11.6255424"><ele>1114.0</ele><time>2026-05-01T12:16:10.603Z</time></trkpt><trkpt lat="45.8262089" lon="11.6254333"><ele>1114.0</ele><time>2026-05-01T12:16:11.594Z</time></trkpt><trkpt lat="45.826155" lon="11.6253161"><ele>1114.0</ele><time>2026-05-01T12:16:12.594Z</time></trkpt><trkpt lat="45.8261034" lon="11.6252026"><ele>1114.0</ele><time>2026-05-01T12:16:13.597Z</time></trkpt><trkpt lat="45.8260666" lon="11.6250726"><ele>1114.0</ele><time>2026-05-01T12:16:14.594Z</time></trkpt><trkpt lat="45.8260319" lon="11.6249584"><ele>1114.0</ele><time>2026-05-01T12:16:15.612Z</time></trkpt><trkpt lat="45.8259945" lon="11.6248536"><ele>1111.4</ele><time>2026-05-01T12:16:16.6Z</time></trkpt><trkpt lat="45.8259562" lon="11.6247531"><ele>1108.8000000000002</ele><time>2026-05-01T12:16:17.583Z</time></trkpt><trkpt lat="45.8258879" lon="11.6246648"><ele>1106.1999999999998</ele><time>2026-05-01T12:16:18.597Z</time></trkpt><trkpt lat="45.8258088" lon="11.6245918"><ele>1103.6</ele><time>2026-05-01T12:16:19.599Z</time></trkpt><trkpt lat="45.8257216" lon="11.6245232"><ele>1101.0</ele><time>2026-05-01T12:16:20.598Z</time></trkpt><trkpt lat="45.8256288" lon="11.6244541"><ele>1101.0</ele><time>2026-05-01T12:16:21.603Z</time></trkpt><trkpt lat="45.8255343" lon="11.6243841"><ele>1101.0</ele><time>2026-05-01T12:16:22.588Z</time></trkpt><trkpt lat="45.8254364" lon="11.624311"><ele>1101.0</ele><time>2026-05-01T12:16:23.597Z</time></trkpt><trkpt lat="45.8253499" lon="11.624224"><ele>1101.0</ele><time>2026-05-01T12:16:24.595Z</time></trkpt><trkpt lat="45.8252705" lon="11.6241195"><ele>1101.0</ele><time>2026-05-01T12:16:25.595Z</time></trkpt><trkpt lat="45.8251884" lon="11.6240115"><ele>1099.2</ele><time>2026-05-01T12:16:26.604Z</time></trkpt><trkpt lat="45.8251064" lon="11.6239047"><ele>1097.3999999999999</ele><time>2026-05-01T12:16:27.597Z</time></trkpt><trkpt lat="45.8250201" lon="11.6238047"><ele>1095.6</ele><time>2026-05-01T12:16:28.604Z</time></trkpt><trkpt lat="45.8249336" lon="11.6237067"><ele>1093.8</ele><time>2026-05-01T12:16:29.592Z</time></trkpt><trkpt lat="45.8248393" lon="11.6236254"><ele>1092.0</ele><time>2026-05-01T12:16:30.595Z</time></trkpt><trkpt lat="45.8247448" lon="11.6235526"><ele>1092.0</ele><time>2026-05-01T12:16:31.61Z</time></trkpt><trkpt lat="45.8246561" lon="11.6234897"><ele>1092.0</ele><time>2026-05-01T12:16:32.606Z</time></trkpt><trkpt lat="45.8245731" lon="11.6234362"><ele>1092.0</ele><time>2026-05-01T12:16:33.609Z</time></trkpt><trkpt lat="45.8244914" lon="11.6233822"><ele>1092.0</ele><time>2026-05-01T12:16:34.608Z</time></trkpt><trkpt lat="45.8244062" lon="11.6233255"><ele>1092.0</ele><time>2026-05-01T12:16:35.592Z</time></trkpt><trkpt lat="45.824318" lon="11.6232658"><ele>1089.5</ele><time>2026-05-01T12:16:36.601Z</time></trkpt><trkpt lat="45.8242361" lon="11.6231688"><ele>1087.0</ele><time>2026-05-01T12:16:37.597Z</time></trkpt><trkpt lat="45.8241707" lon="11.6230397"><ele>1084.5</ele><time>2026-05-01T12:16:38.601Z</time></trkpt><trkpt lat="45.8241067" lon="11.6228858"><ele>1082.0</ele><time>2026-05-01T12:16:39.595Z</time></trkpt><trkpt lat="45.824045" lon="11.6227346"><ele>1082.0</ele><time>2026-05-01T12:16:40.6Z</time></trkpt><trkpt lat="45.8240003" lon="11.6225702"><ele>1082.0</ele><time>2026-05-01T12:16:41.598Z</time></trkpt><trkpt lat="45.8239537" lon="11.6224043"><ele>1082.0</ele><time>2026-05-01T12:16:42.598Z</time></trkpt><trkpt lat="45.8239144" lon="11.6222278"><ele>1082.0</ele><time>2026-05-01T12:16:43.597Z</time></trkpt><trkpt lat="45.8238846" lon="11.6220433"><ele>1082.5</ele><time>2026-05-01T12:16:44.6Z</time></trkpt><trkpt lat="45.8238564" lon="11.6218666"><ele>1083.0</ele><time>2026-05-01T12:16:45.603Z</time></trkpt><trkpt lat="45.8238269" lon="11.621691"><ele>1083.5</ele><time>2026-05-01T12:16:46.594Z</time></trkpt><trkpt lat="45.8237987" lon="11.6215107"><ele>1084.0</ele><time>2026-05-01T12:16:47.646Z</time></trkpt><trkpt lat="45.8237332" lon="11.6211613"><ele>1083.5</ele><time>2026-05-01T12:16:49.621Z</time></trkpt><trkpt lat="45.823614" lon="11.6206529"><ele>1083.0</ele><time>2026-05-01T12:16:52.603Z</time></trkpt><trkpt lat="45.8234657" lon="11.6201584"><ele>1081.0</ele><time>2026-05-01T12:16:55.609Z</time></trkpt><trkpt lat="45.8232326" lon="11.61977"><ele>1079.0</ele><time>2026-05-01T12:16:58.647Z</time></trkpt><trkpt lat="45.8228569" lon="11.6195562"><ele>1077.5</ele><time>2026-05-01T12:17:01.607Z</time></trkpt><trkpt lat="45.8227218" lon="11.6194752"><ele>1076.0</ele><time>2026-05-01T12:17:02.604Z</time></trkpt><trkpt lat="45.822589" lon="11.6193741"><ele>1074.5</ele><time>2026-05-01T12:17:03.6Z</time></trkpt><trkpt lat="45.8224651" lon="11.6192559"><ele>1073.0</ele><time>2026-05-01T12:17:04.602Z</time></trkpt><trkpt lat="45.8223534" lon="11.6191374"><ele>1072.75</ele><time>2026-05-01T12:17:05.605Z</time></trkpt><trkpt lat="45.8222497" lon="11.6190248"><ele>1072.5</ele><time>2026-05-01T12:17:06.594Z</time></trkpt><trkpt lat="45.8221502" lon="11.6189217"><ele>1072.25</ele><time>2026-05-01T12:17:07.581Z</time></trkpt><trkpt lat="45.8220566" lon="11.6188251"><ele>1072.0</ele><time>2026-05-01T12:17:08.595Z</time></trkpt><trkpt lat="45.8219599" lon="11.618725"><ele>1071.2</ele><time>2026-05-01T12:17:09.615Z</time></trkpt><trkpt lat="45.821862" lon="11.6186232"><ele>1070.4</ele><time>2026-05-01T12:17:10.602Z</time></trkpt><trkpt lat="45.8217722" lon="11.6185271"><ele>1069.6</ele><time>2026-05-01T12:17:11.614Z</time></trkpt><trkpt lat="45.8216973" lon="11.6184431"><ele>1068.8</ele><time>2026-05-01T12:17:12.609Z</time></trkpt><trkpt lat="45.8216416" lon="11.6183731"><ele>1068.0</ele><time>2026-05-01T12:17:13.61Z</time></trkpt><trkpt lat="45.821586" lon="11.6182689"><ele>1068.0</ele><time>2026-05-01T12:17:15.6Z</time></trkpt><trkpt lat="45.8215721" lon="11.6181776"><ele>1068.0</ele><time>2026-05-01T12:20:04.616Z</time></trkpt><trkpt lat="45.8215628" lon="11.6180584"><ele>1068.0</ele><time>2026-05-01T12:20:06.596Z</time></trkpt><trkpt lat="45.8215931" lon="11.6178697"><ele>1068.0</ele><time>2026-05-01T12:20:08.616Z</time></trkpt><trkpt lat="45.8216137" lon="11.6177367"><ele>1068.0</ele><time>2026-05-01T12:20:09.603Z</time></trkpt><trkpt lat="45.8216451" lon="11.6175861"><ele>1067.75</ele><time>2026-05-01T12:20:10.61Z</time></trkpt><trkpt lat="45.8216873" lon="11.617422"><ele>1067.5</ele><time>2026-05-01T12:20:11.6Z</time></trkpt><trkpt lat="45.8217328" lon="11.6172399"><ele>1067.25</ele><time>2026-05-01T12:20:12.609Z</time></trkpt><trkpt lat="45.8217725" lon="11.6170353"><ele>1067.0</ele><time>2026-05-01T12:20:13.599Z</time></trkpt><trkpt lat="45.821804" lon="11.6168123"><ele>1067.0</ele><time>2026-05-01T12:20:14.614Z</time></trkpt><trkpt lat="45.8218295" lon="11.6165722"><ele>1067.0</ele><time>2026-05-01T12:20:15.617Z</time></trkpt><trkpt lat="45.8218507" lon="11.6163199"><ele>1067.0</ele><time>2026-05-01T12:20:16.614Z</time></trkpt><trkpt lat="45.8218675" lon="11.6160597"><ele>1067.0</ele><time>2026-05-01T12:20:17.633Z</time></trkpt><trkpt lat="45.8218803" lon="11.6157962"><ele>1067.0</ele><time>2026-05-01T12:20:18.611Z</time></trkpt><trkpt lat="45.8218901" lon="11.6155319"><ele>1067.0</ele><time>2026-05-01T12:20:19.615Z</time></trkpt><trkpt lat="45.8218974" lon="11.61527"><ele>1066.3333333333335</ele><time>2026-05-01T12:20:20.611Z</time></trkpt><trkpt lat="45.8219041" lon="11.6150109"><ele>1065.6666666666667</ele><time>2026-05-01T12:20:21.617Z</time></trkpt><trkpt lat="45.821909" lon="11.6147507"><ele>1065.0</ele><time>2026-05-01T12:20:22.611Z</time></trkpt><trkpt lat="45.8219139" lon="11.6144909"><ele>1064.6666666666667</ele><time>2026-05-01T12:20:23.612Z</time></trkpt><trkpt lat="45.8219221" lon="11.6142351"><ele>1064.3333333333335</ele><time>2026-05-01T12:20:24.616Z</time></trkpt><trkpt lat="45.821936" lon="11.6139803"><ele>1064.0</ele><time>2026-05-01T12:20:25.613Z</time></trkpt><trkpt lat="45.8219555" lon="11.6137269"><ele>1063.0</ele><time>2026-05-01T12:20:26.609Z</time></trkpt><trkpt lat="45.8219763" lon="11.6134976"><ele>1062.0</ele><time>2026-05-01T12:20:27.605Z</time></trkpt><trkpt lat="45.8219946" lon="11.6133014"><ele>1061.0</ele><time>2026-05-01T12:20:28.611Z</time></trkpt><trkpt lat="45.8220073" lon="11.6131181"><ele>1060.0</ele><time>2026-05-01T12:20:29.615Z</time></trkpt><trkpt lat="45.8220193" lon="11.6129331"><ele>1060.0</ele><time>2026-05-01T12:20:30.609Z</time></trkpt><trkpt lat="45.8220029" lon="11.6127357"><ele>1060.0</ele><time>2026-05-01T12:20:31.613Z</time></trkpt><trkpt lat="45.8219753" lon="11.6125268"><ele>1060.0</ele><time>2026-05-01T12:20:32.6Z</time></trkpt><trkpt lat="45.8219428" lon="11.6123058"><ele>1060.0</ele><time>2026-05-01T12:20:33.603Z</time></trkpt><trkpt lat="45.8219048" lon="11.6120662"><ele>1060.0</ele><time>2026-05-01T12:20:34.612Z</time></trkpt><trkpt lat="45.8218687" lon="11.6118324"><ele>1060.0</ele><time>2026-05-01T12:20:35.614Z</time></trkpt><trkpt lat="45.8218335" lon="11.6116078"><ele>1060.0</ele><time>2026-05-01T12:20:36.606Z</time></trkpt><trkpt lat="45.8217999" lon="11.6113897"><ele>1059.5</ele><time>2026-05-01T12:20:37.608Z</time></trkpt><trkpt lat="45.8217667" lon="11.6111794"><ele>1059.0</ele><time>2026-05-01T12:20:38.606Z</time></trkpt><trkpt lat="45.8217377" lon="11.6109737"><ele>1058.5</ele><time>2026-05-01T12:20:39.616Z</time></trkpt><trkpt lat="45.8217074" lon="11.6107663"><ele>1058.0</ele><time>2026-05-01T12:20:40.61Z</time></trkpt><trkpt lat="45.8216764" lon="11.6105506"><ele>1058.0</ele><time>2026-05-01T12:20:41.628Z</time></trkpt><trkpt lat="45.8216337" lon="11.6103334"><ele>1058.0</ele><time>2026-05-01T12:20:42.596Z</time></trkpt><trkpt lat="45.8215756" lon="11.6101176"><ele>1058.0</ele><time>2026-05-01T12:20:43.612Z</time></trkpt><trkpt lat="45.8215048" lon="11.609909"><ele>1057.5</ele><time>2026-05-01T12:20:44.613Z</time></trkpt><trkpt lat="45.8214318" lon="11.6097222"><ele>1057.0</ele><time>2026-05-01T12:20:45.635Z</time></trkpt><trkpt lat="45.8213695" lon="11.6095613"><ele>1056.5</ele><time>2026-05-01T12:20:46.616Z</time></trkpt><trkpt lat="45.8213244" lon="11.6094277"><ele>1056.0</ele><time>2026-05-01T12:20:47.599Z</time></trkpt><trkpt lat="45.8212953" lon="11.609326"><ele>1055.6</ele><time>2026-05-01T12:20:48.624Z</time></trkpt><trkpt lat="45.8212314" lon="11.609212"><ele>1055.1999999999998</ele><time>2026-05-01T12:20:52.603Z</time></trkpt><trkpt lat="45.8211623" lon="11.6091893"><ele>1054.8000000000002</ele><time>2026-05-01T12:20:53.608Z</time></trkpt><trkpt lat="45.8210787" lon="11.6091824"><ele>1054.4</ele><time>2026-05-01T12:20:54.601Z</time></trkpt><trkpt lat="45.8209736" lon="11.6091815"><ele>1054.0</ele><time>2026-05-01T12:20:55.602Z</time></trkpt><trkpt lat="45.8208297" lon="11.6092142"><ele>1053.6666666666665</ele><time>2026-05-01T12:20:56.614Z</time></trkpt><trkpt lat="45.8206673" lon="11.60924"><ele>1053.3333333333333</ele><time>2026-05-01T12:20:57.606Z</time></trkpt><trkpt lat="45.8204892" lon="11.609276"><ele>1053.0</ele><time>2026-05-01T12:20:58.611Z</time></trkpt><trkpt lat="45.8203018" lon="11.6093125"><ele>1051.6666666666667</ele><time>2026-05-01T12:20:59.616Z</time></trkpt><trkpt lat="45.8200999" lon="11.6093525"><ele>1050.3333333333335</ele><time>2026-05-01T12:21:00.612Z</time></trkpt><trkpt lat="45.8198886" lon="11.6093984"><ele>1049.0</ele><time>2026-05-01T12:21:01.616Z</time></trkpt><trkpt lat="45.8196739" lon="11.6094405"><ele>1049.0</ele><time>2026-05-01T12:21:02.612Z</time></trkpt><trkpt lat="45.8194603" lon="11.6094836"><ele>1049.0</ele><time>2026-05-01T12:21:03.616Z</time></trkpt><trkpt lat="45.8192488" lon="11.6095236"><ele>1049.0</ele><time>2026-05-01T12:21:04.614Z</time></trkpt><trkpt lat="45.819039" lon="11.6095558"><ele>1049.6666666666667</ele><time>2026-05-01T12:21:05.629Z</time></trkpt><trkpt lat="45.8188331" lon="11.6095826"><ele>1050.3333333333333</ele><time>2026-05-01T12:21:06.612Z</time></trkpt><trkpt lat="45.8186315" lon="11.6095967"><ele>1051.0</ele><time>2026-05-01T12:21:07.605Z</time></trkpt><trkpt lat="45.8184292" lon="11.6095993"><ele>1051.0</ele><time>2026-05-01T12:21:08.608Z</time></trkpt><trkpt lat="45.81823" lon="11.6095917"><ele>1051.0</ele><time>2026-05-01T12:21:09.613Z</time></trkpt><trkpt lat="45.8180281" lon="11.609579"><ele>1051.0</ele><time>2026-05-01T12:21:10.621Z</time></trkpt><trkpt lat="45.8178271" lon="11.6095653"><ele>1051.0</ele><time>2026-05-01T12:21:11.61Z</time></trkpt><trkpt lat="45.8176261" lon="11.6095521"><ele>1051.0</ele><time>2026-05-01T12:21:12.603Z</time></trkpt><trkpt lat="45.8174252" lon="11.60954"><ele>1051.0</ele><time>2026-05-01T12:21:13.599Z</time></trkpt><trkpt lat="45.8172263" lon="11.6095267"><ele>1051.0</ele><time>2026-05-01T12:21:14.601Z</time></trkpt><trkpt lat="45.8170281" lon="11.6095092"><ele>1051.0</ele><time>2026-05-01T12:21:15.595Z</time></trkpt><trkpt lat="45.8168326" lon="11.6094879"><ele>1051.0</ele><time>2026-05-01T12:21:16.599Z</time></trkpt><trkpt lat="45.81664" lon="11.6094628"><ele>1050.0</ele><time>2026-05-01T12:21:17.599Z</time></trkpt><trkpt lat="45.8164525" lon="11.6094373"><ele>1049.0</ele><time>2026-05-01T12:21:18.605Z</time></trkpt><trkpt lat="45.8162738" lon="11.6094091"><ele>1048.0</ele><time>2026-05-01T12:21:19.607Z</time></trkpt><trkpt lat="45.8161168" lon="11.6093867"><ele>1046.0</ele><time>2026-05-01T12:21:20.613Z</time></trkpt><trkpt lat="45.8159652" lon="11.6093718"><ele>1044.0</ele><time>2026-05-01T12:21:21.609Z</time></trkpt><trkpt lat="45.8158294" lon="11.6093671"><ele>1042.0</ele><time>2026-05-01T12:21:22.604Z</time></trkpt><trkpt lat="45.8157023" lon="11.6094035"><ele>1040.0</ele><time>2026-05-01T12:21:23.604Z</time></trkpt><trkpt lat="45.8155944" lon="11.6094764"><ele>1042.25</ele><time>2026-05-01T12:21:24.601Z</time></trkpt><trkpt lat="45.8154988" lon="11.6095789"><ele>1044.5</ele><time>2026-05-01T12:21:25.598Z</time></trkpt><trkpt lat="45.8154252" lon="11.6097064"><ele>1046.75</ele><time>2026-05-01T12:21:26.603Z</time></trkpt><trkpt lat="45.8153755" lon="11.6098597"><ele>1049.0</ele><time>2026-05-01T12:21:27.605Z</time></trkpt><trkpt lat="45.8153462" lon="11.6100239"><ele>1049.0</ele><time>2026-05-01T12:21:28.611Z</time></trkpt><trkpt lat="45.8153224" lon="11.610196"><ele>1049.0</ele><time>2026-05-01T12:21:29.601Z</time></trkpt><trkpt lat="45.8152949" lon="11.6103699"><ele>1049.0</ele><time>2026-05-01T12:21:30.615Z</time></trkpt><trkpt lat="45.8152609" lon="11.6105451"><ele>1049.0</ele><time>2026-05-01T12:21:31.619Z</time></trkpt><trkpt lat="45.815222" lon="11.6107332"><ele>1050.5</ele><time>2026-05-01T12:21:32.613Z</time></trkpt><trkpt lat="45.8151736" lon="11.6109285"><ele>1052.0</ele><time>2026-05-01T12:21:33.612Z</time></trkpt><trkpt lat="45.815115" lon="11.6111084"><ele>1053.5</ele><time>2026-05-01T12:21:34.608Z</time></trkpt><trkpt lat="45.8150471" lon="11.6112818"><ele>1055.0</ele><time>2026-05-01T12:21:35.61Z</time></trkpt><trkpt lat="45.8149735" lon="11.6114575"><ele>1049.75</ele><time>2026-05-01T12:21:36.602Z</time></trkpt><trkpt lat="45.814901" lon="11.6116388"><ele>1044.5</ele><time>2026-05-01T12:21:37.622Z</time></trkpt><trkpt lat="45.8148266" lon="11.6118254"><ele>1039.25</ele><time>2026-05-01T12:21:38.619Z</time></trkpt><trkpt lat="45.814751" lon="11.6120164"><ele>1034.0</ele><time>2026-05-01T12:21:39.619Z</time></trkpt><trkpt lat="45.8146824" lon="11.6122249"><ele>1034.0</ele><time>2026-05-01T12:21:40.616Z</time></trkpt><trkpt lat="45.8146204" lon="11.6124684"><ele>1034.0</ele><time>2026-05-01T12:21:41.61Z</time></trkpt><trkpt lat="45.8145554" lon="11.6127386"><ele>1034.0</ele><time>2026-05-01T12:21:42.609Z</time></trkpt><trkpt lat="45.8144833" lon="11.6130148"><ele>1036.0</ele><time>2026-05-01T12:21:43.611Z</time></trkpt><trkpt lat="45.814402" lon="11.6132928"><ele>1038.0</ele><time>2026-05-01T12:21:44.601Z</time></trkpt><trkpt lat="45.8143121" lon="11.6135731"><ele>1040.0</ele><time>2026-05-01T12:21:45.606Z</time></trkpt><trkpt lat="45.8142147" lon="11.6138554"><ele>1034.6666666666667</ele><time>2026-05-01T12:21:46.613Z</time></trkpt><trkpt lat="45.8141154" lon="11.6141365"><ele>1029.3333333333333</ele><time>2026-05-01T12:21:47.603Z</time></trkpt><trkpt lat="45.8140157" lon="11.6144157"><ele>1024.0</ele><time>2026-05-01T12:21:48.61Z</time></trkpt><trkpt lat="45.8139168" lon="11.6146922"><ele>1024.0</ele><time>2026-05-01T12:21:49.612Z</time></trkpt><trkpt lat="45.8138185" lon="11.6149649"><ele>1024.0</ele><time>2026-05-01T12:21:50.612Z</time></trkpt><trkpt lat="45.8137227" lon="11.6152365"><ele>1024.0</ele><time>2026-05-01T12:21:51.611Z</time></trkpt><trkpt lat="45.8136277" lon="11.6155053"><ele>1025.3333333333333</ele><time>2026-05-01T12:21:52.61Z</time></trkpt><trkpt lat="45.8135366" lon="11.6157707"><ele>1026.6666666666667</ele><time>2026-05-01T12:21:53.613Z</time></trkpt><trkpt lat="45.8134482" lon="11.6160269"><ele>1028.0</ele><time>2026-05-01T12:21:54.613Z</time></trkpt><trkpt lat="45.813363" lon="11.6162716"><ele>1022.3333333333334</ele><time>2026-05-01T12:21:55.608Z</time></trkpt><trkpt lat="45.813281" lon="11.6165062"><ele>1016.6666666666667</ele><time>2026-05-01T12:21:56.603Z</time></trkpt><trkpt lat="45.8132048" lon="11.6167284"><ele>1011.0</ele><time>2026-05-01T12:21:57.608Z</time></trkpt><trkpt lat="45.8131337" lon="11.6169391"><ele>1011.75</ele><time>2026-05-01T12:21:58.611Z</time></trkpt><trkpt lat="45.813067" lon="11.6171374"><ele>1012.5</ele><time>2026-05-01T12:21:59.61Z</time></trkpt><trkpt lat="45.812999" lon="11.6173261"><ele>1013.25</ele><time>2026-05-01T12:22:00.609Z</time></trkpt><trkpt lat="45.8129361" lon="11.6175071"><ele>1014.0</ele><time>2026-05-01T12:22:01.617Z</time></trkpt><trkpt lat="45.8128785" lon="11.6176827"><ele>1015.0</ele><time>2026-05-01T12:22:02.615Z</time></trkpt><trkpt lat="45.8128238" lon="11.6178512"><ele>1016.0</ele><time>2026-05-01T12:22:03.611Z</time></trkpt><trkpt lat="45.8127713" lon="11.6180121"><ele>1017.0</ele><time>2026-05-01T12:22:04.613Z</time></trkpt><trkpt lat="45.8127198" lon="11.6181673"><ele>1018.0</ele><time>2026-05-01T12:22:05.602Z</time></trkpt><trkpt lat="45.812665" lon="11.6183185"><ele>1014.25</ele><time>2026-05-01T12:22:06.607Z</time></trkpt><trkpt lat="45.8126013" lon="11.6184599"><ele>1010.5</ele><time>2026-05-01T12:22:07.598Z</time></trkpt><trkpt lat="45.8125211" lon="11.6185878"><ele>1006.75</ele><time>2026-05-01T12:22:08.611Z</time></trkpt><trkpt lat="45.8124236" lon="11.6187022"><ele>1003.0</ele><time>2026-05-01T12:22:09.615Z</time></trkpt><trkpt lat="45.812307" lon="11.6188099"><ele>1003.0</ele><time>2026-05-01T12:22:10.606Z</time></trkpt><trkpt lat="45.8121714" lon="11.6189138"><ele>1003.0</ele><time>2026-05-01T12:22:11.607Z</time></trkpt><trkpt lat="45.8120187" lon="11.6190145"><ele>1003.0</ele><time>2026-05-01T12:22:12.61Z</time></trkpt><trkpt lat="45.8118528" lon="11.6191082"><ele>998.3333333333333</ele><time>2026-05-01T12:22:13.621Z</time></trkpt><trkpt lat="45.8116969" lon="11.6191857"><ele>993.6666666666667</ele><time>2026-05-01T12:22:14.608Z</time></trkpt><trkpt lat="45.8115558" lon="11.6192587"><ele>989.0</ele><time>2026-05-01T12:22:15.607Z</time></trkpt><trkpt lat="45.8114226" lon="11.6193317"><ele>989.0</ele><time>2026-05-01T12:22:16.611Z</time></trkpt><trkpt lat="45.8112969" lon="11.6193998"><ele>989.0</ele><time>2026-05-01T12:22:17.611Z</time></trkpt><trkpt lat="45.8111744" lon="11.6194582"><ele>989.0</ele><time>2026-05-01T12:22:18.608Z</time></trkpt><trkpt lat="45.8110479" lon="11.6195071"><ele>989.0</ele><time>2026-05-01T12:22:19.605Z</time></trkpt><trkpt lat="45.810915" lon="11.6195382"><ele>992.25</ele><time>2026-05-01T12:22:20.619Z</time></trkpt><trkpt lat="45.8107828" lon="11.6195505"><ele>995.5</ele><time>2026-05-01T12:22:21.611Z</time></trkpt><trkpt lat="45.8106507" lon="11.6195501"><ele>998.75</ele><time>2026-05-01T12:22:22.614Z</time></trkpt><trkpt lat="45.8105184" lon="11.6195411"><ele>1002.0</ele><time>2026-05-01T12:22:23.608Z</time></trkpt><trkpt lat="45.8103848" lon="11.6195308"><ele>1002.0</ele><time>2026-05-01T12:22:24.615Z</time></trkpt><trkpt lat="45.8102559" lon="11.6195203"><ele>1002.0</ele><time>2026-05-01T12:22:25.615Z</time></trkpt><trkpt lat="45.8101361" lon="11.6195097"><ele>1002.0</ele><time>2026-05-01T12:22:26.606Z</time></trkpt><trkpt lat="45.8100262" lon="11.6194989"><ele>1002.0</ele><time>2026-05-01T12:22:27.603Z</time></trkpt><trkpt lat="45.8099234" lon="11.6194877"><ele>996.6</ele><time>2026-05-01T12:22:28.62Z</time></trkpt><trkpt lat="45.8098245" lon="11.6194772"><ele>991.2</ele><time>2026-05-01T12:22:29.613Z</time></trkpt><trkpt lat="45.8097246" lon="11.619468"><ele>985.8</ele><time>2026-05-01T12:22:30.613Z</time></trkpt><trkpt lat="45.8096251" lon="11.6194592"><ele>980.4</ele><time>2026-05-01T12:22:31.621Z</time></trkpt><trkpt lat="45.8095305" lon="11.6194505"><ele>975.0</ele><time>2026-05-01T12:22:32.611Z</time></trkpt><trkpt lat="45.8094355" lon="11.6194437"><ele>975.0</ele><time>2026-05-01T12:22:33.616Z</time></trkpt><trkpt lat="45.8093407" lon="11.6194395"><ele>975.0</ele><time>2026-05-01T12:22:34.605Z</time></trkpt><trkpt lat="45.8092485" lon="11.6194501"><ele>975.0</ele><time>2026-05-01T12:22:35.612Z</time></trkpt><trkpt lat="45.8091552" lon="11.6194999"><ele>975.0</ele><time>2026-05-01T12:22:36.619Z</time></trkpt><trkpt lat="45.8090553" lon="11.6196014"><ele>975.0</ele><time>2026-05-01T12:22:37.608Z</time></trkpt><trkpt lat="45.8089436" lon="11.6197267"><ele>975.75</ele><time>2026-05-01T12:22:38.601Z</time></trkpt><trkpt lat="45.808823" lon="11.6198374"><ele>976.5</ele><time>2026-05-01T12:22:39.608Z</time></trkpt><trkpt lat="45.808691" lon="11.6199114"><ele>977.25</ele><time>2026-05-01T12:22:40.609Z</time></trkpt><trkpt lat="45.8085626" lon="11.6199661"><ele>978.0</ele><time>2026-05-01T12:22:41.605Z</time></trkpt><trkpt lat="45.8084185" lon="11.619915"><ele>978.0</ele><time>2026-05-01T12:22:42.603Z</time></trkpt><trkpt lat="45.808268" lon="11.6198449"><ele>978.0</ele><time>2026-05-01T12:22:43.609Z</time></trkpt><trkpt lat="45.8081075" lon="11.6197468"><ele>978.0</ele><time>2026-05-01T12:22:44.605Z</time></trkpt><trkpt lat="45.8079384" lon="11.6196807"><ele>978.0</ele><time>2026-05-01T12:22:45.595Z</time></trkpt><trkpt lat="45.8077657" lon="11.6196345"><ele>978.0</ele><time>2026-05-01T12:22:46.617Z</time></trkpt><trkpt lat="45.8075936" lon="11.6195816"><ele>978.0</ele><time>2026-05-01T12:22:47.603Z</time></trkpt><trkpt lat="45.8074289" lon="11.6195187"><ele>972.3333333333333</ele><time>2026-05-01T12:22:48.624Z</time></trkpt><trkpt lat="45.8072722" lon="11.6194448"><ele>966.6666666666666</ele><time>2026-05-01T12:22:49.602Z</time></trkpt><trkpt lat="45.8071245" lon="11.6193618"><ele>961.0</ele><time>2026-05-01T12:22:50.618Z</time></trkpt><trkpt lat="45.806978" lon="11.6193119"><ele>961.3333333333333</ele><time>2026-05-01T12:22:51.614Z</time></trkpt><trkpt lat="45.8068255" lon="11.6193081"><ele>961.6666666666667</ele><time>2026-05-01T12:22:52.605Z</time></trkpt><trkpt lat="45.8066774" lon="11.6193642"><ele>962.0</ele><time>2026-05-01T12:22:53.607Z</time></trkpt><trkpt lat="45.8065438" lon="11.6194631"><ele>963.6666666666667</ele><time>2026-05-01T12:22:54.605Z</time></trkpt><trkpt lat="45.8064382" lon="11.6196131"><ele>965.3333333333333</ele><time>2026-05-01T12:22:55.598Z</time></trkpt><trkpt lat="45.8063625" lon="11.6198052"><ele>967.0</ele><time>2026-05-01T12:22:56.608Z</time></trkpt><trkpt lat="45.8063316" lon="11.6200224"><ele>967.0</ele><time>2026-05-01T12:22:57.614Z</time></trkpt><trkpt lat="45.8063515" lon="11.6202437"><ele>967.0</ele><time>2026-05-01T12:22:58.61Z</time></trkpt><trkpt lat="45.8064069" lon="11.6204635"><ele>967.0</ele><time>2026-05-01T12:22:59.603Z</time></trkpt><trkpt lat="45.8064654" lon="11.620661"><ele>966.25</ele><time>2026-05-01T12:23:00.604Z</time></trkpt><trkpt lat="45.8065016" lon="11.6208387"><ele>965.5</ele><time>2026-05-01T12:23:01.613Z</time></trkpt><trkpt lat="45.806534" lon="11.6210114"><ele>964.75</ele><time>2026-05-01T12:23:02.608Z</time></trkpt><trkpt lat="45.8064755" lon="11.6211703"><ele>964.0</ele><time>2026-05-01T12:23:03.609Z</time></trkpt><trkpt lat="45.8064024" lon="11.6213325"><ele>964.3333333333333</ele><time>2026-05-01T12:23:04.6Z</time></trkpt><trkpt lat="45.8062752" lon="11.6213995"><ele>964.6666666666667</ele><time>2026-05-01T12:23:05.599Z</time></trkpt><trkpt lat="45.8061168" lon="11.6213933"><ele>965.0</ele><time>2026-05-01T12:23:06.601Z</time></trkpt><trkpt lat="45.8059394" lon="11.6213852"><ele>965.0</ele><time>2026-05-01T12:23:07.604Z</time></trkpt><trkpt lat="45.8057528" lon="11.6213905"><ele>965.0</ele><time>2026-05-01T12:23:08.611Z</time></trkpt><trkpt lat="45.8055872" lon="11.6213939"><ele>965.0</ele><time>2026-05-01T12:23:09.607Z</time></trkpt><trkpt lat="45.805445" lon="11.6213995"><ele>965.0</ele><time>2026-05-01T12:23:10.61Z</time></trkpt><trkpt lat="45.805323" lon="11.6214388"><ele>965.0</ele><time>2026-05-01T12:23:11.603Z</time></trkpt><trkpt lat="45.8052078" lon="11.6215374"><ele>965.0</ele><time>2026-05-01T12:23:12.603Z</time></trkpt><trkpt lat="45.8051095" lon="11.6216862"><ele>965.0</ele><time>2026-05-01T12:23:13.605Z</time></trkpt><trkpt lat="45.8050106" lon="11.6218388"><ele>964.75</ele><time>2026-05-01T12:23:14.602Z</time></trkpt><trkpt lat="45.8049167" lon="11.6219894"><ele>964.5</ele><time>2026-05-01T12:23:15.608Z</time></trkpt><trkpt lat="45.8047728" lon="11.622029"><ele>964.25</ele><time>2026-05-01T12:23:16.607Z</time></trkpt><trkpt lat="45.8046164" lon="11.6220563"><ele>964.0</ele><time>2026-05-01T12:23:17.609Z</time></trkpt><trkpt lat="45.8044501" lon="11.6220892"><ele>956.0</ele><time>2026-05-01T12:23:18.616Z</time></trkpt><trkpt lat="45.80429" lon="11.6221649"><ele>948.0</ele><time>2026-05-01T12:23:19.61Z</time></trkpt><trkpt lat="45.8041369" lon="11.622283"><ele>940.0</ele><time>2026-05-01T12:23:20.605Z</time></trkpt><trkpt lat="45.8039834" lon="11.6224192"><ele>940.0</ele><time>2026-05-01T12:23:21.607Z</time></trkpt><trkpt lat="45.8038426" lon="11.6225683"><ele>940.0</ele><time>2026-05-01T12:23:22.615Z</time></trkpt><trkpt lat="45.8037015" lon="11.6226941"><ele>940.0</ele><time>2026-05-01T12:23:23.609Z</time></trkpt><trkpt lat="45.8035746" lon="11.6228147"><ele>937.5</ele><time>2026-05-01T12:23:24.608Z</time></trkpt><trkpt lat="45.8034559" lon="11.6229257"><ele>935.0</ele><time>2026-05-01T12:23:25.595Z</time></trkpt><trkpt lat="45.8033543" lon="11.6230237"><ele>932.5</ele><time>2026-05-01T12:23:26.61Z</time></trkpt><trkpt lat="45.8032584" lon="11.6231158"><ele>930.0</ele><time>2026-05-01T12:23:27.604Z</time></trkpt><trkpt lat="45.8031746" lon="11.6231937"><ele>930.0</ele><time>2026-05-01T12:23:28.625Z</time></trkpt><trkpt lat="45.8031017" lon="11.6232655"><ele>930.0</ele><time>2026-05-01T12:23:29.616Z</time></trkpt><trkpt lat="45.80303" lon="11.6233298"><ele>930.0</ele><time>2026-05-01T12:23:30.602Z</time></trkpt><trkpt lat="45.8029601" lon="11.6233771"><ele>930.0</ele><time>2026-05-01T12:23:31.609Z</time></trkpt><trkpt lat="45.8028982" lon="11.6233967"><ele>930.0</ele><time>2026-05-01T12:23:32.608Z</time></trkpt><trkpt lat="45.8028109" lon="11.6233579"><ele>930.0</ele><time>2026-05-01T12:23:34.608Z</time></trkpt><trkpt lat="45.8027484" lon="11.6232769"><ele>928.25</ele><time>2026-05-01T12:23:36.613Z</time></trkpt><trkpt lat="45.8026181" lon="11.6232284"><ele>926.5</ele><time>2026-05-01T12:23:38.608Z</time></trkpt><trkpt lat="45.8025226" lon="11.6232489"><ele>924.75</ele><time>2026-05-01T12:23:39.61Z</time></trkpt><trkpt lat="45.802415" lon="11.6232845"><ele>923.0</ele><time>2026-05-01T12:23:40.607Z</time></trkpt><trkpt lat="45.8022949" lon="11.6233263"><ele>923.0</ele><time>2026-05-01T12:23:41.601Z</time></trkpt><trkpt lat="45.8021751" lon="11.6233675"><ele>923.0</ele><time>2026-05-01T12:23:42.614Z</time></trkpt><trkpt lat="45.8020438" lon="11.6234244"><ele>923.0</ele><time>2026-05-01T12:23:43.608Z</time></trkpt><trkpt lat="45.8019146" lon="11.6234955"><ele>923.0</ele><time>2026-05-01T12:23:44.605Z</time></trkpt><trkpt lat="45.8017948" lon="11.6236143"><ele>921.25</ele><time>2026-05-01T12:23:45.609Z</time></trkpt><trkpt lat="45.8016842" lon="11.6237586"><ele>919.5</ele><time>2026-05-01T12:23:46.608Z</time></trkpt><trkpt lat="45.8015761" lon="11.6239027"><ele>917.75</ele><time>2026-05-01T12:23:47.606Z</time></trkpt><trkpt lat="45.8014569" lon="11.6240343"><ele>916.0</ele><time>2026-05-01T12:23:48.613Z</time></trkpt><trkpt lat="45.8013209" lon="11.6241454"><ele>916.0</ele><time>2026-05-01T12:23:49.619Z</time></trkpt><trkpt lat="45.8011727" lon="11.6242483"><ele>916.0</ele><time>2026-05-01T12:23:50.609Z</time></trkpt><trkpt lat="45.8010196" lon="11.6243525"><ele>916.0</ele><time>2026-05-01T12:23:51.615Z</time></trkpt><trkpt lat="45.8008782" lon="11.6244448"><ele>914.3333333333333</ele><time>2026-05-01T12:23:52.601Z</time></trkpt><trkpt lat="45.8007351" lon="11.6245211"><ele>912.6666666666667</ele><time>2026-05-01T12:23:53.607Z</time></trkpt><trkpt lat="45.8005783" lon="11.6245755"><ele>911.0</ele><time>2026-05-01T12:23:54.617Z</time></trkpt><trkpt lat="45.8004187" lon="11.6246223"><ele>911.0</ele><time>2026-05-01T12:23:55.615Z</time></trkpt><trkpt lat="45.8002678" lon="11.6246835"><ele>911.0</ele><time>2026-05-01T12:23:56.618Z</time></trkpt><trkpt lat="45.8001257" lon="11.624753"><ele>911.0</ele><time>2026-05-01T12:23:57.621Z</time></trkpt><trkpt lat="45.7999926" lon="11.6248115"><ele>911.0</ele><time>2026-05-01T12:23:58.606Z</time></trkpt><trkpt lat="45.7998767" lon="11.6248654"><ele>910.1999999999999</ele><time>2026-05-01T12:23:59.614Z</time></trkpt><trkpt lat="45.7997805" lon="11.6249282"><ele>909.3999999999999</ele><time>2026-05-01T12:24:00.612Z</time></trkpt><trkpt lat="45.7997119" lon="11.6250359"><ele>908.6</ele><time>2026-05-01T12:24:01.605Z</time></trkpt><trkpt lat="45.7996942" lon="11.6251556"><ele>907.8</ele><time>2026-05-01T12:24:02.59Z</time></trkpt><trkpt lat="45.7997236" lon="11.6252813"><ele>907.0</ele><time>2026-05-01T12:24:03.599Z</time></trkpt><trkpt lat="45.7997945" lon="11.6253994"><ele>905.5</ele><time>2026-05-01T12:24:04.603Z</time></trkpt><trkpt lat="45.7999053" lon="11.6255001"><ele>904.0</ele><time>2026-05-01T12:24:05.61Z</time></trkpt><trkpt lat="45.8000368" lon="11.625589"><ele>902.5</ele><time>2026-05-01T12:24:06.603Z</time></trkpt><trkpt lat="45.8001826" lon="11.6256555"><ele>901.0</ele><time>2026-05-01T12:24:07.611Z</time></trkpt><trkpt lat="45.8003437" lon="11.6256908"><ele>899.0</ele><time>2026-05-01T12:24:08.61Z</time></trkpt><trkpt lat="45.8005099" lon="11.6257212"><ele>897.0</ele><time>2026-05-01T12:24:09.612Z</time></trkpt><trkpt lat="45.8006799" lon="11.6257133"><ele>895.0</ele><time>2026-05-01T12:24:10.608Z</time></trkpt><trkpt lat="45.8008539" lon="11.6256739"><ele>890.3333333333333</ele><time>2026-05-01T12:24:11.605Z</time></trkpt><trkpt lat="45.8010393" lon="11.6256266"><ele>885.6666666666667</ele><time>2026-05-01T12:24:12.607Z</time></trkpt><trkpt lat="45.8012323" lon="11.6255554"><ele>881.0</ele><time>2026-05-01T12:24:13.605Z</time></trkpt><trkpt lat="45.801426" lon="11.6254692"><ele>881.0</ele><time>2026-05-01T12:24:14.616Z</time></trkpt><trkpt lat="45.8016205" lon="11.6253786"><ele>881.0</ele><time>2026-05-01T12:24:15.613Z</time></trkpt><trkpt lat="45.8018013" lon="11.6252795"><ele>881.0</ele><time>2026-05-01T12:24:16.607Z</time></trkpt><trkpt lat="45.8019612" lon="11.6251872"><ele>884.25</ele><time>2026-05-01T12:24:17.611Z</time></trkpt><trkpt lat="45.8020823" lon="11.6251077"><ele>887.5</ele><time>2026-05-01T12:24:18.609Z</time></trkpt><trkpt lat="45.8021829" lon="11.625036"><ele>890.75</ele><time>2026-05-01T12:24:19.605Z</time></trkpt><trkpt lat="45.8022791" lon="11.6250109"><ele>894.0</ele><time>2026-05-01T12:24:20.602Z</time></trkpt><trkpt lat="45.8023845" lon="11.625034"><ele>894.0</ele><time>2026-05-01T12:24:21.604Z</time></trkpt><trkpt lat="45.8024873" lon="11.6251269"><ele>894.0</ele><time>2026-05-01T12:24:22.607Z</time></trkpt><trkpt lat="45.8025868" lon="11.6252548"><ele>894.0</ele><time>2026-05-01T12:24:23.604Z</time></trkpt><trkpt lat="45.8027063" lon="11.6253818"><ele>894.0</ele><time>2026-05-01T12:24:24.61Z</time></trkpt><trkpt lat="45.8028411" lon="11.6255074"><ele>891.3333333333333</ele><time>2026-05-01T12:24:25.61Z</time></trkpt><trkpt lat="45.802989" lon="11.6256271"><ele>888.6666666666666</ele><time>2026-05-01T12:24:26.604Z</time></trkpt><trkpt lat="45.8031376" lon="11.6257341"><ele>886.0</ele><time>2026-05-01T12:24:27.616Z</time></trkpt><trkpt lat="45.8032993" lon="11.6258153"><ele>886.0</ele><time>2026-05-01T12:24:28.608Z</time></trkpt><trkpt lat="45.8034594" lon="11.6258985"><ele>886.0</ele><time>2026-05-01T12:24:29.603Z</time></trkpt><trkpt lat="45.8035916" lon="11.6259943"><ele>886.0</ele><time>2026-05-01T12:24:30.611Z</time></trkpt><trkpt lat="45.8037075" lon="11.6261296"><ele>887.5</ele><time>2026-05-01T12:24:31.609Z</time></trkpt><trkpt lat="45.8038061" lon="11.6263024"><ele>889.0</ele><time>2026-05-01T12:24:32.606Z</time></trkpt><trkpt lat="45.8038797" lon="11.6264925"><ele>890.5</ele><time>2026-05-01T12:24:33.607Z</time></trkpt><trkpt lat="45.803945" lon="11.6266724"><ele>892.0</ele><time>2026-05-01T12:24:34.604Z</time></trkpt><trkpt lat="45.8040029" lon="11.6268404"><ele>889.0</ele><time>2026-05-01T12:24:35.605Z</time></trkpt><trkpt lat="45.8039975" lon="11.6270398"><ele>886.0</ele><time>2026-05-01T12:24:36.599Z</time></trkpt><trkpt lat="45.8039913" lon="11.627217"><ele>883.0</ele><time>2026-05-01T12:24:37.599Z</time></trkpt><trkpt lat="45.8040402" lon="11.6273601"><ele>880.0</ele><time>2026-05-01T12:24:38.601Z</time></trkpt><trkpt lat="45.8040912" lon="11.6275088"><ele>880.0</ele><time>2026-05-01T12:24:39.604Z</time></trkpt><trkpt lat="45.8041719" lon="11.6276374"><ele>880.0</ele><time>2026-05-01T12:24:40.608Z</time></trkpt><trkpt lat="45.8042365" lon="11.6277481"><ele>880.0</ele><time>2026-05-01T12:24:41.606Z</time></trkpt><trkpt lat="45.8042489" lon="11.6279114"><ele>880.0</ele><time>2026-05-01T12:24:42.594Z</time></trkpt><trkpt lat="45.8042069" lon="11.628074"><ele>879.25</ele><time>2026-05-01T12:24:43.595Z</time></trkpt><trkpt lat="45.8041327" lon="11.6282409"><ele>878.5</ele><time>2026-05-01T12:24:44.6Z</time></trkpt><trkpt lat="45.8040661" lon="11.628376"><ele>877.75</ele><time>2026-05-01T12:24:45.61Z</time></trkpt><trkpt lat="45.8040029" lon="11.6285328"><ele>877.0</ele><time>2026-05-01T12:24:46.605Z</time></trkpt><trkpt lat="45.803966" lon="11.6287122"><ele>875.25</ele><time>2026-05-01T12:24:47.612Z</time></trkpt><trkpt lat="45.8039614" lon="11.6289225"><ele>873.5</ele><time>2026-05-01T12:24:48.603Z</time></trkpt><trkpt lat="45.8039636" lon="11.6291226"><ele>871.75</ele><time>2026-05-01T12:24:49.61Z</time></trkpt><trkpt lat="45.8039826" lon="11.6293111"><ele>870.0</ele><time>2026-05-01T12:24:50.608Z</time></trkpt><trkpt lat="45.8040444" lon="11.6294915"><ele>868.25</ele><time>2026-05-01T12:24:51.606Z</time></trkpt><trkpt lat="45.8041209" lon="11.6296672"><ele>866.5</ele><time>2026-05-01T12:24:52.608Z</time></trkpt><trkpt lat="45.804188" lon="11.6298596"><ele>864.75</ele><time>2026-05-01T12:24:53.61Z</time></trkpt><trkpt lat="45.804238" lon="11.6300654"><ele>863.0</ele><time>2026-05-01T12:24:54.605Z</time></trkpt><trkpt lat="45.804282" lon="11.6302624"><ele>862.0</ele><time>2026-05-01T12:24:55.613Z</time></trkpt><trkpt lat="45.8043051" lon="11.6304495"><ele>861.0</ele><time>2026-05-01T12:24:56.601Z</time></trkpt><trkpt lat="45.8043204" lon="11.6306111"><ele>860.0</ele><time>2026-05-01T12:24:57.606Z</time></trkpt><trkpt lat="45.8043037" lon="11.6307663"><ele>859.0</ele><time>2026-05-01T12:24:58.593Z</time></trkpt><trkpt lat="45.8042407" lon="11.6309163"><ele>859.0</ele><time>2026-05-01T12:24:59.592Z</time></trkpt><trkpt lat="45.8041446" lon="11.6310352"><ele>859.0</ele><time>2026-05-01T12:25:00.599Z</time></trkpt><trkpt lat="45.8040319" lon="11.6311328"><ele>859.0</ele><time>2026-05-01T12:25:01.602Z</time></trkpt><trkpt lat="45.8038913" lon="11.6312164"><ele>859.0</ele><time>2026-05-01T12:25:02.604Z</time></trkpt><trkpt lat="45.8037509" lon="11.6313212"><ele>856.0</ele><time>2026-05-01T12:25:03.602Z</time></trkpt><trkpt lat="45.8036115" lon="11.6314472"><ele>853.0</ele><time>2026-05-01T12:25:04.603Z</time></trkpt><trkpt lat="45.8034772" lon="11.6315731"><ele>850.0</ele><time>2026-05-01T12:25:05.607Z</time></trkpt><trkpt lat="45.803354" lon="11.6316972"><ele>850.0</ele><time>2026-05-01T12:25:06.605Z</time></trkpt><trkpt lat="45.8032442" lon="11.631806"><ele>850.0</ele><time>2026-05-01T12:25:07.615Z</time></trkpt><trkpt lat="45.8031331" lon="11.6318804"><ele>850.0</ele><time>2026-05-01T12:25:08.614Z</time></trkpt><trkpt lat="45.8030036" lon="11.6319005"><ele>850.0</ele><time>2026-05-01T12:25:09.606Z</time></trkpt><trkpt lat="45.8028581" lon="11.6318763"><ele>850.0</ele><time>2026-05-01T12:25:10.605Z</time></trkpt><trkpt lat="45.8027081" lon="11.6318334"><ele>850.0</ele><time>2026-05-01T12:25:11.604Z</time></trkpt><trkpt lat="45.8025667" lon="11.6317888"><ele>850.0</ele><time>2026-05-01T12:25:12.606Z</time></trkpt><trkpt lat="45.8024348" lon="11.6317597"><ele>850.0</ele><time>2026-05-01T12:25:13.612Z</time></trkpt><trkpt lat="45.8023014" lon="11.6317565"><ele>850.25</ele><time>2026-05-01T12:25:14.608Z</time></trkpt><trkpt lat="45.8021701" lon="11.6317907"><ele>850.5</ele><time>2026-05-01T12:25:15.6Z</time></trkpt><trkpt lat="45.8020472" lon="11.6318783"><ele>850.75</ele><time>2026-05-01T12:25:16.606Z</time></trkpt><trkpt lat="45.8019363" lon="11.6320178"><ele>851.0</ele><time>2026-05-01T12:25:17.606Z</time></trkpt><trkpt lat="45.801847" lon="11.6321803"><ele>846.75</ele><time>2026-05-01T12:25:18.597Z</time></trkpt><trkpt lat="45.8017845" lon="11.6323497"><ele>842.5</ele><time>2026-05-01T12:25:19.607Z</time></trkpt><trkpt lat="45.8017543" lon="11.6325119"><ele>838.25</ele><time>2026-05-01T12:25:20.607Z</time></trkpt><trkpt lat="45.8017616" lon="11.6326583"><ele>834.0</ele><time>2026-05-01T12:25:21.603Z</time></trkpt><trkpt lat="45.8018084" lon="11.6327881"><ele>837.0</ele><time>2026-05-01T12:25:22.587Z</time></trkpt><trkpt lat="45.80188" lon="11.6329011"><ele>840.0</ele><time>2026-05-01T12:25:23.604Z</time></trkpt><trkpt lat="45.8019535" lon="11.6329993"><ele>843.0</ele><time>2026-05-01T12:25:24.604Z</time></trkpt><trkpt lat="45.8020036" lon="11.6331066"><ele>846.0</ele><time>2026-05-01T12:25:25.602Z</time></trkpt><trkpt lat="45.8020185" lon="11.6332421"><ele>849.0</ele><time>2026-05-01T12:25:26.604Z</time></trkpt><trkpt lat="45.8019917" lon="11.6333926"><ele>849.0</ele><time>2026-05-01T12:25:27.592Z</time></trkpt><trkpt lat="45.8019331" lon="11.6335416"><ele>849.0</ele><time>2026-05-01T12:25:28.602Z</time></trkpt><trkpt lat="45.8018849" lon="11.6336934"><ele>849.0</ele><time>2026-05-01T12:25:29.6Z</time></trkpt><trkpt lat="45.8018643" lon="11.6338635"><ele>849.0</ele><time>2026-05-01T12:25:30.611Z</time></trkpt><trkpt lat="45.8018638" lon="11.6340481"><ele>848.25</ele><time>2026-05-01T12:25:31.608Z</time></trkpt><trkpt lat="45.8018681" lon="11.6342412"><ele>847.5</ele><time>2026-05-01T12:25:32.605Z</time></trkpt><trkpt lat="45.8018677" lon="11.6344293"><ele>846.75</ele><time>2026-05-01T12:25:33.605Z</time></trkpt><trkpt lat="45.8018627" lon="11.6346045"><ele>846.0</ele><time>2026-05-01T12:25:34.608Z</time></trkpt><trkpt lat="45.8018229" lon="11.6347604"><ele>843.75</ele><time>2026-05-01T12:25:35.607Z</time></trkpt><trkpt lat="45.8017596" lon="11.6349067"><ele>841.5</ele><time>2026-05-01T12:25:36.598Z</time></trkpt><trkpt lat="45.8016971" lon="11.6350419"><ele>839.25</ele><time>2026-05-01T12:25:37.606Z</time></trkpt><trkpt lat="45.8016549" lon="11.6351953"><ele>837.0</ele><time>2026-05-01T12:25:38.596Z</time></trkpt><trkpt lat="45.8016215" lon="11.6353609"><ele>837.0</ele><time>2026-05-01T12:25:39.596Z</time></trkpt><trkpt lat="45.8015836" lon="11.6355233"><ele>837.0</ele><time>2026-05-01T12:25:40.592Z</time></trkpt><trkpt lat="45.8015447" lon="11.6356649"><ele>837.0</ele><time>2026-05-01T12:25:41.59Z</time></trkpt><trkpt lat="45.8014922" lon="11.6357797"><ele>837.0</ele><time>2026-05-01T12:25:42.585Z</time></trkpt><trkpt lat="45.8014143" lon="11.6358684"><ele>837.0</ele><time>2026-05-01T12:25:43.599Z</time></trkpt><trkpt lat="45.8013166" lon="11.6359308"><ele>837.0</ele><time>2026-05-01T12:25:44.597Z</time></trkpt><trkpt lat="45.8012095" lon="11.6359844"><ele>837.0</ele><time>2026-05-01T12:25:45.598Z</time></trkpt><trkpt lat="45.8011025" lon="11.6360104"><ele>837.0</ele><time>2026-05-01T12:25:46.6Z</time></trkpt><trkpt lat="45.8009886" lon="11.6360185"><ele>837.0</ele><time>2026-05-01T12:25:47.607Z</time></trkpt><trkpt lat="45.800886" lon="11.6359257"><ele>835.5</ele><time>2026-05-01T12:25:48.606Z</time></trkpt><trkpt lat="45.8007833" lon="11.6357834"><ele>834.0</ele><time>2026-05-01T12:25:49.61Z</time></trkpt><trkpt lat="45.8006858" lon="11.6356498"><ele>832.5</ele><time>2026-05-01T12:25:50.61Z</time></trkpt><trkpt lat="45.8005876" lon="11.635524"><ele>831.0</ele><time>2026-05-01T12:25:51.592Z</time></trkpt><trkpt lat="45.8004763" lon="11.6354349"><ele>831.0</ele><time>2026-05-01T12:25:52.589Z</time></trkpt><trkpt lat="45.8003686" lon="11.6353858"><ele>831.0</ele><time>2026-05-01T12:25:53.598Z</time></trkpt><trkpt lat="45.8002556" lon="11.6353951"><ele>831.0</ele><time>2026-05-01T12:25:54.608Z</time></trkpt><trkpt lat="45.8001459" lon="11.6354602"><ele>831.0</ele><time>2026-05-01T12:25:55.609Z</time></trkpt><trkpt lat="45.8000377" lon="11.6355432"><ele>830.6666666666666</ele><time>2026-05-01T12:25:56.604Z</time></trkpt><trkpt lat="45.7999489" lon="11.635598"><ele>830.3333333333333</ele><time>2026-05-01T12:25:57.599Z</time></trkpt><trkpt lat="45.7998723" lon="11.6356032"><ele>830.0</ele><time>2026-05-01T12:25:58.6Z</time></trkpt><trkpt lat="45.7998149" lon="11.6355431"><ele>829.6666666666666</ele><time>2026-05-01T12:25:59.607Z</time></trkpt><trkpt lat="45.7997623" lon="11.635455"><ele>829.3333333333333</ele><time>2026-05-01T12:26:00.606Z</time></trkpt><trkpt lat="45.7997748" lon="11.6352901"><ele>829.0</ele><time>2026-05-01T12:26:01.605Z</time></trkpt><trkpt lat="45.7998375" lon="11.6351048"><ele>824.3333333333333</ele><time>2026-05-01T12:26:02.615Z</time></trkpt><trkpt lat="45.7999021" lon="11.6349081"><ele>819.6666666666667</ele><time>2026-05-01T12:26:03.591Z</time></trkpt><trkpt lat="45.7999662" lon="11.634692"><ele>815.0</ele><time>2026-05-01T12:26:04.612Z</time></trkpt><trkpt lat="45.8000287" lon="11.6344721"><ele>812.3333333333334</ele><time>2026-05-01T12:26:05.609Z</time></trkpt><trkpt lat="45.8000715" lon="11.6342585"><ele>809.6666666666667</ele><time>2026-05-01T12:26:06.611Z</time></trkpt><trkpt lat="45.8000882" lon="11.6340444"><ele>807.0</ele><time>2026-05-01T12:26:07.606Z</time></trkpt><trkpt lat="45.8000982" lon="11.633823"><ele>805.0</ele><time>2026-05-01T12:26:08.603Z</time></trkpt><trkpt lat="45.8001058" lon="11.6336034"><ele>803.0</ele><time>2026-05-01T12:26:09.604Z</time></trkpt><trkpt lat="45.8001074" lon="11.6333839"><ele>801.0</ele><time>2026-05-01T12:26:10.612Z</time></trkpt><trkpt lat="45.8000836" lon="11.6331543"><ele>801.0</ele><time>2026-05-01T12:26:11.61Z</time></trkpt><trkpt lat="45.8000357" lon="11.6329195"><ele>801.0</ele><time>2026-05-01T12:26:12.603Z</time></trkpt><trkpt lat="45.7999759" lon="11.632686"><ele>801.0</ele><time>2026-05-01T12:26:13.604Z</time></trkpt><trkpt lat="45.7999156" lon="11.632462"><ele>799.5</ele><time>2026-05-01T12:26:14.597Z</time></trkpt><trkpt lat="45.7998584" lon="11.6322513"><ele>798.0</ele><time>2026-05-01T12:26:15.614Z</time></trkpt><trkpt lat="45.799808" lon="11.6320624"><ele>796.5</ele><time>2026-05-01T12:26:16.604Z</time></trkpt><trkpt lat="45.7997717" lon="11.6318939"><ele>795.0</ele><time>2026-05-01T12:26:17.61Z</time></trkpt><trkpt lat="45.799744" lon="11.6317453"><ele>794.6666666666666</ele><time>2026-05-01T12:26:18.606Z</time></trkpt><trkpt lat="45.7997185" lon="11.6316249"><ele>794.3333333333333</ele><time>2026-05-01T12:26:19.6Z</time></trkpt><trkpt lat="45.7996849" lon="11.631541"><ele>794.0</ele><time>2026-05-01T12:26:20.601Z</time></trkpt><trkpt lat="45.7995849" lon="11.6315421"><ele>793.6666666666666</ele><time>2026-05-01T12:26:22.6Z</time></trkpt><trkpt lat="45.7995367" lon="11.6316286"><ele>793.3333333333333</ele><time>2026-05-01T12:26:23.607Z</time></trkpt><trkpt lat="45.7994963" lon="11.6317596"><ele>793.0</ele><time>2026-05-01T12:26:24.59Z</time></trkpt><trkpt lat="45.7994652" lon="11.6319067"><ele>793.4</ele><time>2026-05-01T12:26:25.588Z</time></trkpt><trkpt lat="45.7994352" lon="11.6320518"><ele>793.8</ele><time>2026-05-01T12:26:26.602Z</time></trkpt><trkpt lat="45.7993822" lon="11.6321577"><ele>794.2</ele><time>2026-05-01T12:26:27.604Z</time></trkpt><trkpt lat="45.7993009" lon="11.6322365"><ele>794.6</ele><time>2026-05-01T12:26:28.598Z</time></trkpt><trkpt lat="45.7991942" lon="11.6322857"><ele>795.0</ele><time>2026-05-01T12:26:29.601Z</time></trkpt><trkpt lat="45.7990729" lon="11.6323101"><ele>792.25</ele><time>2026-05-01T12:26:30.598Z</time></trkpt><trkpt lat="45.7989376" lon="11.6323052"><ele>789.5</ele><time>2026-05-01T12:26:31.601Z</time></trkpt><trkpt lat="45.7987943" lon="11.6322728"><ele>786.75</ele><time>2026-05-01T12:26:32.595Z</time></trkpt><trkpt lat="45.7986486" lon="11.6322089"><ele>784.0</ele><time>2026-05-01T12:26:33.594Z</time></trkpt><trkpt lat="45.7985016" lon="11.6321309"><ele>782.0</ele><time>2026-05-01T12:26:34.606Z</time></trkpt><trkpt lat="45.7983529" lon="11.6320573"><ele>780.0</ele><time>2026-05-01T12:26:35.598Z</time></trkpt><trkpt lat="45.7982086" lon="11.6319949"><ele>778.0</ele><time>2026-05-01T12:26:36.603Z</time></trkpt><trkpt lat="45.7980651" lon="11.6319404"><ele>777.0</ele><time>2026-05-01T12:26:37.608Z</time></trkpt><trkpt lat="45.7979219" lon="11.6318811"><ele>776.0</ele><time>2026-05-01T12:26:38.613Z</time></trkpt><trkpt lat="45.7977775" lon="11.6318319"><ele>775.0</ele><time>2026-05-01T12:26:39.62Z</time></trkpt><trkpt lat="45.797625" lon="11.6317682"><ele>773.0</ele><time>2026-05-01T12:26:40.619Z</time></trkpt><trkpt lat="45.7974731" lon="11.6316942"><ele>771.0</ele><time>2026-05-01T12:26:41.594Z</time></trkpt><trkpt lat="45.7973179" lon="11.6316201"><ele>769.0</ele><time>2026-05-01T12:26:42.61Z</time></trkpt><trkpt lat="45.7971698" lon="11.6315415"><ele>769.0</ele><time>2026-05-01T12:26:43.614Z</time></trkpt><trkpt lat="45.7970283" lon="11.631466"><ele>769.0</ele><time>2026-05-01T12:26:44.609Z</time></trkpt><trkpt lat="45.7968944" lon="11.6313939"><ele>769.0</ele><time>2026-05-01T12:26:45.607Z</time></trkpt><trkpt lat="45.7967648" lon="11.6313281"><ele>769.0</ele><time>2026-05-01T12:26:46.602Z</time></trkpt><trkpt lat="45.7966312" lon="11.6312763"><ele>767.2</ele><time>2026-05-01T12:26:47.61Z</time></trkpt><trkpt lat="45.7965059" lon="11.6312331"><ele>765.4000000000001</ele><time>2026-05-01T12:26:48.599Z</time></trkpt><trkpt lat="45.796395" lon="11.6312035"><ele>763.6</ele><time>2026-05-01T12:26:49.601Z</time></trkpt><trkpt lat="45.7963046" lon="11.6311827"><ele>761.8</ele><time>2026-05-01T12:26:50.612Z</time></trkpt><trkpt lat="45.7962311" lon="11.6311408"><ele>760.0</ele><time>2026-05-01T12:26:51.609Z</time></trkpt><trkpt lat="45.7961556" lon="11.6310454"><ele>760.0</ele><time>2026-05-01T12:26:52.604Z</time></trkpt><trkpt lat="45.7960902" lon="11.6309454"><ele>760.0</ele><time>2026-05-01T12:26:53.599Z</time></trkpt><trkpt lat="45.7960234" lon="11.6308067"><ele>760.0</ele><time>2026-05-01T12:26:54.603Z</time></trkpt><trkpt lat="45.7959435" lon="11.6307438"><ele>760.0</ele><time>2026-05-01T12:26:55.602Z</time></trkpt><trkpt lat="45.7958667" lon="11.6306939"><ele>760.0</ele><time>2026-05-01T12:26:56.603Z</time></trkpt><trkpt lat="45.7957842" lon="11.6306482"><ele>758.0</ele><time>2026-05-01T12:26:57.605Z</time></trkpt><trkpt lat="45.7956882" lon="11.6306277"><ele>756.0</ele><time>2026-05-01T12:26:58.613Z</time></trkpt><trkpt lat="45.7955842" lon="11.6305691"><ele>754.0</ele><time>2026-05-01T12:26:59.602Z</time></trkpt><trkpt lat="45.7954727" lon="11.6305245"><ele>752.0</ele><time>2026-05-01T12:27:00.607Z</time></trkpt><trkpt lat="45.7953577" lon="11.6303971"><ele>751.25</ele><time>2026-05-01T12:27:01.6Z</time></trkpt><trkpt lat="45.7952638" lon="11.6302777"><ele>750.5</ele><time>2026-05-01T12:27:02.605Z</time></trkpt><trkpt lat="45.7951512" lon="11.6301585"><ele>749.75</ele><time>2026-05-01T12:27:03.609Z</time></trkpt><trkpt lat="45.7950375" lon="11.630046"><ele>749.0</ele><time>2026-05-01T12:27:04.605Z</time></trkpt><trkpt lat="45.7949377" lon="11.6298956"><ele>749.0</ele><time>2026-05-01T12:27:05.606Z</time></trkpt><trkpt lat="45.7948457" lon="11.6297223"><ele>749.0</ele><time>2026-05-01T12:27:06.597Z</time></trkpt><trkpt lat="45.7947511" lon="11.6295395"><ele>749.0</ele><time>2026-05-01T12:27:07.602Z</time></trkpt><trkpt lat="45.7946454" lon="11.629378"><ele>747.6666666666666</ele><time>2026-05-01T12:27:08.607Z</time></trkpt><trkpt lat="45.7945306" lon="11.6292236"><ele>746.3333333333334</ele><time>2026-05-01T12:27:09.578Z</time></trkpt><trkpt lat="45.794383" lon="11.6291088"><ele>745.0</ele><time>2026-05-01T12:27:10.598Z</time></trkpt><trkpt lat="45.7942361" lon="11.6290084"><ele>745.0</ele><time>2026-05-01T12:27:11.606Z</time></trkpt><trkpt lat="45.7940787" lon="11.6289082"><ele>745.0</ele><time>2026-05-01T12:27:12.609Z</time></trkpt><trkpt lat="45.7939166" lon="11.6288203"><ele>745.0</ele><time>2026-05-01T12:27:13.605Z</time></trkpt><trkpt lat="45.7937464" lon="11.6287716"><ele>745.0</ele><time>2026-05-01T12:27:14.605Z</time></trkpt><trkpt lat="45.7935726" lon="11.6287436"><ele>745.0</ele><time>2026-05-01T12:27:15.612Z</time></trkpt><trkpt lat="45.7934059" lon="11.62872"><ele>745.0</ele><time>2026-05-01T12:27:16.609Z</time></trkpt><trkpt lat="45.793251" lon="11.6286924"><ele>743.0</ele><time>2026-05-01T12:27:17.607Z</time></trkpt><trkpt lat="45.7931024" lon="11.6286685"><ele>741.0</ele><time>2026-05-01T12:27:18.609Z</time></trkpt><trkpt lat="45.7929651" lon="11.6286511"><ele>739.0</ele><time>2026-05-01T12:27:19.586Z</time></trkpt><trkpt lat="45.7928259" lon="11.628636"><ele>737.0</ele><time>2026-05-01T12:27:20.604Z</time></trkpt><trkpt lat="45.7926907" lon="11.6286088"><ele>739.25</ele><time>2026-05-01T12:27:21.598Z</time></trkpt><trkpt lat="45.7925552" lon="11.628573"><ele>741.5</ele><time>2026-05-01T12:27:22.6Z</time></trkpt><trkpt lat="45.7924225" lon="11.6285287"><ele>743.75</ele><time>2026-05-01T12:27:23.605Z</time></trkpt><trkpt lat="45.7922962" lon="11.6284856"><ele>746.0</ele><time>2026-05-01T12:27:24.605Z</time></trkpt><trkpt lat="45.7921795" lon="11.6284146"><ele>746.0</ele><time>2026-05-01T12:27:25.598Z</time></trkpt><trkpt lat="45.7920647" lon="11.6283311"><ele>746.0</ele><time>2026-05-01T12:27:26.602Z</time></trkpt><trkpt lat="45.7919542" lon="11.628231"><ele>746.0</ele><time>2026-05-01T12:27:27.599Z</time></trkpt><trkpt lat="45.7918444" lon="11.6281269"><ele>746.0</ele><time>2026-05-01T12:27:28.602Z</time></trkpt><trkpt lat="45.7917492" lon="11.6279962"><ele>745.25</ele><time>2026-05-01T12:27:29.603Z</time></trkpt><trkpt lat="45.7916618" lon="11.6278554"><ele>744.5</ele><time>2026-05-01T12:27:30.602Z</time></trkpt><trkpt lat="45.7915707" lon="11.6277064"><ele>743.75</ele><time>2026-05-01T12:27:31.611Z</time></trkpt><trkpt lat="45.7914893" lon="11.6275475"><ele>743.0</ele><time>2026-05-01T12:27:32.618Z</time></trkpt><trkpt lat="45.7914113" lon="11.6273853"><ele>743.0</ele><time>2026-05-01T12:27:33.61Z</time></trkpt><trkpt lat="45.7913298" lon="11.6272195"><ele>743.0</ele><time>2026-05-01T12:27:34.607Z</time></trkpt><trkpt lat="45.7912643" lon="11.6270408"><ele>743.0</ele><time>2026-05-01T12:27:35.598Z</time></trkpt><trkpt lat="45.7912055" lon="11.6268803"><ele>743.0</ele><time>2026-05-01T12:27:36.596Z</time></trkpt><trkpt lat="45.7911435" lon="11.6267136"><ele>746.25</ele><time>2026-05-01T12:27:37.59Z</time></trkpt><trkpt lat="45.7910789" lon="11.6265362"><ele>749.5</ele><time>2026-05-01T12:27:38.609Z</time></trkpt><trkpt lat="45.7910137" lon="11.6263661"><ele>752.75</ele><time>2026-05-01T12:27:39.606Z</time></trkpt><trkpt lat="45.7909537" lon="11.626203"><ele>756.0</ele><time>2026-05-01T12:27:40.617Z</time></trkpt><trkpt lat="45.7909039" lon="11.6260455"><ele>748.75</ele><time>2026-05-01T12:27:41.616Z</time></trkpt><trkpt lat="45.7908636" lon="11.62589"><ele>741.5</ele><time>2026-05-01T12:27:42.587Z</time></trkpt><trkpt lat="45.7908372" lon="11.6257178"><ele>734.25</ele><time>2026-05-01T12:27:43.608Z</time></trkpt><trkpt lat="45.7908167" lon="11.6255444"><ele>727.0</ele><time>2026-05-01T12:27:44.621Z</time></trkpt><trkpt lat="45.7908009" lon="11.6253571"><ele>727.25</ele><time>2026-05-01T12:27:45.609Z</time></trkpt><trkpt lat="45.7907802" lon="11.6251691"><ele>727.5</ele><time>2026-05-01T12:27:46.606Z</time></trkpt><trkpt lat="45.7907528" lon="11.6249801"><ele>727.75</ele><time>2026-05-01T12:27:47.61Z</time></trkpt><trkpt lat="45.7907266" lon="11.6247883"><ele>728.0</ele><time>2026-05-01T12:27:48.629Z</time></trkpt><trkpt lat="45.7906974" lon="11.6246027"><ele>728.0</ele><time>2026-05-01T12:27:49.611Z</time></trkpt><trkpt lat="45.7906806" lon="11.6244144"><ele>728.0</ele><time>2026-05-01T12:27:50.618Z</time></trkpt><trkpt lat="45.7906572" lon="11.6242352"><ele>728.0</ele><time>2026-05-01T12:27:51.611Z</time></trkpt><trkpt lat="45.7906435" lon="11.6240444"><ele>728.0</ele><time>2026-05-01T12:27:52.615Z</time></trkpt><trkpt lat="45.7906324" lon="11.6238489"><ele>728.0</ele><time>2026-05-01T12:27:53.618Z</time></trkpt><trkpt lat="45.7906233" lon="11.6236659"><ele>728.0</ele><time>2026-05-01T12:27:54.608Z</time></trkpt><trkpt lat="45.7906122" lon="11.6234782"><ele>728.0</ele><time>2026-05-01T12:27:55.609Z</time></trkpt><trkpt lat="45.7906108" lon="11.6232719"><ele>728.0</ele><time>2026-05-01T12:27:56.616Z</time></trkpt><trkpt lat="45.790608" lon="11.6230586"><ele>728.3333333333333</ele><time>2026-05-01T12:27:57.612Z</time></trkpt><trkpt lat="45.790603" lon="11.6228258"><ele>728.6666666666666</ele><time>2026-05-01T12:27:58.609Z</time></trkpt><trkpt lat="45.7906018" lon="11.6225762"><ele>729.0</ele><time>2026-05-01T12:27:59.61Z</time></trkpt><trkpt lat="45.7905994" lon="11.6222961"><ele>728.0</ele><time>2026-05-01T12:28:00.609Z</time></trkpt><trkpt lat="45.7905965" lon="11.622"><ele>727.0</ele><time>2026-05-01T12:28:01.607Z</time></trkpt><trkpt lat="45.7905954" lon="11.6216989"><ele>726.0</ele><time>2026-05-01T12:28:02.612Z</time></trkpt><trkpt lat="45.7906024" lon="11.6213963"><ele>723.0</ele><time>2026-05-01T12:28:03.603Z</time></trkpt><trkpt lat="45.7906062" lon="11.6210851"><ele>720.0</ele><time>2026-05-01T12:28:04.602Z</time></trkpt><trkpt lat="45.7906142" lon="11.6207804"><ele>717.0</ele><time>2026-05-01T12:28:05.613Z</time></trkpt><trkpt lat="45.7906187" lon="11.6204832"><ele>716.0</ele><time>2026-05-01T12:28:06.607Z</time></trkpt><trkpt lat="45.7906214" lon="11.6201837"><ele>715.0</ele><time>2026-05-01T12:28:07.599Z</time></trkpt><trkpt lat="45.7906247" lon="11.6198836"><ele>714.0</ele><time>2026-05-01T12:28:08.61Z</time></trkpt><trkpt lat="45.7906314" lon="11.619586"><ele>712.3333333333334</ele><time>2026-05-01T12:28:09.608Z</time></trkpt><trkpt lat="45.7906405" lon="11.619291"><ele>710.6666666666667</ele><time>2026-05-01T12:28:10.608Z</time></trkpt><trkpt lat="45.7906566" lon="11.619001"><ele>709.0</ele><time>2026-05-01T12:28:11.604Z</time></trkpt><trkpt lat="45.7906706" lon="11.6187146"><ele>708.0</ele><time>2026-05-01T12:28:12.605Z</time></trkpt><trkpt lat="45.7906834" lon="11.6184406"><ele>707.0</ele><time>2026-05-01T12:28:13.603Z</time></trkpt><trkpt lat="45.7906913" lon="11.6181801"><ele>706.0</ele><time>2026-05-01T12:28:14.606Z</time></trkpt><trkpt lat="45.7906779" lon="11.617924"><ele>705.6666666666667</ele><time>2026-05-01T12:28:15.608Z</time></trkpt><trkpt lat="45.7906366" lon="11.6176783"><ele>705.3333333333334</ele><time>2026-05-01T12:28:16.62Z</time></trkpt><trkpt lat="45.7905864" lon="11.6174226"><ele>705.0</ele><time>2026-05-01T12:28:17.607Z</time></trkpt><trkpt lat="45.7905469" lon="11.6171554"><ele>704.3333333333334</ele><time>2026-05-01T12:28:18.603Z</time></trkpt><trkpt lat="45.790523" lon="11.6168835"><ele>703.6666666666667</ele><time>2026-05-01T12:28:19.605Z</time></trkpt><trkpt lat="45.790496" lon="11.6166153"><ele>703.0</ele><time>2026-05-01T12:28:20.597Z</time></trkpt><trkpt lat="45.7904944" lon="11.6163388"><ele>701.3333333333334</ele><time>2026-05-01T12:28:21.614Z</time></trkpt><trkpt lat="45.7905025" lon="11.616058"><ele>699.6666666666666</ele><time>2026-05-01T12:28:22.608Z</time></trkpt><trkpt lat="45.7905259" lon="11.6157783"><ele>698.0</ele><time>2026-05-01T12:28:23.612Z</time></trkpt><trkpt lat="45.7905623" lon="11.6154985"><ele>693.3333333333333</ele><time>2026-05-01T12:28:24.608Z</time></trkpt><trkpt lat="45.7906111" lon="11.6152166"><ele>688.6666666666666</ele><time>2026-05-01T12:28:25.608Z</time></trkpt><trkpt lat="45.7906603" lon="11.6149329"><ele>684.0</ele><time>2026-05-01T12:28:26.603Z</time></trkpt><trkpt lat="45.7907175" lon="11.6146549"><ele>681.6666666666666</ele><time>2026-05-01T12:28:27.6Z</time></trkpt><trkpt lat="45.7907929" lon="11.6143795"><ele>679.3333333333333</ele><time>2026-05-01T12:28:28.604Z</time></trkpt><trkpt lat="45.7908806" lon="11.6141112"><ele>677.0</ele><time>2026-05-01T12:28:29.592Z</time></trkpt><trkpt lat="45.7909712" lon="11.6138461"><ele>680.0</ele><time>2026-05-01T12:28:30.611Z</time></trkpt><trkpt lat="45.7910614" lon="11.6135905"><ele>683.0</ele><time>2026-05-01T12:28:31.61Z</time></trkpt><trkpt lat="45.7911456" lon="11.6133505"><ele>686.0</ele><time>2026-05-01T12:28:32.612Z</time></trkpt><trkpt lat="45.7912241" lon="11.6131259"><ele>686.0</ele><time>2026-05-01T12:28:33.609Z</time></trkpt><trkpt lat="45.7912972" lon="11.6129241"><ele>686.0</ele><time>2026-05-01T12:28:34.622Z</time></trkpt><trkpt lat="45.7913805" lon="11.612749"><ele>686.0</ele><time>2026-05-01T12:28:35.606Z</time></trkpt><trkpt lat="45.7914842" lon="11.6126128"><ele>686.0</ele><time>2026-05-01T12:28:36.6Z</time></trkpt><trkpt lat="45.7916096" lon="11.612522"><ele>681.0</ele><time>2026-05-01T12:28:37.6Z</time></trkpt><trkpt lat="45.7917525" lon="11.612478"><ele>676.0</ele><time>2026-05-01T12:28:38.601Z</time></trkpt><trkpt lat="45.7919108" lon="11.6124755"><ele>671.0</ele><time>2026-05-01T12:28:39.599Z</time></trkpt><trkpt lat="45.7920823" lon="11.6124951"><ele>668.6666666666666</ele><time>2026-05-01T12:28:40.603Z</time></trkpt><trkpt lat="45.7922684" lon="11.6125199"><ele>666.3333333333334</ele><time>2026-05-01T12:28:41.613Z</time></trkpt><trkpt lat="45.7924654" lon="11.612545"><ele>664.0</ele><time>2026-05-01T12:28:42.597Z</time></trkpt><trkpt lat="45.7926673" lon="11.6125713"><ele>662.3333333333334</ele><time>2026-05-01T12:28:43.605Z</time></trkpt><trkpt lat="45.7928681" lon="11.6125973"><ele>660.6666666666666</ele><time>2026-05-01T12:28:44.609Z</time></trkpt><trkpt lat="45.7930631" lon="11.6126212"><ele>659.0</ele><time>2026-05-01T12:28:45.608Z</time></trkpt><trkpt lat="45.7932485" lon="11.6126425"><ele>659.0</ele><time>2026-05-01T12:28:46.617Z</time></trkpt><trkpt lat="45.7934251" lon="11.6126602"><ele>659.0</ele><time>2026-05-01T12:28:47.608Z</time></trkpt><trkpt lat="45.7935903" lon="11.6126804"><ele>659.0</ele><time>2026-05-01T12:28:48.607Z</time></trkpt><trkpt lat="45.7937426" lon="11.6126974"><ele>657.75</ele><time>2026-05-01T12:28:49.611Z</time></trkpt><trkpt lat="45.7938871" lon="11.6127061"><ele>656.5</ele><time>2026-05-01T12:28:50.606Z</time></trkpt><trkpt lat="45.7940263" lon="11.6127208"><ele>655.25</ele><time>2026-05-01T12:28:51.607Z</time></trkpt><trkpt lat="45.7941488" lon="11.61265"><ele>654.0</ele><time>2026-05-01T12:28:52.605Z</time></trkpt><trkpt lat="45.7942587" lon="11.6125444"><ele>654.25</ele><time>2026-05-01T12:28:53.591Z</time></trkpt><trkpt lat="45.7943426" lon="11.6124115"><ele>654.5</ele><time>2026-05-01T12:28:54.61Z</time></trkpt><trkpt lat="45.7944212" lon="11.6122741"><ele>654.75</ele><time>2026-05-01T12:28:55.603Z</time></trkpt><trkpt lat="45.7944785" lon="11.6121123"><ele>655.0</ele><time>2026-05-01T12:28:56.605Z</time></trkpt><trkpt lat="45.7945518" lon="11.6119932"><ele>652.8</ele><time>2026-05-01T12:28:57.603Z</time></trkpt><trkpt lat="45.7946302" lon="11.6119061"><ele>650.6</ele><time>2026-05-01T12:28:58.601Z</time></trkpt><trkpt lat="45.7946999" lon="11.61184"><ele>648.4000000000001</ele><time>2026-05-01T12:28:59.599Z</time></trkpt><trkpt lat="45.7948025" lon="11.6118209"><ele>646.2</ele><time>2026-05-01T12:29:00.605Z</time></trkpt><trkpt lat="45.7949025" lon="11.6118248"><ele>644.0</ele><time>2026-05-01T12:29:01.603Z</time></trkpt><trkpt lat="45.7950163" lon="11.6118459"><ele>644.0</ele><time>2026-05-01T12:29:02.606Z</time></trkpt><trkpt lat="45.7951251" lon="11.6118537"><ele>644.0</ele><time>2026-05-01T12:29:03.609Z</time></trkpt><trkpt lat="45.7952207" lon="11.6118496"><ele>644.0</ele><time>2026-05-01T12:29:04.604Z</time></trkpt><trkpt lat="45.7952921" lon="11.6118057"><ele>644.0</ele><time>2026-05-01T12:29:05.602Z</time></trkpt><trkpt lat="45.7953377" lon="11.6117355"><ele>644.0</ele><time>2026-05-01T12:29:06.606Z</time></trkpt><trkpt lat="45.7953796" lon="11.6116479"><ele>644.0</ele><time>2026-05-01T12:29:07.602Z</time></trkpt><trkpt lat="45.7953687" lon="11.6115414"><ele>644.0</ele><time>2026-05-01T12:29:08.603Z</time></trkpt><trkpt lat="45.7953203" lon="11.6114446"><ele>644.0</ele><time>2026-05-01T12:29:09.6Z</time></trkpt><trkpt lat="45.7952364" lon="11.6113739"><ele>644.0</ele><time>2026-05-01T12:29:10.601Z</time></trkpt><trkpt lat="45.7951193" lon="11.611292"><ele>644.0</ele><time>2026-05-01T12:29:11.601Z</time></trkpt><trkpt lat="45.7949889" lon="11.611187"><ele>644.3333333333333</ele><time>2026-05-01T12:29:12.602Z</time></trkpt><trkpt lat="45.7948554" lon="11.611069"><ele>644.6666666666666</ele><time>2026-05-01T12:29:13.585Z</time></trkpt><trkpt lat="45.794713" lon="11.6109369"><ele>645.0</ele><time>2026-05-01T12:29:14.612Z</time></trkpt><trkpt lat="45.7945671" lon="11.6108016"><ele>645.0</ele><time>2026-05-01T12:29:15.618Z</time></trkpt><trkpt lat="45.7944281" lon="11.6106813"><ele>645.0</ele><time>2026-05-01T12:29:16.611Z</time></trkpt><trkpt lat="45.7942731" lon="11.6105746"><ele>645.0</ele><time>2026-05-01T12:29:17.617Z</time></trkpt><trkpt lat="45.7941105" lon="11.6104827"><ele>642.6666666666666</ele><time>2026-05-01T12:29:18.611Z</time></trkpt><trkpt lat="45.7939597" lon="11.6103994"><ele>640.3333333333333</ele><time>2026-05-01T12:29:19.615Z</time></trkpt><trkpt lat="45.7938019" lon="11.6103352"><ele>638.0</ele><time>2026-05-01T12:29:20.613Z</time></trkpt><trkpt lat="45.7936339" lon="11.6103001"><ele>636.3333333333333</ele><time>2026-05-01T12:29:21.617Z</time></trkpt><trkpt lat="45.7934685" lon="11.610279"><ele>634.6666666666666</ele><time>2026-05-01T12:29:22.611Z</time></trkpt><trkpt lat="45.7933115" lon="11.6102707"><ele>633.0</ele><time>2026-05-01T12:29:23.608Z</time></trkpt><trkpt lat="45.7931642" lon="11.6102551"><ele>633.0</ele><time>2026-05-01T12:29:24.612Z</time></trkpt><trkpt lat="45.7930146" lon="11.6102073"><ele>633.0</ele><time>2026-05-01T12:29:25.606Z</time></trkpt><trkpt lat="45.7928763" lon="11.6101162"><ele>633.0</ele><time>2026-05-01T12:29:26.619Z</time></trkpt><trkpt lat="45.7927458" lon="11.6099983"><ele>631.3333333333334</ele><time>2026-05-01T12:29:27.605Z</time></trkpt><trkpt lat="45.7926166" lon="11.6098729"><ele>629.6666666666667</ele><time>2026-05-01T12:29:28.604Z</time></trkpt><trkpt lat="45.7924885" lon="11.6097493"><ele>628.0</ele><time>2026-05-01T12:29:29.609Z</time></trkpt><trkpt lat="45.79237" lon="11.6096391"><ele>628.0</ele><time>2026-05-01T12:29:30.616Z</time></trkpt><trkpt lat="45.7922437" lon="11.6095515"><ele>628.0</ele><time>2026-05-01T12:29:31.6Z</time></trkpt><trkpt lat="45.7920972" lon="11.609493"><ele>628.0</ele><time>2026-05-01T12:29:32.604Z</time></trkpt><trkpt lat="45.7919385" lon="11.6094358"><ele>629.3333333333334</ele><time>2026-05-01T12:29:33.607Z</time></trkpt><trkpt lat="45.7917664" lon="11.6094007"><ele>630.6666666666666</ele><time>2026-05-01T12:29:34.611Z</time></trkpt><trkpt lat="45.791578" lon="11.6093523"><ele>632.0</ele><time>2026-05-01T12:29:35.613Z</time></trkpt><trkpt lat="45.7913805" lon="11.6093099"><ele>632.0</ele><time>2026-05-01T12:29:36.615Z</time></trkpt><trkpt lat="45.7911746" lon="11.6092698"><ele>632.0</ele><time>2026-05-01T12:29:37.608Z</time></trkpt><trkpt lat="45.7909763" lon="11.6092356"><ele>632.0</ele><time>2026-05-01T12:29:38.617Z</time></trkpt><trkpt lat="45.7907781" lon="11.6092212"><ele>629.6666666666666</ele><time>2026-05-01T12:29:39.616Z</time></trkpt><trkpt lat="45.7905868" lon="11.6092172"><ele>627.3333333333334</ele><time>2026-05-01T12:29:40.609Z</time></trkpt><trkpt lat="45.7904116" lon="11.6092239"><ele>625.0</ele><time>2026-05-01T12:29:41.621Z</time></trkpt><trkpt lat="45.7902492" lon="11.6092303"><ele>622.6666666666667</ele><time>2026-05-01T12:29:42.606Z</time></trkpt><trkpt lat="45.7900886" lon="11.6092338"><ele>620.3333333333334</ele><time>2026-05-01T12:29:43.604Z</time></trkpt><trkpt lat="45.7899247" lon="11.6091704"><ele>618.0</ele><time>2026-05-01T12:29:44.608Z</time></trkpt><trkpt lat="45.7897551" lon="11.6091026"><ele>618.0</ele><time>2026-05-01T12:29:45.601Z</time></trkpt><trkpt lat="45.7895817" lon="11.6089869"><ele>618.0</ele><time>2026-05-01T12:29:46.604Z</time></trkpt><trkpt lat="45.7894039" lon="11.6088702"><ele>618.0</ele><time>2026-05-01T12:29:47.608Z</time></trkpt><trkpt lat="45.7892208" lon="11.6087543"><ele>621.3333333333334</ele><time>2026-05-01T12:29:48.607Z</time></trkpt><trkpt lat="45.7890434" lon="11.6086505"><ele>624.6666666666667</ele><time>2026-05-01T12:29:49.609Z</time></trkpt><trkpt lat="45.7888767" lon="11.6085368"><ele>628.0</ele><time>2026-05-01T12:29:50.607Z</time></trkpt><trkpt lat="45.788743" lon="11.6084233"><ele>628.0</ele><time>2026-05-01T12:29:51.603Z</time></trkpt><trkpt lat="45.788646" lon="11.6082667"><ele>628.0</ele><time>2026-05-01T12:29:52.597Z</time></trkpt><trkpt lat="45.7885608" lon="11.6080598"><ele>628.0</ele><time>2026-05-01T12:29:53.607Z</time></trkpt><trkpt lat="45.7884753" lon="11.6078315"><ele>624.6666666666667</ele><time>2026-05-01T12:29:54.603Z</time></trkpt><trkpt lat="45.7883751" lon="11.6075951"><ele>621.3333333333334</ele><time>2026-05-01T12:29:55.611Z</time></trkpt><trkpt lat="45.7882659" lon="11.6073601"><ele>618.0</ele><time>2026-05-01T12:29:56.604Z</time></trkpt><trkpt lat="45.7881465" lon="11.6071328"><ele>622.3333333333334</ele><time>2026-05-01T12:29:57.606Z</time></trkpt><trkpt lat="45.7880215" lon="11.6069166"><ele>626.6666666666667</ele><time>2026-05-01T12:29:58.606Z</time></trkpt><trkpt lat="45.7878993" lon="11.6067171"><ele>631.0</ele><time>2026-05-01T12:29:59.595Z</time></trkpt><trkpt lat="45.7877912" lon="11.6065109"><ele>631.0</ele><time>2026-05-01T12:30:00.603Z</time></trkpt><trkpt lat="45.787701" lon="11.6062906"><ele>631.0</ele><time>2026-05-01T12:30:01.605Z</time></trkpt><trkpt lat="45.787617" lon="11.6060608"><ele>631.0</ele><time>2026-05-01T12:30:02.617Z</time></trkpt><trkpt lat="45.7875491" lon="11.6058141"><ele>628.0</ele><time>2026-05-01T12:30:03.607Z</time></trkpt><trkpt lat="45.7874758" lon="11.6055676"><ele>625.0</ele><time>2026-05-01T12:30:04.604Z</time></trkpt><trkpt lat="45.7873889" lon="11.6053434"><ele>622.0</ele><time>2026-05-01T12:30:05.603Z</time></trkpt><trkpt lat="45.7872763" lon="11.6051197"><ele>622.0</ele><time>2026-05-01T12:30:06.606Z</time></trkpt><trkpt lat="45.7871532" lon="11.6049129"><ele>622.0</ele><time>2026-05-01T12:30:07.605Z</time></trkpt><trkpt lat="45.7870068" lon="11.6047685"><ele>622.0</ele><time>2026-05-01T12:30:08.602Z</time></trkpt><trkpt lat="45.7868516" lon="11.6046747"><ele>616.6666666666667</ele><time>2026-05-01T12:30:09.605Z</time></trkpt><trkpt lat="45.7866832" lon="11.6046128"><ele>611.3333333333334</ele><time>2026-05-01T12:30:10.603Z</time></trkpt><trkpt lat="45.7865049" lon="11.6045851"><ele>606.0</ele><time>2026-05-01T12:30:11.598Z</time></trkpt><trkpt lat="45.7863192" lon="11.6045646"><ele>606.0</ele><time>2026-05-01T12:30:12.602Z</time></trkpt><trkpt lat="45.7861184" lon="11.6045787"><ele>606.0</ele><time>2026-05-01T12:30:13.609Z</time></trkpt><trkpt lat="45.7859123" lon="11.6045837"><ele>606.0</ele><time>2026-05-01T12:30:14.607Z</time></trkpt><trkpt lat="45.7857066" lon="11.6045923"><ele>606.0</ele><time>2026-05-01T12:30:15.593Z</time></trkpt><trkpt lat="45.7855049" lon="11.6046154"><ele>606.0</ele><time>2026-05-01T12:30:16.601Z</time></trkpt><trkpt lat="45.7853132" lon="11.6046466"><ele>606.0</ele><time>2026-05-01T12:30:17.604Z</time></trkpt><trkpt lat="45.7851218" lon="11.6046808"><ele>606.0</ele><time>2026-05-01T12:30:18.607Z</time></trkpt><trkpt lat="45.7849355" lon="11.6047002"><ele>606.0</ele><time>2026-05-01T12:30:19.601Z</time></trkpt><trkpt lat="45.7847618" lon="11.604736"><ele>606.0</ele><time>2026-05-01T12:30:20.605Z</time></trkpt><trkpt lat="45.7846081" lon="11.6047631"><ele>606.0</ele><time>2026-05-01T12:30:21.608Z</time></trkpt><trkpt lat="45.7844887" lon="11.6047924"><ele>606.0</ele><time>2026-05-01T12:30:22.602Z</time></trkpt><trkpt lat="45.7843823" lon="11.6048224"><ele>606.0</ele><time>2026-05-01T12:30:23.602Z</time></trkpt><trkpt lat="45.7842795" lon="11.6048576"><ele>606.0</ele><time>2026-05-01T12:30:24.609Z</time></trkpt><trkpt lat="45.7841694" lon="11.6049139"><ele>605.6</ele><time>2026-05-01T12:30:25.604Z</time></trkpt><trkpt lat="45.7840616" lon="11.6049562"><ele>605.2</ele><time>2026-05-01T12:30:26.602Z</time></trkpt><trkpt lat="45.7839573" lon="11.604998"><ele>604.8</ele><time>2026-05-01T12:30:27.607Z</time></trkpt><trkpt lat="45.7838549" lon="11.6050302"><ele>604.4</ele><time>2026-05-01T12:30:28.593Z</time></trkpt><trkpt lat="45.7837586" lon="11.6050609"><ele>604.0</ele><time>2026-05-01T12:30:29.594Z</time></trkpt><trkpt lat="45.7836647" lon="11.6050576"><ele>604.0</ele><time>2026-05-01T12:30:30.609Z</time></trkpt><trkpt lat="45.7835759" lon="11.6050222"><ele>604.0</ele><time>2026-05-01T12:30:31.594Z</time></trkpt><trkpt lat="45.7834767" lon="11.6049704"><ele>604.0</ele><time>2026-05-01T12:30:32.601Z</time></trkpt><trkpt lat="45.7833921" lon="11.6048813"><ele>604.0</ele><time>2026-05-01T12:30:33.596Z</time></trkpt><trkpt lat="45.7833305" lon="11.604752"><ele>604.0</ele><time>2026-05-01T12:30:34.595Z</time></trkpt><trkpt lat="45.7832882" lon="11.6046117"><ele>604.2</ele><time>2026-05-01T12:30:35.606Z</time></trkpt><trkpt lat="45.7832448" lon="11.6044687"><ele>604.4</ele><time>2026-05-01T12:30:36.601Z</time></trkpt><trkpt lat="45.7832235" lon="11.604314"><ele>604.6</ele><time>2026-05-01T12:30:37.61Z</time></trkpt><trkpt lat="45.7832103" lon="11.6041572"><ele>604.8</ele><time>2026-05-01T12:30:38.589Z</time></trkpt><trkpt lat="45.78318" lon="11.6040037"><ele>605.0</ele><time>2026-05-01T12:30:39.584Z</time></trkpt><trkpt lat="45.7831416" lon="11.6038653"><ele>605.0</ele><time>2026-05-01T12:30:40.604Z</time></trkpt><trkpt lat="45.7830719" lon="11.6037244"><ele>605.0</ele><time>2026-05-01T12:30:41.603Z</time></trkpt><trkpt lat="45.7829905" lon="11.6035902"><ele>605.0</ele><time>2026-05-01T12:30:42.605Z</time></trkpt><trkpt lat="45.7829177" lon="11.6034724"><ele>605.0</ele><time>2026-05-01T12:30:43.598Z</time></trkpt><trkpt lat="45.7828387" lon="11.6033431"><ele>608.0</ele><time>2026-05-01T12:30:44.607Z</time></trkpt><trkpt lat="45.7827651" lon="11.6032012"><ele>611.0</ele><time>2026-05-01T12:30:45.594Z</time></trkpt><trkpt lat="45.7826959" lon="11.6030471"><ele>614.0</ele><time>2026-05-01T12:30:46.602Z</time></trkpt><trkpt lat="45.7826338" lon="11.6028848"><ele>617.0</ele><time>2026-05-01T12:30:47.601Z</time></trkpt><trkpt lat="45.7825847" lon="11.6027268"><ele>608.2</ele><time>2026-05-01T12:30:48.609Z</time></trkpt><trkpt lat="45.7825473" lon="11.6025689"><ele>599.4000000000001</ele><time>2026-05-01T12:30:49.604Z</time></trkpt><trkpt lat="45.7825258" lon="11.6024046"><ele>590.5999999999999</ele><time>2026-05-01T12:30:50.601Z</time></trkpt><trkpt lat="45.782515" lon="11.6022519"><ele>581.8</ele><time>2026-05-01T12:30:51.609Z</time></trkpt><trkpt lat="45.7825175" lon="11.6021064"><ele>573.0</ele><time>2026-05-01T12:30:52.609Z</time></trkpt><trkpt lat="45.7825351" lon="11.6019549"><ele>571.5</ele><time>2026-05-01T12:30:53.607Z</time></trkpt><trkpt lat="45.7825671" lon="11.6018074"><ele>570.0</ele><time>2026-05-01T12:30:54.613Z</time></trkpt><trkpt lat="45.7825958" lon="11.6016599"><ele>568.5</ele><time>2026-05-01T12:30:55.606Z</time></trkpt><trkpt lat="45.7826398" lon="11.6015041"><ele>567.0</ele><time>2026-05-01T12:30:56.604Z</time></trkpt><trkpt lat="45.7826832" lon="11.6013463"><ele>572.0</ele><time>2026-05-01T12:30:57.604Z</time></trkpt><trkpt lat="45.7827289" lon="11.6011888"><ele>577.0</ele><time>2026-05-01T12:30:58.61Z</time></trkpt><trkpt lat="45.7827816" lon="11.6010352"><ele>582.0</ele><time>2026-05-01T12:30:59.611Z</time></trkpt><trkpt lat="45.7828457" lon="11.6008883"><ele>587.0</ele><time>2026-05-01T12:31:00.613Z</time></trkpt><trkpt lat="45.7829174" lon="11.6007495"><ele>587.0</ele><time>2026-05-01T12:31:01.609Z</time></trkpt><trkpt lat="45.7829921" lon="11.6006128"><ele>587.0</ele><time>2026-05-01T12:31:02.61Z</time></trkpt><trkpt lat="45.783073" lon="11.6004814"><ele>587.0</ele><time>2026-05-01T12:31:03.603Z</time></trkpt><trkpt lat="45.783163" lon="11.6003566"><ele>587.0</ele><time>2026-05-01T12:31:04.613Z</time></trkpt><trkpt lat="45.7832505" lon="11.600233"><ele>585.5</ele><time>2026-05-01T12:31:05.61Z</time></trkpt><trkpt lat="45.7833535" lon="11.6001224"><ele>584.0</ele><time>2026-05-01T12:31:06.606Z</time></trkpt><trkpt lat="45.783466" lon="11.6000221"><ele>582.5</ele><time>2026-05-01T12:31:07.605Z</time></trkpt><trkpt lat="45.7835785" lon="11.5999198"><ele>581.0</ele><time>2026-05-01T12:31:08.604Z</time></trkpt><trkpt lat="45.7836864" lon="11.5998181"><ele>581.0</ele><time>2026-05-01T12:31:09.609Z</time></trkpt><trkpt lat="45.783803" lon="11.5997303"><ele>581.0</ele><time>2026-05-01T12:31:10.602Z</time></trkpt><trkpt lat="45.7839183" lon="11.5996472"><ele>581.0</ele><time>2026-05-01T12:31:11.603Z</time></trkpt><trkpt lat="45.7840348" lon="11.5995673"><ele>581.0</ele><time>2026-05-01T12:31:12.609Z</time></trkpt><trkpt lat="45.7841583" lon="11.5994974"><ele>576.0</ele><time>2026-05-01T12:31:13.61Z</time></trkpt><trkpt lat="45.78428" lon="11.5994447"><ele>571.0</ele><time>2026-05-01T12:31:14.605Z</time></trkpt><trkpt lat="45.7844021" lon="11.5993935"><ele>566.0</ele><time>2026-05-01T12:31:15.599Z</time></trkpt><trkpt lat="45.7845236" lon="11.599344"><ele>561.0</ele><time>2026-05-01T12:31:16.604Z</time></trkpt><trkpt lat="45.7846459" lon="11.5992943"><ele>561.0</ele><time>2026-05-01T12:31:17.599Z</time></trkpt><trkpt lat="45.7847662" lon="11.5992426"><ele>561.0</ele><time>2026-05-01T12:31:18.61Z</time></trkpt><trkpt lat="45.7848841" lon="11.5991855"><ele>561.0</ele><time>2026-05-01T12:31:19.605Z</time></trkpt><trkpt lat="45.7850019" lon="11.5991298"><ele>561.0</ele><time>2026-05-01T12:31:20.606Z</time></trkpt><trkpt lat="45.7851177" lon="11.5990759"><ele>562.4</ele><time>2026-05-01T12:31:21.604Z</time></trkpt><trkpt lat="45.7852236" lon="11.5990254"><ele>563.8</ele><time>2026-05-01T12:31:22.608Z</time></trkpt><trkpt lat="45.7853208" lon="11.5989814"><ele>565.1999999999999</ele><time>2026-05-01T12:31:23.606Z</time></trkpt><trkpt lat="45.7854073" lon="11.5989472"><ele>566.6</ele><time>2026-05-01T12:31:24.605Z</time></trkpt><trkpt lat="45.785486" lon="11.5989262"><ele>568.0</ele><time>2026-05-01T12:31:25.602Z</time></trkpt><trkpt lat="45.7855545" lon="11.5989006"><ele>568.0</ele><time>2026-05-01T12:31:26.6Z</time></trkpt><trkpt lat="45.7856223" lon="11.5988081"><ele>568.0</ele><time>2026-05-01T12:31:28.598Z</time></trkpt><trkpt lat="45.7855822" lon="11.5987048"><ele>568.0</ele><time>2026-05-01T12:31:30.601Z</time></trkpt><trkpt lat="45.7854416" lon="11.5987257"><ele>568.0</ele><time>2026-05-01T12:31:32.599Z</time></trkpt><trkpt lat="45.7853283" lon="11.5987643"><ele>568.0</ele><time>2026-05-01T12:31:33.595Z</time></trkpt><trkpt lat="45.7851906" lon="11.5987937"><ele>565.6666666666667</ele><time>2026-05-01T12:31:34.621Z</time></trkpt><trkpt lat="45.7850383" lon="11.598824"><ele>563.3333333333334</ele><time>2026-05-01T12:31:35.591Z</time></trkpt><trkpt lat="45.7848805" lon="11.5988545"><ele>561.0</ele><time>2026-05-01T12:31:36.579Z</time></trkpt><trkpt lat="45.7847328" lon="11.5988827"><ele>561.0</ele><time>2026-05-01T12:31:37.605Z</time></trkpt><trkpt lat="45.7845978" lon="11.5989071"><ele>561.0</ele><time>2026-05-01T12:31:38.604Z</time></trkpt><trkpt lat="45.7844808" lon="11.5989243"><ele>561.0</ele><time>2026-05-01T12:31:39.607Z</time></trkpt><trkpt lat="45.7843847" lon="11.5989327"><ele>561.0</ele><time>2026-05-01T12:31:40.603Z</time></trkpt><trkpt lat="45.784309" lon="11.5989241"><ele>561.0</ele><time>2026-05-01T12:31:41.603Z</time></trkpt><trkpt lat="45.7842236" lon="11.5988878"><ele>559.6</ele><time>2026-05-01T12:31:43.603Z</time></trkpt><trkpt lat="45.7841568" lon="11.5988857"><ele>558.2</ele><time>2026-05-01T12:31:46.601Z</time></trkpt><trkpt lat="45.7840761" lon="11.598928"><ele>556.8</ele><time>2026-05-01T12:31:47.597Z</time></trkpt><trkpt lat="45.7839688" lon="11.5989955"><ele>555.4</ele><time>2026-05-01T12:31:48.617Z</time></trkpt><trkpt lat="45.7838435" lon="11.5990748"><ele>554.0</ele><time>2026-05-01T12:31:49.602Z</time></trkpt><trkpt lat="45.7837005" lon="11.5991591"><ele>554.0</ele><time>2026-05-01T12:31:50.606Z</time></trkpt><trkpt lat="45.7835433" lon="11.5992577"><ele>554.0</ele><time>2026-05-01T12:31:51.607Z</time></trkpt><trkpt lat="45.7833788" lon="11.5993674"><ele>554.0</ele><time>2026-05-01T12:31:52.607Z</time></trkpt><trkpt lat="45.7832103" lon="11.5995018"><ele>554.6666666666666</ele><time>2026-05-01T12:31:53.606Z</time></trkpt><trkpt lat="45.7830432" lon="11.5996671"><ele>555.3333333333334</ele><time>2026-05-01T12:31:54.612Z</time></trkpt><trkpt lat="45.7828681" lon="11.5998439"><ele>556.0</ele><time>2026-05-01T12:31:55.612Z</time></trkpt><trkpt lat="45.7827104" lon="11.6000343"><ele>552.6666666666667</ele><time>2026-05-01T12:31:56.612Z</time></trkpt><trkpt lat="45.7825715" lon="11.6002298"><ele>549.3333333333334</ele><time>2026-05-01T12:31:57.614Z</time></trkpt><trkpt lat="45.7824471" lon="11.6004555"><ele>546.0</ele><time>2026-05-01T12:31:58.602Z</time></trkpt><trkpt lat="45.7823318" lon="11.6006996"><ele>546.0</ele><time>2026-05-01T12:31:59.613Z</time></trkpt><trkpt lat="45.7822278" lon="11.6009519"><ele>546.0</ele><time>2026-05-01T12:32:00.605Z</time></trkpt><trkpt lat="45.7821339" lon="11.6011865"><ele>546.0</ele><time>2026-05-01T12:32:01.604Z</time></trkpt><trkpt lat="45.7820324" lon="11.6013951"><ele>542.5</ele><time>2026-05-01T12:32:02.604Z</time></trkpt><trkpt lat="45.7819287" lon="11.6015815"><ele>539.0</ele><time>2026-05-01T12:32:03.6Z</time></trkpt><trkpt lat="45.7818335" lon="11.601737"><ele>535.5</ele><time>2026-05-01T12:32:04.608Z</time></trkpt><trkpt lat="45.7817533" lon="11.6018711"><ele>532.0</ele><time>2026-05-01T12:32:05.608Z</time></trkpt><trkpt lat="45.7817026" lon="11.6019996"><ele>532.0</ele><time>2026-05-01T12:32:06.603Z</time></trkpt><trkpt lat="45.7816933" lon="11.6021343"><ele>532.0</ele><time>2026-05-01T12:32:07.604Z</time></trkpt><trkpt lat="45.7817331" lon="11.6022731"><ele>532.0</ele><time>2026-05-01T12:32:08.598Z</time></trkpt><trkpt lat="45.7818105" lon="11.6024211"><ele>532.0</ele><time>2026-05-01T12:32:09.595Z</time></trkpt><trkpt lat="45.781906" lon="11.6025863"><ele>540.2</ele><time>2026-05-01T12:32:10.596Z</time></trkpt><trkpt lat="45.781993" lon="11.602746"><ele>548.4000000000001</ele><time>2026-05-01T12:32:11.601Z</time></trkpt><trkpt lat="45.7820596" lon="11.6028927"><ele>556.5999999999999</ele><time>2026-05-01T12:32:12.602Z</time></trkpt><trkpt lat="45.7820974" lon="11.6030236"><ele>564.8</ele><time>2026-05-01T12:32:13.598Z</time></trkpt><trkpt lat="45.7821278" lon="11.6031399"><ele>573.0</ele><time>2026-05-01T12:32:14.601Z</time></trkpt><trkpt lat="45.7820489" lon="11.6031959"><ele>573.25</ele><time>2026-05-01T12:32:16.597Z</time></trkpt><trkpt lat="45.7819799" lon="11.6031609"><ele>573.5</ele><time>2026-05-01T12:32:17.589Z</time></trkpt><trkpt lat="45.7819207" lon="11.6030798"><ele>573.75</ele><time>2026-05-01T12:32:18.596Z</time></trkpt><trkpt lat="45.7817941" lon="11.602974"><ele>574.0</ele><time>2026-05-01T12:32:19.601Z</time></trkpt><trkpt lat="45.7816275" lon="11.6028693"><ele>560.0</ele><time>2026-05-01T12:32:20.609Z</time></trkpt><trkpt lat="45.7814441" lon="11.6027924"><ele>546.0</ele><time>2026-05-01T12:32:21.602Z</time></trkpt><trkpt lat="45.7812561" lon="11.602783"><ele>532.0</ele><time>2026-05-01T12:32:22.606Z</time></trkpt><trkpt lat="45.7810655" lon="11.6027626"><ele>529.3333333333334</ele><time>2026-05-01T12:32:23.585Z</time></trkpt><trkpt lat="45.7808737" lon="11.6027366"><ele>526.6666666666666</ele><time>2026-05-01T12:32:24.594Z</time></trkpt><trkpt lat="45.7807007" lon="11.6027038"><ele>524.0</ele><time>2026-05-01T12:32:25.605Z</time></trkpt><trkpt lat="45.780541" lon="11.6026403"><ele>524.0</ele><time>2026-05-01T12:32:26.604Z</time></trkpt><trkpt lat="45.7804031" lon="11.602552"><ele>524.0</ele><time>2026-05-01T12:32:27.602Z</time></trkpt><trkpt lat="45.7802798" lon="11.6024795"><ele>524.0</ele><time>2026-05-01T12:32:28.602Z</time></trkpt><trkpt lat="45.7801747" lon="11.6024437"><ele>524.0</ele><time>2026-05-01T12:32:29.608Z</time></trkpt><trkpt lat="45.7800552" lon="11.6024366"><ele>518.0</ele><time>2026-05-01T12:32:30.601Z</time></trkpt><trkpt lat="45.7799385" lon="11.6025262"><ele>512.0</ele><time>2026-05-01T12:32:31.6Z</time></trkpt><trkpt lat="45.7798273" lon="11.6026868"><ele>506.0</ele><time>2026-05-01T12:32:32.594Z</time></trkpt><trkpt lat="45.7797181" lon="11.6028741"><ele>500.66666666666663</ele><time>2026-05-01T12:32:33.602Z</time></trkpt><trkpt lat="45.7795955" lon="11.6030862"><ele>495.33333333333337</ele><time>2026-05-01T12:32:34.604Z</time></trkpt><trkpt lat="45.7794678" lon="11.6033161"><ele>490.0</ele><time>2026-05-01T12:32:35.608Z</time></trkpt><trkpt lat="45.7793426" lon="11.6035558"><ele>499.0</ele><time>2026-05-01T12:32:36.611Z</time></trkpt><trkpt lat="45.7792293" lon="11.6038186"><ele>508.0</ele><time>2026-05-01T12:32:37.61Z</time></trkpt><trkpt lat="45.7791188" lon="11.6040913"><ele>517.0</ele><time>2026-05-01T12:32:38.608Z</time></trkpt><trkpt lat="45.7790071" lon="11.6043488"><ele>525.0</ele><time>2026-05-01T12:32:39.614Z</time></trkpt><trkpt lat="45.7788902" lon="11.6046059"><ele>533.0</ele><time>2026-05-01T12:32:40.612Z</time></trkpt><trkpt lat="45.7787699" lon="11.6048541"><ele>541.0</ele><time>2026-05-01T12:32:41.594Z</time></trkpt><trkpt lat="45.7786394" lon="11.6050877"><ele>533.0</ele><time>2026-05-01T12:32:42.595Z</time></trkpt><trkpt lat="45.7784944" lon="11.6053038"><ele>525.0</ele><time>2026-05-01T12:32:43.598Z</time></trkpt><trkpt lat="45.778345" lon="11.605507"><ele>517.0</ele><time>2026-05-01T12:32:44.602Z</time></trkpt><trkpt lat="45.7782015" lon="11.6056961"><ele>517.0</ele><time>2026-05-01T12:32:45.617Z</time></trkpt><trkpt lat="45.7780702" lon="11.6058648"><ele>517.0</ele><time>2026-05-01T12:32:46.6Z</time></trkpt><trkpt lat="45.7779524" lon="11.60601"><ele>517.0</ele><time>2026-05-01T12:32:47.607Z</time></trkpt><trkpt lat="45.7778538" lon="11.6061242"><ele>515.5</ele><time>2026-05-01T12:32:48.61Z</time></trkpt><trkpt lat="45.7777572" lon="11.6062048"><ele>514.0</ele><time>2026-05-01T12:32:49.608Z</time></trkpt><trkpt lat="45.7776487" lon="11.6062387"><ele>512.5</ele><time>2026-05-01T12:32:50.609Z</time></trkpt><trkpt lat="45.7775339" lon="11.6062397"><ele>511.0</ele><time>2026-05-01T12:32:51.598Z</time></trkpt><trkpt lat="45.7774162" lon="11.6061444"><ele>506.33333333333337</ele><time>2026-05-01T12:32:52.602Z</time></trkpt><trkpt lat="45.777312" lon="11.6059873"><ele>501.66666666666663</ele><time>2026-05-01T12:32:53.609Z</time></trkpt><trkpt lat="45.7772226" lon="11.6058249"><ele>497.0</ele><time>2026-05-01T12:32:54.608Z</time></trkpt><trkpt lat="45.7771279" lon="11.6056187"><ele>497.0</ele><time>2026-05-01T12:32:55.602Z</time></trkpt><trkpt lat="45.7770214" lon="11.605433"><ele>497.0</ele><time>2026-05-01T12:32:56.608Z</time></trkpt><trkpt lat="45.7769039" lon="11.6052758"><ele>497.0</ele><time>2026-05-01T12:32:57.607Z</time></trkpt><trkpt lat="45.7767967" lon="11.6051517"><ele>494.25</ele><time>2026-05-01T12:32:58.587Z</time></trkpt><trkpt lat="45.7766967" lon="11.6050569"><ele>491.5</ele><time>2026-05-01T12:32:59.607Z</time></trkpt><trkpt lat="45.7765849" lon="11.6050061"><ele>488.75</ele><time>2026-05-01T12:33:00.605Z</time></trkpt><trkpt lat="45.7764656" lon="11.6049926"><ele>486.0</ele><time>2026-05-01T12:33:01.603Z</time></trkpt><trkpt lat="45.7763623" lon="11.6051074"><ele>486.0</ele><time>2026-05-01T12:33:02.606Z</time></trkpt><trkpt lat="45.7762766" lon="11.6052731"><ele>486.0</ele><time>2026-05-01T12:33:03.601Z</time></trkpt><trkpt lat="45.7762007" lon="11.6054845"><ele>486.0</ele><time>2026-05-01T12:33:04.598Z</time></trkpt><trkpt lat="45.7761311" lon="11.605725"><ele>482.66666666666663</ele><time>2026-05-01T12:33:05.606Z</time></trkpt><trkpt lat="45.7760732" lon="11.6059827"><ele>479.3333333333333</ele><time>2026-05-01T12:33:06.62Z</time></trkpt><trkpt lat="45.7760262" lon="11.6062539"><ele>476.0</ele><time>2026-05-01T12:33:07.614Z</time></trkpt><trkpt lat="45.7759766" lon="11.6065345"><ele>476.0</ele><time>2026-05-01T12:33:08.609Z</time></trkpt><trkpt lat="45.7759239" lon="11.6068197"><ele>476.0</ele><time>2026-05-01T12:33:09.611Z</time></trkpt><trkpt lat="45.7758722" lon="11.6071061"><ele>476.0</ele><time>2026-05-01T12:33:10.605Z</time></trkpt><trkpt lat="45.7758295" lon="11.6073994"><ele>478.0</ele><time>2026-05-01T12:33:11.608Z</time></trkpt><trkpt lat="45.7757948" lon="11.6076832"><ele>480.0</ele><time>2026-05-01T12:33:12.607Z</time></trkpt><trkpt lat="45.7757634" lon="11.607944"><ele>482.0</ele><time>2026-05-01T12:33:13.593Z</time></trkpt><trkpt lat="45.775737" lon="11.6081727"><ele>482.0</ele><time>2026-05-01T12:33:14.611Z</time></trkpt><trkpt lat="45.7757119" lon="11.6083794"><ele>482.0</ele><time>2026-05-01T12:33:15.605Z</time></trkpt><trkpt lat="45.7757171" lon="11.6085758"><ele>482.0</ele><time>2026-05-01T12:33:16.605Z</time></trkpt><trkpt lat="45.7757156" lon="11.6087496"><ele>482.0</ele><time>2026-05-01T12:33:17.604Z</time></trkpt><trkpt lat="45.7757183" lon="11.6088874"><ele>482.0</ele><time>2026-05-01T12:33:18.602Z</time></trkpt><trkpt lat="45.7757109" lon="11.6089822"><ele>482.00000000000006</ele><time>2026-05-01T12:33:19.604Z</time></trkpt><trkpt lat="45.7756606" lon="11.6090559"><ele>482.00000000000006</ele><time>2026-05-01T12:33:21.604Z</time></trkpt><trkpt lat="45.7756259" lon="11.6088491"><ele>482.0</ele><time>2026-05-01T12:33:23.605Z</time></trkpt><trkpt lat="45.7756163" lon="11.6086827"><ele>482.0</ele><time>2026-05-01T12:33:24.605Z</time></trkpt><trkpt lat="45.7756233" lon="11.6084705"><ele>482.0</ele><time>2026-05-01T12:33:25.599Z</time></trkpt><trkpt lat="45.7756339" lon="11.6082262"><ele>482.0</ele><time>2026-05-01T12:33:26.609Z</time></trkpt><trkpt lat="45.7756441" lon="11.6079582"><ele>482.0</ele><time>2026-05-01T12:33:27.618Z</time></trkpt><trkpt lat="45.7756597" lon="11.6076736"><ele>482.0</ele><time>2026-05-01T12:33:28.612Z</time></trkpt><trkpt lat="45.7756745" lon="11.6073746"><ele>482.0</ele><time>2026-05-01T12:33:29.596Z</time></trkpt><trkpt lat="45.7756919" lon="11.60707"><ele>482.0</ele><time>2026-05-01T12:33:30.603Z</time></trkpt><trkpt lat="45.7757077" lon="11.6067731"><ele>480.0</ele><time>2026-05-01T12:33:31.603Z</time></trkpt><trkpt lat="45.7757283" lon="11.6064715"><ele>478.0</ele><time>2026-05-01T12:33:32.607Z</time></trkpt><trkpt lat="45.7757443" lon="11.6061749"><ele>476.0</ele><time>2026-05-01T12:33:33.605Z</time></trkpt><trkpt lat="45.7757644" lon="11.6059077"><ele>473.3333333333333</ele><time>2026-05-01T12:33:34.602Z</time></trkpt><trkpt lat="45.775776" lon="11.6056765"><ele>470.66666666666663</ele><time>2026-05-01T12:33:35.61Z</time></trkpt><trkpt lat="45.7758046" lon="11.605463"><ele>468.0</ele><time>2026-05-01T12:33:36.608Z</time></trkpt><trkpt lat="45.7758385" lon="11.6052633"><ele>465.2</ele><time>2026-05-01T12:33:37.609Z</time></trkpt><trkpt lat="45.7759096" lon="11.6051054"><ele>462.4</ele><time>2026-05-01T12:33:38.606Z</time></trkpt><trkpt lat="45.7759762" lon="11.6049831"><ele>459.59999999999997</ele><time>2026-05-01T12:33:39.612Z</time></trkpt><trkpt lat="45.7760259" lon="11.6048831"><ele>456.79999999999995</ele><time>2026-05-01T12:33:40.602Z</time></trkpt><trkpt lat="45.776046" lon="11.6047933"><ele>454.0</ele><time>2026-05-01T12:33:41.593Z</time></trkpt><trkpt lat="45.7759761" lon="11.604695"><ele>454.0</ele><time>2026-05-01T12:33:43.602Z</time></trkpt><trkpt lat="45.7758651" lon="11.6048335"><ele>454.0</ele><time>2026-05-01T12:33:45.604Z</time></trkpt><trkpt lat="45.7758029" lon="11.6049802"><ele>454.0</ele><time>2026-05-01T12:33:46.596Z</time></trkpt><trkpt lat="45.775739" lon="11.6051563"><ele>454.0</ele><time>2026-05-01T12:33:47.611Z</time></trkpt><trkpt lat="45.7756693" lon="11.6053561"><ele>458.6666666666667</ele><time>2026-05-01T12:33:48.614Z</time></trkpt><trkpt lat="45.7756098" lon="11.6055831"><ele>463.33333333333337</ele><time>2026-05-01T12:33:49.607Z</time></trkpt><trkpt lat="45.7755625" lon="11.605827"><ele>468.0</ele><time>2026-05-01T12:33:50.614Z</time></trkpt><trkpt lat="45.7755211" lon="11.6060807"><ele>470.66666666666663</ele><time>2026-05-01T12:33:51.612Z</time></trkpt><trkpt lat="45.7754784" lon="11.6063381"><ele>473.3333333333333</ele><time>2026-05-01T12:33:52.615Z</time></trkpt><trkpt lat="45.7754346" lon="11.6066001"><ele>476.0</ele><time>2026-05-01T12:33:53.602Z</time></trkpt><trkpt lat="45.7753902" lon="11.6068629"><ele>478.0</ele><time>2026-05-01T12:33:54.61Z</time></trkpt><trkpt lat="45.7753462" lon="11.6071216"><ele>480.0</ele><time>2026-05-01T12:33:55.614Z</time></trkpt><trkpt lat="45.7753058" lon="11.6073698"><ele>482.0</ele><time>2026-05-01T12:33:56.613Z</time></trkpt><trkpt lat="45.7752621" lon="11.6076001"><ele>482.0</ele><time>2026-05-01T12:33:57.618Z</time></trkpt><trkpt lat="45.7752152" lon="11.6078158"><ele>482.0</ele><time>2026-05-01T12:33:58.612Z</time></trkpt><trkpt lat="45.775163" lon="11.6080182"><ele>482.0</ele><time>2026-05-01T12:33:59.607Z</time></trkpt><trkpt lat="45.7751037" lon="11.6082105"><ele>469.0</ele><time>2026-05-01T12:34:00.596Z</time></trkpt><trkpt lat="45.7750494" lon="11.6084074"><ele>456.0</ele><time>2026-05-01T12:34:01.609Z</time></trkpt><trkpt lat="45.7750112" lon="11.6086173"><ele>443.0</ele><time>2026-05-01T12:34:02.608Z</time></trkpt><trkpt lat="45.774989" lon="11.6088482"><ele>443.0</ele><time>2026-05-01T12:34:03.608Z</time></trkpt><trkpt lat="45.774972" lon="11.6090949"><ele>443.0</ele><time>2026-05-01T12:34:04.608Z</time></trkpt><trkpt lat="45.774951" lon="11.6093509"><ele>443.0</ele><time>2026-05-01T12:34:05.607Z</time></trkpt><trkpt lat="45.7749268" lon="11.609612"><ele>443.3333333333333</ele><time>2026-05-01T12:34:06.611Z</time></trkpt><trkpt lat="45.7749039" lon="11.6098638"><ele>443.66666666666663</ele><time>2026-05-01T12:34:07.607Z</time></trkpt><trkpt lat="45.7748852" lon="11.6101015"><ele>444.0</ele><time>2026-05-01T12:34:08.607Z</time></trkpt><trkpt lat="45.7748757" lon="11.6103112"><ele>444.75</ele><time>2026-05-01T12:34:09.624Z</time></trkpt><trkpt lat="45.7748712" lon="11.6104967"><ele>445.5</ele><time>2026-05-01T12:34:10.619Z</time></trkpt><trkpt lat="45.774856" lon="11.6106666"><ele>446.25</ele><time>2026-05-01T12:34:11.612Z</time></trkpt><trkpt lat="45.7748113" lon="11.61081"><ele>447.0</ele><time>2026-05-01T12:34:12.609Z</time></trkpt><trkpt lat="45.7747277" lon="11.6109192"><ele>447.0</ele><time>2026-05-01T12:34:13.599Z</time></trkpt><trkpt lat="45.7746146" lon="11.6109847"><ele>447.0</ele><time>2026-05-01T12:34:14.606Z</time></trkpt><trkpt lat="45.774507" lon="11.6110315"><ele>447.0</ele><time>2026-05-01T12:34:15.603Z</time></trkpt><trkpt lat="45.7744122" lon="11.6111013"><ele>447.0</ele><time>2026-05-01T12:34:16.611Z</time></trkpt><trkpt lat="45.7743328" lon="11.611231"><ele>441.5</ele><time>2026-05-01T12:34:17.594Z</time></trkpt><trkpt lat="45.7742589" lon="11.6113971"><ele>436.0</ele><time>2026-05-01T12:34:18.607Z</time></trkpt><trkpt lat="45.7741832" lon="11.6115893"><ele>430.5</ele><time>2026-05-01T12:34:19.605Z</time></trkpt><trkpt lat="45.7741041" lon="11.6117792"><ele>425.0</ele><time>2026-05-01T12:34:20.607Z</time></trkpt><trkpt lat="45.7740394" lon="11.6119553"><ele>425.75</ele><time>2026-05-01T12:34:21.608Z</time></trkpt><trkpt lat="45.7739889" lon="11.6121233"><ele>426.5</ele><time>2026-05-01T12:34:22.608Z</time></trkpt><trkpt lat="45.7739647" lon="11.6122901"><ele>427.25</ele><time>2026-05-01T12:34:23.607Z</time></trkpt><trkpt lat="45.7739728" lon="11.6124442"><ele>428.0</ele><time>2026-05-01T12:34:24.606Z</time></trkpt><trkpt lat="45.7740131" lon="11.6125938"><ele>428.0</ele><time>2026-05-01T12:34:25.601Z</time></trkpt><trkpt lat="45.7740727" lon="11.6127345"><ele>427.99999999999994</ele><time>2026-05-01T12:34:26.599Z</time></trkpt><trkpt lat="45.7741312" lon="11.6128664"><ele>427.99999999999994</ele><time>2026-05-01T12:34:27.606Z</time></trkpt><trkpt lat="45.774173" lon="11.6129902"><ele>428.0</ele><time>2026-05-01T12:34:28.608Z</time></trkpt><trkpt lat="45.774188" lon="11.6131086"><ele>428.0</ele><time>2026-05-01T12:34:29.603Z</time></trkpt><trkpt lat="45.7741659" lon="11.6132252"><ele>428.0</ele><time>2026-05-01T12:34:30.607Z</time></trkpt><trkpt lat="45.774133" lon="11.6133336"><ele>427.99999999999994</ele><time>2026-05-01T12:34:31.605Z</time></trkpt><trkpt lat="45.7740553" lon="11.6134103"><ele>427.99999999999994</ele><time>2026-05-01T12:34:32.605Z</time></trkpt><trkpt lat="45.773968" lon="11.6135036"><ele>428.0</ele><time>2026-05-01T12:34:33.599Z</time></trkpt><trkpt lat="45.7738854" lon="11.613606"><ele>428.0</ele><time>2026-05-01T12:34:34.607Z</time></trkpt><trkpt lat="45.7738017" lon="11.613703"><ele>428.79999999999995</ele><time>2026-05-01T12:34:35.603Z</time></trkpt><trkpt lat="45.7737287" lon="11.613776"><ele>429.59999999999997</ele><time>2026-05-01T12:34:36.61Z</time></trkpt><trkpt lat="45.7736924" lon="11.6139037"><ele>430.40000000000003</ele><time>2026-05-01T12:34:37.608Z</time></trkpt><trkpt lat="45.7736877" lon="11.6140497"><ele>431.20000000000005</ele><time>2026-05-01T12:34:38.611Z</time></trkpt><trkpt lat="45.7737005" lon="11.6142175"><ele>432.0</ele><time>2026-05-01T12:34:39.604Z</time></trkpt><trkpt lat="45.7736987" lon="11.6143965"><ele>432.5</ele><time>2026-05-01T12:34:40.609Z</time></trkpt><trkpt lat="45.7736991" lon="11.6145928"><ele>433.0</ele><time>2026-05-01T12:34:41.619Z</time></trkpt><trkpt lat="45.7736996" lon="11.6147971"><ele>433.5</ele><time>2026-05-01T12:34:42.616Z</time></trkpt><trkpt lat="45.773698" lon="11.6150132"><ele>434.0</ele><time>2026-05-01T12:34:43.605Z</time></trkpt><trkpt lat="45.7737104" lon="11.6152293"><ele>433.0</ele><time>2026-05-01T12:34:44.608Z</time></trkpt><trkpt lat="45.7737347" lon="11.6154542"><ele>432.0</ele><time>2026-05-01T12:34:45.606Z</time></trkpt><trkpt lat="45.7737651" lon="11.615693"><ele>431.0</ele><time>2026-05-01T12:34:46.605Z</time></trkpt><trkpt lat="45.7737996" lon="11.6159312"><ele>429.0</ele><time>2026-05-01T12:34:47.609Z</time></trkpt><trkpt lat="45.7738367" lon="11.6161569"><ele>427.0</ele><time>2026-05-01T12:34:48.622Z</time></trkpt><trkpt lat="45.7738734" lon="11.616353"><ele>425.0</ele><time>2026-05-01T12:34:49.617Z</time></trkpt><trkpt lat="45.7739037" lon="11.6165196"><ele>423.0</ele><time>2026-05-01T12:34:50.615Z</time></trkpt><trkpt lat="45.7739254" lon="11.6166619"><ele>423.0</ele><time>2026-05-01T12:34:51.611Z</time></trkpt><trkpt lat="45.7739219" lon="11.6167911"><ele>423.0</ele><time>2026-05-01T12:34:52.615Z</time></trkpt><trkpt lat="45.7738827" lon="11.616903"><ele>423.0</ele><time>2026-05-01T12:34:53.617Z</time></trkpt><trkpt lat="45.7738036" lon="11.616977"><ele>423.0</ele><time>2026-05-01T12:34:54.612Z</time></trkpt><trkpt lat="45.7737037" lon="11.6170053"><ele>423.0</ele><time>2026-05-01T12:34:55.609Z</time></trkpt><trkpt lat="45.7736056" lon="11.6170275"><ele>418.4</ele><time>2026-05-01T12:34:56.607Z</time></trkpt><trkpt lat="45.7735199" lon="11.6170898"><ele>413.79999999999995</ele><time>2026-05-01T12:34:57.607Z</time></trkpt><trkpt lat="45.773464" lon="11.6171964"><ele>409.2</ele><time>2026-05-01T12:34:58.599Z</time></trkpt><trkpt lat="45.7734474" lon="11.6173353"><ele>404.6</ele><time>2026-05-01T12:34:59.588Z</time></trkpt><trkpt lat="45.773466" lon="11.617503"><ele>400.0</ele><time>2026-05-01T12:35:00.603Z</time></trkpt><trkpt lat="45.7735052" lon="11.6176998"><ele>407.0</ele><time>2026-05-01T12:35:01.609Z</time></trkpt><trkpt lat="45.7735536" lon="11.6179217"><ele>414.0</ele><time>2026-05-01T12:35:02.619Z</time></trkpt><trkpt lat="45.7736095" lon="11.6181531"><ele>421.0</ele><time>2026-05-01T12:35:03.595Z</time></trkpt><trkpt lat="45.7736722" lon="11.6183925"><ele>421.0</ele><time>2026-05-01T12:35:04.619Z</time></trkpt><trkpt lat="45.7737208" lon="11.6186344"><ele>421.0</ele><time>2026-05-01T12:35:05.6Z</time></trkpt><trkpt lat="45.7737431" lon="11.6188732"><ele>421.0</ele><time>2026-05-01T12:35:06.609Z</time></trkpt><trkpt lat="45.7737372" lon="11.6191147"><ele>420.0</ele><time>2026-05-01T12:35:07.613Z</time></trkpt><trkpt lat="45.7737147" lon="11.6193636"><ele>419.0</ele><time>2026-05-01T12:35:08.598Z</time></trkpt><trkpt lat="45.7737047" lon="11.6196149"><ele>418.0</ele><time>2026-05-01T12:35:09.607Z</time></trkpt><trkpt lat="45.773714" lon="11.6198529"><ele>416.5</ele><time>2026-05-01T12:35:10.602Z</time></trkpt><trkpt lat="45.7737264" lon="11.62007"><ele>415.0</ele><time>2026-05-01T12:35:11.613Z</time></trkpt><trkpt lat="45.7737219" lon="11.620274"><ele>413.5</ele><time>2026-05-01T12:35:12.612Z</time></trkpt><trkpt lat="45.773676" lon="11.6204664"><ele>412.0</ele><time>2026-05-01T12:35:13.607Z</time></trkpt><trkpt lat="45.7736013" lon="11.6206362"><ele>411.5</ele><time>2026-05-01T12:35:14.604Z</time></trkpt><trkpt lat="45.773524" lon="11.6207904"><ele>411.0</ele><time>2026-05-01T12:35:15.607Z</time></trkpt><trkpt lat="45.7734896" lon="11.6209412"><ele>410.5</ele><time>2026-05-01T12:35:16.609Z</time></trkpt><trkpt lat="45.7734859" lon="11.6211193"><ele>410.0</ele><time>2026-05-01T12:35:17.61Z</time></trkpt><trkpt lat="45.7735272" lon="11.6212902"><ele>408.75</ele><time>2026-05-01T12:35:18.609Z</time></trkpt><trkpt lat="45.7735593" lon="11.6214552"><ele>407.5</ele><time>2026-05-01T12:35:19.606Z</time></trkpt><trkpt lat="45.7735766" lon="11.6216209"><ele>406.25</ele><time>2026-05-01T12:35:20.607Z</time></trkpt><trkpt lat="45.7735259" lon="11.6218033"><ele>405.0</ele><time>2026-05-01T12:35:21.604Z</time></trkpt><trkpt lat="45.7734585" lon="11.6219891"><ele>399.5</ele><time>2026-05-01T12:35:22.611Z</time></trkpt><trkpt lat="45.773423" lon="11.6221902"><ele>394.0</ele><time>2026-05-01T12:35:23.605Z</time></trkpt><trkpt lat="45.7734109" lon="11.6223997"><ele>388.5</ele><time>2026-05-01T12:35:24.615Z</time></trkpt><trkpt lat="45.7734158" lon="11.6226054"><ele>383.0</ele><time>2026-05-01T12:35:25.608Z</time></trkpt><trkpt lat="45.7734113" lon="11.6228151"><ele>382.6666666666667</ele><time>2026-05-01T12:35:26.606Z</time></trkpt><trkpt lat="45.773372" lon="11.6230171"><ele>382.3333333333333</ele><time>2026-05-01T12:35:27.618Z</time></trkpt><trkpt lat="45.7733034" lon="11.6232107"><ele>382.0</ele><time>2026-05-01T12:35:28.611Z</time></trkpt><trkpt lat="45.773219" lon="11.623394"><ele>382.0</ele><time>2026-05-01T12:35:29.601Z</time></trkpt><trkpt lat="45.7731339" lon="11.6235688"><ele>382.0</ele><time>2026-05-01T12:35:30.615Z</time></trkpt><trkpt lat="45.7730662" lon="11.6237471"><ele>382.0</ele><time>2026-05-01T12:35:31.612Z</time></trkpt><trkpt lat="45.7730306" lon="11.6239514"><ele>382.0</ele><time>2026-05-01T12:35:32.602Z</time></trkpt><trkpt lat="45.7730305" lon="11.6241693"><ele>381.66666666666663</ele><time>2026-05-01T12:35:33.603Z</time></trkpt><trkpt lat="45.7730513" lon="11.624391"><ele>381.3333333333333</ele><time>2026-05-01T12:35:34.608Z</time></trkpt><trkpt lat="45.7730699" lon="11.6246129"><ele>381.0</ele><time>2026-05-01T12:35:35.606Z</time></trkpt><trkpt lat="45.7730936" lon="11.6248319"><ele>380.0</ele><time>2026-05-01T12:35:36.608Z</time></trkpt><trkpt lat="45.7730969" lon="11.6250597"><ele>379.0</ele><time>2026-05-01T12:35:37.607Z</time></trkpt><trkpt lat="45.7730959" lon="11.6252764"><ele>378.0</ele><time>2026-05-01T12:35:38.605Z</time></trkpt><trkpt lat="45.7730715" lon="11.6255084"><ele>376.3333333333333</ele><time>2026-05-01T12:35:39.607Z</time></trkpt><trkpt lat="45.773083" lon="11.6257261"><ele>374.66666666666663</ele><time>2026-05-01T12:35:40.609Z</time></trkpt><trkpt lat="45.7731174" lon="11.6259451"><ele>373.0</ele><time>2026-05-01T12:35:41.614Z</time></trkpt><trkpt lat="45.7731541" lon="11.626162"><ele>372.0</ele><time>2026-05-01T12:35:42.602Z</time></trkpt><trkpt lat="45.7731813" lon="11.6263689"><ele>371.0</ele><time>2026-05-01T12:35:43.601Z</time></trkpt><trkpt lat="45.7731976" lon="11.6265591"><ele>370.0</ele><time>2026-05-01T12:35:44.61Z</time></trkpt><trkpt lat="45.7731852" lon="11.6267544"><ele>369.0</ele><time>2026-05-01T12:35:45.61Z</time></trkpt><trkpt lat="45.7731502" lon="11.6269606"><ele>370.0</ele><time>2026-05-01T12:35:46.617Z</time></trkpt><trkpt lat="45.7730988" lon="11.6271692"><ele>371.0</ele><time>2026-05-01T12:35:47.61Z</time></trkpt><trkpt lat="45.7730364" lon="11.6273786"><ele>372.0</ele><time>2026-05-01T12:35:48.612Z</time></trkpt><trkpt lat="45.7729668" lon="11.6275797"><ele>372.0</ele><time>2026-05-01T12:35:49.609Z</time></trkpt><trkpt lat="45.772888" lon="11.627767"><ele>372.0</ele><time>2026-05-01T12:35:50.606Z</time></trkpt><trkpt lat="45.7728155" lon="11.6279441"><ele>372.0</ele><time>2026-05-01T12:35:51.622Z</time></trkpt><trkpt lat="45.7727567" lon="11.6281266"><ele>372.0</ele><time>2026-05-01T12:35:52.607Z</time></trkpt><trkpt lat="45.772721" lon="11.6283257"><ele>372.0</ele><time>2026-05-01T12:35:53.612Z</time></trkpt><trkpt lat="45.7727156" lon="11.6285335"><ele>372.0</ele><time>2026-05-01T12:35:54.605Z</time></trkpt><trkpt lat="45.7727333" lon="11.6287438"><ele>372.0</ele><time>2026-05-01T12:35:55.599Z</time></trkpt><trkpt lat="45.7727615" lon="11.6289522"><ele>372.0</ele><time>2026-05-01T12:35:56.608Z</time></trkpt><trkpt lat="45.7727894" lon="11.6291528"><ele>372.0</ele><time>2026-05-01T12:35:57.613Z</time></trkpt><trkpt lat="45.772818" lon="11.6293526"><ele>372.0</ele><time>2026-05-01T12:35:58.607Z</time></trkpt><trkpt lat="45.7728458" lon="11.6295501"><ele>372.0</ele><time>2026-05-01T12:35:59.606Z</time></trkpt><trkpt lat="45.772873" lon="11.6297415"><ele>372.0</ele><time>2026-05-01T12:36:00.603Z</time></trkpt><trkpt lat="45.7729022" lon="11.6299202"><ele>369.6</ele><time>2026-05-01T12:36:01.608Z</time></trkpt><trkpt lat="45.7729316" lon="11.630086"><ele>367.20000000000005</ele><time>2026-05-01T12:36:02.611Z</time></trkpt><trkpt lat="45.7729637" lon="11.6302373"><ele>364.8</ele><time>2026-05-01T12:36:03.61Z</time></trkpt><trkpt lat="45.7729997" lon="11.6303793"><ele>362.4</ele><time>2026-05-01T12:36:04.608Z</time></trkpt><trkpt lat="45.7730351" lon="11.6305162"><ele>360.0</ele><time>2026-05-01T12:36:05.614Z</time></trkpt><trkpt lat="45.773069" lon="11.6306432"><ele>358.7142857142857</ele><time>2026-05-01T12:36:06.613Z</time></trkpt><trkpt lat="45.7731007" lon="11.6307533"><ele>357.42857142857144</ele><time>2026-05-01T12:36:07.615Z</time></trkpt><trkpt lat="45.7731238" lon="11.6308389"><ele>356.14285714285717</ele><time>2026-05-01T12:36:08.609Z</time></trkpt><trkpt lat="45.7731481" lon="11.6309529"><ele>354.8571428571429</ele><time>2026-05-01T12:36:10.622Z</time></trkpt><trkpt lat="45.7731495" lon="11.6310452"><ele>353.57142857142856</ele><time>2026-05-01T12:36:12.602Z</time></trkpt><trkpt lat="45.7730635" lon="11.63106"><ele>352.28571428571433</ele><time>2026-05-01T12:36:15.6Z</time></trkpt><trkpt lat="45.7730165" lon="11.6309972"><ele>351.0</ele><time>2026-05-01T12:36:16.609Z</time></trkpt><trkpt lat="45.7729698" lon="11.6308747"><ele>351.0</ele><time>2026-05-01T12:36:17.601Z</time></trkpt><trkpt lat="45.7729137" lon="11.6307031"><ele>351.0</ele><time>2026-05-01T12:36:18.609Z</time></trkpt><trkpt lat="45.7728501" lon="11.6304888"><ele>351.0</ele><time>2026-05-01T12:36:19.614Z</time></trkpt><trkpt lat="45.7727885" lon="11.6302649"><ele>353.25</ele><time>2026-05-01T12:36:20.613Z</time></trkpt><trkpt lat="45.7727326" lon="11.6300477"><ele>355.5</ele><time>2026-05-01T12:36:21.621Z</time></trkpt><trkpt lat="45.7726779" lon="11.6298524"><ele>357.75</ele><time>2026-05-01T12:36:22.608Z</time></trkpt><trkpt lat="45.7726193" lon="11.6296742"><ele>360.0</ele><time>2026-05-01T12:36:23.612Z</time></trkpt><trkpt lat="45.7725524" lon="11.6295067"><ele>355.0</ele><time>2026-05-01T12:36:24.599Z</time></trkpt><trkpt lat="45.7724568" lon="11.6293374"><ele>350.0</ele><time>2026-05-01T12:36:25.611Z</time></trkpt><trkpt lat="45.7723385" lon="11.6291589"><ele>345.0</ele><time>2026-05-01T12:36:26.604Z</time></trkpt><trkpt lat="45.7722204" lon="11.6289607"><ele>345.0</ele><time>2026-05-01T12:36:27.609Z</time></trkpt><trkpt lat="45.7721139" lon="11.6287552"><ele>345.0</ele><time>2026-05-01T12:36:28.61Z</time></trkpt><trkpt lat="45.7720186" lon="11.6285655"><ele>345.0</ele><time>2026-05-01T12:36:29.614Z</time></trkpt><trkpt lat="45.7719347" lon="11.6284018"><ele>346.0</ele><time>2026-05-01T12:36:30.611Z</time></trkpt><trkpt lat="45.7718623" lon="11.6282631"><ele>347.0</ele><time>2026-05-01T12:36:31.612Z</time></trkpt><trkpt lat="45.7718006" lon="11.6281503"><ele>348.0</ele><time>2026-05-01T12:36:32.603Z</time></trkpt><trkpt lat="45.7717455" lon="11.6280699"><ele>349.0</ele><time>2026-05-01T12:36:33.607Z</time></trkpt><trkpt lat="45.7716401" lon="11.6280865"><ele>350.0</ele><time>2026-05-01T12:36:35.602Z</time></trkpt><trkpt lat="45.7716322" lon="11.6282167"><ele>344.0</ele><time>2026-05-01T12:36:36.601Z</time></trkpt><trkpt lat="45.7716498" lon="11.6283642"><ele>338.0</ele><time>2026-05-01T12:36:37.603Z</time></trkpt><trkpt lat="45.7716862" lon="11.6285449"><ele>332.0</ele><time>2026-05-01T12:36:38.602Z</time></trkpt><trkpt lat="45.7717265" lon="11.6287549"><ele>326.0</ele><time>2026-05-01T12:36:39.607Z</time></trkpt><trkpt lat="45.7717629" lon="11.6289925"><ele>324.33333333333337</ele><time>2026-05-01T12:36:40.602Z</time></trkpt><trkpt lat="45.7717902" lon="11.6292455"><ele>322.6666666666667</ele><time>2026-05-01T12:36:41.612Z</time></trkpt><trkpt lat="45.7718004" lon="11.6295115"><ele>321.0</ele><time>2026-05-01T12:36:42.61Z</time></trkpt><trkpt lat="45.7717886" lon="11.6297845"><ele>319.6666666666667</ele><time>2026-05-01T12:36:43.611Z</time></trkpt><trkpt lat="45.771751" lon="11.6300447"><ele>318.33333333333337</ele><time>2026-05-01T12:36:44.612Z</time></trkpt><trkpt lat="45.7717032" lon="11.6302946"><ele>317.0</ele><time>2026-05-01T12:36:45.609Z</time></trkpt><trkpt lat="45.7716541" lon="11.6305438"><ele>317.0</ele><time>2026-05-01T12:36:46.614Z</time></trkpt><trkpt lat="45.7716053" lon="11.6307823"><ele>317.0</ele><time>2026-05-01T12:36:47.615Z</time></trkpt><trkpt lat="45.7715581" lon="11.6310094"><ele>317.0</ele><time>2026-05-01T12:36:48.606Z</time></trkpt><trkpt lat="45.771516" lon="11.6312269"><ele>316.0</ele><time>2026-05-01T12:36:49.612Z</time></trkpt><trkpt lat="45.7714867" lon="11.6314459"><ele>315.0</ele><time>2026-05-01T12:36:50.599Z</time></trkpt><trkpt lat="45.7714825" lon="11.6316718"><ele>314.0</ele><time>2026-05-01T12:36:51.606Z</time></trkpt><trkpt lat="45.7715161" lon="11.6319042"><ele>311.33333333333337</ele><time>2026-05-01T12:36:52.611Z</time></trkpt><trkpt lat="45.7715866" lon="11.6321398"><ele>308.6666666666667</ele><time>2026-05-01T12:36:53.614Z</time></trkpt><trkpt lat="45.7716822" lon="11.6323585"><ele>306.0</ele><time>2026-05-01T12:36:54.614Z</time></trkpt><trkpt lat="45.7717724" lon="11.6325563"><ele>306.5</ele><time>2026-05-01T12:36:55.615Z</time></trkpt><trkpt lat="45.7718785" lon="11.6327304"><ele>307.0</ele><time>2026-05-01T12:36:56.617Z</time></trkpt><trkpt lat="45.7719588" lon="11.6328975"><ele>307.5</ele><time>2026-05-01T12:36:57.625Z</time></trkpt><trkpt lat="45.7720237" lon="11.6330798"><ele>308.0</ele><time>2026-05-01T12:36:58.611Z</time></trkpt><trkpt lat="45.7720599" lon="11.6332794"><ele>308.0</ele><time>2026-05-01T12:36:59.602Z</time></trkpt><trkpt lat="45.772078" lon="11.6334992"><ele>308.0</ele><time>2026-05-01T12:37:00.603Z</time></trkpt><trkpt lat="45.7720863" lon="11.6337225"><ele>308.0</ele><time>2026-05-01T12:37:01.595Z</time></trkpt><trkpt lat="45.7720888" lon="11.6339526"><ele>306.5</ele><time>2026-05-01T12:37:02.61Z</time></trkpt><trkpt lat="45.7720886" lon="11.6341727"><ele>305.0</ele><time>2026-05-01T12:37:03.618Z</time></trkpt><trkpt lat="45.7720892" lon="11.6343841"><ele>303.5</ele><time>2026-05-01T12:37:04.615Z</time></trkpt><trkpt lat="45.7720897" lon="11.6345809"><ele>302.0</ele><time>2026-05-01T12:37:05.609Z</time></trkpt><trkpt lat="45.7720928" lon="11.634764"><ele>302.0</ele><time>2026-05-01T12:37:06.62Z</time></trkpt><trkpt lat="45.7720964" lon="11.6349251"><ele>302.0</ele><time>2026-05-01T12:37:07.611Z</time></trkpt><trkpt lat="45.7721006" lon="11.6350704"><ele>302.0</ele><time>2026-05-01T12:37:08.611Z</time></trkpt><trkpt lat="45.772105" lon="11.6351996"><ele>302.0</ele><time>2026-05-01T12:37:09.609Z</time></trkpt><trkpt lat="45.7721098" lon="11.6353093"><ele>302.0</ele><time>2026-05-01T12:37:10.61Z</time></trkpt><trkpt lat="45.7721175" lon="11.6354071"><ele>302.0</ele><time>2026-05-01T12:37:11.602Z</time></trkpt><trkpt lat="45.7721268" lon="11.6355532"><ele>301.33333333333337</ele><time>2026-05-01T12:37:13.604Z</time></trkpt><trkpt lat="45.772067" lon="11.6356031"><ele>300.6666666666667</ele><time>2026-05-01T12:37:16.6Z</time></trkpt><trkpt lat="45.7720069" lon="11.6355294"><ele>300.0</ele><time>2026-05-01T12:37:18.606Z</time></trkpt><trkpt lat="45.771969" lon="11.6354395"><ele>299.3333333333333</ele><time>2026-05-01T12:37:19.604Z</time></trkpt><trkpt lat="45.7719112" lon="11.6353464"><ele>298.66666666666663</ele><time>2026-05-01T12:37:20.6Z</time></trkpt><trkpt lat="45.7718487" lon="11.6352488"><ele>298.0</ele><time>2026-05-01T12:37:21.616Z</time></trkpt><trkpt lat="45.7717567" lon="11.6352014"><ele>294.8</ele><time>2026-05-01T12:37:22.613Z</time></trkpt><trkpt lat="45.7716602" lon="11.6351676"><ele>291.6</ele><time>2026-05-01T12:37:23.6Z</time></trkpt><trkpt lat="45.7715557" lon="11.6351398"><ele>288.4</ele><time>2026-05-01T12:37:24.603Z</time></trkpt><trkpt lat="45.7714565" lon="11.6351159"><ele>285.2</ele><time>2026-05-01T12:37:25.596Z</time></trkpt><trkpt lat="45.7713597" lon="11.6350913"><ele>282.0</ele><time>2026-05-01T12:37:26.608Z</time></trkpt><trkpt lat="45.771263" lon="11.6350657"><ele>282.0</ele><time>2026-05-01T12:37:27.614Z</time></trkpt><trkpt lat="45.7711698" lon="11.6350384"><ele>282.0</ele><time>2026-05-01T12:37:28.597Z</time></trkpt><trkpt lat="45.7710827" lon="11.6350192"><ele>282.0</ele><time>2026-05-01T12:37:29.606Z</time></trkpt><trkpt lat="45.7709937" lon="11.63502"><ele>282.0</ele><time>2026-05-01T12:37:30.608Z</time></trkpt><trkpt lat="45.7709099" lon="11.6350501"><ele>282.0</ele><time>2026-05-01T12:37:31.605Z</time></trkpt><trkpt lat="45.7708365" lon="11.635118"><ele>282.0</ele><time>2026-05-01T12:37:32.608Z</time></trkpt><trkpt lat="45.770769" lon="11.6352344"><ele>279.0</ele><time>2026-05-01T12:37:33.608Z</time></trkpt><trkpt lat="45.7707015" lon="11.6353913"><ele>276.0</ele><time>2026-05-01T12:37:34.61Z</time></trkpt><trkpt lat="45.7706375" lon="11.6355572"><ele>273.0</ele><time>2026-05-01T12:37:35.608Z</time></trkpt><trkpt lat="45.7705857" lon="11.6357152"><ele>270.0</ele><time>2026-05-01T12:37:36.613Z</time></trkpt><trkpt lat="45.7705405" lon="11.6358866"><ele>270.0</ele><time>2026-05-01T12:37:37.605Z</time></trkpt><trkpt lat="45.7705084" lon="11.6360577"><ele>270.0</ele><time>2026-05-01T12:37:38.602Z</time></trkpt><trkpt lat="45.7704795" lon="11.6362386"><ele>270.0</ele><time>2026-05-01T12:37:39.581Z</time></trkpt><trkpt lat="45.7704478" lon="11.6364271"><ele>270.0</ele><time>2026-05-01T12:37:40.598Z</time></trkpt><trkpt lat="45.7704169" lon="11.636624"><ele>270.5</ele><time>2026-05-01T12:37:41.601Z</time></trkpt><trkpt lat="45.7703935" lon="11.6368226"><ele>271.0</ele><time>2026-05-01T12:37:42.601Z</time></trkpt><trkpt lat="45.770387" lon="11.6370223"><ele>271.5</ele><time>2026-05-01T12:37:43.59Z</time></trkpt><trkpt lat="45.7703959" lon="11.6372284"><ele>272.0</ele><time>2026-05-01T12:37:44.592Z</time></trkpt><trkpt lat="45.7704156" lon="11.6374381"><ele>270.75</ele><time>2026-05-01T12:37:45.597Z</time></trkpt><trkpt lat="45.7704415" lon="11.6376397"><ele>269.5</ele><time>2026-05-01T12:37:46.602Z</time></trkpt><trkpt lat="45.7704785" lon="11.637827"><ele>268.25</ele><time>2026-05-01T12:37:47.596Z</time></trkpt><trkpt lat="45.7705311" lon="11.6380019"><ele>267.0</ele><time>2026-05-01T12:37:48.608Z</time></trkpt><trkpt lat="45.7705891" lon="11.6381675"><ele>265.6666666666667</ele><time>2026-05-01T12:37:49.618Z</time></trkpt><trkpt lat="45.7706421" lon="11.6383141"><ele>264.3333333333333</ele><time>2026-05-01T12:37:50.618Z</time></trkpt><trkpt lat="45.7706817" lon="11.6384455"><ele>263.0</ele><time>2026-05-01T12:37:51.593Z</time></trkpt><trkpt lat="45.7706969" lon="11.6385673"><ele>261.66666666666663</ele><time>2026-05-01T12:37:52.61Z</time></trkpt><trkpt lat="45.7706753" lon="11.6386744"><ele>260.3333333333333</ele><time>2026-05-01T12:37:53.6Z</time></trkpt><trkpt lat="45.7706238" lon="11.6387417"><ele>259.0</ele><time>2026-05-01T12:37:54.608Z</time></trkpt><trkpt lat="45.7705447" lon="11.6388184"><ele>257.75</ele><time>2026-05-01T12:37:55.607Z</time></trkpt><trkpt lat="45.7704441" lon="11.6388935"><ele>256.5</ele><time>2026-05-01T12:37:56.605Z</time></trkpt><trkpt lat="45.7703215" lon="11.6389561"><ele>255.25</ele><time>2026-05-01T12:37:57.605Z</time></trkpt><trkpt lat="45.7701856" lon="11.6390043"><ele>254.0</ele><time>2026-05-01T12:37:58.616Z</time></trkpt><trkpt lat="45.7700412" lon="11.6390448"><ele>252.66666666666669</ele><time>2026-05-01T12:37:59.613Z</time></trkpt><trkpt lat="45.7698902" lon="11.6390875"><ele>251.33333333333331</ele><time>2026-05-01T12:38:00.615Z</time></trkpt><trkpt lat="45.7697392" lon="11.6391321"><ele>250.0</ele><time>2026-05-01T12:38:01.608Z</time></trkpt><trkpt lat="45.7695895" lon="11.6391786"><ele>250.0</ele><time>2026-05-01T12:38:02.617Z</time></trkpt><trkpt lat="45.7694388" lon="11.6392287"><ele>250.0</ele><time>2026-05-01T12:38:03.611Z</time></trkpt><trkpt lat="45.7692846" lon="11.6392794"><ele>250.0</ele><time>2026-05-01T12:38:04.614Z</time></trkpt><trkpt lat="45.7691286" lon="11.6393405"><ele>250.66666666666666</ele><time>2026-05-01T12:38:05.607Z</time></trkpt><trkpt lat="45.7689755" lon="11.6394186"><ele>251.33333333333331</ele><time>2026-05-01T12:38:06.606Z</time></trkpt><trkpt lat="45.7688303" lon="11.6395109"><ele>252.0</ele><time>2026-05-01T12:38:07.613Z</time></trkpt><trkpt lat="45.7686985" lon="11.6396087"><ele>252.0</ele><time>2026-05-01T12:38:08.612Z</time></trkpt><trkpt lat="45.7685772" lon="11.6397152"><ele>252.0</ele><time>2026-05-01T12:38:09.61Z</time></trkpt><trkpt lat="45.7684723" lon="11.6398387"><ele>252.0</ele><time>2026-05-01T12:38:10.609Z</time></trkpt><trkpt lat="45.7683767" lon="11.6399911"><ele>252.0</ele><time>2026-05-01T12:38:11.611Z</time></trkpt><trkpt lat="45.7682829" lon="11.6401675"><ele>245.0</ele><time>2026-05-01T12:38:12.61Z</time></trkpt><trkpt lat="45.7681856" lon="11.6403541"><ele>238.0</ele><time>2026-05-01T12:38:13.613Z</time></trkpt><trkpt lat="45.7680839" lon="11.6405367"><ele>231.0</ele><time>2026-05-01T12:38:14.61Z</time></trkpt><trkpt lat="45.767989" lon="11.6407068"><ele>231.0</ele><time>2026-05-01T12:38:15.616Z</time></trkpt><trkpt lat="45.7679099" lon="11.6408894"><ele>231.0</ele><time>2026-05-01T12:38:16.621Z</time></trkpt><trkpt lat="45.7678469" lon="11.6410804"><ele>231.0</ele><time>2026-05-01T12:38:17.595Z</time></trkpt><trkpt lat="45.7677947" lon="11.6412581"><ele>231.0</ele><time>2026-05-01T12:38:18.608Z</time></trkpt><trkpt lat="45.7677418" lon="11.6414153"><ele>227.33333333333334</ele><time>2026-05-01T12:38:19.608Z</time></trkpt><trkpt lat="45.7676842" lon="11.6415424"><ele>223.66666666666669</ele><time>2026-05-01T12:38:20.597Z</time></trkpt><trkpt lat="45.7676222" lon="11.6416363"><ele>220.0</ele><time>2026-05-01T12:38:21.603Z</time></trkpt><trkpt lat="45.7675643" lon="11.6417059"><ele>216.33333333333334</ele><time>2026-05-01T12:38:22.603Z</time></trkpt><trkpt lat="45.7674963" lon="11.6417172"><ele>212.66666666666669</ele><time>2026-05-01T12:38:23.608Z</time></trkpt><trkpt lat="45.7674307" lon="11.6417016"><ele>209.0</ele><time>2026-05-01T12:38:24.597Z</time></trkpt><trkpt lat="45.7673619" lon="11.6416468"><ele>209.0</ele><time>2026-05-01T12:38:25.589Z</time></trkpt><trkpt lat="45.7672774" lon="11.6415696"><ele>209.0</ele><time>2026-05-01T12:38:26.604Z</time></trkpt><trkpt lat="45.7671756" lon="11.6415014"><ele>209.0</ele><time>2026-05-01T12:38:27.602Z</time></trkpt><trkpt lat="45.7670531" lon="11.6414492"><ele>209.0</ele><time>2026-05-01T12:38:28.591Z</time></trkpt><trkpt lat="45.7669176" lon="11.6414315"><ele>206.25</ele><time>2026-05-01T12:38:29.602Z</time></trkpt><trkpt lat="45.7667742" lon="11.6414512"><ele>203.5</ele><time>2026-05-01T12:38:30.606Z</time></trkpt><trkpt lat="45.7666349" lon="11.6414809"><ele>200.75</ele><time>2026-05-01T12:38:31.595Z</time></trkpt><trkpt lat="45.7664997" lon="11.6414939"><ele>198.0</ele><time>2026-05-01T12:38:32.612Z</time></trkpt><trkpt lat="45.766381" lon="11.6415044"><ele>198.0</ele><time>2026-05-01T12:38:33.604Z</time></trkpt><trkpt lat="45.7662567" lon="11.6414359"><ele>198.0</ele><time>2026-05-01T12:38:34.605Z</time></trkpt><trkpt lat="45.7661276" lon="11.6413608"><ele>198.0</ele><time>2026-05-01T12:38:35.614Z</time></trkpt><trkpt lat="45.7659977" lon="11.6412549"><ele>198.0</ele><time>2026-05-01T12:38:36.606Z</time></trkpt><trkpt lat="45.7658652" lon="11.6411322"><ele>193.33333333333334</ele><time>2026-05-01T12:38:37.61Z</time></trkpt><trkpt lat="45.7657315" lon="11.6409974"><ele>188.66666666666669</ele><time>2026-05-01T12:38:38.603Z</time></trkpt><trkpt lat="45.7656014" lon="11.6408721"><ele>184.0</ele><time>2026-05-01T12:38:39.598Z</time></trkpt><trkpt lat="45.7654829" lon="11.6407482"><ele>184.0</ele><time>2026-05-01T12:38:40.611Z</time></trkpt><trkpt lat="45.7653681" lon="11.6406297"><ele>184.0</ele><time>2026-05-01T12:38:41.613Z</time></trkpt><trkpt lat="45.7652579" lon="11.640521"><ele>184.0</ele><time>2026-05-01T12:38:42.613Z</time></trkpt><trkpt lat="45.7651537" lon="11.6403982"><ele>184.0</ele><time>2026-05-01T12:38:43.605Z</time></trkpt><trkpt lat="45.7650519" lon="11.6403177"><ele>182.75</ele><time>2026-05-01T12:38:44.621Z</time></trkpt><trkpt lat="45.76494" lon="11.6402791"><ele>181.5</ele><time>2026-05-01T12:38:45.603Z</time></trkpt><trkpt lat="45.7648218" lon="11.6402835"><ele>180.25</ele><time>2026-05-01T12:38:46.601Z</time></trkpt><trkpt lat="45.7646955" lon="11.640299"><ele>179.0</ele><time>2026-05-01T12:38:47.597Z</time></trkpt><trkpt lat="45.7646018" lon="11.640417"><ele>179.0</ele><time>2026-05-01T12:38:48.605Z</time></trkpt><trkpt lat="45.7645063" lon="11.6405687"><ele>179.0</ele><time>2026-05-01T12:38:49.613Z</time></trkpt><trkpt lat="45.7644384" lon="11.6407819"><ele>179.0</ele><time>2026-05-01T12:38:50.62Z</time></trkpt><trkpt lat="45.7643575" lon="11.6409799"><ele>173.0</ele><time>2026-05-01T12:38:51.621Z</time></trkpt><trkpt lat="45.7642527" lon="11.6411382"><ele>167.0</ele><time>2026-05-01T12:38:52.611Z</time></trkpt><trkpt lat="45.7641364" lon="11.6412802"><ele>161.0</ele><time>2026-05-01T12:38:53.613Z</time></trkpt><trkpt lat="45.7640171" lon="11.6414063"><ele>161.0</ele><time>2026-05-01T12:38:54.615Z</time></trkpt><trkpt lat="45.7638941" lon="11.6415215"><ele>161.0</ele><time>2026-05-01T12:38:55.613Z</time></trkpt><trkpt lat="45.7637793" lon="11.6416382"><ele>161.0</ele><time>2026-05-01T12:38:56.601Z</time></trkpt><trkpt lat="45.7636862" lon="11.6417763"><ele>161.0</ele><time>2026-05-01T12:38:57.61Z</time></trkpt><trkpt lat="45.7635977" lon="11.6419481"><ele>155.0</ele><time>2026-05-01T12:38:58.612Z</time></trkpt><trkpt lat="45.7635178" lon="11.6421396"><ele>149.0</ele><time>2026-05-01T12:38:59.616Z</time></trkpt><trkpt lat="45.7634347" lon="11.6423355"><ele>143.0</ele><time>2026-05-01T12:39:00.609Z</time></trkpt><trkpt lat="45.7633469" lon="11.6425343"><ele>143.0</ele><time>2026-05-01T12:39:01.602Z</time></trkpt><trkpt lat="45.7632603" lon="11.6427341"><ele>143.0</ele><time>2026-05-01T12:39:02.603Z</time></trkpt><trkpt lat="45.7631721" lon="11.6429364"><ele>143.0</ele><time>2026-05-01T12:39:03.611Z</time></trkpt><trkpt lat="45.7630847" lon="11.6431459"><ele>143.0</ele><time>2026-05-01T12:39:04.613Z</time></trkpt><trkpt lat="45.7629976" lon="11.6433524"><ele>143.0</ele><time>2026-05-01T12:39:05.595Z</time></trkpt><trkpt lat="45.7629085" lon="11.6435581"><ele>143.0</ele><time>2026-05-01T12:39:06.614Z</time></trkpt><trkpt lat="45.7628168" lon="11.6437635"><ele>141.66666666666666</ele><time>2026-05-01T12:39:07.608Z</time></trkpt><trkpt lat="45.7627265" lon="11.6439594"><ele>140.33333333333334</ele><time>2026-05-01T12:39:08.612Z</time></trkpt><trkpt lat="45.7626398" lon="11.6441501"><ele>139.0</ele><time>2026-05-01T12:39:09.604Z</time></trkpt><trkpt lat="45.7625611" lon="11.644338"><ele>136.5</ele><time>2026-05-01T12:39:10.604Z</time></trkpt><trkpt lat="45.7624925" lon="11.644527"><ele>134.0</ele><time>2026-05-01T12:39:11.605Z</time></trkpt><trkpt lat="45.7624344" lon="11.6447168"><ele>131.5</ele><time>2026-05-01T12:39:12.606Z</time></trkpt><trkpt lat="45.7623805" lon="11.6449001"><ele>129.0</ele><time>2026-05-01T12:39:13.61Z</time></trkpt><trkpt lat="45.7623288" lon="11.6450741"><ele>129.0</ele><time>2026-05-01T12:39:14.606Z</time></trkpt><trkpt lat="45.7622777" lon="11.6452413"><ele>129.0</ele><time>2026-05-01T12:39:15.616Z</time></trkpt><trkpt lat="45.7622243" lon="11.6453975"><ele>129.0</ele><time>2026-05-01T12:39:16.608Z</time></trkpt><trkpt lat="45.7621601" lon="11.6455421"><ele>129.0</ele><time>2026-05-01T12:39:17.603Z</time></trkpt><trkpt lat="45.7620938" lon="11.6456931"><ele>129.0</ele><time>2026-05-01T12:39:18.611Z</time></trkpt><trkpt lat="45.761996" lon="11.6458309"><ele>129.0</ele><time>2026-05-01T12:39:19.605Z</time></trkpt><trkpt lat="45.7618997" lon="11.6459782"><ele>129.0</ele><time>2026-05-01T12:39:20.607Z</time></trkpt><trkpt lat="45.7618122" lon="11.6461245"><ele>129.0</ele><time>2026-05-01T12:39:21.601Z</time></trkpt><trkpt lat="45.7617242" lon="11.6462777"><ele>128.75</ele><time>2026-05-01T12:39:22.609Z</time></trkpt><trkpt lat="45.7616299" lon="11.6464264"><ele>128.5</ele><time>2026-05-01T12:39:23.611Z</time></trkpt><trkpt lat="45.7615428" lon="11.6465853"><ele>128.25</ele><time>2026-05-01T12:39:24.602Z</time></trkpt><trkpt lat="45.7614523" lon="11.646739"><ele>128.0</ele><time>2026-05-01T12:39:25.614Z</time></trkpt><trkpt lat="45.761375" lon="11.6468878"><ele>127.5</ele><time>2026-05-01T12:39:26.608Z</time></trkpt><trkpt lat="45.7612967" lon="11.6470269"><ele>127.0</ele><time>2026-05-01T12:39:27.608Z</time></trkpt><trkpt lat="45.7612092" lon="11.6471586"><ele>126.5</ele><time>2026-05-01T12:39:28.602Z</time></trkpt><trkpt lat="45.7611025" lon="11.6472751"><ele>126.0</ele><time>2026-05-01T12:39:29.604Z</time></trkpt><trkpt lat="45.7609778" lon="11.6473604"><ele>126.0</ele><time>2026-05-01T12:39:30.603Z</time></trkpt><trkpt lat="45.7608442" lon="11.6474148"><ele>126.0</ele><time>2026-05-01T12:39:31.598Z</time></trkpt><trkpt lat="45.7606979" lon="11.6474399"><ele>126.0</ele><time>2026-05-01T12:39:32.614Z</time></trkpt><trkpt lat="45.7605387" lon="11.647449"><ele>126.0</ele><time>2026-05-01T12:39:33.613Z</time></trkpt><trkpt lat="45.7603716" lon="11.6474589"><ele>126.0</ele><time>2026-05-01T12:39:34.596Z</time></trkpt><trkpt lat="45.7602025" lon="11.647487"><ele>126.0</ele><time>2026-05-01T12:39:35.608Z</time></trkpt><trkpt lat="45.7600368" lon="11.6475469"><ele>126.0</ele><time>2026-05-01T12:39:36.611Z</time></trkpt><trkpt lat="45.759875" lon="11.6476252"><ele>126.33333333333334</ele><time>2026-05-01T12:39:37.608Z</time></trkpt><trkpt lat="45.7597172" lon="11.6477127"><ele>126.66666666666667</ele><time>2026-05-01T12:39:38.612Z</time></trkpt><trkpt lat="45.7595589" lon="11.6477972"><ele>127.0</ele><time>2026-05-01T12:39:39.616Z</time></trkpt><trkpt lat="45.759404" lon="11.647879"><ele>126.33333333333334</ele><time>2026-05-01T12:39:40.604Z</time></trkpt><trkpt lat="45.7592562" lon="11.6479604"><ele>125.66666666666666</ele><time>2026-05-01T12:39:41.611Z</time></trkpt><trkpt lat="45.7591083" lon="11.6480408"><ele>125.0</ele><time>2026-05-01T12:39:42.607Z</time></trkpt><trkpt lat="45.7589598" lon="11.6481212"><ele>125.0</ele><time>2026-05-01T12:39:43.609Z</time></trkpt><trkpt lat="45.7588115" lon="11.6481999"><ele>125.0</ele><time>2026-05-01T12:39:44.613Z</time></trkpt><trkpt lat="45.7586654" lon="11.6482778"><ele>125.0</ele><time>2026-05-01T12:39:45.61Z</time></trkpt><trkpt lat="45.7585203" lon="11.6483563"><ele>125.0</ele><time>2026-05-01T12:39:46.614Z</time></trkpt><trkpt lat="45.7583756" lon="11.6484396"><ele>125.0</ele><time>2026-05-01T12:39:47.606Z</time></trkpt><trkpt lat="45.7582358" lon="11.6485413"><ele>125.0</ele><time>2026-05-01T12:39:48.615Z</time></trkpt><trkpt lat="45.7581037" lon="11.6486535"><ele>125.0</ele><time>2026-05-01T12:39:49.616Z</time></trkpt><trkpt lat="45.7579896" lon="11.6488339"><ele>125.0</ele><time>2026-05-01T12:39:50.606Z</time></trkpt><trkpt lat="45.7578877" lon="11.6490173"><ele>125.0</ele><time>2026-05-01T12:39:51.614Z</time></trkpt><trkpt lat="45.7577878" lon="11.6491831"><ele>123.0</ele><time>2026-05-01T12:39:52.615Z</time></trkpt><trkpt lat="45.7576966" lon="11.6493542"><ele>121.0</ele><time>2026-05-01T12:39:53.609Z</time></trkpt><trkpt lat="45.7576079" lon="11.6495263"><ele>119.0</ele><time>2026-05-01T12:39:54.611Z</time></trkpt><trkpt lat="45.7575415" lon="11.6497295"><ele>118.66666666666666</ele><time>2026-05-01T12:39:55.609Z</time></trkpt><trkpt lat="45.757496" lon="11.6499394"><ele>118.33333333333334</ele><time>2026-05-01T12:39:56.614Z</time></trkpt><trkpt lat="45.7574601" lon="11.6501596"><ele>118.0</ele><time>2026-05-01T12:39:57.615Z</time></trkpt><trkpt lat="45.7574277" lon="11.6503768"><ele>117.75</ele><time>2026-05-01T12:39:58.609Z</time></trkpt><trkpt lat="45.7573926" lon="11.6505863"><ele>117.5</ele><time>2026-05-01T12:39:59.607Z</time></trkpt><trkpt lat="45.7573504" lon="11.6507835"><ele>117.25</ele><time>2026-05-01T12:40:00.616Z</time></trkpt><trkpt lat="45.7572904" lon="11.6509569"><ele>117.0</ele><time>2026-05-01T12:40:01.605Z</time></trkpt><trkpt lat="45.7572151" lon="11.6511176"><ele>116.75</ele><time>2026-05-01T12:40:02.617Z</time></trkpt><trkpt lat="45.7571291" lon="11.6512644"><ele>116.5</ele><time>2026-05-01T12:40:03.614Z</time></trkpt><trkpt lat="45.757034" lon="11.6514079"><ele>116.25</ele><time>2026-05-01T12:40:04.605Z</time></trkpt><trkpt lat="45.75694" lon="11.6515532"><ele>116.0</ele><time>2026-05-01T12:40:05.611Z</time></trkpt><trkpt lat="45.7568465" lon="11.651701"><ele>116.0</ele><time>2026-05-01T12:40:06.615Z</time></trkpt><trkpt lat="45.7567522" lon="11.651846"><ele>116.0</ele><time>2026-05-01T12:40:07.603Z</time></trkpt><trkpt lat="45.7566581" lon="11.6519897"><ele>116.0</ele><time>2026-05-01T12:40:08.61Z</time></trkpt><trkpt lat="45.7565627" lon="11.6521342"><ele>116.0</ele><time>2026-05-01T12:40:09.625Z</time></trkpt><trkpt lat="45.7564686" lon="11.6522813"><ele>116.0</ele><time>2026-05-01T12:40:10.618Z</time></trkpt><trkpt lat="45.7563782" lon="11.6524326"><ele>116.0</ele><time>2026-05-01T12:40:11.62Z</time></trkpt><trkpt lat="45.7562967" lon="11.6525855"><ele>116.0</ele><time>2026-05-01T12:40:12.608Z</time></trkpt><trkpt lat="45.7562189" lon="11.6527411"><ele>116.0</ele><time>2026-05-01T12:40:13.608Z</time></trkpt><trkpt lat="45.756148" lon="11.6529045"><ele>115.75</ele><time>2026-05-01T12:40:14.608Z</time></trkpt><trkpt lat="45.7560801" lon="11.6530671"><ele>115.5</ele><time>2026-05-01T12:40:15.62Z</time></trkpt><trkpt lat="45.7560175" lon="11.6532258"><ele>115.25</ele><time>2026-05-01T12:40:16.617Z</time></trkpt><trkpt lat="45.7559559" lon="11.6533841"><ele>115.0</ele><time>2026-05-01T12:40:17.615Z</time></trkpt><trkpt lat="45.7558964" lon="11.653536"><ele>114.0</ele><time>2026-05-01T12:40:18.601Z</time></trkpt><trkpt lat="45.7558387" lon="11.6536917"><ele>113.0</ele><time>2026-05-01T12:40:19.609Z</time></trkpt><trkpt lat="45.7557833" lon="11.6538483"><ele>112.0</ele><time>2026-05-01T12:40:20.608Z</time></trkpt><trkpt lat="45.7557268" lon="11.6540118"><ele>111.0</ele><time>2026-05-01T12:40:21.609Z</time></trkpt><trkpt lat="45.7556674" lon="11.6541933"><ele>111.0</ele><time>2026-05-01T12:40:22.61Z</time></trkpt><trkpt lat="45.7555984" lon="11.6543928"><ele>111.0</ele><time>2026-05-01T12:40:23.598Z</time></trkpt><trkpt lat="45.755518" lon="11.6545989"><ele>111.0</ele><time>2026-05-01T12:40:24.61Z</time></trkpt><trkpt lat="45.7554293" lon="11.6548091"><ele>111.0</ele><time>2026-05-01T12:40:25.591Z</time></trkpt><trkpt lat="45.7553374" lon="11.6550293"><ele>111.0</ele><time>2026-05-01T12:40:26.609Z</time></trkpt><trkpt lat="45.755245" lon="11.6552585"><ele>111.0</ele><time>2026-05-01T12:40:27.609Z</time></trkpt><trkpt lat="45.7551603" lon="11.6554966"><ele>111.0</ele><time>2026-05-01T12:40:28.606Z</time></trkpt><trkpt lat="45.7550865" lon="11.6557476"><ele>111.0</ele><time>2026-05-01T12:40:29.618Z</time></trkpt><trkpt lat="45.7550263" lon="11.6560156"><ele>111.0</ele><time>2026-05-01T12:40:30.606Z</time></trkpt><trkpt lat="45.75498" lon="11.6563089"><ele>111.0</ele><time>2026-05-01T12:40:31.614Z</time></trkpt><trkpt lat="45.7549347" lon="11.6566193"><ele>111.0</ele><time>2026-05-01T12:40:32.611Z</time></trkpt><trkpt lat="45.7548855" lon="11.6569176"><ele>111.0</ele><time>2026-05-01T12:40:33.607Z</time></trkpt><trkpt lat="45.7548351" lon="11.6572014"><ele>110.66666666666666</ele><time>2026-05-01T12:40:34.612Z</time></trkpt><trkpt lat="45.754788" lon="11.6574647"><ele>110.33333333333333</ele><time>2026-05-01T12:40:35.611Z</time></trkpt><trkpt lat="45.7547447" lon="11.6577114"><ele>110.0</ele><time>2026-05-01T12:40:36.617Z</time></trkpt><trkpt lat="45.7547054" lon="11.6579409"><ele>110.0</ele><time>2026-05-01T12:40:37.607Z</time></trkpt><trkpt lat="45.75467" lon="11.6581579"><ele>110.0</ele><time>2026-05-01T12:40:38.613Z</time></trkpt><trkpt lat="45.754635" lon="11.6583703"><ele>110.0</ele><time>2026-05-01T12:40:39.612Z</time></trkpt><trkpt lat="45.7546019" lon="11.658582"><ele>109.5</ele><time>2026-05-01T12:40:40.609Z</time></trkpt><trkpt lat="45.7545702" lon="11.658793"><ele>109.0</ele><time>2026-05-01T12:40:41.59Z</time></trkpt><trkpt lat="45.7545382" lon="11.6590003"><ele>108.5</ele><time>2026-05-01T12:40:42.597Z</time></trkpt><trkpt lat="45.754508" lon="11.6591897"><ele>108.0</ele><time>2026-05-01T12:40:43.611Z</time></trkpt><trkpt lat="45.7544779" lon="11.6593747"><ele>108.0</ele><time>2026-05-01T12:40:44.6Z</time></trkpt><trkpt lat="45.7544479" lon="11.6595574"><ele>108.0</ele><time>2026-05-01T12:40:45.596Z</time></trkpt><trkpt lat="45.7544187" lon="11.6597388"><ele>108.0</ele><time>2026-05-01T12:40:46.614Z</time></trkpt><trkpt lat="45.7543901" lon="11.6599213"><ele>108.0</ele><time>2026-05-01T12:40:47.609Z</time></trkpt><trkpt lat="45.754362" lon="11.6600945"><ele>108.0</ele><time>2026-05-01T12:40:48.611Z</time></trkpt><trkpt lat="45.754336" lon="11.6602562"><ele>108.00000000000001</ele><time>2026-05-01T12:40:49.611Z</time></trkpt><trkpt lat="45.7543102" lon="11.6604181"><ele>108.00000000000001</ele><time>2026-05-01T12:40:50.613Z</time></trkpt><trkpt lat="45.7542857" lon="11.6605704"><ele>108.0</ele><time>2026-05-01T12:40:51.606Z</time></trkpt><trkpt lat="45.754264" lon="11.6607098"><ele>108.0</ele><time>2026-05-01T12:40:52.608Z</time></trkpt><trkpt lat="45.7542412" lon="11.6608443"><ele>108.0</ele><time>2026-05-01T12:40:53.611Z</time></trkpt><trkpt lat="45.7542037" lon="11.6609608"><ele>108.00000000000001</ele><time>2026-05-01T12:40:54.602Z</time></trkpt><trkpt lat="45.7541462" lon="11.6610459"><ele>108.00000000000001</ele><time>2026-05-01T12:40:55.605Z</time></trkpt><trkpt lat="45.7540717" lon="11.661108"><ele>108.0</ele><time>2026-05-01T12:40:56.605Z</time></trkpt><trkpt lat="45.753982" lon="11.661146"><ele>108.0</ele><time>2026-05-01T12:40:57.608Z</time></trkpt><trkpt lat="45.753875" lon="11.6611622"><ele>107.75</ele><time>2026-05-01T12:40:58.605Z</time></trkpt><trkpt lat="45.7537561" lon="11.661164"><ele>107.5</ele><time>2026-05-01T12:40:59.616Z</time></trkpt><trkpt lat="45.7536283" lon="11.661159"><ele>107.25</ele><time>2026-05-01T12:41:00.615Z</time></trkpt><trkpt lat="45.753495" lon="11.6611514"><ele>107.0</ele><time>2026-05-01T12:41:01.617Z</time></trkpt><trkpt lat="45.7533615" lon="11.6611471"><ele>106.75</ele><time>2026-05-01T12:41:02.606Z</time></trkpt><trkpt lat="45.7532274" lon="11.6611448"><ele>106.5</ele><time>2026-05-01T12:41:03.607Z</time></trkpt><trkpt lat="45.7530925" lon="11.6611414"><ele>106.25</ele><time>2026-05-01T12:41:04.612Z</time></trkpt><trkpt lat="45.752965" lon="11.6611261"><ele>106.0</ele><time>2026-05-01T12:41:05.619Z</time></trkpt><trkpt lat="45.7528348" lon="11.6611258"><ele>106.25</ele><time>2026-05-01T12:41:06.612Z</time></trkpt><trkpt lat="45.7527077" lon="11.6611075"><ele>106.5</ele><time>2026-05-01T12:41:07.615Z</time></trkpt><trkpt lat="45.7525817" lon="11.6611068"><ele>106.75</ele><time>2026-05-01T12:41:08.613Z</time></trkpt><trkpt lat="45.7524634" lon="11.6611051"><ele>107.0</ele><time>2026-05-01T12:41:09.631Z</time></trkpt><trkpt lat="45.7523541" lon="11.6610966"><ele>107.0</ele><time>2026-05-01T12:41:10.616Z</time></trkpt><trkpt lat="45.7522481" lon="11.6610917"><ele>106.99999999999999</ele><time>2026-05-01T12:41:11.607Z</time></trkpt><trkpt lat="45.7521401" lon="11.661091"><ele>106.99999999999999</ele><time>2026-05-01T12:41:12.616Z</time></trkpt><trkpt lat="45.7520396" lon="11.6610887"><ele>107.0</ele><time>2026-05-01T12:41:13.614Z</time></trkpt><trkpt lat="45.7519504" lon="11.6610846"><ele>107.0</ele><time>2026-05-01T12:41:14.611Z</time></trkpt><trkpt lat="45.7518596" lon="11.6610868"><ele>107.0</ele><time>2026-05-01T12:41:15.612Z</time></trkpt><trkpt lat="45.751776" lon="11.6610952"><ele>106.99999999999999</ele><time>2026-05-01T12:41:16.616Z</time></trkpt><trkpt lat="45.7517029" lon="11.6611046"><ele>106.99999999999999</ele><time>2026-05-01T12:41:17.608Z</time></trkpt><trkpt lat="45.7516372" lon="11.661118"><ele>107.0</ele><time>2026-05-01T12:41:18.598Z</time></trkpt><trkpt lat="45.7515259" lon="11.6611695"><ele>107.0</ele><time>2026-05-01T12:41:20.62Z</time></trkpt><trkpt lat="45.7514227" lon="11.661249"><ele>106.99999999999999</ele><time>2026-05-01T12:41:22.611Z</time></trkpt><trkpt lat="45.7513675" lon="11.6612977"><ele>107.0</ele><time>2026-05-01T12:41:23.606Z</time></trkpt><trkpt lat="45.7513118" lon="11.6613436"><ele>107.0</ele><time>2026-05-01T12:41:24.622Z</time></trkpt><trkpt lat="45.7512527" lon="11.6613818"><ele>107.0</ele><time>2026-05-01T12:41:25.612Z</time></trkpt><trkpt lat="45.75118" lon="11.661409"><ele>106.99999999999999</ele><time>2026-05-01T12:41:26.614Z</time></trkpt><trkpt lat="45.7510933" lon="11.6614223"><ele>107.0</ele><time>2026-05-01T12:41:27.612Z</time></trkpt><trkpt lat="45.7509959" lon="11.6614348"><ele>106.8</ele><time>2026-05-01T12:41:28.619Z</time></trkpt><trkpt lat="45.750889" lon="11.6614521"><ele>106.6</ele><time>2026-05-01T12:41:29.614Z</time></trkpt><trkpt lat="45.7507787" lon="11.6614628"><ele>106.39999999999999</ele><time>2026-05-01T12:41:30.593Z</time></trkpt><trkpt lat="45.7506661" lon="11.6614836"><ele>106.19999999999999</ele><time>2026-05-01T12:41:31.613Z</time></trkpt><trkpt lat="45.7505576" lon="11.6615091"><ele>106.0</ele><time>2026-05-01T12:41:32.611Z</time></trkpt><trkpt lat="45.7504415" lon="11.6615309"><ele>106.0</ele><time>2026-05-01T12:41:33.612Z</time></trkpt><trkpt lat="45.7503246" lon="11.6615513"><ele>106.0</ele><time>2026-05-01T12:41:34.619Z</time></trkpt><trkpt lat="45.7502072" lon="11.6615701"><ele>106.0</ele><time>2026-05-01T12:41:35.61Z</time></trkpt><trkpt lat="45.7500883" lon="11.6615829"><ele>106.0</ele><time>2026-05-01T12:41:36.609Z</time></trkpt><trkpt lat="45.7499701" lon="11.6616002"><ele>105.75</ele><time>2026-05-01T12:41:37.615Z</time></trkpt><trkpt lat="45.749853" lon="11.6616185"><ele>105.5</ele><time>2026-05-01T12:41:38.619Z</time></trkpt><trkpt lat="45.7497341" lon="11.6616355"><ele>105.25</ele><time>2026-05-01T12:41:39.615Z</time></trkpt><trkpt lat="45.7496133" lon="11.6616519"><ele>105.0</ele><time>2026-05-01T12:41:40.616Z</time></trkpt><trkpt lat="45.7494893" lon="11.6616699"><ele>104.75</ele><time>2026-05-01T12:41:41.608Z</time></trkpt><trkpt lat="45.7493661" lon="11.6616881"><ele>104.5</ele><time>2026-05-01T12:41:42.609Z</time></trkpt><trkpt lat="45.7492412" lon="11.6617067"><ele>104.25</ele><time>2026-05-01T12:41:43.609Z</time></trkpt><trkpt lat="45.7491163" lon="11.6617255"><ele>104.0</ele><time>2026-05-01T12:41:44.601Z</time></trkpt><trkpt lat="45.7489932" lon="11.6617451"><ele>104.0</ele><time>2026-05-01T12:41:45.612Z</time></trkpt><trkpt lat="45.74888" lon="11.6617619"><ele>104.0</ele><time>2026-05-01T12:41:46.609Z</time></trkpt><trkpt lat="45.7487713" lon="11.6617781"><ele>104.0</ele><time>2026-05-01T12:41:47.62Z</time></trkpt><trkpt lat="45.7486612" lon="11.6617949"><ele>104.0</ele><time>2026-05-01T12:41:48.597Z</time></trkpt><trkpt lat="45.7485505" lon="11.6618091"><ele>104.0</ele><time>2026-05-01T12:41:49.602Z</time></trkpt><trkpt lat="45.7484411" lon="11.6618235"><ele>103.6</ele><time>2026-05-01T12:41:50.612Z</time></trkpt><trkpt lat="45.7483383" lon="11.6618394"><ele>103.2</ele><time>2026-05-01T12:41:51.61Z</time></trkpt><trkpt lat="45.7482519" lon="11.6618509"><ele>102.8</ele><time>2026-05-01T12:41:52.617Z</time></trkpt><trkpt lat="45.7481618" lon="11.6618631"><ele>102.39999999999999</ele><time>2026-05-01T12:41:53.614Z</time></trkpt><trkpt lat="45.7480693" lon="11.6618759"><ele>102.0</ele><time>2026-05-01T12:41:54.616Z</time></trkpt><trkpt lat="45.7479816" lon="11.6618894"><ele>102.0</ele><time>2026-05-01T12:41:55.613Z</time></trkpt><trkpt lat="45.7479033" lon="11.6619011"><ele>102.0</ele><time>2026-05-01T12:41:56.608Z</time></trkpt><trkpt lat="45.7478367" lon="11.6619134"><ele>102.0</ele><time>2026-05-01T12:41:57.614Z</time></trkpt><trkpt lat="45.7477275" lon="11.6619316"><ele>102.0</ele><time>2026-05-01T12:41:59.615Z</time></trkpt><trkpt lat="45.7476405" lon="11.6619205"><ele>102.0</ele><time>2026-05-01T12:42:01.612Z</time></trkpt><trkpt lat="45.7475166" lon="11.6618469"><ele>102.25</ele><time>2026-05-01T12:42:03.601Z</time></trkpt><trkpt lat="45.7474328" lon="11.6617719"><ele>102.5</ele><time>2026-05-01T12:42:04.599Z</time></trkpt><trkpt lat="45.7473604" lon="11.6616516"><ele>102.75</ele><time>2026-05-01T12:42:05.602Z</time></trkpt><trkpt lat="45.7473039" lon="11.6614888"><ele>103.0</ele><time>2026-05-01T12:42:06.604Z</time></trkpt><trkpt lat="45.7472543" lon="11.6612944"><ele>102.66666666666667</ele><time>2026-05-01T12:42:07.599Z</time></trkpt><trkpt lat="45.747203" lon="11.6610869"><ele>102.33333333333334</ele><time>2026-05-01T12:42:08.59Z</time></trkpt><trkpt lat="45.7471435" lon="11.6608749"><ele>102.0</ele><time>2026-05-01T12:42:09.607Z</time></trkpt><trkpt lat="45.7470723" lon="11.6606637"><ele>102.0</ele><time>2026-05-01T12:42:10.608Z</time></trkpt><trkpt lat="45.7469938" lon="11.660459"><ele>102.0</ele><time>2026-05-01T12:42:11.617Z</time></trkpt><trkpt lat="45.7469213" lon="11.6602556"><ele>102.0</ele><time>2026-05-01T12:42:12.609Z</time></trkpt><trkpt lat="45.7468347" lon="11.6600739"><ele>102.0</ele><time>2026-05-01T12:42:13.608Z</time></trkpt><trkpt lat="45.7467482" lon="11.6599165"><ele>102.0</ele><time>2026-05-01T12:42:14.611Z</time></trkpt><trkpt lat="45.7466613" lon="11.6597734"><ele>102.0</ele><time>2026-05-01T12:42:15.597Z</time></trkpt><trkpt lat="45.7465763" lon="11.6596444"><ele>102.0</ele><time>2026-05-01T12:42:16.614Z</time></trkpt><trkpt lat="45.7464931" lon="11.659524"><ele>101.8</ele><time>2026-05-01T12:42:17.614Z</time></trkpt><trkpt lat="45.746411" lon="11.659413"><ele>101.6</ele><time>2026-05-01T12:42:18.608Z</time></trkpt><trkpt lat="45.7463392" lon="11.6593101"><ele>101.39999999999999</ele><time>2026-05-01T12:42:19.607Z</time></trkpt><trkpt lat="45.74628" lon="11.6592156"><ele>101.19999999999999</ele><time>2026-05-01T12:42:20.61Z</time></trkpt><trkpt lat="45.7462225" lon="11.6591328"><ele>101.0</ele><time>2026-05-01T12:42:21.609Z</time></trkpt><trkpt lat="45.7461764" lon="11.659052"><ele>101.0</ele><time>2026-05-01T12:42:22.609Z</time></trkpt><trkpt lat="45.7461379" lon="11.65896"><ele>101.0</ele><time>2026-05-01T12:42:23.606Z</time></trkpt><trkpt lat="45.7461061" lon="11.6588601"><ele>101.0</ele><time>2026-05-01T12:42:24.609Z</time></trkpt><trkpt lat="45.7460552" lon="11.6586912"><ele>101.0</ele><time>2026-05-01T12:42:26.591Z</time></trkpt><trkpt lat="45.7459435" lon="11.6586284"><ele>101.0</ele><time>2026-05-01T12:42:28.606Z</time></trkpt><trkpt lat="45.7458806" lon="11.6586392"><ele>100.99999999999999</ele><time>2026-05-01T12:42:29.605Z</time></trkpt><trkpt lat="45.7458146" lon="11.6586767"><ele>101.0</ele><time>2026-05-01T12:42:30.614Z</time></trkpt><trkpt lat="45.7457439" lon="11.6587007"><ele>101.0</ele><time>2026-05-01T12:42:31.602Z</time></trkpt><trkpt lat="45.7456631" lon="11.6586971"><ele>101.0</ele><time>2026-05-01T12:42:32.612Z</time></trkpt><trkpt lat="45.7455773" lon="11.6586865"><ele>100.99999999999999</ele><time>2026-05-01T12:42:33.615Z</time></trkpt><trkpt lat="45.7454883" lon="11.6586434"><ele>101.0</ele><time>2026-05-01T12:42:34.607Z</time></trkpt><trkpt lat="45.7453943" lon="11.6585972"><ele>101.0</ele><time>2026-05-01T12:42:35.613Z</time></trkpt><trkpt lat="45.7452967" lon="11.6585546"><ele>101.0</ele><time>2026-05-01T12:42:36.613Z</time></trkpt><trkpt lat="45.7452007" lon="11.6585175"><ele>101.0</ele><time>2026-05-01T12:42:37.616Z</time></trkpt><trkpt lat="45.7451017" lon="11.6584809"><ele>101.0</ele><time>2026-05-01T12:42:38.615Z</time></trkpt><trkpt lat="45.7449977" lon="11.6584491"><ele>101.0</ele><time>2026-05-01T12:42:39.612Z</time></trkpt><trkpt lat="45.7448957" lon="11.6584221"><ele>100.8</ele><time>2026-05-01T12:42:40.604Z</time></trkpt><trkpt lat="45.7447919" lon="11.658395"><ele>100.6</ele><time>2026-05-01T12:42:41.611Z</time></trkpt><trkpt lat="45.7446879" lon="11.6583743"><ele>100.4</ele><time>2026-05-01T12:42:42.603Z</time></trkpt><trkpt lat="45.7445889" lon="11.658359"><ele>100.2</ele><time>2026-05-01T12:42:43.607Z</time></trkpt><trkpt lat="45.7444908" lon="11.6583493"><ele>100.0</ele><time>2026-05-01T12:42:44.614Z</time></trkpt><trkpt lat="45.7443899" lon="11.6583458"><ele>100.0</ele><time>2026-05-01T12:42:45.608Z</time></trkpt><trkpt lat="45.7442913" lon="11.6583441"><ele>100.0</ele><time>2026-05-01T12:42:46.612Z</time></trkpt><trkpt lat="45.7441917" lon="11.6583449"><ele>100.0</ele><time>2026-05-01T12:42:47.613Z</time></trkpt><trkpt lat="45.7440891" lon="11.6583488"><ele>100.0</ele><time>2026-05-01T12:42:48.618Z</time></trkpt><trkpt lat="45.7439858" lon="11.658356"><ele>100.0</ele><time>2026-05-01T12:42:49.618Z</time></trkpt><trkpt lat="45.7438823" lon="11.6583653"><ele>100.0</ele><time>2026-05-01T12:42:50.622Z</time></trkpt><trkpt lat="45.7437788" lon="11.6583767"><ele>100.0</ele><time>2026-05-01T12:42:51.611Z</time></trkpt><trkpt lat="45.7436752" lon="11.658376"><ele>100.0</ele><time>2026-05-01T12:42:52.62Z</time></trkpt><trkpt lat="45.7435825" lon="11.6583879"><ele>100.0</ele><time>2026-05-01T12:42:53.609Z</time></trkpt><trkpt lat="45.7434753" lon="11.6584043"><ele>100.0</ele><time>2026-05-01T12:42:54.614Z</time></trkpt><trkpt lat="45.7433731" lon="11.6584205"><ele>100.2</ele><time>2026-05-01T12:42:55.614Z</time></trkpt><trkpt lat="45.7432626" lon="11.6584329"><ele>100.4</ele><time>2026-05-01T12:42:56.61Z</time></trkpt><trkpt lat="45.7431463" lon="11.6584463"><ele>100.6</ele><time>2026-05-01T12:42:57.617Z</time></trkpt><trkpt lat="45.7430439" lon="11.6584513"><ele>100.8</ele><time>2026-05-01T12:42:58.611Z</time></trkpt><trkpt lat="45.742939" lon="11.6584664"><ele>101.0</ele><time>2026-05-01T12:42:59.613Z</time></trkpt><trkpt lat="45.7428232" lon="11.6584809"><ele>100.25</ele><time>2026-05-01T12:43:00.619Z</time></trkpt><trkpt lat="45.7426942" lon="11.6584829"><ele>99.5</ele><time>2026-05-01T12:43:01.612Z</time></trkpt><trkpt lat="45.7425529" lon="11.6584823"><ele>98.75</ele><time>2026-05-01T12:43:02.611Z</time></trkpt><trkpt lat="45.7424006" lon="11.6584816"><ele>98.0</ele><time>2026-05-01T12:43:03.611Z</time></trkpt><trkpt lat="45.7422458" lon="11.6584869"><ele>98.0</ele><time>2026-05-01T12:43:04.598Z</time></trkpt><trkpt lat="45.7420876" lon="11.6585033"><ele>98.0</ele><time>2026-05-01T12:43:05.613Z</time></trkpt><trkpt lat="45.7419346" lon="11.6585323"><ele>98.0</ele><time>2026-05-01T12:43:06.616Z</time></trkpt><trkpt lat="45.7417959" lon="11.6585725"><ele>98.0</ele><time>2026-05-01T12:43:07.598Z</time></trkpt><trkpt lat="45.7416704" lon="11.6586156"><ele>98.0</ele><time>2026-05-01T12:43:08.614Z</time></trkpt><trkpt lat="45.7415519" lon="11.658653"><ele>98.0</ele><time>2026-05-01T12:43:09.612Z</time></trkpt><trkpt lat="45.7414429" lon="11.6586586"><ele>98.0</ele><time>2026-05-01T12:43:10.605Z</time></trkpt><trkpt lat="45.7413332" lon="11.6586153"><ele>98.0</ele><time>2026-05-01T12:43:11.617Z</time></trkpt><trkpt lat="45.741239" lon="11.6585907"><ele>98.0</ele><time>2026-05-01T12:43:12.6Z</time></trkpt><trkpt lat="45.7411557" lon="11.6586206"><ele>98.0</ele><time>2026-05-01T12:43:13.608Z</time></trkpt><trkpt lat="45.7410806" lon="11.6587061"><ele>98.0</ele><time>2026-05-01T12:43:14.608Z</time></trkpt><trkpt lat="45.7410331" lon="11.6588359"><ele>98.0</ele><time>2026-05-01T12:43:15.599Z</time></trkpt><trkpt lat="45.7410003" lon="11.6589807"><ele>98.0</ele><time>2026-05-01T12:43:16.609Z</time></trkpt><trkpt lat="45.7409466" lon="11.6591107"><ele>98.0</ele><time>2026-05-01T12:43:17.608Z</time></trkpt><trkpt lat="45.7408582" lon="11.6592067"><ele>98.0</ele><time>2026-05-01T12:43:18.594Z</time></trkpt><trkpt lat="45.740751" lon="11.6592971"><ele>98.0</ele><time>2026-05-01T12:43:19.607Z</time></trkpt><trkpt lat="45.7405995" lon="11.6593329"><ele>98.0</ele><time>2026-05-01T12:43:20.612Z</time></trkpt><trkpt lat="45.7404435" lon="11.659354"><ele>98.0</ele><time>2026-05-01T12:43:21.616Z</time></trkpt><trkpt lat="45.7402648" lon="11.6593911"><ele>98.0</ele><time>2026-05-01T12:43:22.611Z</time></trkpt><trkpt lat="45.7400819" lon="11.6594374"><ele>97.66666666666666</ele><time>2026-05-01T12:43:23.603Z</time></trkpt><trkpt lat="45.7398923" lon="11.6594875"><ele>97.33333333333334</ele><time>2026-05-01T12:43:24.613Z</time></trkpt><trkpt lat="45.7397005" lon="11.6595365"><ele>97.0</ele><time>2026-05-01T12:43:25.606Z</time></trkpt><trkpt lat="45.7395013" lon="11.6595855"><ele>96.0</ele><time>2026-05-01T12:43:26.612Z</time></trkpt><trkpt lat="45.7392997" lon="11.6596365"><ele>95.0</ele><time>2026-05-01T12:43:27.614Z</time></trkpt><trkpt lat="45.7390952" lon="11.6596909"><ele>94.0</ele><time>2026-05-01T12:43:28.619Z</time></trkpt><trkpt lat="45.7388895" lon="11.6597458"><ele>94.0</ele><time>2026-05-01T12:43:29.602Z</time></trkpt><trkpt lat="45.7386821" lon="11.6598014"><ele>94.0</ele><time>2026-05-01T12:43:30.628Z</time></trkpt><trkpt lat="45.7384735" lon="11.6598581"><ele>94.0</ele><time>2026-05-01T12:43:31.614Z</time></trkpt><trkpt lat="45.738264" lon="11.6599127"><ele>94.0</ele><time>2026-05-01T12:43:32.614Z</time></trkpt><trkpt lat="45.7380532" lon="11.659968"><ele>94.0</ele><time>2026-05-01T12:43:33.612Z</time></trkpt><trkpt lat="45.7378419" lon="11.6600226"><ele>94.0</ele><time>2026-05-01T12:43:34.62Z</time></trkpt><trkpt lat="45.7376323" lon="11.6600764"><ele>94.0</ele><time>2026-05-01T12:43:35.615Z</time></trkpt><trkpt lat="45.737422" lon="11.660134"><ele>94.0</ele><time>2026-05-01T12:43:36.616Z</time></trkpt><trkpt lat="45.7372126" lon="11.6601967"><ele>94.0</ele><time>2026-05-01T12:43:37.613Z</time></trkpt><trkpt lat="45.7370044" lon="11.6602725"><ele>93.66666666666666</ele><time>2026-05-01T12:43:38.623Z</time></trkpt><trkpt lat="45.7367985" lon="11.6603672"><ele>93.33333333333333</ele><time>2026-05-01T12:43:39.61Z</time></trkpt><trkpt lat="45.736593" lon="11.6604765"><ele>93.0</ele><time>2026-05-01T12:43:40.598Z</time></trkpt><trkpt lat="45.7363874" lon="11.6605951"><ele>93.0</ele><time>2026-05-01T12:43:41.603Z</time></trkpt><trkpt lat="45.7361791" lon="11.6607206"><ele>93.0</ele><time>2026-05-01T12:43:42.608Z</time></trkpt><trkpt lat="45.7359708" lon="11.6608471"><ele>92.5</ele><time>2026-05-01T12:43:43.612Z</time></trkpt><trkpt lat="45.7357623" lon="11.660973"><ele>92.0</ele><time>2026-05-01T12:43:44.617Z</time></trkpt><trkpt lat="45.7355544" lon="11.6610986"><ele>92.0</ele><time>2026-05-01T12:43:45.6Z</time></trkpt><trkpt lat="45.7353483" lon="11.6612248"><ele>92.0</ele><time>2026-05-01T12:43:46.6Z</time></trkpt><trkpt lat="45.7351419" lon="11.6613517"><ele>92.0</ele><time>2026-05-01T12:43:47.599Z</time></trkpt><trkpt lat="45.7349364" lon="11.6614793"><ele>92.0</ele><time>2026-05-01T12:43:48.623Z</time></trkpt><trkpt lat="45.7347313" lon="11.6616059"><ele>92.0</ele><time>2026-05-01T12:43:49.6Z</time></trkpt><trkpt lat="45.7345271" lon="11.661731"><ele>92.0</ele><time>2026-05-01T12:43:50.613Z</time></trkpt><trkpt lat="45.7343238" lon="11.661856"><ele>92.0</ele><time>2026-05-01T12:43:51.601Z</time></trkpt><trkpt lat="45.7341213" lon="11.6619823"><ele>92.0</ele><time>2026-05-01T12:43:52.592Z</time></trkpt><trkpt lat="45.7339173" lon="11.6621064"><ele>92.0</ele><time>2026-05-01T12:43:53.602Z</time></trkpt><trkpt lat="45.7337141" lon="11.6622282"><ele>91.66666666666667</ele><time>2026-05-01T12:43:54.611Z</time></trkpt><trkpt lat="45.7335117" lon="11.6623485"><ele>91.33333333333333</ele><time>2026-05-01T12:43:55.599Z</time></trkpt><trkpt lat="45.7333106" lon="11.6624678"><ele>91.0</ele><time>2026-05-01T12:43:56.607Z</time></trkpt><trkpt lat="45.7331114" lon="11.6625883"><ele>91.0</ele><time>2026-05-01T12:43:57.629Z</time></trkpt><trkpt lat="45.732911" lon="11.6627069"><ele>91.0</ele><time>2026-05-01T12:43:58.627Z</time></trkpt><trkpt lat="45.7327108" lon="11.6628233"><ele>91.0</ele><time>2026-05-01T12:43:59.635Z</time></trkpt><trkpt lat="45.7325109" lon="11.6629365"><ele>90.0</ele><time>2026-05-01T12:44:00.625Z</time></trkpt><trkpt lat="45.7323117" lon="11.6630496"><ele>89.0</ele><time>2026-05-01T12:44:01.625Z</time></trkpt><trkpt lat="45.732113" lon="11.6631639"><ele>88.0</ele><time>2026-05-01T12:44:02.625Z</time></trkpt><trkpt lat="45.7319154" lon="11.6632781"><ele>87.0</ele><time>2026-05-01T12:44:03.642Z</time></trkpt><trkpt lat="45.7317165" lon="11.6633906"><ele>86.0</ele><time>2026-05-01T12:44:04.652Z</time></trkpt><trkpt lat="45.7315179" lon="11.6635022"><ele>85.0</ele><time>2026-05-01T12:44:05.65Z</time></trkpt><trkpt lat="45.7313257" lon="11.6636123"><ele>85.5</ele><time>2026-05-01T12:44:06.653Z</time></trkpt><trkpt lat="45.7311352" lon="11.6637212"><ele>86.0</ele><time>2026-05-01T12:44:07.622Z</time></trkpt><trkpt lat="45.7307512" lon="11.6639373"><ele>86.66666666666667</ele><time>2026-05-01T12:44:09.643Z</time></trkpt><trkpt lat="45.7305595" lon="11.6640425"><ele>87.33333333333333</ele><time>2026-05-01T12:44:10.629Z</time></trkpt><trkpt lat="45.7303726" lon="11.6641451"><ele>88.0</ele><time>2026-05-01T12:44:11.626Z</time></trkpt><trkpt lat="45.7302037" lon="11.6642388"><ele>88.0</ele><time>2026-05-01T12:44:12.625Z</time></trkpt><trkpt lat="45.730055" lon="11.6643249"><ele>88.0</ele><time>2026-05-01T12:44:13.623Z</time></trkpt><trkpt lat="45.7299251" lon="11.6644271"><ele>88.0</ele><time>2026-05-01T12:44:14.624Z</time></trkpt><trkpt lat="45.7298123" lon="11.6645677"><ele>87.75</ele><time>2026-05-01T12:44:15.625Z</time></trkpt><trkpt lat="45.7297139" lon="11.6647367"><ele>87.5</ele><time>2026-05-01T12:44:16.62Z</time></trkpt><trkpt lat="45.7296286" lon="11.6649049"><ele>87.25</ele><time>2026-05-01T12:44:17.653Z</time></trkpt><trkpt lat="45.7295513" lon="11.6650602"><ele>87.0</ele><time>2026-05-01T12:44:18.676Z</time></trkpt><trkpt lat="45.729483" lon="11.6651996"><ele>87.19999999999999</ele><time>2026-05-01T12:44:19.631Z</time></trkpt><trkpt lat="45.7294196" lon="11.6653125"><ele>87.4</ele><time>2026-05-01T12:44:20.628Z</time></trkpt><trkpt lat="45.7293376" lon="11.6653903"><ele>87.6</ele><time>2026-05-01T12:44:21.623Z</time></trkpt><trkpt lat="45.7292428" lon="11.6654415"><ele>87.80000000000001</ele><time>2026-05-01T12:44:22.625Z</time></trkpt><trkpt lat="45.7291537" lon="11.6655028"><ele>88.0</ele><time>2026-05-01T12:44:23.625Z</time></trkpt><trkpt lat="45.7290817" lon="11.6656042"><ele>87.75</ele><time>2026-05-01T12:44:24.629Z</time></trkpt><trkpt lat="45.7290368" lon="11.6657457"><ele>87.5</ele><time>2026-05-01T12:44:25.625Z</time></trkpt><trkpt lat="45.729012" lon="11.6659165"><ele>87.25</ele><time>2026-05-01T12:44:26.654Z</time></trkpt><trkpt lat="45.7289743" lon="11.6660931"><ele>87.0</ele><time>2026-05-01T12:44:27.626Z</time></trkpt><trkpt lat="45.7289105" lon="11.6662759"><ele>87.0</ele><time>2026-05-01T12:44:28.623Z</time></trkpt><trkpt lat="45.7288339" lon="11.6664682"><ele>87.0</ele><time>2026-05-01T12:44:29.625Z</time></trkpt><trkpt lat="45.7287571" lon="11.6666799"><ele>87.0</ele><time>2026-05-01T12:44:30.623Z</time></trkpt><trkpt lat="45.7286832" lon="11.6669089"><ele>86.66666666666667</ele><time>2026-05-01T12:44:31.627Z</time></trkpt><trkpt lat="45.7286124" lon="11.66715"><ele>86.33333333333334</ele><time>2026-05-01T12:44:32.624Z</time></trkpt><trkpt lat="45.728541" lon="11.6673971"><ele>86.0</ele><time>2026-05-01T12:44:33.624Z</time></trkpt><trkpt lat="45.728469" lon="11.6676488"><ele>86.0</ele><time>2026-05-01T12:44:34.623Z</time></trkpt><trkpt lat="45.7283972" lon="11.6679033"><ele>86.0</ele><time>2026-05-01T12:44:35.625Z</time></trkpt><trkpt lat="45.7283287" lon="11.6681614"><ele>86.0</ele><time>2026-05-01T12:44:36.622Z</time></trkpt><trkpt lat="45.7282694" lon="11.6684243"><ele>85.66666666666667</ele><time>2026-05-01T12:44:37.625Z</time></trkpt><trkpt lat="45.7282221" lon="11.6686963"><ele>85.33333333333333</ele><time>2026-05-01T12:44:38.628Z</time></trkpt><trkpt lat="45.7281835" lon="11.6689749"><ele>85.0</ele><time>2026-05-01T12:44:39.619Z</time></trkpt><trkpt lat="45.7281484" lon="11.6692571"><ele>84.66666666666666</ele><time>2026-05-01T12:44:40.624Z</time></trkpt><trkpt lat="45.7281144" lon="11.6695411"><ele>84.33333333333333</ele><time>2026-05-01T12:44:41.624Z</time></trkpt><trkpt lat="45.7280813" lon="11.6698232"><ele>84.0</ele><time>2026-05-01T12:44:42.626Z</time></trkpt><trkpt lat="45.7280506" lon="11.6700927"><ele>84.33333333333333</ele><time>2026-05-01T12:44:43.629Z</time></trkpt><trkpt lat="45.7280208" lon="11.6703587"><ele>84.66666666666666</ele><time>2026-05-01T12:44:44.626Z</time></trkpt><trkpt lat="45.7279906" lon="11.6706211"><ele>85.0</ele><time>2026-05-01T12:44:45.627Z</time></trkpt><trkpt lat="45.7279616" lon="11.6708721"><ele>85.33333333333333</ele><time>2026-05-01T12:44:46.625Z</time></trkpt><trkpt lat="45.7279344" lon="11.6711086"><ele>85.66666666666667</ele><time>2026-05-01T12:44:47.622Z</time></trkpt><trkpt lat="45.7279068" lon="11.6713336"><ele>86.0</ele><time>2026-05-01T12:44:48.632Z</time></trkpt><trkpt lat="45.7278731" lon="11.671556"><ele>86.0</ele><time>2026-05-01T12:44:49.628Z</time></trkpt><trkpt lat="45.7278254" lon="11.6717729"><ele>86.0</ele><time>2026-05-01T12:44:50.623Z</time></trkpt><trkpt lat="45.7277612" lon="11.6719819"><ele>86.0</ele><time>2026-05-01T12:44:51.627Z</time></trkpt><trkpt lat="45.7276796" lon="11.6721791"><ele>85.66666666666667</ele><time>2026-05-01T12:44:52.624Z</time></trkpt><trkpt lat="45.7275817" lon="11.6723622"><ele>85.33333333333333</ele><time>2026-05-01T12:44:53.622Z</time></trkpt><trkpt lat="45.7274733" lon="11.6725386"><ele>85.0</ele><time>2026-05-01T12:44:54.624Z</time></trkpt><trkpt lat="45.727362" lon="11.6727155"><ele>85.66666666666666</ele><time>2026-05-01T12:44:55.623Z</time></trkpt><trkpt lat="45.7272506" lon="11.6728934"><ele>86.33333333333333</ele><time>2026-05-01T12:44:56.639Z</time></trkpt><trkpt lat="45.7271392" lon="11.6730707"><ele>87.0</ele><time>2026-05-01T12:44:57.626Z</time></trkpt><trkpt lat="45.7270291" lon="11.6732464"><ele>87.0</ele><time>2026-05-01T12:44:58.625Z</time></trkpt><trkpt lat="45.7269264" lon="11.673414"><ele>87.0</ele><time>2026-05-01T12:44:59.622Z</time></trkpt><trkpt lat="45.7268283" lon="11.6735759"><ele>87.0</ele><time>2026-05-01T12:45:00.629Z</time></trkpt><trkpt lat="45.726733" lon="11.6737346"><ele>87.0</ele><time>2026-05-01T12:45:01.626Z</time></trkpt><trkpt lat="45.7266375" lon="11.6738934"><ele>87.0</ele><time>2026-05-01T12:45:02.622Z</time></trkpt><trkpt lat="45.726543" lon="11.674053"><ele>87.0</ele><time>2026-05-01T12:45:03.626Z</time></trkpt><trkpt lat="45.726452" lon="11.6742162"><ele>87.0</ele><time>2026-05-01T12:45:04.626Z</time></trkpt><trkpt lat="45.7263651" lon="11.6743848"><ele>87.0</ele><time>2026-05-01T12:45:05.63Z</time></trkpt><trkpt lat="45.7262839" lon="11.6745601"><ele>87.0</ele><time>2026-05-01T12:45:06.634Z</time></trkpt><trkpt lat="45.7262094" lon="11.6747411"><ele>87.0</ele><time>2026-05-01T12:45:07.624Z</time></trkpt><trkpt lat="45.7261427" lon="11.6749218"><ele>87.0</ele><time>2026-05-01T12:45:08.65Z</time></trkpt><trkpt lat="45.7260848" lon="11.6750884"><ele>86.6</ele><time>2026-05-01T12:45:09.621Z</time></trkpt><trkpt lat="45.7260323" lon="11.6752273"><ele>86.19999999999999</ele><time>2026-05-01T12:45:10.622Z</time></trkpt><trkpt lat="45.7259883" lon="11.675326"><ele>85.8</ele><time>2026-05-01T12:45:11.621Z</time></trkpt><trkpt lat="45.7259016" lon="11.6753772"><ele>85.4</ele><time>2026-05-01T12:45:12.625Z</time></trkpt><trkpt lat="45.7258154" lon="11.6754124"><ele>85.0</ele><time>2026-05-01T12:45:13.624Z</time></trkpt><trkpt lat="45.7256824" lon="11.6754073"><ele>84.66666666666666</ele><time>2026-05-01T12:45:14.627Z</time></trkpt><trkpt lat="45.7255257" lon="11.675404"><ele>84.33333333333333</ele><time>2026-05-01T12:45:15.626Z</time></trkpt><trkpt lat="45.7253504" lon="11.6753964"><ele>84.0</ele><time>2026-05-01T12:45:16.622Z</time></trkpt><trkpt lat="45.7251729" lon="11.6754025"><ele>84.0</ele><time>2026-05-01T12:45:17.623Z</time></trkpt><trkpt lat="45.7249899" lon="11.6754047"><ele>84.0</ele><time>2026-05-01T12:45:18.629Z</time></trkpt><trkpt lat="45.7247973" lon="11.6754011"><ele>84.0</ele><time>2026-05-01T12:45:19.626Z</time></trkpt><trkpt lat="45.7246018" lon="11.6753993"><ele>84.0</ele><time>2026-05-01T12:45:20.622Z</time></trkpt><trkpt lat="45.7244013" lon="11.6753966"><ele>84.0</ele><time>2026-05-01T12:45:21.625Z</time></trkpt><trkpt lat="45.7241965" lon="11.6753924"><ele>84.0</ele><time>2026-05-01T12:45:22.624Z</time></trkpt><trkpt lat="45.7239878" lon="11.6753862"><ele>84.33333333333333</ele><time>2026-05-01T12:45:23.628Z</time></trkpt><trkpt lat="45.7237773" lon="11.6753811"><ele>84.66666666666666</ele><time>2026-05-01T12:45:24.619Z</time></trkpt><trkpt lat="45.7235687" lon="11.6753768"><ele>85.0</ele><time>2026-05-01T12:45:25.622Z</time></trkpt><trkpt lat="45.723361" lon="11.6753731"><ele>84.33333333333333</ele><time>2026-05-01T12:45:26.627Z</time></trkpt><trkpt lat="45.7231544" lon="11.6753694"><ele>83.66666666666667</ele><time>2026-05-01T12:45:27.622Z</time></trkpt><trkpt lat="45.7229486" lon="11.6753638"><ele>83.0</ele><time>2026-05-01T12:45:28.645Z</time></trkpt><trkpt lat="45.7227438" lon="11.6753574"><ele>82.66666666666667</ele><time>2026-05-01T12:45:29.633Z</time></trkpt><trkpt lat="45.7225397" lon="11.6753522"><ele>82.33333333333333</ele><time>2026-05-01T12:45:30.622Z</time></trkpt><trkpt lat="45.7223375" lon="11.6753452"><ele>82.0</ele><time>2026-05-01T12:45:31.625Z</time></trkpt><trkpt lat="45.7221337" lon="11.6753364"><ele>82.0</ele><time>2026-05-01T12:45:32.624Z</time></trkpt><trkpt lat="45.7219399" lon="11.675352"><ele>82.0</ele><time>2026-05-01T12:45:33.626Z</time></trkpt><trkpt lat="45.7217419" lon="11.6753874"><ele>82.0</ele><time>2026-05-01T12:45:34.62Z</time></trkpt><trkpt lat="45.7215511" lon="11.6754407"><ele>81.66666666666666</ele><time>2026-05-01T12:45:35.624Z</time></trkpt><trkpt lat="45.7213596" lon="11.6755144"><ele>81.33333333333333</ele><time>2026-05-01T12:45:36.629Z</time></trkpt><trkpt lat="45.7211765" lon="11.6756166"><ele>81.0</ele><time>2026-05-01T12:45:37.635Z</time></trkpt><trkpt lat="45.7209857" lon="11.6757337"><ele>81.0</ele><time>2026-05-01T12:45:38.625Z</time></trkpt><trkpt lat="45.7208069" lon="11.6758792"><ele>81.0</ele><time>2026-05-01T12:45:39.622Z</time></trkpt><trkpt lat="45.7206343" lon="11.6760347"><ele>81.0</ele><time>2026-05-01T12:45:40.634Z</time></trkpt><trkpt lat="45.7204637" lon="11.6761874"><ele>81.0</ele><time>2026-05-01T12:45:41.62Z</time></trkpt><trkpt lat="45.7202917" lon="11.6763404"><ele>81.0</ele><time>2026-05-01T12:45:42.643Z</time></trkpt><trkpt lat="45.7201212" lon="11.6764944"><ele>81.0</ele><time>2026-05-01T12:45:43.624Z</time></trkpt><trkpt lat="45.7199595" lon="11.6766622"><ele>81.66666666666667</ele><time>2026-05-01T12:45:44.625Z</time></trkpt><trkpt lat="45.719804" lon="11.6768445"><ele>82.33333333333334</ele><time>2026-05-01T12:45:45.627Z</time></trkpt><trkpt lat="45.7196557" lon="11.677037"><ele>83.0</ele><time>2026-05-01T12:45:46.626Z</time></trkpt><trkpt lat="45.7195174" lon="11.6772325"><ele>82.66666666666667</ele><time>2026-05-01T12:45:47.631Z</time></trkpt><trkpt lat="45.7193953" lon="11.6774211"><ele>82.33333333333333</ele><time>2026-05-01T12:45:48.623Z</time></trkpt><trkpt lat="45.7192896" lon="11.6775879"><ele>82.0</ele><time>2026-05-01T12:45:49.625Z</time></trkpt><trkpt lat="45.7191974" lon="11.6777326"><ele>81.8</ele><time>2026-05-01T12:45:50.627Z</time></trkpt><trkpt lat="45.7191209" lon="11.6778569"><ele>81.6</ele><time>2026-05-01T12:45:51.623Z</time></trkpt><trkpt lat="45.7190575" lon="11.6779573"><ele>81.39999999999999</ele><time>2026-05-01T12:45:52.627Z</time></trkpt><trkpt lat="45.7190065" lon="11.6780274"><ele>81.19999999999999</ele><time>2026-05-01T12:45:53.621Z</time></trkpt><trkpt lat="45.7189083" lon="11.6780799"><ele>81.0</ele><time>2026-05-01T12:45:55.621Z</time></trkpt><trkpt lat="45.7188312" lon="11.6780597"><ele>81.0</ele><time>2026-05-01T12:45:56.623Z</time></trkpt><trkpt lat="45.7187342" lon="11.6780141"><ele>81.0</ele><time>2026-05-01T12:45:57.62Z</time></trkpt><trkpt lat="45.7186113" lon="11.6779585"><ele>81.0</ele><time>2026-05-01T12:45:58.627Z</time></trkpt><trkpt lat="45.7184728" lon="11.6779006"><ele>81.0</ele><time>2026-05-01T12:45:59.623Z</time></trkpt><trkpt lat="45.7183154" lon="11.6778389"><ele>81.33333333333333</ele><time>2026-05-01T12:46:00.64Z</time></trkpt><trkpt lat="45.7181502" lon="11.6777762"><ele>81.66666666666666</ele><time>2026-05-01T12:46:01.625Z</time></trkpt><trkpt lat="45.7179764" lon="11.677724"><ele>82.0</ele><time>2026-05-01T12:46:02.625Z</time></trkpt><trkpt lat="45.7177967" lon="11.6776883"><ele>81.66666666666666</ele><time>2026-05-01T12:46:03.627Z</time></trkpt><trkpt lat="45.7176154" lon="11.6776786"><ele>81.33333333333333</ele><time>2026-05-01T12:46:04.622Z</time></trkpt><trkpt lat="45.7174619" lon="11.6776912"><ele>81.0</ele><time>2026-05-01T12:46:05.628Z</time></trkpt><trkpt lat="45.7173369" lon="11.6777168"><ele>81.0</ele><time>2026-05-01T12:46:06.625Z</time></trkpt><trkpt lat="45.7172294" lon="11.67775"><ele>81.0</ele><time>2026-05-01T12:46:07.623Z</time></trkpt><trkpt lat="45.7171325" lon="11.677783"><ele>81.0</ele><time>2026-05-01T12:46:08.621Z</time></trkpt><trkpt lat="45.7170407" lon="11.6778113"><ele>81.0</ele><time>2026-05-01T12:46:09.627Z</time></trkpt><trkpt lat="45.7169436" lon="11.6778402"><ele>81.0</ele><time>2026-05-01T12:46:10.621Z</time></trkpt><trkpt lat="45.7168466" lon="11.6778677"><ele>80.83333333333333</ele><time>2026-05-01T12:46:11.624Z</time></trkpt><trkpt lat="45.716754" lon="11.6778893"><ele>80.66666666666667</ele><time>2026-05-01T12:46:12.621Z</time></trkpt><trkpt lat="45.7166629" lon="11.6779047"><ele>80.5</ele><time>2026-05-01T12:46:13.62Z</time></trkpt><trkpt lat="45.7165821" lon="11.6779155"><ele>80.33333333333334</ele><time>2026-05-01T12:46:14.625Z</time></trkpt><trkpt lat="45.7165024" lon="11.6779211"><ele>80.16666666666667</ele><time>2026-05-01T12:46:15.622Z</time></trkpt><trkpt lat="45.716413" lon="11.6779242"><ele>80.0</ele><time>2026-05-01T12:46:16.653Z</time></trkpt><trkpt lat="45.7163114" lon="11.6779286"><ele>80.0</ele><time>2026-05-01T12:46:17.626Z</time></trkpt><trkpt lat="45.7162" lon="11.6779322"><ele>80.0</ele><time>2026-05-01T12:46:18.624Z</time></trkpt><trkpt lat="45.7160792" lon="11.6779339"><ele>80.0</ele><time>2026-05-01T12:46:19.623Z</time></trkpt><trkpt lat="45.7159506" lon="11.6779327"><ele>80.0</ele><time>2026-05-01T12:46:20.626Z</time></trkpt><trkpt lat="45.7158177" lon="11.6779329"><ele>79.5</ele><time>2026-05-01T12:46:21.617Z</time></trkpt><trkpt lat="45.7156844" lon="11.6779337"><ele>79.0</ele><time>2026-05-01T12:46:22.679Z</time></trkpt><trkpt lat="45.7155487" lon="11.6779333"><ele>78.5</ele><time>2026-05-01T12:46:23.628Z</time></trkpt><trkpt lat="45.7154053" lon="11.6779289"><ele>78.0</ele><time>2026-05-01T12:46:24.62Z</time></trkpt><trkpt lat="45.7152566" lon="11.6779183"><ele>77.33333333333333</ele><time>2026-05-01T12:46:25.627Z</time></trkpt><trkpt lat="45.7151037" lon="11.6779047"><ele>76.66666666666666</ele><time>2026-05-01T12:46:26.622Z</time></trkpt><trkpt lat="45.7149484" lon="11.6778911"><ele>76.0</ele><time>2026-05-01T12:46:27.63Z</time></trkpt><trkpt lat="45.7147948" lon="11.677877"><ele>76.0</ele><time>2026-05-01T12:46:28.626Z</time></trkpt><trkpt lat="45.7146429" lon="11.6778669"><ele>76.0</ele><time>2026-05-01T12:46:29.628Z</time></trkpt><trkpt lat="45.7144918" lon="11.6778653"><ele>76.0</ele><time>2026-05-01T12:46:30.622Z</time></trkpt><trkpt lat="45.7143422" lon="11.677873"><ele>76.0</ele><time>2026-05-01T12:46:31.63Z</time></trkpt><trkpt lat="45.7141935" lon="11.6778874"><ele>76.0</ele><time>2026-05-01T12:46:32.627Z</time></trkpt><trkpt lat="45.7140462" lon="11.6779078"><ele>76.0</ele><time>2026-05-01T12:46:33.627Z</time></trkpt><trkpt lat="45.7138998" lon="11.6779295"><ele>76.0</ele><time>2026-05-01T12:46:34.624Z</time></trkpt><trkpt lat="45.7137537" lon="11.6779507"><ele>76.0</ele><time>2026-05-01T12:46:35.62Z</time></trkpt><trkpt lat="45.7136054" lon="11.6779669"><ele>76.0</ele><time>2026-05-01T12:46:36.638Z</time></trkpt><trkpt lat="45.7134541" lon="11.6779665"><ele>76.0</ele><time>2026-05-01T12:46:37.625Z</time></trkpt><trkpt lat="45.7132979" lon="11.6779537"><ele>76.0</ele><time>2026-05-01T12:46:38.628Z</time></trkpt><trkpt lat="45.7131388" lon="11.677925"><ele>76.0</ele><time>2026-05-01T12:46:39.624Z</time></trkpt><trkpt lat="45.7129913" lon="11.6778799"><ele>76.0</ele><time>2026-05-01T12:46:40.622Z</time></trkpt><trkpt lat="45.7128498" lon="11.6778244"><ele>76.25</ele><time>2026-05-01T12:46:41.625Z</time></trkpt><trkpt lat="45.7127143" lon="11.6777574"><ele>76.5</ele><time>2026-05-01T12:46:42.622Z</time></trkpt><trkpt lat="45.7125922" lon="11.6776814"><ele>76.75</ele><time>2026-05-01T12:46:43.628Z</time></trkpt><trkpt lat="45.7124749" lon="11.677598"><ele>77.0</ele><time>2026-05-01T12:46:44.625Z</time></trkpt><trkpt lat="45.7123646" lon="11.6775091"><ele>77.0</ele><time>2026-05-01T12:46:45.627Z</time></trkpt><trkpt lat="45.7122619" lon="11.6774212"><ele>77.0</ele><time>2026-05-01T12:46:46.624Z</time></trkpt><trkpt lat="45.7121621" lon="11.6773351"><ele>77.0</ele><time>2026-05-01T12:46:47.633Z</time></trkpt><trkpt lat="45.7120602" lon="11.6772431"><ele>77.0</ele><time>2026-05-01T12:46:48.619Z</time></trkpt><trkpt lat="45.7119569" lon="11.6771444"><ele>77.0</ele><time>2026-05-01T12:46:49.623Z</time></trkpt><trkpt lat="45.7118521" lon="11.6770452"><ele>77.0</ele><time>2026-05-01T12:46:50.619Z</time></trkpt><trkpt lat="45.711742" lon="11.6769405"><ele>77.0</ele><time>2026-05-01T12:46:51.623Z</time></trkpt><trkpt lat="45.7116258" lon="11.6768298"><ele>77.0</ele><time>2026-05-01T12:46:52.62Z</time></trkpt><trkpt lat="45.7115009" lon="11.6767116"><ele>77.33333333333334</ele><time>2026-05-01T12:46:53.625Z</time></trkpt><trkpt lat="45.7113737" lon="11.6765896"><ele>77.66666666666667</ele><time>2026-05-01T12:46:54.629Z</time></trkpt><trkpt lat="45.711244" lon="11.6764654"><ele>78.0</ele><time>2026-05-01T12:46:55.626Z</time></trkpt><trkpt lat="45.7111113" lon="11.6763391"><ele>78.0</ele><time>2026-05-01T12:46:56.618Z</time></trkpt><trkpt lat="45.7109746" lon="11.6762131"><ele>78.0</ele><time>2026-05-01T12:46:57.635Z</time></trkpt><trkpt lat="45.7108344" lon="11.6760809"><ele>78.0</ele><time>2026-05-01T12:46:58.627Z</time></trkpt><trkpt lat="45.7106983" lon="11.6759535"><ele>78.0</ele><time>2026-05-01T12:46:59.626Z</time></trkpt><trkpt lat="45.7105537" lon="11.6758253"><ele>78.0</ele><time>2026-05-01T12:47:00.625Z</time></trkpt><trkpt lat="45.7104078" lon="11.6756971"><ele>78.0</ele><time>2026-05-01T12:47:01.627Z</time></trkpt><trkpt lat="45.710262" lon="11.6755721"><ele>78.0</ele><time>2026-05-01T12:47:02.623Z</time></trkpt><trkpt lat="45.7101195" lon="11.6754441"><ele>78.0</ele><time>2026-05-01T12:47:03.63Z</time></trkpt><trkpt lat="45.709977" lon="11.6753143"><ele>78.0</ele><time>2026-05-01T12:47:04.627Z</time></trkpt><trkpt lat="45.7098346" lon="11.6751825"><ele>78.0</ele><time>2026-05-01T12:47:05.626Z</time></trkpt><trkpt lat="45.7096911" lon="11.6750501"><ele>78.0</ele><time>2026-05-01T12:47:06.625Z</time></trkpt><trkpt lat="45.7095469" lon="11.6749172"><ele>78.0</ele><time>2026-05-01T12:47:07.63Z</time></trkpt><trkpt lat="45.7094052" lon="11.6747869"><ele>78.0</ele><time>2026-05-01T12:47:08.621Z</time></trkpt><trkpt lat="45.70926" lon="11.6746683"><ele>78.0</ele><time>2026-05-01T12:47:09.629Z</time></trkpt><trkpt lat="45.709107" lon="11.6745714"><ele>78.0</ele><time>2026-05-01T12:47:10.624Z</time></trkpt><trkpt lat="45.7089508" lon="11.6745003"><ele>78.0</ele><time>2026-05-01T12:47:11.621Z</time></trkpt><trkpt lat="45.7087956" lon="11.6744591"><ele>78.0</ele><time>2026-05-01T12:47:12.622Z</time></trkpt><trkpt lat="45.7086398" lon="11.6744397"><ele>78.0</ele><time>2026-05-01T12:47:13.623Z</time></trkpt><trkpt lat="45.7084895" lon="11.6744283"><ele>77.33333333333333</ele><time>2026-05-01T12:47:14.643Z</time></trkpt><trkpt lat="45.7083368" lon="11.6744177"><ele>76.66666666666666</ele><time>2026-05-01T12:47:15.624Z</time></trkpt><trkpt lat="45.7081824" lon="11.6744096"><ele>76.0</ele><time>2026-05-01T12:47:16.622Z</time></trkpt><trkpt lat="45.7080239" lon="11.6744018"><ele>76.0</ele><time>2026-05-01T12:47:17.626Z</time></trkpt><trkpt lat="45.707863" lon="11.6743941"><ele>76.0</ele><time>2026-05-01T12:47:18.625Z</time></trkpt><trkpt lat="45.707701" lon="11.6743881"><ele>76.0</ele><time>2026-05-01T12:47:19.626Z</time></trkpt><trkpt lat="45.7075405" lon="11.6743834"><ele>76.33333333333333</ele><time>2026-05-01T12:47:20.625Z</time></trkpt><trkpt lat="45.7073822" lon="11.6743755"><ele>76.66666666666667</ele><time>2026-05-01T12:47:21.626Z</time></trkpt><trkpt lat="45.707225" lon="11.6743666"><ele>77.0</ele><time>2026-05-01T12:47:22.627Z</time></trkpt><trkpt lat="45.7070655" lon="11.6743595"><ele>77.0</ele><time>2026-05-01T12:47:23.621Z</time></trkpt><trkpt lat="45.7069113" lon="11.674356"><ele>77.0</ele><time>2026-05-01T12:47:24.621Z</time></trkpt><trkpt lat="45.7067584" lon="11.6743531"><ele>77.0</ele><time>2026-05-01T12:47:25.623Z</time></trkpt><trkpt lat="45.7066074" lon="11.6743452"><ele>76.66666666666667</ele><time>2026-05-01T12:47:26.625Z</time></trkpt><trkpt lat="45.7064561" lon="11.6743259"><ele>76.33333333333333</ele><time>2026-05-01T12:47:27.625Z</time></trkpt><trkpt lat="45.706302" lon="11.6742926"><ele>76.0</ele><time>2026-05-01T12:47:28.626Z</time></trkpt><trkpt lat="45.7061461" lon="11.6742115"><ele>75.66666666666666</ele><time>2026-05-01T12:47:29.622Z</time></trkpt><trkpt lat="45.7059971" lon="11.6741153"><ele>75.33333333333333</ele><time>2026-05-01T12:47:30.655Z</time></trkpt><trkpt lat="45.7058515" lon="11.6740076"><ele>75.0</ele><time>2026-05-01T12:47:31.62Z</time></trkpt><trkpt lat="45.7057091" lon="11.6738952"><ele>75.0</ele><time>2026-05-01T12:47:32.626Z</time></trkpt><trkpt lat="45.7055647" lon="11.6737851"><ele>75.0</ele><time>2026-05-01T12:47:33.629Z</time></trkpt><trkpt lat="45.705423" lon="11.673674"><ele>75.0</ele><time>2026-05-01T12:47:34.628Z</time></trkpt><trkpt lat="45.7052805" lon="11.6735648"><ele>75.33333333333333</ele><time>2026-05-01T12:47:35.625Z</time></trkpt><trkpt lat="45.7051374" lon="11.6734575"><ele>75.66666666666666</ele><time>2026-05-01T12:47:36.627Z</time></trkpt><trkpt lat="45.7049912" lon="11.6733489"><ele>76.0</ele><time>2026-05-01T12:47:37.627Z</time></trkpt><trkpt lat="45.7048502" lon="11.6732439"><ele>76.0</ele><time>2026-05-01T12:47:38.621Z</time></trkpt><trkpt lat="45.7047139" lon="11.6731441"><ele>76.0</ele><time>2026-05-01T12:47:39.629Z</time></trkpt><trkpt lat="45.7045813" lon="11.673056"><ele>76.0</ele><time>2026-05-01T12:47:40.627Z</time></trkpt><trkpt lat="45.7044448" lon="11.6729818"><ele>76.0</ele><time>2026-05-01T12:47:41.623Z</time></trkpt><trkpt lat="45.704305" lon="11.6729183"><ele>75.75</ele><time>2026-05-01T12:47:42.655Z</time></trkpt><trkpt lat="45.70416" lon="11.6728598"><ele>75.5</ele><time>2026-05-01T12:47:43.627Z</time></trkpt><trkpt lat="45.7040175" lon="11.6728084"><ele>75.25</ele><time>2026-05-01T12:47:44.634Z</time></trkpt><trkpt lat="45.7038753" lon="11.6727601"><ele>75.0</ele><time>2026-05-01T12:47:45.626Z</time></trkpt><trkpt lat="45.7037307" lon="11.6727168"><ele>75.0</ele><time>2026-05-01T12:47:46.624Z</time></trkpt><trkpt lat="45.7035892" lon="11.6726718"><ele>75.0</ele><time>2026-05-01T12:47:47.624Z</time></trkpt><trkpt lat="45.7034448" lon="11.6726245"><ele>75.0</ele><time>2026-05-01T12:47:48.627Z</time></trkpt><trkpt lat="45.7032965" lon="11.6725766"><ele>75.0</ele><time>2026-05-01T12:47:49.631Z</time></trkpt><trkpt lat="45.7031429" lon="11.672526"><ele>75.0</ele><time>2026-05-01T12:47:50.622Z</time></trkpt><trkpt lat="45.702987" lon="11.6724708"><ele>75.0</ele><time>2026-05-01T12:47:51.627Z</time></trkpt><trkpt lat="45.7028221" lon="11.6724159"><ele>75.0</ele><time>2026-05-01T12:47:52.62Z</time></trkpt><trkpt lat="45.7026645" lon="11.672351"><ele>74.66666666666667</ele><time>2026-05-01T12:47:53.627Z</time></trkpt><trkpt lat="45.7025074" lon="11.6722778"><ele>74.33333333333334</ele><time>2026-05-01T12:47:54.62Z</time></trkpt><trkpt lat="45.7023564" lon="11.6721946"><ele>74.0</ele><time>2026-05-01T12:47:55.621Z</time></trkpt><trkpt lat="45.7022056" lon="11.672108"><ele>74.0</ele><time>2026-05-01T12:47:56.623Z</time></trkpt><trkpt lat="45.7020533" lon="11.6720195"><ele>74.0</ele><time>2026-05-01T12:47:57.624Z</time></trkpt><trkpt lat="45.7018968" lon="11.6719245"><ele>74.0</ele><time>2026-05-01T12:47:58.644Z</time></trkpt><trkpt lat="45.7017379" lon="11.6718433"><ele>73.66666666666667</ele><time>2026-05-01T12:47:59.624Z</time></trkpt><trkpt lat="45.7015846" lon="11.6717732"><ele>73.33333333333333</ele><time>2026-05-01T12:48:00.62Z</time></trkpt><trkpt lat="45.7014307" lon="11.6717158"><ele>73.0</ele><time>2026-05-01T12:48:01.625Z</time></trkpt><trkpt lat="45.7012808" lon="11.671667"><ele>73.0</ele><time>2026-05-01T12:48:02.621Z</time></trkpt><trkpt lat="45.7011297" lon="11.6716154"><ele>73.0</ele><time>2026-05-01T12:48:03.631Z</time></trkpt><trkpt lat="45.7009773" lon="11.6715613"><ele>73.0</ele><time>2026-05-01T12:48:04.625Z</time></trkpt><trkpt lat="45.7008244" lon="11.6715074"><ele>73.33333333333333</ele><time>2026-05-01T12:48:05.626Z</time></trkpt><trkpt lat="45.7006754" lon="11.6714566"><ele>73.66666666666667</ele><time>2026-05-01T12:48:06.624Z</time></trkpt><trkpt lat="45.700528" lon="11.6714083"><ele>74.0</ele><time>2026-05-01T12:48:07.628Z</time></trkpt><trkpt lat="45.7003777" lon="11.6713592"><ele>73.66666666666667</ele><time>2026-05-01T12:48:08.621Z</time></trkpt><trkpt lat="45.7002266" lon="11.6713119"><ele>73.33333333333333</ele><time>2026-05-01T12:48:09.626Z</time></trkpt><trkpt lat="45.7000735" lon="11.6712661"><ele>73.0</ele><time>2026-05-01T12:48:10.624Z</time></trkpt><trkpt lat="45.6999189" lon="11.6712172"><ele>73.0</ele><time>2026-05-01T12:48:11.634Z</time></trkpt><trkpt lat="45.6997624" lon="11.6711641"><ele>73.0</ele><time>2026-05-01T12:48:12.629Z</time></trkpt><trkpt lat="45.6996041" lon="11.6711126"><ele>73.0</ele><time>2026-05-01T12:48:13.624Z</time></trkpt><trkpt lat="45.699443" lon="11.6710605"><ele>73.0</ele><time>2026-05-01T12:48:14.629Z</time></trkpt><trkpt lat="45.6992784" lon="11.6710073"><ele>73.0</ele><time>2026-05-01T12:48:15.622Z</time></trkpt><trkpt lat="45.6991079" lon="11.6709526"><ele>73.0</ele><time>2026-05-01T12:48:16.658Z</time></trkpt><trkpt lat="45.698932" lon="11.6708948"><ele>73.0</ele><time>2026-05-01T12:48:17.625Z</time></trkpt><trkpt lat="45.6987533" lon="11.6708356"><ele>73.0</ele><time>2026-05-01T12:48:18.624Z</time></trkpt><trkpt lat="45.698574" lon="11.6707764"><ele>73.0</ele><time>2026-05-01T12:48:19.623Z</time></trkpt><trkpt lat="45.6983964" lon="11.6707189"><ele>73.0</ele><time>2026-05-01T12:48:20.623Z</time></trkpt><trkpt lat="45.6982204" lon="11.6706608"><ele>73.0</ele><time>2026-05-01T12:48:21.621Z</time></trkpt><trkpt lat="45.6980436" lon="11.6706012"><ele>73.0</ele><time>2026-05-01T12:48:22.628Z</time></trkpt><trkpt lat="45.6978668" lon="11.6705404"><ele>73.33333333333333</ele><time>2026-05-01T12:48:23.622Z</time></trkpt><trkpt lat="45.6976911" lon="11.6704811"><ele>73.66666666666667</ele><time>2026-05-01T12:48:24.634Z</time></trkpt><trkpt lat="45.6975174" lon="11.6704223"><ele>74.0</ele><time>2026-05-01T12:48:25.624Z</time></trkpt><trkpt lat="45.697347" lon="11.6703629"><ele>74.0</ele><time>2026-05-01T12:48:26.623Z</time></trkpt><trkpt lat="45.6971793" lon="11.6703074"><ele>74.0</ele><time>2026-05-01T12:48:27.623Z</time></trkpt><trkpt lat="45.697014" lon="11.6702565"><ele>74.0</ele><time>2026-05-01T12:48:28.623Z</time></trkpt><trkpt lat="45.6968453" lon="11.6702033"><ele>73.66666666666667</ele><time>2026-05-01T12:48:29.626Z</time></trkpt><trkpt lat="45.6966697" lon="11.6701458"><ele>73.33333333333333</ele><time>2026-05-01T12:48:30.623Z</time></trkpt><trkpt lat="45.6964903" lon="11.6700877"><ele>73.0</ele><time>2026-05-01T12:48:31.627Z</time></trkpt><trkpt lat="45.6962992" lon="11.6700364"><ele>73.0</ele><time>2026-05-01T12:48:32.625Z</time></trkpt><trkpt lat="45.6961007" lon="11.6700026"><ele>73.0</ele><time>2026-05-01T12:48:33.625Z</time></trkpt><trkpt lat="45.6959016" lon="11.6699979"><ele>73.0</ele><time>2026-05-01T12:48:34.625Z</time></trkpt><trkpt lat="45.695702" lon="11.6700103"><ele>72.66666666666666</ele><time>2026-05-01T12:48:35.622Z</time></trkpt><trkpt lat="45.6955016" lon="11.6700382"><ele>72.33333333333333</ele><time>2026-05-01T12:48:36.62Z</time></trkpt><trkpt lat="45.6953043" lon="11.6700765"><ele>72.0</ele><time>2026-05-01T12:48:37.624Z</time></trkpt><trkpt lat="45.6951084" lon="11.6701205"><ele>71.66666666666667</ele><time>2026-05-01T12:48:38.629Z</time></trkpt><trkpt lat="45.6949129" lon="11.6701677"><ele>71.33333333333334</ele><time>2026-05-01T12:48:39.623Z</time></trkpt><trkpt lat="45.6947155" lon="11.6702164"><ele>71.0</ele><time>2026-05-01T12:48:40.626Z</time></trkpt><trkpt lat="45.6945208" lon="11.6702574"><ele>70.66666666666667</ele><time>2026-05-01T12:48:41.624Z</time></trkpt><trkpt lat="45.6943251" lon="11.6702995"><ele>70.33333333333333</ele><time>2026-05-01T12:48:42.625Z</time></trkpt><trkpt lat="45.6941298" lon="11.6703403"><ele>70.0</ele><time>2026-05-01T12:48:43.62Z</time></trkpt><trkpt lat="45.6939371" lon="11.67038"><ele>70.0</ele><time>2026-05-01T12:48:44.642Z</time></trkpt><trkpt lat="45.6937441" lon="11.67042"><ele>70.0</ele><time>2026-05-01T12:48:45.627Z</time></trkpt><trkpt lat="45.6935549" lon="11.6704609"><ele>70.0</ele><time>2026-05-01T12:48:46.623Z</time></trkpt><trkpt lat="45.6933709" lon="11.6705005"><ele>70.0</ele><time>2026-05-01T12:48:47.631Z</time></trkpt><trkpt lat="45.6931881" lon="11.6705405"><ele>70.0</ele><time>2026-05-01T12:48:48.627Z</time></trkpt><trkpt lat="45.6930161" lon="11.6705776"><ele>70.0</ele><time>2026-05-01T12:48:49.626Z</time></trkpt><trkpt lat="45.6928561" lon="11.6706118"><ele>69.75</ele><time>2026-05-01T12:48:50.63Z</time></trkpt><trkpt lat="45.6927136" lon="11.6706433"><ele>69.5</ele><time>2026-05-01T12:48:51.621Z</time></trkpt><trkpt lat="45.6925803" lon="11.6706734"><ele>69.25</ele><time>2026-05-01T12:48:52.645Z</time></trkpt><trkpt lat="45.6924525" lon="11.6707047"><ele>69.0</ele><time>2026-05-01T12:48:53.621Z</time></trkpt><trkpt lat="45.6923249" lon="11.6707356"><ele>69.0</ele><time>2026-05-01T12:48:54.618Z</time></trkpt><trkpt lat="45.6921968" lon="11.6707653"><ele>69.0</ele><time>2026-05-01T12:48:55.62Z</time></trkpt><trkpt lat="45.6920678" lon="11.6707945"><ele>69.0</ele><time>2026-05-01T12:48:56.619Z</time></trkpt><trkpt lat="45.6919347" lon="11.6708242"><ele>69.0</ele><time>2026-05-01T12:48:57.618Z</time></trkpt><trkpt lat="45.6917982" lon="11.6708543"><ele>69.0</ele><time>2026-05-01T12:48:58.622Z</time></trkpt><trkpt lat="45.6916604" lon="11.670884"><ele>69.0</ele><time>2026-05-01T12:48:59.618Z</time></trkpt><trkpt lat="45.6915185" lon="11.6709161"><ele>69.0</ele><time>2026-05-01T12:49:00.628Z</time></trkpt><trkpt lat="45.6913641" lon="11.6709455"><ele>69.0</ele><time>2026-05-01T12:49:01.621Z</time></trkpt><trkpt lat="45.691199" lon="11.6709658"><ele>69.0</ele><time>2026-05-01T12:49:02.62Z</time></trkpt><trkpt lat="45.6910202" lon="11.670979"><ele>69.0</ele><time>2026-05-01T12:49:03.622Z</time></trkpt><trkpt lat="45.6908198" lon="11.670983"><ele>69.0</ele><time>2026-05-01T12:49:04.621Z</time></trkpt><trkpt lat="45.6906014" lon="11.6709682"><ele>69.0</ele><time>2026-05-01T12:49:05.621Z</time></trkpt><trkpt lat="45.6903762" lon="11.6709321"><ele>69.0</ele><time>2026-05-01T12:49:06.623Z</time></trkpt><trkpt lat="45.6901482" lon="11.6708841"><ele>68.5</ele><time>2026-05-01T12:49:07.626Z</time></trkpt><trkpt lat="45.6899182" lon="11.6708321"><ele>68.0</ele><time>2026-05-01T12:49:08.62Z</time></trkpt><trkpt lat="45.6896888" lon="11.6707779"><ele>68.0</ele><time>2026-05-01T12:49:09.624Z</time></trkpt><trkpt lat="45.6894618" lon="11.6707239"><ele>68.0</ele><time>2026-05-01T12:49:10.621Z</time></trkpt><trkpt lat="45.6892376" lon="11.6706726"><ele>68.0</ele><time>2026-05-01T12:49:11.619Z</time></trkpt><trkpt lat="45.689014" lon="11.670622"><ele>68.0</ele><time>2026-05-01T12:49:12.621Z</time></trkpt><trkpt lat="45.6887899" lon="11.6705664"><ele>68.0</ele><time>2026-05-01T12:49:13.621Z</time></trkpt><trkpt lat="45.6885694" lon="11.6705131"><ele>68.0</ele><time>2026-05-01T12:49:14.64Z</time></trkpt><trkpt lat="45.6883511" lon="11.6704619"><ele>68.0</ele><time>2026-05-01T12:49:15.619Z</time></trkpt><trkpt lat="45.6881374" lon="11.6704113"><ele>68.0</ele><time>2026-05-01T12:49:16.625Z</time></trkpt><trkpt lat="45.6879311" lon="11.6703593"><ele>68.0</ele><time>2026-05-01T12:49:17.623Z</time></trkpt><trkpt lat="45.6877318" lon="11.670301"><ele>68.0</ele><time>2026-05-01T12:49:18.623Z</time></trkpt><trkpt lat="45.6875344" lon="11.6702421"><ele>67.66666666666667</ele><time>2026-05-01T12:49:19.623Z</time></trkpt><trkpt lat="45.6873387" lon="11.6701708"><ele>67.33333333333333</ele><time>2026-05-01T12:49:20.62Z</time></trkpt><trkpt lat="45.6871436" lon="11.6700898"><ele>67.0</ele><time>2026-05-01T12:49:21.62Z</time></trkpt><trkpt lat="45.6869551" lon="11.6700041"><ele>67.66666666666666</ele><time>2026-05-01T12:49:22.616Z</time></trkpt><trkpt lat="45.6867681" lon="11.66991"><ele>68.33333333333333</ele><time>2026-05-01T12:49:23.624Z</time></trkpt><trkpt lat="45.6865878" lon="11.6698062"><ele>69.0</ele><time>2026-05-01T12:49:24.622Z</time></trkpt><trkpt lat="45.686412" lon="11.6696933"><ele>69.0</ele><time>2026-05-01T12:49:25.623Z</time></trkpt><trkpt lat="45.6862429" lon="11.6695746"><ele>69.0</ele><time>2026-05-01T12:49:26.624Z</time></trkpt><trkpt lat="45.6860728" lon="11.6694558"><ele>69.0</ele><time>2026-05-01T12:49:27.627Z</time></trkpt><trkpt lat="45.6859032" lon="11.669341"><ele>68.66666666666667</ele><time>2026-05-01T12:49:28.619Z</time></trkpt><trkpt lat="45.6857337" lon="11.669227"><ele>68.33333333333334</ele><time>2026-05-01T12:49:29.624Z</time></trkpt><trkpt lat="45.685564" lon="11.6691123"><ele>68.0</ele><time>2026-05-01T12:49:30.621Z</time></trkpt><trkpt lat="45.6853964" lon="11.6690002"><ele>67.66666666666667</ele><time>2026-05-01T12:49:31.624Z</time></trkpt><trkpt lat="45.685231" lon="11.6688946"><ele>67.33333333333333</ele><time>2026-05-01T12:49:32.62Z</time></trkpt><trkpt lat="45.6850648" lon="11.6688078"><ele>67.0</ele><time>2026-05-01T12:49:33.623Z</time></trkpt><trkpt lat="45.684901" lon="11.6687418"><ele>67.0</ele><time>2026-05-01T12:49:34.621Z</time></trkpt><trkpt lat="45.6847363" lon="11.6686934"><ele>67.0</ele><time>2026-05-01T12:49:35.626Z</time></trkpt><trkpt lat="45.684572" lon="11.6686524"><ele>67.0</ele><time>2026-05-01T12:49:36.627Z</time></trkpt><trkpt lat="45.6844095" lon="11.6686122"><ele>66.0</ele><time>2026-05-01T12:49:37.624Z</time></trkpt><trkpt lat="45.6842537" lon="11.6685747"><ele>65.0</ele><time>2026-05-01T12:49:38.641Z</time></trkpt><trkpt lat="45.6841015" lon="11.6685383"><ele>64.0</ele><time>2026-05-01T12:49:39.626Z</time></trkpt><trkpt lat="45.6839599" lon="11.6685043"><ele>64.0</ele><time>2026-05-01T12:49:40.622Z</time></trkpt><trkpt lat="45.6838239" lon="11.6684709"><ele>64.0</ele><time>2026-05-01T12:49:41.627Z</time></trkpt><trkpt lat="45.6836923" lon="11.6684385"><ele>64.0</ele><time>2026-05-01T12:49:42.62Z</time></trkpt><trkpt lat="45.6835587" lon="11.6684056"><ele>64.0</ele><time>2026-05-01T12:49:43.618Z</time></trkpt><trkpt lat="45.6834234" lon="11.6683714"><ele>64.25</ele><time>2026-05-01T12:49:44.625Z</time></trkpt><trkpt lat="45.6832937" lon="11.6683392"><ele>64.5</ele><time>2026-05-01T12:49:45.623Z</time></trkpt><trkpt lat="45.6831663" lon="11.6683086"><ele>64.75</ele><time>2026-05-01T12:49:46.629Z</time></trkpt><trkpt lat="45.683047" lon="11.6682831"><ele>65.0</ele><time>2026-05-01T12:49:47.626Z</time></trkpt><trkpt lat="45.6829438" lon="11.6682831"><ele>65.0</ele><time>2026-05-01T12:49:48.62Z</time></trkpt><trkpt lat="45.6828627" lon="11.6683177"><ele>65.0</ele><time>2026-05-01T12:49:49.623Z</time></trkpt><trkpt lat="45.6828093" lon="11.6683905"><ele>65.0</ele><time>2026-05-01T12:49:50.626Z</time></trkpt><trkpt lat="45.6827815" lon="11.6685016"><ele>65.0</ele><time>2026-05-01T12:49:51.628Z</time></trkpt><trkpt lat="45.6827774" lon="11.6686483"><ele>65.0</ele><time>2026-05-01T12:49:52.631Z</time></trkpt><trkpt lat="45.682781" lon="11.6688199"><ele>65.0</ele><time>2026-05-01T12:49:53.627Z</time></trkpt><trkpt lat="45.6827778" lon="11.6690202"><ele>65.0</ele><time>2026-05-01T12:49:54.642Z</time></trkpt><trkpt lat="45.682765" lon="11.6692543"><ele>65.0</ele><time>2026-05-01T12:49:55.632Z</time></trkpt><trkpt lat="45.6827449" lon="11.6695146"><ele>65.33333333333334</ele><time>2026-05-01T12:49:56.631Z</time></trkpt><trkpt lat="45.6827235" lon="11.6698034"><ele>65.66666666666667</ele><time>2026-05-01T12:49:57.63Z</time></trkpt><trkpt lat="45.6827031" lon="11.6701351"><ele>66.0</ele><time>2026-05-01T12:49:58.625Z</time></trkpt><trkpt lat="45.6826742" lon="11.6704841"><ele>66.0</ele><time>2026-05-01T12:49:59.629Z</time></trkpt><trkpt lat="45.6826387" lon="11.6708509"><ele>66.0</ele><time>2026-05-01T12:50:00.63Z</time></trkpt><trkpt lat="45.6826017" lon="11.6712216"><ele>66.0</ele><time>2026-05-01T12:50:01.632Z</time></trkpt><trkpt lat="45.6825675" lon="11.6715944"><ele>66.0</ele><time>2026-05-01T12:50:02.635Z</time></trkpt><trkpt lat="45.6825381" lon="11.6719712"><ele>66.5</ele><time>2026-05-01T12:50:03.632Z</time></trkpt><trkpt lat="45.6825079" lon="11.6723477"><ele>67.0</ele><time>2026-05-01T12:50:04.624Z</time></trkpt><trkpt lat="45.6824771" lon="11.6727221"><ele>66.0</ele><time>2026-05-01T12:50:05.63Z</time></trkpt><trkpt lat="45.6824519" lon="11.6730988"><ele>65.0</ele><time>2026-05-01T12:50:06.627Z</time></trkpt><trkpt lat="45.6824258" lon="11.6734755"><ele>65.5</ele><time>2026-05-01T12:50:07.628Z</time></trkpt><trkpt lat="45.6824003" lon="11.6738516"><ele>66.0</ele><time>2026-05-01T12:50:08.638Z</time></trkpt><trkpt lat="45.6823724" lon="11.6742261"><ele>65.5</ele><time>2026-05-01T12:50:09.628Z</time></trkpt><trkpt lat="45.6823445" lon="11.6746037"><ele>65.0</ele><time>2026-05-01T12:50:10.636Z</time></trkpt><trkpt lat="45.682315" lon="11.6749806"><ele>65.0</ele><time>2026-05-01T12:50:11.637Z</time></trkpt><trkpt lat="45.6822865" lon="11.6753564"><ele>65.0</ele><time>2026-05-01T12:50:12.634Z</time></trkpt><trkpt lat="45.682257" lon="11.6757314"><ele>65.0</ele><time>2026-05-01T12:50:13.628Z</time></trkpt><trkpt lat="45.6822278" lon="11.6761058"><ele>65.0</ele><time>2026-05-01T12:50:14.634Z</time></trkpt><trkpt lat="45.6821995" lon="11.6764788"><ele>65.0</ele><time>2026-05-01T12:50:15.632Z</time></trkpt><trkpt lat="45.6821707" lon="11.6768514"><ele>65.0</ele><time>2026-05-01T12:50:16.631Z</time></trkpt><trkpt lat="45.682143" lon="11.6772228"><ele>64.5</ele><time>2026-05-01T12:50:17.633Z</time></trkpt><trkpt lat="45.6821158" lon="11.6775929"><ele>64.0</ele><time>2026-05-01T12:50:18.637Z</time></trkpt><trkpt lat="45.6820898" lon="11.6779526"><ele>64.0</ele><time>2026-05-01T12:50:19.627Z</time></trkpt><trkpt lat="45.6820654" lon="11.6782967"><ele>64.0</ele><time>2026-05-01T12:50:20.631Z</time></trkpt><trkpt lat="45.6820393" lon="11.6786422"><ele>65.0</ele><time>2026-05-01T12:50:21.633Z</time></trkpt><trkpt lat="45.6820133" lon="11.6789739"><ele>66.0</ele><time>2026-05-01T12:50:22.632Z</time></trkpt><trkpt lat="45.6819845" lon="11.6792948"><ele>66.0</ele><time>2026-05-01T12:50:23.633Z</time></trkpt><trkpt lat="45.6819541" lon="11.679611"><ele>66.0</ele><time>2026-05-01T12:50:24.632Z</time></trkpt><trkpt lat="45.6819251" lon="11.6799064"><ele>66.0</ele><time>2026-05-01T12:50:25.627Z</time></trkpt><trkpt lat="45.6818999" lon="11.680174"><ele>65.66666666666667</ele><time>2026-05-01T12:50:26.632Z</time></trkpt><trkpt lat="45.6818772" lon="11.6804167"><ele>65.33333333333334</ele><time>2026-05-01T12:50:27.635Z</time></trkpt><trkpt lat="45.6818582" lon="11.6806336"><ele>65.0</ele><time>2026-05-01T12:50:28.63Z</time></trkpt><trkpt lat="45.6818394" lon="11.6808201"><ele>65.0</ele><time>2026-05-01T12:50:29.631Z</time></trkpt><trkpt lat="45.6818024" lon="11.6809808"><ele>65.0</ele><time>2026-05-01T12:50:30.629Z</time></trkpt><trkpt lat="45.6817308" lon="11.6811081"><ele>65.0</ele><time>2026-05-01T12:50:31.696Z</time></trkpt><trkpt lat="45.6816221" lon="11.6811901"><ele>65.0</ele><time>2026-05-01T12:50:32.631Z</time></trkpt><trkpt lat="45.681486" lon="11.6812336"><ele>65.0</ele><time>2026-05-01T12:50:33.629Z</time></trkpt><trkpt lat="45.6813342" lon="11.6812559"><ele>65.0</ele><time>2026-05-01T12:50:34.627Z</time></trkpt><trkpt lat="45.6811598" lon="11.6812979"><ele>65.0</ele><time>2026-05-01T12:50:35.635Z</time></trkpt><trkpt lat="45.6809742" lon="11.6813449"><ele>65.0</ele><time>2026-05-01T12:50:36.644Z</time></trkpt><trkpt lat="45.6807832" lon="11.6813947"><ele>65.0</ele><time>2026-05-01T12:50:37.629Z</time></trkpt><trkpt lat="45.6805835" lon="11.6814427"><ele>65.0</ele><time>2026-05-01T12:50:38.626Z</time></trkpt><trkpt lat="45.6803791" lon="11.6814971"><ele>64.66666666666667</ele><time>2026-05-01T12:50:39.639Z</time></trkpt><trkpt lat="45.6801728" lon="11.681548"><ele>64.33333333333333</ele><time>2026-05-01T12:50:40.636Z</time></trkpt><trkpt lat="45.6799649" lon="11.6815992"><ele>64.0</ele><time>2026-05-01T12:50:41.639Z</time></trkpt><trkpt lat="45.679759" lon="11.6816477"><ele>64.0</ele><time>2026-05-01T12:50:42.629Z</time></trkpt><trkpt lat="45.679553" lon="11.6817001"><ele>64.0</ele><time>2026-05-01T12:50:43.634Z</time></trkpt><trkpt lat="45.6793468" lon="11.6817526"><ele>64.0</ele><time>2026-05-01T12:50:44.636Z</time></trkpt><trkpt lat="45.6791429" lon="11.6818068"><ele>64.0</ele><time>2026-05-01T12:50:45.634Z</time></trkpt><trkpt lat="45.6789403" lon="11.6818574"><ele>64.0</ele><time>2026-05-01T12:50:46.643Z</time></trkpt><trkpt lat="45.6787402" lon="11.6819044"><ele>64.0</ele><time>2026-05-01T12:50:47.624Z</time></trkpt><trkpt lat="45.6785403" lon="11.6819431"><ele>64.0</ele><time>2026-05-01T12:50:48.64Z</time></trkpt><trkpt lat="45.678346" lon="11.6819718"><ele>64.0</ele><time>2026-05-01T12:50:49.632Z</time></trkpt><trkpt lat="45.6781474" lon="11.6819876"><ele>64.0</ele><time>2026-05-01T12:50:50.641Z</time></trkpt><trkpt lat="45.677949" lon="11.6820109"><ele>63.33333333333333</ele><time>2026-05-01T12:50:51.628Z</time></trkpt><trkpt lat="45.6777497" lon="11.6820407"><ele>62.66666666666667</ele><time>2026-05-01T12:50:52.64Z</time></trkpt><trkpt lat="45.677548" lon="11.6820677"><ele>62.0</ele><time>2026-05-01T12:50:53.636Z</time></trkpt><trkpt lat="45.6773513" lon="11.6820962"><ele>62.0</ele><time>2026-05-01T12:50:54.628Z</time></trkpt><trkpt lat="45.6771593" lon="11.6821225"><ele>62.0</ele><time>2026-05-01T12:50:55.633Z</time></trkpt><trkpt lat="45.6769735" lon="11.6821415"><ele>62.0</ele><time>2026-05-01T12:50:56.628Z</time></trkpt><trkpt lat="45.6767994" lon="11.6821606"><ele>62.25</ele><time>2026-05-01T12:50:57.631Z</time></trkpt><trkpt lat="45.676644" lon="11.6821779"><ele>62.5</ele><time>2026-05-01T12:50:58.628Z</time></trkpt><trkpt lat="45.6764942" lon="11.6821887"><ele>62.75</ele><time>2026-05-01T12:50:59.631Z</time></trkpt><trkpt lat="45.6763615" lon="11.6821999"><ele>63.0</ele><time>2026-05-01T12:51:00.63Z</time></trkpt><trkpt lat="45.6762566" lon="11.6822136"><ele>63.0</ele><time>2026-05-01T12:51:01.629Z</time></trkpt><trkpt lat="45.6761727" lon="11.6822243"><ele>63.0</ele><time>2026-05-01T12:51:02.635Z</time></trkpt><trkpt lat="45.67609" lon="11.6822492"><ele>63.0</ele><time>2026-05-01T12:51:03.628Z</time></trkpt><trkpt lat="45.676012" lon="11.6822727"><ele>63.0</ele><time>2026-05-01T12:51:04.631Z</time></trkpt><trkpt lat="45.6759562" lon="11.6823176"><ele>63.0</ele><time>2026-05-01T12:51:05.638Z</time></trkpt><trkpt lat="45.6759377" lon="11.6825063"><ele>63.0</ele><time>2026-05-01T12:51:07.629Z</time></trkpt><trkpt lat="45.6759673" lon="11.6826299"><ele>62.75</ele><time>2026-05-01T12:51:08.628Z</time></trkpt><trkpt lat="45.6759887" lon="11.6827773"><ele>62.5</ele><time>2026-05-01T12:51:09.63Z</time></trkpt><trkpt lat="45.6759991" lon="11.6829592"><ele>62.25</ele><time>2026-05-01T12:51:10.633Z</time></trkpt><trkpt lat="45.6760067" lon="11.6831588"><ele>62.0</ele><time>2026-05-01T12:51:11.633Z</time></trkpt><trkpt lat="45.6760199" lon="11.6833734"><ele>61.66666666666667</ele><time>2026-05-01T12:51:12.626Z</time></trkpt><trkpt lat="45.6760364" lon="11.6836016"><ele>61.33333333333333</ele><time>2026-05-01T12:51:13.64Z</time></trkpt><trkpt lat="45.6760559" lon="11.6838306"><ele>61.0</ele><time>2026-05-01T12:51:14.632Z</time></trkpt><trkpt lat="45.6760784" lon="11.6840519"><ele>61.25</ele><time>2026-05-01T12:51:15.628Z</time></trkpt><trkpt lat="45.6761057" lon="11.6842653"><ele>61.5</ele><time>2026-05-01T12:51:16.632Z</time></trkpt><trkpt lat="45.6761345" lon="11.6844616"><ele>61.75</ele><time>2026-05-01T12:51:17.631Z</time></trkpt><trkpt lat="45.676163" lon="11.6846401"><ele>62.0</ele><time>2026-05-01T12:51:18.634Z</time></trkpt><trkpt lat="45.6761914" lon="11.6848115"><ele>62.25</ele><time>2026-05-01T12:51:19.631Z</time></trkpt><trkpt lat="45.6762181" lon="11.6849727"><ele>62.5</ele><time>2026-05-01T12:51:20.636Z</time></trkpt><trkpt lat="45.6762464" lon="11.6851312"><ele>62.75</ele><time>2026-05-01T12:51:21.637Z</time></trkpt><trkpt lat="45.6762761" lon="11.6852889"><ele>63.0</ele><time>2026-05-01T12:51:22.636Z</time></trkpt><trkpt lat="45.6763071" lon="11.6854409"><ele>62.2</ele><time>2026-05-01T12:51:23.629Z</time></trkpt><trkpt lat="45.676339" lon="11.685592"><ele>61.4</ele><time>2026-05-01T12:51:24.628Z</time></trkpt><trkpt lat="45.6763705" lon="11.6857414"><ele>60.60000000000001</ele><time>2026-05-01T12:51:25.632Z</time></trkpt><trkpt lat="45.6763994" lon="11.6858942"><ele>59.800000000000004</ele><time>2026-05-01T12:51:26.634Z</time></trkpt><trkpt lat="45.6764275" lon="11.6860471"><ele>59.0</ele><time>2026-05-01T12:51:27.627Z</time></trkpt><trkpt lat="45.6764576" lon="11.6862018"><ele>58.400000000000006</ele><time>2026-05-01T12:51:28.629Z</time></trkpt><trkpt lat="45.6764872" lon="11.6863571"><ele>57.800000000000004</ele><time>2026-05-01T12:51:29.635Z</time></trkpt><trkpt lat="45.6765159" lon="11.6865105"><ele>57.199999999999996</ele><time>2026-05-01T12:51:30.633Z</time></trkpt><trkpt lat="45.6765445" lon="11.686661"><ele>56.599999999999994</ele><time>2026-05-01T12:51:31.631Z</time></trkpt><trkpt lat="45.6765715" lon="11.686811"><ele>56.0</ele><time>2026-05-01T12:51:32.638Z</time></trkpt><trkpt lat="45.6765984" lon="11.6869598"><ele>55.599999999999994</ele><time>2026-05-01T12:51:33.636Z</time></trkpt><trkpt lat="45.6766246" lon="11.6871079"><ele>55.199999999999996</ele><time>2026-05-01T12:51:34.631Z</time></trkpt><trkpt lat="45.6766523" lon="11.6872534"><ele>54.800000000000004</ele><time>2026-05-01T12:51:35.629Z</time></trkpt><trkpt lat="45.6766802" lon="11.6873969"><ele>54.400000000000006</ele><time>2026-05-01T12:51:36.633Z</time></trkpt><trkpt lat="45.6767089" lon="11.6875406"><ele>54.0</ele><time>2026-05-01T12:51:37.632Z</time></trkpt><trkpt lat="45.6767369" lon="11.6876872"><ele>53.800000000000004</ele><time>2026-05-01T12:51:38.627Z</time></trkpt><trkpt lat="45.6767645" lon="11.6878352"><ele>53.60000000000001</ele><time>2026-05-01T12:51:39.628Z</time></trkpt><trkpt lat="45.6767928" lon="11.6879846"><ele>53.4</ele><time>2026-05-01T12:51:40.629Z</time></trkpt><trkpt lat="45.6768205" lon="11.6881326"><ele>53.2</ele><time>2026-05-01T12:51:41.645Z</time></trkpt><trkpt lat="45.6768487" lon="11.6882792"><ele>53.0</ele><time>2026-05-01T12:51:42.634Z</time></trkpt><trkpt lat="45.6768768" lon="11.6884263"><ele>53.0</ele><time>2026-05-01T12:51:43.63Z</time></trkpt><trkpt lat="45.6769051" lon="11.6885741"><ele>53.0</ele><time>2026-05-01T12:51:44.632Z</time></trkpt><trkpt lat="45.6769333" lon="11.688722"><ele>53.0</ele><time>2026-05-01T12:51:45.636Z</time></trkpt><trkpt lat="45.676961" lon="11.6888692"><ele>53.0</ele><time>2026-05-01T12:51:46.63Z</time></trkpt><trkpt lat="45.6769879" lon="11.6890163"><ele>53.0</ele><time>2026-05-01T12:51:47.631Z</time></trkpt><trkpt lat="45.6770142" lon="11.6891637"><ele>53.8</ele><time>2026-05-01T12:51:48.632Z</time></trkpt><trkpt lat="45.6770413" lon="11.6893114"><ele>54.599999999999994</ele><time>2026-05-01T12:51:49.627Z</time></trkpt><trkpt lat="45.6770689" lon="11.6894595"><ele>55.400000000000006</ele><time>2026-05-01T12:51:50.631Z</time></trkpt><trkpt lat="45.6770968" lon="11.6896077"><ele>56.2</ele><time>2026-05-01T12:51:51.634Z</time></trkpt><trkpt lat="45.6771256" lon="11.6897547"><ele>57.0</ele><time>2026-05-01T12:51:52.633Z</time></trkpt><trkpt lat="45.6771536" lon="11.6899016"><ele>57.6</ele><time>2026-05-01T12:51:53.63Z</time></trkpt><trkpt lat="45.6771823" lon="11.690047"><ele>58.2</ele><time>2026-05-01T12:51:54.63Z</time></trkpt><trkpt lat="45.6772101" lon="11.6901928"><ele>58.8</ele><time>2026-05-01T12:51:55.628Z</time></trkpt><trkpt lat="45.6772368" lon="11.6903397"><ele>59.4</ele><time>2026-05-01T12:51:56.64Z</time></trkpt><trkpt lat="45.6772643" lon="11.6904886"><ele>60.0</ele><time>2026-05-01T12:51:57.637Z</time></trkpt><trkpt lat="45.677294" lon="11.6906411"><ele>60.25</ele><time>2026-05-01T12:51:58.635Z</time></trkpt><trkpt lat="45.6773263" lon="11.6907995"><ele>60.5</ele><time>2026-05-01T12:51:59.634Z</time></trkpt><trkpt lat="45.677359" lon="11.6909639"><ele>60.75</ele><time>2026-05-01T12:52:00.624Z</time></trkpt><trkpt lat="45.6773984" lon="11.6911162"><ele>61.0</ele><time>2026-05-01T12:52:01.63Z</time></trkpt><trkpt lat="45.6774503" lon="11.691294"><ele>61.0</ele><time>2026-05-01T12:52:02.637Z</time></trkpt><trkpt lat="45.6775236" lon="11.6914904"><ele>61.0</ele><time>2026-05-01T12:52:03.633Z</time></trkpt><trkpt lat="45.6776029" lon="11.6917084"><ele>61.0</ele><time>2026-05-01T12:52:04.636Z</time></trkpt><trkpt lat="45.6776933" lon="11.6919347"><ele>62.0</ele><time>2026-05-01T12:52:05.631Z</time></trkpt><trkpt lat="45.6777884" lon="11.6921737"><ele>63.0</ele><time>2026-05-01T12:52:06.635Z</time></trkpt><trkpt lat="45.6778875" lon="11.6924204"><ele>64.0</ele><time>2026-05-01T12:52:07.642Z</time></trkpt><trkpt lat="45.6779924" lon="11.6926654"><ele>63.666666666666664</ele><time>2026-05-01T12:52:08.631Z</time></trkpt><trkpt lat="45.6781022" lon="11.6929138"><ele>63.33333333333333</ele><time>2026-05-01T12:52:09.626Z</time></trkpt><trkpt lat="45.6782159" lon="11.6931691"><ele>63.0</ele><time>2026-05-01T12:52:10.633Z</time></trkpt><trkpt lat="45.6783317" lon="11.6934281"><ele>62.66666666666667</ele><time>2026-05-01T12:52:11.633Z</time></trkpt><trkpt lat="45.6784532" lon="11.6936817"><ele>62.333333333333336</ele><time>2026-05-01T12:52:12.634Z</time></trkpt><trkpt lat="45.6785703" lon="11.6939493"><ele>62.0</ele><time>2026-05-01T12:52:13.63Z</time></trkpt><trkpt lat="45.6786948" lon="11.6942176"><ele>62.5</ele><time>2026-05-01T12:52:14.645Z</time></trkpt><trkpt lat="45.6788178" lon="11.6944898"><ele>63.0</ele><time>2026-05-01T12:52:15.633Z</time></trkpt><trkpt lat="45.6789433" lon="11.6947636"><ele>63.0</ele><time>2026-05-01T12:52:16.635Z</time></trkpt><trkpt lat="45.679071" lon="11.6950381"><ele>63.0</ele><time>2026-05-01T12:52:17.634Z</time></trkpt><trkpt lat="45.6791983" lon="11.6953137"><ele>63.0</ele><time>2026-05-01T12:52:18.638Z</time></trkpt><trkpt lat="45.6793249" lon="11.6955859"><ele>63.0</ele><time>2026-05-01T12:52:19.632Z</time></trkpt><trkpt lat="45.6794515" lon="11.6958612"><ele>63.0</ele><time>2026-05-01T12:52:20.635Z</time></trkpt><trkpt lat="45.6795769" lon="11.6961346"><ele>63.0</ele><time>2026-05-01T12:52:21.636Z</time></trkpt><trkpt lat="45.6797013" lon="11.6964084"><ele>63.0</ele><time>2026-05-01T12:52:22.639Z</time></trkpt><trkpt lat="45.6798268" lon="11.6966803"><ele>63.0</ele><time>2026-05-01T12:52:23.628Z</time></trkpt><trkpt lat="45.6799517" lon="11.6969505"><ele>63.0</ele><time>2026-05-01T12:52:24.643Z</time></trkpt><trkpt lat="45.6800768" lon="11.6972212"><ele>63.0</ele><time>2026-05-01T12:52:25.634Z</time></trkpt><trkpt lat="45.6802021" lon="11.697493"><ele>62.66666666666667</ele><time>2026-05-01T12:52:26.635Z</time></trkpt><trkpt lat="45.6803267" lon="11.6977646"><ele>62.333333333333336</ele><time>2026-05-01T12:52:27.632Z</time></trkpt><trkpt lat="45.680447" lon="11.6980282"><ele>62.0</ele><time>2026-05-01T12:52:28.631Z</time></trkpt><trkpt lat="45.6805587" lon="11.6982721"><ele>62.0</ele><time>2026-05-01T12:52:29.629Z</time></trkpt><trkpt lat="45.6806606" lon="11.6984943"><ele>62.0</ele><time>2026-05-01T12:52:30.639Z</time></trkpt><trkpt lat="45.6807577" lon="11.6987027"><ele>62.0</ele><time>2026-05-01T12:52:31.639Z</time></trkpt><trkpt lat="45.6808591" lon="11.6989126"><ele>61.66666666666667</ele><time>2026-05-01T12:52:32.635Z</time></trkpt><trkpt lat="45.6809687" lon="11.6991282"><ele>61.33333333333333</ele><time>2026-05-01T12:52:33.626Z</time></trkpt><trkpt lat="45.68109" lon="11.6993479"><ele>61.0</ele><time>2026-05-01T12:52:34.634Z</time></trkpt><trkpt lat="45.6812212" lon="11.699567"><ele>60.666666666666664</ele><time>2026-05-01T12:52:35.634Z</time></trkpt><trkpt lat="45.6813583" lon="11.6997846"><ele>60.33333333333333</ele><time>2026-05-01T12:52:36.634Z</time></trkpt><trkpt lat="45.6815031" lon="11.7000064"><ele>60.0</ele><time>2026-05-01T12:52:37.633Z</time></trkpt><trkpt lat="45.6816512" lon="11.7002309"><ele>60.33333333333333</ele><time>2026-05-01T12:52:38.637Z</time></trkpt><trkpt lat="45.6818002" lon="11.7004621"><ele>60.666666666666664</ele><time>2026-05-01T12:52:39.638Z</time></trkpt><trkpt lat="45.6819472" lon="11.7006949"><ele>61.0</ele><time>2026-05-01T12:52:40.636Z</time></trkpt><trkpt lat="45.6820891" lon="11.7009331"><ele>61.666666666666664</ele><time>2026-05-01T12:52:41.63Z</time></trkpt><trkpt lat="45.6822226" lon="11.7011801"><ele>62.33333333333333</ele><time>2026-05-01T12:52:42.634Z</time></trkpt><trkpt lat="45.6823518" lon="11.7014303"><ele>63.0</ele><time>2026-05-01T12:52:43.631Z</time></trkpt><trkpt lat="45.6824743" lon="11.7016845"><ele>63.66666666666667</ele><time>2026-05-01T12:52:44.63Z</time></trkpt><trkpt lat="45.6825954" lon="11.7019369"><ele>64.33333333333334</ele><time>2026-05-01T12:52:45.64Z</time></trkpt><trkpt lat="45.6827097" lon="11.7021675"><ele>65.0</ele><time>2026-05-01T12:52:46.637Z</time></trkpt><trkpt lat="45.6828093" lon="11.7023716"><ele>65.25</ele><time>2026-05-01T12:52:47.632Z</time></trkpt><trkpt lat="45.6828928" lon="11.702559"><ele>65.5</ele><time>2026-05-01T12:52:48.632Z</time></trkpt><trkpt lat="45.6829588" lon="11.7027293"><ele>65.75</ele><time>2026-05-01T12:52:49.657Z</time></trkpt><trkpt lat="45.6829988" lon="11.7028822"><ele>66.0</ele><time>2026-05-01T12:52:50.632Z</time></trkpt><trkpt lat="45.6829972" lon="11.7030258"><ele>66.75</ele><time>2026-05-01T12:52:51.628Z</time></trkpt><trkpt lat="45.6829684" lon="11.7031715"><ele>67.5</ele><time>2026-05-01T12:52:52.642Z</time></trkpt><trkpt lat="45.6829399" lon="11.7033406"><ele>68.25</ele><time>2026-05-01T12:52:53.63Z</time></trkpt><trkpt lat="45.68292" lon="11.7035413"><ele>69.0</ele><time>2026-05-01T12:52:54.636Z</time></trkpt><trkpt lat="45.6829093" lon="11.7037797"><ele>69.0</ele><time>2026-05-01T12:52:55.631Z</time></trkpt><trkpt lat="45.6828855" lon="11.7040303"><ele>69.0</ele><time>2026-05-01T12:52:56.628Z</time></trkpt><trkpt lat="45.6827937" lon="11.7045717"><ele>69.0</ele><time>2026-05-01T12:52:58.015Z</time></trkpt><trkpt lat="45.6827381" lon="11.7048443"><ele>69.0</ele><time>2026-05-01T12:52:59.016Z</time></trkpt><trkpt lat="45.68267" lon="11.705116"><ele>69.0</ele><time>2026-05-01T12:53:00.018Z</time></trkpt><trkpt lat="45.6825962" lon="11.7053848"><ele>69.0</ele><time>2026-05-01T12:53:01.024Z</time></trkpt><trkpt lat="45.6825178" lon="11.7056489"><ele>69.0</ele><time>2026-05-01T12:53:02.024Z</time></trkpt><trkpt lat="45.6824442" lon="11.7058875"><ele>69.0</ele><time>2026-05-01T12:53:03.036Z</time></trkpt><trkpt lat="45.6823723" lon="11.7060876"><ele>69.0</ele><time>2026-05-01T12:53:04.017Z</time></trkpt><trkpt lat="45.6823063" lon="11.7062647"><ele>69.0</ele><time>2026-05-01T12:53:05.018Z</time></trkpt><trkpt lat="45.6822508" lon="11.7064167"><ele>69.0</ele><time>2026-05-01T12:53:06.013Z</time></trkpt><trkpt lat="45.6822071" lon="11.7065396"><ele>69.0</ele><time>2026-05-01T12:53:07.024Z</time></trkpt><trkpt lat="45.6821497" lon="11.7066265"><ele>69.0</ele><time>2026-05-01T12:53:08.016Z</time></trkpt><trkpt lat="45.6820694" lon="11.7066561"><ele>69.0</ele><time>2026-05-01T12:53:09.017Z</time></trkpt><trkpt lat="45.6819633" lon="11.7066419"><ele>69.0</ele><time>2026-05-01T12:53:10.021Z</time></trkpt><trkpt lat="45.6818443" lon="11.7066109"><ele>69.0</ele><time>2026-05-01T12:53:11.024Z</time></trkpt><trkpt lat="45.68171" lon="11.7065822"><ele>69.0</ele><time>2026-05-01T12:53:12.011Z</time></trkpt><trkpt lat="45.6815436" lon="11.7065507"><ele>68.33333333333333</ele><time>2026-05-01T12:53:13.009Z</time></trkpt><trkpt lat="45.681364" lon="11.7065182"><ele>67.66666666666666</ele><time>2026-05-01T12:53:14.019Z</time></trkpt><trkpt lat="45.6811711" lon="11.7064914"><ele>67.0</ele><time>2026-05-01T12:53:15.021Z</time></trkpt><trkpt lat="45.6809722" lon="11.7065049"><ele>66.33333333333333</ele><time>2026-05-01T12:53:16.025Z</time></trkpt><trkpt lat="45.6807696" lon="11.7065619"><ele>65.66666666666667</ele><time>2026-05-01T12:53:17.014Z</time></trkpt><trkpt lat="45.6805625" lon="11.7066458"><ele>65.0</ele><time>2026-05-01T12:53:18.015Z</time></trkpt><trkpt lat="45.6803502" lon="11.7067569"><ele>65.5</ele><time>2026-05-01T12:53:19.017Z</time></trkpt><trkpt lat="45.6801279" lon="11.7068778"><ele>66.0</ele><time>2026-05-01T12:53:20.015Z</time></trkpt><trkpt lat="45.6798992" lon="11.7070013"><ele>66.0</ele><time>2026-05-01T12:53:21.021Z</time></trkpt><trkpt lat="45.6796621" lon="11.7071301"><ele>66.0</ele><time>2026-05-01T12:53:22.015Z</time></trkpt><trkpt lat="45.6794231" lon="11.7072596"><ele>66.0</ele><time>2026-05-01T12:53:23.007Z</time></trkpt><trkpt lat="45.6791821" lon="11.7073906"><ele>66.0</ele><time>2026-05-01T12:53:24.019Z</time></trkpt><trkpt lat="45.6789387" lon="11.7075359"><ele>66.0</ele><time>2026-05-01T12:53:25.016Z</time></trkpt><trkpt lat="45.6786981" lon="11.7076495"><ele>66.0</ele><time>2026-05-01T12:53:26.012Z</time></trkpt><trkpt lat="45.6784591" lon="11.7077783"><ele>65.5</ele><time>2026-05-01T12:53:27.018Z</time></trkpt><trkpt lat="45.678221" lon="11.707906"><ele>65.0</ele><time>2026-05-01T12:53:28.017Z</time></trkpt><trkpt lat="45.677989" lon="11.7080319"><ele>65.0</ele><time>2026-05-01T12:53:29.012Z</time></trkpt><trkpt lat="45.6777545" lon="11.7081555"><ele>65.0</ele><time>2026-05-01T12:53:30.017Z</time></trkpt><trkpt lat="45.6775178" lon="11.7082747"><ele>65.0</ele><time>2026-05-01T12:53:31.017Z</time></trkpt><trkpt lat="45.6772804" lon="11.7083927"><ele>65.0</ele><time>2026-05-01T12:53:32.016Z</time></trkpt><trkpt lat="45.6770327" lon="11.7085102"><ele>65.0</ele><time>2026-05-01T12:53:33.014Z</time></trkpt><trkpt lat="45.6767836" lon="11.7086284"><ele>65.0</ele><time>2026-05-01T12:53:34.023Z</time></trkpt><trkpt lat="45.6765331" lon="11.7087445"><ele>65.0</ele><time>2026-05-01T12:53:35.021Z</time></trkpt><trkpt lat="45.6762825" lon="11.7088567"><ele>65.0</ele><time>2026-05-01T12:53:36.044Z</time></trkpt><trkpt lat="45.676032" lon="11.7089609"><ele>64.0</ele><time>2026-05-01T12:53:37.029Z</time></trkpt><trkpt lat="45.6757781" lon="11.709059"><ele>63.0</ele><time>2026-05-01T12:53:38.016Z</time></trkpt><trkpt lat="45.6755225" lon="11.7091479"><ele>63.0</ele><time>2026-05-01T12:53:39.019Z</time></trkpt><trkpt lat="45.6752671" lon="11.7092338"><ele>63.0</ele><time>2026-05-01T12:53:40.015Z</time></trkpt><trkpt lat="45.6750134" lon="11.7093207"><ele>63.0</ele><time>2026-05-01T12:53:41.02Z</time></trkpt><trkpt lat="45.6747595" lon="11.709407"><ele>63.0</ele><time>2026-05-01T12:53:42.014Z</time></trkpt><trkpt lat="45.6745059" lon="11.7094917"><ele>64.0</ele><time>2026-05-01T12:53:43.018Z</time></trkpt><trkpt lat="45.6742541" lon="11.7095745"><ele>65.0</ele><time>2026-05-01T12:53:44.015Z</time></trkpt><trkpt lat="45.6740019" lon="11.7096586"><ele>65.0</ele><time>2026-05-01T12:53:45.02Z</time></trkpt><trkpt lat="45.673749" lon="11.7097432"><ele>65.0</ele><time>2026-05-01T12:53:46.019Z</time></trkpt><trkpt lat="45.6734956" lon="11.7098252"><ele>64.5</ele><time>2026-05-01T12:53:47.016Z</time></trkpt><trkpt lat="45.6732411" lon="11.709902"><ele>64.0</ele><time>2026-05-01T12:53:48.023Z</time></trkpt><trkpt lat="45.6729859" lon="11.7099759"><ele>62.5</ele><time>2026-05-01T12:53:49.02Z</time></trkpt><trkpt lat="45.6727319" lon="11.71005"><ele>61.0</ele><time>2026-05-01T12:53:50.033Z</time></trkpt><trkpt lat="45.6724802" lon="11.7101222"><ele>61.0</ele><time>2026-05-01T12:53:51.02Z</time></trkpt><trkpt lat="45.6722291" lon="11.7101973"><ele>61.0</ele><time>2026-05-01T12:53:52.028Z</time></trkpt><trkpt lat="45.6719798" lon="11.7102805"><ele>61.0</ele><time>2026-05-01T12:53:53.017Z</time></trkpt><trkpt lat="45.6717337" lon="11.7103785"><ele>61.0</ele><time>2026-05-01T12:53:54.022Z</time></trkpt><trkpt lat="45.6714904" lon="11.7104931"><ele>61.0</ele><time>2026-05-01T12:53:55.019Z</time></trkpt><trkpt lat="45.6712485" lon="11.7106208"><ele>61.0</ele><time>2026-05-01T12:53:56.019Z</time></trkpt><trkpt lat="45.671006" lon="11.7107504"><ele>60.5</ele><time>2026-05-01T12:53:57.017Z</time></trkpt><trkpt lat="45.6707611" lon="11.7108746"><ele>60.0</ele><time>2026-05-01T12:53:58.02Z</time></trkpt><trkpt lat="45.6705132" lon="11.7109809"><ele>59.5</ele><time>2026-05-01T12:53:59.025Z</time></trkpt><trkpt lat="45.6702618" lon="11.7110711"><ele>59.0</ele><time>2026-05-01T12:54:00.053Z</time></trkpt><trkpt lat="45.6700075" lon="11.7111466"><ele>59.0</ele><time>2026-05-01T12:54:01.025Z</time></trkpt><trkpt lat="45.6697523" lon="11.7112168"><ele>59.0</ele><time>2026-05-01T12:54:02.033Z</time></trkpt><trkpt lat="45.6694969" lon="11.7112874"><ele>59.0</ele><time>2026-05-01T12:54:03.026Z</time></trkpt><trkpt lat="45.6692414" lon="11.7113582"><ele>59.0</ele><time>2026-05-01T12:54:04.025Z</time></trkpt><trkpt lat="45.6689853" lon="11.7114326"><ele>59.0</ele><time>2026-05-01T12:54:05.025Z</time></trkpt><trkpt lat="45.66873" lon="11.7115117"><ele>59.0</ele><time>2026-05-01T12:54:06.027Z</time></trkpt><trkpt lat="45.6684766" lon="11.7115996"><ele>59.5</ele><time>2026-05-01T12:54:07.015Z</time></trkpt><trkpt lat="45.6682229" lon="11.7116997"><ele>60.0</ele><time>2026-05-01T12:54:08.008Z</time></trkpt><trkpt lat="45.6679643" lon="11.7118144"><ele>60.0</ele><time>2026-05-01T12:54:09.023Z</time></trkpt><trkpt lat="45.6677099" lon="11.7119334"><ele>60.0</ele><time>2026-05-01T12:54:10.023Z</time></trkpt><trkpt lat="45.6674708" lon="11.7120474"><ele>60.0</ele><time>2026-05-01T12:54:11.017Z</time></trkpt><trkpt lat="45.66725" lon="11.7121543"><ele>60.0</ele><time>2026-05-01T12:54:12.017Z</time></trkpt><trkpt lat="45.6670442" lon="11.7122509"><ele>59.0</ele><time>2026-05-01T12:54:13.013Z</time></trkpt><trkpt lat="45.6668532" lon="11.7123379"><ele>58.0</ele><time>2026-05-01T12:54:14.017Z</time></trkpt><trkpt lat="45.6666782" lon="11.7124177"><ele>57.0</ele><time>2026-05-01T12:54:15.018Z</time></trkpt><trkpt lat="45.6665218" lon="11.7124872"><ele>57.0</ele><time>2026-05-01T12:54:16.021Z</time></trkpt><trkpt lat="45.6663796" lon="11.7125466"><ele>57.0</ele><time>2026-05-01T12:54:17.015Z</time></trkpt><trkpt lat="45.6662638" lon="11.7125873"><ele>57.0</ele><time>2026-05-01T12:54:18.017Z</time></trkpt><trkpt lat="45.6661803" lon="11.7126174"><ele>57.0</ele><time>2026-05-01T12:54:19.029Z</time></trkpt><trkpt lat="45.6661009" lon="11.7127073"><ele>57.25</ele><time>2026-05-01T12:54:21.017Z</time></trkpt><trkpt lat="45.6661565" lon="11.7129282"><ele>57.5</ele><time>2026-05-01T12:54:23.02Z</time></trkpt><trkpt lat="45.6662035" lon="11.7130971"><ele>57.75</ele><time>2026-05-01T12:54:24.014Z</time></trkpt><trkpt lat="45.6662483" lon="11.713292"><ele>58.0</ele><time>2026-05-01T12:54:25.014Z</time></trkpt><trkpt lat="45.6662938" lon="11.713505"><ele>58.0</ele><time>2026-05-01T12:54:26.018Z</time></trkpt><trkpt lat="45.66634" lon="11.7137285"><ele>58.0</ele><time>2026-05-01T12:54:27.021Z</time></trkpt><trkpt lat="45.6663878" lon="11.7139594"><ele>58.0</ele><time>2026-05-01T12:54:28.015Z</time></trkpt><trkpt lat="45.6664363" lon="11.7141964"><ele>57.666666666666664</ele><time>2026-05-01T12:54:29.013Z</time></trkpt><trkpt lat="45.6664888" lon="11.7144364"><ele>57.33333333333333</ele><time>2026-05-01T12:54:30.019Z</time></trkpt><trkpt lat="45.666538" lon="11.7146745"><ele>57.0</ele><time>2026-05-01T12:54:31.018Z</time></trkpt><trkpt lat="45.6665865" lon="11.714911"><ele>57.0</ele><time>2026-05-01T12:54:32.012Z</time></trkpt><trkpt lat="45.6666332" lon="11.7151454"><ele>57.0</ele><time>2026-05-01T12:54:33.01Z</time></trkpt><trkpt lat="45.6666794" lon="11.7153727"><ele>57.0</ele><time>2026-05-01T12:54:34.015Z</time></trkpt><trkpt lat="45.6667206" lon="11.7155864"><ele>57.25</ele><time>2026-05-01T12:54:35.014Z</time></trkpt><trkpt lat="45.6667606" lon="11.7157877"><ele>57.5</ele><time>2026-05-01T12:54:36.017Z</time></trkpt><trkpt lat="45.666803" lon="11.7159863"><ele>57.75</ele><time>2026-05-01T12:54:37.014Z</time></trkpt><trkpt lat="45.666845" lon="11.7161855"><ele>58.0</ele><time>2026-05-01T12:54:38.016Z</time></trkpt><trkpt lat="45.6668876" lon="11.7163831"><ele>58.0</ele><time>2026-05-01T12:54:39.016Z</time></trkpt><trkpt lat="45.6669294" lon="11.7165804"><ele>58.0</ele><time>2026-05-01T12:54:40.016Z</time></trkpt><trkpt lat="45.666973" lon="11.7167776"><ele>58.0</ele><time>2026-05-01T12:54:41.017Z</time></trkpt><trkpt lat="45.6670187" lon="11.71698"><ele>58.0</ele><time>2026-05-01T12:54:42.02Z</time></trkpt><trkpt lat="45.6670633" lon="11.71719"><ele>58.5</ele><time>2026-05-01T12:54:43.021Z</time></trkpt><trkpt lat="45.6671084" lon="11.7174061"><ele>59.0</ele><time>2026-05-01T12:54:44.029Z</time></trkpt><trkpt lat="45.6671511" lon="11.717613"><ele>59.5</ele><time>2026-05-01T12:54:45.017Z</time></trkpt><trkpt lat="45.66719" lon="11.7178007"><ele>60.0</ele><time>2026-05-01T12:54:46.022Z</time></trkpt><trkpt lat="45.6672228" lon="11.7179708"><ele>60.0</ele><time>2026-05-01T12:54:47.038Z</time></trkpt><trkpt lat="45.6672518" lon="11.7181213"><ele>60.0</ele><time>2026-05-01T12:54:48.017Z</time></trkpt><trkpt lat="45.6672715" lon="11.7182573"><ele>60.0</ele><time>2026-05-01T12:54:49.015Z</time></trkpt><trkpt lat="45.667275" lon="11.718371"><ele>60.0</ele><time>2026-05-01T12:54:50.017Z</time></trkpt><trkpt lat="45.667248" lon="11.7184889"><ele>60.0</ele><time>2026-05-01T12:54:52.019Z</time></trkpt><trkpt lat="45.6671833" lon="11.7185823"><ele>60.5</ele><time>2026-05-01T12:54:55.021Z</time></trkpt><trkpt lat="45.667181" lon="11.718758"><ele>61.0</ele><time>2026-05-01T12:54:57.011Z</time></trkpt><trkpt lat="45.6672075" lon="11.7188893"><ele>61.5</ele><time>2026-05-01T12:54:58.016Z</time></trkpt><trkpt lat="45.6672437" lon="11.7190419"><ele>62.0</ele><time>2026-05-01T12:54:59.022Z</time></trkpt><trkpt lat="45.667278" lon="11.7192122"><ele>62.0</ele><time>2026-05-01T12:55:00.024Z</time></trkpt><trkpt lat="45.6673128" lon="11.7193866"><ele>62.0</ele><time>2026-05-01T12:55:01.014Z</time></trkpt><trkpt lat="45.667342" lon="11.7195435"><ele>62.0</ele><time>2026-05-01T12:55:02.021Z</time></trkpt><trkpt lat="45.6673719" lon="11.71967"><ele>62.0</ele><time>2026-05-01T12:55:03.023Z</time></trkpt><trkpt lat="45.6673971" lon="11.7197757"><ele>62.0</ele><time>2026-05-01T12:55:04.039Z</time></trkpt><trkpt lat="45.6674372" lon="11.7198743"><ele>60.0</ele><time>2026-05-01T12:55:06.029Z</time></trkpt><trkpt lat="45.6674959" lon="11.7198302"><ele>60.0</ele><time>2026-05-01T12:55:09.018Z</time></trkpt></trkseg></trk></gpx>